<?xml version="1.0" encoding="UTF-8"?>
<gpx version="1.1" creator="https://www.youtrack.es" xsi:schemaLocation="http://www.topografix.com/GPX/1/1 http://www.topografix.com/GPX/1/1/gpx.xsd http://www.garmin.com/xmlschemas/GpxExtensions/v3 http://www.garmin.com/xmlschemas/GpxExtensionsv3.xsd http://www.garmin.com/xmlschemas/TrackPointExtension/v1 http://www.garmin.com/xmlschemas/TrackPointExtensionv1.xsd" xmlns:gpxtpx="http://www.garmin.com/xmlschemas/TrackPointExtension/v1" xmlns:gpxx="http://www.garmin.com/xmlschemas/GpxExtensions/v3" xmlns:xsi="http://www.w3.org/2001/XMLSchema-instance">
  <metadata>
    <link href="https://www.youtrack.es">
      <text>YouTrack.es</text>
    </link>
    <time>2026-05-08T16:47:35Z</time>
  </metadata>
  <trk>
    <src>https://www.youtrack.es</src>
    <link href="https://www.youtrack.es/ruta/14703-trialeras-por-torres">
      <text>YouTrack.es</text>
    </link>
    <trkseg>
      <trkpt lat="40.382513" lon="-3.412322">
        <ele>646.8</ele>
        <time>1970-01-01T00:00:00.000Z</time>
      </trkpt>
      <trkpt lat="40.382494" lon="-3.412339">
        <ele>646.8</ele>
        <time>1970-01-01T00:00:01.000Z</time>
      </trkpt>
      <trkpt lat="40.382487" lon="-3.412368">
        <ele>646.8</ele>
        <time>1970-01-01T00:00:02.000Z</time>
      </trkpt>
      <trkpt lat="40.382477" lon="-3.412402">
        <ele>647</ele>
        <time>1970-01-01T00:00:03.000Z</time>
      </trkpt>
      <trkpt lat="40.382478" lon="-3.412444">
        <ele>647</ele>
        <time>1970-01-01T00:00:04.000Z</time>
      </trkpt>
      <trkpt lat="40.382473" lon="-3.41249">
        <ele>647</ele>
        <time>1970-01-01T00:00:05.000Z</time>
      </trkpt>
      <trkpt lat="40.382461" lon="-3.412539">
        <ele>647.4</ele>
        <time>1970-01-01T00:00:06.000Z</time>
      </trkpt>
      <trkpt lat="40.382452" lon="-3.412593">
        <ele>647.4</ele>
        <time>1970-01-01T00:00:07.000Z</time>
      </trkpt>
      <trkpt lat="40.382444" lon="-3.412648">
        <ele>647.6</ele>
        <time>1970-01-01T00:00:08.000Z</time>
      </trkpt>
      <trkpt lat="40.382431" lon="-3.412703">
        <ele>647.6</ele>
        <time>1970-01-01T00:00:09.000Z</time>
      </trkpt>
      <trkpt lat="40.382423" lon="-3.412755">
        <ele>647.8</ele>
        <time>1970-01-01T00:00:10.000Z</time>
      </trkpt>
      <trkpt lat="40.382416" lon="-3.412807">
        <ele>647.8</ele>
        <time>1970-01-01T00:00:11.000Z</time>
      </trkpt>
      <trkpt lat="40.382407" lon="-3.412851">
        <ele>647.8</ele>
        <time>1970-01-01T00:00:12.000Z</time>
      </trkpt>
      <trkpt lat="40.382392" lon="-3.412897">
        <ele>647.8</ele>
        <time>1970-01-01T00:00:13.000Z</time>
      </trkpt>
      <trkpt lat="40.382388" lon="-3.412948">
        <ele>647.8</ele>
        <time>1970-01-01T00:00:14.000Z</time>
      </trkpt>
      <trkpt lat="40.382389" lon="-3.412994">
        <ele>648</ele>
        <time>1970-01-01T00:00:15.000Z</time>
      </trkpt>
      <trkpt lat="40.382387" lon="-3.413043">
        <ele>648</ele>
        <time>1970-01-01T00:00:16.000Z</time>
      </trkpt>
      <trkpt lat="40.382371" lon="-3.413095">
        <ele>648.2</ele>
        <time>1970-01-01T00:00:17.000Z</time>
      </trkpt>
      <trkpt lat="40.382361" lon="-3.413149">
        <ele>648.2</ele>
        <time>1970-01-01T00:00:18.000Z</time>
      </trkpt>
      <trkpt lat="40.38235" lon="-3.413204">
        <ele>648.4</ele>
        <time>1970-01-01T00:00:19.000Z</time>
      </trkpt>
      <trkpt lat="40.382339" lon="-3.41326">
        <ele>648.4</ele>
        <time>1970-01-01T00:00:20.000Z</time>
      </trkpt>
      <trkpt lat="40.382325" lon="-3.413319">
        <ele>648.6</ele>
        <time>1970-01-01T00:00:21.000Z</time>
      </trkpt>
      <trkpt lat="40.382316" lon="-3.413381">
        <ele>648.6</ele>
        <time>1970-01-01T00:00:22.000Z</time>
      </trkpt>
      <trkpt lat="40.382312" lon="-3.413446">
        <ele>648.6</ele>
        <time>1970-01-01T00:00:23.000Z</time>
      </trkpt>
      <trkpt lat="40.382308" lon="-3.413511">
        <ele>648.8</ele>
        <time>1970-01-01T00:00:24.000Z</time>
      </trkpt>
      <trkpt lat="40.382305" lon="-3.413581">
        <ele>648.8</ele>
        <time>1970-01-01T00:00:25.000Z</time>
      </trkpt>
      <trkpt lat="40.382301" lon="-3.413649">
        <ele>648.8</ele>
        <time>1970-01-01T00:00:26.000Z</time>
      </trkpt>
      <trkpt lat="40.382295" lon="-3.413707">
        <ele>648.8</ele>
        <time>1970-01-01T00:00:27.000Z</time>
      </trkpt>
      <trkpt lat="40.382293" lon="-3.413753">
        <ele>649</ele>
        <time>1970-01-01T00:00:28.000Z</time>
      </trkpt>
      <trkpt lat="40.382305" lon="-3.41379">
        <ele>649</ele>
        <time>1970-01-01T00:00:29.000Z</time>
      </trkpt>
      <trkpt lat="40.382333" lon="-3.413817">
        <ele>649</ele>
        <time>1970-01-01T00:00:30.000Z</time>
      </trkpt>
      <trkpt lat="40.382371" lon="-3.413844">
        <ele>649</ele>
        <time>1970-01-01T00:00:31.000Z</time>
      </trkpt>
      <trkpt lat="40.382415" lon="-3.413869">
        <ele>649</ele>
        <time>1970-01-01T00:00:32.000Z</time>
      </trkpt>
      <trkpt lat="40.382462" lon="-3.413891">
        <ele>649</ele>
        <time>1970-01-01T00:00:33.000Z</time>
      </trkpt>
      <trkpt lat="40.382556" lon="-3.413925">
        <ele>649</ele>
        <time>1970-01-01T00:00:34.000Z</time>
      </trkpt>
      <trkpt lat="40.382597" lon="-3.41394">
        <ele>649</ele>
        <time>1970-01-01T00:00:35.000Z</time>
      </trkpt>
      <trkpt lat="40.382643" lon="-3.41396">
        <ele>648.8</ele>
        <time>1970-01-01T00:00:36.000Z</time>
      </trkpt>
      <trkpt lat="40.38268" lon="-3.413974">
        <ele>648.8</ele>
        <time>1970-01-01T00:00:37.000Z</time>
      </trkpt>
      <trkpt lat="40.382703" lon="-3.413986">
        <ele>648.6</ele>
        <time>1970-01-01T00:00:38.000Z</time>
      </trkpt>
      <trkpt lat="40.38272" lon="-3.414">
        <ele>648.4</ele>
        <time>1970-01-01T00:00:39.000Z</time>
      </trkpt>
      <trkpt lat="40.382735" lon="-3.414028">
        <ele>648.2</ele>
        <time>1970-01-01T00:00:40.000Z</time>
      </trkpt>
      <trkpt lat="40.382738" lon="-3.414071">
        <ele>648.2</ele>
        <time>1970-01-01T00:00:41.000Z</time>
      </trkpt>
      <trkpt lat="40.382735" lon="-3.414118">
        <ele>648</ele>
        <time>1970-01-01T00:00:42.000Z</time>
      </trkpt>
      <trkpt lat="40.382729" lon="-3.414171">
        <ele>647.8</ele>
        <time>1970-01-01T00:00:43.000Z</time>
      </trkpt>
      <trkpt lat="40.382721" lon="-3.414224">
        <ele>647.8</ele>
        <time>1970-01-01T00:00:44.000Z</time>
      </trkpt>
      <trkpt lat="40.382712" lon="-3.414276">
        <ele>647.8</ele>
        <time>1970-01-01T00:00:45.000Z</time>
      </trkpt>
      <trkpt lat="40.382702" lon="-3.414328">
        <ele>647.6</ele>
        <time>1970-01-01T00:00:46.000Z</time>
      </trkpt>
      <trkpt lat="40.382696" lon="-3.414384">
        <ele>647.6</ele>
        <time>1970-01-01T00:00:47.000Z</time>
      </trkpt>
      <trkpt lat="40.382687" lon="-3.414445">
        <ele>647.6</ele>
        <time>1970-01-01T00:00:48.000Z</time>
      </trkpt>
      <trkpt lat="40.382674" lon="-3.414507">
        <ele>647.6</ele>
        <time>1970-01-01T00:00:49.000Z</time>
      </trkpt>
      <trkpt lat="40.382663" lon="-3.414571">
        <ele>647.8</ele>
        <time>1970-01-01T00:00:50.000Z</time>
      </trkpt>
      <trkpt lat="40.382653" lon="-3.414637">
        <ele>648</ele>
        <time>1970-01-01T00:00:51.000Z</time>
      </trkpt>
      <trkpt lat="40.382647" lon="-3.414704">
        <ele>648.2</ele>
        <time>1970-01-01T00:00:52.000Z</time>
      </trkpt>
      <trkpt lat="40.382641" lon="-3.414769">
        <ele>648.2</ele>
        <time>1970-01-01T00:00:53.000Z</time>
      </trkpt>
      <trkpt lat="40.38263" lon="-3.414833">
        <ele>648.4</ele>
        <time>1970-01-01T00:00:54.000Z</time>
      </trkpt>
      <trkpt lat="40.382618" lon="-3.414896">
        <ele>648.6</ele>
        <time>1970-01-01T00:00:55.000Z</time>
      </trkpt>
      <trkpt lat="40.382606" lon="-3.414958">
        <ele>648.6</ele>
        <time>1970-01-01T00:00:56.000Z</time>
      </trkpt>
      <trkpt lat="40.382589" lon="-3.415018">
        <ele>648.8</ele>
        <time>1970-01-01T00:00:57.000Z</time>
      </trkpt>
      <trkpt lat="40.382577" lon="-3.415077">
        <ele>649</ele>
        <time>1970-01-01T00:00:58.000Z</time>
      </trkpt>
      <trkpt lat="40.382566" lon="-3.41513">
        <ele>649.2</ele>
        <time>1970-01-01T00:00:59.000Z</time>
      </trkpt>
      <trkpt lat="40.382558" lon="-3.415185">
        <ele>649.4</ele>
        <time>1970-01-01T00:01:00.000Z</time>
      </trkpt>
      <trkpt lat="40.382549" lon="-3.415241">
        <ele>649.4</ele>
        <time>1970-01-01T00:01:01.000Z</time>
      </trkpt>
      <trkpt lat="40.382541" lon="-3.415296">
        <ele>649.6</ele>
        <time>1970-01-01T00:01:02.000Z</time>
      </trkpt>
      <trkpt lat="40.382534" lon="-3.415348">
        <ele>650</ele>
        <time>1970-01-01T00:01:03.000Z</time>
      </trkpt>
      <trkpt lat="40.382518" lon="-3.415405">
        <ele>650.2</ele>
        <time>1970-01-01T00:01:04.000Z</time>
      </trkpt>
      <trkpt lat="40.382493" lon="-3.415463">
        <ele>650.4</ele>
        <time>1970-01-01T00:01:05.000Z</time>
      </trkpt>
      <trkpt lat="40.382468" lon="-3.415522">
        <ele>650.6</ele>
        <time>1970-01-01T00:01:06.000Z</time>
      </trkpt>
      <trkpt lat="40.382444" lon="-3.415579">
        <ele>650.6</ele>
        <time>1970-01-01T00:01:07.000Z</time>
      </trkpt>
      <trkpt lat="40.382418" lon="-3.415636">
        <ele>650.8</ele>
        <time>1970-01-01T00:01:08.000Z</time>
      </trkpt>
      <trkpt lat="40.382387" lon="-3.415696">
        <ele>650.8</ele>
        <time>1970-01-01T00:01:09.000Z</time>
      </trkpt>
      <trkpt lat="40.382354" lon="-3.415756">
        <ele>651</ele>
        <time>1970-01-01T00:01:10.000Z</time>
      </trkpt>
      <trkpt lat="40.382319" lon="-3.415812">
        <ele>651</ele>
        <time>1970-01-01T00:01:11.000Z</time>
      </trkpt>
      <trkpt lat="40.382287" lon="-3.415867">
        <ele>651.2</ele>
        <time>1970-01-01T00:01:12.000Z</time>
      </trkpt>
      <trkpt lat="40.382251" lon="-3.415921">
        <ele>651.2</ele>
        <time>1970-01-01T00:01:13.000Z</time>
      </trkpt>
      <trkpt lat="40.382216" lon="-3.415973">
        <ele>651.4</ele>
        <time>1970-01-01T00:01:14.000Z</time>
      </trkpt>
      <trkpt lat="40.382179" lon="-3.416025">
        <ele>651.6</ele>
        <time>1970-01-01T00:01:15.000Z</time>
      </trkpt>
      <trkpt lat="40.38214" lon="-3.416075">
        <ele>651.6</ele>
        <time>1970-01-01T00:01:16.000Z</time>
      </trkpt>
      <trkpt lat="40.382107" lon="-3.416132">
        <ele>651.8</ele>
        <time>1970-01-01T00:01:17.000Z</time>
      </trkpt>
      <trkpt lat="40.382076" lon="-3.416188">
        <ele>651.8</ele>
        <time>1970-01-01T00:01:18.000Z</time>
      </trkpt>
      <trkpt lat="40.382044" lon="-3.416245">
        <ele>652</ele>
        <time>1970-01-01T00:01:19.000Z</time>
      </trkpt>
      <trkpt lat="40.38201" lon="-3.416304">
        <ele>652</ele>
        <time>1970-01-01T00:01:20.000Z</time>
      </trkpt>
      <trkpt lat="40.381974" lon="-3.416363">
        <ele>652.2</ele>
        <time>1970-01-01T00:01:21.000Z</time>
      </trkpt>
      <trkpt lat="40.381937" lon="-3.416424">
        <ele>652.2</ele>
        <time>1970-01-01T00:01:22.000Z</time>
      </trkpt>
      <trkpt lat="40.381898" lon="-3.416488">
        <ele>652.2</ele>
        <time>1970-01-01T00:01:23.000Z</time>
      </trkpt>
      <trkpt lat="40.381864" lon="-3.416545">
        <ele>652.2</ele>
        <time>1970-01-01T00:01:24.000Z</time>
      </trkpt>
      <trkpt lat="40.381828" lon="-3.416606">
        <ele>652.4</ele>
        <time>1970-01-01T00:01:25.000Z</time>
      </trkpt>
      <trkpt lat="40.381791" lon="-3.416658">
        <ele>652.4</ele>
        <time>1970-01-01T00:01:26.000Z</time>
      </trkpt>
      <trkpt lat="40.381757" lon="-3.41672">
        <ele>652.4</ele>
        <time>1970-01-01T00:01:27.000Z</time>
      </trkpt>
      <trkpt lat="40.381728" lon="-3.416779">
        <ele>652.6</ele>
        <time>1970-01-01T00:01:28.000Z</time>
      </trkpt>
      <trkpt lat="40.3817" lon="-3.416838">
        <ele>652.6</ele>
        <time>1970-01-01T00:01:29.000Z</time>
      </trkpt>
      <trkpt lat="40.381673" lon="-3.416899">
        <ele>652.6</ele>
        <time>1970-01-01T00:01:30.000Z</time>
      </trkpt>
      <trkpt lat="40.381649" lon="-3.41696">
        <ele>652.6</ele>
        <time>1970-01-01T00:01:31.000Z</time>
      </trkpt>
      <trkpt lat="40.381626" lon="-3.417022">
        <ele>652.6</ele>
        <time>1970-01-01T00:01:32.000Z</time>
      </trkpt>
      <trkpt lat="40.381604" lon="-3.417082">
        <ele>652.6</ele>
        <time>1970-01-01T00:01:33.000Z</time>
      </trkpt>
      <trkpt lat="40.381587" lon="-3.417139">
        <ele>652.6</ele>
        <time>1970-01-01T00:01:34.000Z</time>
      </trkpt>
      <trkpt lat="40.381571" lon="-3.417202">
        <ele>652.8</ele>
        <time>1970-01-01T00:01:35.000Z</time>
      </trkpt>
      <trkpt lat="40.381552" lon="-3.417268">
        <ele>652.8</ele>
        <time>1970-01-01T00:01:36.000Z</time>
      </trkpt>
      <trkpt lat="40.381528" lon="-3.417335">
        <ele>653</ele>
        <time>1970-01-01T00:01:37.000Z</time>
      </trkpt>
      <trkpt lat="40.381498" lon="-3.4174">
        <ele>653</ele>
        <time>1970-01-01T00:01:38.000Z</time>
      </trkpt>
      <trkpt lat="40.381464" lon="-3.417465">
        <ele>653</ele>
        <time>1970-01-01T00:01:39.000Z</time>
      </trkpt>
      <trkpt lat="40.381428" lon="-3.417522">
        <ele>653</ele>
        <time>1970-01-01T00:01:40.000Z</time>
      </trkpt>
      <trkpt lat="40.381388" lon="-3.417579">
        <ele>653.2</ele>
        <time>1970-01-01T00:01:41.000Z</time>
      </trkpt>
      <trkpt lat="40.381352" lon="-3.417636">
        <ele>653.2</ele>
        <time>1970-01-01T00:01:42.000Z</time>
      </trkpt>
      <trkpt lat="40.381317" lon="-3.417691">
        <ele>653.4</ele>
        <time>1970-01-01T00:01:43.000Z</time>
      </trkpt>
      <trkpt lat="40.381282" lon="-3.417749">
        <ele>653.6</ele>
        <time>1970-01-01T00:01:44.000Z</time>
      </trkpt>
      <trkpt lat="40.381247" lon="-3.417806">
        <ele>653.8</ele>
        <time>1970-01-01T00:01:45.000Z</time>
      </trkpt>
      <trkpt lat="40.381212" lon="-3.417859">
        <ele>654</ele>
        <time>1970-01-01T00:01:46.000Z</time>
      </trkpt>
      <trkpt lat="40.381176" lon="-3.417909">
        <ele>654.2</ele>
        <time>1970-01-01T00:01:47.000Z</time>
      </trkpt>
      <trkpt lat="40.381141" lon="-3.417958">
        <ele>654.4</ele>
        <time>1970-01-01T00:01:48.000Z</time>
      </trkpt>
      <trkpt lat="40.38111" lon="-3.418005">
        <ele>654.4</ele>
        <time>1970-01-01T00:01:49.000Z</time>
      </trkpt>
      <trkpt lat="40.38108" lon="-3.418049">
        <ele>654.6</ele>
        <time>1970-01-01T00:01:50.000Z</time>
      </trkpt>
      <trkpt lat="40.381042" lon="-3.418093">
        <ele>654.6</ele>
        <time>1970-01-01T00:01:51.000Z</time>
      </trkpt>
      <trkpt lat="40.381006" lon="-3.418141">
        <ele>655</ele>
        <time>1970-01-01T00:01:52.000Z</time>
      </trkpt>
      <trkpt lat="40.380972" lon="-3.418194">
        <ele>655.2</ele>
        <time>1970-01-01T00:01:53.000Z</time>
      </trkpt>
      <trkpt lat="40.380938" lon="-3.418249">
        <ele>655.4</ele>
        <time>1970-01-01T00:01:54.000Z</time>
      </trkpt>
      <trkpt lat="40.380914" lon="-3.41831">
        <ele>655.8</ele>
        <time>1970-01-01T00:01:55.000Z</time>
      </trkpt>
      <trkpt lat="40.380906" lon="-3.418383">
        <ele>656</ele>
        <time>1970-01-01T00:01:56.000Z</time>
      </trkpt>
      <trkpt lat="40.380894" lon="-3.418455">
        <ele>656.2</ele>
        <time>1970-01-01T00:01:57.000Z</time>
      </trkpt>
      <trkpt lat="40.380873" lon="-3.418514">
        <ele>656.4</ele>
        <time>1970-01-01T00:01:58.000Z</time>
      </trkpt>
      <trkpt lat="40.380848" lon="-3.418559">
        <ele>656.8</ele>
        <time>1970-01-01T00:01:59.000Z</time>
      </trkpt>
      <trkpt lat="40.380801" lon="-3.418591">
        <ele>656.8</ele>
        <time>1970-01-01T00:02:00.000Z</time>
      </trkpt>
      <trkpt lat="40.380754" lon="-3.418619">
        <ele>657</ele>
        <time>1970-01-01T00:02:01.000Z</time>
      </trkpt>
      <trkpt lat="40.380711" lon="-3.418655">
        <ele>657</ele>
        <time>1970-01-01T00:02:02.000Z</time>
      </trkpt>
      <trkpt lat="40.380672" lon="-3.418703">
        <ele>657</ele>
        <time>1970-01-01T00:02:03.000Z</time>
      </trkpt>
      <trkpt lat="40.380632" lon="-3.418754">
        <ele>657.2</ele>
        <time>1970-01-01T00:02:04.000Z</time>
      </trkpt>
      <trkpt lat="40.380594" lon="-3.418809">
        <ele>657.4</ele>
        <time>1970-01-01T00:02:05.000Z</time>
      </trkpt>
      <trkpt lat="40.38056" lon="-3.418862">
        <ele>657.8</ele>
        <time>1970-01-01T00:02:06.000Z</time>
      </trkpt>
      <trkpt lat="40.380528" lon="-3.418913">
        <ele>658</ele>
        <time>1970-01-01T00:02:07.000Z</time>
      </trkpt>
      <trkpt lat="40.380499" lon="-3.418969">
        <ele>658.2</ele>
        <time>1970-01-01T00:02:08.000Z</time>
      </trkpt>
      <trkpt lat="40.380466" lon="-3.419029">
        <ele>658.4</ele>
        <time>1970-01-01T00:02:09.000Z</time>
      </trkpt>
      <trkpt lat="40.380432" lon="-3.419091">
        <ele>658.4</ele>
        <time>1970-01-01T00:02:10.000Z</time>
      </trkpt>
      <trkpt lat="40.380401" lon="-3.419146">
        <ele>658.6</ele>
        <time>1970-01-01T00:02:11.000Z</time>
      </trkpt>
      <trkpt lat="40.380368" lon="-3.419199">
        <ele>658.6</ele>
        <time>1970-01-01T00:02:12.000Z</time>
      </trkpt>
      <trkpt lat="40.380335" lon="-3.419253">
        <ele>658.6</ele>
        <time>1970-01-01T00:02:13.000Z</time>
      </trkpt>
      <trkpt lat="40.380302" lon="-3.419308">
        <ele>658.8</ele>
        <time>1970-01-01T00:02:14.000Z</time>
      </trkpt>
      <trkpt lat="40.380269" lon="-3.419364">
        <ele>658.8</ele>
        <time>1970-01-01T00:02:15.000Z</time>
      </trkpt>
      <trkpt lat="40.380233" lon="-3.419422">
        <ele>658.8</ele>
        <time>1970-01-01T00:02:16.000Z</time>
      </trkpt>
      <trkpt lat="40.380198" lon="-3.419477">
        <ele>658.8</ele>
        <time>1970-01-01T00:02:17.000Z</time>
      </trkpt>
      <trkpt lat="40.380164" lon="-3.419534">
        <ele>659</ele>
        <time>1970-01-01T00:02:18.000Z</time>
      </trkpt>
      <trkpt lat="40.380132" lon="-3.419592">
        <ele>659</ele>
        <time>1970-01-01T00:02:19.000Z</time>
      </trkpt>
      <trkpt lat="40.380096" lon="-3.41965">
        <ele>659</ele>
        <time>1970-01-01T00:02:20.000Z</time>
      </trkpt>
      <trkpt lat="40.380059" lon="-3.419705">
        <ele>659</ele>
        <time>1970-01-01T00:02:21.000Z</time>
      </trkpt>
      <trkpt lat="40.380021" lon="-3.419758">
        <ele>659.2</ele>
        <time>1970-01-01T00:02:22.000Z</time>
      </trkpt>
      <trkpt lat="40.379986" lon="-3.419811">
        <ele>659.2</ele>
        <time>1970-01-01T00:02:23.000Z</time>
      </trkpt>
      <trkpt lat="40.379949" lon="-3.419867">
        <ele>659.4</ele>
        <time>1970-01-01T00:02:24.000Z</time>
      </trkpt>
      <trkpt lat="40.379913" lon="-3.419921">
        <ele>659.4</ele>
        <time>1970-01-01T00:02:25.000Z</time>
      </trkpt>
      <trkpt lat="40.37988" lon="-3.419971">
        <ele>659.4</ele>
        <time>1970-01-01T00:02:26.000Z</time>
      </trkpt>
      <trkpt lat="40.379848" lon="-3.420021">
        <ele>659.6</ele>
        <time>1970-01-01T00:02:27.000Z</time>
      </trkpt>
      <trkpt lat="40.379815" lon="-3.420068">
        <ele>659.6</ele>
        <time>1970-01-01T00:02:28.000Z</time>
      </trkpt>
      <trkpt lat="40.379783" lon="-3.420117">
        <ele>659.6</ele>
        <time>1970-01-01T00:02:29.000Z</time>
      </trkpt>
      <trkpt lat="40.379751" lon="-3.420164">
        <ele>659.8</ele>
        <time>1970-01-01T00:02:30.000Z</time>
      </trkpt>
      <trkpt lat="40.379714" lon="-3.420206">
        <ele>660</ele>
        <time>1970-01-01T00:02:31.000Z</time>
      </trkpt>
      <trkpt lat="40.379675" lon="-3.420232">
        <ele>660.2</ele>
        <time>1970-01-01T00:02:32.000Z</time>
      </trkpt>
      <trkpt lat="40.37963" lon="-3.420253">
        <ele>660.4</ele>
        <time>1970-01-01T00:02:33.000Z</time>
      </trkpt>
      <trkpt lat="40.379578" lon="-3.42027">
        <ele>660.6</ele>
        <time>1970-01-01T00:02:34.000Z</time>
      </trkpt>
      <trkpt lat="40.379527" lon="-3.420279">
        <ele>661</ele>
        <time>1970-01-01T00:02:35.000Z</time>
      </trkpt>
      <trkpt lat="40.379472" lon="-3.420274">
        <ele>661.4</ele>
        <time>1970-01-01T00:02:36.000Z</time>
      </trkpt>
      <trkpt lat="40.37942" lon="-3.420264">
        <ele>661.6</ele>
        <time>1970-01-01T00:02:37.000Z</time>
      </trkpt>
      <trkpt lat="40.379372" lon="-3.420252">
        <ele>662</ele>
        <time>1970-01-01T00:02:38.000Z</time>
      </trkpt>
      <trkpt lat="40.37932" lon="-3.420244">
        <ele>662</ele>
        <time>1970-01-01T00:02:39.000Z</time>
      </trkpt>
      <trkpt lat="40.379267" lon="-3.420241">
        <ele>662.2</ele>
        <time>1970-01-01T00:02:40.000Z</time>
      </trkpt>
      <trkpt lat="40.379213" lon="-3.420242">
        <ele>662.4</ele>
        <time>1970-01-01T00:02:41.000Z</time>
      </trkpt>
      <trkpt lat="40.379161" lon="-3.420253">
        <ele>662.8</ele>
        <time>1970-01-01T00:02:42.000Z</time>
      </trkpt>
      <trkpt lat="40.379111" lon="-3.420273">
        <ele>662.8</ele>
        <time>1970-01-01T00:02:43.000Z</time>
      </trkpt>
      <trkpt lat="40.379066" lon="-3.420308">
        <ele>663</ele>
        <time>1970-01-01T00:02:44.000Z</time>
      </trkpt>
      <trkpt lat="40.379027" lon="-3.420355">
        <ele>663.4</ele>
        <time>1970-01-01T00:02:45.000Z</time>
      </trkpt>
      <trkpt lat="40.378996" lon="-3.420407">
        <ele>663.6</ele>
        <time>1970-01-01T00:02:46.000Z</time>
      </trkpt>
      <trkpt lat="40.378968" lon="-3.420461">
        <ele>663.8</ele>
        <time>1970-01-01T00:02:47.000Z</time>
      </trkpt>
      <trkpt lat="40.378941" lon="-3.420513">
        <ele>663.8</ele>
        <time>1970-01-01T00:02:48.000Z</time>
      </trkpt>
      <trkpt lat="40.378914" lon="-3.420567">
        <ele>664</ele>
        <time>1970-01-01T00:02:49.000Z</time>
      </trkpt>
      <trkpt lat="40.37889" lon="-3.420624">
        <ele>664</ele>
        <time>1970-01-01T00:02:50.000Z</time>
      </trkpt>
      <trkpt lat="40.378862" lon="-3.420683">
        <ele>664.2</ele>
        <time>1970-01-01T00:02:51.000Z</time>
      </trkpt>
      <trkpt lat="40.378833" lon="-3.420741">
        <ele>664.6</ele>
        <time>1970-01-01T00:02:52.000Z</time>
      </trkpt>
      <trkpt lat="40.378804" lon="-3.4208">
        <ele>665.2</ele>
        <time>1970-01-01T00:02:53.000Z</time>
      </trkpt>
      <trkpt lat="40.378775" lon="-3.420857">
        <ele>665.4</ele>
        <time>1970-01-01T00:02:54.000Z</time>
      </trkpt>
      <trkpt lat="40.378746" lon="-3.420912">
        <ele>665.6</ele>
        <time>1970-01-01T00:02:55.000Z</time>
      </trkpt>
      <trkpt lat="40.378715" lon="-3.420973">
        <ele>665.8</ele>
        <time>1970-01-01T00:02:56.000Z</time>
      </trkpt>
      <trkpt lat="40.378687" lon="-3.421038">
        <ele>665.8</ele>
        <time>1970-01-01T00:02:57.000Z</time>
      </trkpt>
      <trkpt lat="40.378656" lon="-3.421106">
        <ele>665.8</ele>
        <time>1970-01-01T00:02:58.000Z</time>
      </trkpt>
      <trkpt lat="40.378623" lon="-3.421176">
        <ele>666</ele>
        <time>1970-01-01T00:02:59.000Z</time>
      </trkpt>
      <trkpt lat="40.378586" lon="-3.421247">
        <ele>666</ele>
        <time>1970-01-01T00:03:00.000Z</time>
      </trkpt>
      <trkpt lat="40.378549" lon="-3.421316">
        <ele>666</ele>
        <time>1970-01-01T00:03:01.000Z</time>
      </trkpt>
      <trkpt lat="40.378506" lon="-3.421387">
        <ele>666</ele>
        <time>1970-01-01T00:03:02.000Z</time>
      </trkpt>
      <trkpt lat="40.378456" lon="-3.42146">
        <ele>666</ele>
        <time>1970-01-01T00:03:03.000Z</time>
      </trkpt>
      <trkpt lat="40.378412" lon="-3.421536">
        <ele>666</ele>
        <time>1970-01-01T00:03:04.000Z</time>
      </trkpt>
      <trkpt lat="40.378366" lon="-3.421612">
        <ele>666</ele>
        <time>1970-01-01T00:03:05.000Z</time>
      </trkpt>
      <trkpt lat="40.378321" lon="-3.421694">
        <ele>666</ele>
        <time>1970-01-01T00:03:06.000Z</time>
      </trkpt>
      <trkpt lat="40.378272" lon="-3.421778">
        <ele>665.6</ele>
        <time>1970-01-01T00:03:07.000Z</time>
      </trkpt>
      <trkpt lat="40.378221" lon="-3.421863">
        <ele>665.6</ele>
        <time>1970-01-01T00:03:08.000Z</time>
      </trkpt>
      <trkpt lat="40.378173" lon="-3.421949">
        <ele>665.4</ele>
        <time>1970-01-01T00:03:09.000Z</time>
      </trkpt>
      <trkpt lat="40.378123" lon="-3.422037">
        <ele>665.2</ele>
        <time>1970-01-01T00:03:10.000Z</time>
      </trkpt>
      <trkpt lat="40.378067" lon="-3.422116">
        <ele>665.2</ele>
        <time>1970-01-01T00:03:11.000Z</time>
      </trkpt>
      <trkpt lat="40.378003" lon="-3.422185">
        <ele>664.6</ele>
        <time>1970-01-01T00:03:12.000Z</time>
      </trkpt>
      <trkpt lat="40.377937" lon="-3.422254">
        <ele>664.2</ele>
        <time>1970-01-01T00:03:13.000Z</time>
      </trkpt>
      <trkpt lat="40.377874" lon="-3.42233">
        <ele>663.4</ele>
        <time>1970-01-01T00:03:14.000Z</time>
      </trkpt>
      <trkpt lat="40.377819" lon="-3.42241">
        <ele>663.2</ele>
        <time>1970-01-01T00:03:15.000Z</time>
      </trkpt>
      <trkpt lat="40.37777" lon="-3.422501">
        <ele>662.6</ele>
        <time>1970-01-01T00:03:16.000Z</time>
      </trkpt>
      <trkpt lat="40.37773" lon="-3.422594">
        <ele>662.6</ele>
        <time>1970-01-01T00:03:17.000Z</time>
      </trkpt>
      <trkpt lat="40.377692" lon="-3.422688">
        <ele>662</ele>
        <time>1970-01-01T00:03:18.000Z</time>
      </trkpt>
      <trkpt lat="40.377651" lon="-3.422779">
        <ele>661.4</ele>
        <time>1970-01-01T00:03:19.000Z</time>
      </trkpt>
      <trkpt lat="40.377598" lon="-3.422856">
        <ele>661.2</ele>
        <time>1970-01-01T00:03:20.000Z</time>
      </trkpt>
      <trkpt lat="40.377526" lon="-3.42291">
        <ele>660.8</ele>
        <time>1970-01-01T00:03:21.000Z</time>
      </trkpt>
      <trkpt lat="40.377442" lon="-3.422953">
        <ele>660.6</ele>
        <time>1970-01-01T00:03:22.000Z</time>
      </trkpt>
      <trkpt lat="40.377369" lon="-3.423011">
        <ele>660.6</ele>
        <time>1970-01-01T00:03:23.000Z</time>
      </trkpt>
      <trkpt lat="40.377308" lon="-3.423089">
        <ele>660.4</ele>
        <time>1970-01-01T00:03:24.000Z</time>
      </trkpt>
      <trkpt lat="40.377249" lon="-3.42317">
        <ele>660.2</ele>
        <time>1970-01-01T00:03:25.000Z</time>
      </trkpt>
      <trkpt lat="40.377186" lon="-3.423249">
        <ele>659.8</ele>
        <time>1970-01-01T00:03:26.000Z</time>
      </trkpt>
      <trkpt lat="40.377121" lon="-3.423327">
        <ele>659.4</ele>
        <time>1970-01-01T00:03:27.000Z</time>
      </trkpt>
      <trkpt lat="40.377055" lon="-3.423407">
        <ele>659</ele>
        <time>1970-01-01T00:03:28.000Z</time>
      </trkpt>
      <trkpt lat="40.376994" lon="-3.423493">
        <ele>658.8</ele>
        <time>1970-01-01T00:03:29.000Z</time>
      </trkpt>
      <trkpt lat="40.376938" lon="-3.423582">
        <ele>658.2</ele>
        <time>1970-01-01T00:03:30.000Z</time>
      </trkpt>
      <trkpt lat="40.376883" lon="-3.423671">
        <ele>658</ele>
        <time>1970-01-01T00:03:31.000Z</time>
      </trkpt>
      <trkpt lat="40.37683" lon="-3.423761">
        <ele>657.6</ele>
        <time>1970-01-01T00:03:32.000Z</time>
      </trkpt>
      <trkpt lat="40.376777" lon="-3.42385">
        <ele>657.4</ele>
        <time>1970-01-01T00:03:33.000Z</time>
      </trkpt>
      <trkpt lat="40.376722" lon="-3.423938">
        <ele>657.2</ele>
        <time>1970-01-01T00:03:34.000Z</time>
      </trkpt>
      <trkpt lat="40.376668" lon="-3.424026">
        <ele>657</ele>
        <time>1970-01-01T00:03:35.000Z</time>
      </trkpt>
      <trkpt lat="40.376616" lon="-3.424114">
        <ele>657</ele>
        <time>1970-01-01T00:03:36.000Z</time>
      </trkpt>
      <trkpt lat="40.376567" lon="-3.424203">
        <ele>657</ele>
        <time>1970-01-01T00:03:37.000Z</time>
      </trkpt>
      <trkpt lat="40.376515" lon="-3.424291">
        <ele>656.8</ele>
        <time>1970-01-01T00:03:38.000Z</time>
      </trkpt>
      <trkpt lat="40.376455" lon="-3.424368">
        <ele>656.6</ele>
        <time>1970-01-01T00:03:39.000Z</time>
      </trkpt>
      <trkpt lat="40.376393" lon="-3.424436">
        <ele>656.6</ele>
        <time>1970-01-01T00:03:40.000Z</time>
      </trkpt>
      <trkpt lat="40.376331" lon="-3.4245">
        <ele>656.4</ele>
        <time>1970-01-01T00:03:41.000Z</time>
      </trkpt>
      <trkpt lat="40.376269" lon="-3.42456">
        <ele>656.6</ele>
        <time>1970-01-01T00:03:42.000Z</time>
      </trkpt>
      <trkpt lat="40.376203" lon="-3.424617">
        <ele>656.6</ele>
        <time>1970-01-01T00:03:43.000Z</time>
      </trkpt>
      <trkpt lat="40.376138" lon="-3.42467">
        <ele>656.4</ele>
        <time>1970-01-01T00:03:44.000Z</time>
      </trkpt>
      <trkpt lat="40.376073" lon="-3.424726">
        <ele>656.2</ele>
        <time>1970-01-01T00:03:45.000Z</time>
      </trkpt>
      <trkpt lat="40.376008" lon="-3.424782">
        <ele>656.2</ele>
        <time>1970-01-01T00:03:46.000Z</time>
      </trkpt>
      <trkpt lat="40.375941" lon="-3.424833">
        <ele>656.2</ele>
        <time>1970-01-01T00:03:47.000Z</time>
      </trkpt>
      <trkpt lat="40.375869" lon="-3.424874">
        <ele>655.8</ele>
        <time>1970-01-01T00:03:48.000Z</time>
      </trkpt>
      <trkpt lat="40.375795" lon="-3.424908">
        <ele>656</ele>
        <time>1970-01-01T00:03:49.000Z</time>
      </trkpt>
      <trkpt lat="40.375719" lon="-3.424941">
        <ele>655.8</ele>
        <time>1970-01-01T00:03:50.000Z</time>
      </trkpt>
      <trkpt lat="40.37564" lon="-3.424976">
        <ele>655.8</ele>
        <time>1970-01-01T00:03:51.000Z</time>
      </trkpt>
      <trkpt lat="40.375561" lon="-3.425016">
        <ele>655.6</ele>
        <time>1970-01-01T00:03:52.000Z</time>
      </trkpt>
      <trkpt lat="40.375482" lon="-3.425059">
        <ele>655.6</ele>
        <time>1970-01-01T00:03:53.000Z</time>
      </trkpt>
      <trkpt lat="40.375404" lon="-3.425102">
        <ele>655.6</ele>
        <time>1970-01-01T00:03:54.000Z</time>
      </trkpt>
      <trkpt lat="40.375326" lon="-3.425148">
        <ele>655.4</ele>
        <time>1970-01-01T00:03:55.000Z</time>
      </trkpt>
      <trkpt lat="40.37525" lon="-3.425191">
        <ele>655.4</ele>
        <time>1970-01-01T00:03:56.000Z</time>
      </trkpt>
      <trkpt lat="40.375177" lon="-3.425238">
        <ele>655.2</ele>
        <time>1970-01-01T00:03:57.000Z</time>
      </trkpt>
      <trkpt lat="40.375107" lon="-3.42529">
        <ele>655.2</ele>
        <time>1970-01-01T00:03:58.000Z</time>
      </trkpt>
      <trkpt lat="40.375034" lon="-3.425339">
        <ele>654.8</ele>
        <time>1970-01-01T00:03:59.000Z</time>
      </trkpt>
      <trkpt lat="40.374962" lon="-3.42539">
        <ele>654.6</ele>
        <time>1970-01-01T00:04:00.000Z</time>
      </trkpt>
      <trkpt lat="40.374892" lon="-3.425447">
        <ele>654.6</ele>
        <time>1970-01-01T00:04:01.000Z</time>
      </trkpt>
      <trkpt lat="40.37482" lon="-3.425507">
        <ele>654.4</ele>
        <time>1970-01-01T00:04:02.000Z</time>
      </trkpt>
      <trkpt lat="40.374749" lon="-3.425569">
        <ele>654.2</ele>
        <time>1970-01-01T00:04:03.000Z</time>
      </trkpt>
      <trkpt lat="40.374676" lon="-3.42563">
        <ele>653.8</ele>
        <time>1970-01-01T00:04:04.000Z</time>
      </trkpt>
      <trkpt lat="40.3746" lon="-3.425683">
        <ele>653.6</ele>
        <time>1970-01-01T00:04:05.000Z</time>
      </trkpt>
      <trkpt lat="40.37452" lon="-3.425736">
        <ele>653.4</ele>
        <time>1970-01-01T00:04:06.000Z</time>
      </trkpt>
      <trkpt lat="40.374445" lon="-3.425791">
        <ele>653.4</ele>
        <time>1970-01-01T00:04:07.000Z</time>
      </trkpt>
      <trkpt lat="40.374369" lon="-3.425847">
        <ele>653.2</ele>
        <time>1970-01-01T00:04:08.000Z</time>
      </trkpt>
      <trkpt lat="40.374293" lon="-3.425901">
        <ele>653.2</ele>
        <time>1970-01-01T00:04:09.000Z</time>
      </trkpt>
      <trkpt lat="40.374217" lon="-3.425956">
        <ele>653.2</ele>
        <time>1970-01-01T00:04:10.000Z</time>
      </trkpt>
      <trkpt lat="40.374143" lon="-3.426019">
        <ele>653</ele>
        <time>1970-01-01T00:04:11.000Z</time>
      </trkpt>
      <trkpt lat="40.374073" lon="-3.426088">
        <ele>652.8</ele>
        <time>1970-01-01T00:04:12.000Z</time>
      </trkpt>
      <trkpt lat="40.374005" lon="-3.42616">
        <ele>652.6</ele>
        <time>1970-01-01T00:04:13.000Z</time>
      </trkpt>
      <trkpt lat="40.373942" lon="-3.426239">
        <ele>652.6</ele>
        <time>1970-01-01T00:04:14.000Z</time>
      </trkpt>
      <trkpt lat="40.373884" lon="-3.426326">
        <ele>652.6</ele>
        <time>1970-01-01T00:04:15.000Z</time>
      </trkpt>
      <trkpt lat="40.373826" lon="-3.426409">
        <ele>652.4</ele>
        <time>1970-01-01T00:04:16.000Z</time>
      </trkpt>
      <trkpt lat="40.37377" lon="-3.426493">
        <ele>652.2</ele>
        <time>1970-01-01T00:04:17.000Z</time>
      </trkpt>
      <trkpt lat="40.373721" lon="-3.426587">
        <ele>652.2</ele>
        <time>1970-01-01T00:04:18.000Z</time>
      </trkpt>
      <trkpt lat="40.373676" lon="-3.42669">
        <ele>651.6</ele>
        <time>1970-01-01T00:04:19.000Z</time>
      </trkpt>
      <trkpt lat="40.373634" lon="-3.426796">
        <ele>651.6</ele>
        <time>1970-01-01T00:04:20.000Z</time>
      </trkpt>
      <trkpt lat="40.373598" lon="-3.426904">
        <ele>651</ele>
        <time>1970-01-01T00:04:21.000Z</time>
      </trkpt>
      <trkpt lat="40.373569" lon="-3.427014">
        <ele>650.4</ele>
        <time>1970-01-01T00:04:22.000Z</time>
      </trkpt>
      <trkpt lat="40.373541" lon="-3.427122">
        <ele>650</ele>
        <time>1970-01-01T00:04:23.000Z</time>
      </trkpt>
      <trkpt lat="40.37351" lon="-3.427226">
        <ele>649.4</ele>
        <time>1970-01-01T00:04:24.000Z</time>
      </trkpt>
      <trkpt lat="40.373474" lon="-3.427324">
        <ele>649.2</ele>
        <time>1970-01-01T00:04:25.000Z</time>
      </trkpt>
      <trkpt lat="40.373431" lon="-3.42742">
        <ele>648.8</ele>
        <time>1970-01-01T00:04:26.000Z</time>
      </trkpt>
      <trkpt lat="40.373387" lon="-3.427514">
        <ele>648.8</ele>
        <time>1970-01-01T00:04:27.000Z</time>
      </trkpt>
      <trkpt lat="40.373344" lon="-3.427608">
        <ele>648.6</ele>
        <time>1970-01-01T00:04:28.000Z</time>
      </trkpt>
      <trkpt lat="40.373305" lon="-3.427706">
        <ele>648.4</ele>
        <time>1970-01-01T00:04:29.000Z</time>
      </trkpt>
      <trkpt lat="40.373268" lon="-3.427799">
        <ele>648.4</ele>
        <time>1970-01-01T00:04:30.000Z</time>
      </trkpt>
      <trkpt lat="40.373229" lon="-3.427891">
        <ele>648</ele>
        <time>1970-01-01T00:04:31.000Z</time>
      </trkpt>
      <trkpt lat="40.37319" lon="-3.427985">
        <ele>647.8</ele>
        <time>1970-01-01T00:04:32.000Z</time>
      </trkpt>
      <trkpt lat="40.373154" lon="-3.428081">
        <ele>647.6</ele>
        <time>1970-01-01T00:04:33.000Z</time>
      </trkpt>
      <trkpt lat="40.373122" lon="-3.428182">
        <ele>647.4</ele>
        <time>1970-01-01T00:04:34.000Z</time>
      </trkpt>
      <trkpt lat="40.373095" lon="-3.428286">
        <ele>647.2</ele>
        <time>1970-01-01T00:04:35.000Z</time>
      </trkpt>
      <trkpt lat="40.373073" lon="-3.428392">
        <ele>647</ele>
        <time>1970-01-01T00:04:36.000Z</time>
      </trkpt>
      <trkpt lat="40.373055" lon="-3.428498">
        <ele>646.6</ele>
        <time>1970-01-01T00:04:37.000Z</time>
      </trkpt>
      <trkpt lat="40.373035" lon="-3.428604">
        <ele>646.4</ele>
        <time>1970-01-01T00:04:38.000Z</time>
      </trkpt>
      <trkpt lat="40.37301" lon="-3.428711">
        <ele>646.2</ele>
        <time>1970-01-01T00:04:39.000Z</time>
      </trkpt>
      <trkpt lat="40.372976" lon="-3.428813">
        <ele>646</ele>
        <time>1970-01-01T00:04:40.000Z</time>
      </trkpt>
      <trkpt lat="40.372934" lon="-3.428907">
        <ele>645.8</ele>
        <time>1970-01-01T00:04:41.000Z</time>
      </trkpt>
      <trkpt lat="40.372888" lon="-3.429">
        <ele>645.6</ele>
        <time>1970-01-01T00:04:42.000Z</time>
      </trkpt>
      <trkpt lat="40.372839" lon="-3.429094">
        <ele>645.6</ele>
        <time>1970-01-01T00:04:43.000Z</time>
      </trkpt>
      <trkpt lat="40.372789" lon="-3.429185">
        <ele>645.4</ele>
        <time>1970-01-01T00:04:44.000Z</time>
      </trkpt>
      <trkpt lat="40.372741" lon="-3.429277">
        <ele>645.4</ele>
        <time>1970-01-01T00:04:45.000Z</time>
      </trkpt>
      <trkpt lat="40.372692" lon="-3.429369">
        <ele>645.2</ele>
        <time>1970-01-01T00:04:46.000Z</time>
      </trkpt>
      <trkpt lat="40.37264" lon="-3.429458">
        <ele>645.2</ele>
        <time>1970-01-01T00:04:47.000Z</time>
      </trkpt>
      <trkpt lat="40.372582" lon="-3.429537">
        <ele>645.2</ele>
        <time>1970-01-01T00:04:48.000Z</time>
      </trkpt>
      <trkpt lat="40.372518" lon="-3.429607">
        <ele>645</ele>
        <time>1970-01-01T00:04:49.000Z</time>
      </trkpt>
      <trkpt lat="40.372449" lon="-3.429672">
        <ele>645</ele>
        <time>1970-01-01T00:04:50.000Z</time>
      </trkpt>
      <trkpt lat="40.372381" lon="-3.429738">
        <ele>645</ele>
        <time>1970-01-01T00:04:51.000Z</time>
      </trkpt>
      <trkpt lat="40.372318" lon="-3.429812">
        <ele>645</ele>
        <time>1970-01-01T00:04:52.000Z</time>
      </trkpt>
      <trkpt lat="40.372262" lon="-3.429893">
        <ele>645</ele>
        <time>1970-01-01T00:04:53.000Z</time>
      </trkpt>
      <trkpt lat="40.372207" lon="-3.429974">
        <ele>645</ele>
        <time>1970-01-01T00:04:54.000Z</time>
      </trkpt>
      <trkpt lat="40.372151" lon="-3.43005">
        <ele>645</ele>
        <time>1970-01-01T00:04:55.000Z</time>
      </trkpt>
      <trkpt lat="40.372102" lon="-3.430126">
        <ele>645</ele>
        <time>1970-01-01T00:04:56.000Z</time>
      </trkpt>
      <trkpt lat="40.372066" lon="-3.430207">
        <ele>644.8</ele>
        <time>1970-01-01T00:04:57.000Z</time>
      </trkpt>
      <trkpt lat="40.372038" lon="-3.430289">
        <ele>644.6</ele>
        <time>1970-01-01T00:04:58.000Z</time>
      </trkpt>
      <trkpt lat="40.372006" lon="-3.430368">
        <ele>644.6</ele>
        <time>1970-01-01T00:04:59.000Z</time>
      </trkpt>
      <trkpt lat="40.37197" lon="-3.430447">
        <ele>644.4</ele>
        <time>1970-01-01T00:05:00.000Z</time>
      </trkpt>
      <trkpt lat="40.37194" lon="-3.430532">
        <ele>644.2</ele>
        <time>1970-01-01T00:05:01.000Z</time>
      </trkpt>
      <trkpt lat="40.371909" lon="-3.430615">
        <ele>643.8</ele>
        <time>1970-01-01T00:05:02.000Z</time>
      </trkpt>
      <trkpt lat="40.37187" lon="-3.430687">
        <ele>643.6</ele>
        <time>1970-01-01T00:05:03.000Z</time>
      </trkpt>
      <trkpt lat="40.371831" lon="-3.430761">
        <ele>643</ele>
        <time>1970-01-01T00:05:04.000Z</time>
      </trkpt>
      <trkpt lat="40.371796" lon="-3.430841">
        <ele>642.8</ele>
        <time>1970-01-01T00:05:05.000Z</time>
      </trkpt>
      <trkpt lat="40.371761" lon="-3.430927">
        <ele>642.6</ele>
        <time>1970-01-01T00:05:06.000Z</time>
      </trkpt>
      <trkpt lat="40.371732" lon="-3.431018">
        <ele>642.2</ele>
        <time>1970-01-01T00:05:07.000Z</time>
      </trkpt>
      <trkpt lat="40.371706" lon="-3.431112">
        <ele>642</ele>
        <time>1970-01-01T00:05:08.000Z</time>
      </trkpt>
      <trkpt lat="40.371678" lon="-3.431205">
        <ele>642</ele>
        <time>1970-01-01T00:05:09.000Z</time>
      </trkpt>
      <trkpt lat="40.37165" lon="-3.431299">
        <ele>641.6</ele>
        <time>1970-01-01T00:05:10.000Z</time>
      </trkpt>
      <trkpt lat="40.371613" lon="-3.431391">
        <ele>641.2</ele>
        <time>1970-01-01T00:05:11.000Z</time>
      </trkpt>
      <trkpt lat="40.37157" lon="-3.431488">
        <ele>641</ele>
        <time>1970-01-01T00:05:12.000Z</time>
      </trkpt>
      <trkpt lat="40.371521" lon="-3.431592">
        <ele>640.6</ele>
        <time>1970-01-01T00:05:13.000Z</time>
      </trkpt>
      <trkpt lat="40.371471" lon="-3.431701">
        <ele>640.4</ele>
        <time>1970-01-01T00:05:14.000Z</time>
      </trkpt>
      <trkpt lat="40.37142" lon="-3.431805">
        <ele>640</ele>
        <time>1970-01-01T00:05:15.000Z</time>
      </trkpt>
      <trkpt lat="40.371362" lon="-3.431896">
        <ele>639.8</ele>
        <time>1970-01-01T00:05:16.000Z</time>
      </trkpt>
      <trkpt lat="40.371302" lon="-3.431983">
        <ele>639.6</ele>
        <time>1970-01-01T00:05:17.000Z</time>
      </trkpt>
      <trkpt lat="40.371255" lon="-3.432075">
        <ele>639</ele>
        <time>1970-01-01T00:05:18.000Z</time>
      </trkpt>
      <trkpt lat="40.371222" lon="-3.432169">
        <ele>638.4</ele>
        <time>1970-01-01T00:05:19.000Z</time>
      </trkpt>
      <trkpt lat="40.371189" lon="-3.432255">
        <ele>637.8</ele>
        <time>1970-01-01T00:05:20.000Z</time>
      </trkpt>
      <trkpt lat="40.371149" lon="-3.432337">
        <ele>637.4</ele>
        <time>1970-01-01T00:05:21.000Z</time>
      </trkpt>
      <trkpt lat="40.371107" lon="-3.43242">
        <ele>637</ele>
        <time>1970-01-01T00:05:22.000Z</time>
      </trkpt>
      <trkpt lat="40.371065" lon="-3.432509">
        <ele>636.8</ele>
        <time>1970-01-01T00:05:23.000Z</time>
      </trkpt>
      <trkpt lat="40.371022" lon="-3.432596">
        <ele>636.6</ele>
        <time>1970-01-01T00:05:24.000Z</time>
      </trkpt>
      <trkpt lat="40.370978" lon="-3.432692">
        <ele>636.2</ele>
        <time>1970-01-01T00:05:25.000Z</time>
      </trkpt>
      <trkpt lat="40.370943" lon="-3.432797">
        <ele>636</ele>
        <time>1970-01-01T00:05:26.000Z</time>
      </trkpt>
      <trkpt lat="40.370915" lon="-3.432906">
        <ele>635.6</ele>
        <time>1970-01-01T00:05:27.000Z</time>
      </trkpt>
      <trkpt lat="40.37089" lon="-3.433016">
        <ele>635.6</ele>
        <time>1970-01-01T00:05:28.000Z</time>
      </trkpt>
      <trkpt lat="40.370862" lon="-3.433128">
        <ele>635.2</ele>
        <time>1970-01-01T00:05:29.000Z</time>
      </trkpt>
      <trkpt lat="40.370832" lon="-3.43324">
        <ele>634.8</ele>
        <time>1970-01-01T00:05:30.000Z</time>
      </trkpt>
      <trkpt lat="40.370799" lon="-3.433351">
        <ele>634.2</ele>
        <time>1970-01-01T00:05:31.000Z</time>
      </trkpt>
      <trkpt lat="40.370762" lon="-3.43346">
        <ele>634</ele>
        <time>1970-01-01T00:05:32.000Z</time>
      </trkpt>
      <trkpt lat="40.370726" lon="-3.43357">
        <ele>633.6</ele>
        <time>1970-01-01T00:05:33.000Z</time>
      </trkpt>
      <trkpt lat="40.370689" lon="-3.433683">
        <ele>633.2</ele>
        <time>1970-01-01T00:05:34.000Z</time>
      </trkpt>
      <trkpt lat="40.370655" lon="-3.433798">
        <ele>633</ele>
        <time>1970-01-01T00:05:35.000Z</time>
      </trkpt>
      <trkpt lat="40.370626" lon="-3.433915">
        <ele>632.8</ele>
        <time>1970-01-01T00:05:36.000Z</time>
      </trkpt>
      <trkpt lat="40.370598" lon="-3.434028">
        <ele>632.8</ele>
        <time>1970-01-01T00:05:37.000Z</time>
      </trkpt>
      <trkpt lat="40.370568" lon="-3.434138">
        <ele>632.6</ele>
        <time>1970-01-01T00:05:38.000Z</time>
      </trkpt>
      <trkpt lat="40.370536" lon="-3.434245">
        <ele>632.6</ele>
        <time>1970-01-01T00:05:39.000Z</time>
      </trkpt>
      <trkpt lat="40.370503" lon="-3.434347">
        <ele>632</ele>
        <time>1970-01-01T00:05:40.000Z</time>
      </trkpt>
      <trkpt lat="40.37047" lon="-3.434443">
        <ele>631.8</ele>
        <time>1970-01-01T00:05:41.000Z</time>
      </trkpt>
      <trkpt lat="40.370433" lon="-3.434537">
        <ele>631.6</ele>
        <time>1970-01-01T00:05:42.000Z</time>
      </trkpt>
      <trkpt lat="40.370396" lon="-3.434631">
        <ele>631.6</ele>
        <time>1970-01-01T00:05:43.000Z</time>
      </trkpt>
      <trkpt lat="40.370359" lon="-3.43472">
        <ele>631.4</ele>
        <time>1970-01-01T00:05:44.000Z</time>
      </trkpt>
      <trkpt lat="40.370319" lon="-3.434809">
        <ele>631.2</ele>
        <time>1970-01-01T00:05:45.000Z</time>
      </trkpt>
      <trkpt lat="40.370276" lon="-3.434899">
        <ele>631.2</ele>
        <time>1970-01-01T00:05:46.000Z</time>
      </trkpt>
      <trkpt lat="40.370231" lon="-3.434986">
        <ele>631</ele>
        <time>1970-01-01T00:05:47.000Z</time>
      </trkpt>
      <trkpt lat="40.370186" lon="-3.435074">
        <ele>631</ele>
        <time>1970-01-01T00:05:48.000Z</time>
      </trkpt>
      <trkpt lat="40.370144" lon="-3.435164">
        <ele>631</ele>
        <time>1970-01-01T00:05:49.000Z</time>
      </trkpt>
      <trkpt lat="40.370106" lon="-3.435256">
        <ele>631</ele>
        <time>1970-01-01T00:05:50.000Z</time>
      </trkpt>
      <trkpt lat="40.37007" lon="-3.435349">
        <ele>631</ele>
        <time>1970-01-01T00:05:51.000Z</time>
      </trkpt>
      <trkpt lat="40.370035" lon="-3.435444">
        <ele>631.2</ele>
        <time>1970-01-01T00:05:52.000Z</time>
      </trkpt>
      <trkpt lat="40.370001" lon="-3.43554">
        <ele>631</ele>
        <time>1970-01-01T00:05:53.000Z</time>
      </trkpt>
      <trkpt lat="40.369968" lon="-3.435635">
        <ele>631</ele>
        <time>1970-01-01T00:05:54.000Z</time>
      </trkpt>
      <trkpt lat="40.369937" lon="-3.435729">
        <ele>630.8</ele>
        <time>1970-01-01T00:05:55.000Z</time>
      </trkpt>
      <trkpt lat="40.369911" lon="-3.435826">
        <ele>631</ele>
        <time>1970-01-01T00:05:56.000Z</time>
      </trkpt>
      <trkpt lat="40.369891" lon="-3.435927">
        <ele>631</ele>
        <time>1970-01-01T00:05:57.000Z</time>
      </trkpt>
      <trkpt lat="40.369871" lon="-3.436031">
        <ele>630.6</ele>
        <time>1970-01-01T00:05:58.000Z</time>
      </trkpt>
      <trkpt lat="40.369851" lon="-3.436136">
        <ele>630.4</ele>
        <time>1970-01-01T00:05:59.000Z</time>
      </trkpt>
      <trkpt lat="40.369842" lon="-3.436243">
        <ele>630.2</ele>
        <time>1970-01-01T00:06:00.000Z</time>
      </trkpt>
      <trkpt lat="40.369842" lon="-3.43635">
        <ele>629.8</ele>
        <time>1970-01-01T00:06:01.000Z</time>
      </trkpt>
      <trkpt lat="40.36984" lon="-3.436458">
        <ele>629.2</ele>
        <time>1970-01-01T00:06:02.000Z</time>
      </trkpt>
      <trkpt lat="40.369833" lon="-3.436564">
        <ele>628.6</ele>
        <time>1970-01-01T00:06:03.000Z</time>
      </trkpt>
      <trkpt lat="40.369818" lon="-3.436668">
        <ele>628.4</ele>
        <time>1970-01-01T00:06:04.000Z</time>
      </trkpt>
      <trkpt lat="40.369798" lon="-3.436769">
        <ele>628.2</ele>
        <time>1970-01-01T00:06:05.000Z</time>
      </trkpt>
      <trkpt lat="40.369776" lon="-3.436867">
        <ele>628</ele>
        <time>1970-01-01T00:06:06.000Z</time>
      </trkpt>
      <trkpt lat="40.369755" lon="-3.436967">
        <ele>627.6</ele>
        <time>1970-01-01T00:06:07.000Z</time>
      </trkpt>
      <trkpt lat="40.369735" lon="-3.437067">
        <ele>627.4</ele>
        <time>1970-01-01T00:06:08.000Z</time>
      </trkpt>
      <trkpt lat="40.369719" lon="-3.437169">
        <ele>626.8</ele>
        <time>1970-01-01T00:06:09.000Z</time>
      </trkpt>
      <trkpt lat="40.369703" lon="-3.437275">
        <ele>626.6</ele>
        <time>1970-01-01T00:06:10.000Z</time>
      </trkpt>
      <trkpt lat="40.369689" lon="-3.437384">
        <ele>626.2</ele>
        <time>1970-01-01T00:06:11.000Z</time>
      </trkpt>
      <trkpt lat="40.369676" lon="-3.437494">
        <ele>625.6</ele>
        <time>1970-01-01T00:06:12.000Z</time>
      </trkpt>
      <trkpt lat="40.369668" lon="-3.437605">
        <ele>625.4</ele>
        <time>1970-01-01T00:06:13.000Z</time>
      </trkpt>
      <trkpt lat="40.369661" lon="-3.437714">
        <ele>625.2</ele>
        <time>1970-01-01T00:06:14.000Z</time>
      </trkpt>
      <trkpt lat="40.369653" lon="-3.437826">
        <ele>625.2</ele>
        <time>1970-01-01T00:06:15.000Z</time>
      </trkpt>
      <trkpt lat="40.369642" lon="-3.437936">
        <ele>625.2</ele>
        <time>1970-01-01T00:06:16.000Z</time>
      </trkpt>
      <trkpt lat="40.369628" lon="-3.43805">
        <ele>625</ele>
        <time>1970-01-01T00:06:17.000Z</time>
      </trkpt>
      <trkpt lat="40.369613" lon="-3.438161">
        <ele>625</ele>
        <time>1970-01-01T00:06:18.000Z</time>
      </trkpt>
      <trkpt lat="40.3696" lon="-3.438276">
        <ele>624.8</ele>
        <time>1970-01-01T00:06:19.000Z</time>
      </trkpt>
      <trkpt lat="40.36959" lon="-3.43839">
        <ele>624.8</ele>
        <time>1970-01-01T00:06:20.000Z</time>
      </trkpt>
      <trkpt lat="40.369577" lon="-3.438504">
        <ele>624.8</ele>
        <time>1970-01-01T00:06:21.000Z</time>
      </trkpt>
      <trkpt lat="40.369561" lon="-3.438618">
        <ele>624.6</ele>
        <time>1970-01-01T00:06:22.000Z</time>
      </trkpt>
      <trkpt lat="40.369541" lon="-3.438731">
        <ele>624.4</ele>
        <time>1970-01-01T00:06:23.000Z</time>
      </trkpt>
      <trkpt lat="40.369513" lon="-3.438841">
        <ele>624.4</ele>
        <time>1970-01-01T00:06:24.000Z</time>
      </trkpt>
      <trkpt lat="40.369485" lon="-3.438947">
        <ele>624.4</ele>
        <time>1970-01-01T00:06:25.000Z</time>
      </trkpt>
      <trkpt lat="40.369455" lon="-3.439046">
        <ele>624.2</ele>
        <time>1970-01-01T00:06:26.000Z</time>
      </trkpt>
      <trkpt lat="40.369424" lon="-3.439138">
        <ele>623.8</ele>
        <time>1970-01-01T00:06:27.000Z</time>
      </trkpt>
      <trkpt lat="40.369389" lon="-3.439224">
        <ele>623.6</ele>
        <time>1970-01-01T00:06:28.000Z</time>
      </trkpt>
      <trkpt lat="40.369361" lon="-3.439305">
        <ele>623.2</ele>
        <time>1970-01-01T00:06:29.000Z</time>
      </trkpt>
      <trkpt lat="40.369329" lon="-3.439385">
        <ele>622.8</ele>
        <time>1970-01-01T00:06:30.000Z</time>
      </trkpt>
      <trkpt lat="40.369295" lon="-3.439468">
        <ele>622.6</ele>
        <time>1970-01-01T00:06:31.000Z</time>
      </trkpt>
      <trkpt lat="40.369266" lon="-3.439554">
        <ele>622.4</ele>
        <time>1970-01-01T00:06:32.000Z</time>
      </trkpt>
      <trkpt lat="40.36924" lon="-3.439643">
        <ele>622.4</ele>
        <time>1970-01-01T00:06:33.000Z</time>
      </trkpt>
      <trkpt lat="40.369211" lon="-3.439732">
        <ele>622.2</ele>
        <time>1970-01-01T00:06:34.000Z</time>
      </trkpt>
      <trkpt lat="40.369176" lon="-3.43982">
        <ele>622.2</ele>
        <time>1970-01-01T00:06:35.000Z</time>
      </trkpt>
      <trkpt lat="40.369143" lon="-3.439909">
        <ele>622.2</ele>
        <time>1970-01-01T00:06:36.000Z</time>
      </trkpt>
      <trkpt lat="40.369115" lon="-3.439999">
        <ele>622.2</ele>
        <time>1970-01-01T00:06:37.000Z</time>
      </trkpt>
      <trkpt lat="40.369088" lon="-3.440092">
        <ele>622.2</ele>
        <time>1970-01-01T00:06:38.000Z</time>
      </trkpt>
      <trkpt lat="40.36906" lon="-3.440185">
        <ele>622.2</ele>
        <time>1970-01-01T00:06:39.000Z</time>
      </trkpt>
      <trkpt lat="40.369029" lon="-3.440277">
        <ele>622.2</ele>
        <time>1970-01-01T00:06:40.000Z</time>
      </trkpt>
      <trkpt lat="40.368998" lon="-3.440369">
        <ele>622</ele>
        <time>1970-01-01T00:06:41.000Z</time>
      </trkpt>
      <trkpt lat="40.368967" lon="-3.440458">
        <ele>622</ele>
        <time>1970-01-01T00:06:42.000Z</time>
      </trkpt>
      <trkpt lat="40.368934" lon="-3.440548">
        <ele>621.8</ele>
        <time>1970-01-01T00:06:43.000Z</time>
      </trkpt>
      <trkpt lat="40.368903" lon="-3.440639">
        <ele>621.8</ele>
        <time>1970-01-01T00:06:44.000Z</time>
      </trkpt>
      <trkpt lat="40.368871" lon="-3.440732">
        <ele>621.8</ele>
        <time>1970-01-01T00:06:45.000Z</time>
      </trkpt>
      <trkpt lat="40.368842" lon="-3.440829">
        <ele>621.6</ele>
        <time>1970-01-01T00:06:46.000Z</time>
      </trkpt>
      <trkpt lat="40.368814" lon="-3.440925">
        <ele>621.6</ele>
        <time>1970-01-01T00:06:47.000Z</time>
      </trkpt>
      <trkpt lat="40.368781" lon="-3.441018">
        <ele>621.6</ele>
        <time>1970-01-01T00:06:48.000Z</time>
      </trkpt>
      <trkpt lat="40.368747" lon="-3.44111">
        <ele>621.6</ele>
        <time>1970-01-01T00:06:49.000Z</time>
      </trkpt>
      <trkpt lat="40.368713" lon="-3.441206">
        <ele>621.4</ele>
        <time>1970-01-01T00:06:50.000Z</time>
      </trkpt>
      <trkpt lat="40.368681" lon="-3.441303">
        <ele>621.4</ele>
        <time>1970-01-01T00:06:51.000Z</time>
      </trkpt>
      <trkpt lat="40.368649" lon="-3.441398">
        <ele>621.2</ele>
        <time>1970-01-01T00:06:52.000Z</time>
      </trkpt>
      <trkpt lat="40.368616" lon="-3.441493">
        <ele>621.2</ele>
        <time>1970-01-01T00:06:53.000Z</time>
      </trkpt>
      <trkpt lat="40.368583" lon="-3.441586">
        <ele>621.2</ele>
        <time>1970-01-01T00:06:54.000Z</time>
      </trkpt>
      <trkpt lat="40.36855" lon="-3.441679">
        <ele>621.2</ele>
        <time>1970-01-01T00:06:55.000Z</time>
      </trkpt>
      <trkpt lat="40.368521" lon="-3.441772">
        <ele>621</ele>
        <time>1970-01-01T00:06:56.000Z</time>
      </trkpt>
      <trkpt lat="40.368494" lon="-3.441865">
        <ele>621</ele>
        <time>1970-01-01T00:06:57.000Z</time>
      </trkpt>
      <trkpt lat="40.368471" lon="-3.441958">
        <ele>620.8</ele>
        <time>1970-01-01T00:06:58.000Z</time>
      </trkpt>
      <trkpt lat="40.368452" lon="-3.442052">
        <ele>620.6</ele>
        <time>1970-01-01T00:06:59.000Z</time>
      </trkpt>
      <trkpt lat="40.368429" lon="-3.442141">
        <ele>620.6</ele>
        <time>1970-01-01T00:07:00.000Z</time>
      </trkpt>
      <trkpt lat="40.368395" lon="-3.442221">
        <ele>620.4</ele>
        <time>1970-01-01T00:07:01.000Z</time>
      </trkpt>
      <trkpt lat="40.36835" lon="-3.442291">
        <ele>620.4</ele>
        <time>1970-01-01T00:07:02.000Z</time>
      </trkpt>
      <trkpt lat="40.368302" lon="-3.442357">
        <ele>620.4</ele>
        <time>1970-01-01T00:07:03.000Z</time>
      </trkpt>
      <trkpt lat="40.368255" lon="-3.44243">
        <ele>620.4</ele>
        <time>1970-01-01T00:07:04.000Z</time>
      </trkpt>
      <trkpt lat="40.36821" lon="-3.442505">
        <ele>620.4</ele>
        <time>1970-01-01T00:07:05.000Z</time>
      </trkpt>
      <trkpt lat="40.368168" lon="-3.442583">
        <ele>620.6</ele>
        <time>1970-01-01T00:07:06.000Z</time>
      </trkpt>
      <trkpt lat="40.368131" lon="-3.442658">
        <ele>620.8</ele>
        <time>1970-01-01T00:07:07.000Z</time>
      </trkpt>
      <trkpt lat="40.368097" lon="-3.442732">
        <ele>620.8</ele>
        <time>1970-01-01T00:07:08.000Z</time>
      </trkpt>
      <trkpt lat="40.368062" lon="-3.442803">
        <ele>620.8</ele>
        <time>1970-01-01T00:07:09.000Z</time>
      </trkpt>
      <trkpt lat="40.368024" lon="-3.442872">
        <ele>621</ele>
        <time>1970-01-01T00:07:10.000Z</time>
      </trkpt>
      <trkpt lat="40.36799" lon="-3.442942">
        <ele>621</ele>
        <time>1970-01-01T00:07:11.000Z</time>
      </trkpt>
      <trkpt lat="40.367959" lon="-3.44301">
        <ele>621.2</ele>
        <time>1970-01-01T00:07:12.000Z</time>
      </trkpt>
      <trkpt lat="40.367926" lon="-3.443078">
        <ele>621.4</ele>
        <time>1970-01-01T00:07:13.000Z</time>
      </trkpt>
      <trkpt lat="40.367893" lon="-3.443148">
        <ele>621.4</ele>
        <time>1970-01-01T00:07:14.000Z</time>
      </trkpt>
      <trkpt lat="40.36786" lon="-3.443219">
        <ele>621.4</ele>
        <time>1970-01-01T00:07:15.000Z</time>
      </trkpt>
      <trkpt lat="40.367825" lon="-3.443288">
        <ele>621.6</ele>
        <time>1970-01-01T00:07:16.000Z</time>
      </trkpt>
      <trkpt lat="40.367784" lon="-3.443354">
        <ele>621.6</ele>
        <time>1970-01-01T00:07:17.000Z</time>
      </trkpt>
      <trkpt lat="40.36774" lon="-3.443415">
        <ele>621.6</ele>
        <time>1970-01-01T00:07:18.000Z</time>
      </trkpt>
      <trkpt lat="40.367697" lon="-3.44348">
        <ele>621.8</ele>
        <time>1970-01-01T00:07:19.000Z</time>
      </trkpt>
      <trkpt lat="40.367656" lon="-3.443543">
        <ele>622</ele>
        <time>1970-01-01T00:07:20.000Z</time>
      </trkpt>
      <trkpt lat="40.367619" lon="-3.443609">
        <ele>622</ele>
        <time>1970-01-01T00:07:21.000Z</time>
      </trkpt>
      <trkpt lat="40.367585" lon="-3.443678">
        <ele>622.2</ele>
        <time>1970-01-01T00:07:22.000Z</time>
      </trkpt>
      <trkpt lat="40.367556" lon="-3.443748">
        <ele>622.2</ele>
        <time>1970-01-01T00:07:23.000Z</time>
      </trkpt>
      <trkpt lat="40.36753" lon="-3.443819">
        <ele>622.4</ele>
        <time>1970-01-01T00:07:24.000Z</time>
      </trkpt>
      <trkpt lat="40.367507" lon="-3.443893">
        <ele>622.4</ele>
        <time>1970-01-01T00:07:25.000Z</time>
      </trkpt>
      <trkpt lat="40.367483" lon="-3.443965">
        <ele>622.6</ele>
        <time>1970-01-01T00:07:26.000Z</time>
      </trkpt>
      <trkpt lat="40.367454" lon="-3.444036">
        <ele>622.8</ele>
        <time>1970-01-01T00:07:27.000Z</time>
      </trkpt>
      <trkpt lat="40.367423" lon="-3.444107">
        <ele>623</ele>
        <time>1970-01-01T00:07:28.000Z</time>
      </trkpt>
      <trkpt lat="40.367389" lon="-3.444176">
        <ele>623.2</ele>
        <time>1970-01-01T00:07:29.000Z</time>
      </trkpt>
      <trkpt lat="40.367354" lon="-3.444244">
        <ele>623.4</ele>
        <time>1970-01-01T00:07:30.000Z</time>
      </trkpt>
      <trkpt lat="40.367317" lon="-3.44431">
        <ele>623.6</ele>
        <time>1970-01-01T00:07:31.000Z</time>
      </trkpt>
      <trkpt lat="40.367275" lon="-3.444383">
        <ele>623.6</ele>
        <time>1970-01-01T00:07:32.000Z</time>
      </trkpt>
      <trkpt lat="40.367232" lon="-3.444458">
        <ele>623.6</ele>
        <time>1970-01-01T00:07:33.000Z</time>
      </trkpt>
      <trkpt lat="40.367187" lon="-3.444538">
        <ele>623.8</ele>
        <time>1970-01-01T00:07:34.000Z</time>
      </trkpt>
      <trkpt lat="40.367138" lon="-3.444618">
        <ele>623.6</ele>
        <time>1970-01-01T00:07:35.000Z</time>
      </trkpt>
      <trkpt lat="40.36709" lon="-3.444701">
        <ele>623.6</ele>
        <time>1970-01-01T00:07:36.000Z</time>
      </trkpt>
      <trkpt lat="40.367042" lon="-3.444784">
        <ele>623.4</ele>
        <time>1970-01-01T00:07:37.000Z</time>
      </trkpt>
      <trkpt lat="40.366994" lon="-3.444871">
        <ele>623.4</ele>
        <time>1970-01-01T00:07:38.000Z</time>
      </trkpt>
      <trkpt lat="40.366947" lon="-3.444957">
        <ele>623.2</ele>
        <time>1970-01-01T00:07:39.000Z</time>
      </trkpt>
      <trkpt lat="40.366899" lon="-3.445042">
        <ele>623</ele>
        <time>1970-01-01T00:07:40.000Z</time>
      </trkpt>
      <trkpt lat="40.366851" lon="-3.445128">
        <ele>622.6</ele>
        <time>1970-01-01T00:07:41.000Z</time>
      </trkpt>
      <trkpt lat="40.366805" lon="-3.44522">
        <ele>622.4</ele>
        <time>1970-01-01T00:07:42.000Z</time>
      </trkpt>
      <trkpt lat="40.366765" lon="-3.445313">
        <ele>622.2</ele>
        <time>1970-01-01T00:07:43.000Z</time>
      </trkpt>
      <trkpt lat="40.366724" lon="-3.445406">
        <ele>622</ele>
        <time>1970-01-01T00:07:44.000Z</time>
      </trkpt>
      <trkpt lat="40.366682" lon="-3.445498">
        <ele>622</ele>
        <time>1970-01-01T00:07:45.000Z</time>
      </trkpt>
      <trkpt lat="40.36664" lon="-3.44559">
        <ele>621.8</ele>
        <time>1970-01-01T00:07:46.000Z</time>
      </trkpt>
      <trkpt lat="40.366599" lon="-3.445684">
        <ele>621.6</ele>
        <time>1970-01-01T00:07:47.000Z</time>
      </trkpt>
      <trkpt lat="40.366559" lon="-3.445777">
        <ele>621.4</ele>
        <time>1970-01-01T00:07:48.000Z</time>
      </trkpt>
      <trkpt lat="40.366517" lon="-3.445865">
        <ele>621.2</ele>
        <time>1970-01-01T00:07:49.000Z</time>
      </trkpt>
      <trkpt lat="40.366469" lon="-3.445957">
        <ele>621</ele>
        <time>1970-01-01T00:07:50.000Z</time>
      </trkpt>
      <trkpt lat="40.366418" lon="-3.446046">
        <ele>621</ele>
        <time>1970-01-01T00:07:51.000Z</time>
      </trkpt>
      <trkpt lat="40.366363" lon="-3.446135">
        <ele>620.6</ele>
        <time>1970-01-01T00:07:52.000Z</time>
      </trkpt>
      <trkpt lat="40.366301" lon="-3.446222">
        <ele>620.2</ele>
        <time>1970-01-01T00:07:53.000Z</time>
      </trkpt>
      <trkpt lat="40.366237" lon="-3.446305">
        <ele>619.8</ele>
        <time>1970-01-01T00:07:54.000Z</time>
      </trkpt>
      <trkpt lat="40.366168" lon="-3.44639">
        <ele>619.4</ele>
        <time>1970-01-01T00:07:55.000Z</time>
      </trkpt>
      <trkpt lat="40.366102" lon="-3.446477">
        <ele>619.2</ele>
        <time>1970-01-01T00:07:56.000Z</time>
      </trkpt>
      <trkpt lat="40.366037" lon="-3.446568">
        <ele>619</ele>
        <time>1970-01-01T00:07:57.000Z</time>
      </trkpt>
      <trkpt lat="40.365973" lon="-3.446659">
        <ele>618.8</ele>
        <time>1970-01-01T00:07:58.000Z</time>
      </trkpt>
      <trkpt lat="40.365907" lon="-3.446751">
        <ele>618.6</ele>
        <time>1970-01-01T00:07:59.000Z</time>
      </trkpt>
      <trkpt lat="40.36584" lon="-3.446838">
        <ele>618.6</ele>
        <time>1970-01-01T00:08:00.000Z</time>
      </trkpt>
      <trkpt lat="40.365771" lon="-3.446922">
        <ele>618.4</ele>
        <time>1970-01-01T00:08:01.000Z</time>
      </trkpt>
      <trkpt lat="40.365705" lon="-3.447006">
        <ele>618.2</ele>
        <time>1970-01-01T00:08:02.000Z</time>
      </trkpt>
      <trkpt lat="40.365644" lon="-3.447093">
        <ele>617.8</ele>
        <time>1970-01-01T00:08:03.000Z</time>
      </trkpt>
      <trkpt lat="40.36558" lon="-3.447177">
        <ele>617.2</ele>
        <time>1970-01-01T00:08:04.000Z</time>
      </trkpt>
      <trkpt lat="40.365509" lon="-3.447246">
        <ele>617.2</ele>
        <time>1970-01-01T00:08:05.000Z</time>
      </trkpt>
      <trkpt lat="40.365433" lon="-3.447304">
        <ele>616.8</ele>
        <time>1970-01-01T00:08:06.000Z</time>
      </trkpt>
      <trkpt lat="40.365365" lon="-3.447365">
        <ele>616.6</ele>
        <time>1970-01-01T00:08:07.000Z</time>
      </trkpt>
      <trkpt lat="40.365306" lon="-3.447436">
        <ele>616.4</ele>
        <time>1970-01-01T00:08:08.000Z</time>
      </trkpt>
      <trkpt lat="40.365243" lon="-3.447503">
        <ele>616.4</ele>
        <time>1970-01-01T00:08:09.000Z</time>
      </trkpt>
      <trkpt lat="40.36517" lon="-3.447553">
        <ele>616.2</ele>
        <time>1970-01-01T00:08:10.000Z</time>
      </trkpt>
      <trkpt lat="40.365092" lon="-3.447594">
        <ele>616.2</ele>
        <time>1970-01-01T00:08:11.000Z</time>
      </trkpt>
      <trkpt lat="40.365014" lon="-3.447642">
        <ele>615.8</ele>
        <time>1970-01-01T00:08:12.000Z</time>
      </trkpt>
      <trkpt lat="40.364938" lon="-3.447696">
        <ele>615.2</ele>
        <time>1970-01-01T00:08:13.000Z</time>
      </trkpt>
      <trkpt lat="40.364863" lon="-3.447757">
        <ele>614.8</ele>
        <time>1970-01-01T00:08:14.000Z</time>
      </trkpt>
      <trkpt lat="40.364793" lon="-3.447823">
        <ele>614.6</ele>
        <time>1970-01-01T00:08:15.000Z</time>
      </trkpt>
      <trkpt lat="40.364727" lon="-3.447896">
        <ele>614.6</ele>
        <time>1970-01-01T00:08:16.000Z</time>
      </trkpt>
      <trkpt lat="40.364664" lon="-3.447978">
        <ele>614.4</ele>
        <time>1970-01-01T00:08:17.000Z</time>
      </trkpt>
      <trkpt lat="40.364598" lon="-3.448056">
        <ele>614.2</ele>
        <time>1970-01-01T00:08:18.000Z</time>
      </trkpt>
      <trkpt lat="40.364522" lon="-3.448118">
        <ele>614.2</ele>
        <time>1970-01-01T00:08:19.000Z</time>
      </trkpt>
      <trkpt lat="40.364443" lon="-3.448178">
        <ele>614.2</ele>
        <time>1970-01-01T00:08:20.000Z</time>
      </trkpt>
      <trkpt lat="40.364372" lon="-3.448251">
        <ele>613.8</ele>
        <time>1970-01-01T00:08:21.000Z</time>
      </trkpt>
      <trkpt lat="40.364311" lon="-3.448341">
        <ele>613.4</ele>
        <time>1970-01-01T00:08:22.000Z</time>
      </trkpt>
      <trkpt lat="40.364253" lon="-3.448439">
        <ele>613.2</ele>
        <time>1970-01-01T00:08:23.000Z</time>
      </trkpt>
      <trkpt lat="40.364195" lon="-3.448535">
        <ele>612.8</ele>
        <time>1970-01-01T00:08:24.000Z</time>
      </trkpt>
      <trkpt lat="40.364128" lon="-3.448625">
        <ele>612.6</ele>
        <time>1970-01-01T00:08:25.000Z</time>
      </trkpt>
      <trkpt lat="40.364058" lon="-3.448708">
        <ele>612</ele>
        <time>1970-01-01T00:08:26.000Z</time>
      </trkpt>
      <trkpt lat="40.363988" lon="-3.448794">
        <ele>611.8</ele>
        <time>1970-01-01T00:08:27.000Z</time>
      </trkpt>
      <trkpt lat="40.363928" lon="-3.448888">
        <ele>611.4</ele>
        <time>1970-01-01T00:08:28.000Z</time>
      </trkpt>
      <trkpt lat="40.363875" lon="-3.44899">
        <ele>611.4</ele>
        <time>1970-01-01T00:08:29.000Z</time>
      </trkpt>
      <trkpt lat="40.363826" lon="-3.449094">
        <ele>611</ele>
        <time>1970-01-01T00:08:30.000Z</time>
      </trkpt>
      <trkpt lat="40.36378" lon="-3.449197">
        <ele>610.8</ele>
        <time>1970-01-01T00:08:31.000Z</time>
      </trkpt>
      <trkpt lat="40.363738" lon="-3.449302">
        <ele>610.6</ele>
        <time>1970-01-01T00:08:32.000Z</time>
      </trkpt>
      <trkpt lat="40.363704" lon="-3.44941">
        <ele>610.4</ele>
        <time>1970-01-01T00:08:33.000Z</time>
      </trkpt>
      <trkpt lat="40.363679" lon="-3.449522">
        <ele>610.2</ele>
        <time>1970-01-01T00:08:34.000Z</time>
      </trkpt>
      <trkpt lat="40.363673" lon="-3.449635">
        <ele>609.8</ele>
        <time>1970-01-01T00:08:35.000Z</time>
      </trkpt>
      <trkpt lat="40.363677" lon="-3.449746">
        <ele>609.6</ele>
        <time>1970-01-01T00:08:36.000Z</time>
      </trkpt>
      <trkpt lat="40.363682" lon="-3.449855">
        <ele>609</ele>
        <time>1970-01-01T00:08:37.000Z</time>
      </trkpt>
      <trkpt lat="40.363669" lon="-3.449954">
        <ele>608.6</ele>
        <time>1970-01-01T00:08:38.000Z</time>
      </trkpt>
      <trkpt lat="40.363638" lon="-3.450037">
        <ele>608.2</ele>
        <time>1970-01-01T00:08:39.000Z</time>
      </trkpt>
      <trkpt lat="40.363588" lon="-3.450094">
        <ele>608</ele>
        <time>1970-01-01T00:08:40.000Z</time>
      </trkpt>
      <trkpt lat="40.36352" lon="-3.450117">
        <ele>607.8</ele>
        <time>1970-01-01T00:08:41.000Z</time>
      </trkpt>
      <trkpt lat="40.363455" lon="-3.450144">
        <ele>607.6</ele>
        <time>1970-01-01T00:08:42.000Z</time>
      </trkpt>
      <trkpt lat="40.363384" lon="-3.450187">
        <ele>607.4</ele>
        <time>1970-01-01T00:08:43.000Z</time>
      </trkpt>
      <trkpt lat="40.36332" lon="-3.450244">
        <ele>607</ele>
        <time>1970-01-01T00:08:44.000Z</time>
      </trkpt>
      <trkpt lat="40.363256" lon="-3.450299">
        <ele>606.8</ele>
        <time>1970-01-01T00:08:45.000Z</time>
      </trkpt>
      <trkpt lat="40.363182" lon="-3.450351">
        <ele>606.4</ele>
        <time>1970-01-01T00:08:46.000Z</time>
      </trkpt>
      <trkpt lat="40.363096" lon="-3.450383">
        <ele>606.2</ele>
        <time>1970-01-01T00:08:47.000Z</time>
      </trkpt>
      <trkpt lat="40.363008" lon="-3.450393">
        <ele>606</ele>
        <time>1970-01-01T00:08:48.000Z</time>
      </trkpt>
      <trkpt lat="40.362917" lon="-3.450399">
        <ele>605.8</ele>
        <time>1970-01-01T00:08:49.000Z</time>
      </trkpt>
      <trkpt lat="40.362828" lon="-3.450408">
        <ele>605.2</ele>
        <time>1970-01-01T00:08:50.000Z</time>
      </trkpt>
      <trkpt lat="40.362742" lon="-3.450428">
        <ele>604.8</ele>
        <time>1970-01-01T00:08:51.000Z</time>
      </trkpt>
      <trkpt lat="40.362662" lon="-3.450466">
        <ele>604.4</ele>
        <time>1970-01-01T00:08:52.000Z</time>
      </trkpt>
      <trkpt lat="40.36259" lon="-3.450519">
        <ele>603.8</ele>
        <time>1970-01-01T00:08:53.000Z</time>
      </trkpt>
      <trkpt lat="40.362525" lon="-3.450584">
        <ele>603.8</ele>
        <time>1970-01-01T00:08:54.000Z</time>
      </trkpt>
      <trkpt lat="40.362465" lon="-3.450651">
        <ele>603.6</ele>
        <time>1970-01-01T00:08:55.000Z</time>
      </trkpt>
      <trkpt lat="40.362407" lon="-3.450717">
        <ele>603.6</ele>
        <time>1970-01-01T00:08:56.000Z</time>
      </trkpt>
      <trkpt lat="40.362353" lon="-3.450784">
        <ele>603.4</ele>
        <time>1970-01-01T00:08:57.000Z</time>
      </trkpt>
      <trkpt lat="40.3623" lon="-3.450851">
        <ele>603.4</ele>
        <time>1970-01-01T00:08:58.000Z</time>
      </trkpt>
      <trkpt lat="40.362252" lon="-3.450917">
        <ele>603.6</ele>
        <time>1970-01-01T00:08:59.000Z</time>
      </trkpt>
      <trkpt lat="40.362212" lon="-3.450981">
        <ele>603.6</ele>
        <time>1970-01-01T00:09:00.000Z</time>
      </trkpt>
      <trkpt lat="40.36218" lon="-3.451044">
        <ele>603.6</ele>
        <time>1970-01-01T00:09:01.000Z</time>
      </trkpt>
      <trkpt lat="40.362153" lon="-3.451104">
        <ele>603.8</ele>
        <time>1970-01-01T00:09:02.000Z</time>
      </trkpt>
      <trkpt lat="40.362128" lon="-3.451172">
        <ele>604</ele>
        <time>1970-01-01T00:09:03.000Z</time>
      </trkpt>
      <trkpt lat="40.362104" lon="-3.45124">
        <ele>604.2</ele>
        <time>1970-01-01T00:09:04.000Z</time>
      </trkpt>
      <trkpt lat="40.36208" lon="-3.45131">
        <ele>604.4</ele>
        <time>1970-01-01T00:09:05.000Z</time>
      </trkpt>
      <trkpt lat="40.362057" lon="-3.451383">
        <ele>604.8</ele>
        <time>1970-01-01T00:09:06.000Z</time>
      </trkpt>
      <trkpt lat="40.362037" lon="-3.451455">
        <ele>605</ele>
        <time>1970-01-01T00:09:07.000Z</time>
      </trkpt>
      <trkpt lat="40.36202" lon="-3.451529">
        <ele>605.6</ele>
        <time>1970-01-01T00:09:08.000Z</time>
      </trkpt>
      <trkpt lat="40.362006" lon="-3.451604">
        <ele>606</ele>
        <time>1970-01-01T00:09:09.000Z</time>
      </trkpt>
      <trkpt lat="40.361994" lon="-3.451679">
        <ele>606.2</ele>
        <time>1970-01-01T00:09:10.000Z</time>
      </trkpt>
      <trkpt lat="40.361981" lon="-3.451756">
        <ele>606.6</ele>
        <time>1970-01-01T00:09:11.000Z</time>
      </trkpt>
      <trkpt lat="40.361968" lon="-3.451832">
        <ele>606.6</ele>
        <time>1970-01-01T00:09:12.000Z</time>
      </trkpt>
      <trkpt lat="40.361954" lon="-3.451907">
        <ele>606.8</ele>
        <time>1970-01-01T00:09:13.000Z</time>
      </trkpt>
      <trkpt lat="40.361939" lon="-3.451984">
        <ele>607</ele>
        <time>1970-01-01T00:09:14.000Z</time>
      </trkpt>
      <trkpt lat="40.361922" lon="-3.452064">
        <ele>607</ele>
        <time>1970-01-01T00:09:15.000Z</time>
      </trkpt>
      <trkpt lat="40.361903" lon="-3.452147">
        <ele>607.2</ele>
        <time>1970-01-01T00:09:16.000Z</time>
      </trkpt>
      <trkpt lat="40.361885" lon="-3.452232">
        <ele>607.2</ele>
        <time>1970-01-01T00:09:17.000Z</time>
      </trkpt>
      <trkpt lat="40.361866" lon="-3.45232">
        <ele>607.2</ele>
        <time>1970-01-01T00:09:18.000Z</time>
      </trkpt>
      <trkpt lat="40.361849" lon="-3.452408">
        <ele>607.2</ele>
        <time>1970-01-01T00:09:19.000Z</time>
      </trkpt>
      <trkpt lat="40.361832" lon="-3.452501">
        <ele>607.2</ele>
        <time>1970-01-01T00:09:20.000Z</time>
      </trkpt>
      <trkpt lat="40.361815" lon="-3.452597">
        <ele>607.2</ele>
        <time>1970-01-01T00:09:21.000Z</time>
      </trkpt>
      <trkpt lat="40.361794" lon="-3.452698">
        <ele>607.2</ele>
        <time>1970-01-01T00:09:22.000Z</time>
      </trkpt>
      <trkpt lat="40.361775" lon="-3.452804">
        <ele>607.2</ele>
        <time>1970-01-01T00:09:23.000Z</time>
      </trkpt>
      <trkpt lat="40.361757" lon="-3.452915">
        <ele>606.8</ele>
        <time>1970-01-01T00:09:24.000Z</time>
      </trkpt>
      <trkpt lat="40.361737" lon="-3.453029">
        <ele>606.6</ele>
        <time>1970-01-01T00:09:25.000Z</time>
      </trkpt>
      <trkpt lat="40.361713" lon="-3.453146">
        <ele>606</ele>
        <time>1970-01-01T00:09:26.000Z</time>
      </trkpt>
      <trkpt lat="40.361686" lon="-3.453263">
        <ele>605.8</ele>
        <time>1970-01-01T00:09:27.000Z</time>
      </trkpt>
      <trkpt lat="40.361655" lon="-3.453385">
        <ele>605.2</ele>
        <time>1970-01-01T00:09:28.000Z</time>
      </trkpt>
      <trkpt lat="40.361619" lon="-3.453509">
        <ele>604.6</ele>
        <time>1970-01-01T00:09:29.000Z</time>
      </trkpt>
      <trkpt lat="40.361581" lon="-3.453631">
        <ele>604.4</ele>
        <time>1970-01-01T00:09:30.000Z</time>
      </trkpt>
      <trkpt lat="40.361538" lon="-3.453744">
        <ele>603.6</ele>
        <time>1970-01-01T00:09:31.000Z</time>
      </trkpt>
      <trkpt lat="40.361488" lon="-3.453848">
        <ele>603.4</ele>
        <time>1970-01-01T00:09:32.000Z</time>
      </trkpt>
      <trkpt lat="40.361435" lon="-3.453936">
        <ele>602.6</ele>
        <time>1970-01-01T00:09:33.000Z</time>
      </trkpt>
      <trkpt lat="40.361371" lon="-3.454009">
        <ele>602.2</ele>
        <time>1970-01-01T00:09:34.000Z</time>
      </trkpt>
      <trkpt lat="40.361298" lon="-3.454069">
        <ele>601.2</ele>
        <time>1970-01-01T00:09:35.000Z</time>
      </trkpt>
      <trkpt lat="40.361232" lon="-3.45411">
        <ele>600.6</ele>
        <time>1970-01-01T00:09:36.000Z</time>
      </trkpt>
      <trkpt lat="40.36117" lon="-3.454132">
        <ele>599.6</ele>
        <time>1970-01-01T00:09:37.000Z</time>
      </trkpt>
      <trkpt lat="40.361116" lon="-3.454131">
        <ele>598.4</ele>
        <time>1970-01-01T00:09:38.000Z</time>
      </trkpt>
      <trkpt lat="40.361068" lon="-3.454104">
        <ele>598</ele>
        <time>1970-01-01T00:09:39.000Z</time>
      </trkpt>
      <trkpt lat="40.361026" lon="-3.45406">
        <ele>597.4</ele>
        <time>1970-01-01T00:09:40.000Z</time>
      </trkpt>
      <trkpt lat="40.360986" lon="-3.454004">
        <ele>597</ele>
        <time>1970-01-01T00:09:41.000Z</time>
      </trkpt>
      <trkpt lat="40.360943" lon="-3.453946">
        <ele>597</ele>
        <time>1970-01-01T00:09:42.000Z</time>
      </trkpt>
      <trkpt lat="40.360895" lon="-3.453896">
        <ele>597</ele>
        <time>1970-01-01T00:09:43.000Z</time>
      </trkpt>
      <trkpt lat="40.360843" lon="-3.453849">
        <ele>596.8</ele>
        <time>1970-01-01T00:09:44.000Z</time>
      </trkpt>
      <trkpt lat="40.360795" lon="-3.453798">
        <ele>596.8</ele>
        <time>1970-01-01T00:09:45.000Z</time>
      </trkpt>
      <trkpt lat="40.360745" lon="-3.453747">
        <ele>596.6</ele>
        <time>1970-01-01T00:09:46.000Z</time>
      </trkpt>
      <trkpt lat="40.360695" lon="-3.453692">
        <ele>596.4</ele>
        <time>1970-01-01T00:09:47.000Z</time>
      </trkpt>
      <trkpt lat="40.360647" lon="-3.453638">
        <ele>596.4</ele>
        <time>1970-01-01T00:09:48.000Z</time>
      </trkpt>
      <trkpt lat="40.360596" lon="-3.453589">
        <ele>596.4</ele>
        <time>1970-01-01T00:09:49.000Z</time>
      </trkpt>
      <trkpt lat="40.360544" lon="-3.453538">
        <ele>596.4</ele>
        <time>1970-01-01T00:09:50.000Z</time>
      </trkpt>
      <trkpt lat="40.360491" lon="-3.453487">
        <ele>596.4</ele>
        <time>1970-01-01T00:09:51.000Z</time>
      </trkpt>
      <trkpt lat="40.360438" lon="-3.453435">
        <ele>596.4</ele>
        <time>1970-01-01T00:09:52.000Z</time>
      </trkpt>
      <trkpt lat="40.360383" lon="-3.453386">
        <ele>596.6</ele>
        <time>1970-01-01T00:09:53.000Z</time>
      </trkpt>
      <trkpt lat="40.360328" lon="-3.453338">
        <ele>596.6</ele>
        <time>1970-01-01T00:09:54.000Z</time>
      </trkpt>
      <trkpt lat="40.360273" lon="-3.453286">
        <ele>596.8</ele>
        <time>1970-01-01T00:09:55.000Z</time>
      </trkpt>
      <trkpt lat="40.360215" lon="-3.453236">
        <ele>597</ele>
        <time>1970-01-01T00:09:56.000Z</time>
      </trkpt>
      <trkpt lat="40.360159" lon="-3.453183">
        <ele>597</ele>
        <time>1970-01-01T00:09:57.000Z</time>
      </trkpt>
      <trkpt lat="40.360102" lon="-3.453127">
        <ele>597</ele>
        <time>1970-01-01T00:09:58.000Z</time>
      </trkpt>
      <trkpt lat="40.360042" lon="-3.453075">
        <ele>597</ele>
        <time>1970-01-01T00:09:59.000Z</time>
      </trkpt>
      <trkpt lat="40.359981" lon="-3.453025">
        <ele>597</ele>
        <time>1970-01-01T00:10:00.000Z</time>
      </trkpt>
      <trkpt lat="40.359924" lon="-3.452973">
        <ele>597</ele>
        <time>1970-01-01T00:10:01.000Z</time>
      </trkpt>
      <trkpt lat="40.359865" lon="-3.452921">
        <ele>597.2</ele>
        <time>1970-01-01T00:10:02.000Z</time>
      </trkpt>
      <trkpt lat="40.359807" lon="-3.452868">
        <ele>597.2</ele>
        <time>1970-01-01T00:10:03.000Z</time>
      </trkpt>
      <trkpt lat="40.359746" lon="-3.452816">
        <ele>597.2</ele>
        <time>1970-01-01T00:10:04.000Z</time>
      </trkpt>
      <trkpt lat="40.359683" lon="-3.452763">
        <ele>597.2</ele>
        <time>1970-01-01T00:10:05.000Z</time>
      </trkpt>
      <trkpt lat="40.35962" lon="-3.45271">
        <ele>597.2</ele>
        <time>1970-01-01T00:10:06.000Z</time>
      </trkpt>
      <trkpt lat="40.359555" lon="-3.452657">
        <ele>597</ele>
        <time>1970-01-01T00:10:07.000Z</time>
      </trkpt>
      <trkpt lat="40.359488" lon="-3.452603">
        <ele>597</ele>
        <time>1970-01-01T00:10:08.000Z</time>
      </trkpt>
      <trkpt lat="40.35942" lon="-3.452551">
        <ele>596.8</ele>
        <time>1970-01-01T00:10:09.000Z</time>
      </trkpt>
      <trkpt lat="40.359351" lon="-3.4525">
        <ele>596.6</ele>
        <time>1970-01-01T00:10:10.000Z</time>
      </trkpt>
      <trkpt lat="40.359279" lon="-3.452447">
        <ele>596.4</ele>
        <time>1970-01-01T00:10:11.000Z</time>
      </trkpt>
      <trkpt lat="40.359203" lon="-3.452395">
        <ele>596.2</ele>
        <time>1970-01-01T00:10:12.000Z</time>
      </trkpt>
      <trkpt lat="40.359128" lon="-3.452343">
        <ele>595.8</ele>
        <time>1970-01-01T00:10:13.000Z</time>
      </trkpt>
      <trkpt lat="40.359051" lon="-3.452291">
        <ele>595.8</ele>
        <time>1970-01-01T00:10:14.000Z</time>
      </trkpt>
      <trkpt lat="40.358973" lon="-3.452245">
        <ele>595.6</ele>
        <time>1970-01-01T00:10:15.000Z</time>
      </trkpt>
      <trkpt lat="40.358898" lon="-3.452199">
        <ele>595.2</ele>
        <time>1970-01-01T00:10:16.000Z</time>
      </trkpt>
      <trkpt lat="40.358827" lon="-3.452156">
        <ele>595</ele>
        <time>1970-01-01T00:10:17.000Z</time>
      </trkpt>
      <trkpt lat="40.358757" lon="-3.452117">
        <ele>594.8</ele>
        <time>1970-01-01T00:10:18.000Z</time>
      </trkpt>
      <trkpt lat="40.358696" lon="-3.452079">
        <ele>594.6</ele>
        <time>1970-01-01T00:10:19.000Z</time>
      </trkpt>
      <trkpt lat="40.358644" lon="-3.45205">
        <ele>594.6</ele>
        <time>1970-01-01T00:10:20.000Z</time>
      </trkpt>
      <trkpt lat="40.358597" lon="-3.452014">
        <ele>594.6</ele>
        <time>1970-01-01T00:10:21.000Z</time>
      </trkpt>
      <trkpt lat="40.358551" lon="-3.45198">
        <ele>594.6</ele>
        <time>1970-01-01T00:10:22.000Z</time>
      </trkpt>
      <trkpt lat="40.358504" lon="-3.451943">
        <ele>594.6</ele>
        <time>1970-01-01T00:10:23.000Z</time>
      </trkpt>
      <trkpt lat="40.358458" lon="-3.451908">
        <ele>594.8</ele>
        <time>1970-01-01T00:10:24.000Z</time>
      </trkpt>
      <trkpt lat="40.358414" lon="-3.451871">
        <ele>595.4</ele>
        <time>1970-01-01T00:10:25.000Z</time>
      </trkpt>
      <trkpt lat="40.358361" lon="-3.451828">
        <ele>595.6</ele>
        <time>1970-01-01T00:10:26.000Z</time>
      </trkpt>
      <trkpt lat="40.358328" lon="-3.451798">
        <ele>595.8</ele>
        <time>1970-01-01T00:10:27.000Z</time>
      </trkpt>
      <trkpt lat="40.358289" lon="-3.451763">
        <ele>595.8</ele>
        <time>1970-01-01T00:10:28.000Z</time>
      </trkpt>
      <trkpt lat="40.35825" lon="-3.451731">
        <ele>596.2</ele>
        <time>1970-01-01T00:10:29.000Z</time>
      </trkpt>
      <trkpt lat="40.358213" lon="-3.451698">
        <ele>596.4</ele>
        <time>1970-01-01T00:10:30.000Z</time>
      </trkpt>
      <trkpt lat="40.358177" lon="-3.451669">
        <ele>596.6</ele>
        <time>1970-01-01T00:10:31.000Z</time>
      </trkpt>
      <trkpt lat="40.358139" lon="-3.451642">
        <ele>596.8</ele>
        <time>1970-01-01T00:10:32.000Z</time>
      </trkpt>
      <trkpt lat="40.358099" lon="-3.45162">
        <ele>597</ele>
        <time>1970-01-01T00:10:33.000Z</time>
      </trkpt>
      <trkpt lat="40.358058" lon="-3.451602">
        <ele>597.4</ele>
        <time>1970-01-01T00:10:34.000Z</time>
      </trkpt>
      <trkpt lat="40.358019" lon="-3.451585">
        <ele>597.6</ele>
        <time>1970-01-01T00:10:35.000Z</time>
      </trkpt>
      <trkpt lat="40.35798" lon="-3.451569">
        <ele>598.4</ele>
        <time>1970-01-01T00:10:36.000Z</time>
      </trkpt>
      <trkpt lat="40.357941" lon="-3.45155">
        <ele>598.6</ele>
        <time>1970-01-01T00:10:37.000Z</time>
      </trkpt>
      <trkpt lat="40.357901" lon="-3.451528">
        <ele>599</ele>
        <time>1970-01-01T00:10:38.000Z</time>
      </trkpt>
      <trkpt lat="40.357864" lon="-3.451504">
        <ele>599.2</ele>
        <time>1970-01-01T00:10:39.000Z</time>
      </trkpt>
      <trkpt lat="40.357824" lon="-3.451483">
        <ele>599.4</ele>
        <time>1970-01-01T00:10:40.000Z</time>
      </trkpt>
      <trkpt lat="40.357784" lon="-3.451468">
        <ele>599.4</ele>
        <time>1970-01-01T00:10:41.000Z</time>
      </trkpt>
      <trkpt lat="40.357742" lon="-3.45146">
        <ele>599.6</ele>
        <time>1970-01-01T00:10:42.000Z</time>
      </trkpt>
      <trkpt lat="40.357695" lon="-3.451456">
        <ele>600.2</ele>
        <time>1970-01-01T00:10:43.000Z</time>
      </trkpt>
      <trkpt lat="40.357646" lon="-3.451451">
        <ele>600.4</ele>
        <time>1970-01-01T00:10:44.000Z</time>
      </trkpt>
      <trkpt lat="40.357594" lon="-3.451452">
        <ele>600.6</ele>
        <time>1970-01-01T00:10:45.000Z</time>
      </trkpt>
      <trkpt lat="40.357541" lon="-3.451458">
        <ele>600.6</ele>
        <time>1970-01-01T00:10:46.000Z</time>
      </trkpt>
      <trkpt lat="40.357485" lon="-3.451467">
        <ele>600.8</ele>
        <time>1970-01-01T00:10:47.000Z</time>
      </trkpt>
      <trkpt lat="40.357429" lon="-3.451475">
        <ele>600.8</ele>
        <time>1970-01-01T00:10:48.000Z</time>
      </trkpt>
      <trkpt lat="40.357368" lon="-3.451486">
        <ele>600.8</ele>
        <time>1970-01-01T00:10:49.000Z</time>
      </trkpt>
      <trkpt lat="40.357307" lon="-3.451496">
        <ele>600.8</ele>
        <time>1970-01-01T00:10:50.000Z</time>
      </trkpt>
      <trkpt lat="40.357245" lon="-3.451501">
        <ele>600.8</ele>
        <time>1970-01-01T00:10:51.000Z</time>
      </trkpt>
      <trkpt lat="40.357177" lon="-3.451509">
        <ele>600.8</ele>
        <time>1970-01-01T00:10:52.000Z</time>
      </trkpt>
      <trkpt lat="40.357092" lon="-3.451521">
        <ele>600.6</ele>
        <time>1970-01-01T00:10:53.000Z</time>
      </trkpt>
      <trkpt lat="40.357033" lon="-3.451529">
        <ele>600.6</ele>
        <time>1970-01-01T00:10:54.000Z</time>
      </trkpt>
      <trkpt lat="40.356957" lon="-3.451536">
        <ele>600.6</ele>
        <time>1970-01-01T00:10:55.000Z</time>
      </trkpt>
      <trkpt lat="40.356879" lon="-3.45154">
        <ele>600.4</ele>
        <time>1970-01-01T00:10:56.000Z</time>
      </trkpt>
      <trkpt lat="40.356801" lon="-3.45154">
        <ele>600.2</ele>
        <time>1970-01-01T00:10:57.000Z</time>
      </trkpt>
      <trkpt lat="40.356722" lon="-3.451535">
        <ele>599.8</ele>
        <time>1970-01-01T00:10:58.000Z</time>
      </trkpt>
      <trkpt lat="40.356642" lon="-3.451529">
        <ele>599.6</ele>
        <time>1970-01-01T00:10:59.000Z</time>
      </trkpt>
      <trkpt lat="40.356564" lon="-3.451518">
        <ele>599.4</ele>
        <time>1970-01-01T00:11:00.000Z</time>
      </trkpt>
      <trkpt lat="40.356483" lon="-3.451506">
        <ele>599.2</ele>
        <time>1970-01-01T00:11:01.000Z</time>
      </trkpt>
      <trkpt lat="40.356401" lon="-3.451498">
        <ele>599</ele>
        <time>1970-01-01T00:11:02.000Z</time>
      </trkpt>
      <trkpt lat="40.356317" lon="-3.451488">
        <ele>598.4</ele>
        <time>1970-01-01T00:11:03.000Z</time>
      </trkpt>
      <trkpt lat="40.356232" lon="-3.451475">
        <ele>598.2</ele>
        <time>1970-01-01T00:11:04.000Z</time>
      </trkpt>
      <trkpt lat="40.356146" lon="-3.451461">
        <ele>597.8</ele>
        <time>1970-01-01T00:11:05.000Z</time>
      </trkpt>
      <trkpt lat="40.356059" lon="-3.451445">
        <ele>597.6</ele>
        <time>1970-01-01T00:11:06.000Z</time>
      </trkpt>
      <trkpt lat="40.355971" lon="-3.451425">
        <ele>597.4</ele>
        <time>1970-01-01T00:11:07.000Z</time>
      </trkpt>
      <trkpt lat="40.355882" lon="-3.451401">
        <ele>597.2</ele>
        <time>1970-01-01T00:11:08.000Z</time>
      </trkpt>
      <trkpt lat="40.355792" lon="-3.451376">
        <ele>596.8</ele>
        <time>1970-01-01T00:11:09.000Z</time>
      </trkpt>
      <trkpt lat="40.355701" lon="-3.45135">
        <ele>596.6</ele>
        <time>1970-01-01T00:11:10.000Z</time>
      </trkpt>
      <trkpt lat="40.35561" lon="-3.451325">
        <ele>595.8</ele>
        <time>1970-01-01T00:11:11.000Z</time>
      </trkpt>
      <trkpt lat="40.355519" lon="-3.451303">
        <ele>595</ele>
        <time>1970-01-01T00:11:12.000Z</time>
      </trkpt>
      <trkpt lat="40.355433" lon="-3.451284">
        <ele>594.8</ele>
        <time>1970-01-01T00:11:13.000Z</time>
      </trkpt>
      <trkpt lat="40.355346" lon="-3.451265">
        <ele>594</ele>
        <time>1970-01-01T00:11:14.000Z</time>
      </trkpt>
      <trkpt lat="40.355264" lon="-3.45124">
        <ele>593.4</ele>
        <time>1970-01-01T00:11:15.000Z</time>
      </trkpt>
      <trkpt lat="40.355184" lon="-3.451218">
        <ele>593</ele>
        <time>1970-01-01T00:11:16.000Z</time>
      </trkpt>
      <trkpt lat="40.355109" lon="-3.451212">
        <ele>593</ele>
        <time>1970-01-01T00:11:17.000Z</time>
      </trkpt>
      <trkpt lat="40.355033" lon="-3.45123">
        <ele>592.4</ele>
        <time>1970-01-01T00:11:18.000Z</time>
      </trkpt>
      <trkpt lat="40.354963" lon="-3.451268">
        <ele>592.2</ele>
        <time>1970-01-01T00:11:19.000Z</time>
      </trkpt>
      <trkpt lat="40.354885" lon="-3.451341">
        <ele>591.6</ele>
        <time>1970-01-01T00:11:20.000Z</time>
      </trkpt>
      <trkpt lat="40.354837" lon="-3.451396">
        <ele>591.4</ele>
        <time>1970-01-01T00:11:21.000Z</time>
      </trkpt>
      <trkpt lat="40.354775" lon="-3.45146">
        <ele>591</ele>
        <time>1970-01-01T00:11:22.000Z</time>
      </trkpt>
      <trkpt lat="40.354709" lon="-3.45152">
        <ele>590.6</ele>
        <time>1970-01-01T00:11:23.000Z</time>
      </trkpt>
      <trkpt lat="40.354643" lon="-3.451577">
        <ele>590.2</ele>
        <time>1970-01-01T00:11:24.000Z</time>
      </trkpt>
      <trkpt lat="40.354573" lon="-3.451633">
        <ele>589.8</ele>
        <time>1970-01-01T00:11:25.000Z</time>
      </trkpt>
      <trkpt lat="40.354504" lon="-3.451691">
        <ele>589.6</ele>
        <time>1970-01-01T00:11:26.000Z</time>
      </trkpt>
      <trkpt lat="40.354437" lon="-3.451752">
        <ele>589.4</ele>
        <time>1970-01-01T00:11:27.000Z</time>
      </trkpt>
      <trkpt lat="40.354371" lon="-3.451816">
        <ele>589.2</ele>
        <time>1970-01-01T00:11:28.000Z</time>
      </trkpt>
      <trkpt lat="40.354305" lon="-3.451881">
        <ele>588.8</ele>
        <time>1970-01-01T00:11:29.000Z</time>
      </trkpt>
      <trkpt lat="40.354238" lon="-3.451947">
        <ele>588.6</ele>
        <time>1970-01-01T00:11:30.000Z</time>
      </trkpt>
      <trkpt lat="40.354171" lon="-3.452013">
        <ele>588</ele>
        <time>1970-01-01T00:11:31.000Z</time>
      </trkpt>
      <trkpt lat="40.354103" lon="-3.452077">
        <ele>587.8</ele>
        <time>1970-01-01T00:11:32.000Z</time>
      </trkpt>
      <trkpt lat="40.354033" lon="-3.452138">
        <ele>587.8</ele>
        <time>1970-01-01T00:11:33.000Z</time>
      </trkpt>
      <trkpt lat="40.353963" lon="-3.452194">
        <ele>587.6</ele>
        <time>1970-01-01T00:11:34.000Z</time>
      </trkpt>
      <trkpt lat="40.353889" lon="-3.452245">
        <ele>587.6</ele>
        <time>1970-01-01T00:11:35.000Z</time>
      </trkpt>
      <trkpt lat="40.353814" lon="-3.452291">
        <ele>587.4</ele>
        <time>1970-01-01T00:11:36.000Z</time>
      </trkpt>
      <trkpt lat="40.353737" lon="-3.452334">
        <ele>587.4</ele>
        <time>1970-01-01T00:11:37.000Z</time>
      </trkpt>
      <trkpt lat="40.353663" lon="-3.452373">
        <ele>587.2</ele>
        <time>1970-01-01T00:11:38.000Z</time>
      </trkpt>
      <trkpt lat="40.353588" lon="-3.452415">
        <ele>587</ele>
        <time>1970-01-01T00:11:39.000Z</time>
      </trkpt>
      <trkpt lat="40.353515" lon="-3.452459">
        <ele>586.8</ele>
        <time>1970-01-01T00:11:40.000Z</time>
      </trkpt>
      <trkpt lat="40.353446" lon="-3.452507">
        <ele>586.4</ele>
        <time>1970-01-01T00:11:41.000Z</time>
      </trkpt>
      <trkpt lat="40.353379" lon="-3.452562">
        <ele>586.2</ele>
        <time>1970-01-01T00:11:42.000Z</time>
      </trkpt>
      <trkpt lat="40.353312" lon="-3.452616">
        <ele>586</ele>
        <time>1970-01-01T00:11:43.000Z</time>
      </trkpt>
      <trkpt lat="40.353241" lon="-3.452656">
        <ele>586</ele>
        <time>1970-01-01T00:11:44.000Z</time>
      </trkpt>
      <trkpt lat="40.353167" lon="-3.452683">
        <ele>586</ele>
        <time>1970-01-01T00:11:45.000Z</time>
      </trkpt>
      <trkpt lat="40.353097" lon="-3.452713">
        <ele>586</ele>
        <time>1970-01-01T00:11:46.000Z</time>
      </trkpt>
      <trkpt lat="40.353028" lon="-3.452747">
        <ele>585.8</ele>
        <time>1970-01-01T00:11:47.000Z</time>
      </trkpt>
      <trkpt lat="40.352962" lon="-3.452787">
        <ele>585.6</ele>
        <time>1970-01-01T00:11:48.000Z</time>
      </trkpt>
      <trkpt lat="40.352899" lon="-3.452835">
        <ele>585.4</ele>
        <time>1970-01-01T00:11:49.000Z</time>
      </trkpt>
      <trkpt lat="40.352839" lon="-3.452887">
        <ele>585.2</ele>
        <time>1970-01-01T00:11:50.000Z</time>
      </trkpt>
      <trkpt lat="40.352776" lon="-3.452939">
        <ele>585</ele>
        <time>1970-01-01T00:11:51.000Z</time>
      </trkpt>
      <trkpt lat="40.352715" lon="-3.452987">
        <ele>585</ele>
        <time>1970-01-01T00:11:52.000Z</time>
      </trkpt>
      <trkpt lat="40.352655" lon="-3.453037">
        <ele>585</ele>
        <time>1970-01-01T00:11:53.000Z</time>
      </trkpt>
      <trkpt lat="40.352592" lon="-3.453089">
        <ele>584.8</ele>
        <time>1970-01-01T00:11:54.000Z</time>
      </trkpt>
      <trkpt lat="40.352528" lon="-3.453141">
        <ele>584.8</ele>
        <time>1970-01-01T00:11:55.000Z</time>
      </trkpt>
      <trkpt lat="40.352464" lon="-3.453195">
        <ele>584.8</ele>
        <time>1970-01-01T00:11:56.000Z</time>
      </trkpt>
      <trkpt lat="40.352404" lon="-3.453253">
        <ele>584.8</ele>
        <time>1970-01-01T00:11:57.000Z</time>
      </trkpt>
      <trkpt lat="40.352344" lon="-3.453312">
        <ele>584.8</ele>
        <time>1970-01-01T00:11:58.000Z</time>
      </trkpt>
      <trkpt lat="40.35228" lon="-3.453371">
        <ele>584.8</ele>
        <time>1970-01-01T00:11:59.000Z</time>
      </trkpt>
      <trkpt lat="40.352216" lon="-3.45343">
        <ele>584.8</ele>
        <time>1970-01-01T00:12:00.000Z</time>
      </trkpt>
      <trkpt lat="40.352152" lon="-3.453486">
        <ele>584.8</ele>
        <time>1970-01-01T00:12:01.000Z</time>
      </trkpt>
      <trkpt lat="40.352085" lon="-3.453536">
        <ele>584.8</ele>
        <time>1970-01-01T00:12:02.000Z</time>
      </trkpt>
      <trkpt lat="40.352016" lon="-3.453579">
        <ele>584.8</ele>
        <time>1970-01-01T00:12:03.000Z</time>
      </trkpt>
      <trkpt lat="40.351941" lon="-3.453612">
        <ele>584.8</ele>
        <time>1970-01-01T00:12:04.000Z</time>
      </trkpt>
      <trkpt lat="40.351862" lon="-3.453636">
        <ele>584.8</ele>
        <time>1970-01-01T00:12:05.000Z</time>
      </trkpt>
      <trkpt lat="40.351781" lon="-3.453655">
        <ele>584.8</ele>
        <time>1970-01-01T00:12:06.000Z</time>
      </trkpt>
      <trkpt lat="40.3517" lon="-3.453668">
        <ele>584.8</ele>
        <time>1970-01-01T00:12:07.000Z</time>
      </trkpt>
      <trkpt lat="40.351618" lon="-3.453679">
        <ele>584.8</ele>
        <time>1970-01-01T00:12:08.000Z</time>
      </trkpt>
      <trkpt lat="40.351534" lon="-3.453683">
        <ele>584.8</ele>
        <time>1970-01-01T00:12:09.000Z</time>
      </trkpt>
      <trkpt lat="40.35145" lon="-3.453682">
        <ele>584.6</ele>
        <time>1970-01-01T00:12:10.000Z</time>
      </trkpt>
      <trkpt lat="40.351368" lon="-3.453675">
        <ele>584</ele>
        <time>1970-01-01T00:12:11.000Z</time>
      </trkpt>
      <trkpt lat="40.351288" lon="-3.453665">
        <ele>583.2</ele>
        <time>1970-01-01T00:12:12.000Z</time>
      </trkpt>
      <trkpt lat="40.351206" lon="-3.453654">
        <ele>583</ele>
        <time>1970-01-01T00:12:13.000Z</time>
      </trkpt>
      <trkpt lat="40.351127" lon="-3.453638">
        <ele>582.8</ele>
        <time>1970-01-01T00:12:14.000Z</time>
      </trkpt>
      <trkpt lat="40.351046" lon="-3.453621">
        <ele>582.8</ele>
        <time>1970-01-01T00:12:15.000Z</time>
      </trkpt>
      <trkpt lat="40.350966" lon="-3.453601">
        <ele>582.6</ele>
        <time>1970-01-01T00:12:16.000Z</time>
      </trkpt>
      <trkpt lat="40.350886" lon="-3.453579">
        <ele>582.4</ele>
        <time>1970-01-01T00:12:17.000Z</time>
      </trkpt>
      <trkpt lat="40.350807" lon="-3.45356">
        <ele>582</ele>
        <time>1970-01-01T00:12:18.000Z</time>
      </trkpt>
      <trkpt lat="40.350728" lon="-3.453543">
        <ele>581.8</ele>
        <time>1970-01-01T00:12:19.000Z</time>
      </trkpt>
      <trkpt lat="40.350652" lon="-3.45352">
        <ele>581.8</ele>
        <time>1970-01-01T00:12:20.000Z</time>
      </trkpt>
      <trkpt lat="40.350577" lon="-3.453499">
        <ele>581.4</ele>
        <time>1970-01-01T00:12:21.000Z</time>
      </trkpt>
      <trkpt lat="40.350504" lon="-3.453475">
        <ele>581.4</ele>
        <time>1970-01-01T00:12:22.000Z</time>
      </trkpt>
      <trkpt lat="40.35043" lon="-3.453451">
        <ele>581.2</ele>
        <time>1970-01-01T00:12:23.000Z</time>
      </trkpt>
      <trkpt lat="40.350356" lon="-3.45343">
        <ele>581</ele>
        <time>1970-01-01T00:12:24.000Z</time>
      </trkpt>
      <trkpt lat="40.350282" lon="-3.453406">
        <ele>581</ele>
        <time>1970-01-01T00:12:25.000Z</time>
      </trkpt>
      <trkpt lat="40.350206" lon="-3.45338">
        <ele>581</ele>
        <time>1970-01-01T00:12:26.000Z</time>
      </trkpt>
      <trkpt lat="40.350127" lon="-3.453362">
        <ele>580.8</ele>
        <time>1970-01-01T00:12:27.000Z</time>
      </trkpt>
      <trkpt lat="40.350048" lon="-3.453337">
        <ele>580.8</ele>
        <time>1970-01-01T00:12:28.000Z</time>
      </trkpt>
      <trkpt lat="40.349968" lon="-3.453312">
        <ele>580.8</ele>
        <time>1970-01-01T00:12:29.000Z</time>
      </trkpt>
      <trkpt lat="40.34989" lon="-3.453291">
        <ele>580.6</ele>
        <time>1970-01-01T00:12:30.000Z</time>
      </trkpt>
      <trkpt lat="40.349813" lon="-3.45327">
        <ele>580.6</ele>
        <time>1970-01-01T00:12:31.000Z</time>
      </trkpt>
      <trkpt lat="40.349738" lon="-3.453247">
        <ele>580.6</ele>
        <time>1970-01-01T00:12:32.000Z</time>
      </trkpt>
      <trkpt lat="40.349662" lon="-3.453227">
        <ele>580.4</ele>
        <time>1970-01-01T00:12:33.000Z</time>
      </trkpt>
      <trkpt lat="40.349584" lon="-3.453207">
        <ele>580.4</ele>
        <time>1970-01-01T00:12:34.000Z</time>
      </trkpt>
      <trkpt lat="40.349507" lon="-3.453189">
        <ele>580.2</ele>
        <time>1970-01-01T00:12:35.000Z</time>
      </trkpt>
      <trkpt lat="40.349428" lon="-3.453177">
        <ele>579.8</ele>
        <time>1970-01-01T00:12:36.000Z</time>
      </trkpt>
      <trkpt lat="40.349348" lon="-3.453169">
        <ele>579.8</ele>
        <time>1970-01-01T00:12:37.000Z</time>
      </trkpt>
      <trkpt lat="40.34927" lon="-3.453163">
        <ele>579.6</ele>
        <time>1970-01-01T00:12:38.000Z</time>
      </trkpt>
      <trkpt lat="40.34919" lon="-3.453158">
        <ele>579.4</ele>
        <time>1970-01-01T00:12:39.000Z</time>
      </trkpt>
      <trkpt lat="40.349108" lon="-3.453155">
        <ele>579.4</ele>
        <time>1970-01-01T00:12:40.000Z</time>
      </trkpt>
      <trkpt lat="40.349026" lon="-3.453152">
        <ele>579.2</ele>
        <time>1970-01-01T00:12:41.000Z</time>
      </trkpt>
      <trkpt lat="40.348944" lon="-3.453145">
        <ele>579</ele>
        <time>1970-01-01T00:12:42.000Z</time>
      </trkpt>
      <trkpt lat="40.348863" lon="-3.453135">
        <ele>578.8</ele>
        <time>1970-01-01T00:12:43.000Z</time>
      </trkpt>
      <trkpt lat="40.348781" lon="-3.453129">
        <ele>578.6</ele>
        <time>1970-01-01T00:12:44.000Z</time>
      </trkpt>
      <trkpt lat="40.348697" lon="-3.453127">
        <ele>578.4</ele>
        <time>1970-01-01T00:12:45.000Z</time>
      </trkpt>
      <trkpt lat="40.348616" lon="-3.453126">
        <ele>578.2</ele>
        <time>1970-01-01T00:12:46.000Z</time>
      </trkpt>
      <trkpt lat="40.348536" lon="-3.453133">
        <ele>578</ele>
        <time>1970-01-01T00:12:47.000Z</time>
      </trkpt>
      <trkpt lat="40.348454" lon="-3.453144">
        <ele>577.6</ele>
        <time>1970-01-01T00:12:48.000Z</time>
      </trkpt>
      <trkpt lat="40.348373" lon="-3.453149">
        <ele>577.6</ele>
        <time>1970-01-01T00:12:49.000Z</time>
      </trkpt>
      <trkpt lat="40.348294" lon="-3.45315">
        <ele>577.4</ele>
        <time>1970-01-01T00:12:50.000Z</time>
      </trkpt>
      <trkpt lat="40.348212" lon="-3.453153">
        <ele>577.2</ele>
        <time>1970-01-01T00:12:51.000Z</time>
      </trkpt>
      <trkpt lat="40.348134" lon="-3.453155">
        <ele>577.2</ele>
        <time>1970-01-01T00:12:52.000Z</time>
      </trkpt>
      <trkpt lat="40.348056" lon="-3.453159">
        <ele>577</ele>
        <time>1970-01-01T00:12:53.000Z</time>
      </trkpt>
      <trkpt lat="40.347978" lon="-3.453166">
        <ele>577</ele>
        <time>1970-01-01T00:12:54.000Z</time>
      </trkpt>
      <trkpt lat="40.347901" lon="-3.453174">
        <ele>577</ele>
        <time>1970-01-01T00:12:55.000Z</time>
      </trkpt>
      <trkpt lat="40.347825" lon="-3.453181">
        <ele>576.8</ele>
        <time>1970-01-01T00:12:56.000Z</time>
      </trkpt>
      <trkpt lat="40.347749" lon="-3.453188">
        <ele>576.8</ele>
        <time>1970-01-01T00:12:57.000Z</time>
      </trkpt>
      <trkpt lat="40.347672" lon="-3.453192">
        <ele>576.6</ele>
        <time>1970-01-01T00:12:58.000Z</time>
      </trkpt>
      <trkpt lat="40.347594" lon="-3.453197">
        <ele>576.6</ele>
        <time>1970-01-01T00:12:59.000Z</time>
      </trkpt>
      <trkpt lat="40.347516" lon="-3.453199">
        <ele>576.6</ele>
        <time>1970-01-01T00:13:00.000Z</time>
      </trkpt>
      <trkpt lat="40.347437" lon="-3.453202">
        <ele>576.4</ele>
        <time>1970-01-01T00:13:01.000Z</time>
      </trkpt>
      <trkpt lat="40.347357" lon="-3.453202">
        <ele>576.4</ele>
        <time>1970-01-01T00:13:02.000Z</time>
      </trkpt>
      <trkpt lat="40.347278" lon="-3.453198">
        <ele>576.4</ele>
        <time>1970-01-01T00:13:03.000Z</time>
      </trkpt>
      <trkpt lat="40.347201" lon="-3.453203">
        <ele>576.4</ele>
        <time>1970-01-01T00:13:04.000Z</time>
      </trkpt>
      <trkpt lat="40.347124" lon="-3.453215">
        <ele>576.2</ele>
        <time>1970-01-01T00:13:05.000Z</time>
      </trkpt>
      <trkpt lat="40.347048" lon="-3.453226">
        <ele>576</ele>
        <time>1970-01-01T00:13:06.000Z</time>
      </trkpt>
      <trkpt lat="40.346972" lon="-3.453235">
        <ele>576</ele>
        <time>1970-01-01T00:13:07.000Z</time>
      </trkpt>
      <trkpt lat="40.346899" lon="-3.453241">
        <ele>575.8</ele>
        <time>1970-01-01T00:13:08.000Z</time>
      </trkpt>
      <trkpt lat="40.346825" lon="-3.453243">
        <ele>575.6</ele>
        <time>1970-01-01T00:13:09.000Z</time>
      </trkpt>
      <trkpt lat="40.346752" lon="-3.453245">
        <ele>575.4</ele>
        <time>1970-01-01T00:13:10.000Z</time>
      </trkpt>
      <trkpt lat="40.346681" lon="-3.453247">
        <ele>575.4</ele>
        <time>1970-01-01T00:13:11.000Z</time>
      </trkpt>
      <trkpt lat="40.346608" lon="-3.453248">
        <ele>575.4</ele>
        <time>1970-01-01T00:13:12.000Z</time>
      </trkpt>
      <trkpt lat="40.346536" lon="-3.453251">
        <ele>575.2</ele>
        <time>1970-01-01T00:13:13.000Z</time>
      </trkpt>
      <trkpt lat="40.346466" lon="-3.453256">
        <ele>575.2</ele>
        <time>1970-01-01T00:13:14.000Z</time>
      </trkpt>
      <trkpt lat="40.346395" lon="-3.45326">
        <ele>575.2</ele>
        <time>1970-01-01T00:13:15.000Z</time>
      </trkpt>
      <trkpt lat="40.346322" lon="-3.453266">
        <ele>575.2</ele>
        <time>1970-01-01T00:13:16.000Z</time>
      </trkpt>
      <trkpt lat="40.346249" lon="-3.453273">
        <ele>575.2</ele>
        <time>1970-01-01T00:13:17.000Z</time>
      </trkpt>
      <trkpt lat="40.346176" lon="-3.453277">
        <ele>575.2</ele>
        <time>1970-01-01T00:13:18.000Z</time>
      </trkpt>
      <trkpt lat="40.346103" lon="-3.453281">
        <ele>575.2</ele>
        <time>1970-01-01T00:13:19.000Z</time>
      </trkpt>
      <trkpt lat="40.346034" lon="-3.453285">
        <ele>575.2</ele>
        <time>1970-01-01T00:13:20.000Z</time>
      </trkpt>
      <trkpt lat="40.345962" lon="-3.453291">
        <ele>575.6</ele>
        <time>1970-01-01T00:13:21.000Z</time>
      </trkpt>
      <trkpt lat="40.345891" lon="-3.453298">
        <ele>575.6</ele>
        <time>1970-01-01T00:13:22.000Z</time>
      </trkpt>
      <trkpt lat="40.34582" lon="-3.453307">
        <ele>575.6</ele>
        <time>1970-01-01T00:13:23.000Z</time>
      </trkpt>
      <trkpt lat="40.345749" lon="-3.453314">
        <ele>575.6</ele>
        <time>1970-01-01T00:13:24.000Z</time>
      </trkpt>
      <trkpt lat="40.34568" lon="-3.453319">
        <ele>575.6</ele>
        <time>1970-01-01T00:13:25.000Z</time>
      </trkpt>
      <trkpt lat="40.345611" lon="-3.453324">
        <ele>575.8</ele>
        <time>1970-01-01T00:13:26.000Z</time>
      </trkpt>
      <trkpt lat="40.345542" lon="-3.453331">
        <ele>575.8</ele>
        <time>1970-01-01T00:13:27.000Z</time>
      </trkpt>
      <trkpt lat="40.345474" lon="-3.453337">
        <ele>575.8</ele>
        <time>1970-01-01T00:13:28.000Z</time>
      </trkpt>
      <trkpt lat="40.345408" lon="-3.453341">
        <ele>575.8</ele>
        <time>1970-01-01T00:13:29.000Z</time>
      </trkpt>
      <trkpt lat="40.345342" lon="-3.453345">
        <ele>575.8</ele>
        <time>1970-01-01T00:13:30.000Z</time>
      </trkpt>
      <trkpt lat="40.345272" lon="-3.45335">
        <ele>575.8</ele>
        <time>1970-01-01T00:13:31.000Z</time>
      </trkpt>
      <trkpt lat="40.345204" lon="-3.453354">
        <ele>576</ele>
        <time>1970-01-01T00:13:32.000Z</time>
      </trkpt>
      <trkpt lat="40.34514" lon="-3.453354">
        <ele>576.2</ele>
        <time>1970-01-01T00:13:33.000Z</time>
      </trkpt>
      <trkpt lat="40.345077" lon="-3.453355">
        <ele>576.2</ele>
        <time>1970-01-01T00:13:34.000Z</time>
      </trkpt>
      <trkpt lat="40.345013" lon="-3.453356">
        <ele>576.2</ele>
        <time>1970-01-01T00:13:35.000Z</time>
      </trkpt>
      <trkpt lat="40.34495" lon="-3.453356">
        <ele>576.2</ele>
        <time>1970-01-01T00:13:36.000Z</time>
      </trkpt>
      <trkpt lat="40.344886" lon="-3.453355">
        <ele>576.4</ele>
        <time>1970-01-01T00:13:37.000Z</time>
      </trkpt>
      <trkpt lat="40.344823" lon="-3.45335">
        <ele>576.6</ele>
        <time>1970-01-01T00:13:38.000Z</time>
      </trkpt>
      <trkpt lat="40.344758" lon="-3.453348">
        <ele>576.6</ele>
        <time>1970-01-01T00:13:39.000Z</time>
      </trkpt>
      <trkpt lat="40.34469" lon="-3.453346">
        <ele>576.8</ele>
        <time>1970-01-01T00:13:40.000Z</time>
      </trkpt>
      <trkpt lat="40.344609" lon="-3.453346">
        <ele>576.8</ele>
        <time>1970-01-01T00:13:41.000Z</time>
      </trkpt>
      <trkpt lat="40.344554" lon="-3.45335">
        <ele>576.8</ele>
        <time>1970-01-01T00:13:42.000Z</time>
      </trkpt>
      <trkpt lat="40.344487" lon="-3.453356">
        <ele>577</ele>
        <time>1970-01-01T00:13:43.000Z</time>
      </trkpt>
      <trkpt lat="40.344418" lon="-3.453371">
        <ele>577</ele>
        <time>1970-01-01T00:13:44.000Z</time>
      </trkpt>
      <trkpt lat="40.344348" lon="-3.453383">
        <ele>577</ele>
        <time>1970-01-01T00:13:45.000Z</time>
      </trkpt>
      <trkpt lat="40.344278" lon="-3.453389">
        <ele>577.2</ele>
        <time>1970-01-01T00:13:46.000Z</time>
      </trkpt>
      <trkpt lat="40.34421" lon="-3.453394">
        <ele>577.2</ele>
        <time>1970-01-01T00:13:47.000Z</time>
      </trkpt>
      <trkpt lat="40.344138" lon="-3.453401">
        <ele>577.4</ele>
        <time>1970-01-01T00:13:48.000Z</time>
      </trkpt>
      <trkpt lat="40.344069" lon="-3.453404">
        <ele>577.4</ele>
        <time>1970-01-01T00:13:49.000Z</time>
      </trkpt>
      <trkpt lat="40.344001" lon="-3.453405">
        <ele>577.4</ele>
        <time>1970-01-01T00:13:50.000Z</time>
      </trkpt>
      <trkpt lat="40.343931" lon="-3.453409">
        <ele>577.4</ele>
        <time>1970-01-01T00:13:51.000Z</time>
      </trkpt>
      <trkpt lat="40.343863" lon="-3.453416">
        <ele>577.4</ele>
        <time>1970-01-01T00:13:52.000Z</time>
      </trkpt>
      <trkpt lat="40.343794" lon="-3.453426">
        <ele>577.4</ele>
        <time>1970-01-01T00:13:53.000Z</time>
      </trkpt>
      <trkpt lat="40.343726" lon="-3.45343">
        <ele>577.4</ele>
        <time>1970-01-01T00:13:54.000Z</time>
      </trkpt>
      <trkpt lat="40.34366" lon="-3.453428">
        <ele>577.6</ele>
        <time>1970-01-01T00:13:55.000Z</time>
      </trkpt>
      <trkpt lat="40.343596" lon="-3.453427">
        <ele>577.6</ele>
        <time>1970-01-01T00:13:56.000Z</time>
      </trkpt>
      <trkpt lat="40.343536" lon="-3.453428">
        <ele>577.6</ele>
        <time>1970-01-01T00:13:57.000Z</time>
      </trkpt>
      <trkpt lat="40.343475" lon="-3.45343">
        <ele>577.8</ele>
        <time>1970-01-01T00:13:58.000Z</time>
      </trkpt>
      <trkpt lat="40.343414" lon="-3.453431">
        <ele>577.8</ele>
        <time>1970-01-01T00:13:59.000Z</time>
      </trkpt>
      <trkpt lat="40.343352" lon="-3.453427">
        <ele>577.8</ele>
        <time>1970-01-01T00:14:00.000Z</time>
      </trkpt>
      <trkpt lat="40.343285" lon="-3.453419">
        <ele>577.8</ele>
        <time>1970-01-01T00:14:01.000Z</time>
      </trkpt>
      <trkpt lat="40.343216" lon="-3.453401">
        <ele>578</ele>
        <time>1970-01-01T00:14:02.000Z</time>
      </trkpt>
      <trkpt lat="40.343144" lon="-3.453372">
        <ele>578</ele>
        <time>1970-01-01T00:14:03.000Z</time>
      </trkpt>
      <trkpt lat="40.343069" lon="-3.453343">
        <ele>578</ele>
        <time>1970-01-01T00:14:04.000Z</time>
      </trkpt>
      <trkpt lat="40.342997" lon="-3.453318">
        <ele>577.8</ele>
        <time>1970-01-01T00:14:05.000Z</time>
      </trkpt>
      <trkpt lat="40.342924" lon="-3.453306">
        <ele>577.8</ele>
        <time>1970-01-01T00:14:06.000Z</time>
      </trkpt>
      <trkpt lat="40.34285" lon="-3.453306">
        <ele>577.8</ele>
        <time>1970-01-01T00:14:07.000Z</time>
      </trkpt>
      <trkpt lat="40.342776" lon="-3.453305">
        <ele>577.8</ele>
        <time>1970-01-01T00:14:08.000Z</time>
      </trkpt>
      <trkpt lat="40.342705" lon="-3.453301">
        <ele>577.8</ele>
        <time>1970-01-01T00:14:09.000Z</time>
      </trkpt>
      <trkpt lat="40.342634" lon="-3.453295">
        <ele>577.6</ele>
        <time>1970-01-01T00:14:10.000Z</time>
      </trkpt>
      <trkpt lat="40.342564" lon="-3.453283">
        <ele>577.6</ele>
        <time>1970-01-01T00:14:11.000Z</time>
      </trkpt>
      <trkpt lat="40.342495" lon="-3.453269">
        <ele>577.4</ele>
        <time>1970-01-01T00:14:12.000Z</time>
      </trkpt>
      <trkpt lat="40.342427" lon="-3.453254">
        <ele>577.4</ele>
        <time>1970-01-01T00:14:13.000Z</time>
      </trkpt>
      <trkpt lat="40.342359" lon="-3.453239">
        <ele>577.4</ele>
        <time>1970-01-01T00:14:14.000Z</time>
      </trkpt>
      <trkpt lat="40.342292" lon="-3.453225">
        <ele>577.4</ele>
        <time>1970-01-01T00:14:15.000Z</time>
      </trkpt>
      <trkpt lat="40.342228" lon="-3.453208">
        <ele>577.4</ele>
        <time>1970-01-01T00:14:16.000Z</time>
      </trkpt>
      <trkpt lat="40.342163" lon="-3.453195">
        <ele>577.6</ele>
        <time>1970-01-01T00:14:17.000Z</time>
      </trkpt>
      <trkpt lat="40.342098" lon="-3.45318">
        <ele>577.6</ele>
        <time>1970-01-01T00:14:18.000Z</time>
      </trkpt>
      <trkpt lat="40.342034" lon="-3.453164">
        <ele>577.8</ele>
        <time>1970-01-01T00:14:19.000Z</time>
      </trkpt>
      <trkpt lat="40.341971" lon="-3.453145">
        <ele>578</ele>
        <time>1970-01-01T00:14:20.000Z</time>
      </trkpt>
      <trkpt lat="40.341907" lon="-3.453124">
        <ele>578.4</ele>
        <time>1970-01-01T00:14:21.000Z</time>
      </trkpt>
      <trkpt lat="40.341843" lon="-3.453101">
        <ele>578.4</ele>
        <time>1970-01-01T00:14:22.000Z</time>
      </trkpt>
      <trkpt lat="40.341781" lon="-3.453073">
        <ele>578.6</ele>
        <time>1970-01-01T00:14:23.000Z</time>
      </trkpt>
      <trkpt lat="40.34172" lon="-3.453041">
        <ele>578.6</ele>
        <time>1970-01-01T00:14:24.000Z</time>
      </trkpt>
      <trkpt lat="40.34166" lon="-3.453005">
        <ele>578.6</ele>
        <time>1970-01-01T00:14:25.000Z</time>
      </trkpt>
      <trkpt lat="40.341599" lon="-3.452969">
        <ele>578.8</ele>
        <time>1970-01-01T00:14:26.000Z</time>
      </trkpt>
      <trkpt lat="40.341534" lon="-3.452932">
        <ele>578.8</ele>
        <time>1970-01-01T00:14:27.000Z</time>
      </trkpt>
      <trkpt lat="40.341466" lon="-3.452897">
        <ele>578.8</ele>
        <time>1970-01-01T00:14:28.000Z</time>
      </trkpt>
      <trkpt lat="40.341392" lon="-3.452867">
        <ele>578.8</ele>
        <time>1970-01-01T00:14:29.000Z</time>
      </trkpt>
      <trkpt lat="40.341315" lon="-3.452839">
        <ele>578.8</ele>
        <time>1970-01-01T00:14:30.000Z</time>
      </trkpt>
      <trkpt lat="40.34124" lon="-3.452816">
        <ele>578.8</ele>
        <time>1970-01-01T00:14:31.000Z</time>
      </trkpt>
      <trkpt lat="40.341166" lon="-3.452795">
        <ele>578.8</ele>
        <time>1970-01-01T00:14:32.000Z</time>
      </trkpt>
      <trkpt lat="40.341094" lon="-3.45277">
        <ele>578.8</ele>
        <time>1970-01-01T00:14:33.000Z</time>
      </trkpt>
      <trkpt lat="40.341023" lon="-3.452746">
        <ele>578.8</ele>
        <time>1970-01-01T00:14:34.000Z</time>
      </trkpt>
      <trkpt lat="40.34095" lon="-3.452731">
        <ele>578.4</ele>
        <time>1970-01-01T00:14:35.000Z</time>
      </trkpt>
      <trkpt lat="40.340878" lon="-3.452723">
        <ele>578.4</ele>
        <time>1970-01-01T00:14:36.000Z</time>
      </trkpt>
      <trkpt lat="40.340805" lon="-3.452722">
        <ele>578</ele>
        <time>1970-01-01T00:14:37.000Z</time>
      </trkpt>
      <trkpt lat="40.340735" lon="-3.452722">
        <ele>578</ele>
        <time>1970-01-01T00:14:38.000Z</time>
      </trkpt>
      <trkpt lat="40.340668" lon="-3.452722">
        <ele>578</ele>
        <time>1970-01-01T00:14:39.000Z</time>
      </trkpt>
      <trkpt lat="40.340602" lon="-3.45272">
        <ele>578</ele>
        <time>1970-01-01T00:14:40.000Z</time>
      </trkpt>
      <trkpt lat="40.340536" lon="-3.452721">
        <ele>578</ele>
        <time>1970-01-01T00:14:41.000Z</time>
      </trkpt>
      <trkpt lat="40.340473" lon="-3.452718">
        <ele>578</ele>
        <time>1970-01-01T00:14:42.000Z</time>
      </trkpt>
      <trkpt lat="40.340412" lon="-3.452714">
        <ele>578</ele>
        <time>1970-01-01T00:14:43.000Z</time>
      </trkpt>
      <trkpt lat="40.340349" lon="-3.452709">
        <ele>578</ele>
        <time>1970-01-01T00:14:44.000Z</time>
      </trkpt>
      <trkpt lat="40.340288" lon="-3.452704">
        <ele>578.2</ele>
        <time>1970-01-01T00:14:45.000Z</time>
      </trkpt>
      <trkpt lat="40.340224" lon="-3.452701">
        <ele>578.4</ele>
        <time>1970-01-01T00:14:46.000Z</time>
      </trkpt>
      <trkpt lat="40.340158" lon="-3.452698">
        <ele>578.4</ele>
        <time>1970-01-01T00:14:47.000Z</time>
      </trkpt>
      <trkpt lat="40.34009" lon="-3.452699">
        <ele>578.6</ele>
        <time>1970-01-01T00:14:48.000Z</time>
      </trkpt>
      <trkpt lat="40.340023" lon="-3.452699">
        <ele>578.8</ele>
        <time>1970-01-01T00:14:49.000Z</time>
      </trkpt>
      <trkpt lat="40.339955" lon="-3.452698">
        <ele>579</ele>
        <time>1970-01-01T00:14:50.000Z</time>
      </trkpt>
      <trkpt lat="40.339885" lon="-3.452703">
        <ele>579.2</ele>
        <time>1970-01-01T00:14:51.000Z</time>
      </trkpt>
      <trkpt lat="40.339816" lon="-3.452708">
        <ele>579.4</ele>
        <time>1970-01-01T00:14:52.000Z</time>
      </trkpt>
      <trkpt lat="40.339747" lon="-3.452712">
        <ele>579.6</ele>
        <time>1970-01-01T00:14:53.000Z</time>
      </trkpt>
      <trkpt lat="40.339679" lon="-3.452719">
        <ele>579.6</ele>
        <time>1970-01-01T00:14:54.000Z</time>
      </trkpt>
      <trkpt lat="40.339609" lon="-3.45273">
        <ele>579.6</ele>
        <time>1970-01-01T00:14:55.000Z</time>
      </trkpt>
      <trkpt lat="40.33954" lon="-3.452745">
        <ele>579.6</ele>
        <time>1970-01-01T00:14:56.000Z</time>
      </trkpt>
      <trkpt lat="40.339472" lon="-3.45276">
        <ele>579.6</ele>
        <time>1970-01-01T00:14:57.000Z</time>
      </trkpt>
      <trkpt lat="40.339405" lon="-3.45277">
        <ele>579.8</ele>
        <time>1970-01-01T00:14:58.000Z</time>
      </trkpt>
      <trkpt lat="40.339342" lon="-3.45277">
        <ele>579.8</ele>
        <time>1970-01-01T00:14:59.000Z</time>
      </trkpt>
      <trkpt lat="40.339278" lon="-3.452762">
        <ele>579.8</ele>
        <time>1970-01-01T00:15:00.000Z</time>
      </trkpt>
      <trkpt lat="40.339217" lon="-3.452746">
        <ele>579.8</ele>
        <time>1970-01-01T00:15:01.000Z</time>
      </trkpt>
      <trkpt lat="40.339156" lon="-3.452726">
        <ele>580</ele>
        <time>1970-01-01T00:15:02.000Z</time>
      </trkpt>
      <trkpt lat="40.339096" lon="-3.452701">
        <ele>580</ele>
        <time>1970-01-01T00:15:03.000Z</time>
      </trkpt>
      <trkpt lat="40.339035" lon="-3.452672">
        <ele>580.4</ele>
        <time>1970-01-01T00:15:04.000Z</time>
      </trkpt>
      <trkpt lat="40.338973" lon="-3.452639">
        <ele>580.6</ele>
        <time>1970-01-01T00:15:05.000Z</time>
      </trkpt>
      <trkpt lat="40.338913" lon="-3.452601">
        <ele>580.8</ele>
        <time>1970-01-01T00:15:06.000Z</time>
      </trkpt>
      <trkpt lat="40.338855" lon="-3.45256">
        <ele>581</ele>
        <time>1970-01-01T00:15:07.000Z</time>
      </trkpt>
      <trkpt lat="40.3388" lon="-3.452515">
        <ele>581.2</ele>
        <time>1970-01-01T00:15:08.000Z</time>
      </trkpt>
      <trkpt lat="40.338746" lon="-3.45247">
        <ele>581.2</ele>
        <time>1970-01-01T00:15:09.000Z</time>
      </trkpt>
      <trkpt lat="40.338696" lon="-3.452423">
        <ele>581.4</ele>
        <time>1970-01-01T00:15:10.000Z</time>
      </trkpt>
      <trkpt lat="40.338646" lon="-3.452379">
        <ele>581.6</ele>
        <time>1970-01-01T00:15:11.000Z</time>
      </trkpt>
      <trkpt lat="40.338595" lon="-3.452341">
        <ele>581.6</ele>
        <time>1970-01-01T00:15:12.000Z</time>
      </trkpt>
      <trkpt lat="40.33854" lon="-3.452308">
        <ele>581.8</ele>
        <time>1970-01-01T00:15:13.000Z</time>
      </trkpt>
      <trkpt lat="40.338483" lon="-3.452274">
        <ele>582</ele>
        <time>1970-01-01T00:15:14.000Z</time>
      </trkpt>
      <trkpt lat="40.338425" lon="-3.452236">
        <ele>582.4</ele>
        <time>1970-01-01T00:15:15.000Z</time>
      </trkpt>
      <trkpt lat="40.338369" lon="-3.452196">
        <ele>582.4</ele>
        <time>1970-01-01T00:15:16.000Z</time>
      </trkpt>
      <trkpt lat="40.338313" lon="-3.452156">
        <ele>582.8</ele>
        <time>1970-01-01T00:15:17.000Z</time>
      </trkpt>
      <trkpt lat="40.338256" lon="-3.452118">
        <ele>582.8</ele>
        <time>1970-01-01T00:15:18.000Z</time>
      </trkpt>
      <trkpt lat="40.3382" lon="-3.452079">
        <ele>582.8</ele>
        <time>1970-01-01T00:15:19.000Z</time>
      </trkpt>
      <trkpt lat="40.338146" lon="-3.452036">
        <ele>582.8</ele>
        <time>1970-01-01T00:15:20.000Z</time>
      </trkpt>
      <trkpt lat="40.338093" lon="-3.451988">
        <ele>583</ele>
        <time>1970-01-01T00:15:21.000Z</time>
      </trkpt>
      <trkpt lat="40.338041" lon="-3.451935">
        <ele>583.2</ele>
        <time>1970-01-01T00:15:22.000Z</time>
      </trkpt>
      <trkpt lat="40.337985" lon="-3.451881">
        <ele>583.2</ele>
        <time>1970-01-01T00:15:23.000Z</time>
      </trkpt>
      <trkpt lat="40.337931" lon="-3.451826">
        <ele>583.2</ele>
        <time>1970-01-01T00:15:24.000Z</time>
      </trkpt>
      <trkpt lat="40.337875" lon="-3.451771">
        <ele>583.2</ele>
        <time>1970-01-01T00:15:25.000Z</time>
      </trkpt>
      <trkpt lat="40.337823" lon="-3.451711">
        <ele>583.2</ele>
        <time>1970-01-01T00:15:26.000Z</time>
      </trkpt>
      <trkpt lat="40.337772" lon="-3.45165">
        <ele>583.2</ele>
        <time>1970-01-01T00:15:27.000Z</time>
      </trkpt>
      <trkpt lat="40.337717" lon="-3.451595">
        <ele>583.2</ele>
        <time>1970-01-01T00:15:28.000Z</time>
      </trkpt>
      <trkpt lat="40.337654" lon="-3.451551">
        <ele>583</ele>
        <time>1970-01-01T00:15:29.000Z</time>
      </trkpt>
      <trkpt lat="40.33759" lon="-3.451512">
        <ele>583</ele>
        <time>1970-01-01T00:15:30.000Z</time>
      </trkpt>
      <trkpt lat="40.337526" lon="-3.451477">
        <ele>583</ele>
        <time>1970-01-01T00:15:31.000Z</time>
      </trkpt>
      <trkpt lat="40.337464" lon="-3.451438">
        <ele>583</ele>
        <time>1970-01-01T00:15:32.000Z</time>
      </trkpt>
      <trkpt lat="40.337402" lon="-3.451401">
        <ele>583.2</ele>
        <time>1970-01-01T00:15:33.000Z</time>
      </trkpt>
      <trkpt lat="40.337341" lon="-3.451364">
        <ele>583.2</ele>
        <time>1970-01-01T00:15:34.000Z</time>
      </trkpt>
      <trkpt lat="40.337282" lon="-3.451326">
        <ele>583.2</ele>
        <time>1970-01-01T00:15:35.000Z</time>
      </trkpt>
      <trkpt lat="40.337224" lon="-3.451289">
        <ele>583.2</ele>
        <time>1970-01-01T00:15:36.000Z</time>
      </trkpt>
      <trkpt lat="40.337166" lon="-3.451254">
        <ele>583.2</ele>
        <time>1970-01-01T00:15:37.000Z</time>
      </trkpt>
      <trkpt lat="40.337111" lon="-3.451218">
        <ele>583.2</ele>
        <time>1970-01-01T00:15:38.000Z</time>
      </trkpt>
      <trkpt lat="40.337056" lon="-3.451182">
        <ele>583.2</ele>
        <time>1970-01-01T00:15:39.000Z</time>
      </trkpt>
      <trkpt lat="40.336998" lon="-3.451149">
        <ele>583.4</ele>
        <time>1970-01-01T00:15:40.000Z</time>
      </trkpt>
      <trkpt lat="40.336941" lon="-3.451115">
        <ele>583.4</ele>
        <time>1970-01-01T00:15:41.000Z</time>
      </trkpt>
      <trkpt lat="40.336881" lon="-3.451084">
        <ele>583.6</ele>
        <time>1970-01-01T00:15:42.000Z</time>
      </trkpt>
      <trkpt lat="40.336818" lon="-3.451057">
        <ele>583.6</ele>
        <time>1970-01-01T00:15:43.000Z</time>
      </trkpt>
      <trkpt lat="40.336752" lon="-3.451036">
        <ele>583.6</ele>
        <time>1970-01-01T00:15:44.000Z</time>
      </trkpt>
      <trkpt lat="40.336682" lon="-3.45102">
        <ele>583.6</ele>
        <time>1970-01-01T00:15:45.000Z</time>
      </trkpt>
      <trkpt lat="40.336612" lon="-3.451004">
        <ele>583.6</ele>
        <time>1970-01-01T00:15:46.000Z</time>
      </trkpt>
      <trkpt lat="40.33654" lon="-3.450992">
        <ele>583.6</ele>
        <time>1970-01-01T00:15:47.000Z</time>
      </trkpt>
      <trkpt lat="40.336469" lon="-3.450983">
        <ele>583.6</ele>
        <time>1970-01-01T00:15:48.000Z</time>
      </trkpt>
      <trkpt lat="40.336397" lon="-3.450977">
        <ele>583.4</ele>
        <time>1970-01-01T00:15:49.000Z</time>
      </trkpt>
      <trkpt lat="40.336323" lon="-3.450974">
        <ele>583.4</ele>
        <time>1970-01-01T00:15:50.000Z</time>
      </trkpt>
      <trkpt lat="40.33625" lon="-3.450971">
        <ele>583.2</ele>
        <time>1970-01-01T00:15:51.000Z</time>
      </trkpt>
      <trkpt lat="40.336179" lon="-3.450966">
        <ele>583.2</ele>
        <time>1970-01-01T00:15:52.000Z</time>
      </trkpt>
      <trkpt lat="40.336107" lon="-3.450959">
        <ele>583.2</ele>
        <time>1970-01-01T00:15:53.000Z</time>
      </trkpt>
      <trkpt lat="40.336035" lon="-3.450948">
        <ele>583.2</ele>
        <time>1970-01-01T00:15:54.000Z</time>
      </trkpt>
      <trkpt lat="40.335963" lon="-3.450936">
        <ele>583</ele>
        <time>1970-01-01T00:15:55.000Z</time>
      </trkpt>
      <trkpt lat="40.335891" lon="-3.450928">
        <ele>583</ele>
        <time>1970-01-01T00:15:56.000Z</time>
      </trkpt>
      <trkpt lat="40.335821" lon="-3.450921">
        <ele>583</ele>
        <time>1970-01-01T00:15:57.000Z</time>
      </trkpt>
      <trkpt lat="40.335749" lon="-3.450923">
        <ele>583</ele>
        <time>1970-01-01T00:15:58.000Z</time>
      </trkpt>
      <trkpt lat="40.335676" lon="-3.450921">
        <ele>583</ele>
        <time>1970-01-01T00:15:59.000Z</time>
      </trkpt>
      <trkpt lat="40.335605" lon="-3.450912">
        <ele>583</ele>
        <time>1970-01-01T00:16:00.000Z</time>
      </trkpt>
      <trkpt lat="40.335533" lon="-3.450901">
        <ele>582.8</ele>
        <time>1970-01-01T00:16:01.000Z</time>
      </trkpt>
      <trkpt lat="40.335459" lon="-3.450892">
        <ele>582.8</ele>
        <time>1970-01-01T00:16:02.000Z</time>
      </trkpt>
      <trkpt lat="40.335387" lon="-3.450884">
        <ele>582.8</ele>
        <time>1970-01-01T00:16:03.000Z</time>
      </trkpt>
      <trkpt lat="40.335314" lon="-3.450874">
        <ele>582.8</ele>
        <time>1970-01-01T00:16:04.000Z</time>
      </trkpt>
      <trkpt lat="40.335243" lon="-3.450859">
        <ele>582.6</ele>
        <time>1970-01-01T00:16:05.000Z</time>
      </trkpt>
      <trkpt lat="40.335173" lon="-3.450836">
        <ele>582.6</ele>
        <time>1970-01-01T00:16:06.000Z</time>
      </trkpt>
      <trkpt lat="40.335103" lon="-3.450813">
        <ele>582.6</ele>
        <time>1970-01-01T00:16:07.000Z</time>
      </trkpt>
      <trkpt lat="40.335033" lon="-3.450797">
        <ele>582.6</ele>
        <time>1970-01-01T00:16:08.000Z</time>
      </trkpt>
      <trkpt lat="40.334962" lon="-3.450788">
        <ele>582.6</ele>
        <time>1970-01-01T00:16:09.000Z</time>
      </trkpt>
      <trkpt lat="40.334889" lon="-3.450788">
        <ele>582.6</ele>
        <time>1970-01-01T00:16:10.000Z</time>
      </trkpt>
      <trkpt lat="40.33482" lon="-3.450791">
        <ele>582.6</ele>
        <time>1970-01-01T00:16:11.000Z</time>
      </trkpt>
      <trkpt lat="40.33475" lon="-3.450792">
        <ele>582.6</ele>
        <time>1970-01-01T00:16:12.000Z</time>
      </trkpt>
      <trkpt lat="40.33468" lon="-3.45079">
        <ele>582.6</ele>
        <time>1970-01-01T00:16:13.000Z</time>
      </trkpt>
      <trkpt lat="40.334612" lon="-3.450785">
        <ele>582.6</ele>
        <time>1970-01-01T00:16:14.000Z</time>
      </trkpt>
      <trkpt lat="40.334543" lon="-3.450778">
        <ele>582.4</ele>
        <time>1970-01-01T00:16:15.000Z</time>
      </trkpt>
      <trkpt lat="40.334474" lon="-3.450768">
        <ele>582.4</ele>
        <time>1970-01-01T00:16:16.000Z</time>
      </trkpt>
      <trkpt lat="40.334405" lon="-3.450755">
        <ele>582.4</ele>
        <time>1970-01-01T00:16:17.000Z</time>
      </trkpt>
      <trkpt lat="40.334334" lon="-3.45074">
        <ele>582.2</ele>
        <time>1970-01-01T00:16:18.000Z</time>
      </trkpt>
      <trkpt lat="40.334263" lon="-3.450721">
        <ele>582.2</ele>
        <time>1970-01-01T00:16:19.000Z</time>
      </trkpt>
      <trkpt lat="40.334192" lon="-3.450702">
        <ele>582.2</ele>
        <time>1970-01-01T00:16:20.000Z</time>
      </trkpt>
      <trkpt lat="40.334118" lon="-3.450684">
        <ele>582</ele>
        <time>1970-01-01T00:16:21.000Z</time>
      </trkpt>
      <trkpt lat="40.334043" lon="-3.450666">
        <ele>582</ele>
        <time>1970-01-01T00:16:22.000Z</time>
      </trkpt>
      <trkpt lat="40.333969" lon="-3.450645">
        <ele>582</ele>
        <time>1970-01-01T00:16:23.000Z</time>
      </trkpt>
      <trkpt lat="40.333898" lon="-3.450621">
        <ele>581.6</ele>
        <time>1970-01-01T00:16:24.000Z</time>
      </trkpt>
      <trkpt lat="40.333825" lon="-3.450599">
        <ele>581.6</ele>
        <time>1970-01-01T00:16:25.000Z</time>
      </trkpt>
      <trkpt lat="40.333751" lon="-3.450577">
        <ele>581.4</ele>
        <time>1970-01-01T00:16:26.000Z</time>
      </trkpt>
      <trkpt lat="40.333679" lon="-3.450554">
        <ele>581.4</ele>
        <time>1970-01-01T00:16:27.000Z</time>
      </trkpt>
      <trkpt lat="40.333608" lon="-3.450534">
        <ele>581.4</ele>
        <time>1970-01-01T00:16:28.000Z</time>
      </trkpt>
      <trkpt lat="40.333537" lon="-3.450514">
        <ele>581.4</ele>
        <time>1970-01-01T00:16:29.000Z</time>
      </trkpt>
      <trkpt lat="40.333468" lon="-3.450491">
        <ele>581.4</ele>
        <time>1970-01-01T00:16:30.000Z</time>
      </trkpt>
      <trkpt lat="40.333396" lon="-3.450472">
        <ele>581.2</ele>
        <time>1970-01-01T00:16:31.000Z</time>
      </trkpt>
      <trkpt lat="40.333326" lon="-3.450452">
        <ele>581.2</ele>
        <time>1970-01-01T00:16:32.000Z</time>
      </trkpt>
      <trkpt lat="40.333256" lon="-3.450428">
        <ele>581.2</ele>
        <time>1970-01-01T00:16:33.000Z</time>
      </trkpt>
      <trkpt lat="40.333184" lon="-3.450404">
        <ele>581.2</ele>
        <time>1970-01-01T00:16:34.000Z</time>
      </trkpt>
      <trkpt lat="40.333097" lon="-3.450374">
        <ele>581.2</ele>
        <time>1970-01-01T00:16:35.000Z</time>
      </trkpt>
      <trkpt lat="40.33304" lon="-3.450354">
        <ele>581.2</ele>
        <time>1970-01-01T00:16:36.000Z</time>
      </trkpt>
      <trkpt lat="40.332967" lon="-3.450329">
        <ele>581.2</ele>
        <time>1970-01-01T00:16:37.000Z</time>
      </trkpt>
      <trkpt lat="40.332894" lon="-3.450303">
        <ele>581</ele>
        <time>1970-01-01T00:16:38.000Z</time>
      </trkpt>
      <trkpt lat="40.33282" lon="-3.450277">
        <ele>581</ele>
        <time>1970-01-01T00:16:39.000Z</time>
      </trkpt>
      <trkpt lat="40.332747" lon="-3.450249">
        <ele>581</ele>
        <time>1970-01-01T00:16:40.000Z</time>
      </trkpt>
      <trkpt lat="40.332674" lon="-3.450221">
        <ele>581</ele>
        <time>1970-01-01T00:16:41.000Z</time>
      </trkpt>
      <trkpt lat="40.332601" lon="-3.450193">
        <ele>580.8</ele>
        <time>1970-01-01T00:16:42.000Z</time>
      </trkpt>
      <trkpt lat="40.332531" lon="-3.450164">
        <ele>580.8</ele>
        <time>1970-01-01T00:16:43.000Z</time>
      </trkpt>
      <trkpt lat="40.33246" lon="-3.450134">
        <ele>580.8</ele>
        <time>1970-01-01T00:16:44.000Z</time>
      </trkpt>
      <trkpt lat="40.332392" lon="-3.450106">
        <ele>580.8</ele>
        <time>1970-01-01T00:16:45.000Z</time>
      </trkpt>
      <trkpt lat="40.332327" lon="-3.450081">
        <ele>580.6</ele>
        <time>1970-01-01T00:16:46.000Z</time>
      </trkpt>
      <trkpt lat="40.332264" lon="-3.450053">
        <ele>580.6</ele>
        <time>1970-01-01T00:16:47.000Z</time>
      </trkpt>
      <trkpt lat="40.332203" lon="-3.450025">
        <ele>580.6</ele>
        <time>1970-01-01T00:16:48.000Z</time>
      </trkpt>
      <trkpt lat="40.332144" lon="-3.449998">
        <ele>580.6</ele>
        <time>1970-01-01T00:16:49.000Z</time>
      </trkpt>
      <trkpt lat="40.33209" lon="-3.449972">
        <ele>580.6</ele>
        <time>1970-01-01T00:16:50.000Z</time>
      </trkpt>
      <trkpt lat="40.332039" lon="-3.449947">
        <ele>580.8</ele>
        <time>1970-01-01T00:16:51.000Z</time>
      </trkpt>
      <trkpt lat="40.331988" lon="-3.449922">
        <ele>581</ele>
        <time>1970-01-01T00:16:52.000Z</time>
      </trkpt>
      <trkpt lat="40.331941" lon="-3.449899">
        <ele>581</ele>
        <time>1970-01-01T00:16:53.000Z</time>
      </trkpt>
      <trkpt lat="40.331897" lon="-3.449872">
        <ele>581.2</ele>
        <time>1970-01-01T00:16:54.000Z</time>
      </trkpt>
      <trkpt lat="40.331856" lon="-3.449846">
        <ele>581.2</ele>
        <time>1970-01-01T00:16:55.000Z</time>
      </trkpt>
      <trkpt lat="40.331818" lon="-3.449822">
        <ele>581.6</ele>
        <time>1970-01-01T00:16:56.000Z</time>
      </trkpt>
      <trkpt lat="40.331782" lon="-3.449797">
        <ele>581.6</ele>
        <time>1970-01-01T00:16:57.000Z</time>
      </trkpt>
      <trkpt lat="40.331748" lon="-3.44977">
        <ele>582.2</ele>
        <time>1970-01-01T00:16:58.000Z</time>
      </trkpt>
      <trkpt lat="40.331714" lon="-3.449746">
        <ele>582.4</ele>
        <time>1970-01-01T00:16:59.000Z</time>
      </trkpt>
      <trkpt lat="40.331679" lon="-3.449724">
        <ele>582.8</ele>
        <time>1970-01-01T00:17:00.000Z</time>
      </trkpt>
      <trkpt lat="40.331643" lon="-3.4497">
        <ele>583</ele>
        <time>1970-01-01T00:17:01.000Z</time>
      </trkpt>
      <trkpt lat="40.33161" lon="-3.449677">
        <ele>583.4</ele>
        <time>1970-01-01T00:17:02.000Z</time>
      </trkpt>
      <trkpt lat="40.331577" lon="-3.449653">
        <ele>583.6</ele>
        <time>1970-01-01T00:17:03.000Z</time>
      </trkpt>
      <trkpt lat="40.331544" lon="-3.449632">
        <ele>584</ele>
        <time>1970-01-01T00:17:04.000Z</time>
      </trkpt>
      <trkpt lat="40.331512" lon="-3.449608">
        <ele>584.4</ele>
        <time>1970-01-01T00:17:05.000Z</time>
      </trkpt>
      <trkpt lat="40.331472" lon="-3.449579">
        <ele>584.6</ele>
        <time>1970-01-01T00:17:06.000Z</time>
      </trkpt>
      <trkpt lat="40.331446" lon="-3.449556">
        <ele>585</ele>
        <time>1970-01-01T00:17:07.000Z</time>
      </trkpt>
      <trkpt lat="40.331414" lon="-3.449527">
        <ele>585</ele>
        <time>1970-01-01T00:17:08.000Z</time>
      </trkpt>
      <trkpt lat="40.331383" lon="-3.449496">
        <ele>585.2</ele>
        <time>1970-01-01T00:17:09.000Z</time>
      </trkpt>
      <trkpt lat="40.331351" lon="-3.449463">
        <ele>585.4</ele>
        <time>1970-01-01T00:17:10.000Z</time>
      </trkpt>
      <trkpt lat="40.331321" lon="-3.449432">
        <ele>585.6</ele>
        <time>1970-01-01T00:17:11.000Z</time>
      </trkpt>
      <trkpt lat="40.331283" lon="-3.449402">
        <ele>585.8</ele>
        <time>1970-01-01T00:17:12.000Z</time>
      </trkpt>
      <trkpt lat="40.331257" lon="-3.449382">
        <ele>586.2</ele>
        <time>1970-01-01T00:17:13.000Z</time>
      </trkpt>
      <trkpt lat="40.331225" lon="-3.449356">
        <ele>586.6</ele>
        <time>1970-01-01T00:17:14.000Z</time>
      </trkpt>
      <trkpt lat="40.331197" lon="-3.449328">
        <ele>587</ele>
        <time>1970-01-01T00:17:15.000Z</time>
      </trkpt>
      <trkpt lat="40.331162" lon="-3.449293">
        <ele>587.4</ele>
        <time>1970-01-01T00:17:16.000Z</time>
      </trkpt>
      <trkpt lat="40.331138" lon="-3.449266">
        <ele>587.6</ele>
        <time>1970-01-01T00:17:17.000Z</time>
      </trkpt>
      <trkpt lat="40.331102" lon="-3.449243">
        <ele>587.8</ele>
        <time>1970-01-01T00:17:18.000Z</time>
      </trkpt>
      <trkpt lat="40.331062" lon="-3.449224">
        <ele>588</ele>
        <time>1970-01-01T00:17:19.000Z</time>
      </trkpt>
      <trkpt lat="40.331019" lon="-3.449211">
        <ele>588.8</ele>
        <time>1970-01-01T00:17:20.000Z</time>
      </trkpt>
      <trkpt lat="40.330971" lon="-3.4492">
        <ele>589</ele>
        <time>1970-01-01T00:17:21.000Z</time>
      </trkpt>
      <trkpt lat="40.33092" lon="-3.449192">
        <ele>589.2</ele>
        <time>1970-01-01T00:17:22.000Z</time>
      </trkpt>
      <trkpt lat="40.330866" lon="-3.449184">
        <ele>589.4</ele>
        <time>1970-01-01T00:17:23.000Z</time>
      </trkpt>
      <trkpt lat="40.330808" lon="-3.449172">
        <ele>589.4</ele>
        <time>1970-01-01T00:17:24.000Z</time>
      </trkpt>
      <trkpt lat="40.330733" lon="-3.449153">
        <ele>589.4</ele>
        <time>1970-01-01T00:17:25.000Z</time>
      </trkpt>
      <trkpt lat="40.330681" lon="-3.449138">
        <ele>589.4</ele>
        <time>1970-01-01T00:17:26.000Z</time>
      </trkpt>
      <trkpt lat="40.330613" lon="-3.449116">
        <ele>589.4</ele>
        <time>1970-01-01T00:17:27.000Z</time>
      </trkpt>
      <trkpt lat="40.330541" lon="-3.449089">
        <ele>589.4</ele>
        <time>1970-01-01T00:17:28.000Z</time>
      </trkpt>
      <trkpt lat="40.330466" lon="-3.44906">
        <ele>589.2</ele>
        <time>1970-01-01T00:17:29.000Z</time>
      </trkpt>
      <trkpt lat="40.330388" lon="-3.449029">
        <ele>589</ele>
        <time>1970-01-01T00:17:30.000Z</time>
      </trkpt>
      <trkpt lat="40.330306" lon="-3.448997">
        <ele>588.8</ele>
        <time>1970-01-01T00:17:31.000Z</time>
      </trkpt>
      <trkpt lat="40.330221" lon="-3.448959">
        <ele>588.6</ele>
        <time>1970-01-01T00:17:32.000Z</time>
      </trkpt>
      <trkpt lat="40.330137" lon="-3.448921">
        <ele>588</ele>
        <time>1970-01-01T00:17:33.000Z</time>
      </trkpt>
      <trkpt lat="40.330053" lon="-3.448882">
        <ele>587.4</ele>
        <time>1970-01-01T00:17:34.000Z</time>
      </trkpt>
      <trkpt lat="40.32997" lon="-3.448843">
        <ele>587.2</ele>
        <time>1970-01-01T00:17:35.000Z</time>
      </trkpt>
      <trkpt lat="40.329889" lon="-3.448806">
        <ele>586.4</ele>
        <time>1970-01-01T00:17:36.000Z</time>
      </trkpt>
      <trkpt lat="40.329811" lon="-3.448769">
        <ele>586.2</ele>
        <time>1970-01-01T00:17:37.000Z</time>
      </trkpt>
      <trkpt lat="40.329737" lon="-3.448729">
        <ele>585.6</ele>
        <time>1970-01-01T00:17:38.000Z</time>
      </trkpt>
      <trkpt lat="40.329661" lon="-3.448691">
        <ele>585.2</ele>
        <time>1970-01-01T00:17:39.000Z</time>
      </trkpt>
      <trkpt lat="40.329587" lon="-3.448653">
        <ele>585</ele>
        <time>1970-01-01T00:17:40.000Z</time>
      </trkpt>
      <trkpt lat="40.329517" lon="-3.44861">
        <ele>584.8</ele>
        <time>1970-01-01T00:17:41.000Z</time>
      </trkpt>
      <trkpt lat="40.329446" lon="-3.44857">
        <ele>584.6</ele>
        <time>1970-01-01T00:17:42.000Z</time>
      </trkpt>
      <trkpt lat="40.329375" lon="-3.448531">
        <ele>584.6</ele>
        <time>1970-01-01T00:17:43.000Z</time>
      </trkpt>
      <trkpt lat="40.329294" lon="-3.448485">
        <ele>584.4</ele>
        <time>1970-01-01T00:17:44.000Z</time>
      </trkpt>
      <trkpt lat="40.32924" lon="-3.448454">
        <ele>584.4</ele>
        <time>1970-01-01T00:17:45.000Z</time>
      </trkpt>
      <trkpt lat="40.329178" lon="-3.448414">
        <ele>584.2</ele>
        <time>1970-01-01T00:17:46.000Z</time>
      </trkpt>
      <trkpt lat="40.329115" lon="-3.448376">
        <ele>584.2</ele>
        <time>1970-01-01T00:17:47.000Z</time>
      </trkpt>
      <trkpt lat="40.329053" lon="-3.448338">
        <ele>584.2</ele>
        <time>1970-01-01T00:17:48.000Z</time>
      </trkpt>
      <trkpt lat="40.32899" lon="-3.4483">
        <ele>584.2</ele>
        <time>1970-01-01T00:17:49.000Z</time>
      </trkpt>
      <trkpt lat="40.328929" lon="-3.448262">
        <ele>584.2</ele>
        <time>1970-01-01T00:17:50.000Z</time>
      </trkpt>
      <trkpt lat="40.328869" lon="-3.448225">
        <ele>584.2</ele>
        <time>1970-01-01T00:17:51.000Z</time>
      </trkpt>
      <trkpt lat="40.328806" lon="-3.44819">
        <ele>584.2</ele>
        <time>1970-01-01T00:17:52.000Z</time>
      </trkpt>
      <trkpt lat="40.328744" lon="-3.448157">
        <ele>584.2</ele>
        <time>1970-01-01T00:17:53.000Z</time>
      </trkpt>
      <trkpt lat="40.328683" lon="-3.448122">
        <ele>584.2</ele>
        <time>1970-01-01T00:17:54.000Z</time>
      </trkpt>
      <trkpt lat="40.328622" lon="-3.448086">
        <ele>584.2</ele>
        <time>1970-01-01T00:17:55.000Z</time>
      </trkpt>
      <trkpt lat="40.328561" lon="-3.44805">
        <ele>584.2</ele>
        <time>1970-01-01T00:17:56.000Z</time>
      </trkpt>
      <trkpt lat="40.328492" lon="-3.448003">
        <ele>584.2</ele>
        <time>1970-01-01T00:17:57.000Z</time>
      </trkpt>
      <trkpt lat="40.328449" lon="-3.447971">
        <ele>584.4</ele>
        <time>1970-01-01T00:17:58.000Z</time>
      </trkpt>
      <trkpt lat="40.328394" lon="-3.447933">
        <ele>584.4</ele>
        <time>1970-01-01T00:17:59.000Z</time>
      </trkpt>
      <trkpt lat="40.328339" lon="-3.447896">
        <ele>584.4</ele>
        <time>1970-01-01T00:18:00.000Z</time>
      </trkpt>
      <trkpt lat="40.328282" lon="-3.447863">
        <ele>584.4</ele>
        <time>1970-01-01T00:18:01.000Z</time>
      </trkpt>
      <trkpt lat="40.328213" lon="-3.447825">
        <ele>584.6</ele>
        <time>1970-01-01T00:18:02.000Z</time>
      </trkpt>
      <trkpt lat="40.328165" lon="-3.447801">
        <ele>584.8</ele>
        <time>1970-01-01T00:18:03.000Z</time>
      </trkpt>
      <trkpt lat="40.328105" lon="-3.447771">
        <ele>584.8</ele>
        <time>1970-01-01T00:18:04.000Z</time>
      </trkpt>
      <trkpt lat="40.328045" lon="-3.447743">
        <ele>585</ele>
        <time>1970-01-01T00:18:05.000Z</time>
      </trkpt>
      <trkpt lat="40.327981" lon="-3.447718">
        <ele>585</ele>
        <time>1970-01-01T00:18:06.000Z</time>
      </trkpt>
      <trkpt lat="40.327917" lon="-3.447693">
        <ele>585.2</ele>
        <time>1970-01-01T00:18:07.000Z</time>
      </trkpt>
      <trkpt lat="40.327852" lon="-3.447668">
        <ele>585.2</ele>
        <time>1970-01-01T00:18:08.000Z</time>
      </trkpt>
      <trkpt lat="40.327789" lon="-3.447643">
        <ele>585.2</ele>
        <time>1970-01-01T00:18:09.000Z</time>
      </trkpt>
      <trkpt lat="40.327727" lon="-3.447616">
        <ele>585.2</ele>
        <time>1970-01-01T00:18:10.000Z</time>
      </trkpt>
      <trkpt lat="40.327663" lon="-3.44759">
        <ele>585.4</ele>
        <time>1970-01-01T00:18:11.000Z</time>
      </trkpt>
      <trkpt lat="40.327598" lon="-3.447563">
        <ele>585.4</ele>
        <time>1970-01-01T00:18:12.000Z</time>
      </trkpt>
      <trkpt lat="40.327531" lon="-3.447537">
        <ele>585.6</ele>
        <time>1970-01-01T00:18:13.000Z</time>
      </trkpt>
      <trkpt lat="40.327464" lon="-3.447511">
        <ele>585.8</ele>
        <time>1970-01-01T00:18:14.000Z</time>
      </trkpt>
      <trkpt lat="40.327397" lon="-3.447484">
        <ele>585.8</ele>
        <time>1970-01-01T00:18:15.000Z</time>
      </trkpt>
      <trkpt lat="40.327329" lon="-3.447457">
        <ele>585.8</ele>
        <time>1970-01-01T00:18:16.000Z</time>
      </trkpt>
      <trkpt lat="40.327261" lon="-3.447433">
        <ele>586</ele>
        <time>1970-01-01T00:18:17.000Z</time>
      </trkpt>
      <trkpt lat="40.327191" lon="-3.447414">
        <ele>586</ele>
        <time>1970-01-01T00:18:18.000Z</time>
      </trkpt>
      <trkpt lat="40.327121" lon="-3.447395">
        <ele>586</ele>
        <time>1970-01-01T00:18:19.000Z</time>
      </trkpt>
      <trkpt lat="40.327051" lon="-3.447379">
        <ele>586</ele>
        <time>1970-01-01T00:18:20.000Z</time>
      </trkpt>
      <trkpt lat="40.326981" lon="-3.447365">
        <ele>586</ele>
        <time>1970-01-01T00:18:21.000Z</time>
      </trkpt>
      <trkpt lat="40.32691" lon="-3.447352">
        <ele>586</ele>
        <time>1970-01-01T00:18:22.000Z</time>
      </trkpt>
      <trkpt lat="40.326842" lon="-3.447336">
        <ele>586</ele>
        <time>1970-01-01T00:18:23.000Z</time>
      </trkpt>
      <trkpt lat="40.326772" lon="-3.447322">
        <ele>586</ele>
        <time>1970-01-01T00:18:24.000Z</time>
      </trkpt>
      <trkpt lat="40.326702" lon="-3.447309">
        <ele>586</ele>
        <time>1970-01-01T00:18:25.000Z</time>
      </trkpt>
      <trkpt lat="40.32663" lon="-3.447296">
        <ele>586</ele>
        <time>1970-01-01T00:18:26.000Z</time>
      </trkpt>
      <trkpt lat="40.326558" lon="-3.447286">
        <ele>586</ele>
        <time>1970-01-01T00:18:27.000Z</time>
      </trkpt>
      <trkpt lat="40.326487" lon="-3.447276">
        <ele>586</ele>
        <time>1970-01-01T00:18:28.000Z</time>
      </trkpt>
      <trkpt lat="40.326415" lon="-3.447265">
        <ele>586</ele>
        <time>1970-01-01T00:18:29.000Z</time>
      </trkpt>
      <trkpt lat="40.326343" lon="-3.447255">
        <ele>586</ele>
        <time>1970-01-01T00:18:30.000Z</time>
      </trkpt>
      <trkpt lat="40.32627" lon="-3.447243">
        <ele>586</ele>
        <time>1970-01-01T00:18:31.000Z</time>
      </trkpt>
      <trkpt lat="40.326201" lon="-3.447231">
        <ele>586</ele>
        <time>1970-01-01T00:18:32.000Z</time>
      </trkpt>
      <trkpt lat="40.326133" lon="-3.447218">
        <ele>586.2</ele>
        <time>1970-01-01T00:18:33.000Z</time>
      </trkpt>
      <trkpt lat="40.326065" lon="-3.447203">
        <ele>586.2</ele>
        <time>1970-01-01T00:18:34.000Z</time>
      </trkpt>
      <trkpt lat="40.326001" lon="-3.447183">
        <ele>586.2</ele>
        <time>1970-01-01T00:18:35.000Z</time>
      </trkpt>
      <trkpt lat="40.325936" lon="-3.447159">
        <ele>586.2</ele>
        <time>1970-01-01T00:18:36.000Z</time>
      </trkpt>
      <trkpt lat="40.325871" lon="-3.447134">
        <ele>586.2</ele>
        <time>1970-01-01T00:18:37.000Z</time>
      </trkpt>
      <trkpt lat="40.325806" lon="-3.447106">
        <ele>586.2</ele>
        <time>1970-01-01T00:18:38.000Z</time>
      </trkpt>
      <trkpt lat="40.325741" lon="-3.447078">
        <ele>586.2</ele>
        <time>1970-01-01T00:18:39.000Z</time>
      </trkpt>
      <trkpt lat="40.325676" lon="-3.447047">
        <ele>586.4</ele>
        <time>1970-01-01T00:18:40.000Z</time>
      </trkpt>
      <trkpt lat="40.325613" lon="-3.447017">
        <ele>586.4</ele>
        <time>1970-01-01T00:18:41.000Z</time>
      </trkpt>
      <trkpt lat="40.325549" lon="-3.446989">
        <ele>586.4</ele>
        <time>1970-01-01T00:18:42.000Z</time>
      </trkpt>
      <trkpt lat="40.325485" lon="-3.446959">
        <ele>586.4</ele>
        <time>1970-01-01T00:18:43.000Z</time>
      </trkpt>
      <trkpt lat="40.325423" lon="-3.446927">
        <ele>586.4</ele>
        <time>1970-01-01T00:18:44.000Z</time>
      </trkpt>
      <trkpt lat="40.325357" lon="-3.446898">
        <ele>586.4</ele>
        <time>1970-01-01T00:18:45.000Z</time>
      </trkpt>
      <trkpt lat="40.325293" lon="-3.446875">
        <ele>586.4</ele>
        <time>1970-01-01T00:18:46.000Z</time>
      </trkpt>
      <trkpt lat="40.325229" lon="-3.446852">
        <ele>586.4</ele>
        <time>1970-01-01T00:18:47.000Z</time>
      </trkpt>
      <trkpt lat="40.325164" lon="-3.44683">
        <ele>586.4</ele>
        <time>1970-01-01T00:18:48.000Z</time>
      </trkpt>
      <trkpt lat="40.325099" lon="-3.446809">
        <ele>586.4</ele>
        <time>1970-01-01T00:18:49.000Z</time>
      </trkpt>
      <trkpt lat="40.325034" lon="-3.446791">
        <ele>586.6</ele>
        <time>1970-01-01T00:18:50.000Z</time>
      </trkpt>
      <trkpt lat="40.324968" lon="-3.446769">
        <ele>586.6</ele>
        <time>1970-01-01T00:18:51.000Z</time>
      </trkpt>
      <trkpt lat="40.324904" lon="-3.446747">
        <ele>586.6</ele>
        <time>1970-01-01T00:18:52.000Z</time>
      </trkpt>
      <trkpt lat="40.32484" lon="-3.446727">
        <ele>586.6</ele>
        <time>1970-01-01T00:18:53.000Z</time>
      </trkpt>
      <trkpt lat="40.324775" lon="-3.446705">
        <ele>586.6</ele>
        <time>1970-01-01T00:18:54.000Z</time>
      </trkpt>
      <trkpt lat="40.32471" lon="-3.446686">
        <ele>586.6</ele>
        <time>1970-01-01T00:18:55.000Z</time>
      </trkpt>
      <trkpt lat="40.324646" lon="-3.446666">
        <ele>586.6</ele>
        <time>1970-01-01T00:18:56.000Z</time>
      </trkpt>
      <trkpt lat="40.324583" lon="-3.446641">
        <ele>586.6</ele>
        <time>1970-01-01T00:18:57.000Z</time>
      </trkpt>
      <trkpt lat="40.32452" lon="-3.446618">
        <ele>586.6</ele>
        <time>1970-01-01T00:18:58.000Z</time>
      </trkpt>
      <trkpt lat="40.324456" lon="-3.446593">
        <ele>586.8</ele>
        <time>1970-01-01T00:18:59.000Z</time>
      </trkpt>
      <trkpt lat="40.324393" lon="-3.44657">
        <ele>586.8</ele>
        <time>1970-01-01T00:19:00.000Z</time>
      </trkpt>
      <trkpt lat="40.324328" lon="-3.446548">
        <ele>586.8</ele>
        <time>1970-01-01T00:19:01.000Z</time>
      </trkpt>
      <trkpt lat="40.32426" lon="-3.446531">
        <ele>586.8</ele>
        <time>1970-01-01T00:19:02.000Z</time>
      </trkpt>
      <trkpt lat="40.324193" lon="-3.446519">
        <ele>586.8</ele>
        <time>1970-01-01T00:19:03.000Z</time>
      </trkpt>
      <trkpt lat="40.324125" lon="-3.446507">
        <ele>586.8</ele>
        <time>1970-01-01T00:19:04.000Z</time>
      </trkpt>
      <trkpt lat="40.324058" lon="-3.446495">
        <ele>586.8</ele>
        <time>1970-01-01T00:19:05.000Z</time>
      </trkpt>
      <trkpt lat="40.323992" lon="-3.446484">
        <ele>586.8</ele>
        <time>1970-01-01T00:19:06.000Z</time>
      </trkpt>
      <trkpt lat="40.323925" lon="-3.446472">
        <ele>586.8</ele>
        <time>1970-01-01T00:19:07.000Z</time>
      </trkpt>
      <trkpt lat="40.323859" lon="-3.44646">
        <ele>587</ele>
        <time>1970-01-01T00:19:08.000Z</time>
      </trkpt>
      <trkpt lat="40.323795" lon="-3.446445">
        <ele>587</ele>
        <time>1970-01-01T00:19:09.000Z</time>
      </trkpt>
      <trkpt lat="40.323732" lon="-3.446428">
        <ele>587</ele>
        <time>1970-01-01T00:19:10.000Z</time>
      </trkpt>
      <trkpt lat="40.323668" lon="-3.446411">
        <ele>587</ele>
        <time>1970-01-01T00:19:11.000Z</time>
      </trkpt>
      <trkpt lat="40.323604" lon="-3.446392">
        <ele>587</ele>
        <time>1970-01-01T00:19:12.000Z</time>
      </trkpt>
      <trkpt lat="40.32354" lon="-3.44637">
        <ele>587</ele>
        <time>1970-01-01T00:19:13.000Z</time>
      </trkpt>
      <trkpt lat="40.323476" lon="-3.446343">
        <ele>587</ele>
        <time>1970-01-01T00:19:14.000Z</time>
      </trkpt>
      <trkpt lat="40.323411" lon="-3.446307">
        <ele>587</ele>
        <time>1970-01-01T00:19:15.000Z</time>
      </trkpt>
      <trkpt lat="40.323344" lon="-3.446267">
        <ele>587</ele>
        <time>1970-01-01T00:19:16.000Z</time>
      </trkpt>
      <trkpt lat="40.323278" lon="-3.446224">
        <ele>587</ele>
        <time>1970-01-01T00:19:17.000Z</time>
      </trkpt>
      <trkpt lat="40.32321" lon="-3.44618">
        <ele>586.8</ele>
        <time>1970-01-01T00:19:18.000Z</time>
      </trkpt>
      <trkpt lat="40.32314" lon="-3.446138">
        <ele>586.8</ele>
        <time>1970-01-01T00:19:19.000Z</time>
      </trkpt>
      <trkpt lat="40.323069" lon="-3.446099">
        <ele>586.8</ele>
        <time>1970-01-01T00:19:20.000Z</time>
      </trkpt>
      <trkpt lat="40.322989" lon="-3.446072">
        <ele>586.4</ele>
        <time>1970-01-01T00:19:21.000Z</time>
      </trkpt>
      <trkpt lat="40.322905" lon="-3.44605">
        <ele>586.2</ele>
        <time>1970-01-01T00:19:22.000Z</time>
      </trkpt>
      <trkpt lat="40.322816" lon="-3.446025">
        <ele>586</ele>
        <time>1970-01-01T00:19:23.000Z</time>
      </trkpt>
      <trkpt lat="40.322727" lon="-3.445995">
        <ele>586</ele>
        <time>1970-01-01T00:19:24.000Z</time>
      </trkpt>
      <trkpt lat="40.322639" lon="-3.445966">
        <ele>585.2</ele>
        <time>1970-01-01T00:19:25.000Z</time>
      </trkpt>
      <trkpt lat="40.322554" lon="-3.445935">
        <ele>584.8</ele>
        <time>1970-01-01T00:19:26.000Z</time>
      </trkpt>
      <trkpt lat="40.322471" lon="-3.445902">
        <ele>584.2</ele>
        <time>1970-01-01T00:19:27.000Z</time>
      </trkpt>
      <trkpt lat="40.322393" lon="-3.445868">
        <ele>584</ele>
        <time>1970-01-01T00:19:28.000Z</time>
      </trkpt>
      <trkpt lat="40.322319" lon="-3.44583">
        <ele>583.4</ele>
        <time>1970-01-01T00:19:29.000Z</time>
      </trkpt>
      <trkpt lat="40.322249" lon="-3.445789">
        <ele>583.2</ele>
        <time>1970-01-01T00:19:30.000Z</time>
      </trkpt>
      <trkpt lat="40.32218" lon="-3.445753">
        <ele>582.8</ele>
        <time>1970-01-01T00:19:31.000Z</time>
      </trkpt>
      <trkpt lat="40.322109" lon="-3.44572">
        <ele>582.6</ele>
        <time>1970-01-01T00:19:32.000Z</time>
      </trkpt>
      <trkpt lat="40.32204" lon="-3.445688">
        <ele>582.6</ele>
        <time>1970-01-01T00:19:33.000Z</time>
      </trkpt>
      <trkpt lat="40.321972" lon="-3.445656">
        <ele>582.4</ele>
        <time>1970-01-01T00:19:34.000Z</time>
      </trkpt>
      <trkpt lat="40.321906" lon="-3.445622">
        <ele>582.4</ele>
        <time>1970-01-01T00:19:35.000Z</time>
      </trkpt>
      <trkpt lat="40.32184" lon="-3.445591">
        <ele>582.4</ele>
        <time>1970-01-01T00:19:36.000Z</time>
      </trkpt>
      <trkpt lat="40.321775" lon="-3.44556">
        <ele>582.4</ele>
        <time>1970-01-01T00:19:37.000Z</time>
      </trkpt>
      <trkpt lat="40.321712" lon="-3.44553">
        <ele>582.4</ele>
        <time>1970-01-01T00:19:38.000Z</time>
      </trkpt>
      <trkpt lat="40.321653" lon="-3.445497">
        <ele>582.4</ele>
        <time>1970-01-01T00:19:39.000Z</time>
      </trkpt>
      <trkpt lat="40.321597" lon="-3.445463">
        <ele>582.6</ele>
        <time>1970-01-01T00:19:40.000Z</time>
      </trkpt>
      <trkpt lat="40.321545" lon="-3.445428">
        <ele>582.8</ele>
        <time>1970-01-01T00:19:41.000Z</time>
      </trkpt>
      <trkpt lat="40.321498" lon="-3.445394">
        <ele>582.8</ele>
        <time>1970-01-01T00:19:42.000Z</time>
      </trkpt>
      <trkpt lat="40.321453" lon="-3.44536">
        <ele>583</ele>
        <time>1970-01-01T00:19:43.000Z</time>
      </trkpt>
      <trkpt lat="40.321409" lon="-3.44533">
        <ele>583</ele>
        <time>1970-01-01T00:19:44.000Z</time>
      </trkpt>
      <trkpt lat="40.321369" lon="-3.445309">
        <ele>583.2</ele>
        <time>1970-01-01T00:19:45.000Z</time>
      </trkpt>
      <trkpt lat="40.321328" lon="-3.445305">
        <ele>583.2</ele>
        <time>1970-01-01T00:19:46.000Z</time>
      </trkpt>
      <trkpt lat="40.32129" lon="-3.445314">
        <ele>583.4</ele>
        <time>1970-01-01T00:19:47.000Z</time>
      </trkpt>
      <trkpt lat="40.321252" lon="-3.445331">
        <ele>583.6</ele>
        <time>1970-01-01T00:19:48.000Z</time>
      </trkpt>
      <trkpt lat="40.321214" lon="-3.445357">
        <ele>584</ele>
        <time>1970-01-01T00:19:49.000Z</time>
      </trkpt>
      <trkpt lat="40.32117" lon="-3.445399">
        <ele>584.6</ele>
        <time>1970-01-01T00:19:50.000Z</time>
      </trkpt>
      <trkpt lat="40.321143" lon="-3.445436">
        <ele>585</ele>
        <time>1970-01-01T00:19:51.000Z</time>
      </trkpt>
      <trkpt lat="40.321108" lon="-3.445488">
        <ele>585.6</ele>
        <time>1970-01-01T00:19:52.000Z</time>
      </trkpt>
      <trkpt lat="40.321074" lon="-3.445545">
        <ele>585.6</ele>
        <time>1970-01-01T00:19:53.000Z</time>
      </trkpt>
      <trkpt lat="40.321039" lon="-3.445606">
        <ele>585.8</ele>
        <time>1970-01-01T00:19:54.000Z</time>
      </trkpt>
      <trkpt lat="40.321006" lon="-3.445673">
        <ele>585.8</ele>
        <time>1970-01-01T00:19:55.000Z</time>
      </trkpt>
      <trkpt lat="40.320975" lon="-3.445743">
        <ele>586</ele>
        <time>1970-01-01T00:19:56.000Z</time>
      </trkpt>
      <trkpt lat="40.320946" lon="-3.445819">
        <ele>586</ele>
        <time>1970-01-01T00:19:57.000Z</time>
      </trkpt>
      <trkpt lat="40.320918" lon="-3.445899">
        <ele>586</ele>
        <time>1970-01-01T00:19:58.000Z</time>
      </trkpt>
      <trkpt lat="40.320892" lon="-3.445975">
        <ele>585.8</ele>
        <time>1970-01-01T00:19:59.000Z</time>
      </trkpt>
      <trkpt lat="40.320866" lon="-3.446057">
        <ele>585.8</ele>
        <time>1970-01-01T00:20:00.000Z</time>
      </trkpt>
      <trkpt lat="40.320843" lon="-3.44614">
        <ele>585.6</ele>
        <time>1970-01-01T00:20:01.000Z</time>
      </trkpt>
      <trkpt lat="40.320819" lon="-3.446225">
        <ele>585.6</ele>
        <time>1970-01-01T00:20:02.000Z</time>
      </trkpt>
      <trkpt lat="40.320795" lon="-3.446314">
        <ele>585.4</ele>
        <time>1970-01-01T00:20:03.000Z</time>
      </trkpt>
      <trkpt lat="40.320771" lon="-3.446404">
        <ele>585.2</ele>
        <time>1970-01-01T00:20:04.000Z</time>
      </trkpt>
      <trkpt lat="40.320748" lon="-3.446494">
        <ele>585</ele>
        <time>1970-01-01T00:20:05.000Z</time>
      </trkpt>
      <trkpt lat="40.320723" lon="-3.446585">
        <ele>585</ele>
        <time>1970-01-01T00:20:06.000Z</time>
      </trkpt>
      <trkpt lat="40.320695" lon="-3.446677">
        <ele>584.8</ele>
        <time>1970-01-01T00:20:07.000Z</time>
      </trkpt>
      <trkpt lat="40.320668" lon="-3.446769">
        <ele>584.8</ele>
        <time>1970-01-01T00:20:08.000Z</time>
      </trkpt>
      <trkpt lat="40.320643" lon="-3.44686">
        <ele>584.6</ele>
        <time>1970-01-01T00:20:09.000Z</time>
      </trkpt>
      <trkpt lat="40.320621" lon="-3.44695">
        <ele>584.2</ele>
        <time>1970-01-01T00:20:10.000Z</time>
      </trkpt>
      <trkpt lat="40.3206" lon="-3.44704">
        <ele>584.2</ele>
        <time>1970-01-01T00:20:11.000Z</time>
      </trkpt>
      <trkpt lat="40.320579" lon="-3.447123">
        <ele>584</ele>
        <time>1970-01-01T00:20:12.000Z</time>
      </trkpt>
      <trkpt lat="40.320555" lon="-3.447199">
        <ele>584</ele>
        <time>1970-01-01T00:20:13.000Z</time>
      </trkpt>
      <trkpt lat="40.320526" lon="-3.447262">
        <ele>583.8</ele>
        <time>1970-01-01T00:20:14.000Z</time>
      </trkpt>
      <trkpt lat="40.320493" lon="-3.447309">
        <ele>583.8</ele>
        <time>1970-01-01T00:20:15.000Z</time>
      </trkpt>
      <trkpt lat="40.320465" lon="-3.447338">
        <ele>583.4</ele>
        <time>1970-01-01T00:20:16.000Z</time>
      </trkpt>
      <trkpt lat="40.32044" lon="-3.447363">
        <ele>583.2</ele>
        <time>1970-01-01T00:20:17.000Z</time>
      </trkpt>
      <trkpt lat="40.320409" lon="-3.447376">
        <ele>583</ele>
        <time>1970-01-01T00:20:18.000Z</time>
      </trkpt>
      <trkpt lat="40.320378" lon="-3.447367">
        <ele>582.8</ele>
        <time>1970-01-01T00:20:19.000Z</time>
      </trkpt>
      <trkpt lat="40.320352" lon="-3.447335">
        <ele>582.8</ele>
        <time>1970-01-01T00:20:20.000Z</time>
      </trkpt>
      <trkpt lat="40.320342" lon="-3.447289">
        <ele>582.8</ele>
        <time>1970-01-01T00:20:21.000Z</time>
      </trkpt>
      <trkpt lat="40.32035" lon="-3.447236">
        <ele>582.8</ele>
        <time>1970-01-01T00:20:22.000Z</time>
      </trkpt>
      <trkpt lat="40.320364" lon="-3.447182">
        <ele>582.8</ele>
        <time>1970-01-01T00:20:23.000Z</time>
      </trkpt>
      <trkpt lat="40.32038" lon="-3.447124">
        <ele>582.8</ele>
        <time>1970-01-01T00:20:24.000Z</time>
      </trkpt>
      <trkpt lat="40.320399" lon="-3.44706">
        <ele>582.8</ele>
        <time>1970-01-01T00:20:25.000Z</time>
      </trkpt>
      <trkpt lat="40.320418" lon="-3.446996">
        <ele>582.8</ele>
        <time>1970-01-01T00:20:26.000Z</time>
      </trkpt>
      <trkpt lat="40.320435" lon="-3.44693">
        <ele>582.8</ele>
        <time>1970-01-01T00:20:27.000Z</time>
      </trkpt>
      <trkpt lat="40.320452" lon="-3.446864">
        <ele>582.8</ele>
        <time>1970-01-01T00:20:28.000Z</time>
      </trkpt>
      <trkpt lat="40.320467" lon="-3.446798">
        <ele>582.8</ele>
        <time>1970-01-01T00:20:29.000Z</time>
      </trkpt>
      <trkpt lat="40.320483" lon="-3.44673">
        <ele>582.8</ele>
        <time>1970-01-01T00:20:30.000Z</time>
      </trkpt>
      <trkpt lat="40.320501" lon="-3.446661">
        <ele>582.8</ele>
        <time>1970-01-01T00:20:31.000Z</time>
      </trkpt>
      <trkpt lat="40.320518" lon="-3.446596">
        <ele>583</ele>
        <time>1970-01-01T00:20:32.000Z</time>
      </trkpt>
      <trkpt lat="40.320535" lon="-3.446531">
        <ele>583</ele>
        <time>1970-01-01T00:20:33.000Z</time>
      </trkpt>
      <trkpt lat="40.32055" lon="-3.446464">
        <ele>583.2</ele>
        <time>1970-01-01T00:20:34.000Z</time>
      </trkpt>
      <trkpt lat="40.320567" lon="-3.446395">
        <ele>583.2</ele>
        <time>1970-01-01T00:20:35.000Z</time>
      </trkpt>
      <trkpt lat="40.320583" lon="-3.446328">
        <ele>583.4</ele>
        <time>1970-01-01T00:20:36.000Z</time>
      </trkpt>
      <trkpt lat="40.320603" lon="-3.44626">
        <ele>583.4</ele>
        <time>1970-01-01T00:20:37.000Z</time>
      </trkpt>
      <trkpt lat="40.320621" lon="-3.446192">
        <ele>583.6</ele>
        <time>1970-01-01T00:20:38.000Z</time>
      </trkpt>
      <trkpt lat="40.320637" lon="-3.446123">
        <ele>583.8</ele>
        <time>1970-01-01T00:20:39.000Z</time>
      </trkpt>
      <trkpt lat="40.320653" lon="-3.446055">
        <ele>583.8</ele>
        <time>1970-01-01T00:20:40.000Z</time>
      </trkpt>
      <trkpt lat="40.320669" lon="-3.445989">
        <ele>584</ele>
        <time>1970-01-01T00:20:41.000Z</time>
      </trkpt>
      <trkpt lat="40.320685" lon="-3.445921">
        <ele>584</ele>
        <time>1970-01-01T00:20:42.000Z</time>
      </trkpt>
      <trkpt lat="40.320701" lon="-3.445854">
        <ele>584.2</ele>
        <time>1970-01-01T00:20:43.000Z</time>
      </trkpt>
      <trkpt lat="40.320718" lon="-3.445786">
        <ele>584.4</ele>
        <time>1970-01-01T00:20:44.000Z</time>
      </trkpt>
      <trkpt lat="40.320734" lon="-3.445719">
        <ele>584.6</ele>
        <time>1970-01-01T00:20:45.000Z</time>
      </trkpt>
      <trkpt lat="40.320749" lon="-3.44565">
        <ele>584.6</ele>
        <time>1970-01-01T00:20:46.000Z</time>
      </trkpt>
      <trkpt lat="40.320761" lon="-3.445581">
        <ele>584.8</ele>
        <time>1970-01-01T00:20:47.000Z</time>
      </trkpt>
      <trkpt lat="40.320771" lon="-3.445509">
        <ele>584.8</ele>
        <time>1970-01-01T00:20:48.000Z</time>
      </trkpt>
      <trkpt lat="40.320775" lon="-3.445438">
        <ele>585</ele>
        <time>1970-01-01T00:20:49.000Z</time>
      </trkpt>
      <trkpt lat="40.320773" lon="-3.445366">
        <ele>585.2</ele>
        <time>1970-01-01T00:20:50.000Z</time>
      </trkpt>
      <trkpt lat="40.320768" lon="-3.445295">
        <ele>585.2</ele>
        <time>1970-01-01T00:20:51.000Z</time>
      </trkpt>
      <trkpt lat="40.320759" lon="-3.445229">
        <ele>585.4</ele>
        <time>1970-01-01T00:20:52.000Z</time>
      </trkpt>
      <trkpt lat="40.320746" lon="-3.445166">
        <ele>585.4</ele>
        <time>1970-01-01T00:20:53.000Z</time>
      </trkpt>
      <trkpt lat="40.320728" lon="-3.445104">
        <ele>585.6</ele>
        <time>1970-01-01T00:20:54.000Z</time>
      </trkpt>
      <trkpt lat="40.320706" lon="-3.445048">
        <ele>585.8</ele>
        <time>1970-01-01T00:20:55.000Z</time>
      </trkpt>
      <trkpt lat="40.320677" lon="-3.444985">
        <ele>586</ele>
        <time>1970-01-01T00:20:56.000Z</time>
      </trkpt>
      <trkpt lat="40.320656" lon="-3.444946">
        <ele>586</ele>
        <time>1970-01-01T00:20:57.000Z</time>
      </trkpt>
      <trkpt lat="40.320626" lon="-3.444898">
        <ele>586.2</ele>
        <time>1970-01-01T00:20:58.000Z</time>
      </trkpt>
      <trkpt lat="40.320592" lon="-3.444853">
        <ele>586.4</ele>
        <time>1970-01-01T00:20:59.000Z</time>
      </trkpt>
      <trkpt lat="40.320557" lon="-3.444809">
        <ele>586.6</ele>
        <time>1970-01-01T00:21:00.000Z</time>
      </trkpt>
      <trkpt lat="40.320517" lon="-3.444771">
        <ele>586.6</ele>
        <time>1970-01-01T00:21:01.000Z</time>
      </trkpt>
      <trkpt lat="40.320475" lon="-3.444738">
        <ele>586.8</ele>
        <time>1970-01-01T00:21:02.000Z</time>
      </trkpt>
      <trkpt lat="40.320443" lon="-3.444718">
        <ele>586.8</ele>
        <time>1970-01-01T00:21:03.000Z</time>
      </trkpt>
      <trkpt lat="40.320426" lon="-3.444713">
        <ele>586.8</ele>
        <time>1970-01-01T00:21:04.000Z</time>
      </trkpt>
      <trkpt lat="40.320423" lon="-3.444714">
        <ele>587</ele>
        <time>1970-01-01T00:21:05.000Z</time>
      </trkpt>
      <trkpt lat="40.320423" lon="-3.444714">
        <ele>587</ele>
        <time>1970-01-01T00:21:06.000Z</time>
      </trkpt>
      <trkpt lat="40.320391" lon="-3.444686">
        <ele>587</ele>
        <time>1970-01-01T00:21:11.000Z</time>
      </trkpt>
      <trkpt lat="40.320368" lon="-3.444669">
        <ele>587</ele>
        <time>1970-01-01T00:21:12.000Z</time>
      </trkpt>
      <trkpt lat="40.320337" lon="-3.444651">
        <ele>587</ele>
        <time>1970-01-01T00:21:13.000Z</time>
      </trkpt>
      <trkpt lat="40.320299" lon="-3.444634">
        <ele>587</ele>
        <time>1970-01-01T00:21:14.000Z</time>
      </trkpt>
      <trkpt lat="40.320256" lon="-3.444614">
        <ele>587</ele>
        <time>1970-01-01T00:21:15.000Z</time>
      </trkpt>
      <trkpt lat="40.320207" lon="-3.444593">
        <ele>587</ele>
        <time>1970-01-01T00:21:16.000Z</time>
      </trkpt>
      <trkpt lat="40.320155" lon="-3.444568">
        <ele>586.8</ele>
        <time>1970-01-01T00:21:17.000Z</time>
      </trkpt>
      <trkpt lat="40.3201" lon="-3.444538">
        <ele>586.8</ele>
        <time>1970-01-01T00:21:18.000Z</time>
      </trkpt>
      <trkpt lat="40.320043" lon="-3.444506">
        <ele>586.8</ele>
        <time>1970-01-01T00:21:19.000Z</time>
      </trkpt>
      <trkpt lat="40.319985" lon="-3.44447">
        <ele>586.8</ele>
        <time>1970-01-01T00:21:20.000Z</time>
      </trkpt>
      <trkpt lat="40.319925" lon="-3.444432">
        <ele>586.8</ele>
        <time>1970-01-01T00:21:21.000Z</time>
      </trkpt>
      <trkpt lat="40.319866" lon="-3.444389">
        <ele>586.8</ele>
        <time>1970-01-01T00:21:22.000Z</time>
      </trkpt>
      <trkpt lat="40.319804" lon="-3.444347">
        <ele>586.8</ele>
        <time>1970-01-01T00:21:23.000Z</time>
      </trkpt>
      <trkpt lat="40.31973" lon="-3.444291">
        <ele>586.8</ele>
        <time>1970-01-01T00:21:24.000Z</time>
      </trkpt>
      <trkpt lat="40.319682" lon="-3.444246">
        <ele>586.6</ele>
        <time>1970-01-01T00:21:25.000Z</time>
      </trkpt>
      <trkpt lat="40.319621" lon="-3.444191">
        <ele>586.6</ele>
        <time>1970-01-01T00:21:26.000Z</time>
      </trkpt>
      <trkpt lat="40.319562" lon="-3.444128">
        <ele>586.4</ele>
        <time>1970-01-01T00:21:27.000Z</time>
      </trkpt>
      <trkpt lat="40.319503" lon="-3.444064">
        <ele>586.2</ele>
        <time>1970-01-01T00:21:28.000Z</time>
      </trkpt>
      <trkpt lat="40.319441" lon="-3.444002">
        <ele>586.2</ele>
        <time>1970-01-01T00:21:29.000Z</time>
      </trkpt>
      <trkpt lat="40.319377" lon="-3.443943">
        <ele>586</ele>
        <time>1970-01-01T00:21:30.000Z</time>
      </trkpt>
      <trkpt lat="40.319313" lon="-3.443883">
        <ele>585.8</ele>
        <time>1970-01-01T00:21:31.000Z</time>
      </trkpt>
      <trkpt lat="40.319247" lon="-3.443825">
        <ele>585.6</ele>
        <time>1970-01-01T00:21:32.000Z</time>
      </trkpt>
      <trkpt lat="40.319178" lon="-3.44377">
        <ele>585.4</ele>
        <time>1970-01-01T00:21:33.000Z</time>
      </trkpt>
      <trkpt lat="40.319107" lon="-3.443718">
        <ele>585</ele>
        <time>1970-01-01T00:21:34.000Z</time>
      </trkpt>
      <trkpt lat="40.319035" lon="-3.443665">
        <ele>585</ele>
        <time>1970-01-01T00:21:35.000Z</time>
      </trkpt>
      <trkpt lat="40.318961" lon="-3.443613">
        <ele>584.6</ele>
        <time>1970-01-01T00:21:36.000Z</time>
      </trkpt>
      <trkpt lat="40.318885" lon="-3.443562">
        <ele>584.4</ele>
        <time>1970-01-01T00:21:37.000Z</time>
      </trkpt>
      <trkpt lat="40.318806" lon="-3.443511">
        <ele>584.2</ele>
        <time>1970-01-01T00:21:38.000Z</time>
      </trkpt>
      <trkpt lat="40.318725" lon="-3.443469">
        <ele>583.8</ele>
        <time>1970-01-01T00:21:39.000Z</time>
      </trkpt>
      <trkpt lat="40.318641" lon="-3.443431">
        <ele>583.6</ele>
        <time>1970-01-01T00:21:40.000Z</time>
      </trkpt>
      <trkpt lat="40.318554" lon="-3.443396">
        <ele>583.4</ele>
        <time>1970-01-01T00:21:41.000Z</time>
      </trkpt>
      <trkpt lat="40.318466" lon="-3.443367">
        <ele>583.2</ele>
        <time>1970-01-01T00:21:42.000Z</time>
      </trkpt>
      <trkpt lat="40.318375" lon="-3.443345">
        <ele>582.6</ele>
        <time>1970-01-01T00:21:43.000Z</time>
      </trkpt>
      <trkpt lat="40.318283" lon="-3.443326">
        <ele>582.4</ele>
        <time>1970-01-01T00:21:44.000Z</time>
      </trkpt>
      <trkpt lat="40.318188" lon="-3.443312">
        <ele>581.6</ele>
        <time>1970-01-01T00:21:45.000Z</time>
      </trkpt>
      <trkpt lat="40.318095" lon="-3.443302">
        <ele>581.4</ele>
        <time>1970-01-01T00:21:46.000Z</time>
      </trkpt>
      <trkpt lat="40.318004" lon="-3.443298">
        <ele>580.8</ele>
        <time>1970-01-01T00:21:47.000Z</time>
      </trkpt>
      <trkpt lat="40.317916" lon="-3.443297">
        <ele>580.2</ele>
        <time>1970-01-01T00:21:48.000Z</time>
      </trkpt>
      <trkpt lat="40.317827" lon="-3.443303">
        <ele>580</ele>
        <time>1970-01-01T00:21:49.000Z</time>
      </trkpt>
      <trkpt lat="40.317742" lon="-3.443312">
        <ele>579.4</ele>
        <time>1970-01-01T00:21:50.000Z</time>
      </trkpt>
      <trkpt lat="40.317661" lon="-3.443322">
        <ele>579.2</ele>
        <time>1970-01-01T00:21:51.000Z</time>
      </trkpt>
      <trkpt lat="40.317581" lon="-3.443333">
        <ele>578.8</ele>
        <time>1970-01-01T00:21:52.000Z</time>
      </trkpt>
      <trkpt lat="40.317502" lon="-3.443347">
        <ele>578.8</ele>
        <time>1970-01-01T00:21:53.000Z</time>
      </trkpt>
      <trkpt lat="40.317424" lon="-3.443363">
        <ele>578.6</ele>
        <time>1970-01-01T00:21:54.000Z</time>
      </trkpt>
      <trkpt lat="40.317346" lon="-3.443381">
        <ele>578.6</ele>
        <time>1970-01-01T00:21:55.000Z</time>
      </trkpt>
      <trkpt lat="40.31727" lon="-3.443404">
        <ele>578.6</ele>
        <time>1970-01-01T00:21:56.000Z</time>
      </trkpt>
      <trkpt lat="40.317198" lon="-3.443435">
        <ele>578.6</ele>
        <time>1970-01-01T00:21:57.000Z</time>
      </trkpt>
      <trkpt lat="40.317129" lon="-3.443469">
        <ele>578.6</ele>
        <time>1970-01-01T00:21:58.000Z</time>
      </trkpt>
      <trkpt lat="40.31706" lon="-3.44351">
        <ele>578.8</ele>
        <time>1970-01-01T00:21:59.000Z</time>
      </trkpt>
      <trkpt lat="40.316998" lon="-3.443556">
        <ele>578.8</ele>
        <time>1970-01-01T00:22:00.000Z</time>
      </trkpt>
      <trkpt lat="40.316938" lon="-3.443605">
        <ele>578.8</ele>
        <time>1970-01-01T00:22:01.000Z</time>
      </trkpt>
      <trkpt lat="40.31688" lon="-3.443654">
        <ele>578.8</ele>
        <time>1970-01-01T00:22:02.000Z</time>
      </trkpt>
      <trkpt lat="40.316823" lon="-3.443701">
        <ele>579</ele>
        <time>1970-01-01T00:22:03.000Z</time>
      </trkpt>
      <trkpt lat="40.316766" lon="-3.443742">
        <ele>579</ele>
        <time>1970-01-01T00:22:04.000Z</time>
      </trkpt>
      <trkpt lat="40.316709" lon="-3.443782">
        <ele>579</ele>
        <time>1970-01-01T00:22:05.000Z</time>
      </trkpt>
      <trkpt lat="40.316653" lon="-3.443822">
        <ele>579</ele>
        <time>1970-01-01T00:22:06.000Z</time>
      </trkpt>
      <trkpt lat="40.316602" lon="-3.443871">
        <ele>579.2</ele>
        <time>1970-01-01T00:22:07.000Z</time>
      </trkpt>
      <trkpt lat="40.31656" lon="-3.443931">
        <ele>579.2</ele>
        <time>1970-01-01T00:22:08.000Z</time>
      </trkpt>
      <trkpt lat="40.316526" lon="-3.443998">
        <ele>579.4</ele>
        <time>1970-01-01T00:22:09.000Z</time>
      </trkpt>
      <trkpt lat="40.316495" lon="-3.444071">
        <ele>579.4</ele>
        <time>1970-01-01T00:22:10.000Z</time>
      </trkpt>
      <trkpt lat="40.316461" lon="-3.444141">
        <ele>579.4</ele>
        <time>1970-01-01T00:22:11.000Z</time>
      </trkpt>
      <trkpt lat="40.316424" lon="-3.444208">
        <ele>579.6</ele>
        <time>1970-01-01T00:22:12.000Z</time>
      </trkpt>
      <trkpt lat="40.316387" lon="-3.444277">
        <ele>579.6</ele>
        <time>1970-01-01T00:22:13.000Z</time>
      </trkpt>
      <trkpt lat="40.316357" lon="-3.44435">
        <ele>579.8</ele>
        <time>1970-01-01T00:22:14.000Z</time>
      </trkpt>
      <trkpt lat="40.316326" lon="-3.444444">
        <ele>580</ele>
        <time>1970-01-01T00:22:15.000Z</time>
      </trkpt>
      <trkpt lat="40.316309" lon="-3.444508">
        <ele>580</ele>
        <time>1970-01-01T00:22:16.000Z</time>
      </trkpt>
      <trkpt lat="40.316291" lon="-3.444587">
        <ele>580</ele>
        <time>1970-01-01T00:22:17.000Z</time>
      </trkpt>
      <trkpt lat="40.316271" lon="-3.444669">
        <ele>580.2</ele>
        <time>1970-01-01T00:22:18.000Z</time>
      </trkpt>
      <trkpt lat="40.316249" lon="-3.444749">
        <ele>580.2</ele>
        <time>1970-01-01T00:22:19.000Z</time>
      </trkpt>
      <trkpt lat="40.316227" lon="-3.444827">
        <ele>580.4</ele>
        <time>1970-01-01T00:22:20.000Z</time>
      </trkpt>
      <trkpt lat="40.316206" lon="-3.444906">
        <ele>580.4</ele>
        <time>1970-01-01T00:22:21.000Z</time>
      </trkpt>
      <trkpt lat="40.316185" lon="-3.444983">
        <ele>580.4</ele>
        <time>1970-01-01T00:22:22.000Z</time>
      </trkpt>
      <trkpt lat="40.316166" lon="-3.445061">
        <ele>580.4</ele>
        <time>1970-01-01T00:22:23.000Z</time>
      </trkpt>
      <trkpt lat="40.316148" lon="-3.445132">
        <ele>580.4</ele>
        <time>1970-01-01T00:22:24.000Z</time>
      </trkpt>
      <trkpt lat="40.316126" lon="-3.445205">
        <ele>580.4</ele>
        <time>1970-01-01T00:22:25.000Z</time>
      </trkpt>
      <trkpt lat="40.316105" lon="-3.445284">
        <ele>580.6</ele>
        <time>1970-01-01T00:22:26.000Z</time>
      </trkpt>
      <trkpt lat="40.316081" lon="-3.445362">
        <ele>580.6</ele>
        <time>1970-01-01T00:22:27.000Z</time>
      </trkpt>
      <trkpt lat="40.316055" lon="-3.445441">
        <ele>580.6</ele>
        <time>1970-01-01T00:22:28.000Z</time>
      </trkpt>
      <trkpt lat="40.316028" lon="-3.445518">
        <ele>580.6</ele>
        <time>1970-01-01T00:22:29.000Z</time>
      </trkpt>
      <trkpt lat="40.315998" lon="-3.445592">
        <ele>580.8</ele>
        <time>1970-01-01T00:22:30.000Z</time>
      </trkpt>
      <trkpt lat="40.315964" lon="-3.445665">
        <ele>580.8</ele>
        <time>1970-01-01T00:22:31.000Z</time>
      </trkpt>
      <trkpt lat="40.315926" lon="-3.445743">
        <ele>581</ele>
        <time>1970-01-01T00:22:32.000Z</time>
      </trkpt>
      <trkpt lat="40.315889" lon="-3.445818">
        <ele>581</ele>
        <time>1970-01-01T00:22:33.000Z</time>
      </trkpt>
      <trkpt lat="40.315855" lon="-3.445888">
        <ele>581</ele>
        <time>1970-01-01T00:22:34.000Z</time>
      </trkpt>
      <trkpt lat="40.315822" lon="-3.445957">
        <ele>581</ele>
        <time>1970-01-01T00:22:35.000Z</time>
      </trkpt>
      <trkpt lat="40.315795" lon="-3.446026">
        <ele>581.4</ele>
        <time>1970-01-01T00:22:36.000Z</time>
      </trkpt>
      <trkpt lat="40.315771" lon="-3.446097">
        <ele>581.6</ele>
        <time>1970-01-01T00:22:37.000Z</time>
      </trkpt>
      <trkpt lat="40.315746" lon="-3.446168">
        <ele>581.6</ele>
        <time>1970-01-01T00:22:38.000Z</time>
      </trkpt>
      <trkpt lat="40.31571" lon="-3.446235">
        <ele>581.8</ele>
        <time>1970-01-01T00:22:39.000Z</time>
      </trkpt>
      <trkpt lat="40.315677" lon="-3.446298">
        <ele>581.8</ele>
        <time>1970-01-01T00:22:40.000Z</time>
      </trkpt>
      <trkpt lat="40.315645" lon="-3.446362">
        <ele>582</ele>
        <time>1970-01-01T00:22:41.000Z</time>
      </trkpt>
      <trkpt lat="40.315613" lon="-3.446426">
        <ele>582</ele>
        <time>1970-01-01T00:22:42.000Z</time>
      </trkpt>
      <trkpt lat="40.315587" lon="-3.44649">
        <ele>582.2</ele>
        <time>1970-01-01T00:22:43.000Z</time>
      </trkpt>
      <trkpt lat="40.315566" lon="-3.446549">
        <ele>582.4</ele>
        <time>1970-01-01T00:22:44.000Z</time>
      </trkpt>
      <trkpt lat="40.315537" lon="-3.446608">
        <ele>582.6</ele>
        <time>1970-01-01T00:22:45.000Z</time>
      </trkpt>
      <trkpt lat="40.315508" lon="-3.446666">
        <ele>582.6</ele>
        <time>1970-01-01T00:22:46.000Z</time>
      </trkpt>
      <trkpt lat="40.315483" lon="-3.446722">
        <ele>583</ele>
        <time>1970-01-01T00:22:47.000Z</time>
      </trkpt>
      <trkpt lat="40.315456" lon="-3.446773">
        <ele>583.2</ele>
        <time>1970-01-01T00:22:48.000Z</time>
      </trkpt>
      <trkpt lat="40.315427" lon="-3.446825">
        <ele>583.4</ele>
        <time>1970-01-01T00:22:49.000Z</time>
      </trkpt>
      <trkpt lat="40.315397" lon="-3.446875">
        <ele>583.6</ele>
        <time>1970-01-01T00:22:50.000Z</time>
      </trkpt>
      <trkpt lat="40.315365" lon="-3.446924">
        <ele>584</ele>
        <time>1970-01-01T00:22:51.000Z</time>
      </trkpt>
      <trkpt lat="40.315336" lon="-3.446973">
        <ele>584.4</ele>
        <time>1970-01-01T00:22:52.000Z</time>
      </trkpt>
      <trkpt lat="40.315304" lon="-3.447019">
        <ele>584.4</ele>
        <time>1970-01-01T00:22:53.000Z</time>
      </trkpt>
      <trkpt lat="40.315273" lon="-3.447065">
        <ele>584.6</ele>
        <time>1970-01-01T00:22:54.000Z</time>
      </trkpt>
      <trkpt lat="40.315242" lon="-3.44711">
        <ele>584.8</ele>
        <time>1970-01-01T00:22:55.000Z</time>
      </trkpt>
      <trkpt lat="40.315212" lon="-3.447153">
        <ele>585.2</ele>
        <time>1970-01-01T00:22:56.000Z</time>
      </trkpt>
      <trkpt lat="40.315179" lon="-3.447197">
        <ele>585.6</ele>
        <time>1970-01-01T00:22:57.000Z</time>
      </trkpt>
      <trkpt lat="40.315144" lon="-3.44724">
        <ele>585.8</ele>
        <time>1970-01-01T00:22:58.000Z</time>
      </trkpt>
      <trkpt lat="40.31511" lon="-3.447282">
        <ele>586.2</ele>
        <time>1970-01-01T00:22:59.000Z</time>
      </trkpt>
      <trkpt lat="40.315078" lon="-3.447322">
        <ele>586.4</ele>
        <time>1970-01-01T00:23:00.000Z</time>
      </trkpt>
      <trkpt lat="40.315044" lon="-3.447362">
        <ele>586.4</ele>
        <time>1970-01-01T00:23:01.000Z</time>
      </trkpt>
      <trkpt lat="40.315008" lon="-3.447401">
        <ele>586.6</ele>
        <time>1970-01-01T00:23:02.000Z</time>
      </trkpt>
      <trkpt lat="40.314972" lon="-3.447441">
        <ele>586.8</ele>
        <time>1970-01-01T00:23:03.000Z</time>
      </trkpt>
      <trkpt lat="40.314932" lon="-3.447481">
        <ele>587</ele>
        <time>1970-01-01T00:23:04.000Z</time>
      </trkpt>
      <trkpt lat="40.314897" lon="-3.447519">
        <ele>587</ele>
        <time>1970-01-01T00:23:05.000Z</time>
      </trkpt>
      <trkpt lat="40.314863" lon="-3.447556">
        <ele>587.4</ele>
        <time>1970-01-01T00:23:06.000Z</time>
      </trkpt>
      <trkpt lat="40.314825" lon="-3.447593">
        <ele>587.6</ele>
        <time>1970-01-01T00:23:07.000Z</time>
      </trkpt>
      <trkpt lat="40.314783" lon="-3.447627">
        <ele>587.8</ele>
        <time>1970-01-01T00:23:08.000Z</time>
      </trkpt>
      <trkpt lat="40.314743" lon="-3.447658">
        <ele>588</ele>
        <time>1970-01-01T00:23:09.000Z</time>
      </trkpt>
      <trkpt lat="40.314702" lon="-3.447688">
        <ele>588.4</ele>
        <time>1970-01-01T00:23:10.000Z</time>
      </trkpt>
      <trkpt lat="40.314658" lon="-3.447716">
        <ele>588.8</ele>
        <time>1970-01-01T00:23:11.000Z</time>
      </trkpt>
      <trkpt lat="40.314612" lon="-3.447741">
        <ele>589.4</ele>
        <time>1970-01-01T00:23:12.000Z</time>
      </trkpt>
      <trkpt lat="40.314563" lon="-3.447764">
        <ele>589.4</ele>
        <time>1970-01-01T00:23:13.000Z</time>
      </trkpt>
      <trkpt lat="40.314514" lon="-3.447787">
        <ele>589.8</ele>
        <time>1970-01-01T00:23:14.000Z</time>
      </trkpt>
      <trkpt lat="40.314465" lon="-3.44781">
        <ele>589.8</ele>
        <time>1970-01-01T00:23:15.000Z</time>
      </trkpt>
      <trkpt lat="40.314412" lon="-3.447832">
        <ele>590.2</ele>
        <time>1970-01-01T00:23:16.000Z</time>
      </trkpt>
      <trkpt lat="40.314358" lon="-3.447852">
        <ele>590.2</ele>
        <time>1970-01-01T00:23:17.000Z</time>
      </trkpt>
      <trkpt lat="40.314304" lon="-3.447871">
        <ele>590.4</ele>
        <time>1970-01-01T00:23:18.000Z</time>
      </trkpt>
      <trkpt lat="40.314252" lon="-3.447886">
        <ele>590.6</ele>
        <time>1970-01-01T00:23:19.000Z</time>
      </trkpt>
      <trkpt lat="40.314198" lon="-3.447903">
        <ele>590.6</ele>
        <time>1970-01-01T00:23:20.000Z</time>
      </trkpt>
      <trkpt lat="40.314142" lon="-3.447921">
        <ele>590.8</ele>
        <time>1970-01-01T00:23:21.000Z</time>
      </trkpt>
      <trkpt lat="40.314088" lon="-3.447938">
        <ele>590.8</ele>
        <time>1970-01-01T00:23:22.000Z</time>
      </trkpt>
      <trkpt lat="40.314034" lon="-3.447956">
        <ele>591</ele>
        <time>1970-01-01T00:23:23.000Z</time>
      </trkpt>
      <trkpt lat="40.313977" lon="-3.447976">
        <ele>591</ele>
        <time>1970-01-01T00:23:24.000Z</time>
      </trkpt>
      <trkpt lat="40.313921" lon="-3.447997">
        <ele>591</ele>
        <time>1970-01-01T00:23:25.000Z</time>
      </trkpt>
      <trkpt lat="40.313867" lon="-3.448017">
        <ele>591</ele>
        <time>1970-01-01T00:23:26.000Z</time>
      </trkpt>
      <trkpt lat="40.313813" lon="-3.448033">
        <ele>591.2</ele>
        <time>1970-01-01T00:23:27.000Z</time>
      </trkpt>
      <trkpt lat="40.313759" lon="-3.448051">
        <ele>591.2</ele>
        <time>1970-01-01T00:23:28.000Z</time>
      </trkpt>
      <trkpt lat="40.313702" lon="-3.448069">
        <ele>591.2</ele>
        <time>1970-01-01T00:23:29.000Z</time>
      </trkpt>
      <trkpt lat="40.313644" lon="-3.448087">
        <ele>591.4</ele>
        <time>1970-01-01T00:23:30.000Z</time>
      </trkpt>
      <trkpt lat="40.313587" lon="-3.448108">
        <ele>591.4</ele>
        <time>1970-01-01T00:23:31.000Z</time>
      </trkpt>
      <trkpt lat="40.313524" lon="-3.448128">
        <ele>591.4</ele>
        <time>1970-01-01T00:23:32.000Z</time>
      </trkpt>
      <trkpt lat="40.313457" lon="-3.44815">
        <ele>591.4</ele>
        <time>1970-01-01T00:23:33.000Z</time>
      </trkpt>
      <trkpt lat="40.313386" lon="-3.448173">
        <ele>591.4</ele>
        <time>1970-01-01T00:23:34.000Z</time>
      </trkpt>
      <trkpt lat="40.313313" lon="-3.448193">
        <ele>591.4</ele>
        <time>1970-01-01T00:23:35.000Z</time>
      </trkpt>
      <trkpt lat="40.313238" lon="-3.448213">
        <ele>591.4</ele>
        <time>1970-01-01T00:23:36.000Z</time>
      </trkpt>
      <trkpt lat="40.313161" lon="-3.448235">
        <ele>591</ele>
        <time>1970-01-01T00:23:37.000Z</time>
      </trkpt>
      <trkpt lat="40.313081" lon="-3.448257">
        <ele>590.8</ele>
        <time>1970-01-01T00:23:38.000Z</time>
      </trkpt>
      <trkpt lat="40.313" lon="-3.448278">
        <ele>590.6</ele>
        <time>1970-01-01T00:23:39.000Z</time>
      </trkpt>
      <trkpt lat="40.312919" lon="-3.448297">
        <ele>590.4</ele>
        <time>1970-01-01T00:23:40.000Z</time>
      </trkpt>
      <trkpt lat="40.312838" lon="-3.448317">
        <ele>590.2</ele>
        <time>1970-01-01T00:23:41.000Z</time>
      </trkpt>
      <trkpt lat="40.312755" lon="-3.448338">
        <ele>590</ele>
        <time>1970-01-01T00:23:42.000Z</time>
      </trkpt>
      <trkpt lat="40.312672" lon="-3.44836">
        <ele>589.4</ele>
        <time>1970-01-01T00:23:43.000Z</time>
      </trkpt>
      <trkpt lat="40.312589" lon="-3.448384">
        <ele>589.4</ele>
        <time>1970-01-01T00:23:44.000Z</time>
      </trkpt>
      <trkpt lat="40.312506" lon="-3.448411">
        <ele>588.8</ele>
        <time>1970-01-01T00:23:45.000Z</time>
      </trkpt>
      <trkpt lat="40.312424" lon="-3.448438">
        <ele>588.4</ele>
        <time>1970-01-01T00:23:46.000Z</time>
      </trkpt>
      <trkpt lat="40.312345" lon="-3.448464">
        <ele>588.2</ele>
        <time>1970-01-01T00:23:47.000Z</time>
      </trkpt>
      <trkpt lat="40.312265" lon="-3.448489">
        <ele>588</ele>
        <time>1970-01-01T00:23:48.000Z</time>
      </trkpt>
      <trkpt lat="40.312186" lon="-3.448511">
        <ele>587.8</ele>
        <time>1970-01-01T00:23:49.000Z</time>
      </trkpt>
      <trkpt lat="40.312106" lon="-3.448535">
        <ele>587.4</ele>
        <time>1970-01-01T00:23:50.000Z</time>
      </trkpt>
      <trkpt lat="40.312026" lon="-3.448563">
        <ele>587.2</ele>
        <time>1970-01-01T00:23:51.000Z</time>
      </trkpt>
      <trkpt lat="40.311945" lon="-3.448595">
        <ele>586.8</ele>
        <time>1970-01-01T00:23:52.000Z</time>
      </trkpt>
      <trkpt lat="40.311865" lon="-3.448628">
        <ele>586.6</ele>
        <time>1970-01-01T00:23:53.000Z</time>
      </trkpt>
      <trkpt lat="40.311785" lon="-3.44866">
        <ele>586.2</ele>
        <time>1970-01-01T00:23:54.000Z</time>
      </trkpt>
      <trkpt lat="40.311708" lon="-3.448686">
        <ele>586.2</ele>
        <time>1970-01-01T00:23:55.000Z</time>
      </trkpt>
      <trkpt lat="40.311632" lon="-3.448711">
        <ele>585.8</ele>
        <time>1970-01-01T00:23:56.000Z</time>
      </trkpt>
      <trkpt lat="40.311553" lon="-3.448735">
        <ele>585.6</ele>
        <time>1970-01-01T00:23:57.000Z</time>
      </trkpt>
      <trkpt lat="40.311477" lon="-3.44876">
        <ele>585.4</ele>
        <time>1970-01-01T00:23:58.000Z</time>
      </trkpt>
      <trkpt lat="40.311403" lon="-3.44879">
        <ele>585.4</ele>
        <time>1970-01-01T00:23:59.000Z</time>
      </trkpt>
      <trkpt lat="40.311331" lon="-3.44882">
        <ele>585.2</ele>
        <time>1970-01-01T00:24:00.000Z</time>
      </trkpt>
      <trkpt lat="40.311262" lon="-3.448847">
        <ele>585.2</ele>
        <time>1970-01-01T00:24:01.000Z</time>
      </trkpt>
      <trkpt lat="40.311194" lon="-3.448876">
        <ele>585.2</ele>
        <time>1970-01-01T00:24:02.000Z</time>
      </trkpt>
      <trkpt lat="40.311127" lon="-3.448909">
        <ele>585.2</ele>
        <time>1970-01-01T00:24:03.000Z</time>
      </trkpt>
      <trkpt lat="40.31106" lon="-3.448946">
        <ele>585.2</ele>
        <time>1970-01-01T00:24:04.000Z</time>
      </trkpt>
      <trkpt lat="40.310994" lon="-3.448989">
        <ele>585</ele>
        <time>1970-01-01T00:24:05.000Z</time>
      </trkpt>
      <trkpt lat="40.310925" lon="-3.449033">
        <ele>585</ele>
        <time>1970-01-01T00:24:06.000Z</time>
      </trkpt>
      <trkpt lat="40.310856" lon="-3.449076">
        <ele>585</ele>
        <time>1970-01-01T00:24:07.000Z</time>
      </trkpt>
      <trkpt lat="40.310787" lon="-3.449119">
        <ele>585</ele>
        <time>1970-01-01T00:24:08.000Z</time>
      </trkpt>
      <trkpt lat="40.310719" lon="-3.449164">
        <ele>585</ele>
        <time>1970-01-01T00:24:09.000Z</time>
      </trkpt>
      <trkpt lat="40.310651" lon="-3.449209">
        <ele>585</ele>
        <time>1970-01-01T00:24:10.000Z</time>
      </trkpt>
      <trkpt lat="40.310582" lon="-3.449255">
        <ele>585</ele>
        <time>1970-01-01T00:24:11.000Z</time>
      </trkpt>
      <trkpt lat="40.310514" lon="-3.4493">
        <ele>584.8</ele>
        <time>1970-01-01T00:24:12.000Z</time>
      </trkpt>
      <trkpt lat="40.310444" lon="-3.449343">
        <ele>584.8</ele>
        <time>1970-01-01T00:24:13.000Z</time>
      </trkpt>
      <trkpt lat="40.310375" lon="-3.449387">
        <ele>584.8</ele>
        <time>1970-01-01T00:24:14.000Z</time>
      </trkpt>
      <trkpt lat="40.310308" lon="-3.449432">
        <ele>584.8</ele>
        <time>1970-01-01T00:24:15.000Z</time>
      </trkpt>
      <trkpt lat="40.310239" lon="-3.449474">
        <ele>584.8</ele>
        <time>1970-01-01T00:24:16.000Z</time>
      </trkpt>
      <trkpt lat="40.31017" lon="-3.449518">
        <ele>584.8</ele>
        <time>1970-01-01T00:24:17.000Z</time>
      </trkpt>
      <trkpt lat="40.310102" lon="-3.449561">
        <ele>584.8</ele>
        <time>1970-01-01T00:24:18.000Z</time>
      </trkpt>
      <trkpt lat="40.310033" lon="-3.4496">
        <ele>584.8</ele>
        <time>1970-01-01T00:24:19.000Z</time>
      </trkpt>
      <trkpt lat="40.309966" lon="-3.449635">
        <ele>584.8</ele>
        <time>1970-01-01T00:24:20.000Z</time>
      </trkpt>
      <trkpt lat="40.309898" lon="-3.449665">
        <ele>584.8</ele>
        <time>1970-01-01T00:24:21.000Z</time>
      </trkpt>
      <trkpt lat="40.309836" lon="-3.44969">
        <ele>584.8</ele>
        <time>1970-01-01T00:24:22.000Z</time>
      </trkpt>
      <trkpt lat="40.309778" lon="-3.449722">
        <ele>584.6</ele>
        <time>1970-01-01T00:24:23.000Z</time>
      </trkpt>
      <trkpt lat="40.30973" lon="-3.449773">
        <ele>584.6</ele>
        <time>1970-01-01T00:24:24.000Z</time>
      </trkpt>
      <trkpt lat="40.309693" lon="-3.449839">
        <ele>584.6</ele>
        <time>1970-01-01T00:24:25.000Z</time>
      </trkpt>
      <trkpt lat="40.309667" lon="-3.449911">
        <ele>584.4</ele>
        <time>1970-01-01T00:24:26.000Z</time>
      </trkpt>
      <trkpt lat="40.309642" lon="-3.44999">
        <ele>584.4</ele>
        <time>1970-01-01T00:24:27.000Z</time>
      </trkpt>
      <trkpt lat="40.309606" lon="-3.450068">
        <ele>584.4</ele>
        <time>1970-01-01T00:24:28.000Z</time>
      </trkpt>
      <trkpt lat="40.309562" lon="-3.45014">
        <ele>584.4</ele>
        <time>1970-01-01T00:24:29.000Z</time>
      </trkpt>
      <trkpt lat="40.309512" lon="-3.450204">
        <ele>584.2</ele>
        <time>1970-01-01T00:24:30.000Z</time>
      </trkpt>
      <trkpt lat="40.309457" lon="-3.450258">
        <ele>584.2</ele>
        <time>1970-01-01T00:24:31.000Z</time>
      </trkpt>
      <trkpt lat="40.309399" lon="-3.450301">
        <ele>584.2</ele>
        <time>1970-01-01T00:24:32.000Z</time>
      </trkpt>
      <trkpt lat="40.309339" lon="-3.450335">
        <ele>584.2</ele>
        <time>1970-01-01T00:24:33.000Z</time>
      </trkpt>
      <trkpt lat="40.309276" lon="-3.450352">
        <ele>584.2</ele>
        <time>1970-01-01T00:24:34.000Z</time>
      </trkpt>
      <trkpt lat="40.309216" lon="-3.450351">
        <ele>584.4</ele>
        <time>1970-01-01T00:24:35.000Z</time>
      </trkpt>
      <trkpt lat="40.309159" lon="-3.450333">
        <ele>584.4</ele>
        <time>1970-01-01T00:24:36.000Z</time>
      </trkpt>
      <trkpt lat="40.309107" lon="-3.450302">
        <ele>584.4</ele>
        <time>1970-01-01T00:24:37.000Z</time>
      </trkpt>
      <trkpt lat="40.309065" lon="-3.450258">
        <ele>584.4</ele>
        <time>1970-01-01T00:24:38.000Z</time>
      </trkpt>
      <trkpt lat="40.309023" lon="-3.450206">
        <ele>584.4</ele>
        <time>1970-01-01T00:24:39.000Z</time>
      </trkpt>
      <trkpt lat="40.30898" lon="-3.450152">
        <ele>584.4</ele>
        <time>1970-01-01T00:24:40.000Z</time>
      </trkpt>
      <trkpt lat="40.308936" lon="-3.450097">
        <ele>584.6</ele>
        <time>1970-01-01T00:24:41.000Z</time>
      </trkpt>
      <trkpt lat="40.308891" lon="-3.450048">
        <ele>584.8</ele>
        <time>1970-01-01T00:24:42.000Z</time>
      </trkpt>
      <trkpt lat="40.308843" lon="-3.450003">
        <ele>585</ele>
        <time>1970-01-01T00:24:43.000Z</time>
      </trkpt>
      <trkpt lat="40.308797" lon="-3.449961">
        <ele>585.2</ele>
        <time>1970-01-01T00:24:44.000Z</time>
      </trkpt>
      <trkpt lat="40.308749" lon="-3.449919">
        <ele>585.4</ele>
        <time>1970-01-01T00:24:45.000Z</time>
      </trkpt>
      <trkpt lat="40.308702" lon="-3.449873">
        <ele>585.4</ele>
        <time>1970-01-01T00:24:46.000Z</time>
      </trkpt>
      <trkpt lat="40.308656" lon="-3.449826">
        <ele>585.6</ele>
        <time>1970-01-01T00:24:47.000Z</time>
      </trkpt>
      <trkpt lat="40.308609" lon="-3.449784">
        <ele>585.8</ele>
        <time>1970-01-01T00:24:48.000Z</time>
      </trkpt>
      <trkpt lat="40.308563" lon="-3.44974">
        <ele>585.8</ele>
        <time>1970-01-01T00:24:49.000Z</time>
      </trkpt>
      <trkpt lat="40.308519" lon="-3.449691">
        <ele>586</ele>
        <time>1970-01-01T00:24:50.000Z</time>
      </trkpt>
      <trkpt lat="40.308471" lon="-3.449648">
        <ele>586.2</ele>
        <time>1970-01-01T00:24:51.000Z</time>
      </trkpt>
      <trkpt lat="40.308422" lon="-3.44961">
        <ele>586.4</ele>
        <time>1970-01-01T00:24:52.000Z</time>
      </trkpt>
      <trkpt lat="40.308373" lon="-3.449571">
        <ele>586.4</ele>
        <time>1970-01-01T00:24:53.000Z</time>
      </trkpt>
      <trkpt lat="40.308322" lon="-3.449531">
        <ele>586.6</ele>
        <time>1970-01-01T00:24:54.000Z</time>
      </trkpt>
      <trkpt lat="40.308273" lon="-3.449491">
        <ele>586.8</ele>
        <time>1970-01-01T00:24:55.000Z</time>
      </trkpt>
      <trkpt lat="40.308225" lon="-3.449448">
        <ele>587</ele>
        <time>1970-01-01T00:24:56.000Z</time>
      </trkpt>
      <trkpt lat="40.308179" lon="-3.449403">
        <ele>587.2</ele>
        <time>1970-01-01T00:24:57.000Z</time>
      </trkpt>
      <trkpt lat="40.308133" lon="-3.449356">
        <ele>587.2</ele>
        <time>1970-01-01T00:24:58.000Z</time>
      </trkpt>
      <trkpt lat="40.308088" lon="-3.449312">
        <ele>587.4</ele>
        <time>1970-01-01T00:24:59.000Z</time>
      </trkpt>
      <trkpt lat="40.30804" lon="-3.44927">
        <ele>587.6</ele>
        <time>1970-01-01T00:25:00.000Z</time>
      </trkpt>
      <trkpt lat="40.307995" lon="-3.449229">
        <ele>587.6</ele>
        <time>1970-01-01T00:25:01.000Z</time>
      </trkpt>
      <trkpt lat="40.307948" lon="-3.449191">
        <ele>587.8</ele>
        <time>1970-01-01T00:25:02.000Z</time>
      </trkpt>
      <trkpt lat="40.307902" lon="-3.449153">
        <ele>588</ele>
        <time>1970-01-01T00:25:03.000Z</time>
      </trkpt>
      <trkpt lat="40.307856" lon="-3.449116">
        <ele>588</ele>
        <time>1970-01-01T00:25:04.000Z</time>
      </trkpt>
      <trkpt lat="40.307808" lon="-3.449082">
        <ele>588.2</ele>
        <time>1970-01-01T00:25:05.000Z</time>
      </trkpt>
      <trkpt lat="40.30776" lon="-3.449048">
        <ele>588.4</ele>
        <time>1970-01-01T00:25:06.000Z</time>
      </trkpt>
      <trkpt lat="40.307711" lon="-3.449013">
        <ele>588.4</ele>
        <time>1970-01-01T00:25:07.000Z</time>
      </trkpt>
      <trkpt lat="40.30766" lon="-3.448978">
        <ele>588.6</ele>
        <time>1970-01-01T00:25:08.000Z</time>
      </trkpt>
      <trkpt lat="40.307609" lon="-3.448943">
        <ele>588.8</ele>
        <time>1970-01-01T00:25:09.000Z</time>
      </trkpt>
      <trkpt lat="40.307559" lon="-3.44891">
        <ele>589</ele>
        <time>1970-01-01T00:25:10.000Z</time>
      </trkpt>
      <trkpt lat="40.307508" lon="-3.448876">
        <ele>589</ele>
        <time>1970-01-01T00:25:11.000Z</time>
      </trkpt>
      <trkpt lat="40.307457" lon="-3.44884">
        <ele>589.2</ele>
        <time>1970-01-01T00:25:12.000Z</time>
      </trkpt>
      <trkpt lat="40.307411" lon="-3.448809">
        <ele>589.4</ele>
        <time>1970-01-01T00:25:13.000Z</time>
      </trkpt>
      <trkpt lat="40.307366" lon="-3.44878">
        <ele>589.6</ele>
        <time>1970-01-01T00:25:14.000Z</time>
      </trkpt>
      <trkpt lat="40.307322" lon="-3.448753">
        <ele>589.8</ele>
        <time>1970-01-01T00:25:15.000Z</time>
      </trkpt>
      <trkpt lat="40.307278" lon="-3.44873">
        <ele>589.8</ele>
        <time>1970-01-01T00:25:16.000Z</time>
      </trkpt>
      <trkpt lat="40.307233" lon="-3.448707">
        <ele>590</ele>
        <time>1970-01-01T00:25:17.000Z</time>
      </trkpt>
      <trkpt lat="40.30719" lon="-3.448685">
        <ele>590.2</ele>
        <time>1970-01-01T00:25:18.000Z</time>
      </trkpt>
      <trkpt lat="40.307144" lon="-3.448664">
        <ele>590.4</ele>
        <time>1970-01-01T00:25:19.000Z</time>
      </trkpt>
      <trkpt lat="40.307102" lon="-3.448644">
        <ele>590.6</ele>
        <time>1970-01-01T00:25:20.000Z</time>
      </trkpt>
      <trkpt lat="40.307059" lon="-3.448628">
        <ele>591</ele>
        <time>1970-01-01T00:25:21.000Z</time>
      </trkpt>
      <trkpt lat="40.307017" lon="-3.448613">
        <ele>591.2</ele>
        <time>1970-01-01T00:25:22.000Z</time>
      </trkpt>
      <trkpt lat="40.306974" lon="-3.448597">
        <ele>591.4</ele>
        <time>1970-01-01T00:25:23.000Z</time>
      </trkpt>
      <trkpt lat="40.30693" lon="-3.448581">
        <ele>591.4</ele>
        <time>1970-01-01T00:25:24.000Z</time>
      </trkpt>
      <trkpt lat="40.306887" lon="-3.448567">
        <ele>591.8</ele>
        <time>1970-01-01T00:25:25.000Z</time>
      </trkpt>
      <trkpt lat="40.306846" lon="-3.448558">
        <ele>592.2</ele>
        <time>1970-01-01T00:25:26.000Z</time>
      </trkpt>
      <trkpt lat="40.306808" lon="-3.448549">
        <ele>592.2</ele>
        <time>1970-01-01T00:25:27.000Z</time>
      </trkpt>
      <trkpt lat="40.306772" lon="-3.448538">
        <ele>592.4</ele>
        <time>1970-01-01T00:25:28.000Z</time>
      </trkpt>
      <trkpt lat="40.306738" lon="-3.448532">
        <ele>592.8</ele>
        <time>1970-01-01T00:25:29.000Z</time>
      </trkpt>
      <trkpt lat="40.306703" lon="-3.448529">
        <ele>593.2</ele>
        <time>1970-01-01T00:25:30.000Z</time>
      </trkpt>
      <trkpt lat="40.306666" lon="-3.448526">
        <ele>593.6</ele>
        <time>1970-01-01T00:25:31.000Z</time>
      </trkpt>
      <trkpt lat="40.306627" lon="-3.448531">
        <ele>594</ele>
        <time>1970-01-01T00:25:32.000Z</time>
      </trkpt>
      <trkpt lat="40.306585" lon="-3.448548">
        <ele>594.4</ele>
        <time>1970-01-01T00:25:33.000Z</time>
      </trkpt>
      <trkpt lat="40.306537" lon="-3.448572">
        <ele>594.8</ele>
        <time>1970-01-01T00:25:34.000Z</time>
      </trkpt>
      <trkpt lat="40.306483" lon="-3.448593">
        <ele>594.8</ele>
        <time>1970-01-01T00:25:35.000Z</time>
      </trkpt>
      <trkpt lat="40.306427" lon="-3.448611">
        <ele>595</ele>
        <time>1970-01-01T00:25:36.000Z</time>
      </trkpt>
      <trkpt lat="40.306371" lon="-3.448618">
        <ele>595</ele>
        <time>1970-01-01T00:25:37.000Z</time>
      </trkpt>
      <trkpt lat="40.306313" lon="-3.448616">
        <ele>595</ele>
        <time>1970-01-01T00:25:38.000Z</time>
      </trkpt>
      <trkpt lat="40.306256" lon="-3.448606">
        <ele>595</ele>
        <time>1970-01-01T00:25:39.000Z</time>
      </trkpt>
      <trkpt lat="40.306203" lon="-3.448586">
        <ele>595.2</ele>
        <time>1970-01-01T00:25:40.000Z</time>
      </trkpt>
      <trkpt lat="40.306156" lon="-3.448554">
        <ele>595.2</ele>
        <time>1970-01-01T00:25:41.000Z</time>
      </trkpt>
      <trkpt lat="40.306111" lon="-3.448518">
        <ele>595.2</ele>
        <time>1970-01-01T00:25:42.000Z</time>
      </trkpt>
      <trkpt lat="40.30607" lon="-3.448481">
        <ele>595.2</ele>
        <time>1970-01-01T00:25:43.000Z</time>
      </trkpt>
      <trkpt lat="40.306036" lon="-3.448446">
        <ele>595.2</ele>
        <time>1970-01-01T00:25:44.000Z</time>
      </trkpt>
      <trkpt lat="40.306015" lon="-3.448411">
        <ele>595.2</ele>
        <time>1970-01-01T00:25:45.000Z</time>
      </trkpt>
      <trkpt lat="40.305998" lon="-3.448392">
        <ele>595.2</ele>
        <time>1970-01-01T00:25:46.000Z</time>
      </trkpt>
      <trkpt lat="40.305984" lon="-3.448382">
        <ele>595.2</ele>
        <time>1970-01-01T00:25:47.000Z</time>
      </trkpt>
      <trkpt lat="40.305971" lon="-3.448369">
        <ele>595.2</ele>
        <time>1970-01-01T00:25:48.000Z</time>
      </trkpt>
      <trkpt lat="40.305952" lon="-3.448358">
        <ele>595.4</ele>
        <time>1970-01-01T00:25:49.000Z</time>
      </trkpt>
      <trkpt lat="40.305924" lon="-3.448344">
        <ele>595.4</ele>
        <time>1970-01-01T00:25:50.000Z</time>
      </trkpt>
      <trkpt lat="40.305899" lon="-3.448321">
        <ele>595.4</ele>
        <time>1970-01-01T00:25:51.000Z</time>
      </trkpt>
      <trkpt lat="40.305882" lon="-3.448281">
        <ele>595.4</ele>
        <time>1970-01-01T00:25:52.000Z</time>
      </trkpt>
      <trkpt lat="40.305874" lon="-3.448226">
        <ele>595.4</ele>
        <time>1970-01-01T00:25:53.000Z</time>
      </trkpt>
      <trkpt lat="40.305869" lon="-3.448166">
        <ele>595.6</ele>
        <time>1970-01-01T00:25:54.000Z</time>
      </trkpt>
      <trkpt lat="40.305861" lon="-3.448112">
        <ele>595.6</ele>
        <time>1970-01-01T00:25:55.000Z</time>
      </trkpt>
      <trkpt lat="40.305841" lon="-3.448072">
        <ele>595.6</ele>
        <time>1970-01-01T00:25:56.000Z</time>
      </trkpt>
      <trkpt lat="40.305813" lon="-3.448049">
        <ele>595.6</ele>
        <time>1970-01-01T00:25:57.000Z</time>
      </trkpt>
      <trkpt lat="40.305779" lon="-3.448039">
        <ele>595.8</ele>
        <time>1970-01-01T00:25:58.000Z</time>
      </trkpt>
      <trkpt lat="40.305743" lon="-3.448034">
        <ele>595.8</ele>
        <time>1970-01-01T00:25:59.000Z</time>
      </trkpt>
      <trkpt lat="40.305706" lon="-3.448028">
        <ele>595.8</ele>
        <time>1970-01-01T00:26:00.000Z</time>
      </trkpt>
      <trkpt lat="40.30567" lon="-3.448023">
        <ele>596</ele>
        <time>1970-01-01T00:26:01.000Z</time>
      </trkpt>
      <trkpt lat="40.305631" lon="-3.448017">
        <ele>596</ele>
        <time>1970-01-01T00:26:02.000Z</time>
      </trkpt>
      <trkpt lat="40.305594" lon="-3.448009">
        <ele>596.2</ele>
        <time>1970-01-01T00:26:03.000Z</time>
      </trkpt>
      <trkpt lat="40.305557" lon="-3.448001">
        <ele>596.4</ele>
        <time>1970-01-01T00:26:04.000Z</time>
      </trkpt>
      <trkpt lat="40.305518" lon="-3.447993">
        <ele>596.6</ele>
        <time>1970-01-01T00:26:05.000Z</time>
      </trkpt>
      <trkpt lat="40.305482" lon="-3.447982">
        <ele>597</ele>
        <time>1970-01-01T00:26:06.000Z</time>
      </trkpt>
      <trkpt lat="40.305448" lon="-3.447971">
        <ele>597.2</ele>
        <time>1970-01-01T00:26:07.000Z</time>
      </trkpt>
      <trkpt lat="40.305409" lon="-3.447964">
        <ele>597.6</ele>
        <time>1970-01-01T00:26:08.000Z</time>
      </trkpt>
      <trkpt lat="40.305364" lon="-3.447958">
        <ele>597.8</ele>
        <time>1970-01-01T00:26:09.000Z</time>
      </trkpt>
      <trkpt lat="40.30532" lon="-3.447955">
        <ele>598.2</ele>
        <time>1970-01-01T00:26:10.000Z</time>
      </trkpt>
      <trkpt lat="40.305281" lon="-3.447946">
        <ele>598.4</ele>
        <time>1970-01-01T00:26:11.000Z</time>
      </trkpt>
      <trkpt lat="40.305237" lon="-3.447942">
        <ele>598.8</ele>
        <time>1970-01-01T00:26:12.000Z</time>
      </trkpt>
      <trkpt lat="40.305191" lon="-3.447938">
        <ele>598.8</ele>
        <time>1970-01-01T00:26:13.000Z</time>
      </trkpt>
      <trkpt lat="40.305146" lon="-3.44793">
        <ele>599</ele>
        <time>1970-01-01T00:26:14.000Z</time>
      </trkpt>
      <trkpt lat="40.305102" lon="-3.447924">
        <ele>599</ele>
        <time>1970-01-01T00:26:15.000Z</time>
      </trkpt>
      <trkpt lat="40.305062" lon="-3.447915">
        <ele>599</ele>
        <time>1970-01-01T00:26:16.000Z</time>
      </trkpt>
      <trkpt lat="40.30502" lon="-3.447905">
        <ele>599.2</ele>
        <time>1970-01-01T00:26:17.000Z</time>
      </trkpt>
      <trkpt lat="40.304979" lon="-3.447896">
        <ele>599.2</ele>
        <time>1970-01-01T00:26:18.000Z</time>
      </trkpt>
      <trkpt lat="40.30494" lon="-3.447891">
        <ele>599.4</ele>
        <time>1970-01-01T00:26:19.000Z</time>
      </trkpt>
      <trkpt lat="40.304896" lon="-3.447889">
        <ele>599.4</ele>
        <time>1970-01-01T00:26:20.000Z</time>
      </trkpt>
      <trkpt lat="40.304854" lon="-3.447883">
        <ele>599.6</ele>
        <time>1970-01-01T00:26:21.000Z</time>
      </trkpt>
      <trkpt lat="40.304809" lon="-3.447879">
        <ele>599.6</ele>
        <time>1970-01-01T00:26:22.000Z</time>
      </trkpt>
      <trkpt lat="40.304765" lon="-3.447871">
        <ele>600</ele>
        <time>1970-01-01T00:26:23.000Z</time>
      </trkpt>
      <trkpt lat="40.304723" lon="-3.447859">
        <ele>600</ele>
        <time>1970-01-01T00:26:24.000Z</time>
      </trkpt>
      <trkpt lat="40.30468" lon="-3.44785">
        <ele>600.4</ele>
        <time>1970-01-01T00:26:25.000Z</time>
      </trkpt>
      <trkpt lat="40.304636" lon="-3.447843">
        <ele>600.6</ele>
        <time>1970-01-01T00:26:26.000Z</time>
      </trkpt>
      <trkpt lat="40.304592" lon="-3.447835">
        <ele>600.6</ele>
        <time>1970-01-01T00:26:27.000Z</time>
      </trkpt>
      <trkpt lat="40.304549" lon="-3.447823">
        <ele>600.8</ele>
        <time>1970-01-01T00:26:28.000Z</time>
      </trkpt>
      <trkpt lat="40.304507" lon="-3.447808">
        <ele>600.8</ele>
        <time>1970-01-01T00:26:29.000Z</time>
      </trkpt>
      <trkpt lat="40.304464" lon="-3.447795">
        <ele>601</ele>
        <time>1970-01-01T00:26:30.000Z</time>
      </trkpt>
      <trkpt lat="40.304417" lon="-3.44778">
        <ele>601</ele>
        <time>1970-01-01T00:26:31.000Z</time>
      </trkpt>
      <trkpt lat="40.304378" lon="-3.447766">
        <ele>601</ele>
        <time>1970-01-01T00:26:32.000Z</time>
      </trkpt>
      <trkpt lat="40.304343" lon="-3.447757">
        <ele>601</ele>
        <time>1970-01-01T00:26:33.000Z</time>
      </trkpt>
      <trkpt lat="40.304307" lon="-3.447747">
        <ele>601.2</ele>
        <time>1970-01-01T00:26:34.000Z</time>
      </trkpt>
      <trkpt lat="40.304268" lon="-3.44773">
        <ele>601.2</ele>
        <time>1970-01-01T00:26:35.000Z</time>
      </trkpt>
      <trkpt lat="40.304242" lon="-3.447696">
        <ele>601.2</ele>
        <time>1970-01-01T00:26:36.000Z</time>
      </trkpt>
      <trkpt lat="40.304229" lon="-3.447647">
        <ele>601.4</ele>
        <time>1970-01-01T00:26:37.000Z</time>
      </trkpt>
      <trkpt lat="40.304229" lon="-3.447596">
        <ele>601.4</ele>
        <time>1970-01-01T00:26:38.000Z</time>
      </trkpt>
      <trkpt lat="40.304235" lon="-3.447543">
        <ele>601.4</ele>
        <time>1970-01-01T00:26:39.000Z</time>
      </trkpt>
      <trkpt lat="40.304243" lon="-3.447489">
        <ele>601.4</ele>
        <time>1970-01-01T00:26:40.000Z</time>
      </trkpt>
      <trkpt lat="40.304252" lon="-3.447429">
        <ele>601.6</ele>
        <time>1970-01-01T00:26:41.000Z</time>
      </trkpt>
      <trkpt lat="40.304259" lon="-3.447365">
        <ele>601.6</ele>
        <time>1970-01-01T00:26:42.000Z</time>
      </trkpt>
      <trkpt lat="40.304264" lon="-3.447299">
        <ele>601.6</ele>
        <time>1970-01-01T00:26:43.000Z</time>
      </trkpt>
      <trkpt lat="40.304271" lon="-3.447227">
        <ele>601.4</ele>
        <time>1970-01-01T00:26:44.000Z</time>
      </trkpt>
      <trkpt lat="40.304273" lon="-3.447155">
        <ele>601.4</ele>
        <time>1970-01-01T00:26:45.000Z</time>
      </trkpt>
      <trkpt lat="40.304269" lon="-3.447086">
        <ele>601.4</ele>
        <time>1970-01-01T00:26:46.000Z</time>
      </trkpt>
      <trkpt lat="40.304264" lon="-3.447022">
        <ele>601.4</ele>
        <time>1970-01-01T00:26:47.000Z</time>
      </trkpt>
      <trkpt lat="40.304251" lon="-3.446973">
        <ele>601.4</ele>
        <time>1970-01-01T00:26:48.000Z</time>
      </trkpt>
      <trkpt lat="40.3042" lon="-3.446947">
        <ele>601.2</ele>
        <time>1970-01-01T00:26:49.000Z</time>
      </trkpt>
      <trkpt lat="40.304138" lon="-3.446937">
        <ele>601</ele>
        <time>1970-01-01T00:26:50.000Z</time>
      </trkpt>
      <trkpt lat="40.304079" lon="-3.446926">
        <ele>601</ele>
        <time>1970-01-01T00:26:51.000Z</time>
      </trkpt>
      <trkpt lat="40.304025" lon="-3.446916">
        <ele>600.8</ele>
        <time>1970-01-01T00:26:52.000Z</time>
      </trkpt>
      <trkpt lat="40.303975" lon="-3.446904">
        <ele>600.6</ele>
        <time>1970-01-01T00:26:53.000Z</time>
      </trkpt>
      <trkpt lat="40.303929" lon="-3.446893">
        <ele>600.6</ele>
        <time>1970-01-01T00:26:54.000Z</time>
      </trkpt>
      <trkpt lat="40.303882" lon="-3.446881">
        <ele>600.6</ele>
        <time>1970-01-01T00:26:55.000Z</time>
      </trkpt>
      <trkpt lat="40.303836" lon="-3.446871">
        <ele>600.6</ele>
        <time>1970-01-01T00:26:56.000Z</time>
      </trkpt>
      <trkpt lat="40.30379" lon="-3.446864">
        <ele>600.6</ele>
        <time>1970-01-01T00:26:57.000Z</time>
      </trkpt>
      <trkpt lat="40.303749" lon="-3.446854">
        <ele>600.8</ele>
        <time>1970-01-01T00:26:58.000Z</time>
      </trkpt>
      <trkpt lat="40.303711" lon="-3.446842">
        <ele>600.8</ele>
        <time>1970-01-01T00:26:59.000Z</time>
      </trkpt>
      <trkpt lat="40.303673" lon="-3.446838">
        <ele>601</ele>
        <time>1970-01-01T00:27:00.000Z</time>
      </trkpt>
      <trkpt lat="40.303635" lon="-3.446839">
        <ele>601.2</ele>
        <time>1970-01-01T00:27:01.000Z</time>
      </trkpt>
      <trkpt lat="40.303607" lon="-3.446853">
        <ele>601.4</ele>
        <time>1970-01-01T00:27:02.000Z</time>
      </trkpt>
      <trkpt lat="40.303588" lon="-3.446885">
        <ele>601.6</ele>
        <time>1970-01-01T00:27:03.000Z</time>
      </trkpt>
      <trkpt lat="40.303578" lon="-3.446926">
        <ele>602</ele>
        <time>1970-01-01T00:27:04.000Z</time>
      </trkpt>
      <trkpt lat="40.303572" lon="-3.446966">
        <ele>602</ele>
        <time>1970-01-01T00:27:05.000Z</time>
      </trkpt>
      <trkpt lat="40.303584" lon="-3.447001">
        <ele>602.4</ele>
        <time>1970-01-01T00:27:06.000Z</time>
      </trkpt>
      <trkpt lat="40.303609" lon="-3.447027">
        <ele>602.6</ele>
        <time>1970-01-01T00:27:07.000Z</time>
      </trkpt>
      <trkpt lat="40.30364" lon="-3.447042">
        <ele>602.8</ele>
        <time>1970-01-01T00:27:08.000Z</time>
      </trkpt>
      <trkpt lat="40.303673" lon="-3.447055">
        <ele>602.8</ele>
        <time>1970-01-01T00:27:09.000Z</time>
      </trkpt>
      <trkpt lat="40.303707" lon="-3.447063">
        <ele>602.8</ele>
        <time>1970-01-01T00:27:10.000Z</time>
      </trkpt>
      <trkpt lat="40.303735" lon="-3.447071">
        <ele>603</ele>
        <time>1970-01-01T00:27:11.000Z</time>
      </trkpt>
      <trkpt lat="40.303755" lon="-3.447077">
        <ele>603</ele>
        <time>1970-01-01T00:27:12.000Z</time>
      </trkpt>
      <trkpt lat="40.303771" lon="-3.447079">
        <ele>603</ele>
        <time>1970-01-01T00:27:13.000Z</time>
      </trkpt>
      <trkpt lat="40.303778" lon="-3.447077">
        <ele>603</ele>
        <time>1970-01-01T00:27:14.000Z</time>
      </trkpt>
      <trkpt lat="40.303778" lon="-3.447077">
        <ele>603</ele>
        <time>1970-01-01T00:27:15.000Z</time>
      </trkpt>
      <trkpt lat="40.303778" lon="-3.447077">
        <ele>603</ele>
        <time>1970-01-01T00:27:16.000Z</time>
      </trkpt>
      <trkpt lat="40.303738" lon="-3.447072">
        <ele>599</ele>
        <time>1970-01-01T00:35:06.000Z</time>
      </trkpt>
      <trkpt lat="40.30372" lon="-3.447071">
        <ele>602.4</ele>
        <time>1970-01-01T00:35:07.000Z</time>
      </trkpt>
      <trkpt lat="40.303699" lon="-3.447074">
        <ele>602.4</ele>
        <time>1970-01-01T00:35:08.000Z</time>
      </trkpt>
      <trkpt lat="40.303677" lon="-3.447075">
        <ele>602.4</ele>
        <time>1970-01-01T00:35:09.000Z</time>
      </trkpt>
      <trkpt lat="40.303653" lon="-3.447076">
        <ele>602.4</ele>
        <time>1970-01-01T00:35:10.000Z</time>
      </trkpt>
      <trkpt lat="40.303625" lon="-3.447075">
        <ele>602.4</ele>
        <time>1970-01-01T00:35:11.000Z</time>
      </trkpt>
      <trkpt lat="40.303598" lon="-3.447073">
        <ele>602.4</ele>
        <time>1970-01-01T00:35:12.000Z</time>
      </trkpt>
      <trkpt lat="40.303565" lon="-3.44706">
        <ele>602.4</ele>
        <time>1970-01-01T00:35:13.000Z</time>
      </trkpt>
      <trkpt lat="40.303545" lon="-3.447039">
        <ele>602.4</ele>
        <time>1970-01-01T00:35:14.000Z</time>
      </trkpt>
      <trkpt lat="40.30353" lon="-3.447013">
        <ele>602.4</ele>
        <time>1970-01-01T00:35:15.000Z</time>
      </trkpt>
      <trkpt lat="40.303528" lon="-3.446985">
        <ele>602.6</ele>
        <time>1970-01-01T00:35:16.000Z</time>
      </trkpt>
      <trkpt lat="40.303533" lon="-3.446963">
        <ele>602.6</ele>
        <time>1970-01-01T00:35:17.000Z</time>
      </trkpt>
      <trkpt lat="40.303545" lon="-3.446937">
        <ele>602.6</ele>
        <time>1970-01-01T00:35:18.000Z</time>
      </trkpt>
      <trkpt lat="40.303561" lon="-3.446922">
        <ele>602.6</ele>
        <time>1970-01-01T00:35:19.000Z</time>
      </trkpt>
      <trkpt lat="40.303583" lon="-3.446915">
        <ele>602.6</ele>
        <time>1970-01-01T00:35:20.000Z</time>
      </trkpt>
      <trkpt lat="40.303608" lon="-3.446916">
        <ele>602.6</ele>
        <time>1970-01-01T00:35:21.000Z</time>
      </trkpt>
      <trkpt lat="40.303635" lon="-3.446921">
        <ele>602.6</ele>
        <time>1970-01-01T00:35:22.000Z</time>
      </trkpt>
      <trkpt lat="40.30366" lon="-3.446924">
        <ele>602.6</ele>
        <time>1970-01-01T00:35:23.000Z</time>
      </trkpt>
      <trkpt lat="40.303688" lon="-3.446926">
        <ele>602.6</ele>
        <time>1970-01-01T00:35:24.000Z</time>
      </trkpt>
      <trkpt lat="40.303713" lon="-3.446926">
        <ele>602.6</ele>
        <time>1970-01-01T00:35:25.000Z</time>
      </trkpt>
      <trkpt lat="40.303734" lon="-3.446922">
        <ele>602.6</ele>
        <time>1970-01-01T00:35:26.000Z</time>
      </trkpt>
      <trkpt lat="40.303756" lon="-3.446918">
        <ele>602.6</ele>
        <time>1970-01-01T00:35:27.000Z</time>
      </trkpt>
      <trkpt lat="40.303782" lon="-3.446915">
        <ele>602.4</ele>
        <time>1970-01-01T00:35:28.000Z</time>
      </trkpt>
      <trkpt lat="40.303811" lon="-3.446913">
        <ele>602.4</ele>
        <time>1970-01-01T00:35:29.000Z</time>
      </trkpt>
      <trkpt lat="40.303844" lon="-3.446905">
        <ele>602</ele>
        <time>1970-01-01T00:35:30.000Z</time>
      </trkpt>
      <trkpt lat="40.303879" lon="-3.446896">
        <ele>601.8</ele>
        <time>1970-01-01T00:35:31.000Z</time>
      </trkpt>
      <trkpt lat="40.303916" lon="-3.446903">
        <ele>601.8</ele>
        <time>1970-01-01T00:35:32.000Z</time>
      </trkpt>
      <trkpt lat="40.303956" lon="-3.446915">
        <ele>601.6</ele>
        <time>1970-01-01T00:35:33.000Z</time>
      </trkpt>
      <trkpt lat="40.303998" lon="-3.44693">
        <ele>601.4</ele>
        <time>1970-01-01T00:35:34.000Z</time>
      </trkpt>
      <trkpt lat="40.304043" lon="-3.446941">
        <ele>601.2</ele>
        <time>1970-01-01T00:35:35.000Z</time>
      </trkpt>
      <trkpt lat="40.304092" lon="-3.446952">
        <ele>601.2</ele>
        <time>1970-01-01T00:35:36.000Z</time>
      </trkpt>
      <trkpt lat="40.304142" lon="-3.446961">
        <ele>600.8</ele>
        <time>1970-01-01T00:35:37.000Z</time>
      </trkpt>
      <trkpt lat="40.304191" lon="-3.446969">
        <ele>600.8</ele>
        <time>1970-01-01T00:35:38.000Z</time>
      </trkpt>
      <trkpt lat="40.304237" lon="-3.446963">
        <ele>600.4</ele>
        <time>1970-01-01T00:35:39.000Z</time>
      </trkpt>
      <trkpt lat="40.304277" lon="-3.446945">
        <ele>600.4</ele>
        <time>1970-01-01T00:35:40.000Z</time>
      </trkpt>
      <trkpt lat="40.304305" lon="-3.446914">
        <ele>600.2</ele>
        <time>1970-01-01T00:35:41.000Z</time>
      </trkpt>
      <trkpt lat="40.304322" lon="-3.446875">
        <ele>599.8</ele>
        <time>1970-01-01T00:35:42.000Z</time>
      </trkpt>
      <trkpt lat="40.304341" lon="-3.446833">
        <ele>599.6</ele>
        <time>1970-01-01T00:35:43.000Z</time>
      </trkpt>
      <trkpt lat="40.304365" lon="-3.446804">
        <ele>599.4</ele>
        <time>1970-01-01T00:35:44.000Z</time>
      </trkpt>
      <trkpt lat="40.304389" lon="-3.446794">
        <ele>599.4</ele>
        <time>1970-01-01T00:35:45.000Z</time>
      </trkpt>
      <trkpt lat="40.304415" lon="-3.446789">
        <ele>599.2</ele>
        <time>1970-01-01T00:35:46.000Z</time>
      </trkpt>
      <trkpt lat="40.304442" lon="-3.446791">
        <ele>599.2</ele>
        <time>1970-01-01T00:35:47.000Z</time>
      </trkpt>
      <trkpt lat="40.304463" lon="-3.446793">
        <ele>599.2</ele>
        <time>1970-01-01T00:35:48.000Z</time>
      </trkpt>
      <trkpt lat="40.30448" lon="-3.44679">
        <ele>599</ele>
        <time>1970-01-01T00:35:49.000Z</time>
      </trkpt>
      <trkpt lat="40.304499" lon="-3.44678">
        <ele>599</ele>
        <time>1970-01-01T00:35:50.000Z</time>
      </trkpt>
      <trkpt lat="40.304522" lon="-3.446767">
        <ele>599</ele>
        <time>1970-01-01T00:35:51.000Z</time>
      </trkpt>
      <trkpt lat="40.304547" lon="-3.446752">
        <ele>599</ele>
        <time>1970-01-01T00:35:52.000Z</time>
      </trkpt>
      <trkpt lat="40.304579" lon="-3.446748">
        <ele>599</ele>
        <time>1970-01-01T00:35:53.000Z</time>
      </trkpt>
      <trkpt lat="40.304619" lon="-3.446756">
        <ele>599</ele>
        <time>1970-01-01T00:35:54.000Z</time>
      </trkpt>
      <trkpt lat="40.304662" lon="-3.446768">
        <ele>598.8</ele>
        <time>1970-01-01T00:35:55.000Z</time>
      </trkpt>
      <trkpt lat="40.304706" lon="-3.446778">
        <ele>598.8</ele>
        <time>1970-01-01T00:35:56.000Z</time>
      </trkpt>
      <trkpt lat="40.304752" lon="-3.446788">
        <ele>598.8</ele>
        <time>1970-01-01T00:35:57.000Z</time>
      </trkpt>
      <trkpt lat="40.304799" lon="-3.4468">
        <ele>598.6</ele>
        <time>1970-01-01T00:35:58.000Z</time>
      </trkpt>
      <trkpt lat="40.304843" lon="-3.446809">
        <ele>598.4</ele>
        <time>1970-01-01T00:35:59.000Z</time>
      </trkpt>
      <trkpt lat="40.304888" lon="-3.446818">
        <ele>598.4</ele>
        <time>1970-01-01T00:36:00.000Z</time>
      </trkpt>
      <trkpt lat="40.304936" lon="-3.446829">
        <ele>598.2</ele>
        <time>1970-01-01T00:36:01.000Z</time>
      </trkpt>
      <trkpt lat="40.304985" lon="-3.44684">
        <ele>598</ele>
        <time>1970-01-01T00:36:02.000Z</time>
      </trkpt>
      <trkpt lat="40.305034" lon="-3.446846">
        <ele>598</ele>
        <time>1970-01-01T00:36:03.000Z</time>
      </trkpt>
      <trkpt lat="40.305082" lon="-3.446853">
        <ele>597.8</ele>
        <time>1970-01-01T00:36:04.000Z</time>
      </trkpt>
      <trkpt lat="40.305127" lon="-3.446857">
        <ele>597.6</ele>
        <time>1970-01-01T00:36:05.000Z</time>
      </trkpt>
      <trkpt lat="40.305171" lon="-3.44686">
        <ele>597.4</ele>
        <time>1970-01-01T00:36:06.000Z</time>
      </trkpt>
      <trkpt lat="40.305215" lon="-3.446865">
        <ele>597.2</ele>
        <time>1970-01-01T00:36:07.000Z</time>
      </trkpt>
      <trkpt lat="40.305259" lon="-3.44687">
        <ele>597.2</ele>
        <time>1970-01-01T00:36:08.000Z</time>
      </trkpt>
      <trkpt lat="40.3053" lon="-3.446878">
        <ele>597</ele>
        <time>1970-01-01T00:36:09.000Z</time>
      </trkpt>
      <trkpt lat="40.30534" lon="-3.446885">
        <ele>596.8</ele>
        <time>1970-01-01T00:36:10.000Z</time>
      </trkpt>
      <trkpt lat="40.305377" lon="-3.446891">
        <ele>596.6</ele>
        <time>1970-01-01T00:36:11.000Z</time>
      </trkpt>
      <trkpt lat="40.305414" lon="-3.446897">
        <ele>596.6</ele>
        <time>1970-01-01T00:36:12.000Z</time>
      </trkpt>
      <trkpt lat="40.305448" lon="-3.446904">
        <ele>596.4</ele>
        <time>1970-01-01T00:36:13.000Z</time>
      </trkpt>
      <trkpt lat="40.305478" lon="-3.446919">
        <ele>596.4</ele>
        <time>1970-01-01T00:36:14.000Z</time>
      </trkpt>
      <trkpt lat="40.305508" lon="-3.446938">
        <ele>596.4</ele>
        <time>1970-01-01T00:36:15.000Z</time>
      </trkpt>
      <trkpt lat="40.305539" lon="-3.446959">
        <ele>596.4</ele>
        <time>1970-01-01T00:36:16.000Z</time>
      </trkpt>
      <trkpt lat="40.30557" lon="-3.446972">
        <ele>596.4</ele>
        <time>1970-01-01T00:36:17.000Z</time>
      </trkpt>
      <trkpt lat="40.305603" lon="-3.446977">
        <ele>596.4</ele>
        <time>1970-01-01T00:36:18.000Z</time>
      </trkpt>
      <trkpt lat="40.305641" lon="-3.44698">
        <ele>596.4</ele>
        <time>1970-01-01T00:36:19.000Z</time>
      </trkpt>
      <trkpt lat="40.305682" lon="-3.446985">
        <ele>596.4</ele>
        <time>1970-01-01T00:36:20.000Z</time>
      </trkpt>
      <trkpt lat="40.305724" lon="-3.446992">
        <ele>596.4</ele>
        <time>1970-01-01T00:36:21.000Z</time>
      </trkpt>
      <trkpt lat="40.305766" lon="-3.446998">
        <ele>596.4</ele>
        <time>1970-01-01T00:36:22.000Z</time>
      </trkpt>
      <trkpt lat="40.305808" lon="-3.447002">
        <ele>596.4</ele>
        <time>1970-01-01T00:36:23.000Z</time>
      </trkpt>
      <trkpt lat="40.305847" lon="-3.447007">
        <ele>596.4</ele>
        <time>1970-01-01T00:36:24.000Z</time>
      </trkpt>
      <trkpt lat="40.305883" lon="-3.447016">
        <ele>596.4</ele>
        <time>1970-01-01T00:36:25.000Z</time>
      </trkpt>
      <trkpt lat="40.305916" lon="-3.447032">
        <ele>596.4</ele>
        <time>1970-01-01T00:36:26.000Z</time>
      </trkpt>
      <trkpt lat="40.305943" lon="-3.447049">
        <ele>596.4</ele>
        <time>1970-01-01T00:36:27.000Z</time>
      </trkpt>
      <trkpt lat="40.305964" lon="-3.447064">
        <ele>596.4</ele>
        <time>1970-01-01T00:36:28.000Z</time>
      </trkpt>
      <trkpt lat="40.305986" lon="-3.447072">
        <ele>596.2</ele>
        <time>1970-01-01T00:36:29.000Z</time>
      </trkpt>
      <trkpt lat="40.306015" lon="-3.447067">
        <ele>596.2</ele>
        <time>1970-01-01T00:36:30.000Z</time>
      </trkpt>
      <trkpt lat="40.306046" lon="-3.447053">
        <ele>596.2</ele>
        <time>1970-01-01T00:36:31.000Z</time>
      </trkpt>
      <trkpt lat="40.306082" lon="-3.44704">
        <ele>596.2</ele>
        <time>1970-01-01T00:36:32.000Z</time>
      </trkpt>
      <trkpt lat="40.306119" lon="-3.44704">
        <ele>596</ele>
        <time>1970-01-01T00:36:33.000Z</time>
      </trkpt>
      <trkpt lat="40.306158" lon="-3.447056">
        <ele>596</ele>
        <time>1970-01-01T00:36:34.000Z</time>
      </trkpt>
      <trkpt lat="40.306194" lon="-3.447088">
        <ele>596</ele>
        <time>1970-01-01T00:36:35.000Z</time>
      </trkpt>
      <trkpt lat="40.306223" lon="-3.447122">
        <ele>596</ele>
        <time>1970-01-01T00:36:36.000Z</time>
      </trkpt>
      <trkpt lat="40.306249" lon="-3.447151">
        <ele>596</ele>
        <time>1970-01-01T00:36:37.000Z</time>
      </trkpt>
      <trkpt lat="40.306278" lon="-3.447169">
        <ele>596</ele>
        <time>1970-01-01T00:36:38.000Z</time>
      </trkpt>
      <trkpt lat="40.306314" lon="-3.447177">
        <ele>596</ele>
        <time>1970-01-01T00:36:39.000Z</time>
      </trkpt>
      <trkpt lat="40.30635" lon="-3.447172">
        <ele>596</ele>
        <time>1970-01-01T00:36:40.000Z</time>
      </trkpt>
      <trkpt lat="40.306384" lon="-3.447158">
        <ele>596</ele>
        <time>1970-01-01T00:36:41.000Z</time>
      </trkpt>
      <trkpt lat="40.30642" lon="-3.447145">
        <ele>596</ele>
        <time>1970-01-01T00:36:42.000Z</time>
      </trkpt>
      <trkpt lat="40.306457" lon="-3.447135">
        <ele>596.2</ele>
        <time>1970-01-01T00:36:43.000Z</time>
      </trkpt>
      <trkpt lat="40.306493" lon="-3.447131">
        <ele>596.2</ele>
        <time>1970-01-01T00:36:44.000Z</time>
      </trkpt>
      <trkpt lat="40.306533" lon="-3.447131">
        <ele>596.2</ele>
        <time>1970-01-01T00:36:45.000Z</time>
      </trkpt>
      <trkpt lat="40.306574" lon="-3.447136">
        <ele>596.4</ele>
        <time>1970-01-01T00:36:46.000Z</time>
      </trkpt>
      <trkpt lat="40.306614" lon="-3.447146">
        <ele>596.6</ele>
        <time>1970-01-01T00:36:47.000Z</time>
      </trkpt>
      <trkpt lat="40.30665" lon="-3.447161">
        <ele>596.6</ele>
        <time>1970-01-01T00:36:48.000Z</time>
      </trkpt>
      <trkpt lat="40.306691" lon="-3.447184">
        <ele>596.6</ele>
        <time>1970-01-01T00:36:49.000Z</time>
      </trkpt>
      <trkpt lat="40.306717" lon="-3.447204">
        <ele>596.8</ele>
        <time>1970-01-01T00:36:50.000Z</time>
      </trkpt>
      <trkpt lat="40.306748" lon="-3.447231">
        <ele>596.8</ele>
        <time>1970-01-01T00:36:51.000Z</time>
      </trkpt>
      <trkpt lat="40.306778" lon="-3.447257">
        <ele>596.8</ele>
        <time>1970-01-01T00:36:52.000Z</time>
      </trkpt>
      <trkpt lat="40.306805" lon="-3.447284">
        <ele>596.8</ele>
        <time>1970-01-01T00:36:53.000Z</time>
      </trkpt>
      <trkpt lat="40.306834" lon="-3.44731">
        <ele>596.8</ele>
        <time>1970-01-01T00:36:54.000Z</time>
      </trkpt>
      <trkpt lat="40.306866" lon="-3.447329">
        <ele>596.8</ele>
        <time>1970-01-01T00:36:55.000Z</time>
      </trkpt>
      <trkpt lat="40.306901" lon="-3.447339">
        <ele>596.8</ele>
        <time>1970-01-01T00:36:56.000Z</time>
      </trkpt>
      <trkpt lat="40.306939" lon="-3.447334">
        <ele>596.8</ele>
        <time>1970-01-01T00:36:57.000Z</time>
      </trkpt>
      <trkpt lat="40.306976" lon="-3.447317">
        <ele>596.8</ele>
        <time>1970-01-01T00:36:58.000Z</time>
      </trkpt>
      <trkpt lat="40.307011" lon="-3.447293">
        <ele>596.8</ele>
        <time>1970-01-01T00:36:59.000Z</time>
      </trkpt>
      <trkpt lat="40.307048" lon="-3.447263">
        <ele>596.8</ele>
        <time>1970-01-01T00:37:00.000Z</time>
      </trkpt>
      <trkpt lat="40.307084" lon="-3.447233">
        <ele>596.8</ele>
        <time>1970-01-01T00:37:01.000Z</time>
      </trkpt>
      <trkpt lat="40.307118" lon="-3.447203">
        <ele>596.8</ele>
        <time>1970-01-01T00:37:02.000Z</time>
      </trkpt>
      <trkpt lat="40.307153" lon="-3.447172">
        <ele>596.8</ele>
        <time>1970-01-01T00:37:03.000Z</time>
      </trkpt>
      <trkpt lat="40.307186" lon="-3.447142">
        <ele>596.8</ele>
        <time>1970-01-01T00:37:04.000Z</time>
      </trkpt>
      <trkpt lat="40.307218" lon="-3.447115">
        <ele>596.8</ele>
        <time>1970-01-01T00:37:05.000Z</time>
      </trkpt>
      <trkpt lat="40.307249" lon="-3.447088">
        <ele>596.8</ele>
        <time>1970-01-01T00:37:06.000Z</time>
      </trkpt>
      <trkpt lat="40.307279" lon="-3.447061">
        <ele>596.8</ele>
        <time>1970-01-01T00:37:07.000Z</time>
      </trkpt>
      <trkpt lat="40.307311" lon="-3.447037">
        <ele>596.8</ele>
        <time>1970-01-01T00:37:08.000Z</time>
      </trkpt>
      <trkpt lat="40.307342" lon="-3.447014">
        <ele>596.8</ele>
        <time>1970-01-01T00:37:09.000Z</time>
      </trkpt>
      <trkpt lat="40.307374" lon="-3.446986">
        <ele>596.8</ele>
        <time>1970-01-01T00:37:10.000Z</time>
      </trkpt>
      <trkpt lat="40.307405" lon="-3.446959">
        <ele>597</ele>
        <time>1970-01-01T00:37:11.000Z</time>
      </trkpt>
      <trkpt lat="40.307436" lon="-3.446932">
        <ele>597</ele>
        <time>1970-01-01T00:37:12.000Z</time>
      </trkpt>
      <trkpt lat="40.307468" lon="-3.446903">
        <ele>597</ele>
        <time>1970-01-01T00:37:13.000Z</time>
      </trkpt>
      <trkpt lat="40.307498" lon="-3.446877">
        <ele>597.2</ele>
        <time>1970-01-01T00:37:14.000Z</time>
      </trkpt>
      <trkpt lat="40.307529" lon="-3.44685">
        <ele>597.2</ele>
        <time>1970-01-01T00:37:15.000Z</time>
      </trkpt>
      <trkpt lat="40.30756" lon="-3.446822">
        <ele>597.4</ele>
        <time>1970-01-01T00:37:16.000Z</time>
      </trkpt>
      <trkpt lat="40.30759" lon="-3.446795">
        <ele>597.4</ele>
        <time>1970-01-01T00:37:17.000Z</time>
      </trkpt>
      <trkpt lat="40.307622" lon="-3.446771">
        <ele>597.6</ele>
        <time>1970-01-01T00:37:18.000Z</time>
      </trkpt>
      <trkpt lat="40.307652" lon="-3.446745">
        <ele>597.6</ele>
        <time>1970-01-01T00:37:19.000Z</time>
      </trkpt>
      <trkpt lat="40.307681" lon="-3.446721">
        <ele>597.8</ele>
        <time>1970-01-01T00:37:20.000Z</time>
      </trkpt>
      <trkpt lat="40.30771" lon="-3.446698">
        <ele>598</ele>
        <time>1970-01-01T00:37:21.000Z</time>
      </trkpt>
      <trkpt lat="40.30774" lon="-3.446674">
        <ele>598</ele>
        <time>1970-01-01T00:37:22.000Z</time>
      </trkpt>
      <trkpt lat="40.307771" lon="-3.446654">
        <ele>598.4</ele>
        <time>1970-01-01T00:37:23.000Z</time>
      </trkpt>
      <trkpt lat="40.3078" lon="-3.446633">
        <ele>598.4</ele>
        <time>1970-01-01T00:37:24.000Z</time>
      </trkpt>
      <trkpt lat="40.307827" lon="-3.446613">
        <ele>598.6</ele>
        <time>1970-01-01T00:37:25.000Z</time>
      </trkpt>
      <trkpt lat="40.307854" lon="-3.446592">
        <ele>598.8</ele>
        <time>1970-01-01T00:37:26.000Z</time>
      </trkpt>
      <trkpt lat="40.307882" lon="-3.446572">
        <ele>598.8</ele>
        <time>1970-01-01T00:37:27.000Z</time>
      </trkpt>
      <trkpt lat="40.307909" lon="-3.44655">
        <ele>599</ele>
        <time>1970-01-01T00:37:28.000Z</time>
      </trkpt>
      <trkpt lat="40.307936" lon="-3.446527">
        <ele>599.4</ele>
        <time>1970-01-01T00:37:29.000Z</time>
      </trkpt>
      <trkpt lat="40.307964" lon="-3.446503">
        <ele>599.6</ele>
        <time>1970-01-01T00:37:30.000Z</time>
      </trkpt>
      <trkpt lat="40.307992" lon="-3.446485">
        <ele>599.8</ele>
        <time>1970-01-01T00:37:31.000Z</time>
      </trkpt>
      <trkpt lat="40.30802" lon="-3.446465">
        <ele>599.8</ele>
        <time>1970-01-01T00:37:32.000Z</time>
      </trkpt>
      <trkpt lat="40.308049" lon="-3.446447">
        <ele>600.2</ele>
        <time>1970-01-01T00:37:33.000Z</time>
      </trkpt>
      <trkpt lat="40.308077" lon="-3.446429">
        <ele>600.4</ele>
        <time>1970-01-01T00:37:34.000Z</time>
      </trkpt>
      <trkpt lat="40.308105" lon="-3.44641">
        <ele>600.4</ele>
        <time>1970-01-01T00:37:35.000Z</time>
      </trkpt>
      <trkpt lat="40.308131" lon="-3.44639">
        <ele>600.8</ele>
        <time>1970-01-01T00:37:36.000Z</time>
      </trkpt>
      <trkpt lat="40.308159" lon="-3.446371">
        <ele>601</ele>
        <time>1970-01-01T00:37:37.000Z</time>
      </trkpt>
      <trkpt lat="40.308186" lon="-3.446351">
        <ele>601.2</ele>
        <time>1970-01-01T00:37:38.000Z</time>
      </trkpt>
      <trkpt lat="40.308214" lon="-3.446331">
        <ele>601.2</ele>
        <time>1970-01-01T00:37:39.000Z</time>
      </trkpt>
      <trkpt lat="40.308244" lon="-3.446312">
        <ele>601.6</ele>
        <time>1970-01-01T00:37:40.000Z</time>
      </trkpt>
      <trkpt lat="40.308276" lon="-3.446291">
        <ele>601.6</ele>
        <time>1970-01-01T00:37:41.000Z</time>
      </trkpt>
      <trkpt lat="40.308309" lon="-3.446269">
        <ele>602</ele>
        <time>1970-01-01T00:37:42.000Z</time>
      </trkpt>
      <trkpt lat="40.308336" lon="-3.446236">
        <ele>602.4</ele>
        <time>1970-01-01T00:37:43.000Z</time>
      </trkpt>
      <trkpt lat="40.308352" lon="-3.446196">
        <ele>602.4</ele>
        <time>1970-01-01T00:37:44.000Z</time>
      </trkpt>
      <trkpt lat="40.308368" lon="-3.446155">
        <ele>602.8</ele>
        <time>1970-01-01T00:37:45.000Z</time>
      </trkpt>
      <trkpt lat="40.308386" lon="-3.446116">
        <ele>602.8</ele>
        <time>1970-01-01T00:37:46.000Z</time>
      </trkpt>
      <trkpt lat="40.308406" lon="-3.446079">
        <ele>603</ele>
        <time>1970-01-01T00:37:47.000Z</time>
      </trkpt>
      <trkpt lat="40.308424" lon="-3.44605">
        <ele>603</ele>
        <time>1970-01-01T00:37:48.000Z</time>
      </trkpt>
      <trkpt lat="40.30845" lon="-3.446038">
        <ele>603.2</ele>
        <time>1970-01-01T00:37:49.000Z</time>
      </trkpt>
      <trkpt lat="40.308486" lon="-3.446045">
        <ele>603.2</ele>
        <time>1970-01-01T00:37:50.000Z</time>
      </trkpt>
      <trkpt lat="40.308521" lon="-3.44606">
        <ele>603.2</ele>
        <time>1970-01-01T00:37:51.000Z</time>
      </trkpt>
      <trkpt lat="40.308557" lon="-3.446067">
        <ele>603.2</ele>
        <time>1970-01-01T00:37:52.000Z</time>
      </trkpt>
      <trkpt lat="40.308593" lon="-3.44606">
        <ele>603.4</ele>
        <time>1970-01-01T00:37:53.000Z</time>
      </trkpt>
      <trkpt lat="40.308628" lon="-3.446039">
        <ele>603.4</ele>
        <time>1970-01-01T00:37:54.000Z</time>
      </trkpt>
      <trkpt lat="40.308663" lon="-3.446012">
        <ele>603.4</ele>
        <time>1970-01-01T00:37:55.000Z</time>
      </trkpt>
      <trkpt lat="40.308701" lon="-3.445982">
        <ele>603.4</ele>
        <time>1970-01-01T00:37:56.000Z</time>
      </trkpt>
      <trkpt lat="40.308742" lon="-3.445951">
        <ele>603.4</ele>
        <time>1970-01-01T00:37:57.000Z</time>
      </trkpt>
      <trkpt lat="40.308786" lon="-3.445928">
        <ele>603.4</ele>
        <time>1970-01-01T00:37:58.000Z</time>
      </trkpt>
      <trkpt lat="40.308834" lon="-3.445912">
        <ele>603.2</ele>
        <time>1970-01-01T00:37:59.000Z</time>
      </trkpt>
      <trkpt lat="40.308883" lon="-3.445897">
        <ele>603.2</ele>
        <time>1970-01-01T00:38:00.000Z</time>
      </trkpt>
      <trkpt lat="40.308935" lon="-3.445882">
        <ele>603.2</ele>
        <time>1970-01-01T00:38:01.000Z</time>
      </trkpt>
      <trkpt lat="40.30899" lon="-3.445868">
        <ele>603</ele>
        <time>1970-01-01T00:38:02.000Z</time>
      </trkpt>
      <trkpt lat="40.309048" lon="-3.445858">
        <ele>602.8</ele>
        <time>1970-01-01T00:38:03.000Z</time>
      </trkpt>
      <trkpt lat="40.309107" lon="-3.445853">
        <ele>602.8</ele>
        <time>1970-01-01T00:38:04.000Z</time>
      </trkpt>
      <trkpt lat="40.309167" lon="-3.445848">
        <ele>602.4</ele>
        <time>1970-01-01T00:38:05.000Z</time>
      </trkpt>
      <trkpt lat="40.309227" lon="-3.445832">
        <ele>602.2</ele>
        <time>1970-01-01T00:38:06.000Z</time>
      </trkpt>
      <trkpt lat="40.309288" lon="-3.445806">
        <ele>602</ele>
        <time>1970-01-01T00:38:07.000Z</time>
      </trkpt>
      <trkpt lat="40.30934" lon="-3.445774">
        <ele>601.8</ele>
        <time>1970-01-01T00:38:08.000Z</time>
      </trkpt>
      <trkpt lat="40.309384" lon="-3.445746">
        <ele>601.4</ele>
        <time>1970-01-01T00:38:09.000Z</time>
      </trkpt>
      <trkpt lat="40.309424" lon="-3.445731">
        <ele>601.4</ele>
        <time>1970-01-01T00:38:10.000Z</time>
      </trkpt>
      <trkpt lat="40.309461" lon="-3.44574">
        <ele>601.2</ele>
        <time>1970-01-01T00:38:11.000Z</time>
      </trkpt>
      <trkpt lat="40.309493" lon="-3.44577">
        <ele>601.2</ele>
        <time>1970-01-01T00:38:12.000Z</time>
      </trkpt>
      <trkpt lat="40.30952" lon="-3.44581">
        <ele>601.2</ele>
        <time>1970-01-01T00:38:13.000Z</time>
      </trkpt>
      <trkpt lat="40.309549" lon="-3.445836">
        <ele>601.2</ele>
        <time>1970-01-01T00:38:14.000Z</time>
      </trkpt>
      <trkpt lat="40.309583" lon="-3.445845">
        <ele>601.2</ele>
        <time>1970-01-01T00:38:15.000Z</time>
      </trkpt>
      <trkpt lat="40.309617" lon="-3.445844">
        <ele>601.2</ele>
        <time>1970-01-01T00:38:16.000Z</time>
      </trkpt>
      <trkpt lat="40.309643" lon="-3.445836">
        <ele>601.2</ele>
        <time>1970-01-01T00:38:17.000Z</time>
      </trkpt>
      <trkpt lat="40.309668" lon="-3.445827">
        <ele>601</ele>
        <time>1970-01-01T00:38:18.000Z</time>
      </trkpt>
      <trkpt lat="40.309698" lon="-3.445823">
        <ele>601</ele>
        <time>1970-01-01T00:38:19.000Z</time>
      </trkpt>
      <trkpt lat="40.30973" lon="-3.445826">
        <ele>600.8</ele>
        <time>1970-01-01T00:38:20.000Z</time>
      </trkpt>
      <trkpt lat="40.309765" lon="-3.445831">
        <ele>601</ele>
        <time>1970-01-01T00:38:21.000Z</time>
      </trkpt>
      <trkpt lat="40.3098" lon="-3.445827">
        <ele>600.8</ele>
        <time>1970-01-01T00:38:22.000Z</time>
      </trkpt>
      <trkpt lat="40.309837" lon="-3.445815">
        <ele>600.8</ele>
        <time>1970-01-01T00:38:23.000Z</time>
      </trkpt>
      <trkpt lat="40.309872" lon="-3.44581">
        <ele>600.6</ele>
        <time>1970-01-01T00:38:24.000Z</time>
      </trkpt>
      <trkpt lat="40.309908" lon="-3.445807">
        <ele>600.4</ele>
        <time>1970-01-01T00:38:25.000Z</time>
      </trkpt>
      <trkpt lat="40.309944" lon="-3.445804">
        <ele>600.6</ele>
        <time>1970-01-01T00:38:26.000Z</time>
      </trkpt>
      <trkpt lat="40.309982" lon="-3.445801">
        <ele>600.4</ele>
        <time>1970-01-01T00:38:27.000Z</time>
      </trkpt>
      <trkpt lat="40.310033" lon="-3.445799">
        <ele>600.2</ele>
        <time>1970-01-01T00:38:28.000Z</time>
      </trkpt>
      <trkpt lat="40.310067" lon="-3.445795">
        <ele>600.2</ele>
        <time>1970-01-01T00:38:29.000Z</time>
      </trkpt>
      <trkpt lat="40.31011" lon="-3.4458">
        <ele>600.4</ele>
        <time>1970-01-01T00:38:30.000Z</time>
      </trkpt>
      <trkpt lat="40.31015" lon="-3.445799">
        <ele>600.2</ele>
        <time>1970-01-01T00:38:31.000Z</time>
      </trkpt>
      <trkpt lat="40.310185" lon="-3.445799">
        <ele>600.2</ele>
        <time>1970-01-01T00:38:32.000Z</time>
      </trkpt>
      <trkpt lat="40.310218" lon="-3.445796">
        <ele>600.2</ele>
        <time>1970-01-01T00:38:33.000Z</time>
      </trkpt>
      <trkpt lat="40.310255" lon="-3.445791">
        <ele>600.2</ele>
        <time>1970-01-01T00:38:34.000Z</time>
      </trkpt>
      <trkpt lat="40.31029" lon="-3.445786">
        <ele>600.2</ele>
        <time>1970-01-01T00:38:35.000Z</time>
      </trkpt>
      <trkpt lat="40.310324" lon="-3.445783">
        <ele>600.2</ele>
        <time>1970-01-01T00:38:36.000Z</time>
      </trkpt>
      <trkpt lat="40.310353" lon="-3.445783">
        <ele>600.2</ele>
        <time>1970-01-01T00:38:37.000Z</time>
      </trkpt>
      <trkpt lat="40.310383" lon="-3.445785">
        <ele>600.2</ele>
        <time>1970-01-01T00:38:38.000Z</time>
      </trkpt>
      <trkpt lat="40.310418" lon="-3.445784">
        <ele>600.2</ele>
        <time>1970-01-01T00:38:39.000Z</time>
      </trkpt>
      <trkpt lat="40.310454" lon="-3.445783">
        <ele>600.2</ele>
        <time>1970-01-01T00:38:40.000Z</time>
      </trkpt>
      <trkpt lat="40.310494" lon="-3.445777">
        <ele>600.4</ele>
        <time>1970-01-01T00:38:41.000Z</time>
      </trkpt>
      <trkpt lat="40.310521" lon="-3.445769">
        <ele>600.4</ele>
        <time>1970-01-01T00:38:42.000Z</time>
      </trkpt>
      <trkpt lat="40.310559" lon="-3.445764">
        <ele>600.6</ele>
        <time>1970-01-01T00:38:43.000Z</time>
      </trkpt>
      <trkpt lat="40.310593" lon="-3.445754">
        <ele>600.6</ele>
        <time>1970-01-01T00:38:44.000Z</time>
      </trkpt>
      <trkpt lat="40.310626" lon="-3.445738">
        <ele>600.6</ele>
        <time>1970-01-01T00:38:45.000Z</time>
      </trkpt>
      <trkpt lat="40.310655" lon="-3.445721">
        <ele>600.8</ele>
        <time>1970-01-01T00:38:46.000Z</time>
      </trkpt>
      <trkpt lat="40.310682" lon="-3.445705">
        <ele>601</ele>
        <time>1970-01-01T00:38:47.000Z</time>
      </trkpt>
      <trkpt lat="40.310706" lon="-3.445688">
        <ele>601</ele>
        <time>1970-01-01T00:38:48.000Z</time>
      </trkpt>
      <trkpt lat="40.310729" lon="-3.445677">
        <ele>601.2</ele>
        <time>1970-01-01T00:38:49.000Z</time>
      </trkpt>
      <trkpt lat="40.31075" lon="-3.445663">
        <ele>601.2</ele>
        <time>1970-01-01T00:38:50.000Z</time>
      </trkpt>
      <trkpt lat="40.310772" lon="-3.445643">
        <ele>601.2</ele>
        <time>1970-01-01T00:38:51.000Z</time>
      </trkpt>
      <trkpt lat="40.310795" lon="-3.445622">
        <ele>601.4</ele>
        <time>1970-01-01T00:38:52.000Z</time>
      </trkpt>
      <trkpt lat="40.310818" lon="-3.445599">
        <ele>601.4</ele>
        <time>1970-01-01T00:38:53.000Z</time>
      </trkpt>
      <trkpt lat="40.310841" lon="-3.445578">
        <ele>601.6</ele>
        <time>1970-01-01T00:38:54.000Z</time>
      </trkpt>
      <trkpt lat="40.310868" lon="-3.445551">
        <ele>601.6</ele>
        <time>1970-01-01T00:38:55.000Z</time>
      </trkpt>
      <trkpt lat="40.310884" lon="-3.445535">
        <ele>601.8</ele>
        <time>1970-01-01T00:38:56.000Z</time>
      </trkpt>
      <trkpt lat="40.310903" lon="-3.445515">
        <ele>601.8</ele>
        <time>1970-01-01T00:38:57.000Z</time>
      </trkpt>
      <trkpt lat="40.310922" lon="-3.445491">
        <ele>602</ele>
        <time>1970-01-01T00:38:58.000Z</time>
      </trkpt>
      <trkpt lat="40.310941" lon="-3.445465">
        <ele>602</ele>
        <time>1970-01-01T00:38:59.000Z</time>
      </trkpt>
      <trkpt lat="40.310958" lon="-3.445437">
        <ele>602</ele>
        <time>1970-01-01T00:39:00.000Z</time>
      </trkpt>
      <trkpt lat="40.310977" lon="-3.445408">
        <ele>602.2</ele>
        <time>1970-01-01T00:39:01.000Z</time>
      </trkpt>
      <trkpt lat="40.310995" lon="-3.445374">
        <ele>602.2</ele>
        <time>1970-01-01T00:39:02.000Z</time>
      </trkpt>
      <trkpt lat="40.311013" lon="-3.445337">
        <ele>602.2</ele>
        <time>1970-01-01T00:39:03.000Z</time>
      </trkpt>
      <trkpt lat="40.311029" lon="-3.445298">
        <ele>602.2</ele>
        <time>1970-01-01T00:39:04.000Z</time>
      </trkpt>
      <trkpt lat="40.311043" lon="-3.445255">
        <ele>602.2</ele>
        <time>1970-01-01T00:39:05.000Z</time>
      </trkpt>
      <trkpt lat="40.311057" lon="-3.44521">
        <ele>602.2</ele>
        <time>1970-01-01T00:39:06.000Z</time>
      </trkpt>
      <trkpt lat="40.31107" lon="-3.445161">
        <ele>602.2</ele>
        <time>1970-01-01T00:39:07.000Z</time>
      </trkpt>
      <trkpt lat="40.311083" lon="-3.445111">
        <ele>602.2</ele>
        <time>1970-01-01T00:39:08.000Z</time>
      </trkpt>
      <trkpt lat="40.311092" lon="-3.445061">
        <ele>602.2</ele>
        <time>1970-01-01T00:39:09.000Z</time>
      </trkpt>
      <trkpt lat="40.311096" lon="-3.44501">
        <ele>602.2</ele>
        <time>1970-01-01T00:39:10.000Z</time>
      </trkpt>
      <trkpt lat="40.311097" lon="-3.444961">
        <ele>602.2</ele>
        <time>1970-01-01T00:39:11.000Z</time>
      </trkpt>
      <trkpt lat="40.311097" lon="-3.444909">
        <ele>602</ele>
        <time>1970-01-01T00:39:12.000Z</time>
      </trkpt>
      <trkpt lat="40.311095" lon="-3.444857">
        <ele>602</ele>
        <time>1970-01-01T00:39:13.000Z</time>
      </trkpt>
      <trkpt lat="40.311096" lon="-3.444805">
        <ele>601.8</ele>
        <time>1970-01-01T00:39:14.000Z</time>
      </trkpt>
      <trkpt lat="40.311097" lon="-3.444756">
        <ele>601.8</ele>
        <time>1970-01-01T00:39:15.000Z</time>
      </trkpt>
      <trkpt lat="40.311093" lon="-3.44471">
        <ele>601.8</ele>
        <time>1970-01-01T00:39:16.000Z</time>
      </trkpt>
      <trkpt lat="40.311086" lon="-3.444667">
        <ele>601.8</ele>
        <time>1970-01-01T00:39:17.000Z</time>
      </trkpt>
      <trkpt lat="40.311077" lon="-3.444627">
        <ele>601.8</ele>
        <time>1970-01-01T00:39:18.000Z</time>
      </trkpt>
      <trkpt lat="40.311068" lon="-3.444588">
        <ele>601.8</ele>
        <time>1970-01-01T00:39:19.000Z</time>
      </trkpt>
      <trkpt lat="40.311059" lon="-3.444551">
        <ele>601.8</ele>
        <time>1970-01-01T00:39:20.000Z</time>
      </trkpt>
      <trkpt lat="40.311049" lon="-3.444513">
        <ele>601.8</ele>
        <time>1970-01-01T00:39:21.000Z</time>
      </trkpt>
      <trkpt lat="40.311037" lon="-3.444476">
        <ele>602</ele>
        <time>1970-01-01T00:39:22.000Z</time>
      </trkpt>
      <trkpt lat="40.311023" lon="-3.444439">
        <ele>602.2</ele>
        <time>1970-01-01T00:39:23.000Z</time>
      </trkpt>
      <trkpt lat="40.311009" lon="-3.444405">
        <ele>602.2</ele>
        <time>1970-01-01T00:39:24.000Z</time>
      </trkpt>
      <trkpt lat="40.310994" lon="-3.444369">
        <ele>602.4</ele>
        <time>1970-01-01T00:39:25.000Z</time>
      </trkpt>
      <trkpt lat="40.310976" lon="-3.444334">
        <ele>602.6</ele>
        <time>1970-01-01T00:39:26.000Z</time>
      </trkpt>
      <trkpt lat="40.310961" lon="-3.444301">
        <ele>602.6</ele>
        <time>1970-01-01T00:39:27.000Z</time>
      </trkpt>
      <trkpt lat="40.310943" lon="-3.444268">
        <ele>602.8</ele>
        <time>1970-01-01T00:39:28.000Z</time>
      </trkpt>
      <trkpt lat="40.310924" lon="-3.444241">
        <ele>603</ele>
        <time>1970-01-01T00:39:29.000Z</time>
      </trkpt>
      <trkpt lat="40.310906" lon="-3.444213">
        <ele>603.2</ele>
        <time>1970-01-01T00:39:30.000Z</time>
      </trkpt>
      <trkpt lat="40.310888" lon="-3.444188">
        <ele>603.4</ele>
        <time>1970-01-01T00:39:31.000Z</time>
      </trkpt>
      <trkpt lat="40.310872" lon="-3.444166">
        <ele>603.4</ele>
        <time>1970-01-01T00:39:32.000Z</time>
      </trkpt>
      <trkpt lat="40.310857" lon="-3.444147">
        <ele>603.6</ele>
        <time>1970-01-01T00:39:33.000Z</time>
      </trkpt>
      <trkpt lat="40.310843" lon="-3.444134">
        <ele>603.8</ele>
        <time>1970-01-01T00:39:34.000Z</time>
      </trkpt>
      <trkpt lat="40.31083" lon="-3.444117">
        <ele>603.8</ele>
        <time>1970-01-01T00:39:35.000Z</time>
      </trkpt>
      <trkpt lat="40.310821" lon="-3.444093">
        <ele>604.2</ele>
        <time>1970-01-01T00:39:36.000Z</time>
      </trkpt>
      <trkpt lat="40.310822" lon="-3.444066">
        <ele>604.4</ele>
        <time>1970-01-01T00:39:37.000Z</time>
      </trkpt>
      <trkpt lat="40.31083" lon="-3.444037">
        <ele>604.6</ele>
        <time>1970-01-01T00:39:38.000Z</time>
      </trkpt>
      <trkpt lat="40.31084" lon="-3.444007">
        <ele>605</ele>
        <time>1970-01-01T00:39:39.000Z</time>
      </trkpt>
      <trkpt lat="40.310852" lon="-3.44398">
        <ele>605</ele>
        <time>1970-01-01T00:39:40.000Z</time>
      </trkpt>
      <trkpt lat="40.310865" lon="-3.443957">
        <ele>605</ele>
        <time>1970-01-01T00:39:41.000Z</time>
      </trkpt>
      <trkpt lat="40.31088" lon="-3.44394">
        <ele>605.2</ele>
        <time>1970-01-01T00:39:42.000Z</time>
      </trkpt>
      <trkpt lat="40.310898" lon="-3.443918">
        <ele>605.2</ele>
        <time>1970-01-01T00:39:43.000Z</time>
      </trkpt>
      <trkpt lat="40.310923" lon="-3.443891">
        <ele>605.2</ele>
        <time>1970-01-01T00:39:44.000Z</time>
      </trkpt>
      <trkpt lat="40.310946" lon="-3.443855">
        <ele>605.4</ele>
        <time>1970-01-01T00:39:45.000Z</time>
      </trkpt>
      <trkpt lat="40.310972" lon="-3.443808">
        <ele>605.4</ele>
        <time>1970-01-01T00:39:46.000Z</time>
      </trkpt>
      <trkpt lat="40.310992" lon="-3.443774">
        <ele>605.4</ele>
        <time>1970-01-01T00:39:47.000Z</time>
      </trkpt>
      <trkpt lat="40.311023" lon="-3.443736">
        <ele>605.4</ele>
        <time>1970-01-01T00:39:48.000Z</time>
      </trkpt>
      <trkpt lat="40.311054" lon="-3.443693">
        <ele>605.4</ele>
        <time>1970-01-01T00:39:49.000Z</time>
      </trkpt>
      <trkpt lat="40.311076" lon="-3.443644">
        <ele>605.2</ele>
        <time>1970-01-01T00:39:50.000Z</time>
      </trkpt>
      <trkpt lat="40.311098" lon="-3.443594">
        <ele>605.2</ele>
        <time>1970-01-01T00:39:51.000Z</time>
      </trkpt>
      <trkpt lat="40.311117" lon="-3.443545">
        <ele>605.2</ele>
        <time>1970-01-01T00:39:52.000Z</time>
      </trkpt>
      <trkpt lat="40.31113" lon="-3.4435">
        <ele>605</ele>
        <time>1970-01-01T00:39:53.000Z</time>
      </trkpt>
      <trkpt lat="40.311144" lon="-3.443468">
        <ele>604.8</ele>
        <time>1970-01-01T00:39:54.000Z</time>
      </trkpt>
      <trkpt lat="40.311153" lon="-3.443443">
        <ele>604.6</ele>
        <time>1970-01-01T00:39:55.000Z</time>
      </trkpt>
      <trkpt lat="40.311161" lon="-3.44342">
        <ele>604.4</ele>
        <time>1970-01-01T00:39:56.000Z</time>
      </trkpt>
      <trkpt lat="40.31117" lon="-3.443393">
        <ele>604.2</ele>
        <time>1970-01-01T00:39:57.000Z</time>
      </trkpt>
      <trkpt lat="40.311181" lon="-3.443368">
        <ele>604.2</ele>
        <time>1970-01-01T00:39:58.000Z</time>
      </trkpt>
      <trkpt lat="40.311194" lon="-3.44334">
        <ele>603.8</ele>
        <time>1970-01-01T00:39:59.000Z</time>
      </trkpt>
      <trkpt lat="40.311211" lon="-3.443303">
        <ele>603.8</ele>
        <time>1970-01-01T00:40:00.000Z</time>
      </trkpt>
      <trkpt lat="40.311231" lon="-3.443263">
        <ele>603.8</ele>
        <time>1970-01-01T00:40:01.000Z</time>
      </trkpt>
      <trkpt lat="40.311256" lon="-3.443219">
        <ele>603.8</ele>
        <time>1970-01-01T00:40:02.000Z</time>
      </trkpt>
      <trkpt lat="40.311285" lon="-3.443169">
        <ele>603.6</ele>
        <time>1970-01-01T00:40:03.000Z</time>
      </trkpt>
      <trkpt lat="40.311317" lon="-3.443113">
        <ele>603.6</ele>
        <time>1970-01-01T00:40:04.000Z</time>
      </trkpt>
      <trkpt lat="40.311346" lon="-3.443053">
        <ele>603.4</ele>
        <time>1970-01-01T00:40:05.000Z</time>
      </trkpt>
      <trkpt lat="40.311375" lon="-3.442994">
        <ele>603.4</ele>
        <time>1970-01-01T00:40:06.000Z</time>
      </trkpt>
      <trkpt lat="40.311405" lon="-3.442937">
        <ele>603.2</ele>
        <time>1970-01-01T00:40:07.000Z</time>
      </trkpt>
      <trkpt lat="40.311431" lon="-3.44289">
        <ele>603</ele>
        <time>1970-01-01T00:40:08.000Z</time>
      </trkpt>
      <trkpt lat="40.311448" lon="-3.44286">
        <ele>602.8</ele>
        <time>1970-01-01T00:40:09.000Z</time>
      </trkpt>
      <trkpt lat="40.311456" lon="-3.442836">
        <ele>602.4</ele>
        <time>1970-01-01T00:40:10.000Z</time>
      </trkpt>
      <trkpt lat="40.311468" lon="-3.442809">
        <ele>602.4</ele>
        <time>1970-01-01T00:40:11.000Z</time>
      </trkpt>
      <trkpt lat="40.31148" lon="-3.442785">
        <ele>601.8</ele>
        <time>1970-01-01T00:40:12.000Z</time>
      </trkpt>
      <trkpt lat="40.311493" lon="-3.44276">
        <ele>601.2</ele>
        <time>1970-01-01T00:40:13.000Z</time>
      </trkpt>
      <trkpt lat="40.311512" lon="-3.442727">
        <ele>600.8</ele>
        <time>1970-01-01T00:40:14.000Z</time>
      </trkpt>
      <trkpt lat="40.311523" lon="-3.442703">
        <ele>600.6</ele>
        <time>1970-01-01T00:40:15.000Z</time>
      </trkpt>
      <trkpt lat="40.311536" lon="-3.442672">
        <ele>600.6</ele>
        <time>1970-01-01T00:40:16.000Z</time>
      </trkpt>
      <trkpt lat="40.311544" lon="-3.442638">
        <ele>600.6</ele>
        <time>1970-01-01T00:40:17.000Z</time>
      </trkpt>
      <trkpt lat="40.311554" lon="-3.442602">
        <ele>600.6</ele>
        <time>1970-01-01T00:40:18.000Z</time>
      </trkpt>
      <trkpt lat="40.311568" lon="-3.442567">
        <ele>600.6</ele>
        <time>1970-01-01T00:40:19.000Z</time>
      </trkpt>
      <trkpt lat="40.311577" lon="-3.442532">
        <ele>600.6</ele>
        <time>1970-01-01T00:40:20.000Z</time>
      </trkpt>
      <trkpt lat="40.311589" lon="-3.442497">
        <ele>600.6</ele>
        <time>1970-01-01T00:40:21.000Z</time>
      </trkpt>
      <trkpt lat="40.311612" lon="-3.442479">
        <ele>600.8</ele>
        <time>1970-01-01T00:40:22.000Z</time>
      </trkpt>
      <trkpt lat="40.311642" lon="-3.442475">
        <ele>601</ele>
        <time>1970-01-01T00:40:23.000Z</time>
      </trkpt>
      <trkpt lat="40.311674" lon="-3.442473">
        <ele>601</ele>
        <time>1970-01-01T00:40:24.000Z</time>
      </trkpt>
      <trkpt lat="40.311709" lon="-3.442469">
        <ele>601.2</ele>
        <time>1970-01-01T00:40:25.000Z</time>
      </trkpt>
      <trkpt lat="40.311745" lon="-3.442465">
        <ele>601.2</ele>
        <time>1970-01-01T00:40:26.000Z</time>
      </trkpt>
      <trkpt lat="40.311781" lon="-3.442461">
        <ele>601.4</ele>
        <time>1970-01-01T00:40:27.000Z</time>
      </trkpt>
      <trkpt lat="40.311818" lon="-3.442455">
        <ele>601.4</ele>
        <time>1970-01-01T00:40:28.000Z</time>
      </trkpt>
      <trkpt lat="40.311855" lon="-3.442445">
        <ele>601.4</ele>
        <time>1970-01-01T00:40:29.000Z</time>
      </trkpt>
      <trkpt lat="40.311889" lon="-3.442434">
        <ele>601.4</ele>
        <time>1970-01-01T00:40:30.000Z</time>
      </trkpt>
      <trkpt lat="40.311919" lon="-3.442428">
        <ele>601.4</ele>
        <time>1970-01-01T00:40:31.000Z</time>
      </trkpt>
      <trkpt lat="40.311951" lon="-3.44242">
        <ele>601.6</ele>
        <time>1970-01-01T00:40:32.000Z</time>
      </trkpt>
      <trkpt lat="40.311989" lon="-3.442406">
        <ele>601.8</ele>
        <time>1970-01-01T00:40:33.000Z</time>
      </trkpt>
      <trkpt lat="40.312016" lon="-3.442396">
        <ele>601.8</ele>
        <time>1970-01-01T00:40:34.000Z</time>
      </trkpt>
      <trkpt lat="40.312048" lon="-3.442385">
        <ele>602</ele>
        <time>1970-01-01T00:40:35.000Z</time>
      </trkpt>
      <trkpt lat="40.312077" lon="-3.442372">
        <ele>602</ele>
        <time>1970-01-01T00:40:36.000Z</time>
      </trkpt>
      <trkpt lat="40.312106" lon="-3.442361">
        <ele>602.2</ele>
        <time>1970-01-01T00:40:37.000Z</time>
      </trkpt>
      <trkpt lat="40.312137" lon="-3.442348">
        <ele>602</ele>
        <time>1970-01-01T00:40:38.000Z</time>
      </trkpt>
      <trkpt lat="40.312165" lon="-3.442333">
        <ele>602</ele>
        <time>1970-01-01T00:40:39.000Z</time>
      </trkpt>
      <trkpt lat="40.312196" lon="-3.442315">
        <ele>602</ele>
        <time>1970-01-01T00:40:40.000Z</time>
      </trkpt>
      <trkpt lat="40.312225" lon="-3.442299">
        <ele>602.2</ele>
        <time>1970-01-01T00:40:41.000Z</time>
      </trkpt>
      <trkpt lat="40.312258" lon="-3.442283">
        <ele>602.2</ele>
        <time>1970-01-01T00:40:42.000Z</time>
      </trkpt>
      <trkpt lat="40.312291" lon="-3.442265">
        <ele>602.2</ele>
        <time>1970-01-01T00:40:43.000Z</time>
      </trkpt>
      <trkpt lat="40.312326" lon="-3.442247">
        <ele>602.2</ele>
        <time>1970-01-01T00:40:44.000Z</time>
      </trkpt>
      <trkpt lat="40.312362" lon="-3.442227">
        <ele>602.2</ele>
        <time>1970-01-01T00:40:45.000Z</time>
      </trkpt>
      <trkpt lat="40.312398" lon="-3.442208">
        <ele>602.2</ele>
        <time>1970-01-01T00:40:46.000Z</time>
      </trkpt>
      <trkpt lat="40.312434" lon="-3.442192">
        <ele>602.2</ele>
        <time>1970-01-01T00:40:47.000Z</time>
      </trkpt>
      <trkpt lat="40.31247" lon="-3.442176">
        <ele>602.2</ele>
        <time>1970-01-01T00:40:48.000Z</time>
      </trkpt>
      <trkpt lat="40.312508" lon="-3.442157">
        <ele>602.2</ele>
        <time>1970-01-01T00:40:49.000Z</time>
      </trkpt>
      <trkpt lat="40.312546" lon="-3.442135">
        <ele>602.2</ele>
        <time>1970-01-01T00:40:50.000Z</time>
      </trkpt>
      <trkpt lat="40.312585" lon="-3.44211">
        <ele>602</ele>
        <time>1970-01-01T00:40:51.000Z</time>
      </trkpt>
      <trkpt lat="40.312623" lon="-3.442084">
        <ele>602</ele>
        <time>1970-01-01T00:40:52.000Z</time>
      </trkpt>
      <trkpt lat="40.312661" lon="-3.442059">
        <ele>602</ele>
        <time>1970-01-01T00:40:53.000Z</time>
      </trkpt>
      <trkpt lat="40.312699" lon="-3.442035">
        <ele>601.8</ele>
        <time>1970-01-01T00:40:54.000Z</time>
      </trkpt>
      <trkpt lat="40.312739" lon="-3.442009">
        <ele>601.8</ele>
        <time>1970-01-01T00:40:55.000Z</time>
      </trkpt>
      <trkpt lat="40.312778" lon="-3.441982">
        <ele>601.6</ele>
        <time>1970-01-01T00:40:56.000Z</time>
      </trkpt>
      <trkpt lat="40.312818" lon="-3.441954">
        <ele>601.6</ele>
        <time>1970-01-01T00:40:57.000Z</time>
      </trkpt>
      <trkpt lat="40.312858" lon="-3.441925">
        <ele>601.4</ele>
        <time>1970-01-01T00:40:58.000Z</time>
      </trkpt>
      <trkpt lat="40.312899" lon="-3.441898">
        <ele>601.4</ele>
        <time>1970-01-01T00:40:59.000Z</time>
      </trkpt>
      <trkpt lat="40.312942" lon="-3.441869">
        <ele>601.2</ele>
        <time>1970-01-01T00:41:00.000Z</time>
      </trkpt>
      <trkpt lat="40.312986" lon="-3.441842">
        <ele>601.2</ele>
        <time>1970-01-01T00:41:01.000Z</time>
      </trkpt>
      <trkpt lat="40.313029" lon="-3.441812">
        <ele>601</ele>
        <time>1970-01-01T00:41:02.000Z</time>
      </trkpt>
      <trkpt lat="40.313069" lon="-3.441786">
        <ele>601</ele>
        <time>1970-01-01T00:41:03.000Z</time>
      </trkpt>
      <trkpt lat="40.313108" lon="-3.441759">
        <ele>601</ele>
        <time>1970-01-01T00:41:04.000Z</time>
      </trkpt>
      <trkpt lat="40.313146" lon="-3.441733">
        <ele>601</ele>
        <time>1970-01-01T00:41:05.000Z</time>
      </trkpt>
      <trkpt lat="40.313184" lon="-3.441711">
        <ele>601</ele>
        <time>1970-01-01T00:41:06.000Z</time>
      </trkpt>
      <trkpt lat="40.31322" lon="-3.441687">
        <ele>601</ele>
        <time>1970-01-01T00:41:07.000Z</time>
      </trkpt>
      <trkpt lat="40.313256" lon="-3.441665">
        <ele>601.2</ele>
        <time>1970-01-01T00:41:08.000Z</time>
      </trkpt>
      <trkpt lat="40.313292" lon="-3.441642">
        <ele>601.2</ele>
        <time>1970-01-01T00:41:09.000Z</time>
      </trkpt>
      <trkpt lat="40.313328" lon="-3.441618">
        <ele>601.4</ele>
        <time>1970-01-01T00:41:10.000Z</time>
      </trkpt>
      <trkpt lat="40.313364" lon="-3.441596">
        <ele>601.6</ele>
        <time>1970-01-01T00:41:11.000Z</time>
      </trkpt>
      <trkpt lat="40.313398" lon="-3.44157">
        <ele>601.6</ele>
        <time>1970-01-01T00:41:12.000Z</time>
      </trkpt>
      <trkpt lat="40.313433" lon="-3.441545">
        <ele>602</ele>
        <time>1970-01-01T00:41:13.000Z</time>
      </trkpt>
      <trkpt lat="40.313469" lon="-3.441522">
        <ele>602.2</ele>
        <time>1970-01-01T00:41:14.000Z</time>
      </trkpt>
      <trkpt lat="40.313506" lon="-3.441499">
        <ele>602.4</ele>
        <time>1970-01-01T00:41:15.000Z</time>
      </trkpt>
      <trkpt lat="40.313539" lon="-3.441476">
        <ele>602.4</ele>
        <time>1970-01-01T00:41:16.000Z</time>
      </trkpt>
      <trkpt lat="40.313573" lon="-3.44145">
        <ele>602.6</ele>
        <time>1970-01-01T00:41:17.000Z</time>
      </trkpt>
      <trkpt lat="40.313606" lon="-3.441427">
        <ele>602.8</ele>
        <time>1970-01-01T00:41:18.000Z</time>
      </trkpt>
      <trkpt lat="40.313639" lon="-3.441405">
        <ele>603</ele>
        <time>1970-01-01T00:41:19.000Z</time>
      </trkpt>
      <trkpt lat="40.313674" lon="-3.441383">
        <ele>603.2</ele>
        <time>1970-01-01T00:41:20.000Z</time>
      </trkpt>
      <trkpt lat="40.313708" lon="-3.44136">
        <ele>603.2</ele>
        <time>1970-01-01T00:41:21.000Z</time>
      </trkpt>
      <trkpt lat="40.313741" lon="-3.441339">
        <ele>603.4</ele>
        <time>1970-01-01T00:41:22.000Z</time>
      </trkpt>
      <trkpt lat="40.313774" lon="-3.441319">
        <ele>603.6</ele>
        <time>1970-01-01T00:41:23.000Z</time>
      </trkpt>
      <trkpt lat="40.313805" lon="-3.441299">
        <ele>603.8</ele>
        <time>1970-01-01T00:41:24.000Z</time>
      </trkpt>
      <trkpt lat="40.313834" lon="-3.441279">
        <ele>604</ele>
        <time>1970-01-01T00:41:25.000Z</time>
      </trkpt>
      <trkpt lat="40.313864" lon="-3.441256">
        <ele>604.2</ele>
        <time>1970-01-01T00:41:26.000Z</time>
      </trkpt>
      <trkpt lat="40.313892" lon="-3.44123">
        <ele>604.4</ele>
        <time>1970-01-01T00:41:27.000Z</time>
      </trkpt>
      <trkpt lat="40.313922" lon="-3.441206">
        <ele>604.6</ele>
        <time>1970-01-01T00:41:28.000Z</time>
      </trkpt>
      <trkpt lat="40.313952" lon="-3.441181">
        <ele>604.6</ele>
        <time>1970-01-01T00:41:29.000Z</time>
      </trkpt>
      <trkpt lat="40.31398" lon="-3.441155">
        <ele>604.8</ele>
        <time>1970-01-01T00:41:30.000Z</time>
      </trkpt>
      <trkpt lat="40.314004" lon="-3.441128">
        <ele>605</ele>
        <time>1970-01-01T00:41:31.000Z</time>
      </trkpt>
      <trkpt lat="40.314027" lon="-3.441102">
        <ele>605.2</ele>
        <time>1970-01-01T00:41:32.000Z</time>
      </trkpt>
      <trkpt lat="40.314051" lon="-3.441082">
        <ele>605.2</ele>
        <time>1970-01-01T00:41:33.000Z</time>
      </trkpt>
      <trkpt lat="40.314074" lon="-3.441061">
        <ele>605.4</ele>
        <time>1970-01-01T00:41:34.000Z</time>
      </trkpt>
      <trkpt lat="40.314096" lon="-3.441036">
        <ele>605.4</ele>
        <time>1970-01-01T00:41:35.000Z</time>
      </trkpt>
      <trkpt lat="40.314122" lon="-3.441011">
        <ele>605.4</ele>
        <time>1970-01-01T00:41:36.000Z</time>
      </trkpt>
      <trkpt lat="40.314148" lon="-3.440985">
        <ele>605.4</ele>
        <time>1970-01-01T00:41:37.000Z</time>
      </trkpt>
      <trkpt lat="40.314178" lon="-3.440954">
        <ele>605.4</ele>
        <time>1970-01-01T00:41:38.000Z</time>
      </trkpt>
      <trkpt lat="40.31421" lon="-3.440921">
        <ele>605.4</ele>
        <time>1970-01-01T00:41:39.000Z</time>
      </trkpt>
      <trkpt lat="40.314247" lon="-3.440882">
        <ele>605.4</ele>
        <time>1970-01-01T00:41:40.000Z</time>
      </trkpt>
      <trkpt lat="40.314289" lon="-3.440836">
        <ele>605.4</ele>
        <time>1970-01-01T00:41:41.000Z</time>
      </trkpt>
      <trkpt lat="40.314335" lon="-3.440783">
        <ele>605.4</ele>
        <time>1970-01-01T00:41:42.000Z</time>
      </trkpt>
      <trkpt lat="40.314384" lon="-3.440733">
        <ele>605.2</ele>
        <time>1970-01-01T00:41:43.000Z</time>
      </trkpt>
      <trkpt lat="40.314432" lon="-3.440679">
        <ele>605</ele>
        <time>1970-01-01T00:41:44.000Z</time>
      </trkpt>
      <trkpt lat="40.314479" lon="-3.440628">
        <ele>604.8</ele>
        <time>1970-01-01T00:41:45.000Z</time>
      </trkpt>
      <trkpt lat="40.31452" lon="-3.440578">
        <ele>604.4</ele>
        <time>1970-01-01T00:41:46.000Z</time>
      </trkpt>
      <trkpt lat="40.314559" lon="-3.440523">
        <ele>604</ele>
        <time>1970-01-01T00:41:47.000Z</time>
      </trkpt>
      <trkpt lat="40.314604" lon="-3.440465">
        <ele>602.8</ele>
        <time>1970-01-01T00:41:48.000Z</time>
      </trkpt>
      <trkpt lat="40.314659" lon="-3.440412">
        <ele>601.8</ele>
        <time>1970-01-01T00:41:49.000Z</time>
      </trkpt>
      <trkpt lat="40.314719" lon="-3.440366">
        <ele>601.4</ele>
        <time>1970-01-01T00:41:50.000Z</time>
      </trkpt>
      <trkpt lat="40.314777" lon="-3.440327">
        <ele>600.2</ele>
        <time>1970-01-01T00:41:51.000Z</time>
      </trkpt>
      <trkpt lat="40.314826" lon="-3.440288">
        <ele>599.4</ele>
        <time>1970-01-01T00:41:52.000Z</time>
      </trkpt>
      <trkpt lat="40.314863" lon="-3.440247">
        <ele>598.6</ele>
        <time>1970-01-01T00:41:53.000Z</time>
      </trkpt>
      <trkpt lat="40.314884" lon="-3.440205">
        <ele>597.8</ele>
        <time>1970-01-01T00:41:54.000Z</time>
      </trkpt>
      <trkpt lat="40.31489" lon="-3.440166">
        <ele>596.4</ele>
        <time>1970-01-01T00:41:55.000Z</time>
      </trkpt>
      <trkpt lat="40.314886" lon="-3.440127">
        <ele>595.2</ele>
        <time>1970-01-01T00:41:56.000Z</time>
      </trkpt>
      <trkpt lat="40.314879" lon="-3.440086">
        <ele>593.8</ele>
        <time>1970-01-01T00:41:57.000Z</time>
      </trkpt>
      <trkpt lat="40.314871" lon="-3.44004">
        <ele>592.6</ele>
        <time>1970-01-01T00:41:58.000Z</time>
      </trkpt>
      <trkpt lat="40.314865" lon="-3.43999">
        <ele>592</ele>
        <time>1970-01-01T00:41:59.000Z</time>
      </trkpt>
      <trkpt lat="40.314856" lon="-3.439939">
        <ele>591</ele>
        <time>1970-01-01T00:42:00.000Z</time>
      </trkpt>
      <trkpt lat="40.314848" lon="-3.439886">
        <ele>590.8</ele>
        <time>1970-01-01T00:42:01.000Z</time>
      </trkpt>
      <trkpt lat="40.314841" lon="-3.439835">
        <ele>590.2</ele>
        <time>1970-01-01T00:42:02.000Z</time>
      </trkpt>
      <trkpt lat="40.314835" lon="-3.439781">
        <ele>590</ele>
        <time>1970-01-01T00:42:03.000Z</time>
      </trkpt>
      <trkpt lat="40.314827" lon="-3.439726">
        <ele>589.8</ele>
        <time>1970-01-01T00:42:04.000Z</time>
      </trkpt>
      <trkpt lat="40.31482" lon="-3.43967">
        <ele>589.6</ele>
        <time>1970-01-01T00:42:05.000Z</time>
      </trkpt>
      <trkpt lat="40.314812" lon="-3.439614">
        <ele>589.4</ele>
        <time>1970-01-01T00:42:06.000Z</time>
      </trkpt>
      <trkpt lat="40.314803" lon="-3.43956">
        <ele>589.2</ele>
        <time>1970-01-01T00:42:07.000Z</time>
      </trkpt>
      <trkpt lat="40.314795" lon="-3.439507">
        <ele>589.2</ele>
        <time>1970-01-01T00:42:08.000Z</time>
      </trkpt>
      <trkpt lat="40.314786" lon="-3.439456">
        <ele>589.2</ele>
        <time>1970-01-01T00:42:09.000Z</time>
      </trkpt>
      <trkpt lat="40.314776" lon="-3.439408">
        <ele>589.2</ele>
        <time>1970-01-01T00:42:10.000Z</time>
      </trkpt>
      <trkpt lat="40.314766" lon="-3.439362">
        <ele>589</ele>
        <time>1970-01-01T00:42:11.000Z</time>
      </trkpt>
      <trkpt lat="40.314756" lon="-3.439315">
        <ele>589</ele>
        <time>1970-01-01T00:42:12.000Z</time>
      </trkpt>
      <trkpt lat="40.314746" lon="-3.439269">
        <ele>589</ele>
        <time>1970-01-01T00:42:13.000Z</time>
      </trkpt>
      <trkpt lat="40.314735" lon="-3.43922">
        <ele>589</ele>
        <time>1970-01-01T00:42:14.000Z</time>
      </trkpt>
      <trkpt lat="40.314723" lon="-3.439171">
        <ele>589</ele>
        <time>1970-01-01T00:42:15.000Z</time>
      </trkpt>
      <trkpt lat="40.314706" lon="-3.439124">
        <ele>588.8</ele>
        <time>1970-01-01T00:42:16.000Z</time>
      </trkpt>
      <trkpt lat="40.314689" lon="-3.439073">
        <ele>588.8</ele>
        <time>1970-01-01T00:42:17.000Z</time>
      </trkpt>
      <trkpt lat="40.314674" lon="-3.439021">
        <ele>588.8</ele>
        <time>1970-01-01T00:42:18.000Z</time>
      </trkpt>
      <trkpt lat="40.314656" lon="-3.438969">
        <ele>588.8</ele>
        <time>1970-01-01T00:42:19.000Z</time>
      </trkpt>
      <trkpt lat="40.314639" lon="-3.438917">
        <ele>588.8</ele>
        <time>1970-01-01T00:42:20.000Z</time>
      </trkpt>
      <trkpt lat="40.314626" lon="-3.438863">
        <ele>588.8</ele>
        <time>1970-01-01T00:42:21.000Z</time>
      </trkpt>
      <trkpt lat="40.314614" lon="-3.43881">
        <ele>588.6</ele>
        <time>1970-01-01T00:42:22.000Z</time>
      </trkpt>
      <trkpt lat="40.314602" lon="-3.438757">
        <ele>588.6</ele>
        <time>1970-01-01T00:42:23.000Z</time>
      </trkpt>
      <trkpt lat="40.314591" lon="-3.438707">
        <ele>588.8</ele>
        <time>1970-01-01T00:42:24.000Z</time>
      </trkpt>
      <trkpt lat="40.314581" lon="-3.438658">
        <ele>588.8</ele>
        <time>1970-01-01T00:42:25.000Z</time>
      </trkpt>
      <trkpt lat="40.31457" lon="-3.4386">
        <ele>588.8</ele>
        <time>1970-01-01T00:42:26.000Z</time>
      </trkpt>
      <trkpt lat="40.314562" lon="-3.43855">
        <ele>588.8</ele>
        <time>1970-01-01T00:42:27.000Z</time>
      </trkpt>
      <trkpt lat="40.314553" lon="-3.438512">
        <ele>588.8</ele>
        <time>1970-01-01T00:42:28.000Z</time>
      </trkpt>
      <trkpt lat="40.314544" lon="-3.438462">
        <ele>588.8</ele>
        <time>1970-01-01T00:42:29.000Z</time>
      </trkpt>
      <trkpt lat="40.314534" lon="-3.438411">
        <ele>588.8</ele>
        <time>1970-01-01T00:42:30.000Z</time>
      </trkpt>
      <trkpt lat="40.314524" lon="-3.43836">
        <ele>588.8</ele>
        <time>1970-01-01T00:42:31.000Z</time>
      </trkpt>
      <trkpt lat="40.314516" lon="-3.438308">
        <ele>589</ele>
        <time>1970-01-01T00:42:32.000Z</time>
      </trkpt>
      <trkpt lat="40.314507" lon="-3.438256">
        <ele>589</ele>
        <time>1970-01-01T00:42:33.000Z</time>
      </trkpt>
      <trkpt lat="40.314498" lon="-3.438206">
        <ele>589</ele>
        <time>1970-01-01T00:42:34.000Z</time>
      </trkpt>
      <trkpt lat="40.314491" lon="-3.438155">
        <ele>589.2</ele>
        <time>1970-01-01T00:42:35.000Z</time>
      </trkpt>
      <trkpt lat="40.314487" lon="-3.438102">
        <ele>589</ele>
        <time>1970-01-01T00:42:36.000Z</time>
      </trkpt>
      <trkpt lat="40.314483" lon="-3.438049">
        <ele>589.2</ele>
        <time>1970-01-01T00:42:37.000Z</time>
      </trkpt>
      <trkpt lat="40.314479" lon="-3.437996">
        <ele>589.2</ele>
        <time>1970-01-01T00:42:38.000Z</time>
      </trkpt>
      <trkpt lat="40.314475" lon="-3.437942">
        <ele>589.2</ele>
        <time>1970-01-01T00:42:39.000Z</time>
      </trkpt>
      <trkpt lat="40.314471" lon="-3.437888">
        <ele>589.4</ele>
        <time>1970-01-01T00:42:40.000Z</time>
      </trkpt>
      <trkpt lat="40.314467" lon="-3.437832">
        <ele>589.4</ele>
        <time>1970-01-01T00:42:41.000Z</time>
      </trkpt>
      <trkpt lat="40.314464" lon="-3.437776">
        <ele>589.6</ele>
        <time>1970-01-01T00:42:42.000Z</time>
      </trkpt>
      <trkpt lat="40.314461" lon="-3.437721">
        <ele>589.6</ele>
        <time>1970-01-01T00:42:43.000Z</time>
      </trkpt>
      <trkpt lat="40.314457" lon="-3.437664">
        <ele>589.6</ele>
        <time>1970-01-01T00:42:44.000Z</time>
      </trkpt>
      <trkpt lat="40.314453" lon="-3.43761">
        <ele>589.6</ele>
        <time>1970-01-01T00:42:45.000Z</time>
      </trkpt>
      <trkpt lat="40.314453" lon="-3.437555">
        <ele>589.6</ele>
        <time>1970-01-01T00:42:46.000Z</time>
      </trkpt>
      <trkpt lat="40.31445" lon="-3.437502">
        <ele>589.6</ele>
        <time>1970-01-01T00:42:47.000Z</time>
      </trkpt>
      <trkpt lat="40.314449" lon="-3.437449">
        <ele>589.8</ele>
        <time>1970-01-01T00:42:48.000Z</time>
      </trkpt>
      <trkpt lat="40.31445" lon="-3.437398">
        <ele>589.8</ele>
        <time>1970-01-01T00:42:49.000Z</time>
      </trkpt>
      <trkpt lat="40.31445" lon="-3.437335">
        <ele>589.8</ele>
        <time>1970-01-01T00:42:50.000Z</time>
      </trkpt>
      <trkpt lat="40.314448" lon="-3.437284">
        <ele>589.8</ele>
        <time>1970-01-01T00:42:51.000Z</time>
      </trkpt>
      <trkpt lat="40.314444" lon="-3.437233">
        <ele>590</ele>
        <time>1970-01-01T00:42:52.000Z</time>
      </trkpt>
      <trkpt lat="40.314437" lon="-3.437191">
        <ele>590</ele>
        <time>1970-01-01T00:42:53.000Z</time>
      </trkpt>
      <trkpt lat="40.314432" lon="-3.437139">
        <ele>590.2</ele>
        <time>1970-01-01T00:42:54.000Z</time>
      </trkpt>
      <trkpt lat="40.314431" lon="-3.437077">
        <ele>590.4</ele>
        <time>1970-01-01T00:42:55.000Z</time>
      </trkpt>
      <trkpt lat="40.314432" lon="-3.437032">
        <ele>590.4</ele>
        <time>1970-01-01T00:42:56.000Z</time>
      </trkpt>
      <trkpt lat="40.314431" lon="-3.436978">
        <ele>590.6</ele>
        <time>1970-01-01T00:42:57.000Z</time>
      </trkpt>
      <trkpt lat="40.31443" lon="-3.436924">
        <ele>590.6</ele>
        <time>1970-01-01T00:42:58.000Z</time>
      </trkpt>
      <trkpt lat="40.31443" lon="-3.436859">
        <ele>590.6</ele>
        <time>1970-01-01T00:42:59.000Z</time>
      </trkpt>
      <trkpt lat="40.314432" lon="-3.436815">
        <ele>590.8</ele>
        <time>1970-01-01T00:43:00.000Z</time>
      </trkpt>
      <trkpt lat="40.314437" lon="-3.43675">
        <ele>590.8</ele>
        <time>1970-01-01T00:43:01.000Z</time>
      </trkpt>
      <trkpt lat="40.314442" lon="-3.436696">
        <ele>590.8</ele>
        <time>1970-01-01T00:43:02.000Z</time>
      </trkpt>
      <trkpt lat="40.314446" lon="-3.436654">
        <ele>590.8</ele>
        <time>1970-01-01T00:43:03.000Z</time>
      </trkpt>
      <trkpt lat="40.314454" lon="-3.4366">
        <ele>591</ele>
        <time>1970-01-01T00:43:04.000Z</time>
      </trkpt>
      <trkpt lat="40.314461" lon="-3.436547">
        <ele>591</ele>
        <time>1970-01-01T00:43:05.000Z</time>
      </trkpt>
      <trkpt lat="40.314472" lon="-3.436493">
        <ele>591</ele>
        <time>1970-01-01T00:43:06.000Z</time>
      </trkpt>
      <trkpt lat="40.314489" lon="-3.43643">
        <ele>591</ele>
        <time>1970-01-01T00:43:07.000Z</time>
      </trkpt>
      <trkpt lat="40.3145" lon="-3.436387">
        <ele>591</ele>
        <time>1970-01-01T00:43:08.000Z</time>
      </trkpt>
      <trkpt lat="40.314514" lon="-3.43633">
        <ele>591</ele>
        <time>1970-01-01T00:43:09.000Z</time>
      </trkpt>
      <trkpt lat="40.314528" lon="-3.436276">
        <ele>591</ele>
        <time>1970-01-01T00:43:10.000Z</time>
      </trkpt>
      <trkpt lat="40.314545" lon="-3.436211">
        <ele>591</ele>
        <time>1970-01-01T00:43:11.000Z</time>
      </trkpt>
      <trkpt lat="40.314553" lon="-3.436165">
        <ele>591</ele>
        <time>1970-01-01T00:43:12.000Z</time>
      </trkpt>
      <trkpt lat="40.314559" lon="-3.436105">
        <ele>591</ele>
        <time>1970-01-01T00:43:13.000Z</time>
      </trkpt>
      <trkpt lat="40.314562" lon="-3.436041">
        <ele>591</ele>
        <time>1970-01-01T00:43:14.000Z</time>
      </trkpt>
      <trkpt lat="40.314562" lon="-3.435973">
        <ele>591</ele>
        <time>1970-01-01T00:43:15.000Z</time>
      </trkpt>
      <trkpt lat="40.314562" lon="-3.435891">
        <ele>591</ele>
        <time>1970-01-01T00:43:16.000Z</time>
      </trkpt>
      <trkpt lat="40.314563" lon="-3.435835">
        <ele>591</ele>
        <time>1970-01-01T00:43:17.000Z</time>
      </trkpt>
      <trkpt lat="40.314562" lon="-3.435767">
        <ele>590.8</ele>
        <time>1970-01-01T00:43:18.000Z</time>
      </trkpt>
      <trkpt lat="40.31456" lon="-3.435686">
        <ele>590.6</ele>
        <time>1970-01-01T00:43:19.000Z</time>
      </trkpt>
      <trkpt lat="40.314557" lon="-3.435635">
        <ele>590.4</ele>
        <time>1970-01-01T00:43:20.000Z</time>
      </trkpt>
      <trkpt lat="40.314552" lon="-3.435561">
        <ele>590.4</ele>
        <time>1970-01-01T00:43:21.000Z</time>
      </trkpt>
      <trkpt lat="40.314552" lon="-3.435511">
        <ele>590.2</ele>
        <time>1970-01-01T00:43:22.000Z</time>
      </trkpt>
      <trkpt lat="40.314551" lon="-3.435448">
        <ele>590.2</ele>
        <time>1970-01-01T00:43:23.000Z</time>
      </trkpt>
      <trkpt lat="40.314553" lon="-3.435381">
        <ele>590</ele>
        <time>1970-01-01T00:43:24.000Z</time>
      </trkpt>
      <trkpt lat="40.314557" lon="-3.435315">
        <ele>590</ele>
        <time>1970-01-01T00:43:25.000Z</time>
      </trkpt>
      <trkpt lat="40.314561" lon="-3.435247">
        <ele>590</ele>
        <time>1970-01-01T00:43:26.000Z</time>
      </trkpt>
      <trkpt lat="40.314566" lon="-3.43518">
        <ele>589.8</ele>
        <time>1970-01-01T00:43:27.000Z</time>
      </trkpt>
      <trkpt lat="40.314569" lon="-3.435114">
        <ele>589.8</ele>
        <time>1970-01-01T00:43:28.000Z</time>
      </trkpt>
      <trkpt lat="40.31457" lon="-3.43505">
        <ele>589.8</ele>
        <time>1970-01-01T00:43:29.000Z</time>
      </trkpt>
      <trkpt lat="40.314573" lon="-3.434987">
        <ele>589.8</ele>
        <time>1970-01-01T00:43:30.000Z</time>
      </trkpt>
      <trkpt lat="40.314576" lon="-3.434924">
        <ele>589.8</ele>
        <time>1970-01-01T00:43:31.000Z</time>
      </trkpt>
      <trkpt lat="40.31458" lon="-3.43486">
        <ele>589.8</ele>
        <time>1970-01-01T00:43:32.000Z</time>
      </trkpt>
      <trkpt lat="40.314586" lon="-3.434799">
        <ele>589.8</ele>
        <time>1970-01-01T00:43:33.000Z</time>
      </trkpt>
      <trkpt lat="40.314592" lon="-3.434736">
        <ele>589.8</ele>
        <time>1970-01-01T00:43:34.000Z</time>
      </trkpt>
      <trkpt lat="40.314596" lon="-3.434673">
        <ele>589.8</ele>
        <time>1970-01-01T00:43:35.000Z</time>
      </trkpt>
      <trkpt lat="40.314598" lon="-3.434612">
        <ele>589.8</ele>
        <time>1970-01-01T00:43:36.000Z</time>
      </trkpt>
      <trkpt lat="40.314601" lon="-3.434549">
        <ele>589.8</ele>
        <time>1970-01-01T00:43:37.000Z</time>
      </trkpt>
      <trkpt lat="40.314603" lon="-3.434487">
        <ele>590</ele>
        <time>1970-01-01T00:43:38.000Z</time>
      </trkpt>
      <trkpt lat="40.314604" lon="-3.434427">
        <ele>590</ele>
        <time>1970-01-01T00:43:39.000Z</time>
      </trkpt>
      <trkpt lat="40.314605" lon="-3.434369">
        <ele>590</ele>
        <time>1970-01-01T00:43:40.000Z</time>
      </trkpt>
      <trkpt lat="40.314607" lon="-3.434315">
        <ele>590</ele>
        <time>1970-01-01T00:43:41.000Z</time>
      </trkpt>
      <trkpt lat="40.314609" lon="-3.434269">
        <ele>590</ele>
        <time>1970-01-01T00:43:42.000Z</time>
      </trkpt>
      <trkpt lat="40.31461" lon="-3.434223">
        <ele>590.2</ele>
        <time>1970-01-01T00:43:43.000Z</time>
      </trkpt>
      <trkpt lat="40.314613" lon="-3.434176">
        <ele>590.4</ele>
        <time>1970-01-01T00:43:44.000Z</time>
      </trkpt>
      <trkpt lat="40.314615" lon="-3.434126">
        <ele>590.8</ele>
        <time>1970-01-01T00:43:45.000Z</time>
      </trkpt>
      <trkpt lat="40.314617" lon="-3.434075">
        <ele>591</ele>
        <time>1970-01-01T00:43:46.000Z</time>
      </trkpt>
      <trkpt lat="40.31462" lon="-3.434014">
        <ele>591.4</ele>
        <time>1970-01-01T00:43:47.000Z</time>
      </trkpt>
      <trkpt lat="40.314621" lon="-3.433972">
        <ele>591.6</ele>
        <time>1970-01-01T00:43:48.000Z</time>
      </trkpt>
      <trkpt lat="40.314624" lon="-3.433917">
        <ele>591.8</ele>
        <time>1970-01-01T00:43:49.000Z</time>
      </trkpt>
      <trkpt lat="40.314628" lon="-3.433863">
        <ele>592</ele>
        <time>1970-01-01T00:43:50.000Z</time>
      </trkpt>
      <trkpt lat="40.314634" lon="-3.433807">
        <ele>592</ele>
        <time>1970-01-01T00:43:51.000Z</time>
      </trkpt>
      <trkpt lat="40.314639" lon="-3.433754">
        <ele>592.2</ele>
        <time>1970-01-01T00:43:52.000Z</time>
      </trkpt>
      <trkpt lat="40.314644" lon="-3.433699">
        <ele>592.2</ele>
        <time>1970-01-01T00:43:53.000Z</time>
      </trkpt>
      <trkpt lat="40.314646" lon="-3.433647">
        <ele>592.2</ele>
        <time>1970-01-01T00:43:54.000Z</time>
      </trkpt>
      <trkpt lat="40.314654" lon="-3.433591">
        <ele>592.2</ele>
        <time>1970-01-01T00:43:55.000Z</time>
      </trkpt>
      <trkpt lat="40.314667" lon="-3.433534">
        <ele>592.2</ele>
        <time>1970-01-01T00:43:56.000Z</time>
      </trkpt>
      <trkpt lat="40.314681" lon="-3.433478">
        <ele>592.2</ele>
        <time>1970-01-01T00:43:57.000Z</time>
      </trkpt>
      <trkpt lat="40.314686" lon="-3.433427">
        <ele>592.2</ele>
        <time>1970-01-01T00:43:58.000Z</time>
      </trkpt>
      <trkpt lat="40.314687" lon="-3.433381">
        <ele>592.2</ele>
        <time>1970-01-01T00:43:59.000Z</time>
      </trkpt>
      <trkpt lat="40.31468" lon="-3.433336">
        <ele>592.2</ele>
        <time>1970-01-01T00:44:00.000Z</time>
      </trkpt>
      <trkpt lat="40.31468" lon="-3.433285">
        <ele>592.2</ele>
        <time>1970-01-01T00:44:01.000Z</time>
      </trkpt>
      <trkpt lat="40.314689" lon="-3.433225">
        <ele>592.2</ele>
        <time>1970-01-01T00:44:02.000Z</time>
      </trkpt>
      <trkpt lat="40.314706" lon="-3.433167">
        <ele>592.4</ele>
        <time>1970-01-01T00:44:03.000Z</time>
      </trkpt>
      <trkpt lat="40.31472" lon="-3.433112">
        <ele>592.4</ele>
        <time>1970-01-01T00:44:04.000Z</time>
      </trkpt>
      <trkpt lat="40.31473" lon="-3.433059">
        <ele>592.4</ele>
        <time>1970-01-01T00:44:05.000Z</time>
      </trkpt>
      <trkpt lat="40.314737" lon="-3.433007">
        <ele>592.6</ele>
        <time>1970-01-01T00:44:06.000Z</time>
      </trkpt>
      <trkpt lat="40.314738" lon="-3.432955">
        <ele>592.6</ele>
        <time>1970-01-01T00:44:07.000Z</time>
      </trkpt>
      <trkpt lat="40.314737" lon="-3.432904">
        <ele>592.6</ele>
        <time>1970-01-01T00:44:08.000Z</time>
      </trkpt>
      <trkpt lat="40.314738" lon="-3.432848">
        <ele>592.6</ele>
        <time>1970-01-01T00:44:09.000Z</time>
      </trkpt>
      <trkpt lat="40.31474" lon="-3.432793">
        <ele>592.6</ele>
        <time>1970-01-01T00:44:10.000Z</time>
      </trkpt>
      <trkpt lat="40.31474" lon="-3.432737">
        <ele>592.8</ele>
        <time>1970-01-01T00:44:11.000Z</time>
      </trkpt>
      <trkpt lat="40.314737" lon="-3.432681">
        <ele>592.8</ele>
        <time>1970-01-01T00:44:12.000Z</time>
      </trkpt>
      <trkpt lat="40.314734" lon="-3.432628">
        <ele>592.8</ele>
        <time>1970-01-01T00:44:13.000Z</time>
      </trkpt>
      <trkpt lat="40.314731" lon="-3.432574">
        <ele>592.8</ele>
        <time>1970-01-01T00:44:14.000Z</time>
      </trkpt>
      <trkpt lat="40.314729" lon="-3.432519">
        <ele>592.8</ele>
        <time>1970-01-01T00:44:15.000Z</time>
      </trkpt>
      <trkpt lat="40.314728" lon="-3.432467">
        <ele>593</ele>
        <time>1970-01-01T00:44:16.000Z</time>
      </trkpt>
      <trkpt lat="40.314725" lon="-3.432414">
        <ele>593</ele>
        <time>1970-01-01T00:44:17.000Z</time>
      </trkpt>
      <trkpt lat="40.314721" lon="-3.432361">
        <ele>593</ele>
        <time>1970-01-01T00:44:18.000Z</time>
      </trkpt>
      <trkpt lat="40.314716" lon="-3.43231">
        <ele>593.2</ele>
        <time>1970-01-01T00:44:19.000Z</time>
      </trkpt>
      <trkpt lat="40.31471" lon="-3.43226">
        <ele>593.2</ele>
        <time>1970-01-01T00:44:20.000Z</time>
      </trkpt>
      <trkpt lat="40.314703" lon="-3.432212">
        <ele>593.4</ele>
        <time>1970-01-01T00:44:21.000Z</time>
      </trkpt>
      <trkpt lat="40.314695" lon="-3.432162">
        <ele>593.4</ele>
        <time>1970-01-01T00:44:22.000Z</time>
      </trkpt>
      <trkpt lat="40.314689" lon="-3.432112">
        <ele>593.4</ele>
        <time>1970-01-01T00:44:23.000Z</time>
      </trkpt>
      <trkpt lat="40.314685" lon="-3.432062">
        <ele>593.6</ele>
        <time>1970-01-01T00:44:24.000Z</time>
      </trkpt>
      <trkpt lat="40.31468" lon="-3.432011">
        <ele>593.8</ele>
        <time>1970-01-01T00:44:25.000Z</time>
      </trkpt>
      <trkpt lat="40.314674" lon="-3.431959">
        <ele>593.8</ele>
        <time>1970-01-01T00:44:26.000Z</time>
      </trkpt>
      <trkpt lat="40.314669" lon="-3.431907">
        <ele>593.8</ele>
        <time>1970-01-01T00:44:27.000Z</time>
      </trkpt>
      <trkpt lat="40.314664" lon="-3.431853">
        <ele>593.8</ele>
        <time>1970-01-01T00:44:28.000Z</time>
      </trkpt>
      <trkpt lat="40.314657" lon="-3.431795">
        <ele>593.8</ele>
        <time>1970-01-01T00:44:29.000Z</time>
      </trkpt>
      <trkpt lat="40.31465" lon="-3.431738">
        <ele>594</ele>
        <time>1970-01-01T00:44:30.000Z</time>
      </trkpt>
      <trkpt lat="40.314643" lon="-3.431679">
        <ele>594</ele>
        <time>1970-01-01T00:44:31.000Z</time>
      </trkpt>
      <trkpt lat="40.314632" lon="-3.431621">
        <ele>594</ele>
        <time>1970-01-01T00:44:32.000Z</time>
      </trkpt>
      <trkpt lat="40.314622" lon="-3.431563">
        <ele>594</ele>
        <time>1970-01-01T00:44:33.000Z</time>
      </trkpt>
      <trkpt lat="40.314609" lon="-3.431504">
        <ele>593.8</ele>
        <time>1970-01-01T00:44:34.000Z</time>
      </trkpt>
      <trkpt lat="40.314598" lon="-3.431442">
        <ele>593.8</ele>
        <time>1970-01-01T00:44:35.000Z</time>
      </trkpt>
      <trkpt lat="40.314583" lon="-3.431383">
        <ele>593.8</ele>
        <time>1970-01-01T00:44:36.000Z</time>
      </trkpt>
      <trkpt lat="40.314566" lon="-3.431326">
        <ele>593.8</ele>
        <time>1970-01-01T00:44:37.000Z</time>
      </trkpt>
      <trkpt lat="40.31455" lon="-3.43127">
        <ele>593.6</ele>
        <time>1970-01-01T00:44:38.000Z</time>
      </trkpt>
      <trkpt lat="40.314534" lon="-3.431217">
        <ele>593.6</ele>
        <time>1970-01-01T00:44:39.000Z</time>
      </trkpt>
      <trkpt lat="40.31452" lon="-3.431162">
        <ele>593.6</ele>
        <time>1970-01-01T00:44:40.000Z</time>
      </trkpt>
      <trkpt lat="40.314507" lon="-3.431108">
        <ele>593.6</ele>
        <time>1970-01-01T00:44:41.000Z</time>
      </trkpt>
      <trkpt lat="40.314496" lon="-3.431054">
        <ele>593.6</ele>
        <time>1970-01-01T00:44:42.000Z</time>
      </trkpt>
      <trkpt lat="40.31449" lon="-3.431001">
        <ele>593.6</ele>
        <time>1970-01-01T00:44:43.000Z</time>
      </trkpt>
      <trkpt lat="40.314496" lon="-3.43095">
        <ele>593.6</ele>
        <time>1970-01-01T00:44:44.000Z</time>
      </trkpt>
      <trkpt lat="40.314518" lon="-3.430901">
        <ele>593.8</ele>
        <time>1970-01-01T00:44:45.000Z</time>
      </trkpt>
      <trkpt lat="40.314552" lon="-3.430859">
        <ele>593.8</ele>
        <time>1970-01-01T00:44:46.000Z</time>
      </trkpt>
      <trkpt lat="40.314593" lon="-3.430823">
        <ele>593.8</ele>
        <time>1970-01-01T00:44:47.000Z</time>
      </trkpt>
      <trkpt lat="40.314636" lon="-3.430793">
        <ele>593.8</ele>
        <time>1970-01-01T00:44:48.000Z</time>
      </trkpt>
      <trkpt lat="40.314679" lon="-3.430763">
        <ele>593.8</ele>
        <time>1970-01-01T00:44:49.000Z</time>
      </trkpt>
      <trkpt lat="40.31472" lon="-3.430732">
        <ele>593.6</ele>
        <time>1970-01-01T00:44:50.000Z</time>
      </trkpt>
      <trkpt lat="40.314757" lon="-3.430696">
        <ele>593.6</ele>
        <time>1970-01-01T00:44:51.000Z</time>
      </trkpt>
      <trkpt lat="40.31479" lon="-3.430657">
        <ele>593.6</ele>
        <time>1970-01-01T00:44:52.000Z</time>
      </trkpt>
      <trkpt lat="40.314815" lon="-3.430613">
        <ele>593.6</ele>
        <time>1970-01-01T00:44:53.000Z</time>
      </trkpt>
      <trkpt lat="40.314837" lon="-3.430565">
        <ele>593.4</ele>
        <time>1970-01-01T00:44:54.000Z</time>
      </trkpt>
      <trkpt lat="40.314851" lon="-3.430514">
        <ele>593.4</ele>
        <time>1970-01-01T00:44:55.000Z</time>
      </trkpt>
      <trkpt lat="40.31486" lon="-3.430464">
        <ele>593.4</ele>
        <time>1970-01-01T00:44:56.000Z</time>
      </trkpt>
      <trkpt lat="40.314861" lon="-3.430413">
        <ele>593.4</ele>
        <time>1970-01-01T00:44:57.000Z</time>
      </trkpt>
      <trkpt lat="40.314859" lon="-3.43036">
        <ele>593.4</ele>
        <time>1970-01-01T00:44:58.000Z</time>
      </trkpt>
      <trkpt lat="40.314859" lon="-3.430313">
        <ele>593.4</ele>
        <time>1970-01-01T00:44:59.000Z</time>
      </trkpt>
      <trkpt lat="40.314863" lon="-3.430267">
        <ele>593.4</ele>
        <time>1970-01-01T00:45:00.000Z</time>
      </trkpt>
      <trkpt lat="40.314871" lon="-3.43022">
        <ele>593.4</ele>
        <time>1970-01-01T00:45:01.000Z</time>
      </trkpt>
      <trkpt lat="40.314884" lon="-3.430173">
        <ele>593.4</ele>
        <time>1970-01-01T00:45:02.000Z</time>
      </trkpt>
      <trkpt lat="40.314898" lon="-3.430128">
        <ele>593.4</ele>
        <time>1970-01-01T00:45:03.000Z</time>
      </trkpt>
      <trkpt lat="40.314915" lon="-3.430084">
        <ele>593.4</ele>
        <time>1970-01-01T00:45:04.000Z</time>
      </trkpt>
      <trkpt lat="40.314932" lon="-3.43004">
        <ele>593.6</ele>
        <time>1970-01-01T00:45:05.000Z</time>
      </trkpt>
      <trkpt lat="40.314951" lon="-3.429999">
        <ele>593.6</ele>
        <time>1970-01-01T00:45:06.000Z</time>
      </trkpt>
      <trkpt lat="40.314973" lon="-3.429962">
        <ele>593.6</ele>
        <time>1970-01-01T00:45:07.000Z</time>
      </trkpt>
      <trkpt lat="40.314994" lon="-3.429924">
        <ele>593.8</ele>
        <time>1970-01-01T00:45:08.000Z</time>
      </trkpt>
      <trkpt lat="40.315017" lon="-3.429884">
        <ele>593.8</ele>
        <time>1970-01-01T00:45:09.000Z</time>
      </trkpt>
      <trkpt lat="40.31504" lon="-3.429843">
        <ele>594</ele>
        <time>1970-01-01T00:45:10.000Z</time>
      </trkpt>
      <trkpt lat="40.315065" lon="-3.429805">
        <ele>594</ele>
        <time>1970-01-01T00:45:11.000Z</time>
      </trkpt>
      <trkpt lat="40.31509" lon="-3.429766">
        <ele>594.2</ele>
        <time>1970-01-01T00:45:12.000Z</time>
      </trkpt>
      <trkpt lat="40.315114" lon="-3.429729">
        <ele>594.2</ele>
        <time>1970-01-01T00:45:13.000Z</time>
      </trkpt>
      <trkpt lat="40.315137" lon="-3.42969">
        <ele>594.4</ele>
        <time>1970-01-01T00:45:14.000Z</time>
      </trkpt>
      <trkpt lat="40.315158" lon="-3.429652">
        <ele>594.2</ele>
        <time>1970-01-01T00:45:15.000Z</time>
      </trkpt>
      <trkpt lat="40.315182" lon="-3.429615">
        <ele>594.2</ele>
        <time>1970-01-01T00:45:16.000Z</time>
      </trkpt>
      <trkpt lat="40.315206" lon="-3.429578">
        <ele>594.4</ele>
        <time>1970-01-01T00:45:17.000Z</time>
      </trkpt>
      <trkpt lat="40.31523" lon="-3.429543">
        <ele>594.4</ele>
        <time>1970-01-01T00:45:18.000Z</time>
      </trkpt>
      <trkpt lat="40.315252" lon="-3.429508">
        <ele>594.4</ele>
        <time>1970-01-01T00:45:19.000Z</time>
      </trkpt>
      <trkpt lat="40.315276" lon="-3.42947">
        <ele>594.4</ele>
        <time>1970-01-01T00:45:20.000Z</time>
      </trkpt>
      <trkpt lat="40.315299" lon="-3.429432">
        <ele>594.4</ele>
        <time>1970-01-01T00:45:21.000Z</time>
      </trkpt>
      <trkpt lat="40.315321" lon="-3.429395">
        <ele>594.4</ele>
        <time>1970-01-01T00:45:22.000Z</time>
      </trkpt>
      <trkpt lat="40.315347" lon="-3.429355">
        <ele>594.4</ele>
        <time>1970-01-01T00:45:23.000Z</time>
      </trkpt>
      <trkpt lat="40.315371" lon="-3.429315">
        <ele>594.6</ele>
        <time>1970-01-01T00:45:24.000Z</time>
      </trkpt>
      <trkpt lat="40.315397" lon="-3.429278">
        <ele>594.6</ele>
        <time>1970-01-01T00:45:25.000Z</time>
      </trkpt>
      <trkpt lat="40.315423" lon="-3.429243">
        <ele>594.6</ele>
        <time>1970-01-01T00:45:26.000Z</time>
      </trkpt>
      <trkpt lat="40.31545" lon="-3.429209">
        <ele>594.6</ele>
        <time>1970-01-01T00:45:27.000Z</time>
      </trkpt>
      <trkpt lat="40.315477" lon="-3.429174">
        <ele>594.6</ele>
        <time>1970-01-01T00:45:28.000Z</time>
      </trkpt>
      <trkpt lat="40.315504" lon="-3.429137">
        <ele>594.6</ele>
        <time>1970-01-01T00:45:29.000Z</time>
      </trkpt>
      <trkpt lat="40.315532" lon="-3.429101">
        <ele>594.6</ele>
        <time>1970-01-01T00:45:30.000Z</time>
      </trkpt>
      <trkpt lat="40.31556" lon="-3.429067">
        <ele>594.8</ele>
        <time>1970-01-01T00:45:31.000Z</time>
      </trkpt>
      <trkpt lat="40.315589" lon="-3.429036">
        <ele>594.8</ele>
        <time>1970-01-01T00:45:32.000Z</time>
      </trkpt>
      <trkpt lat="40.315619" lon="-3.429005">
        <ele>594.8</ele>
        <time>1970-01-01T00:45:33.000Z</time>
      </trkpt>
      <trkpt lat="40.315647" lon="-3.42897">
        <ele>595</ele>
        <time>1970-01-01T00:45:34.000Z</time>
      </trkpt>
      <trkpt lat="40.315674" lon="-3.428937">
        <ele>595</ele>
        <time>1970-01-01T00:45:35.000Z</time>
      </trkpt>
      <trkpt lat="40.315698" lon="-3.428903">
        <ele>595</ele>
        <time>1970-01-01T00:45:36.000Z</time>
      </trkpt>
      <trkpt lat="40.315725" lon="-3.428871">
        <ele>595.2</ele>
        <time>1970-01-01T00:45:37.000Z</time>
      </trkpt>
      <trkpt lat="40.315752" lon="-3.428838">
        <ele>595.2</ele>
        <time>1970-01-01T00:45:38.000Z</time>
      </trkpt>
      <trkpt lat="40.315778" lon="-3.428802">
        <ele>595.2</ele>
        <time>1970-01-01T00:45:39.000Z</time>
      </trkpt>
      <trkpt lat="40.315803" lon="-3.428765">
        <ele>595.4</ele>
        <time>1970-01-01T00:45:40.000Z</time>
      </trkpt>
      <trkpt lat="40.315826" lon="-3.428726">
        <ele>595.6</ele>
        <time>1970-01-01T00:45:41.000Z</time>
      </trkpt>
      <trkpt lat="40.315851" lon="-3.428688">
        <ele>595.6</ele>
        <time>1970-01-01T00:45:42.000Z</time>
      </trkpt>
      <trkpt lat="40.315875" lon="-3.428651">
        <ele>595.6</ele>
        <time>1970-01-01T00:45:43.000Z</time>
      </trkpt>
      <trkpt lat="40.315902" lon="-3.428616">
        <ele>595.8</ele>
        <time>1970-01-01T00:45:44.000Z</time>
      </trkpt>
      <trkpt lat="40.31593" lon="-3.428582">
        <ele>596</ele>
        <time>1970-01-01T00:45:45.000Z</time>
      </trkpt>
      <trkpt lat="40.315956" lon="-3.428546">
        <ele>596</ele>
        <time>1970-01-01T00:45:46.000Z</time>
      </trkpt>
      <trkpt lat="40.315983" lon="-3.42851">
        <ele>596.2</ele>
        <time>1970-01-01T00:45:47.000Z</time>
      </trkpt>
      <trkpt lat="40.31601" lon="-3.428474">
        <ele>596.2</ele>
        <time>1970-01-01T00:45:48.000Z</time>
      </trkpt>
      <trkpt lat="40.316038" lon="-3.428436">
        <ele>596.2</ele>
        <time>1970-01-01T00:45:49.000Z</time>
      </trkpt>
      <trkpt lat="40.316065" lon="-3.428398">
        <ele>596.2</ele>
        <time>1970-01-01T00:45:50.000Z</time>
      </trkpt>
      <trkpt lat="40.316092" lon="-3.428359">
        <ele>596.2</ele>
        <time>1970-01-01T00:45:51.000Z</time>
      </trkpt>
      <trkpt lat="40.316118" lon="-3.42832">
        <ele>596.4</ele>
        <time>1970-01-01T00:45:52.000Z</time>
      </trkpt>
      <trkpt lat="40.31614" lon="-3.42828">
        <ele>596.4</ele>
        <time>1970-01-01T00:45:53.000Z</time>
      </trkpt>
      <trkpt lat="40.316159" lon="-3.428234">
        <ele>596.4</ele>
        <time>1970-01-01T00:45:54.000Z</time>
      </trkpt>
      <trkpt lat="40.316176" lon="-3.428185">
        <ele>596.6</ele>
        <time>1970-01-01T00:45:55.000Z</time>
      </trkpt>
      <trkpt lat="40.316194" lon="-3.428139">
        <ele>596.6</ele>
        <time>1970-01-01T00:45:56.000Z</time>
      </trkpt>
      <trkpt lat="40.316213" lon="-3.428093">
        <ele>596.8</ele>
        <time>1970-01-01T00:45:57.000Z</time>
      </trkpt>
      <trkpt lat="40.31623" lon="-3.428051">
        <ele>597</ele>
        <time>1970-01-01T00:45:58.000Z</time>
      </trkpt>
      <trkpt lat="40.316247" lon="-3.428007">
        <ele>597.2</ele>
        <time>1970-01-01T00:45:59.000Z</time>
      </trkpt>
      <trkpt lat="40.316265" lon="-3.427965">
        <ele>597.2</ele>
        <time>1970-01-01T00:46:00.000Z</time>
      </trkpt>
      <trkpt lat="40.316284" lon="-3.427924">
        <ele>597.4</ele>
        <time>1970-01-01T00:46:01.000Z</time>
      </trkpt>
      <trkpt lat="40.316301" lon="-3.42788">
        <ele>597.4</ele>
        <time>1970-01-01T00:46:02.000Z</time>
      </trkpt>
      <trkpt lat="40.316319" lon="-3.427835">
        <ele>597.6</ele>
        <time>1970-01-01T00:46:03.000Z</time>
      </trkpt>
      <trkpt lat="40.316337" lon="-3.427792">
        <ele>598</ele>
        <time>1970-01-01T00:46:04.000Z</time>
      </trkpt>
      <trkpt lat="40.316357" lon="-3.427748">
        <ele>598</ele>
        <time>1970-01-01T00:46:05.000Z</time>
      </trkpt>
      <trkpt lat="40.316374" lon="-3.427702">
        <ele>598.2</ele>
        <time>1970-01-01T00:46:06.000Z</time>
      </trkpt>
      <trkpt lat="40.31639" lon="-3.427654">
        <ele>598.4</ele>
        <time>1970-01-01T00:46:07.000Z</time>
      </trkpt>
      <trkpt lat="40.316405" lon="-3.427607">
        <ele>598.4</ele>
        <time>1970-01-01T00:46:08.000Z</time>
      </trkpt>
      <trkpt lat="40.316419" lon="-3.42756">
        <ele>598.6</ele>
        <time>1970-01-01T00:46:09.000Z</time>
      </trkpt>
      <trkpt lat="40.316436" lon="-3.427513">
        <ele>598.8</ele>
        <time>1970-01-01T00:46:10.000Z</time>
      </trkpt>
      <trkpt lat="40.316451" lon="-3.427463">
        <ele>598.8</ele>
        <time>1970-01-01T00:46:11.000Z</time>
      </trkpt>
      <trkpt lat="40.316467" lon="-3.427412">
        <ele>599</ele>
        <time>1970-01-01T00:46:12.000Z</time>
      </trkpt>
      <trkpt lat="40.316482" lon="-3.427363">
        <ele>599.4</ele>
        <time>1970-01-01T00:46:13.000Z</time>
      </trkpt>
      <trkpt lat="40.316496" lon="-3.427314">
        <ele>599.4</ele>
        <time>1970-01-01T00:46:14.000Z</time>
      </trkpt>
      <trkpt lat="40.316511" lon="-3.427264">
        <ele>599.6</ele>
        <time>1970-01-01T00:46:15.000Z</time>
      </trkpt>
      <trkpt lat="40.316527" lon="-3.427212">
        <ele>599.8</ele>
        <time>1970-01-01T00:46:16.000Z</time>
      </trkpt>
      <trkpt lat="40.316541" lon="-3.42716">
        <ele>600</ele>
        <time>1970-01-01T00:46:17.000Z</time>
      </trkpt>
      <trkpt lat="40.316554" lon="-3.427108">
        <ele>600</ele>
        <time>1970-01-01T00:46:18.000Z</time>
      </trkpt>
      <trkpt lat="40.316563" lon="-3.427057">
        <ele>600.2</ele>
        <time>1970-01-01T00:46:19.000Z</time>
      </trkpt>
      <trkpt lat="40.316573" lon="-3.427006">
        <ele>600.2</ele>
        <time>1970-01-01T00:46:20.000Z</time>
      </trkpt>
      <trkpt lat="40.316584" lon="-3.426956">
        <ele>600.2</ele>
        <time>1970-01-01T00:46:21.000Z</time>
      </trkpt>
      <trkpt lat="40.316603" lon="-3.426911">
        <ele>600.2</ele>
        <time>1970-01-01T00:46:22.000Z</time>
      </trkpt>
      <trkpt lat="40.316629" lon="-3.426873">
        <ele>600.2</ele>
        <time>1970-01-01T00:46:23.000Z</time>
      </trkpt>
      <trkpt lat="40.316661" lon="-3.426839">
        <ele>600.4</ele>
        <time>1970-01-01T00:46:24.000Z</time>
      </trkpt>
      <trkpt lat="40.316696" lon="-3.426816">
        <ele>600.4</ele>
        <time>1970-01-01T00:46:25.000Z</time>
      </trkpt>
      <trkpt lat="40.316733" lon="-3.426799">
        <ele>600.4</ele>
        <time>1970-01-01T00:46:26.000Z</time>
      </trkpt>
      <trkpt lat="40.316766" lon="-3.426787">
        <ele>600.4</ele>
        <time>1970-01-01T00:46:27.000Z</time>
      </trkpt>
      <trkpt lat="40.316799" lon="-3.426777">
        <ele>600.6</ele>
        <time>1970-01-01T00:46:28.000Z</time>
      </trkpt>
      <trkpt lat="40.316831" lon="-3.426764">
        <ele>600.8</ele>
        <time>1970-01-01T00:46:29.000Z</time>
      </trkpt>
      <trkpt lat="40.316863" lon="-3.426743">
        <ele>601</ele>
        <time>1970-01-01T00:46:30.000Z</time>
      </trkpt>
      <trkpt lat="40.316895" lon="-3.426719">
        <ele>601.4</ele>
        <time>1970-01-01T00:46:31.000Z</time>
      </trkpt>
      <trkpt lat="40.316923" lon="-3.426689">
        <ele>601.6</ele>
        <time>1970-01-01T00:46:32.000Z</time>
      </trkpt>
      <trkpt lat="40.316952" lon="-3.426655">
        <ele>601.8</ele>
        <time>1970-01-01T00:46:33.000Z</time>
      </trkpt>
      <trkpt lat="40.31698" lon="-3.426619">
        <ele>601.8</ele>
        <time>1970-01-01T00:46:34.000Z</time>
      </trkpt>
      <trkpt lat="40.317006" lon="-3.426581">
        <ele>601.8</ele>
        <time>1970-01-01T00:46:35.000Z</time>
      </trkpt>
      <trkpt lat="40.317031" lon="-3.426539">
        <ele>601.8</ele>
        <time>1970-01-01T00:46:36.000Z</time>
      </trkpt>
      <trkpt lat="40.317056" lon="-3.426495">
        <ele>602</ele>
        <time>1970-01-01T00:46:37.000Z</time>
      </trkpt>
      <trkpt lat="40.31708" lon="-3.42645">
        <ele>602.2</ele>
        <time>1970-01-01T00:46:38.000Z</time>
      </trkpt>
      <trkpt lat="40.317105" lon="-3.426405">
        <ele>602.2</ele>
        <time>1970-01-01T00:46:39.000Z</time>
      </trkpt>
      <trkpt lat="40.317127" lon="-3.426356">
        <ele>602.4</ele>
        <time>1970-01-01T00:46:40.000Z</time>
      </trkpt>
      <trkpt lat="40.317151" lon="-3.426311">
        <ele>602.4</ele>
        <time>1970-01-01T00:46:41.000Z</time>
      </trkpt>
      <trkpt lat="40.317176" lon="-3.426271">
        <ele>602.6</ele>
        <time>1970-01-01T00:46:42.000Z</time>
      </trkpt>
      <trkpt lat="40.317204" lon="-3.426235">
        <ele>602.6</ele>
        <time>1970-01-01T00:46:43.000Z</time>
      </trkpt>
      <trkpt lat="40.317237" lon="-3.426208">
        <ele>602.6</ele>
        <time>1970-01-01T00:46:44.000Z</time>
      </trkpt>
      <trkpt lat="40.317274" lon="-3.426195">
        <ele>602.8</ele>
        <time>1970-01-01T00:46:45.000Z</time>
      </trkpt>
      <trkpt lat="40.317314" lon="-3.426196">
        <ele>602.8</ele>
        <time>1970-01-01T00:46:46.000Z</time>
      </trkpt>
      <trkpt lat="40.317353" lon="-3.4262">
        <ele>603</ele>
        <time>1970-01-01T00:46:47.000Z</time>
      </trkpt>
      <trkpt lat="40.317393" lon="-3.426203">
        <ele>603</ele>
        <time>1970-01-01T00:46:48.000Z</time>
      </trkpt>
      <trkpt lat="40.317434" lon="-3.426201">
        <ele>603</ele>
        <time>1970-01-01T00:46:49.000Z</time>
      </trkpt>
      <trkpt lat="40.317475" lon="-3.426195">
        <ele>603.2</ele>
        <time>1970-01-01T00:46:50.000Z</time>
      </trkpt>
      <trkpt lat="40.317513" lon="-3.426179">
        <ele>603.4</ele>
        <time>1970-01-01T00:46:51.000Z</time>
      </trkpt>
      <trkpt lat="40.31755" lon="-3.426153">
        <ele>603.4</ele>
        <time>1970-01-01T00:46:52.000Z</time>
      </trkpt>
      <trkpt lat="40.317585" lon="-3.426124">
        <ele>603.4</ele>
        <time>1970-01-01T00:46:53.000Z</time>
      </trkpt>
      <trkpt lat="40.317621" lon="-3.426094">
        <ele>603.4</ele>
        <time>1970-01-01T00:46:54.000Z</time>
      </trkpt>
      <trkpt lat="40.317656" lon="-3.426062">
        <ele>603.4</ele>
        <time>1970-01-01T00:46:55.000Z</time>
      </trkpt>
      <trkpt lat="40.31769" lon="-3.426034">
        <ele>603.4</ele>
        <time>1970-01-01T00:46:56.000Z</time>
      </trkpt>
      <trkpt lat="40.317725" lon="-3.426005">
        <ele>603.6</ele>
        <time>1970-01-01T00:46:57.000Z</time>
      </trkpt>
      <trkpt lat="40.31776" lon="-3.425979">
        <ele>603.6</ele>
        <time>1970-01-01T00:46:58.000Z</time>
      </trkpt>
      <trkpt lat="40.317794" lon="-3.425949">
        <ele>603.8</ele>
        <time>1970-01-01T00:46:59.000Z</time>
      </trkpt>
      <trkpt lat="40.317826" lon="-3.425917">
        <ele>603.8</ele>
        <time>1970-01-01T00:47:00.000Z</time>
      </trkpt>
      <trkpt lat="40.317856" lon="-3.425881">
        <ele>604</ele>
        <time>1970-01-01T00:47:01.000Z</time>
      </trkpt>
      <trkpt lat="40.317887" lon="-3.425844">
        <ele>604</ele>
        <time>1970-01-01T00:47:02.000Z</time>
      </trkpt>
      <trkpt lat="40.317916" lon="-3.425808">
        <ele>604</ele>
        <time>1970-01-01T00:47:03.000Z</time>
      </trkpt>
      <trkpt lat="40.317945" lon="-3.425768">
        <ele>604.2</ele>
        <time>1970-01-01T00:47:04.000Z</time>
      </trkpt>
      <trkpt lat="40.317972" lon="-3.425728">
        <ele>604.4</ele>
        <time>1970-01-01T00:47:05.000Z</time>
      </trkpt>
      <trkpt lat="40.318" lon="-3.425689">
        <ele>604.6</ele>
        <time>1970-01-01T00:47:06.000Z</time>
      </trkpt>
      <trkpt lat="40.318023" lon="-3.42565">
        <ele>604.6</ele>
        <time>1970-01-01T00:47:07.000Z</time>
      </trkpt>
      <trkpt lat="40.318047" lon="-3.425608">
        <ele>604.8</ele>
        <time>1970-01-01T00:47:08.000Z</time>
      </trkpt>
      <trkpt lat="40.31807" lon="-3.425565">
        <ele>604.8</ele>
        <time>1970-01-01T00:47:09.000Z</time>
      </trkpt>
      <trkpt lat="40.318092" lon="-3.425522">
        <ele>605</ele>
        <time>1970-01-01T00:47:10.000Z</time>
      </trkpt>
      <trkpt lat="40.318112" lon="-3.425481">
        <ele>605.2</ele>
        <time>1970-01-01T00:47:11.000Z</time>
      </trkpt>
      <trkpt lat="40.318131" lon="-3.42544">
        <ele>605.2</ele>
        <time>1970-01-01T00:47:12.000Z</time>
      </trkpt>
      <trkpt lat="40.31815" lon="-3.425401">
        <ele>605.6</ele>
        <time>1970-01-01T00:47:13.000Z</time>
      </trkpt>
      <trkpt lat="40.318169" lon="-3.425359">
        <ele>605.8</ele>
        <time>1970-01-01T00:47:14.000Z</time>
      </trkpt>
      <trkpt lat="40.318185" lon="-3.425317">
        <ele>606.6</ele>
        <time>1970-01-01T00:47:15.000Z</time>
      </trkpt>
      <trkpt lat="40.318201" lon="-3.425277">
        <ele>606.8</ele>
        <time>1970-01-01T00:47:16.000Z</time>
      </trkpt>
      <trkpt lat="40.318215" lon="-3.425238">
        <ele>607.2</ele>
        <time>1970-01-01T00:47:17.000Z</time>
      </trkpt>
      <trkpt lat="40.318229" lon="-3.425197">
        <ele>607.4</ele>
        <time>1970-01-01T00:47:18.000Z</time>
      </trkpt>
      <trkpt lat="40.318242" lon="-3.425155">
        <ele>607.8</ele>
        <time>1970-01-01T00:47:19.000Z</time>
      </trkpt>
      <trkpt lat="40.318254" lon="-3.42511">
        <ele>608</ele>
        <time>1970-01-01T00:47:20.000Z</time>
      </trkpt>
      <trkpt lat="40.318262" lon="-3.425061">
        <ele>608</ele>
        <time>1970-01-01T00:47:21.000Z</time>
      </trkpt>
      <trkpt lat="40.318269" lon="-3.425013">
        <ele>608.4</ele>
        <time>1970-01-01T00:47:22.000Z</time>
      </trkpt>
      <trkpt lat="40.318275" lon="-3.424963">
        <ele>608.6</ele>
        <time>1970-01-01T00:47:23.000Z</time>
      </trkpt>
      <trkpt lat="40.318279" lon="-3.42491">
        <ele>609.2</ele>
        <time>1970-01-01T00:47:24.000Z</time>
      </trkpt>
      <trkpt lat="40.318282" lon="-3.424859">
        <ele>609.4</ele>
        <time>1970-01-01T00:47:25.000Z</time>
      </trkpt>
      <trkpt lat="40.318285" lon="-3.424807">
        <ele>609.8</ele>
        <time>1970-01-01T00:47:26.000Z</time>
      </trkpt>
      <trkpt lat="40.318288" lon="-3.424756">
        <ele>610</ele>
        <time>1970-01-01T00:47:27.000Z</time>
      </trkpt>
      <trkpt lat="40.318291" lon="-3.424704">
        <ele>610.2</ele>
        <time>1970-01-01T00:47:28.000Z</time>
      </trkpt>
      <trkpt lat="40.318292" lon="-3.424651">
        <ele>610.4</ele>
        <time>1970-01-01T00:47:29.000Z</time>
      </trkpt>
      <trkpt lat="40.318296" lon="-3.424596">
        <ele>610.6</ele>
        <time>1970-01-01T00:47:30.000Z</time>
      </trkpt>
      <trkpt lat="40.318302" lon="-3.424545">
        <ele>610.6</ele>
        <time>1970-01-01T00:47:31.000Z</time>
      </trkpt>
      <trkpt lat="40.318309" lon="-3.424492">
        <ele>610.8</ele>
        <time>1970-01-01T00:47:32.000Z</time>
      </trkpt>
      <trkpt lat="40.318316" lon="-3.424439">
        <ele>611</ele>
        <time>1970-01-01T00:47:33.000Z</time>
      </trkpt>
      <trkpt lat="40.318322" lon="-3.424385">
        <ele>611</ele>
        <time>1970-01-01T00:47:34.000Z</time>
      </trkpt>
      <trkpt lat="40.318326" lon="-3.42433">
        <ele>611.2</ele>
        <time>1970-01-01T00:47:35.000Z</time>
      </trkpt>
      <trkpt lat="40.31833" lon="-3.424272">
        <ele>611.2</ele>
        <time>1970-01-01T00:47:36.000Z</time>
      </trkpt>
      <trkpt lat="40.318328" lon="-3.424212">
        <ele>611.4</ele>
        <time>1970-01-01T00:47:37.000Z</time>
      </trkpt>
      <trkpt lat="40.318322" lon="-3.424151">
        <ele>611.4</ele>
        <time>1970-01-01T00:47:38.000Z</time>
      </trkpt>
      <trkpt lat="40.318315" lon="-3.424085">
        <ele>611.2</ele>
        <time>1970-01-01T00:47:39.000Z</time>
      </trkpt>
      <trkpt lat="40.318308" lon="-3.42402">
        <ele>611</ele>
        <time>1970-01-01T00:47:40.000Z</time>
      </trkpt>
      <trkpt lat="40.3183" lon="-3.423955">
        <ele>611.2</ele>
        <time>1970-01-01T00:47:41.000Z</time>
      </trkpt>
      <trkpt lat="40.318293" lon="-3.42389">
        <ele>610.8</ele>
        <time>1970-01-01T00:47:42.000Z</time>
      </trkpt>
      <trkpt lat="40.31829" lon="-3.423825">
        <ele>610.8</ele>
        <time>1970-01-01T00:47:43.000Z</time>
      </trkpt>
      <trkpt lat="40.318294" lon="-3.423761">
        <ele>610.8</ele>
        <time>1970-01-01T00:47:44.000Z</time>
      </trkpt>
      <trkpt lat="40.318304" lon="-3.4237">
        <ele>610.8</ele>
        <time>1970-01-01T00:47:45.000Z</time>
      </trkpt>
      <trkpt lat="40.318321" lon="-3.423641">
        <ele>611</ele>
        <time>1970-01-01T00:47:46.000Z</time>
      </trkpt>
      <trkpt lat="40.318344" lon="-3.423586">
        <ele>611</ele>
        <time>1970-01-01T00:47:47.000Z</time>
      </trkpt>
      <trkpt lat="40.318373" lon="-3.423534">
        <ele>611</ele>
        <time>1970-01-01T00:47:48.000Z</time>
      </trkpt>
      <trkpt lat="40.318406" lon="-3.423489">
        <ele>611</ele>
        <time>1970-01-01T00:47:49.000Z</time>
      </trkpt>
      <trkpt lat="40.318442" lon="-3.423447">
        <ele>611</ele>
        <time>1970-01-01T00:47:50.000Z</time>
      </trkpt>
      <trkpt lat="40.318478" lon="-3.423409">
        <ele>611</ele>
        <time>1970-01-01T00:47:51.000Z</time>
      </trkpt>
      <trkpt lat="40.318515" lon="-3.423373">
        <ele>611</ele>
        <time>1970-01-01T00:47:52.000Z</time>
      </trkpt>
      <trkpt lat="40.318554" lon="-3.423342">
        <ele>611</ele>
        <time>1970-01-01T00:47:53.000Z</time>
      </trkpt>
      <trkpt lat="40.318593" lon="-3.423309">
        <ele>611</ele>
        <time>1970-01-01T00:47:54.000Z</time>
      </trkpt>
      <trkpt lat="40.318631" lon="-3.423269">
        <ele>611</ele>
        <time>1970-01-01T00:47:55.000Z</time>
      </trkpt>
      <trkpt lat="40.318667" lon="-3.423225">
        <ele>611</ele>
        <time>1970-01-01T00:47:56.000Z</time>
      </trkpt>
      <trkpt lat="40.318698" lon="-3.423179">
        <ele>611.2</ele>
        <time>1970-01-01T00:47:57.000Z</time>
      </trkpt>
      <trkpt lat="40.318726" lon="-3.423129">
        <ele>611.2</ele>
        <time>1970-01-01T00:47:58.000Z</time>
      </trkpt>
      <trkpt lat="40.318756" lon="-3.423066">
        <ele>611.2</ele>
        <time>1970-01-01T00:47:59.000Z</time>
      </trkpt>
      <trkpt lat="40.318773" lon="-3.423025">
        <ele>611.4</ele>
        <time>1970-01-01T00:48:00.000Z</time>
      </trkpt>
      <trkpt lat="40.318794" lon="-3.422974">
        <ele>611.4</ele>
        <time>1970-01-01T00:48:01.000Z</time>
      </trkpt>
      <trkpt lat="40.318813" lon="-3.42292">
        <ele>611.8</ele>
        <time>1970-01-01T00:48:02.000Z</time>
      </trkpt>
      <trkpt lat="40.318832" lon="-3.422865">
        <ele>611.8</ele>
        <time>1970-01-01T00:48:03.000Z</time>
      </trkpt>
      <trkpt lat="40.318851" lon="-3.422809">
        <ele>612.2</ele>
        <time>1970-01-01T00:48:04.000Z</time>
      </trkpt>
      <trkpt lat="40.318868" lon="-3.422753">
        <ele>612.2</ele>
        <time>1970-01-01T00:48:05.000Z</time>
      </trkpt>
      <trkpt lat="40.318885" lon="-3.422698">
        <ele>612.4</ele>
        <time>1970-01-01T00:48:06.000Z</time>
      </trkpt>
      <trkpt lat="40.318903" lon="-3.422642">
        <ele>612.4</ele>
        <time>1970-01-01T00:48:07.000Z</time>
      </trkpt>
      <trkpt lat="40.318922" lon="-3.422585">
        <ele>612.4</ele>
        <time>1970-01-01T00:48:08.000Z</time>
      </trkpt>
      <trkpt lat="40.318939" lon="-3.422528">
        <ele>612.4</ele>
        <time>1970-01-01T00:48:09.000Z</time>
      </trkpt>
      <trkpt lat="40.318954" lon="-3.422469">
        <ele>612.4</ele>
        <time>1970-01-01T00:48:10.000Z</time>
      </trkpt>
      <trkpt lat="40.318969" lon="-3.42241">
        <ele>612.8</ele>
        <time>1970-01-01T00:48:11.000Z</time>
      </trkpt>
      <trkpt lat="40.318983" lon="-3.422352">
        <ele>612.8</ele>
        <time>1970-01-01T00:48:12.000Z</time>
      </trkpt>
      <trkpt lat="40.318999" lon="-3.422282">
        <ele>612.8</ele>
        <time>1970-01-01T00:48:13.000Z</time>
      </trkpt>
      <trkpt lat="40.319008" lon="-3.422233">
        <ele>612.8</ele>
        <time>1970-01-01T00:48:14.000Z</time>
      </trkpt>
      <trkpt lat="40.319019" lon="-3.422173">
        <ele>613</ele>
        <time>1970-01-01T00:48:15.000Z</time>
      </trkpt>
      <trkpt lat="40.319029" lon="-3.422113">
        <ele>613</ele>
        <time>1970-01-01T00:48:16.000Z</time>
      </trkpt>
      <trkpt lat="40.319041" lon="-3.422056">
        <ele>613</ele>
        <time>1970-01-01T00:48:17.000Z</time>
      </trkpt>
      <trkpt lat="40.319055" lon="-3.422">
        <ele>613.2</ele>
        <time>1970-01-01T00:48:18.000Z</time>
      </trkpt>
      <trkpt lat="40.31907" lon="-3.421943">
        <ele>613.4</ele>
        <time>1970-01-01T00:48:19.000Z</time>
      </trkpt>
      <trkpt lat="40.319087" lon="-3.421883">
        <ele>613.6</ele>
        <time>1970-01-01T00:48:20.000Z</time>
      </trkpt>
      <trkpt lat="40.319105" lon="-3.421828">
        <ele>613.6</ele>
        <time>1970-01-01T00:48:21.000Z</time>
      </trkpt>
      <trkpt lat="40.319126" lon="-3.421774">
        <ele>614</ele>
        <time>1970-01-01T00:48:22.000Z</time>
      </trkpt>
      <trkpt lat="40.31915" lon="-3.421723">
        <ele>614</ele>
        <time>1970-01-01T00:48:23.000Z</time>
      </trkpt>
      <trkpt lat="40.319177" lon="-3.421676">
        <ele>614.2</ele>
        <time>1970-01-01T00:48:24.000Z</time>
      </trkpt>
      <trkpt lat="40.319203" lon="-3.42163">
        <ele>614.2</ele>
        <time>1970-01-01T00:48:25.000Z</time>
      </trkpt>
      <trkpt lat="40.319231" lon="-3.421586">
        <ele>614.4</ele>
        <time>1970-01-01T00:48:26.000Z</time>
      </trkpt>
      <trkpt lat="40.319259" lon="-3.421542">
        <ele>614.4</ele>
        <time>1970-01-01T00:48:27.000Z</time>
      </trkpt>
      <trkpt lat="40.319282" lon="-3.421496">
        <ele>614.6</ele>
        <time>1970-01-01T00:48:28.000Z</time>
      </trkpt>
      <trkpt lat="40.319305" lon="-3.421449">
        <ele>615</ele>
        <time>1970-01-01T00:48:29.000Z</time>
      </trkpt>
      <trkpt lat="40.319325" lon="-3.421395">
        <ele>615.2</ele>
        <time>1970-01-01T00:48:30.000Z</time>
      </trkpt>
      <trkpt lat="40.319339" lon="-3.421343">
        <ele>615.4</ele>
        <time>1970-01-01T00:48:31.000Z</time>
      </trkpt>
      <trkpt lat="40.319355" lon="-3.42129">
        <ele>615.4</ele>
        <time>1970-01-01T00:48:32.000Z</time>
      </trkpt>
      <trkpt lat="40.319372" lon="-3.421235">
        <ele>616</ele>
        <time>1970-01-01T00:48:33.000Z</time>
      </trkpt>
      <trkpt lat="40.319394" lon="-3.421181">
        <ele>616.2</ele>
        <time>1970-01-01T00:48:34.000Z</time>
      </trkpt>
      <trkpt lat="40.319417" lon="-3.42113">
        <ele>616.4</ele>
        <time>1970-01-01T00:48:35.000Z</time>
      </trkpt>
      <trkpt lat="40.319442" lon="-3.421084">
        <ele>616.8</ele>
        <time>1970-01-01T00:48:36.000Z</time>
      </trkpt>
      <trkpt lat="40.319466" lon="-3.421035">
        <ele>616.8</ele>
        <time>1970-01-01T00:48:37.000Z</time>
      </trkpt>
      <trkpt lat="40.319489" lon="-3.420985">
        <ele>617</ele>
        <time>1970-01-01T00:48:38.000Z</time>
      </trkpt>
      <trkpt lat="40.319511" lon="-3.420935">
        <ele>617.2</ele>
        <time>1970-01-01T00:48:39.000Z</time>
      </trkpt>
      <trkpt lat="40.31953" lon="-3.420884">
        <ele>617.4</ele>
        <time>1970-01-01T00:48:40.000Z</time>
      </trkpt>
      <trkpt lat="40.319548" lon="-3.420829">
        <ele>617.4</ele>
        <time>1970-01-01T00:48:41.000Z</time>
      </trkpt>
      <trkpt lat="40.319565" lon="-3.420773">
        <ele>617.6</ele>
        <time>1970-01-01T00:48:42.000Z</time>
      </trkpt>
      <trkpt lat="40.31958" lon="-3.420718">
        <ele>617.6</ele>
        <time>1970-01-01T00:48:43.000Z</time>
      </trkpt>
      <trkpt lat="40.319596" lon="-3.420666">
        <ele>617.8</ele>
        <time>1970-01-01T00:48:44.000Z</time>
      </trkpt>
      <trkpt lat="40.319611" lon="-3.420612">
        <ele>618</ele>
        <time>1970-01-01T00:48:45.000Z</time>
      </trkpt>
      <trkpt lat="40.319625" lon="-3.420556">
        <ele>618.2</ele>
        <time>1970-01-01T00:48:46.000Z</time>
      </trkpt>
      <trkpt lat="40.319638" lon="-3.420496">
        <ele>618.4</ele>
        <time>1970-01-01T00:48:47.000Z</time>
      </trkpt>
      <trkpt lat="40.319651" lon="-3.420435">
        <ele>618.4</ele>
        <time>1970-01-01T00:48:48.000Z</time>
      </trkpt>
      <trkpt lat="40.319661" lon="-3.420375">
        <ele>618.8</ele>
        <time>1970-01-01T00:48:49.000Z</time>
      </trkpt>
      <trkpt lat="40.319665" lon="-3.420317">
        <ele>618.8</ele>
        <time>1970-01-01T00:48:50.000Z</time>
      </trkpt>
      <trkpt lat="40.319668" lon="-3.420257">
        <ele>619.2</ele>
        <time>1970-01-01T00:48:51.000Z</time>
      </trkpt>
      <trkpt lat="40.319668" lon="-3.420195">
        <ele>619.2</ele>
        <time>1970-01-01T00:48:52.000Z</time>
      </trkpt>
      <trkpt lat="40.319665" lon="-3.420135">
        <ele>619.4</ele>
        <time>1970-01-01T00:48:53.000Z</time>
      </trkpt>
      <trkpt lat="40.319661" lon="-3.420075">
        <ele>619.6</ele>
        <time>1970-01-01T00:48:54.000Z</time>
      </trkpt>
      <trkpt lat="40.319653" lon="-3.420004">
        <ele>619.8</ele>
        <time>1970-01-01T00:48:55.000Z</time>
      </trkpt>
      <trkpt lat="40.319651" lon="-3.419956">
        <ele>619.8</ele>
        <time>1970-01-01T00:48:56.000Z</time>
      </trkpt>
      <trkpt lat="40.319651" lon="-3.419897">
        <ele>620</ele>
        <time>1970-01-01T00:48:57.000Z</time>
      </trkpt>
      <trkpt lat="40.319657" lon="-3.419836">
        <ele>620</ele>
        <time>1970-01-01T00:48:58.000Z</time>
      </trkpt>
      <trkpt lat="40.31967" lon="-3.419776">
        <ele>620</ele>
        <time>1970-01-01T00:48:59.000Z</time>
      </trkpt>
      <trkpt lat="40.319688" lon="-3.419719">
        <ele>620.2</ele>
        <time>1970-01-01T00:49:00.000Z</time>
      </trkpt>
      <trkpt lat="40.319707" lon="-3.419661">
        <ele>620.2</ele>
        <time>1970-01-01T00:49:01.000Z</time>
      </trkpt>
      <trkpt lat="40.319726" lon="-3.419606">
        <ele>620.4</ele>
        <time>1970-01-01T00:49:02.000Z</time>
      </trkpt>
      <trkpt lat="40.319748" lon="-3.419553">
        <ele>620.4</ele>
        <time>1970-01-01T00:49:03.000Z</time>
      </trkpt>
      <trkpt lat="40.319772" lon="-3.419502">
        <ele>620.4</ele>
        <time>1970-01-01T00:49:04.000Z</time>
      </trkpt>
      <trkpt lat="40.319801" lon="-3.419455">
        <ele>620.4</ele>
        <time>1970-01-01T00:49:05.000Z</time>
      </trkpt>
      <trkpt lat="40.319833" lon="-3.419413">
        <ele>620.4</ele>
        <time>1970-01-01T00:49:06.000Z</time>
      </trkpt>
      <trkpt lat="40.319863" lon="-3.419374">
        <ele>620.6</ele>
        <time>1970-01-01T00:49:07.000Z</time>
      </trkpt>
      <trkpt lat="40.319888" lon="-3.419331">
        <ele>620.6</ele>
        <time>1970-01-01T00:49:08.000Z</time>
      </trkpt>
      <trkpt lat="40.319911" lon="-3.419282">
        <ele>620.6</ele>
        <time>1970-01-01T00:49:09.000Z</time>
      </trkpt>
      <trkpt lat="40.319932" lon="-3.419233">
        <ele>620.6</ele>
        <time>1970-01-01T00:49:10.000Z</time>
      </trkpt>
      <trkpt lat="40.319952" lon="-3.419183">
        <ele>621</ele>
        <time>1970-01-01T00:49:11.000Z</time>
      </trkpt>
      <trkpt lat="40.319976" lon="-3.419137">
        <ele>621</ele>
        <time>1970-01-01T00:49:12.000Z</time>
      </trkpt>
      <trkpt lat="40.320004" lon="-3.419093">
        <ele>621.2</ele>
        <time>1970-01-01T00:49:13.000Z</time>
      </trkpt>
      <trkpt lat="40.320037" lon="-3.419054">
        <ele>621.4</ele>
        <time>1970-01-01T00:49:14.000Z</time>
      </trkpt>
      <trkpt lat="40.320072" lon="-3.41902">
        <ele>621.4</ele>
        <time>1970-01-01T00:49:15.000Z</time>
      </trkpt>
      <trkpt lat="40.32011" lon="-3.418996">
        <ele>621.6</ele>
        <time>1970-01-01T00:49:16.000Z</time>
      </trkpt>
      <trkpt lat="40.32015" lon="-3.418974">
        <ele>621.8</ele>
        <time>1970-01-01T00:49:17.000Z</time>
      </trkpt>
      <trkpt lat="40.320191" lon="-3.418951">
        <ele>621.8</ele>
        <time>1970-01-01T00:49:18.000Z</time>
      </trkpt>
      <trkpt lat="40.32023" lon="-3.418925">
        <ele>621.8</ele>
        <time>1970-01-01T00:49:19.000Z</time>
      </trkpt>
      <trkpt lat="40.320268" lon="-3.418898">
        <ele>622</ele>
        <time>1970-01-01T00:49:20.000Z</time>
      </trkpt>
      <trkpt lat="40.320305" lon="-3.418869">
        <ele>622.2</ele>
        <time>1970-01-01T00:49:21.000Z</time>
      </trkpt>
      <trkpt lat="40.320339" lon="-3.418837">
        <ele>622.6</ele>
        <time>1970-01-01T00:49:22.000Z</time>
      </trkpt>
      <trkpt lat="40.32037" lon="-3.418799">
        <ele>623</ele>
        <time>1970-01-01T00:49:23.000Z</time>
      </trkpt>
      <trkpt lat="40.320398" lon="-3.418756">
        <ele>623.2</ele>
        <time>1970-01-01T00:49:24.000Z</time>
      </trkpt>
      <trkpt lat="40.320425" lon="-3.418709">
        <ele>623.4</ele>
        <time>1970-01-01T00:49:25.000Z</time>
      </trkpt>
      <trkpt lat="40.320454" lon="-3.418661">
        <ele>623.4</ele>
        <time>1970-01-01T00:49:26.000Z</time>
      </trkpt>
      <trkpt lat="40.320481" lon="-3.418612">
        <ele>623.6</ele>
        <time>1970-01-01T00:49:27.000Z</time>
      </trkpt>
      <trkpt lat="40.320508" lon="-3.418565">
        <ele>623.6</ele>
        <time>1970-01-01T00:49:28.000Z</time>
      </trkpt>
      <trkpt lat="40.320535" lon="-3.418517">
        <ele>623.8</ele>
        <time>1970-01-01T00:49:29.000Z</time>
      </trkpt>
      <trkpt lat="40.320559" lon="-3.418471">
        <ele>623.8</ele>
        <time>1970-01-01T00:49:30.000Z</time>
      </trkpt>
      <trkpt lat="40.320583" lon="-3.418422">
        <ele>624</ele>
        <time>1970-01-01T00:49:31.000Z</time>
      </trkpt>
      <trkpt lat="40.320607" lon="-3.418373">
        <ele>624</ele>
        <time>1970-01-01T00:49:32.000Z</time>
      </trkpt>
      <trkpt lat="40.320632" lon="-3.418322">
        <ele>624</ele>
        <time>1970-01-01T00:49:33.000Z</time>
      </trkpt>
      <trkpt lat="40.320656" lon="-3.418272">
        <ele>624.2</ele>
        <time>1970-01-01T00:49:34.000Z</time>
      </trkpt>
      <trkpt lat="40.320682" lon="-3.418223">
        <ele>624.2</ele>
        <time>1970-01-01T00:49:35.000Z</time>
      </trkpt>
      <trkpt lat="40.320705" lon="-3.418177">
        <ele>624.4</ele>
        <time>1970-01-01T00:49:36.000Z</time>
      </trkpt>
      <trkpt lat="40.320722" lon="-3.418129">
        <ele>624.6</ele>
        <time>1970-01-01T00:49:37.000Z</time>
      </trkpt>
      <trkpt lat="40.320739" lon="-3.41808">
        <ele>624.8</ele>
        <time>1970-01-01T00:49:38.000Z</time>
      </trkpt>
      <trkpt lat="40.320759" lon="-3.418033">
        <ele>624.8</ele>
        <time>1970-01-01T00:49:39.000Z</time>
      </trkpt>
      <trkpt lat="40.32078" lon="-3.41799">
        <ele>625</ele>
        <time>1970-01-01T00:49:40.000Z</time>
      </trkpt>
      <trkpt lat="40.320801" lon="-3.41795">
        <ele>625.2</ele>
        <time>1970-01-01T00:49:41.000Z</time>
      </trkpt>
      <trkpt lat="40.320823" lon="-3.417904">
        <ele>625.2</ele>
        <time>1970-01-01T00:49:42.000Z</time>
      </trkpt>
      <trkpt lat="40.320842" lon="-3.417856">
        <ele>625.6</ele>
        <time>1970-01-01T00:49:43.000Z</time>
      </trkpt>
      <trkpt lat="40.320861" lon="-3.417811">
        <ele>625.6</ele>
        <time>1970-01-01T00:49:44.000Z</time>
      </trkpt>
      <trkpt lat="40.320879" lon="-3.417768">
        <ele>625.8</ele>
        <time>1970-01-01T00:49:45.000Z</time>
      </trkpt>
      <trkpt lat="40.320893" lon="-3.417724">
        <ele>626</ele>
        <time>1970-01-01T00:49:46.000Z</time>
      </trkpt>
      <trkpt lat="40.320907" lon="-3.417683">
        <ele>626</ele>
        <time>1970-01-01T00:49:47.000Z</time>
      </trkpt>
      <trkpt lat="40.32092" lon="-3.417638">
        <ele>626.2</ele>
        <time>1970-01-01T00:49:48.000Z</time>
      </trkpt>
      <trkpt lat="40.320931" lon="-3.417592">
        <ele>626.4</ele>
        <time>1970-01-01T00:49:49.000Z</time>
      </trkpt>
      <trkpt lat="40.320944" lon="-3.417547">
        <ele>626.6</ele>
        <time>1970-01-01T00:49:50.000Z</time>
      </trkpt>
      <trkpt lat="40.320956" lon="-3.417504">
        <ele>626.8</ele>
        <time>1970-01-01T00:49:51.000Z</time>
      </trkpt>
      <trkpt lat="40.320968" lon="-3.417461">
        <ele>627</ele>
        <time>1970-01-01T00:49:52.000Z</time>
      </trkpt>
      <trkpt lat="40.32098" lon="-3.417423">
        <ele>627.2</ele>
        <time>1970-01-01T00:49:53.000Z</time>
      </trkpt>
      <trkpt lat="40.320988" lon="-3.417382">
        <ele>627.6</ele>
        <time>1970-01-01T00:49:54.000Z</time>
      </trkpt>
      <trkpt lat="40.32099" lon="-3.417336">
        <ele>628</ele>
        <time>1970-01-01T00:49:55.000Z</time>
      </trkpt>
      <trkpt lat="40.32099" lon="-3.41729">
        <ele>628.4</ele>
        <time>1970-01-01T00:49:56.000Z</time>
      </trkpt>
      <trkpt lat="40.320986" lon="-3.417245">
        <ele>628.8</ele>
        <time>1970-01-01T00:49:57.000Z</time>
      </trkpt>
      <trkpt lat="40.320985" lon="-3.417197">
        <ele>629.2</ele>
        <time>1970-01-01T00:49:58.000Z</time>
      </trkpt>
      <trkpt lat="40.320984" lon="-3.41715">
        <ele>629.4</ele>
        <time>1970-01-01T00:49:59.000Z</time>
      </trkpt>
      <trkpt lat="40.320986" lon="-3.417106">
        <ele>629.2</ele>
        <time>1970-01-01T00:50:00.000Z</time>
      </trkpt>
      <trkpt lat="40.320987" lon="-3.417061">
        <ele>629.4</ele>
        <time>1970-01-01T00:50:01.000Z</time>
      </trkpt>
      <trkpt lat="40.320989" lon="-3.417012">
        <ele>629.8</ele>
        <time>1970-01-01T00:50:02.000Z</time>
      </trkpt>
      <trkpt lat="40.320992" lon="-3.416962">
        <ele>629.6</ele>
        <time>1970-01-01T00:50:03.000Z</time>
      </trkpt>
      <trkpt lat="40.320999" lon="-3.416902">
        <ele>629.6</ele>
        <time>1970-01-01T00:50:04.000Z</time>
      </trkpt>
      <trkpt lat="40.321003" lon="-3.416862">
        <ele>629.8</ele>
        <time>1970-01-01T00:50:05.000Z</time>
      </trkpt>
      <trkpt lat="40.321009" lon="-3.416809">
        <ele>629.8</ele>
        <time>1970-01-01T00:50:06.000Z</time>
      </trkpt>
      <trkpt lat="40.321014" lon="-3.41676">
        <ele>630</ele>
        <time>1970-01-01T00:50:07.000Z</time>
      </trkpt>
      <trkpt lat="40.321016" lon="-3.416711">
        <ele>630</ele>
        <time>1970-01-01T00:50:08.000Z</time>
      </trkpt>
      <trkpt lat="40.321016" lon="-3.416648">
        <ele>630.2</ele>
        <time>1970-01-01T00:50:09.000Z</time>
      </trkpt>
      <trkpt lat="40.321018" lon="-3.416605">
        <ele>630.2</ele>
        <time>1970-01-01T00:50:10.000Z</time>
      </trkpt>
      <trkpt lat="40.321022" lon="-3.41655">
        <ele>630.2</ele>
        <time>1970-01-01T00:50:11.000Z</time>
      </trkpt>
      <trkpt lat="40.321023" lon="-3.416494">
        <ele>630.4</ele>
        <time>1970-01-01T00:50:12.000Z</time>
      </trkpt>
      <trkpt lat="40.321024" lon="-3.416426">
        <ele>630.4</ele>
        <time>1970-01-01T00:50:13.000Z</time>
      </trkpt>
      <trkpt lat="40.321025" lon="-3.41638">
        <ele>630.6</ele>
        <time>1970-01-01T00:50:14.000Z</time>
      </trkpt>
      <trkpt lat="40.321023" lon="-3.416325">
        <ele>630.6</ele>
        <time>1970-01-01T00:50:15.000Z</time>
      </trkpt>
      <trkpt lat="40.321018" lon="-3.41627">
        <ele>630.8</ele>
        <time>1970-01-01T00:50:16.000Z</time>
      </trkpt>
      <trkpt lat="40.321013" lon="-3.416215">
        <ele>630.8</ele>
        <time>1970-01-01T00:50:17.000Z</time>
      </trkpt>
      <trkpt lat="40.32101" lon="-3.416155">
        <ele>631</ele>
        <time>1970-01-01T00:50:18.000Z</time>
      </trkpt>
      <trkpt lat="40.32101" lon="-3.416116">
        <ele>631</ele>
        <time>1970-01-01T00:50:19.000Z</time>
      </trkpt>
      <trkpt lat="40.32101" lon="-3.416067">
        <ele>631.2</ele>
        <time>1970-01-01T00:50:20.000Z</time>
      </trkpt>
      <trkpt lat="40.32101" lon="-3.416019">
        <ele>631.6</ele>
        <time>1970-01-01T00:50:21.000Z</time>
      </trkpt>
      <trkpt lat="40.321011" lon="-3.41597">
        <ele>631.8</ele>
        <time>1970-01-01T00:50:22.000Z</time>
      </trkpt>
      <trkpt lat="40.321011" lon="-3.415925">
        <ele>632</ele>
        <time>1970-01-01T00:50:23.000Z</time>
      </trkpt>
      <trkpt lat="40.321016" lon="-3.415884">
        <ele>632</ele>
        <time>1970-01-01T00:50:24.000Z</time>
      </trkpt>
      <trkpt lat="40.321023" lon="-3.415845">
        <ele>632.4</ele>
        <time>1970-01-01T00:50:25.000Z</time>
      </trkpt>
      <trkpt lat="40.321033" lon="-3.415803">
        <ele>632.6</ele>
        <time>1970-01-01T00:50:26.000Z</time>
      </trkpt>
      <trkpt lat="40.321044" lon="-3.415758">
        <ele>633</ele>
        <time>1970-01-01T00:50:27.000Z</time>
      </trkpt>
      <trkpt lat="40.32106" lon="-3.415713">
        <ele>633.2</ele>
        <time>1970-01-01T00:50:28.000Z</time>
      </trkpt>
      <trkpt lat="40.321086" lon="-3.415669">
        <ele>633.8</ele>
        <time>1970-01-01T00:50:29.000Z</time>
      </trkpt>
      <trkpt lat="40.321108" lon="-3.415625">
        <ele>634.2</ele>
        <time>1970-01-01T00:50:30.000Z</time>
      </trkpt>
      <trkpt lat="40.321128" lon="-3.415574">
        <ele>634.2</ele>
        <time>1970-01-01T00:50:31.000Z</time>
      </trkpt>
      <trkpt lat="40.321148" lon="-3.415519">
        <ele>634.4</ele>
        <time>1970-01-01T00:50:32.000Z</time>
      </trkpt>
      <trkpt lat="40.321164" lon="-3.415464">
        <ele>634.6</ele>
        <time>1970-01-01T00:50:33.000Z</time>
      </trkpt>
      <trkpt lat="40.321179" lon="-3.41541">
        <ele>634.6</ele>
        <time>1970-01-01T00:50:34.000Z</time>
      </trkpt>
      <trkpt lat="40.321194" lon="-3.415355">
        <ele>634.8</ele>
        <time>1970-01-01T00:50:35.000Z</time>
      </trkpt>
      <trkpt lat="40.321206" lon="-3.4153">
        <ele>634.8</ele>
        <time>1970-01-01T00:50:36.000Z</time>
      </trkpt>
      <trkpt lat="40.321217" lon="-3.415247">
        <ele>634.8</ele>
        <time>1970-01-01T00:50:37.000Z</time>
      </trkpt>
      <trkpt lat="40.321225" lon="-3.415198">
        <ele>634.8</ele>
        <time>1970-01-01T00:50:38.000Z</time>
      </trkpt>
      <trkpt lat="40.321235" lon="-3.415146">
        <ele>635</ele>
        <time>1970-01-01T00:50:39.000Z</time>
      </trkpt>
      <trkpt lat="40.321244" lon="-3.415093">
        <ele>635</ele>
        <time>1970-01-01T00:50:40.000Z</time>
      </trkpt>
      <trkpt lat="40.321252" lon="-3.415043">
        <ele>635.2</ele>
        <time>1970-01-01T00:50:41.000Z</time>
      </trkpt>
      <trkpt lat="40.321259" lon="-3.414993">
        <ele>635.4</ele>
        <time>1970-01-01T00:50:42.000Z</time>
      </trkpt>
      <trkpt lat="40.321262" lon="-3.414945">
        <ele>635.4</ele>
        <time>1970-01-01T00:50:43.000Z</time>
      </trkpt>
      <trkpt lat="40.321261" lon="-3.414897">
        <ele>635.4</ele>
        <time>1970-01-01T00:50:44.000Z</time>
      </trkpt>
      <trkpt lat="40.321252" lon="-3.414852">
        <ele>635.6</ele>
        <time>1970-01-01T00:50:45.000Z</time>
      </trkpt>
      <trkpt lat="40.321236" lon="-3.414811">
        <ele>635.8</ele>
        <time>1970-01-01T00:50:46.000Z</time>
      </trkpt>
      <trkpt lat="40.321219" lon="-3.41477">
        <ele>636</ele>
        <time>1970-01-01T00:50:47.000Z</time>
      </trkpt>
      <trkpt lat="40.321201" lon="-3.414732">
        <ele>636.2</ele>
        <time>1970-01-01T00:50:48.000Z</time>
      </trkpt>
      <trkpt lat="40.321182" lon="-3.414694">
        <ele>636.4</ele>
        <time>1970-01-01T00:50:49.000Z</time>
      </trkpt>
      <trkpt lat="40.32117" lon="-3.414657">
        <ele>636.6</ele>
        <time>1970-01-01T00:50:50.000Z</time>
      </trkpt>
      <trkpt lat="40.321161" lon="-3.414622">
        <ele>636.6</ele>
        <time>1970-01-01T00:50:51.000Z</time>
      </trkpt>
      <trkpt lat="40.32116" lon="-3.414587">
        <ele>636.6</ele>
        <time>1970-01-01T00:50:52.000Z</time>
      </trkpt>
      <trkpt lat="40.321161" lon="-3.414549">
        <ele>636.6</ele>
        <time>1970-01-01T00:50:53.000Z</time>
      </trkpt>
      <trkpt lat="40.321159" lon="-3.414511">
        <ele>637</ele>
        <time>1970-01-01T00:50:54.000Z</time>
      </trkpt>
      <trkpt lat="40.321154" lon="-3.414472">
        <ele>637.2</ele>
        <time>1970-01-01T00:50:55.000Z</time>
      </trkpt>
      <trkpt lat="40.321148" lon="-3.414435">
        <ele>637.8</ele>
        <time>1970-01-01T00:50:56.000Z</time>
      </trkpt>
      <trkpt lat="40.321142" lon="-3.4144">
        <ele>638.2</ele>
        <time>1970-01-01T00:50:57.000Z</time>
      </trkpt>
      <trkpt lat="40.32114" lon="-3.414364">
        <ele>638.6</ele>
        <time>1970-01-01T00:50:58.000Z</time>
      </trkpt>
      <trkpt lat="40.321143" lon="-3.41433">
        <ele>638.8</ele>
        <time>1970-01-01T00:50:59.000Z</time>
      </trkpt>
      <trkpt lat="40.321151" lon="-3.4143">
        <ele>639.4</ele>
        <time>1970-01-01T00:51:00.000Z</time>
      </trkpt>
      <trkpt lat="40.321161" lon="-3.414269">
        <ele>640</ele>
        <time>1970-01-01T00:51:01.000Z</time>
      </trkpt>
      <trkpt lat="40.321176" lon="-3.414236">
        <ele>640.4</ele>
        <time>1970-01-01T00:51:02.000Z</time>
      </trkpt>
      <trkpt lat="40.321196" lon="-3.41421">
        <ele>640.8</ele>
        <time>1970-01-01T00:51:03.000Z</time>
      </trkpt>
      <trkpt lat="40.321219" lon="-3.414185">
        <ele>641.2</ele>
        <time>1970-01-01T00:51:04.000Z</time>
      </trkpt>
      <trkpt lat="40.321242" lon="-3.414162">
        <ele>641.8</ele>
        <time>1970-01-01T00:51:05.000Z</time>
      </trkpt>
      <trkpt lat="40.321264" lon="-3.41414">
        <ele>642.2</ele>
        <time>1970-01-01T00:51:06.000Z</time>
      </trkpt>
      <trkpt lat="40.321283" lon="-3.41412">
        <ele>642.6</ele>
        <time>1970-01-01T00:51:07.000Z</time>
      </trkpt>
      <trkpt lat="40.321305" lon="-3.414103">
        <ele>642.8</ele>
        <time>1970-01-01T00:51:08.000Z</time>
      </trkpt>
      <trkpt lat="40.321329" lon="-3.414086">
        <ele>642.8</ele>
        <time>1970-01-01T00:51:09.000Z</time>
      </trkpt>
      <trkpt lat="40.321351" lon="-3.414064">
        <ele>643</ele>
        <time>1970-01-01T00:51:10.000Z</time>
      </trkpt>
      <trkpt lat="40.321375" lon="-3.414038">
        <ele>643</ele>
        <time>1970-01-01T00:51:11.000Z</time>
      </trkpt>
      <trkpt lat="40.321403" lon="-3.414008">
        <ele>643.2</ele>
        <time>1970-01-01T00:51:12.000Z</time>
      </trkpt>
      <trkpt lat="40.321434" lon="-3.413981">
        <ele>643.2</ele>
        <time>1970-01-01T00:51:13.000Z</time>
      </trkpt>
      <trkpt lat="40.321466" lon="-3.413957">
        <ele>643.4</ele>
        <time>1970-01-01T00:51:14.000Z</time>
      </trkpt>
      <trkpt lat="40.321496" lon="-3.413943">
        <ele>643.4</ele>
        <time>1970-01-01T00:51:15.000Z</time>
      </trkpt>
      <trkpt lat="40.321524" lon="-3.413939">
        <ele>643.4</ele>
        <time>1970-01-01T00:51:16.000Z</time>
      </trkpt>
      <trkpt lat="40.321548" lon="-3.413936">
        <ele>643.4</ele>
        <time>1970-01-01T00:51:17.000Z</time>
      </trkpt>
      <trkpt lat="40.32157" lon="-3.413925">
        <ele>643.6</ele>
        <time>1970-01-01T00:51:18.000Z</time>
      </trkpt>
      <trkpt lat="40.321589" lon="-3.413909">
        <ele>643.6</ele>
        <time>1970-01-01T00:51:19.000Z</time>
      </trkpt>
      <trkpt lat="40.321609" lon="-3.413891">
        <ele>643.8</ele>
        <time>1970-01-01T00:51:20.000Z</time>
      </trkpt>
      <trkpt lat="40.321626" lon="-3.413871">
        <ele>644.2</ele>
        <time>1970-01-01T00:51:21.000Z</time>
      </trkpt>
      <trkpt lat="40.321643" lon="-3.413842">
        <ele>644.6</ele>
        <time>1970-01-01T00:51:22.000Z</time>
      </trkpt>
      <trkpt lat="40.321659" lon="-3.413809">
        <ele>645</ele>
        <time>1970-01-01T00:51:23.000Z</time>
      </trkpt>
      <trkpt lat="40.321675" lon="-3.413776">
        <ele>645.2</ele>
        <time>1970-01-01T00:51:24.000Z</time>
      </trkpt>
      <trkpt lat="40.321688" lon="-3.413746">
        <ele>645.2</ele>
        <time>1970-01-01T00:51:25.000Z</time>
      </trkpt>
      <trkpt lat="40.321704" lon="-3.413726">
        <ele>645.4</ele>
        <time>1970-01-01T00:51:26.000Z</time>
      </trkpt>
      <trkpt lat="40.321716" lon="-3.413713">
        <ele>645.4</ele>
        <time>1970-01-01T00:51:27.000Z</time>
      </trkpt>
      <trkpt lat="40.321725" lon="-3.413697">
        <ele>645.4</ele>
        <time>1970-01-01T00:51:28.000Z</time>
      </trkpt>
      <trkpt lat="40.321736" lon="-3.41368">
        <ele>645.4</ele>
        <time>1970-01-01T00:51:29.000Z</time>
      </trkpt>
      <trkpt lat="40.321755" lon="-3.413661">
        <ele>645.4</ele>
        <time>1970-01-01T00:51:30.000Z</time>
      </trkpt>
      <trkpt lat="40.321773" lon="-3.413639">
        <ele>645.4</ele>
        <time>1970-01-01T00:51:31.000Z</time>
      </trkpt>
      <trkpt lat="40.321789" lon="-3.413614">
        <ele>645.4</ele>
        <time>1970-01-01T00:51:32.000Z</time>
      </trkpt>
      <trkpt lat="40.321806" lon="-3.413592">
        <ele>645.4</ele>
        <time>1970-01-01T00:51:33.000Z</time>
      </trkpt>
      <trkpt lat="40.321821" lon="-3.413574">
        <ele>645.4</ele>
        <time>1970-01-01T00:51:34.000Z</time>
      </trkpt>
      <trkpt lat="40.321828" lon="-3.413546">
        <ele>645.6</ele>
        <time>1970-01-01T00:51:35.000Z</time>
      </trkpt>
      <trkpt lat="40.321829" lon="-3.413508">
        <ele>645.6</ele>
        <time>1970-01-01T00:51:36.000Z</time>
      </trkpt>
      <trkpt lat="40.321828" lon="-3.41346">
        <ele>645.6</ele>
        <time>1970-01-01T00:51:37.000Z</time>
      </trkpt>
      <trkpt lat="40.321826" lon="-3.413406">
        <ele>645.6</ele>
        <time>1970-01-01T00:51:38.000Z</time>
      </trkpt>
      <trkpt lat="40.321823" lon="-3.413354">
        <ele>645.6</ele>
        <time>1970-01-01T00:51:39.000Z</time>
      </trkpt>
      <trkpt lat="40.321824" lon="-3.4133">
        <ele>645.6</ele>
        <time>1970-01-01T00:51:40.000Z</time>
      </trkpt>
      <trkpt lat="40.321822" lon="-3.41325">
        <ele>645.6</ele>
        <time>1970-01-01T00:51:41.000Z</time>
      </trkpt>
      <trkpt lat="40.321823" lon="-3.413201">
        <ele>645.6</ele>
        <time>1970-01-01T00:51:42.000Z</time>
      </trkpt>
      <trkpt lat="40.321825" lon="-3.413152">
        <ele>645.6</ele>
        <time>1970-01-01T00:51:43.000Z</time>
      </trkpt>
      <trkpt lat="40.321826" lon="-3.413105">
        <ele>645.6</ele>
        <time>1970-01-01T00:51:44.000Z</time>
      </trkpt>
      <trkpt lat="40.321834" lon="-3.41306">
        <ele>645.4</ele>
        <time>1970-01-01T00:51:45.000Z</time>
      </trkpt>
      <trkpt lat="40.321841" lon="-3.413023">
        <ele>645.4</ele>
        <time>1970-01-01T00:51:46.000Z</time>
      </trkpt>
      <trkpt lat="40.32185" lon="-3.412984">
        <ele>645.4</ele>
        <time>1970-01-01T00:51:47.000Z</time>
      </trkpt>
      <trkpt lat="40.321859" lon="-3.412945">
        <ele>645.4</ele>
        <time>1970-01-01T00:51:48.000Z</time>
      </trkpt>
      <trkpt lat="40.321867" lon="-3.412907">
        <ele>645.2</ele>
        <time>1970-01-01T00:51:49.000Z</time>
      </trkpt>
      <trkpt lat="40.32188" lon="-3.412868">
        <ele>645.2</ele>
        <time>1970-01-01T00:51:50.000Z</time>
      </trkpt>
      <trkpt lat="40.321893" lon="-3.412828">
        <ele>645.2</ele>
        <time>1970-01-01T00:51:51.000Z</time>
      </trkpt>
      <trkpt lat="40.321905" lon="-3.412786">
        <ele>645.2</ele>
        <time>1970-01-01T00:51:52.000Z</time>
      </trkpt>
      <trkpt lat="40.321918" lon="-3.412745">
        <ele>645.2</ele>
        <time>1970-01-01T00:51:53.000Z</time>
      </trkpt>
      <trkpt lat="40.321933" lon="-3.412702">
        <ele>645.2</ele>
        <time>1970-01-01T00:51:54.000Z</time>
      </trkpt>
      <trkpt lat="40.32195" lon="-3.412659">
        <ele>645.2</ele>
        <time>1970-01-01T00:51:55.000Z</time>
      </trkpt>
      <trkpt lat="40.321964" lon="-3.412624">
        <ele>645.2</ele>
        <time>1970-01-01T00:51:56.000Z</time>
      </trkpt>
      <trkpt lat="40.321978" lon="-3.412589">
        <ele>645.4</ele>
        <time>1970-01-01T00:51:57.000Z</time>
      </trkpt>
      <trkpt lat="40.321992" lon="-3.412552">
        <ele>645.6</ele>
        <time>1970-01-01T00:51:58.000Z</time>
      </trkpt>
      <trkpt lat="40.322003" lon="-3.412519">
        <ele>645.6</ele>
        <time>1970-01-01T00:51:59.000Z</time>
      </trkpt>
      <trkpt lat="40.322015" lon="-3.412488">
        <ele>646</ele>
        <time>1970-01-01T00:52:00.000Z</time>
      </trkpt>
      <trkpt lat="40.322025" lon="-3.412457">
        <ele>646.8</ele>
        <time>1970-01-01T00:52:01.000Z</time>
      </trkpt>
      <trkpt lat="40.322036" lon="-3.412429">
        <ele>647</ele>
        <time>1970-01-01T00:52:02.000Z</time>
      </trkpt>
      <trkpt lat="40.322047" lon="-3.412398">
        <ele>647.4</ele>
        <time>1970-01-01T00:52:03.000Z</time>
      </trkpt>
      <trkpt lat="40.322057" lon="-3.412365">
        <ele>647.8</ele>
        <time>1970-01-01T00:52:04.000Z</time>
      </trkpt>
      <trkpt lat="40.322069" lon="-3.412332">
        <ele>648.4</ele>
        <time>1970-01-01T00:52:05.000Z</time>
      </trkpt>
      <trkpt lat="40.322083" lon="-3.412296">
        <ele>648.8</ele>
        <time>1970-01-01T00:52:06.000Z</time>
      </trkpt>
      <trkpt lat="40.322096" lon="-3.412258">
        <ele>649.2</ele>
        <time>1970-01-01T00:52:07.000Z</time>
      </trkpt>
      <trkpt lat="40.322108" lon="-3.412224">
        <ele>649.6</ele>
        <time>1970-01-01T00:52:08.000Z</time>
      </trkpt>
      <trkpt lat="40.322121" lon="-3.412196">
        <ele>649.8</ele>
        <time>1970-01-01T00:52:09.000Z</time>
      </trkpt>
      <trkpt lat="40.322131" lon="-3.412171">
        <ele>650.2</ele>
        <time>1970-01-01T00:52:10.000Z</time>
      </trkpt>
      <trkpt lat="40.322141" lon="-3.412148">
        <ele>650.4</ele>
        <time>1970-01-01T00:52:11.000Z</time>
      </trkpt>
      <trkpt lat="40.32215" lon="-3.412123">
        <ele>650.8</ele>
        <time>1970-01-01T00:52:12.000Z</time>
      </trkpt>
      <trkpt lat="40.322158" lon="-3.412097">
        <ele>651</ele>
        <time>1970-01-01T00:52:13.000Z</time>
      </trkpt>
      <trkpt lat="40.322168" lon="-3.412072">
        <ele>651.4</ele>
        <time>1970-01-01T00:52:14.000Z</time>
      </trkpt>
      <trkpt lat="40.322179" lon="-3.412047">
        <ele>651.4</ele>
        <time>1970-01-01T00:52:15.000Z</time>
      </trkpt>
      <trkpt lat="40.322186" lon="-3.412022">
        <ele>651.6</ele>
        <time>1970-01-01T00:52:16.000Z</time>
      </trkpt>
      <trkpt lat="40.322193" lon="-3.411996">
        <ele>651.8</ele>
        <time>1970-01-01T00:52:17.000Z</time>
      </trkpt>
      <trkpt lat="40.322202" lon="-3.411968">
        <ele>651.8</ele>
        <time>1970-01-01T00:52:18.000Z</time>
      </trkpt>
      <trkpt lat="40.322212" lon="-3.411942">
        <ele>652</ele>
        <time>1970-01-01T00:52:19.000Z</time>
      </trkpt>
      <trkpt lat="40.322222" lon="-3.411917">
        <ele>652</ele>
        <time>1970-01-01T00:52:20.000Z</time>
      </trkpt>
      <trkpt lat="40.32223" lon="-3.411893">
        <ele>652</ele>
        <time>1970-01-01T00:52:21.000Z</time>
      </trkpt>
      <trkpt lat="40.322238" lon="-3.411868">
        <ele>652</ele>
        <time>1970-01-01T00:52:22.000Z</time>
      </trkpt>
      <trkpt lat="40.322246" lon="-3.411842">
        <ele>652.2</ele>
        <time>1970-01-01T00:52:23.000Z</time>
      </trkpt>
      <trkpt lat="40.322257" lon="-3.411818">
        <ele>652.2</ele>
        <time>1970-01-01T00:52:24.000Z</time>
      </trkpt>
      <trkpt lat="40.322266" lon="-3.411798">
        <ele>652.2</ele>
        <time>1970-01-01T00:52:25.000Z</time>
      </trkpt>
      <trkpt lat="40.322275" lon="-3.411776">
        <ele>652.2</ele>
        <time>1970-01-01T00:52:26.000Z</time>
      </trkpt>
      <trkpt lat="40.322283" lon="-3.41175">
        <ele>652.2</ele>
        <time>1970-01-01T00:52:27.000Z</time>
      </trkpt>
      <trkpt lat="40.322292" lon="-3.411721">
        <ele>652.2</ele>
        <time>1970-01-01T00:52:28.000Z</time>
      </trkpt>
      <trkpt lat="40.322303" lon="-3.411694">
        <ele>652.2</ele>
        <time>1970-01-01T00:52:29.000Z</time>
      </trkpt>
      <trkpt lat="40.322316" lon="-3.411672">
        <ele>652.4</ele>
        <time>1970-01-01T00:52:30.000Z</time>
      </trkpt>
      <trkpt lat="40.322329" lon="-3.411645">
        <ele>652.4</ele>
        <time>1970-01-01T00:52:31.000Z</time>
      </trkpt>
      <trkpt lat="40.322344" lon="-3.411615">
        <ele>652.4</ele>
        <time>1970-01-01T00:52:32.000Z</time>
      </trkpt>
      <trkpt lat="40.322359" lon="-3.411584">
        <ele>652.4</ele>
        <time>1970-01-01T00:52:33.000Z</time>
      </trkpt>
      <trkpt lat="40.322372" lon="-3.411554">
        <ele>652.4</ele>
        <time>1970-01-01T00:52:34.000Z</time>
      </trkpt>
      <trkpt lat="40.322387" lon="-3.411525">
        <ele>652.4</ele>
        <time>1970-01-01T00:52:35.000Z</time>
      </trkpt>
      <trkpt lat="40.322403" lon="-3.411495">
        <ele>652.4</ele>
        <time>1970-01-01T00:52:36.000Z</time>
      </trkpt>
      <trkpt lat="40.322418" lon="-3.411464">
        <ele>652.4</ele>
        <time>1970-01-01T00:52:37.000Z</time>
      </trkpt>
      <trkpt lat="40.322435" lon="-3.411435">
        <ele>652.4</ele>
        <time>1970-01-01T00:52:38.000Z</time>
      </trkpt>
      <trkpt lat="40.32245" lon="-3.411406">
        <ele>652.4</ele>
        <time>1970-01-01T00:52:39.000Z</time>
      </trkpt>
      <trkpt lat="40.322461" lon="-3.411376">
        <ele>652.4</ele>
        <time>1970-01-01T00:52:40.000Z</time>
      </trkpt>
      <trkpt lat="40.322471" lon="-3.411346">
        <ele>652.4</ele>
        <time>1970-01-01T00:52:41.000Z</time>
      </trkpt>
      <trkpt lat="40.322482" lon="-3.411315">
        <ele>652.4</ele>
        <time>1970-01-01T00:52:42.000Z</time>
      </trkpt>
      <trkpt lat="40.322493" lon="-3.411288">
        <ele>652.4</ele>
        <time>1970-01-01T00:52:43.000Z</time>
      </trkpt>
      <trkpt lat="40.322503" lon="-3.411261">
        <ele>652.4</ele>
        <time>1970-01-01T00:52:44.000Z</time>
      </trkpt>
      <trkpt lat="40.322514" lon="-3.411234">
        <ele>652.4</ele>
        <time>1970-01-01T00:52:45.000Z</time>
      </trkpt>
      <trkpt lat="40.322527" lon="-3.411205">
        <ele>652.6</ele>
        <time>1970-01-01T00:52:46.000Z</time>
      </trkpt>
      <trkpt lat="40.322543" lon="-3.411178">
        <ele>652.6</ele>
        <time>1970-01-01T00:52:47.000Z</time>
      </trkpt>
      <trkpt lat="40.322562" lon="-3.411154">
        <ele>652.8</ele>
        <time>1970-01-01T00:52:48.000Z</time>
      </trkpt>
      <trkpt lat="40.322582" lon="-3.411137">
        <ele>652.8</ele>
        <time>1970-01-01T00:52:49.000Z</time>
      </trkpt>
      <trkpt lat="40.322602" lon="-3.411121">
        <ele>653</ele>
        <time>1970-01-01T00:52:50.000Z</time>
      </trkpt>
      <trkpt lat="40.322621" lon="-3.411104">
        <ele>653</ele>
        <time>1970-01-01T00:52:51.000Z</time>
      </trkpt>
      <trkpt lat="40.322638" lon="-3.411088">
        <ele>653.4</ele>
        <time>1970-01-01T00:52:52.000Z</time>
      </trkpt>
      <trkpt lat="40.322653" lon="-3.411069">
        <ele>653.6</ele>
        <time>1970-01-01T00:52:53.000Z</time>
      </trkpt>
      <trkpt lat="40.322664" lon="-3.411049">
        <ele>653.8</ele>
        <time>1970-01-01T00:52:54.000Z</time>
      </trkpt>
      <trkpt lat="40.322674" lon="-3.411025">
        <ele>654</ele>
        <time>1970-01-01T00:52:55.000Z</time>
      </trkpt>
      <trkpt lat="40.322685" lon="-3.410998">
        <ele>654.2</ele>
        <time>1970-01-01T00:52:56.000Z</time>
      </trkpt>
      <trkpt lat="40.322696" lon="-3.410972">
        <ele>654.2</ele>
        <time>1970-01-01T00:52:57.000Z</time>
      </trkpt>
      <trkpt lat="40.322709" lon="-3.410943">
        <ele>654.2</ele>
        <time>1970-01-01T00:52:58.000Z</time>
      </trkpt>
      <trkpt lat="40.322719" lon="-3.410918">
        <ele>654.4</ele>
        <time>1970-01-01T00:52:59.000Z</time>
      </trkpt>
      <trkpt lat="40.322729" lon="-3.410896">
        <ele>654.4</ele>
        <time>1970-01-01T00:53:00.000Z</time>
      </trkpt>
      <trkpt lat="40.322741" lon="-3.410874">
        <ele>654.6</ele>
        <time>1970-01-01T00:53:01.000Z</time>
      </trkpt>
      <trkpt lat="40.322753" lon="-3.410853">
        <ele>654.6</ele>
        <time>1970-01-01T00:53:02.000Z</time>
      </trkpt>
      <trkpt lat="40.322768" lon="-3.410832">
        <ele>654.8</ele>
        <time>1970-01-01T00:53:03.000Z</time>
      </trkpt>
      <trkpt lat="40.322785" lon="-3.41081">
        <ele>654.8</ele>
        <time>1970-01-01T00:53:04.000Z</time>
      </trkpt>
      <trkpt lat="40.322803" lon="-3.410788">
        <ele>655</ele>
        <time>1970-01-01T00:53:05.000Z</time>
      </trkpt>
      <trkpt lat="40.322821" lon="-3.410768">
        <ele>655.2</ele>
        <time>1970-01-01T00:53:06.000Z</time>
      </trkpt>
      <trkpt lat="40.32284" lon="-3.41075">
        <ele>655.2</ele>
        <time>1970-01-01T00:53:07.000Z</time>
      </trkpt>
      <trkpt lat="40.32286" lon="-3.410735">
        <ele>655.2</ele>
        <time>1970-01-01T00:53:08.000Z</time>
      </trkpt>
      <trkpt lat="40.322882" lon="-3.410721">
        <ele>655.4</ele>
        <time>1970-01-01T00:53:09.000Z</time>
      </trkpt>
      <trkpt lat="40.3229" lon="-3.410702">
        <ele>655.4</ele>
        <time>1970-01-01T00:53:10.000Z</time>
      </trkpt>
      <trkpt lat="40.322917" lon="-3.41068">
        <ele>655.4</ele>
        <time>1970-01-01T00:53:11.000Z</time>
      </trkpt>
      <trkpt lat="40.322934" lon="-3.410659">
        <ele>655.6</ele>
        <time>1970-01-01T00:53:12.000Z</time>
      </trkpt>
      <trkpt lat="40.322953" lon="-3.410636">
        <ele>655.6</ele>
        <time>1970-01-01T00:53:13.000Z</time>
      </trkpt>
      <trkpt lat="40.32297" lon="-3.410614">
        <ele>656</ele>
        <time>1970-01-01T00:53:14.000Z</time>
      </trkpt>
      <trkpt lat="40.32299" lon="-3.410594">
        <ele>656.4</ele>
        <time>1970-01-01T00:53:15.000Z</time>
      </trkpt>
      <trkpt lat="40.323008" lon="-3.410573">
        <ele>656.4</ele>
        <time>1970-01-01T00:53:16.000Z</time>
      </trkpt>
      <trkpt lat="40.323026" lon="-3.410553">
        <ele>656.8</ele>
        <time>1970-01-01T00:53:17.000Z</time>
      </trkpt>
      <trkpt lat="40.323045" lon="-3.41053">
        <ele>656.8</ele>
        <time>1970-01-01T00:53:18.000Z</time>
      </trkpt>
      <trkpt lat="40.323066" lon="-3.41051">
        <ele>657</ele>
        <time>1970-01-01T00:53:19.000Z</time>
      </trkpt>
      <trkpt lat="40.323084" lon="-3.41049">
        <ele>657</ele>
        <time>1970-01-01T00:53:20.000Z</time>
      </trkpt>
      <trkpt lat="40.323101" lon="-3.410471">
        <ele>657.4</ele>
        <time>1970-01-01T00:53:21.000Z</time>
      </trkpt>
      <trkpt lat="40.323116" lon="-3.41045">
        <ele>657.4</ele>
        <time>1970-01-01T00:53:22.000Z</time>
      </trkpt>
      <trkpt lat="40.323133" lon="-3.410424">
        <ele>657.6</ele>
        <time>1970-01-01T00:53:23.000Z</time>
      </trkpt>
      <trkpt lat="40.323152" lon="-3.410398">
        <ele>657.8</ele>
        <time>1970-01-01T00:53:24.000Z</time>
      </trkpt>
      <trkpt lat="40.323172" lon="-3.410372">
        <ele>657.8</ele>
        <time>1970-01-01T00:53:25.000Z</time>
      </trkpt>
      <trkpt lat="40.323191" lon="-3.410346">
        <ele>658</ele>
        <time>1970-01-01T00:53:26.000Z</time>
      </trkpt>
      <trkpt lat="40.323211" lon="-3.410317">
        <ele>658</ele>
        <time>1970-01-01T00:53:27.000Z</time>
      </trkpt>
      <trkpt lat="40.323228" lon="-3.410291">
        <ele>658</ele>
        <time>1970-01-01T00:53:28.000Z</time>
      </trkpt>
      <trkpt lat="40.323242" lon="-3.410261">
        <ele>658</ele>
        <time>1970-01-01T00:53:29.000Z</time>
      </trkpt>
      <trkpt lat="40.323251" lon="-3.410233">
        <ele>658</ele>
        <time>1970-01-01T00:53:30.000Z</time>
      </trkpt>
      <trkpt lat="40.323255" lon="-3.410206">
        <ele>658.2</ele>
        <time>1970-01-01T00:53:31.000Z</time>
      </trkpt>
      <trkpt lat="40.323256" lon="-3.410172">
        <ele>658.2</ele>
        <time>1970-01-01T00:53:32.000Z</time>
      </trkpt>
      <trkpt lat="40.323259" lon="-3.410134">
        <ele>658.2</ele>
        <time>1970-01-01T00:53:33.000Z</time>
      </trkpt>
      <trkpt lat="40.323261" lon="-3.410097">
        <ele>658.2</ele>
        <time>1970-01-01T00:53:34.000Z</time>
      </trkpt>
      <trkpt lat="40.323262" lon="-3.410064">
        <ele>658.2</ele>
        <time>1970-01-01T00:53:35.000Z</time>
      </trkpt>
      <trkpt lat="40.323265" lon="-3.41003">
        <ele>658.4</ele>
        <time>1970-01-01T00:53:36.000Z</time>
      </trkpt>
      <trkpt lat="40.323264" lon="-3.409997">
        <ele>658.4</ele>
        <time>1970-01-01T00:53:37.000Z</time>
      </trkpt>
      <trkpt lat="40.323265" lon="-3.409963">
        <ele>658.4</ele>
        <time>1970-01-01T00:53:38.000Z</time>
      </trkpt>
      <trkpt lat="40.323265" lon="-3.409926">
        <ele>658.4</ele>
        <time>1970-01-01T00:53:39.000Z</time>
      </trkpt>
      <trkpt lat="40.323265" lon="-3.409889">
        <ele>658.4</ele>
        <time>1970-01-01T00:53:40.000Z</time>
      </trkpt>
      <trkpt lat="40.323264" lon="-3.409853">
        <ele>658.4</ele>
        <time>1970-01-01T00:53:41.000Z</time>
      </trkpt>
      <trkpt lat="40.32326" lon="-3.409817">
        <ele>658.4</ele>
        <time>1970-01-01T00:53:42.000Z</time>
      </trkpt>
      <trkpt lat="40.323256" lon="-3.409783">
        <ele>658.6</ele>
        <time>1970-01-01T00:53:43.000Z</time>
      </trkpt>
      <trkpt lat="40.323253" lon="-3.409749">
        <ele>658.6</ele>
        <time>1970-01-01T00:53:44.000Z</time>
      </trkpt>
      <trkpt lat="40.323256" lon="-3.409715">
        <ele>658.8</ele>
        <time>1970-01-01T00:53:45.000Z</time>
      </trkpt>
      <trkpt lat="40.32326" lon="-3.409679">
        <ele>658.8</ele>
        <time>1970-01-01T00:53:46.000Z</time>
      </trkpt>
      <trkpt lat="40.323262" lon="-3.409643">
        <ele>659</ele>
        <time>1970-01-01T00:53:47.000Z</time>
      </trkpt>
      <trkpt lat="40.323264" lon="-3.409606">
        <ele>659.2</ele>
        <time>1970-01-01T00:53:48.000Z</time>
      </trkpt>
      <trkpt lat="40.323266" lon="-3.40957">
        <ele>659.2</ele>
        <time>1970-01-01T00:53:49.000Z</time>
      </trkpt>
      <trkpt lat="40.323267" lon="-3.409538">
        <ele>659.4</ele>
        <time>1970-01-01T00:53:50.000Z</time>
      </trkpt>
      <trkpt lat="40.323266" lon="-3.409507">
        <ele>659.6</ele>
        <time>1970-01-01T00:53:51.000Z</time>
      </trkpt>
      <trkpt lat="40.323266" lon="-3.409477">
        <ele>659.8</ele>
        <time>1970-01-01T00:53:52.000Z</time>
      </trkpt>
      <trkpt lat="40.323268" lon="-3.409446">
        <ele>659.8</ele>
        <time>1970-01-01T00:53:53.000Z</time>
      </trkpt>
      <trkpt lat="40.323271" lon="-3.409418">
        <ele>660</ele>
        <time>1970-01-01T00:53:54.000Z</time>
      </trkpt>
      <trkpt lat="40.323275" lon="-3.409387">
        <ele>660.4</ele>
        <time>1970-01-01T00:53:55.000Z</time>
      </trkpt>
      <trkpt lat="40.323279" lon="-3.409354">
        <ele>660.6</ele>
        <time>1970-01-01T00:53:56.000Z</time>
      </trkpt>
      <trkpt lat="40.323284" lon="-3.409321">
        <ele>661.2</ele>
        <time>1970-01-01T00:53:57.000Z</time>
      </trkpt>
      <trkpt lat="40.32329" lon="-3.409286">
        <ele>661.4</ele>
        <time>1970-01-01T00:53:58.000Z</time>
      </trkpt>
      <trkpt lat="40.323295" lon="-3.409247">
        <ele>661.6</ele>
        <time>1970-01-01T00:53:59.000Z</time>
      </trkpt>
      <trkpt lat="40.323299" lon="-3.409211">
        <ele>661.6</ele>
        <time>1970-01-01T00:54:00.000Z</time>
      </trkpt>
      <trkpt lat="40.323305" lon="-3.409173">
        <ele>661.6</ele>
        <time>1970-01-01T00:54:01.000Z</time>
      </trkpt>
      <trkpt lat="40.323316" lon="-3.409139">
        <ele>661.6</ele>
        <time>1970-01-01T00:54:02.000Z</time>
      </trkpt>
      <trkpt lat="40.323327" lon="-3.409106">
        <ele>662</ele>
        <time>1970-01-01T00:54:03.000Z</time>
      </trkpt>
      <trkpt lat="40.323338" lon="-3.409073">
        <ele>662.2</ele>
        <time>1970-01-01T00:54:04.000Z</time>
      </trkpt>
      <trkpt lat="40.32335" lon="-3.409041">
        <ele>662.4</ele>
        <time>1970-01-01T00:54:05.000Z</time>
      </trkpt>
      <trkpt lat="40.323363" lon="-3.409013">
        <ele>662.6</ele>
        <time>1970-01-01T00:54:06.000Z</time>
      </trkpt>
      <trkpt lat="40.323375" lon="-3.408983">
        <ele>662.6</ele>
        <time>1970-01-01T00:54:07.000Z</time>
      </trkpt>
      <trkpt lat="40.323386" lon="-3.408956">
        <ele>662.8</ele>
        <time>1970-01-01T00:54:08.000Z</time>
      </trkpt>
      <trkpt lat="40.323397" lon="-3.408929">
        <ele>663</ele>
        <time>1970-01-01T00:54:09.000Z</time>
      </trkpt>
      <trkpt lat="40.323407" lon="-3.4089">
        <ele>663.2</ele>
        <time>1970-01-01T00:54:10.000Z</time>
      </trkpt>
      <trkpt lat="40.323419" lon="-3.408871">
        <ele>663.2</ele>
        <time>1970-01-01T00:54:11.000Z</time>
      </trkpt>
      <trkpt lat="40.323432" lon="-3.408838">
        <ele>663.4</ele>
        <time>1970-01-01T00:54:12.000Z</time>
      </trkpt>
      <trkpt lat="40.323446" lon="-3.408801">
        <ele>663.6</ele>
        <time>1970-01-01T00:54:13.000Z</time>
      </trkpt>
      <trkpt lat="40.323466" lon="-3.408762">
        <ele>663.6</ele>
        <time>1970-01-01T00:54:14.000Z</time>
      </trkpt>
      <trkpt lat="40.32349" lon="-3.408719">
        <ele>663.6</ele>
        <time>1970-01-01T00:54:15.000Z</time>
      </trkpt>
      <trkpt lat="40.323519" lon="-3.408679">
        <ele>663.6</ele>
        <time>1970-01-01T00:54:16.000Z</time>
      </trkpt>
      <trkpt lat="40.323551" lon="-3.408644">
        <ele>663.6</ele>
        <time>1970-01-01T00:54:17.000Z</time>
      </trkpt>
      <trkpt lat="40.323578" lon="-3.408613">
        <ele>663.6</ele>
        <time>1970-01-01T00:54:18.000Z</time>
      </trkpt>
      <trkpt lat="40.3236" lon="-3.40858">
        <ele>663.4</ele>
        <time>1970-01-01T00:54:19.000Z</time>
      </trkpt>
      <trkpt lat="40.323628" lon="-3.408539">
        <ele>663.4</ele>
        <time>1970-01-01T00:54:20.000Z</time>
      </trkpt>
      <trkpt lat="40.323661" lon="-3.408495">
        <ele>663</ele>
        <time>1970-01-01T00:54:21.000Z</time>
      </trkpt>
      <trkpt lat="40.323695" lon="-3.408448">
        <ele>663</ele>
        <time>1970-01-01T00:54:22.000Z</time>
      </trkpt>
      <trkpt lat="40.323725" lon="-3.408403">
        <ele>662.6</ele>
        <time>1970-01-01T00:54:23.000Z</time>
      </trkpt>
      <trkpt lat="40.323759" lon="-3.408361">
        <ele>662.2</ele>
        <time>1970-01-01T00:54:24.000Z</time>
      </trkpt>
      <trkpt lat="40.323782" lon="-3.40834">
        <ele>661.8</ele>
        <time>1970-01-01T00:54:25.000Z</time>
      </trkpt>
      <trkpt lat="40.323809" lon="-3.408316">
        <ele>661.4</ele>
        <time>1970-01-01T00:54:26.000Z</time>
      </trkpt>
      <trkpt lat="40.323831" lon="-3.408296">
        <ele>661.4</ele>
        <time>1970-01-01T00:54:27.000Z</time>
      </trkpt>
      <trkpt lat="40.323854" lon="-3.408278">
        <ele>661.2</ele>
        <time>1970-01-01T00:54:28.000Z</time>
      </trkpt>
      <trkpt lat="40.323876" lon="-3.408258">
        <ele>661</ele>
        <time>1970-01-01T00:54:29.000Z</time>
      </trkpt>
      <trkpt lat="40.323898" lon="-3.408236">
        <ele>660.8</ele>
        <time>1970-01-01T00:54:30.000Z</time>
      </trkpt>
      <trkpt lat="40.323919" lon="-3.408215">
        <ele>660.8</ele>
        <time>1970-01-01T00:54:31.000Z</time>
      </trkpt>
      <trkpt lat="40.323937" lon="-3.408193">
        <ele>660.8</ele>
        <time>1970-01-01T00:54:32.000Z</time>
      </trkpt>
      <trkpt lat="40.323955" lon="-3.408171">
        <ele>660.8</ele>
        <time>1970-01-01T00:54:33.000Z</time>
      </trkpt>
      <trkpt lat="40.323975" lon="-3.408151">
        <ele>660.8</ele>
        <time>1970-01-01T00:54:34.000Z</time>
      </trkpt>
      <trkpt lat="40.323994" lon="-3.40813">
        <ele>660.8</ele>
        <time>1970-01-01T00:54:35.000Z</time>
      </trkpt>
      <trkpt lat="40.324015" lon="-3.408108">
        <ele>660.8</ele>
        <time>1970-01-01T00:54:36.000Z</time>
      </trkpt>
      <trkpt lat="40.324037" lon="-3.408085">
        <ele>660.8</ele>
        <time>1970-01-01T00:54:37.000Z</time>
      </trkpt>
      <trkpt lat="40.32406" lon="-3.408065">
        <ele>660.8</ele>
        <time>1970-01-01T00:54:38.000Z</time>
      </trkpt>
      <trkpt lat="40.324082" lon="-3.408045">
        <ele>661</ele>
        <time>1970-01-01T00:54:39.000Z</time>
      </trkpt>
      <trkpt lat="40.324102" lon="-3.408022">
        <ele>661</ele>
        <time>1970-01-01T00:54:40.000Z</time>
      </trkpt>
      <trkpt lat="40.324121" lon="-3.408003">
        <ele>661</ele>
        <time>1970-01-01T00:54:41.000Z</time>
      </trkpt>
      <trkpt lat="40.324141" lon="-3.407986">
        <ele>661</ele>
        <time>1970-01-01T00:54:42.000Z</time>
      </trkpt>
      <trkpt lat="40.324162" lon="-3.407965">
        <ele>661</ele>
        <time>1970-01-01T00:54:43.000Z</time>
      </trkpt>
      <trkpt lat="40.324182" lon="-3.407945">
        <ele>661</ele>
        <time>1970-01-01T00:54:44.000Z</time>
      </trkpt>
      <trkpt lat="40.324202" lon="-3.407926">
        <ele>661</ele>
        <time>1970-01-01T00:54:45.000Z</time>
      </trkpt>
      <trkpt lat="40.324221" lon="-3.407906">
        <ele>661.2</ele>
        <time>1970-01-01T00:54:46.000Z</time>
      </trkpt>
      <trkpt lat="40.324241" lon="-3.407889">
        <ele>661.2</ele>
        <time>1970-01-01T00:54:47.000Z</time>
      </trkpt>
      <trkpt lat="40.32426" lon="-3.407872">
        <ele>661.2</ele>
        <time>1970-01-01T00:54:48.000Z</time>
      </trkpt>
      <trkpt lat="40.324279" lon="-3.407856">
        <ele>661</ele>
        <time>1970-01-01T00:54:49.000Z</time>
      </trkpt>
      <trkpt lat="40.3243" lon="-3.407836">
        <ele>661</ele>
        <time>1970-01-01T00:54:50.000Z</time>
      </trkpt>
      <trkpt lat="40.324317" lon="-3.407821">
        <ele>661</ele>
        <time>1970-01-01T00:54:51.000Z</time>
      </trkpt>
      <trkpt lat="40.324334" lon="-3.407808">
        <ele>661</ele>
        <time>1970-01-01T00:54:52.000Z</time>
      </trkpt>
      <trkpt lat="40.324352" lon="-3.407795">
        <ele>661</ele>
        <time>1970-01-01T00:54:53.000Z</time>
      </trkpt>
      <trkpt lat="40.324368" lon="-3.407781">
        <ele>661</ele>
        <time>1970-01-01T00:54:54.000Z</time>
      </trkpt>
      <trkpt lat="40.324385" lon="-3.407763">
        <ele>661</ele>
        <time>1970-01-01T00:54:55.000Z</time>
      </trkpt>
      <trkpt lat="40.324402" lon="-3.407741">
        <ele>661.2</ele>
        <time>1970-01-01T00:54:56.000Z</time>
      </trkpt>
      <trkpt lat="40.324418" lon="-3.407721">
        <ele>661.2</ele>
        <time>1970-01-01T00:54:57.000Z</time>
      </trkpt>
      <trkpt lat="40.324431" lon="-3.4077">
        <ele>661.2</ele>
        <time>1970-01-01T00:54:58.000Z</time>
      </trkpt>
      <trkpt lat="40.324445" lon="-3.407678">
        <ele>661.2</ele>
        <time>1970-01-01T00:54:59.000Z</time>
      </trkpt>
      <trkpt lat="40.324458" lon="-3.407657">
        <ele>661.4</ele>
        <time>1970-01-01T00:55:00.000Z</time>
      </trkpt>
      <trkpt lat="40.324472" lon="-3.407631">
        <ele>661.4</ele>
        <time>1970-01-01T00:55:01.000Z</time>
      </trkpt>
      <trkpt lat="40.324486" lon="-3.407607">
        <ele>661.6</ele>
        <time>1970-01-01T00:55:02.000Z</time>
      </trkpt>
      <trkpt lat="40.324497" lon="-3.407586">
        <ele>661.6</ele>
        <time>1970-01-01T00:55:03.000Z</time>
      </trkpt>
      <trkpt lat="40.324507" lon="-3.407568">
        <ele>661.8</ele>
        <time>1970-01-01T00:55:04.000Z</time>
      </trkpt>
      <trkpt lat="40.324516" lon="-3.40755">
        <ele>661.8</ele>
        <time>1970-01-01T00:55:05.000Z</time>
      </trkpt>
      <trkpt lat="40.324523" lon="-3.407533">
        <ele>661.8</ele>
        <time>1970-01-01T00:55:06.000Z</time>
      </trkpt>
      <trkpt lat="40.324528" lon="-3.407524">
        <ele>661.8</ele>
        <time>1970-01-01T00:55:07.000Z</time>
      </trkpt>
      <trkpt lat="40.324532" lon="-3.407513">
        <ele>662</ele>
        <time>1970-01-01T00:55:08.000Z</time>
      </trkpt>
      <trkpt lat="40.324538" lon="-3.407498">
        <ele>662</ele>
        <time>1970-01-01T00:55:09.000Z</time>
      </trkpt>
      <trkpt lat="40.324543" lon="-3.407478">
        <ele>662.2</ele>
        <time>1970-01-01T00:55:10.000Z</time>
      </trkpt>
      <trkpt lat="40.324547" lon="-3.407454">
        <ele>662.2</ele>
        <time>1970-01-01T00:55:11.000Z</time>
      </trkpt>
      <trkpt lat="40.324554" lon="-3.407427">
        <ele>662.2</ele>
        <time>1970-01-01T00:55:12.000Z</time>
      </trkpt>
      <trkpt lat="40.324562" lon="-3.407397">
        <ele>662.4</ele>
        <time>1970-01-01T00:55:13.000Z</time>
      </trkpt>
      <trkpt lat="40.324569" lon="-3.407366">
        <ele>662.4</ele>
        <time>1970-01-01T00:55:14.000Z</time>
      </trkpt>
      <trkpt lat="40.324575" lon="-3.407334">
        <ele>662.4</ele>
        <time>1970-01-01T00:55:15.000Z</time>
      </trkpt>
      <trkpt lat="40.324579" lon="-3.407306">
        <ele>662.4</ele>
        <time>1970-01-01T00:55:16.000Z</time>
      </trkpt>
      <trkpt lat="40.324585" lon="-3.40728">
        <ele>662.4</ele>
        <time>1970-01-01T00:55:17.000Z</time>
      </trkpt>
      <trkpt lat="40.324592" lon="-3.407252">
        <ele>662.6</ele>
        <time>1970-01-01T00:55:18.000Z</time>
      </trkpt>
      <trkpt lat="40.3246" lon="-3.407227">
        <ele>662.6</ele>
        <time>1970-01-01T00:55:19.000Z</time>
      </trkpt>
      <trkpt lat="40.32461" lon="-3.407202">
        <ele>662.6</ele>
        <time>1970-01-01T00:55:20.000Z</time>
      </trkpt>
      <trkpt lat="40.324618" lon="-3.407175">
        <ele>662.6</ele>
        <time>1970-01-01T00:55:21.000Z</time>
      </trkpt>
      <trkpt lat="40.324626" lon="-3.407147">
        <ele>662.6</ele>
        <time>1970-01-01T00:55:22.000Z</time>
      </trkpt>
      <trkpt lat="40.324633" lon="-3.407121">
        <ele>662.6</ele>
        <time>1970-01-01T00:55:23.000Z</time>
      </trkpt>
      <trkpt lat="40.324641" lon="-3.407091">
        <ele>662.6</ele>
        <time>1970-01-01T00:55:24.000Z</time>
      </trkpt>
      <trkpt lat="40.324648" lon="-3.407061">
        <ele>662.6</ele>
        <time>1970-01-01T00:55:25.000Z</time>
      </trkpt>
      <trkpt lat="40.324655" lon="-3.407031">
        <ele>662.8</ele>
        <time>1970-01-01T00:55:26.000Z</time>
      </trkpt>
      <trkpt lat="40.324663" lon="-3.407">
        <ele>662.8</ele>
        <time>1970-01-01T00:55:27.000Z</time>
      </trkpt>
      <trkpt lat="40.324672" lon="-3.406967">
        <ele>662.8</ele>
        <time>1970-01-01T00:55:28.000Z</time>
      </trkpt>
      <trkpt lat="40.324683" lon="-3.406934">
        <ele>662.8</ele>
        <time>1970-01-01T00:55:29.000Z</time>
      </trkpt>
      <trkpt lat="40.324692" lon="-3.406904">
        <ele>663</ele>
        <time>1970-01-01T00:55:30.000Z</time>
      </trkpt>
      <trkpt lat="40.324701" lon="-3.406878">
        <ele>663</ele>
        <time>1970-01-01T00:55:31.000Z</time>
      </trkpt>
      <trkpt lat="40.32471" lon="-3.406852">
        <ele>663</ele>
        <time>1970-01-01T00:55:32.000Z</time>
      </trkpt>
      <trkpt lat="40.324717" lon="-3.406824">
        <ele>662.8</ele>
        <time>1970-01-01T00:55:33.000Z</time>
      </trkpt>
      <trkpt lat="40.324725" lon="-3.406793">
        <ele>662.8</ele>
        <time>1970-01-01T00:55:34.000Z</time>
      </trkpt>
      <trkpt lat="40.324733" lon="-3.406761">
        <ele>663</ele>
        <time>1970-01-01T00:55:35.000Z</time>
      </trkpt>
      <trkpt lat="40.324741" lon="-3.406729">
        <ele>663</ele>
        <time>1970-01-01T00:55:36.000Z</time>
      </trkpt>
      <trkpt lat="40.32475" lon="-3.406697">
        <ele>663</ele>
        <time>1970-01-01T00:55:37.000Z</time>
      </trkpt>
      <trkpt lat="40.324757" lon="-3.406664">
        <ele>663</ele>
        <time>1970-01-01T00:55:38.000Z</time>
      </trkpt>
      <trkpt lat="40.324759" lon="-3.406633">
        <ele>663</ele>
        <time>1970-01-01T00:55:39.000Z</time>
      </trkpt>
      <trkpt lat="40.324762" lon="-3.406602">
        <ele>663</ele>
        <time>1970-01-01T00:55:40.000Z</time>
      </trkpt>
      <trkpt lat="40.324765" lon="-3.406567">
        <ele>663.2</ele>
        <time>1970-01-01T00:55:41.000Z</time>
      </trkpt>
      <trkpt lat="40.324767" lon="-3.406532">
        <ele>663.2</ele>
        <time>1970-01-01T00:55:42.000Z</time>
      </trkpt>
      <trkpt lat="40.324768" lon="-3.406496">
        <ele>663.4</ele>
        <time>1970-01-01T00:55:43.000Z</time>
      </trkpt>
      <trkpt lat="40.324767" lon="-3.406459">
        <ele>663.6</ele>
        <time>1970-01-01T00:55:44.000Z</time>
      </trkpt>
      <trkpt lat="40.324769" lon="-3.406421">
        <ele>663.6</ele>
        <time>1970-01-01T00:55:45.000Z</time>
      </trkpt>
      <trkpt lat="40.324774" lon="-3.406384">
        <ele>663.8</ele>
        <time>1970-01-01T00:55:46.000Z</time>
      </trkpt>
      <trkpt lat="40.32478" lon="-3.406349">
        <ele>663.8</ele>
        <time>1970-01-01T00:55:47.000Z</time>
      </trkpt>
      <trkpt lat="40.324789" lon="-3.406316">
        <ele>663.8</ele>
        <time>1970-01-01T00:55:48.000Z</time>
      </trkpt>
      <trkpt lat="40.3248" lon="-3.406286">
        <ele>663.8</ele>
        <time>1970-01-01T00:55:49.000Z</time>
      </trkpt>
      <trkpt lat="40.324809" lon="-3.406257">
        <ele>664</ele>
        <time>1970-01-01T00:55:50.000Z</time>
      </trkpt>
      <trkpt lat="40.324814" lon="-3.40623">
        <ele>664</ele>
        <time>1970-01-01T00:55:51.000Z</time>
      </trkpt>
      <trkpt lat="40.324818" lon="-3.406202">
        <ele>664.2</ele>
        <time>1970-01-01T00:55:52.000Z</time>
      </trkpt>
      <trkpt lat="40.324822" lon="-3.406179">
        <ele>664.2</ele>
        <time>1970-01-01T00:55:53.000Z</time>
      </trkpt>
      <trkpt lat="40.324826" lon="-3.406159">
        <ele>664.2</ele>
        <time>1970-01-01T00:55:54.000Z</time>
      </trkpt>
      <trkpt lat="40.324835" lon="-3.406137">
        <ele>664.2</ele>
        <time>1970-01-01T00:55:55.000Z</time>
      </trkpt>
      <trkpt lat="40.324845" lon="-3.406117">
        <ele>664.2</ele>
        <time>1970-01-01T00:55:56.000Z</time>
      </trkpt>
      <trkpt lat="40.324854" lon="-3.406093">
        <ele>664.2</ele>
        <time>1970-01-01T00:55:57.000Z</time>
      </trkpt>
      <trkpt lat="40.32486" lon="-3.406064">
        <ele>664.4</ele>
        <time>1970-01-01T00:55:58.000Z</time>
      </trkpt>
      <trkpt lat="40.324863" lon="-3.406033">
        <ele>664.4</ele>
        <time>1970-01-01T00:55:59.000Z</time>
      </trkpt>
      <trkpt lat="40.324867" lon="-3.406007">
        <ele>664.6</ele>
        <time>1970-01-01T00:56:00.000Z</time>
      </trkpt>
      <trkpt lat="40.324877" lon="-3.405979">
        <ele>664.8</ele>
        <time>1970-01-01T00:56:01.000Z</time>
      </trkpt>
      <trkpt lat="40.324889" lon="-3.405953">
        <ele>664.8</ele>
        <time>1970-01-01T00:56:02.000Z</time>
      </trkpt>
      <trkpt lat="40.324903" lon="-3.405927">
        <ele>665</ele>
        <time>1970-01-01T00:56:03.000Z</time>
      </trkpt>
      <trkpt lat="40.324922" lon="-3.405902">
        <ele>665</ele>
        <time>1970-01-01T00:56:04.000Z</time>
      </trkpt>
      <trkpt lat="40.324941" lon="-3.405878">
        <ele>665</ele>
        <time>1970-01-01T00:56:05.000Z</time>
      </trkpt>
      <trkpt lat="40.324958" lon="-3.405856">
        <ele>665</ele>
        <time>1970-01-01T00:56:06.000Z</time>
      </trkpt>
      <trkpt lat="40.324973" lon="-3.405833">
        <ele>665.2</ele>
        <time>1970-01-01T00:56:07.000Z</time>
      </trkpt>
      <trkpt lat="40.324986" lon="-3.405812">
        <ele>665.2</ele>
        <time>1970-01-01T00:56:08.000Z</time>
      </trkpt>
      <trkpt lat="40.324998" lon="-3.40579">
        <ele>665.2</ele>
        <time>1970-01-01T00:56:09.000Z</time>
      </trkpt>
      <trkpt lat="40.325005" lon="-3.405764">
        <ele>665.2</ele>
        <time>1970-01-01T00:56:10.000Z</time>
      </trkpt>
      <trkpt lat="40.325011" lon="-3.405735">
        <ele>665.2</ele>
        <time>1970-01-01T00:56:11.000Z</time>
      </trkpt>
      <trkpt lat="40.325017" lon="-3.405705">
        <ele>665.2</ele>
        <time>1970-01-01T00:56:12.000Z</time>
      </trkpt>
      <trkpt lat="40.325017" lon="-3.405675">
        <ele>665.2</ele>
        <time>1970-01-01T00:56:13.000Z</time>
      </trkpt>
      <trkpt lat="40.325015" lon="-3.405644">
        <ele>665.2</ele>
        <time>1970-01-01T00:56:14.000Z</time>
      </trkpt>
      <trkpt lat="40.325008" lon="-3.405616">
        <ele>665.2</ele>
        <time>1970-01-01T00:56:15.000Z</time>
      </trkpt>
      <trkpt lat="40.325004" lon="-3.405587">
        <ele>665.4</ele>
        <time>1970-01-01T00:56:16.000Z</time>
      </trkpt>
      <trkpt lat="40.325" lon="-3.405554">
        <ele>665.4</ele>
        <time>1970-01-01T00:56:17.000Z</time>
      </trkpt>
      <trkpt lat="40.324994" lon="-3.405521">
        <ele>665.4</ele>
        <time>1970-01-01T00:56:18.000Z</time>
      </trkpt>
      <trkpt lat="40.324992" lon="-3.405497">
        <ele>665.6</ele>
        <time>1970-01-01T00:56:19.000Z</time>
      </trkpt>
      <trkpt lat="40.32499" lon="-3.405473">
        <ele>665.6</ele>
        <time>1970-01-01T00:56:20.000Z</time>
      </trkpt>
      <trkpt lat="40.324989" lon="-3.405452">
        <ele>665.6</ele>
        <time>1970-01-01T00:56:21.000Z</time>
      </trkpt>
      <trkpt lat="40.324989" lon="-3.405435">
        <ele>665.6</ele>
        <time>1970-01-01T00:56:22.000Z</time>
      </trkpt>
      <trkpt lat="40.324989" lon="-3.405418">
        <ele>665.6</ele>
        <time>1970-01-01T00:56:23.000Z</time>
      </trkpt>
      <trkpt lat="40.324988" lon="-3.405401">
        <ele>665.8</ele>
        <time>1970-01-01T00:56:24.000Z</time>
      </trkpt>
      <trkpt lat="40.324988" lon="-3.405378">
        <ele>665.8</ele>
        <time>1970-01-01T00:56:25.000Z</time>
      </trkpt>
      <trkpt lat="40.324985" lon="-3.405351">
        <ele>665.8</ele>
        <time>1970-01-01T00:56:26.000Z</time>
      </trkpt>
      <trkpt lat="40.324981" lon="-3.405323">
        <ele>665.8</ele>
        <time>1970-01-01T00:56:27.000Z</time>
      </trkpt>
      <trkpt lat="40.324977" lon="-3.405296">
        <ele>666</ele>
        <time>1970-01-01T00:56:28.000Z</time>
      </trkpt>
      <trkpt lat="40.324974" lon="-3.405273">
        <ele>666</ele>
        <time>1970-01-01T00:56:29.000Z</time>
      </trkpt>
      <trkpt lat="40.32497" lon="-3.405252">
        <ele>666</ele>
        <time>1970-01-01T00:56:30.000Z</time>
      </trkpt>
      <trkpt lat="40.324965" lon="-3.405232">
        <ele>666.2</ele>
        <time>1970-01-01T00:56:31.000Z</time>
      </trkpt>
      <trkpt lat="40.324961" lon="-3.40521">
        <ele>666.2</ele>
        <time>1970-01-01T00:56:32.000Z</time>
      </trkpt>
      <trkpt lat="40.324955" lon="-3.405185">
        <ele>666.2</ele>
        <time>1970-01-01T00:56:33.000Z</time>
      </trkpt>
      <trkpt lat="40.324953" lon="-3.405162">
        <ele>666.2</ele>
        <time>1970-01-01T00:56:34.000Z</time>
      </trkpt>
      <trkpt lat="40.324958" lon="-3.405138">
        <ele>666.4</ele>
        <time>1970-01-01T00:56:35.000Z</time>
      </trkpt>
      <trkpt lat="40.324961" lon="-3.405117">
        <ele>666.4</ele>
        <time>1970-01-01T00:56:36.000Z</time>
      </trkpt>
      <trkpt lat="40.324962" lon="-3.405095">
        <ele>666.4</ele>
        <time>1970-01-01T00:56:37.000Z</time>
      </trkpt>
      <trkpt lat="40.324964" lon="-3.405079">
        <ele>666.6</ele>
        <time>1970-01-01T00:56:38.000Z</time>
      </trkpt>
      <trkpt lat="40.324968" lon="-3.405062">
        <ele>666.6</ele>
        <time>1970-01-01T00:56:39.000Z</time>
      </trkpt>
      <trkpt lat="40.324972" lon="-3.405054">
        <ele>666.6</ele>
        <time>1970-01-01T00:56:40.000Z</time>
      </trkpt>
      <trkpt lat="40.324972" lon="-3.405054">
        <ele>666.8</ele>
        <time>1970-01-01T00:56:41.000Z</time>
      </trkpt>
      <trkpt lat="40.324984" lon="-3.404971">
        <ele>666.6</ele>
        <time>1970-01-01T00:56:56.000Z</time>
      </trkpt>
      <trkpt lat="40.324992" lon="-3.404948">
        <ele>666.8</ele>
        <time>1970-01-01T00:56:57.000Z</time>
      </trkpt>
      <trkpt lat="40.325004" lon="-3.40492">
        <ele>666.8</ele>
        <time>1970-01-01T00:56:58.000Z</time>
      </trkpt>
      <trkpt lat="40.325014" lon="-3.404893">
        <ele>666.8</ele>
        <time>1970-01-01T00:56:59.000Z</time>
      </trkpt>
      <trkpt lat="40.325028" lon="-3.404868">
        <ele>666.8</ele>
        <time>1970-01-01T00:57:00.000Z</time>
      </trkpt>
      <trkpt lat="40.325041" lon="-3.40485">
        <ele>666.8</ele>
        <time>1970-01-01T00:57:01.000Z</time>
      </trkpt>
      <trkpt lat="40.325062" lon="-3.404826">
        <ele>666.8</ele>
        <time>1970-01-01T00:57:02.000Z</time>
      </trkpt>
      <trkpt lat="40.325086" lon="-3.404802">
        <ele>666.8</ele>
        <time>1970-01-01T00:57:03.000Z</time>
      </trkpt>
      <trkpt lat="40.325106" lon="-3.404785">
        <ele>667</ele>
        <time>1970-01-01T00:57:04.000Z</time>
      </trkpt>
      <trkpt lat="40.325138" lon="-3.404759">
        <ele>667</ele>
        <time>1970-01-01T00:57:05.000Z</time>
      </trkpt>
      <trkpt lat="40.325157" lon="-3.404744">
        <ele>667.2</ele>
        <time>1970-01-01T00:57:06.000Z</time>
      </trkpt>
      <trkpt lat="40.325179" lon="-3.404722">
        <ele>667.2</ele>
        <time>1970-01-01T00:57:07.000Z</time>
      </trkpt>
      <trkpt lat="40.325204" lon="-3.404689">
        <ele>667.2</ele>
        <time>1970-01-01T00:57:08.000Z</time>
      </trkpt>
      <trkpt lat="40.325222" lon="-3.40466">
        <ele>667.4</ele>
        <time>1970-01-01T00:57:09.000Z</time>
      </trkpt>
      <trkpt lat="40.325241" lon="-3.404633">
        <ele>667.4</ele>
        <time>1970-01-01T00:57:10.000Z</time>
      </trkpt>
      <trkpt lat="40.325258" lon="-3.404614">
        <ele>667.4</ele>
        <time>1970-01-01T00:57:11.000Z</time>
      </trkpt>
      <trkpt lat="40.325283" lon="-3.404593">
        <ele>667.4</ele>
        <time>1970-01-01T00:57:12.000Z</time>
      </trkpt>
      <trkpt lat="40.325299" lon="-3.404579">
        <ele>667.6</ele>
        <time>1970-01-01T00:57:13.000Z</time>
      </trkpt>
      <trkpt lat="40.325318" lon="-3.404558">
        <ele>667.6</ele>
        <time>1970-01-01T00:57:14.000Z</time>
      </trkpt>
      <trkpt lat="40.325338" lon="-3.404536">
        <ele>667.6</ele>
        <time>1970-01-01T00:57:15.000Z</time>
      </trkpt>
      <trkpt lat="40.325358" lon="-3.404516">
        <ele>667.6</ele>
        <time>1970-01-01T00:57:16.000Z</time>
      </trkpt>
      <trkpt lat="40.325374" lon="-3.404497">
        <ele>667.6</ele>
        <time>1970-01-01T00:57:17.000Z</time>
      </trkpt>
      <trkpt lat="40.325391" lon="-3.404476">
        <ele>667.6</ele>
        <time>1970-01-01T00:57:18.000Z</time>
      </trkpt>
      <trkpt lat="40.325402" lon="-3.404461">
        <ele>667.6</ele>
        <time>1970-01-01T00:57:19.000Z</time>
      </trkpt>
      <trkpt lat="40.325416" lon="-3.404442">
        <ele>667.8</ele>
        <time>1970-01-01T00:57:20.000Z</time>
      </trkpt>
      <trkpt lat="40.325427" lon="-3.404426">
        <ele>667.8</ele>
        <time>1970-01-01T00:57:21.000Z</time>
      </trkpt>
      <trkpt lat="40.325436" lon="-3.404414">
        <ele>667.8</ele>
        <time>1970-01-01T00:57:22.000Z</time>
      </trkpt>
      <trkpt lat="40.325443" lon="-3.404401">
        <ele>667.8</ele>
        <time>1970-01-01T00:57:23.000Z</time>
      </trkpt>
      <trkpt lat="40.325449" lon="-3.404388">
        <ele>668</ele>
        <time>1970-01-01T00:57:24.000Z</time>
      </trkpt>
      <trkpt lat="40.325451" lon="-3.404386">
        <ele>668</ele>
        <time>1970-01-01T00:57:25.000Z</time>
      </trkpt>
      <trkpt lat="40.325451" lon="-3.404386">
        <ele>668</ele>
        <time>1970-01-01T00:57:26.000Z</time>
      </trkpt>
      <trkpt lat="40.325451" lon="-3.404386">
        <ele>668.2</ele>
        <time>1970-01-01T00:57:27.000Z</time>
      </trkpt>
      <trkpt lat="40.3255" lon="-3.404338">
        <ele>668</ele>
        <time>1970-01-01T00:57:35.000Z</time>
      </trkpt>
      <trkpt lat="40.325514" lon="-3.404322">
        <ele>668</ele>
        <time>1970-01-01T00:57:36.000Z</time>
      </trkpt>
      <trkpt lat="40.325537" lon="-3.404298">
        <ele>668</ele>
        <time>1970-01-01T00:57:37.000Z</time>
      </trkpt>
      <trkpt lat="40.325559" lon="-3.404278">
        <ele>668</ele>
        <time>1970-01-01T00:57:38.000Z</time>
      </trkpt>
      <trkpt lat="40.325582" lon="-3.404256">
        <ele>668</ele>
        <time>1970-01-01T00:57:39.000Z</time>
      </trkpt>
      <trkpt lat="40.3256" lon="-3.404238">
        <ele>668.2</ele>
        <time>1970-01-01T00:57:40.000Z</time>
      </trkpt>
      <trkpt lat="40.325622" lon="-3.404222">
        <ele>668.2</ele>
        <time>1970-01-01T00:57:41.000Z</time>
      </trkpt>
      <trkpt lat="40.325644" lon="-3.404209">
        <ele>668.2</ele>
        <time>1970-01-01T00:57:42.000Z</time>
      </trkpt>
      <trkpt lat="40.325659" lon="-3.404204">
        <ele>668.2</ele>
        <time>1970-01-01T00:57:43.000Z</time>
      </trkpt>
      <trkpt lat="40.325664" lon="-3.404202">
        <ele>668.4</ele>
        <time>1970-01-01T00:57:44.000Z</time>
      </trkpt>
      <trkpt lat="40.325664" lon="-3.404202">
        <ele>668.4</ele>
        <time>1970-01-01T00:57:45.000Z</time>
      </trkpt>
      <trkpt lat="40.325664" lon="-3.404202">
        <ele>668.4</ele>
        <time>1970-01-01T00:57:46.000Z</time>
      </trkpt>
      <trkpt lat="40.325721" lon="-3.404146">
        <ele>669.4</ele>
        <time>1970-01-01T00:58:02.000Z</time>
      </trkpt>
      <trkpt lat="40.325738" lon="-3.404122">
        <ele>669.4</ele>
        <time>1970-01-01T00:58:03.000Z</time>
      </trkpt>
      <trkpt lat="40.325751" lon="-3.404098">
        <ele>669.4</ele>
        <time>1970-01-01T00:58:04.000Z</time>
      </trkpt>
      <trkpt lat="40.325763" lon="-3.404067">
        <ele>669.4</ele>
        <time>1970-01-01T00:58:05.000Z</time>
      </trkpt>
      <trkpt lat="40.325776" lon="-3.404034">
        <ele>669.4</ele>
        <time>1970-01-01T00:58:06.000Z</time>
      </trkpt>
      <trkpt lat="40.325793" lon="-3.404005">
        <ele>669.4</ele>
        <time>1970-01-01T00:58:07.000Z</time>
      </trkpt>
      <trkpt lat="40.325807" lon="-3.403987">
        <ele>669.4</ele>
        <time>1970-01-01T00:58:08.000Z</time>
      </trkpt>
      <trkpt lat="40.32582" lon="-3.403977">
        <ele>669.4</ele>
        <time>1970-01-01T00:58:09.000Z</time>
      </trkpt>
      <trkpt lat="40.325831" lon="-3.403972">
        <ele>669.4</ele>
        <time>1970-01-01T00:58:10.000Z</time>
      </trkpt>
      <trkpt lat="40.325844" lon="-3.403965">
        <ele>669.4</ele>
        <time>1970-01-01T00:58:11.000Z</time>
      </trkpt>
      <trkpt lat="40.325854" lon="-3.40396">
        <ele>669.4</ele>
        <time>1970-01-01T00:58:12.000Z</time>
      </trkpt>
      <trkpt lat="40.325865" lon="-3.403958">
        <ele>669.4</ele>
        <time>1970-01-01T00:58:13.000Z</time>
      </trkpt>
      <trkpt lat="40.325877" lon="-3.403958">
        <ele>669.4</ele>
        <time>1970-01-01T00:58:14.000Z</time>
      </trkpt>
      <trkpt lat="40.32589" lon="-3.403955">
        <ele>669.4</ele>
        <time>1970-01-01T00:58:15.000Z</time>
      </trkpt>
      <trkpt lat="40.325905" lon="-3.403947">
        <ele>669.4</ele>
        <time>1970-01-01T00:58:16.000Z</time>
      </trkpt>
      <trkpt lat="40.325922" lon="-3.403939">
        <ele>669.6</ele>
        <time>1970-01-01T00:58:17.000Z</time>
      </trkpt>
      <trkpt lat="40.325936" lon="-3.403935">
        <ele>669.6</ele>
        <time>1970-01-01T00:58:18.000Z</time>
      </trkpt>
      <trkpt lat="40.325947" lon="-3.403931">
        <ele>669.6</ele>
        <time>1970-01-01T00:58:19.000Z</time>
      </trkpt>
      <trkpt lat="40.32595" lon="-3.40393">
        <ele>669.8</ele>
        <time>1970-01-01T00:58:20.000Z</time>
      </trkpt>
      <trkpt lat="40.32595" lon="-3.40393">
        <ele>669.8</ele>
        <time>1970-01-01T00:58:21.000Z</time>
      </trkpt>
      <trkpt lat="40.32595" lon="-3.40393">
        <ele>669.8</ele>
        <time>1970-01-01T00:58:22.000Z</time>
      </trkpt>
      <trkpt lat="40.326117" lon="-3.403935">
        <ele>670.6</ele>
        <time>1970-01-01T00:58:52.000Z</time>
      </trkpt>
      <trkpt lat="40.32613" lon="-3.403933">
        <ele>670.6</ele>
        <time>1970-01-01T00:58:53.000Z</time>
      </trkpt>
      <trkpt lat="40.326146" lon="-3.403931">
        <ele>670.6</ele>
        <time>1970-01-01T00:58:54.000Z</time>
      </trkpt>
      <trkpt lat="40.326168" lon="-3.403931">
        <ele>670.6</ele>
        <time>1970-01-01T00:58:55.000Z</time>
      </trkpt>
      <trkpt lat="40.326191" lon="-3.403933">
        <ele>670.6</ele>
        <time>1970-01-01T00:58:56.000Z</time>
      </trkpt>
      <trkpt lat="40.326214" lon="-3.403936">
        <ele>670.6</ele>
        <time>1970-01-01T00:58:57.000Z</time>
      </trkpt>
      <trkpt lat="40.326238" lon="-3.403934">
        <ele>670.6</ele>
        <time>1970-01-01T00:58:58.000Z</time>
      </trkpt>
      <trkpt lat="40.326259" lon="-3.403925">
        <ele>670.6</ele>
        <time>1970-01-01T00:58:59.000Z</time>
      </trkpt>
      <trkpt lat="40.326279" lon="-3.403913">
        <ele>670.8</ele>
        <time>1970-01-01T00:59:00.000Z</time>
      </trkpt>
      <trkpt lat="40.326299" lon="-3.403906">
        <ele>670.8</ele>
        <time>1970-01-01T00:59:01.000Z</time>
      </trkpt>
      <trkpt lat="40.326318" lon="-3.403904">
        <ele>670.8</ele>
        <time>1970-01-01T00:59:02.000Z</time>
      </trkpt>
      <trkpt lat="40.326336" lon="-3.403902">
        <ele>670.8</ele>
        <time>1970-01-01T00:59:03.000Z</time>
      </trkpt>
      <trkpt lat="40.326355" lon="-3.403898">
        <ele>671</ele>
        <time>1970-01-01T00:59:04.000Z</time>
      </trkpt>
      <trkpt lat="40.326375" lon="-3.403887">
        <ele>671</ele>
        <time>1970-01-01T00:59:05.000Z</time>
      </trkpt>
      <trkpt lat="40.326394" lon="-3.403869">
        <ele>671</ele>
        <time>1970-01-01T00:59:06.000Z</time>
      </trkpt>
      <trkpt lat="40.326412" lon="-3.403848">
        <ele>671.2</ele>
        <time>1970-01-01T00:59:07.000Z</time>
      </trkpt>
      <trkpt lat="40.326431" lon="-3.403824">
        <ele>671.2</ele>
        <time>1970-01-01T00:59:08.000Z</time>
      </trkpt>
      <trkpt lat="40.326449" lon="-3.403798">
        <ele>671.2</ele>
        <time>1970-01-01T00:59:09.000Z</time>
      </trkpt>
      <trkpt lat="40.326464" lon="-3.403771">
        <ele>671.2</ele>
        <time>1970-01-01T00:59:10.000Z</time>
      </trkpt>
      <trkpt lat="40.326477" lon="-3.403743">
        <ele>671.2</ele>
        <time>1970-01-01T00:59:11.000Z</time>
      </trkpt>
      <trkpt lat="40.326487" lon="-3.403712">
        <ele>671.4</ele>
        <time>1970-01-01T00:59:12.000Z</time>
      </trkpt>
      <trkpt lat="40.326492" lon="-3.403682">
        <ele>671.4</ele>
        <time>1970-01-01T00:59:13.000Z</time>
      </trkpt>
      <trkpt lat="40.326495" lon="-3.403646">
        <ele>671.6</ele>
        <time>1970-01-01T00:59:14.000Z</time>
      </trkpt>
      <trkpt lat="40.326497" lon="-3.403612">
        <ele>671.6</ele>
        <time>1970-01-01T00:59:15.000Z</time>
      </trkpt>
      <trkpt lat="40.326498" lon="-3.403584">
        <ele>671.8</ele>
        <time>1970-01-01T00:59:16.000Z</time>
      </trkpt>
      <trkpt lat="40.326499" lon="-3.403558">
        <ele>671.8</ele>
        <time>1970-01-01T00:59:17.000Z</time>
      </trkpt>
      <trkpt lat="40.326502" lon="-3.403532">
        <ele>671.8</ele>
        <time>1970-01-01T00:59:18.000Z</time>
      </trkpt>
      <trkpt lat="40.326505" lon="-3.403502">
        <ele>672</ele>
        <time>1970-01-01T00:59:19.000Z</time>
      </trkpt>
      <trkpt lat="40.32651" lon="-3.40347">
        <ele>672</ele>
        <time>1970-01-01T00:59:20.000Z</time>
      </trkpt>
      <trkpt lat="40.326517" lon="-3.403439">
        <ele>672.2</ele>
        <time>1970-01-01T00:59:21.000Z</time>
      </trkpt>
      <trkpt lat="40.32652" lon="-3.40341">
        <ele>672.4</ele>
        <time>1970-01-01T00:59:22.000Z</time>
      </trkpt>
      <trkpt lat="40.32652" lon="-3.403377">
        <ele>672.6</ele>
        <time>1970-01-01T00:59:23.000Z</time>
      </trkpt>
      <trkpt lat="40.32652" lon="-3.403344">
        <ele>672.8</ele>
        <time>1970-01-01T00:59:24.000Z</time>
      </trkpt>
      <trkpt lat="40.326522" lon="-3.403312">
        <ele>672.8</ele>
        <time>1970-01-01T00:59:25.000Z</time>
      </trkpt>
      <trkpt lat="40.326521" lon="-3.40328">
        <ele>673</ele>
        <time>1970-01-01T00:59:26.000Z</time>
      </trkpt>
      <trkpt lat="40.326522" lon="-3.403251">
        <ele>673.2</ele>
        <time>1970-01-01T00:59:27.000Z</time>
      </trkpt>
      <trkpt lat="40.326527" lon="-3.40322">
        <ele>673.2</ele>
        <time>1970-01-01T00:59:28.000Z</time>
      </trkpt>
      <trkpt lat="40.326536" lon="-3.403188">
        <ele>673.4</ele>
        <time>1970-01-01T00:59:29.000Z</time>
      </trkpt>
      <trkpt lat="40.326548" lon="-3.403155">
        <ele>673.6</ele>
        <time>1970-01-01T00:59:30.000Z</time>
      </trkpt>
      <trkpt lat="40.326559" lon="-3.403121">
        <ele>673.6</ele>
        <time>1970-01-01T00:59:31.000Z</time>
      </trkpt>
      <trkpt lat="40.326572" lon="-3.403088">
        <ele>673.8</ele>
        <time>1970-01-01T00:59:32.000Z</time>
      </trkpt>
      <trkpt lat="40.326585" lon="-3.403056">
        <ele>674</ele>
        <time>1970-01-01T00:59:33.000Z</time>
      </trkpt>
      <trkpt lat="40.326598" lon="-3.403026">
        <ele>674.2</ele>
        <time>1970-01-01T00:59:34.000Z</time>
      </trkpt>
      <trkpt lat="40.326613" lon="-3.402998">
        <ele>674.2</ele>
        <time>1970-01-01T00:59:35.000Z</time>
      </trkpt>
      <trkpt lat="40.326632" lon="-3.402975">
        <ele>674.4</ele>
        <time>1970-01-01T00:59:36.000Z</time>
      </trkpt>
      <trkpt lat="40.32665" lon="-3.402952">
        <ele>674.4</ele>
        <time>1970-01-01T00:59:37.000Z</time>
      </trkpt>
      <trkpt lat="40.326664" lon="-3.402928">
        <ele>674.4</ele>
        <time>1970-01-01T00:59:38.000Z</time>
      </trkpt>
      <trkpt lat="40.32668" lon="-3.402899">
        <ele>674.6</ele>
        <time>1970-01-01T00:59:39.000Z</time>
      </trkpt>
      <trkpt lat="40.326697" lon="-3.402871">
        <ele>674.6</ele>
        <time>1970-01-01T00:59:40.000Z</time>
      </trkpt>
      <trkpt lat="40.326717" lon="-3.40284">
        <ele>674.8</ele>
        <time>1970-01-01T00:59:41.000Z</time>
      </trkpt>
      <trkpt lat="40.326737" lon="-3.402809">
        <ele>674.8</ele>
        <time>1970-01-01T00:59:42.000Z</time>
      </trkpt>
      <trkpt lat="40.326757" lon="-3.402775">
        <ele>675</ele>
        <time>1970-01-01T00:59:43.000Z</time>
      </trkpt>
      <trkpt lat="40.326776" lon="-3.402743">
        <ele>675</ele>
        <time>1970-01-01T00:59:44.000Z</time>
      </trkpt>
      <trkpt lat="40.326798" lon="-3.402715">
        <ele>675</ele>
        <time>1970-01-01T00:59:45.000Z</time>
      </trkpt>
      <trkpt lat="40.326819" lon="-3.402688">
        <ele>675</ele>
        <time>1970-01-01T00:59:46.000Z</time>
      </trkpt>
      <trkpt lat="40.326839" lon="-3.402661">
        <ele>675.2</ele>
        <time>1970-01-01T00:59:47.000Z</time>
      </trkpt>
      <trkpt lat="40.326861" lon="-3.402635">
        <ele>675.2</ele>
        <time>1970-01-01T00:59:48.000Z</time>
      </trkpt>
      <trkpt lat="40.326884" lon="-3.402609">
        <ele>675.2</ele>
        <time>1970-01-01T00:59:49.000Z</time>
      </trkpt>
      <trkpt lat="40.326908" lon="-3.402582">
        <ele>675.4</ele>
        <time>1970-01-01T00:59:50.000Z</time>
      </trkpt>
      <trkpt lat="40.326934" lon="-3.402555">
        <ele>675.4</ele>
        <time>1970-01-01T00:59:51.000Z</time>
      </trkpt>
      <trkpt lat="40.326958" lon="-3.40253">
        <ele>675.6</ele>
        <time>1970-01-01T00:59:52.000Z</time>
      </trkpt>
      <trkpt lat="40.326979" lon="-3.402504">
        <ele>675.6</ele>
        <time>1970-01-01T00:59:53.000Z</time>
      </trkpt>
      <trkpt lat="40.326998" lon="-3.402474">
        <ele>675.6</ele>
        <time>1970-01-01T00:59:54.000Z</time>
      </trkpt>
      <trkpt lat="40.327014" lon="-3.402441">
        <ele>675.6</ele>
        <time>1970-01-01T00:59:55.000Z</time>
      </trkpt>
      <trkpt lat="40.327032" lon="-3.402406">
        <ele>675.8</ele>
        <time>1970-01-01T00:59:56.000Z</time>
      </trkpt>
      <trkpt lat="40.32705" lon="-3.402371">
        <ele>675.8</ele>
        <time>1970-01-01T00:59:57.000Z</time>
      </trkpt>
      <trkpt lat="40.327072" lon="-3.402341">
        <ele>675.8</ele>
        <time>1970-01-01T00:59:58.000Z</time>
      </trkpt>
      <trkpt lat="40.327093" lon="-3.402313">
        <ele>676</ele>
        <time>1970-01-01T00:59:59.000Z</time>
      </trkpt>
      <trkpt lat="40.327108" lon="-3.402283">
        <ele>676</ele>
        <time>1970-01-01T01:00:00.000Z</time>
      </trkpt>
      <trkpt lat="40.327121" lon="-3.402254">
        <ele>676</ele>
        <time>1970-01-01T01:00:01.000Z</time>
      </trkpt>
      <trkpt lat="40.327131" lon="-3.402231">
        <ele>676</ele>
        <time>1970-01-01T01:00:02.000Z</time>
      </trkpt>
      <trkpt lat="40.327139" lon="-3.402207">
        <ele>676.2</ele>
        <time>1970-01-01T01:00:03.000Z</time>
      </trkpt>
      <trkpt lat="40.327148" lon="-3.402186">
        <ele>676.2</ele>
        <time>1970-01-01T01:00:04.000Z</time>
      </trkpt>
      <trkpt lat="40.327158" lon="-3.402166">
        <ele>676.2</ele>
        <time>1970-01-01T01:00:05.000Z</time>
      </trkpt>
      <trkpt lat="40.32717" lon="-3.40215">
        <ele>676.2</ele>
        <time>1970-01-01T01:00:06.000Z</time>
      </trkpt>
      <trkpt lat="40.327185" lon="-3.402129">
        <ele>676.4</ele>
        <time>1970-01-01T01:00:07.000Z</time>
      </trkpt>
      <trkpt lat="40.327197" lon="-3.402107">
        <ele>676.4</ele>
        <time>1970-01-01T01:00:08.000Z</time>
      </trkpt>
      <trkpt lat="40.327207" lon="-3.402083">
        <ele>676.4</ele>
        <time>1970-01-01T01:00:09.000Z</time>
      </trkpt>
      <trkpt lat="40.327216" lon="-3.402056">
        <ele>676.6</ele>
        <time>1970-01-01T01:00:10.000Z</time>
      </trkpt>
      <trkpt lat="40.327225" lon="-3.402028">
        <ele>676.6</ele>
        <time>1970-01-01T01:00:11.000Z</time>
      </trkpt>
      <trkpt lat="40.327233" lon="-3.401998">
        <ele>676.8</ele>
        <time>1970-01-01T01:00:12.000Z</time>
      </trkpt>
      <trkpt lat="40.327243" lon="-3.401967">
        <ele>676.8</ele>
        <time>1970-01-01T01:00:13.000Z</time>
      </trkpt>
      <trkpt lat="40.327251" lon="-3.401936">
        <ele>677</ele>
        <time>1970-01-01T01:00:14.000Z</time>
      </trkpt>
      <trkpt lat="40.327259" lon="-3.401904">
        <ele>677.2</ele>
        <time>1970-01-01T01:00:15.000Z</time>
      </trkpt>
      <trkpt lat="40.327267" lon="-3.401872">
        <ele>677.2</ele>
        <time>1970-01-01T01:00:16.000Z</time>
      </trkpt>
      <trkpt lat="40.327276" lon="-3.401837">
        <ele>677.4</ele>
        <time>1970-01-01T01:00:17.000Z</time>
      </trkpt>
      <trkpt lat="40.327285" lon="-3.4018">
        <ele>677.6</ele>
        <time>1970-01-01T01:00:18.000Z</time>
      </trkpt>
      <trkpt lat="40.327298" lon="-3.401766">
        <ele>677.6</ele>
        <time>1970-01-01T01:00:19.000Z</time>
      </trkpt>
      <trkpt lat="40.327313" lon="-3.401736">
        <ele>677.8</ele>
        <time>1970-01-01T01:00:20.000Z</time>
      </trkpt>
      <trkpt lat="40.327327" lon="-3.401705">
        <ele>678</ele>
        <time>1970-01-01T01:00:21.000Z</time>
      </trkpt>
      <trkpt lat="40.327341" lon="-3.401677">
        <ele>678</ele>
        <time>1970-01-01T01:00:22.000Z</time>
      </trkpt>
      <trkpt lat="40.327358" lon="-3.401652">
        <ele>678</ele>
        <time>1970-01-01T01:00:23.000Z</time>
      </trkpt>
      <trkpt lat="40.327374" lon="-3.401629">
        <ele>678</ele>
        <time>1970-01-01T01:00:24.000Z</time>
      </trkpt>
      <trkpt lat="40.327389" lon="-3.401605">
        <ele>678.2</ele>
        <time>1970-01-01T01:00:25.000Z</time>
      </trkpt>
      <trkpt lat="40.327403" lon="-3.401583">
        <ele>678.4</ele>
        <time>1970-01-01T01:00:26.000Z</time>
      </trkpt>
      <trkpt lat="40.327424" lon="-3.401556">
        <ele>678.4</ele>
        <time>1970-01-01T01:00:27.000Z</time>
      </trkpt>
      <trkpt lat="40.327448" lon="-3.401525">
        <ele>678.6</ele>
        <time>1970-01-01T01:00:28.000Z</time>
      </trkpt>
      <trkpt lat="40.327463" lon="-3.401496">
        <ele>678.6</ele>
        <time>1970-01-01T01:00:29.000Z</time>
      </trkpt>
      <trkpt lat="40.327477" lon="-3.401466">
        <ele>678.6</ele>
        <time>1970-01-01T01:00:30.000Z</time>
      </trkpt>
      <trkpt lat="40.327489" lon="-3.40143">
        <ele>678.6</ele>
        <time>1970-01-01T01:00:31.000Z</time>
      </trkpt>
      <trkpt lat="40.3275" lon="-3.401393">
        <ele>678.8</ele>
        <time>1970-01-01T01:00:32.000Z</time>
      </trkpt>
      <trkpt lat="40.327508" lon="-3.401356">
        <ele>678.8</ele>
        <time>1970-01-01T01:00:33.000Z</time>
      </trkpt>
      <trkpt lat="40.327517" lon="-3.401321">
        <ele>679</ele>
        <time>1970-01-01T01:00:34.000Z</time>
      </trkpt>
      <trkpt lat="40.32753" lon="-3.401296">
        <ele>678.8</ele>
        <time>1970-01-01T01:00:35.000Z</time>
      </trkpt>
      <trkpt lat="40.327546" lon="-3.401269">
        <ele>678.8</ele>
        <time>1970-01-01T01:00:36.000Z</time>
      </trkpt>
      <trkpt lat="40.327566" lon="-3.401243">
        <ele>679</ele>
        <time>1970-01-01T01:00:37.000Z</time>
      </trkpt>
      <trkpt lat="40.327585" lon="-3.401219">
        <ele>679.4</ele>
        <time>1970-01-01T01:00:38.000Z</time>
      </trkpt>
      <trkpt lat="40.327604" lon="-3.401197">
        <ele>679.8</ele>
        <time>1970-01-01T01:00:39.000Z</time>
      </trkpt>
      <trkpt lat="40.327625" lon="-3.401176">
        <ele>679.8</ele>
        <time>1970-01-01T01:00:40.000Z</time>
      </trkpt>
      <trkpt lat="40.327644" lon="-3.401156">
        <ele>680</ele>
        <time>1970-01-01T01:00:41.000Z</time>
      </trkpt>
      <trkpt lat="40.32766" lon="-3.401129">
        <ele>680</ele>
        <time>1970-01-01T01:00:42.000Z</time>
      </trkpt>
      <trkpt lat="40.327674" lon="-3.401099">
        <ele>680.2</ele>
        <time>1970-01-01T01:00:43.000Z</time>
      </trkpt>
      <trkpt lat="40.327687" lon="-3.401063">
        <ele>680.4</ele>
        <time>1970-01-01T01:00:44.000Z</time>
      </trkpt>
      <trkpt lat="40.327707" lon="-3.40103">
        <ele>680.4</ele>
        <time>1970-01-01T01:00:45.000Z</time>
      </trkpt>
      <trkpt lat="40.327733" lon="-3.401004">
        <ele>680.4</ele>
        <time>1970-01-01T01:00:46.000Z</time>
      </trkpt>
      <trkpt lat="40.327757" lon="-3.400983">
        <ele>680.4</ele>
        <time>1970-01-01T01:00:47.000Z</time>
      </trkpt>
      <trkpt lat="40.32778" lon="-3.400956">
        <ele>680.4</ele>
        <time>1970-01-01T01:00:48.000Z</time>
      </trkpt>
      <trkpt lat="40.327797" lon="-3.400922">
        <ele>680.4</ele>
        <time>1970-01-01T01:00:49.000Z</time>
      </trkpt>
      <trkpt lat="40.32781" lon="-3.400886">
        <ele>680.4</ele>
        <time>1970-01-01T01:00:50.000Z</time>
      </trkpt>
      <trkpt lat="40.327825" lon="-3.400847">
        <ele>680.4</ele>
        <time>1970-01-01T01:00:51.000Z</time>
      </trkpt>
      <trkpt lat="40.327838" lon="-3.400803">
        <ele>680.4</ele>
        <time>1970-01-01T01:00:52.000Z</time>
      </trkpt>
      <trkpt lat="40.327846" lon="-3.400759">
        <ele>680.2</ele>
        <time>1970-01-01T01:00:53.000Z</time>
      </trkpt>
      <trkpt lat="40.327848" lon="-3.400711">
        <ele>680.2</ele>
        <time>1970-01-01T01:00:54.000Z</time>
      </trkpt>
      <trkpt lat="40.327847" lon="-3.40066">
        <ele>680.4</ele>
        <time>1970-01-01T01:00:55.000Z</time>
      </trkpt>
      <trkpt lat="40.327841" lon="-3.400608">
        <ele>680.4</ele>
        <time>1970-01-01T01:00:56.000Z</time>
      </trkpt>
      <trkpt lat="40.327831" lon="-3.400564">
        <ele>680.4</ele>
        <time>1970-01-01T01:00:57.000Z</time>
      </trkpt>
      <trkpt lat="40.327821" lon="-3.400524">
        <ele>680.4</ele>
        <time>1970-01-01T01:00:58.000Z</time>
      </trkpt>
      <trkpt lat="40.32781" lon="-3.400485">
        <ele>680.4</ele>
        <time>1970-01-01T01:00:59.000Z</time>
      </trkpt>
      <trkpt lat="40.327799" lon="-3.400444">
        <ele>680.6</ele>
        <time>1970-01-01T01:01:00.000Z</time>
      </trkpt>
      <trkpt lat="40.327789" lon="-3.4004">
        <ele>680.8</ele>
        <time>1970-01-01T01:01:01.000Z</time>
      </trkpt>
      <trkpt lat="40.327789" lon="-3.400354">
        <ele>681</ele>
        <time>1970-01-01T01:01:02.000Z</time>
      </trkpt>
      <trkpt lat="40.327794" lon="-3.400308">
        <ele>681</ele>
        <time>1970-01-01T01:01:03.000Z</time>
      </trkpt>
      <trkpt lat="40.3278" lon="-3.400263">
        <ele>681.2</ele>
        <time>1970-01-01T01:01:04.000Z</time>
      </trkpt>
      <trkpt lat="40.327807" lon="-3.400221">
        <ele>681.4</ele>
        <time>1970-01-01T01:01:05.000Z</time>
      </trkpt>
      <trkpt lat="40.327816" lon="-3.400183">
        <ele>681.6</ele>
        <time>1970-01-01T01:01:06.000Z</time>
      </trkpt>
      <trkpt lat="40.327823" lon="-3.400142">
        <ele>681.8</ele>
        <time>1970-01-01T01:01:07.000Z</time>
      </trkpt>
      <trkpt lat="40.327826" lon="-3.400098">
        <ele>681.8</ele>
        <time>1970-01-01T01:01:08.000Z</time>
      </trkpt>
      <trkpt lat="40.327831" lon="-3.40005">
        <ele>682</ele>
        <time>1970-01-01T01:01:09.000Z</time>
      </trkpt>
      <trkpt lat="40.327838" lon="-3.400003">
        <ele>682.2</ele>
        <time>1970-01-01T01:01:10.000Z</time>
      </trkpt>
      <trkpt lat="40.327847" lon="-3.399952">
        <ele>682.4</ele>
        <time>1970-01-01T01:01:11.000Z</time>
      </trkpt>
      <trkpt lat="40.327855" lon="-3.399898">
        <ele>682.4</ele>
        <time>1970-01-01T01:01:12.000Z</time>
      </trkpt>
      <trkpt lat="40.327858" lon="-3.399849">
        <ele>682.6</ele>
        <time>1970-01-01T01:01:13.000Z</time>
      </trkpt>
      <trkpt lat="40.327854" lon="-3.399801">
        <ele>682.6</ele>
        <time>1970-01-01T01:01:14.000Z</time>
      </trkpt>
      <trkpt lat="40.327849" lon="-3.399755">
        <ele>682.8</ele>
        <time>1970-01-01T01:01:15.000Z</time>
      </trkpt>
      <trkpt lat="40.327843" lon="-3.399709">
        <ele>682.8</ele>
        <time>1970-01-01T01:01:16.000Z</time>
      </trkpt>
      <trkpt lat="40.327842" lon="-3.399661">
        <ele>683</ele>
        <time>1970-01-01T01:01:17.000Z</time>
      </trkpt>
      <trkpt lat="40.327845" lon="-3.399617">
        <ele>683</ele>
        <time>1970-01-01T01:01:18.000Z</time>
      </trkpt>
      <trkpt lat="40.327853" lon="-3.399576">
        <ele>683.2</ele>
        <time>1970-01-01T01:01:19.000Z</time>
      </trkpt>
      <trkpt lat="40.327864" lon="-3.39954">
        <ele>683.2</ele>
        <time>1970-01-01T01:01:20.000Z</time>
      </trkpt>
      <trkpt lat="40.327875" lon="-3.399504">
        <ele>683.2</ele>
        <time>1970-01-01T01:01:21.000Z</time>
      </trkpt>
      <trkpt lat="40.327891" lon="-3.399467">
        <ele>683.4</ele>
        <time>1970-01-01T01:01:22.000Z</time>
      </trkpt>
      <trkpt lat="40.327909" lon="-3.399431">
        <ele>683.6</ele>
        <time>1970-01-01T01:01:23.000Z</time>
      </trkpt>
      <trkpt lat="40.327931" lon="-3.399397">
        <ele>683.8</ele>
        <time>1970-01-01T01:01:24.000Z</time>
      </trkpt>
      <trkpt lat="40.327958" lon="-3.399362">
        <ele>684</ele>
        <time>1970-01-01T01:01:25.000Z</time>
      </trkpt>
      <trkpt lat="40.327986" lon="-3.399331">
        <ele>684</ele>
        <time>1970-01-01T01:01:26.000Z</time>
      </trkpt>
      <trkpt lat="40.328014" lon="-3.399302">
        <ele>684</ele>
        <time>1970-01-01T01:01:27.000Z</time>
      </trkpt>
      <trkpt lat="40.328038" lon="-3.39927">
        <ele>684.2</ele>
        <time>1970-01-01T01:01:28.000Z</time>
      </trkpt>
      <trkpt lat="40.328058" lon="-3.399232">
        <ele>684.2</ele>
        <time>1970-01-01T01:01:29.000Z</time>
      </trkpt>
      <trkpt lat="40.328077" lon="-3.399186">
        <ele>684.4</ele>
        <time>1970-01-01T01:01:30.000Z</time>
      </trkpt>
      <trkpt lat="40.328092" lon="-3.399145">
        <ele>684.4</ele>
        <time>1970-01-01T01:01:31.000Z</time>
      </trkpt>
      <trkpt lat="40.328104" lon="-3.39911">
        <ele>684.4</ele>
        <time>1970-01-01T01:01:32.000Z</time>
      </trkpt>
      <trkpt lat="40.328118" lon="-3.399074">
        <ele>684.4</ele>
        <time>1970-01-01T01:01:33.000Z</time>
      </trkpt>
      <trkpt lat="40.328132" lon="-3.399041">
        <ele>684.4</ele>
        <time>1970-01-01T01:01:34.000Z</time>
      </trkpt>
      <trkpt lat="40.328144" lon="-3.399006">
        <ele>684.4</ele>
        <time>1970-01-01T01:01:35.000Z</time>
      </trkpt>
      <trkpt lat="40.328155" lon="-3.398968">
        <ele>684.4</ele>
        <time>1970-01-01T01:01:36.000Z</time>
      </trkpt>
      <trkpt lat="40.328165" lon="-3.398928">
        <ele>684.4</ele>
        <time>1970-01-01T01:01:37.000Z</time>
      </trkpt>
      <trkpt lat="40.328177" lon="-3.398893">
        <ele>684.6</ele>
        <time>1970-01-01T01:01:38.000Z</time>
      </trkpt>
      <trkpt lat="40.32819" lon="-3.398856">
        <ele>684.6</ele>
        <time>1970-01-01T01:01:39.000Z</time>
      </trkpt>
      <trkpt lat="40.328205" lon="-3.398818">
        <ele>684.6</ele>
        <time>1970-01-01T01:01:40.000Z</time>
      </trkpt>
      <trkpt lat="40.328218" lon="-3.398784">
        <ele>684.6</ele>
        <time>1970-01-01T01:01:41.000Z</time>
      </trkpt>
      <trkpt lat="40.328228" lon="-3.398751">
        <ele>684.8</ele>
        <time>1970-01-01T01:01:42.000Z</time>
      </trkpt>
      <trkpt lat="40.328237" lon="-3.398728">
        <ele>684.8</ele>
        <time>1970-01-01T01:01:43.000Z</time>
      </trkpt>
      <trkpt lat="40.328257" lon="-3.39869">
        <ele>685</ele>
        <time>1970-01-01T01:01:44.000Z</time>
      </trkpt>
      <trkpt lat="40.328275" lon="-3.398659">
        <ele>685</ele>
        <time>1970-01-01T01:01:45.000Z</time>
      </trkpt>
      <trkpt lat="40.328292" lon="-3.398628">
        <ele>685</ele>
        <time>1970-01-01T01:01:46.000Z</time>
      </trkpt>
      <trkpt lat="40.32831" lon="-3.398598">
        <ele>685.2</ele>
        <time>1970-01-01T01:01:47.000Z</time>
      </trkpt>
      <trkpt lat="40.328326" lon="-3.39857">
        <ele>685.2</ele>
        <time>1970-01-01T01:01:48.000Z</time>
      </trkpt>
      <trkpt lat="40.328336" lon="-3.398542">
        <ele>685.4</ele>
        <time>1970-01-01T01:01:49.000Z</time>
      </trkpt>
      <trkpt lat="40.328345" lon="-3.398494">
        <ele>685.4</ele>
        <time>1970-01-01T01:01:50.000Z</time>
      </trkpt>
      <trkpt lat="40.328349" lon="-3.398446">
        <ele>685.4</ele>
        <time>1970-01-01T01:01:51.000Z</time>
      </trkpt>
      <trkpt lat="40.328357" lon="-3.398397">
        <ele>685.4</ele>
        <time>1970-01-01T01:01:52.000Z</time>
      </trkpt>
      <trkpt lat="40.32836" lon="-3.398356">
        <ele>685.4</ele>
        <time>1970-01-01T01:01:53.000Z</time>
      </trkpt>
      <trkpt lat="40.328358" lon="-3.398324">
        <ele>685.6</ele>
        <time>1970-01-01T01:01:54.000Z</time>
      </trkpt>
      <trkpt lat="40.328362" lon="-3.398295">
        <ele>685.6</ele>
        <time>1970-01-01T01:01:55.000Z</time>
      </trkpt>
      <trkpt lat="40.328368" lon="-3.398268">
        <ele>685.6</ele>
        <time>1970-01-01T01:01:56.000Z</time>
      </trkpt>
      <trkpt lat="40.328373" lon="-3.39824">
        <ele>685.6</ele>
        <time>1970-01-01T01:01:57.000Z</time>
      </trkpt>
      <trkpt lat="40.32838" lon="-3.398211">
        <ele>685.6</ele>
        <time>1970-01-01T01:01:58.000Z</time>
      </trkpt>
      <trkpt lat="40.328385" lon="-3.398183">
        <ele>685.6</ele>
        <time>1970-01-01T01:01:59.000Z</time>
      </trkpt>
      <trkpt lat="40.328392" lon="-3.398153">
        <ele>685.6</ele>
        <time>1970-01-01T01:02:00.000Z</time>
      </trkpt>
      <trkpt lat="40.328403" lon="-3.398122">
        <ele>685.8</ele>
        <time>1970-01-01T01:02:01.000Z</time>
      </trkpt>
      <trkpt lat="40.32842" lon="-3.398093">
        <ele>686</ele>
        <time>1970-01-01T01:02:02.000Z</time>
      </trkpt>
      <trkpt lat="40.328439" lon="-3.398063">
        <ele>686.2</ele>
        <time>1970-01-01T01:02:03.000Z</time>
      </trkpt>
      <trkpt lat="40.328457" lon="-3.398034">
        <ele>686.4</ele>
        <time>1970-01-01T01:02:04.000Z</time>
      </trkpt>
      <trkpt lat="40.328474" lon="-3.398004">
        <ele>686.6</ele>
        <time>1970-01-01T01:02:05.000Z</time>
      </trkpt>
      <trkpt lat="40.32849" lon="-3.397972">
        <ele>686.8</ele>
        <time>1970-01-01T01:02:06.000Z</time>
      </trkpt>
      <trkpt lat="40.328502" lon="-3.39794">
        <ele>686.8</ele>
        <time>1970-01-01T01:02:07.000Z</time>
      </trkpt>
      <trkpt lat="40.328512" lon="-3.397908">
        <ele>687</ele>
        <time>1970-01-01T01:02:08.000Z</time>
      </trkpt>
      <trkpt lat="40.32852" lon="-3.397874">
        <ele>687</ele>
        <time>1970-01-01T01:02:09.000Z</time>
      </trkpt>
      <trkpt lat="40.328527" lon="-3.397839">
        <ele>687.2</ele>
        <time>1970-01-01T01:02:10.000Z</time>
      </trkpt>
      <trkpt lat="40.328529" lon="-3.397805">
        <ele>687.4</ele>
        <time>1970-01-01T01:02:11.000Z</time>
      </trkpt>
      <trkpt lat="40.328529" lon="-3.397771">
        <ele>687.4</ele>
        <time>1970-01-01T01:02:12.000Z</time>
      </trkpt>
      <trkpt lat="40.328527" lon="-3.397739">
        <ele>687.6</ele>
        <time>1970-01-01T01:02:13.000Z</time>
      </trkpt>
      <trkpt lat="40.328527" lon="-3.397703">
        <ele>687.6</ele>
        <time>1970-01-01T01:02:14.000Z</time>
      </trkpt>
      <trkpt lat="40.328531" lon="-3.397666">
        <ele>687.8</ele>
        <time>1970-01-01T01:02:15.000Z</time>
      </trkpt>
      <trkpt lat="40.328537" lon="-3.397635">
        <ele>688.2</ele>
        <time>1970-01-01T01:02:16.000Z</time>
      </trkpt>
      <trkpt lat="40.328545" lon="-3.397605">
        <ele>688.4</ele>
        <time>1970-01-01T01:02:17.000Z</time>
      </trkpt>
      <trkpt lat="40.328555" lon="-3.39757">
        <ele>688.6</ele>
        <time>1970-01-01T01:02:18.000Z</time>
      </trkpt>
      <trkpt lat="40.328566" lon="-3.397533">
        <ele>688.8</ele>
        <time>1970-01-01T01:02:19.000Z</time>
      </trkpt>
      <trkpt lat="40.328578" lon="-3.397494">
        <ele>689</ele>
        <time>1970-01-01T01:02:20.000Z</time>
      </trkpt>
      <trkpt lat="40.328594" lon="-3.397456">
        <ele>689.2</ele>
        <time>1970-01-01T01:02:21.000Z</time>
      </trkpt>
      <trkpt lat="40.328614" lon="-3.397423">
        <ele>689.4</ele>
        <time>1970-01-01T01:02:22.000Z</time>
      </trkpt>
      <trkpt lat="40.328637" lon="-3.397395">
        <ele>689.6</ele>
        <time>1970-01-01T01:02:23.000Z</time>
      </trkpt>
      <trkpt lat="40.328661" lon="-3.39737">
        <ele>689.8</ele>
        <time>1970-01-01T01:02:24.000Z</time>
      </trkpt>
      <trkpt lat="40.328685" lon="-3.397344">
        <ele>690</ele>
        <time>1970-01-01T01:02:25.000Z</time>
      </trkpt>
      <trkpt lat="40.328711" lon="-3.397321">
        <ele>690</ele>
        <time>1970-01-01T01:02:26.000Z</time>
      </trkpt>
      <trkpt lat="40.328736" lon="-3.39731">
        <ele>690.2</ele>
        <time>1970-01-01T01:02:27.000Z</time>
      </trkpt>
      <trkpt lat="40.32876" lon="-3.397299">
        <ele>690.2</ele>
        <time>1970-01-01T01:02:28.000Z</time>
      </trkpt>
      <trkpt lat="40.328781" lon="-3.397285">
        <ele>690.4</ele>
        <time>1970-01-01T01:02:29.000Z</time>
      </trkpt>
      <trkpt lat="40.328801" lon="-3.397268">
        <ele>690.4</ele>
        <time>1970-01-01T01:02:30.000Z</time>
      </trkpt>
      <trkpt lat="40.328823" lon="-3.397248">
        <ele>690.6</ele>
        <time>1970-01-01T01:02:31.000Z</time>
      </trkpt>
      <trkpt lat="40.328849" lon="-3.397226">
        <ele>690.6</ele>
        <time>1970-01-01T01:02:32.000Z</time>
      </trkpt>
      <trkpt lat="40.328875" lon="-3.397203">
        <ele>690.8</ele>
        <time>1970-01-01T01:02:33.000Z</time>
      </trkpt>
      <trkpt lat="40.328901" lon="-3.397177">
        <ele>691</ele>
        <time>1970-01-01T01:02:34.000Z</time>
      </trkpt>
      <trkpt lat="40.32893" lon="-3.397146">
        <ele>691</ele>
        <time>1970-01-01T01:02:35.000Z</time>
      </trkpt>
      <trkpt lat="40.32896" lon="-3.397124">
        <ele>691.2</ele>
        <time>1970-01-01T01:02:36.000Z</time>
      </trkpt>
      <trkpt lat="40.328988" lon="-3.397106">
        <ele>691.4</ele>
        <time>1970-01-01T01:02:37.000Z</time>
      </trkpt>
      <trkpt lat="40.329009" lon="-3.397087">
        <ele>691.6</ele>
        <time>1970-01-01T01:02:38.000Z</time>
      </trkpt>
      <trkpt lat="40.329029" lon="-3.397064">
        <ele>691.8</ele>
        <time>1970-01-01T01:02:39.000Z</time>
      </trkpt>
      <trkpt lat="40.329049" lon="-3.397042">
        <ele>691.8</ele>
        <time>1970-01-01T01:02:40.000Z</time>
      </trkpt>
      <trkpt lat="40.329072" lon="-3.397019">
        <ele>691.8</ele>
        <time>1970-01-01T01:02:41.000Z</time>
      </trkpt>
      <trkpt lat="40.329096" lon="-3.397">
        <ele>692</ele>
        <time>1970-01-01T01:02:42.000Z</time>
      </trkpt>
      <trkpt lat="40.329123" lon="-3.396985">
        <ele>692</ele>
        <time>1970-01-01T01:02:43.000Z</time>
      </trkpt>
      <trkpt lat="40.329151" lon="-3.39697">
        <ele>692</ele>
        <time>1970-01-01T01:02:44.000Z</time>
      </trkpt>
      <trkpt lat="40.329179" lon="-3.396954">
        <ele>692.4</ele>
        <time>1970-01-01T01:02:45.000Z</time>
      </trkpt>
      <trkpt lat="40.329207" lon="-3.396942">
        <ele>692.4</ele>
        <time>1970-01-01T01:02:46.000Z</time>
      </trkpt>
      <trkpt lat="40.329238" lon="-3.396933">
        <ele>692.4</ele>
        <time>1970-01-01T01:02:47.000Z</time>
      </trkpt>
      <trkpt lat="40.329269" lon="-3.396927">
        <ele>692.6</ele>
        <time>1970-01-01T01:02:48.000Z</time>
      </trkpt>
      <trkpt lat="40.329297" lon="-3.396915">
        <ele>692.6</ele>
        <time>1970-01-01T01:02:49.000Z</time>
      </trkpt>
      <trkpt lat="40.329319" lon="-3.396905">
        <ele>692.6</ele>
        <time>1970-01-01T01:02:50.000Z</time>
      </trkpt>
      <trkpt lat="40.329338" lon="-3.396895">
        <ele>692.6</ele>
        <time>1970-01-01T01:02:51.000Z</time>
      </trkpt>
      <trkpt lat="40.329357" lon="-3.396885">
        <ele>692.6</ele>
        <time>1970-01-01T01:02:52.000Z</time>
      </trkpt>
      <trkpt lat="40.329378" lon="-3.396876">
        <ele>692.6</ele>
        <time>1970-01-01T01:02:53.000Z</time>
      </trkpt>
      <trkpt lat="40.329397" lon="-3.396866">
        <ele>692.8</ele>
        <time>1970-01-01T01:02:54.000Z</time>
      </trkpt>
      <trkpt lat="40.329416" lon="-3.396857">
        <ele>692.8</ele>
        <time>1970-01-01T01:02:55.000Z</time>
      </trkpt>
      <trkpt lat="40.329435" lon="-3.396844">
        <ele>693</ele>
        <time>1970-01-01T01:02:56.000Z</time>
      </trkpt>
      <trkpt lat="40.329456" lon="-3.396831">
        <ele>693</ele>
        <time>1970-01-01T01:02:57.000Z</time>
      </trkpt>
      <trkpt lat="40.329473" lon="-3.396818">
        <ele>693</ele>
        <time>1970-01-01T01:02:58.000Z</time>
      </trkpt>
      <trkpt lat="40.329491" lon="-3.396806">
        <ele>693</ele>
        <time>1970-01-01T01:02:59.000Z</time>
      </trkpt>
      <trkpt lat="40.329508" lon="-3.396793">
        <ele>693</ele>
        <time>1970-01-01T01:03:00.000Z</time>
      </trkpt>
      <trkpt lat="40.329527" lon="-3.396776">
        <ele>693.2</ele>
        <time>1970-01-01T01:03:01.000Z</time>
      </trkpt>
      <trkpt lat="40.329549" lon="-3.396756">
        <ele>693.2</ele>
        <time>1970-01-01T01:03:02.000Z</time>
      </trkpt>
      <trkpt lat="40.329572" lon="-3.39674">
        <ele>693.4</ele>
        <time>1970-01-01T01:03:03.000Z</time>
      </trkpt>
      <trkpt lat="40.329595" lon="-3.396724">
        <ele>693.4</ele>
        <time>1970-01-01T01:03:04.000Z</time>
      </trkpt>
      <trkpt lat="40.329624" lon="-3.396711">
        <ele>693.4</ele>
        <time>1970-01-01T01:03:05.000Z</time>
      </trkpt>
      <trkpt lat="40.329656" lon="-3.396695">
        <ele>693.4</ele>
        <time>1970-01-01T01:03:06.000Z</time>
      </trkpt>
      <trkpt lat="40.329683" lon="-3.396679">
        <ele>693.6</ele>
        <time>1970-01-01T01:03:07.000Z</time>
      </trkpt>
      <trkpt lat="40.329708" lon="-3.396666">
        <ele>693.6</ele>
        <time>1970-01-01T01:03:08.000Z</time>
      </trkpt>
      <trkpt lat="40.329732" lon="-3.396655">
        <ele>693.6</ele>
        <time>1970-01-01T01:03:09.000Z</time>
      </trkpt>
      <trkpt lat="40.329755" lon="-3.396643">
        <ele>693.6</ele>
        <time>1970-01-01T01:03:10.000Z</time>
      </trkpt>
      <trkpt lat="40.329779" lon="-3.396629">
        <ele>693.6</ele>
        <time>1970-01-01T01:03:11.000Z</time>
      </trkpt>
      <trkpt lat="40.329803" lon="-3.396613">
        <ele>693.8</ele>
        <time>1970-01-01T01:03:12.000Z</time>
      </trkpt>
      <trkpt lat="40.329825" lon="-3.396598">
        <ele>693.8</ele>
        <time>1970-01-01T01:03:13.000Z</time>
      </trkpt>
      <trkpt lat="40.329845" lon="-3.396585">
        <ele>694</ele>
        <time>1970-01-01T01:03:14.000Z</time>
      </trkpt>
      <trkpt lat="40.329863" lon="-3.396569">
        <ele>694</ele>
        <time>1970-01-01T01:03:15.000Z</time>
      </trkpt>
      <trkpt lat="40.329885" lon="-3.396553">
        <ele>694.2</ele>
        <time>1970-01-01T01:03:16.000Z</time>
      </trkpt>
      <trkpt lat="40.329908" lon="-3.396532">
        <ele>694.2</ele>
        <time>1970-01-01T01:03:17.000Z</time>
      </trkpt>
      <trkpt lat="40.329927" lon="-3.396504">
        <ele>694.2</ele>
        <time>1970-01-01T01:03:18.000Z</time>
      </trkpt>
      <trkpt lat="40.329944" lon="-3.39648">
        <ele>694.2</ele>
        <time>1970-01-01T01:03:19.000Z</time>
      </trkpt>
      <trkpt lat="40.329967" lon="-3.396464">
        <ele>694.2</ele>
        <time>1970-01-01T01:03:20.000Z</time>
      </trkpt>
      <trkpt lat="40.329992" lon="-3.396447">
        <ele>694.4</ele>
        <time>1970-01-01T01:03:21.000Z</time>
      </trkpt>
      <trkpt lat="40.330015" lon="-3.396424">
        <ele>694.4</ele>
        <time>1970-01-01T01:03:22.000Z</time>
      </trkpt>
      <trkpt lat="40.330035" lon="-3.396401">
        <ele>694.4</ele>
        <time>1970-01-01T01:03:23.000Z</time>
      </trkpt>
      <trkpt lat="40.330056" lon="-3.396386">
        <ele>694.4</ele>
        <time>1970-01-01T01:03:24.000Z</time>
      </trkpt>
      <trkpt lat="40.330075" lon="-3.396375">
        <ele>694.6</ele>
        <time>1970-01-01T01:03:25.000Z</time>
      </trkpt>
      <trkpt lat="40.330094" lon="-3.396354">
        <ele>694.6</ele>
        <time>1970-01-01T01:03:26.000Z</time>
      </trkpt>
      <trkpt lat="40.330114" lon="-3.396334">
        <ele>694.8</ele>
        <time>1970-01-01T01:03:27.000Z</time>
      </trkpt>
      <trkpt lat="40.330137" lon="-3.396315">
        <ele>694.8</ele>
        <time>1970-01-01T01:03:28.000Z</time>
      </trkpt>
      <trkpt lat="40.330161" lon="-3.396297">
        <ele>695</ele>
        <time>1970-01-01T01:03:29.000Z</time>
      </trkpt>
      <trkpt lat="40.330184" lon="-3.396278">
        <ele>695</ele>
        <time>1970-01-01T01:03:30.000Z</time>
      </trkpt>
      <trkpt lat="40.33021" lon="-3.396265">
        <ele>695.2</ele>
        <time>1970-01-01T01:03:31.000Z</time>
      </trkpt>
      <trkpt lat="40.330235" lon="-3.396262">
        <ele>695.4</ele>
        <time>1970-01-01T01:03:32.000Z</time>
      </trkpt>
      <trkpt lat="40.330258" lon="-3.396261">
        <ele>695.4</ele>
        <time>1970-01-01T01:03:33.000Z</time>
      </trkpt>
      <trkpt lat="40.330276" lon="-3.396256">
        <ele>695.6</ele>
        <time>1970-01-01T01:03:34.000Z</time>
      </trkpt>
      <trkpt lat="40.330292" lon="-3.396249">
        <ele>695.8</ele>
        <time>1970-01-01T01:03:35.000Z</time>
      </trkpt>
      <trkpt lat="40.330307" lon="-3.396243">
        <ele>696</ele>
        <time>1970-01-01T01:03:36.000Z</time>
      </trkpt>
      <trkpt lat="40.330322" lon="-3.396235">
        <ele>696.6</ele>
        <time>1970-01-01T01:03:37.000Z</time>
      </trkpt>
      <trkpt lat="40.330338" lon="-3.396222">
        <ele>696.8</ele>
        <time>1970-01-01T01:03:38.000Z</time>
      </trkpt>
      <trkpt lat="40.330355" lon="-3.396209">
        <ele>697.4</ele>
        <time>1970-01-01T01:03:39.000Z</time>
      </trkpt>
      <trkpt lat="40.330372" lon="-3.396201">
        <ele>697.4</ele>
        <time>1970-01-01T01:03:40.000Z</time>
      </trkpt>
      <trkpt lat="40.33039" lon="-3.396196">
        <ele>697.6</ele>
        <time>1970-01-01T01:03:41.000Z</time>
      </trkpt>
      <trkpt lat="40.330408" lon="-3.396195">
        <ele>697.8</ele>
        <time>1970-01-01T01:03:42.000Z</time>
      </trkpt>
      <trkpt lat="40.330433" lon="-3.396191">
        <ele>698</ele>
        <time>1970-01-01T01:03:43.000Z</time>
      </trkpt>
      <trkpt lat="40.330453" lon="-3.396179">
        <ele>698.4</ele>
        <time>1970-01-01T01:03:44.000Z</time>
      </trkpt>
      <trkpt lat="40.330469" lon="-3.396163">
        <ele>698.6</ele>
        <time>1970-01-01T01:03:45.000Z</time>
      </trkpt>
      <trkpt lat="40.330483" lon="-3.396154">
        <ele>699</ele>
        <time>1970-01-01T01:03:46.000Z</time>
      </trkpt>
      <trkpt lat="40.330499" lon="-3.396148">
        <ele>699.2</ele>
        <time>1970-01-01T01:03:47.000Z</time>
      </trkpt>
      <trkpt lat="40.330503" lon="-3.396144">
        <ele>699.6</ele>
        <time>1970-01-01T01:03:48.000Z</time>
      </trkpt>
      <trkpt lat="40.330503" lon="-3.396144">
        <ele>699.8</ele>
        <time>1970-01-01T01:03:49.000Z</time>
      </trkpt>
      <trkpt lat="40.330557" lon="-3.396133">
        <ele>700</ele>
        <time>1970-01-01T01:05:28.000Z</time>
      </trkpt>
      <trkpt lat="40.330579" lon="-3.396126">
        <ele>700</ele>
        <time>1970-01-01T01:05:29.000Z</time>
      </trkpt>
      <trkpt lat="40.3306" lon="-3.396119">
        <ele>700</ele>
        <time>1970-01-01T01:05:30.000Z</time>
      </trkpt>
      <trkpt lat="40.330623" lon="-3.396111">
        <ele>700</ele>
        <time>1970-01-01T01:05:31.000Z</time>
      </trkpt>
      <trkpt lat="40.330645" lon="-3.396106">
        <ele>700.2</ele>
        <time>1970-01-01T01:05:32.000Z</time>
      </trkpt>
      <trkpt lat="40.330667" lon="-3.396096">
        <ele>700.4</ele>
        <time>1970-01-01T01:05:33.000Z</time>
      </trkpt>
      <trkpt lat="40.33069" lon="-3.396082">
        <ele>700.4</ele>
        <time>1970-01-01T01:05:34.000Z</time>
      </trkpt>
      <trkpt lat="40.33071" lon="-3.396065">
        <ele>700.6</ele>
        <time>1970-01-01T01:05:35.000Z</time>
      </trkpt>
      <trkpt lat="40.330729" lon="-3.396046">
        <ele>700.8</ele>
        <time>1970-01-01T01:05:36.000Z</time>
      </trkpt>
      <trkpt lat="40.330749" lon="-3.396026">
        <ele>700.8</ele>
        <time>1970-01-01T01:05:37.000Z</time>
      </trkpt>
      <trkpt lat="40.330771" lon="-3.396005">
        <ele>701</ele>
        <time>1970-01-01T01:05:38.000Z</time>
      </trkpt>
      <trkpt lat="40.330791" lon="-3.395985">
        <ele>701.2</ele>
        <time>1970-01-01T01:05:39.000Z</time>
      </trkpt>
      <trkpt lat="40.330813" lon="-3.395967">
        <ele>701.2</ele>
        <time>1970-01-01T01:05:40.000Z</time>
      </trkpt>
      <trkpt lat="40.330836" lon="-3.39595">
        <ele>701.2</ele>
        <time>1970-01-01T01:05:41.000Z</time>
      </trkpt>
      <trkpt lat="40.330861" lon="-3.395932">
        <ele>701.2</ele>
        <time>1970-01-01T01:05:42.000Z</time>
      </trkpt>
      <trkpt lat="40.330878" lon="-3.395923">
        <ele>701.4</ele>
        <time>1970-01-01T01:05:43.000Z</time>
      </trkpt>
      <trkpt lat="40.3309" lon="-3.395914">
        <ele>701.4</ele>
        <time>1970-01-01T01:05:44.000Z</time>
      </trkpt>
      <trkpt lat="40.330924" lon="-3.395903">
        <ele>701.4</ele>
        <time>1970-01-01T01:05:45.000Z</time>
      </trkpt>
      <trkpt lat="40.330946" lon="-3.395894">
        <ele>701.6</ele>
        <time>1970-01-01T01:05:46.000Z</time>
      </trkpt>
      <trkpt lat="40.330966" lon="-3.395883">
        <ele>701.6</ele>
        <time>1970-01-01T01:05:47.000Z</time>
      </trkpt>
      <trkpt lat="40.330985" lon="-3.395877">
        <ele>701.8</ele>
        <time>1970-01-01T01:05:48.000Z</time>
      </trkpt>
      <trkpt lat="40.331003" lon="-3.395867">
        <ele>701.8</ele>
        <time>1970-01-01T01:05:49.000Z</time>
      </trkpt>
      <trkpt lat="40.331025" lon="-3.39586">
        <ele>702</ele>
        <time>1970-01-01T01:05:50.000Z</time>
      </trkpt>
      <trkpt lat="40.331049" lon="-3.395853">
        <ele>702.2</ele>
        <time>1970-01-01T01:05:51.000Z</time>
      </trkpt>
      <trkpt lat="40.331075" lon="-3.395845">
        <ele>702.4</ele>
        <time>1970-01-01T01:05:52.000Z</time>
      </trkpt>
      <trkpt lat="40.331101" lon="-3.395837">
        <ele>702.4</ele>
        <time>1970-01-01T01:05:53.000Z</time>
      </trkpt>
      <trkpt lat="40.331125" lon="-3.395829">
        <ele>702.6</ele>
        <time>1970-01-01T01:05:54.000Z</time>
      </trkpt>
      <trkpt lat="40.331148" lon="-3.395821">
        <ele>702.6</ele>
        <time>1970-01-01T01:05:55.000Z</time>
      </trkpt>
      <trkpt lat="40.331167" lon="-3.395814">
        <ele>702.6</ele>
        <time>1970-01-01T01:05:56.000Z</time>
      </trkpt>
      <trkpt lat="40.331186" lon="-3.395803">
        <ele>702.4</ele>
        <time>1970-01-01T01:05:57.000Z</time>
      </trkpt>
      <trkpt lat="40.331211" lon="-3.395789">
        <ele>702.4</ele>
        <time>1970-01-01T01:05:58.000Z</time>
      </trkpt>
      <trkpt lat="40.331241" lon="-3.395775">
        <ele>702.4</ele>
        <time>1970-01-01T01:05:59.000Z</time>
      </trkpt>
      <trkpt lat="40.331269" lon="-3.395762">
        <ele>702.4</ele>
        <time>1970-01-01T01:06:00.000Z</time>
      </trkpt>
      <trkpt lat="40.331296" lon="-3.395755">
        <ele>702.4</ele>
        <time>1970-01-01T01:06:01.000Z</time>
      </trkpt>
      <trkpt lat="40.331322" lon="-3.39575">
        <ele>702.4</ele>
        <time>1970-01-01T01:06:02.000Z</time>
      </trkpt>
      <trkpt lat="40.331349" lon="-3.395746">
        <ele>702.4</ele>
        <time>1970-01-01T01:06:03.000Z</time>
      </trkpt>
      <trkpt lat="40.331371" lon="-3.395736">
        <ele>702.4</ele>
        <time>1970-01-01T01:06:04.000Z</time>
      </trkpt>
      <trkpt lat="40.331389" lon="-3.395723">
        <ele>702.4</ele>
        <time>1970-01-01T01:06:05.000Z</time>
      </trkpt>
      <trkpt lat="40.331407" lon="-3.395711">
        <ele>702.4</ele>
        <time>1970-01-01T01:06:06.000Z</time>
      </trkpt>
      <trkpt lat="40.331427" lon="-3.395694">
        <ele>702.4</ele>
        <time>1970-01-01T01:06:07.000Z</time>
      </trkpt>
      <trkpt lat="40.331449" lon="-3.395677">
        <ele>702.4</ele>
        <time>1970-01-01T01:06:08.000Z</time>
      </trkpt>
      <trkpt lat="40.33147" lon="-3.39566">
        <ele>702.4</ele>
        <time>1970-01-01T01:06:09.000Z</time>
      </trkpt>
      <trkpt lat="40.331491" lon="-3.395642">
        <ele>702.4</ele>
        <time>1970-01-01T01:06:10.000Z</time>
      </trkpt>
      <trkpt lat="40.331511" lon="-3.395622">
        <ele>702.4</ele>
        <time>1970-01-01T01:06:11.000Z</time>
      </trkpt>
      <trkpt lat="40.331533" lon="-3.395601">
        <ele>702.6</ele>
        <time>1970-01-01T01:06:12.000Z</time>
      </trkpt>
      <trkpt lat="40.331552" lon="-3.395577">
        <ele>702.8</ele>
        <time>1970-01-01T01:06:13.000Z</time>
      </trkpt>
      <trkpt lat="40.331568" lon="-3.395553">
        <ele>702.8</ele>
        <time>1970-01-01T01:06:14.000Z</time>
      </trkpt>
      <trkpt lat="40.331581" lon="-3.395528">
        <ele>703.2</ele>
        <time>1970-01-01T01:06:15.000Z</time>
      </trkpt>
      <trkpt lat="40.33159" lon="-3.395504">
        <ele>703.2</ele>
        <time>1970-01-01T01:06:16.000Z</time>
      </trkpt>
      <trkpt lat="40.331595" lon="-3.395481">
        <ele>703.4</ele>
        <time>1970-01-01T01:06:17.000Z</time>
      </trkpt>
      <trkpt lat="40.331603" lon="-3.395457">
        <ele>703.4</ele>
        <time>1970-01-01T01:06:18.000Z</time>
      </trkpt>
      <trkpt lat="40.33161" lon="-3.395437">
        <ele>703.6</ele>
        <time>1970-01-01T01:06:19.000Z</time>
      </trkpt>
      <trkpt lat="40.331616" lon="-3.395417">
        <ele>703.6</ele>
        <time>1970-01-01T01:06:20.000Z</time>
      </trkpt>
      <trkpt lat="40.331625" lon="-3.395391">
        <ele>703.6</ele>
        <time>1970-01-01T01:06:21.000Z</time>
      </trkpt>
      <trkpt lat="40.331634" lon="-3.395365">
        <ele>703.8</ele>
        <time>1970-01-01T01:06:22.000Z</time>
      </trkpt>
      <trkpt lat="40.331646" lon="-3.395343">
        <ele>703.8</ele>
        <time>1970-01-01T01:06:23.000Z</time>
      </trkpt>
      <trkpt lat="40.331656" lon="-3.395321">
        <ele>703.8</ele>
        <time>1970-01-01T01:06:24.000Z</time>
      </trkpt>
      <trkpt lat="40.331665" lon="-3.3953">
        <ele>703.8</ele>
        <time>1970-01-01T01:06:25.000Z</time>
      </trkpt>
      <trkpt lat="40.331671" lon="-3.395281">
        <ele>704</ele>
        <time>1970-01-01T01:06:26.000Z</time>
      </trkpt>
      <trkpt lat="40.331674" lon="-3.395258">
        <ele>704</ele>
        <time>1970-01-01T01:06:27.000Z</time>
      </trkpt>
      <trkpt lat="40.331682" lon="-3.395233">
        <ele>704</ele>
        <time>1970-01-01T01:06:28.000Z</time>
      </trkpt>
      <trkpt lat="40.331692" lon="-3.395209">
        <ele>704.2</ele>
        <time>1970-01-01T01:06:29.000Z</time>
      </trkpt>
      <trkpt lat="40.331703" lon="-3.39519">
        <ele>704.4</ele>
        <time>1970-01-01T01:06:30.000Z</time>
      </trkpt>
      <trkpt lat="40.331716" lon="-3.39518">
        <ele>704.4</ele>
        <time>1970-01-01T01:06:31.000Z</time>
      </trkpt>
      <trkpt lat="40.33173" lon="-3.395173">
        <ele>704.6</ele>
        <time>1970-01-01T01:06:32.000Z</time>
      </trkpt>
      <trkpt lat="40.331743" lon="-3.395162">
        <ele>704.6</ele>
        <time>1970-01-01T01:06:33.000Z</time>
      </trkpt>
      <trkpt lat="40.331758" lon="-3.395147">
        <ele>704.8</ele>
        <time>1970-01-01T01:06:34.000Z</time>
      </trkpt>
      <trkpt lat="40.331772" lon="-3.395126">
        <ele>704.8</ele>
        <time>1970-01-01T01:06:35.000Z</time>
      </trkpt>
      <trkpt lat="40.331785" lon="-3.395104">
        <ele>704.8</ele>
        <time>1970-01-01T01:06:36.000Z</time>
      </trkpt>
      <trkpt lat="40.331796" lon="-3.395086">
        <ele>704.8</ele>
        <time>1970-01-01T01:06:37.000Z</time>
      </trkpt>
      <trkpt lat="40.331809" lon="-3.395069">
        <ele>704.8</ele>
        <time>1970-01-01T01:06:38.000Z</time>
      </trkpt>
      <trkpt lat="40.331823" lon="-3.395048">
        <ele>705</ele>
        <time>1970-01-01T01:06:39.000Z</time>
      </trkpt>
      <trkpt lat="40.331837" lon="-3.395028">
        <ele>705</ele>
        <time>1970-01-01T01:06:40.000Z</time>
      </trkpt>
      <trkpt lat="40.331849" lon="-3.395006">
        <ele>705.2</ele>
        <time>1970-01-01T01:06:41.000Z</time>
      </trkpt>
      <trkpt lat="40.331861" lon="-3.394982">
        <ele>705.4</ele>
        <time>1970-01-01T01:06:42.000Z</time>
      </trkpt>
      <trkpt lat="40.331875" lon="-3.394955">
        <ele>705.6</ele>
        <time>1970-01-01T01:06:43.000Z</time>
      </trkpt>
      <trkpt lat="40.331889" lon="-3.39493">
        <ele>705.6</ele>
        <time>1970-01-01T01:06:44.000Z</time>
      </trkpt>
      <trkpt lat="40.331904" lon="-3.394904">
        <ele>705.8</ele>
        <time>1970-01-01T01:06:45.000Z</time>
      </trkpt>
      <trkpt lat="40.331919" lon="-3.394881">
        <ele>706</ele>
        <time>1970-01-01T01:06:46.000Z</time>
      </trkpt>
      <trkpt lat="40.331932" lon="-3.394856">
        <ele>706</ele>
        <time>1970-01-01T01:06:47.000Z</time>
      </trkpt>
      <trkpt lat="40.331944" lon="-3.39483">
        <ele>706.2</ele>
        <time>1970-01-01T01:06:48.000Z</time>
      </trkpt>
      <trkpt lat="40.331963" lon="-3.394799">
        <ele>706.4</ele>
        <time>1970-01-01T01:06:49.000Z</time>
      </trkpt>
      <trkpt lat="40.331973" lon="-3.394779">
        <ele>706.4</ele>
        <time>1970-01-01T01:06:50.000Z</time>
      </trkpt>
      <trkpt lat="40.331989" lon="-3.394756">
        <ele>706.8</ele>
        <time>1970-01-01T01:06:51.000Z</time>
      </trkpt>
      <trkpt lat="40.332004" lon="-3.394733">
        <ele>706.8</ele>
        <time>1970-01-01T01:06:52.000Z</time>
      </trkpt>
      <trkpt lat="40.332021" lon="-3.394709">
        <ele>707.2</ele>
        <time>1970-01-01T01:06:53.000Z</time>
      </trkpt>
      <trkpt lat="40.332039" lon="-3.394684">
        <ele>707.2</ele>
        <time>1970-01-01T01:06:54.000Z</time>
      </trkpt>
      <trkpt lat="40.332056" lon="-3.39466">
        <ele>707.4</ele>
        <time>1970-01-01T01:06:55.000Z</time>
      </trkpt>
      <trkpt lat="40.332074" lon="-3.394636">
        <ele>707.4</ele>
        <time>1970-01-01T01:06:56.000Z</time>
      </trkpt>
      <trkpt lat="40.332088" lon="-3.394612">
        <ele>707.4</ele>
        <time>1970-01-01T01:06:57.000Z</time>
      </trkpt>
      <trkpt lat="40.332103" lon="-3.394588">
        <ele>707.6</ele>
        <time>1970-01-01T01:06:58.000Z</time>
      </trkpt>
      <trkpt lat="40.332115" lon="-3.394567">
        <ele>707.6</ele>
        <time>1970-01-01T01:06:59.000Z</time>
      </trkpt>
      <trkpt lat="40.332127" lon="-3.394547">
        <ele>707.8</ele>
        <time>1970-01-01T01:07:00.000Z</time>
      </trkpt>
      <trkpt lat="40.332138" lon="-3.394525">
        <ele>708</ele>
        <time>1970-01-01T01:07:01.000Z</time>
      </trkpt>
      <trkpt lat="40.33215" lon="-3.394501">
        <ele>708.4</ele>
        <time>1970-01-01T01:07:02.000Z</time>
      </trkpt>
      <trkpt lat="40.332162" lon="-3.394476">
        <ele>708.4</ele>
        <time>1970-01-01T01:07:03.000Z</time>
      </trkpt>
      <trkpt lat="40.332173" lon="-3.394453">
        <ele>708.6</ele>
        <time>1970-01-01T01:07:04.000Z</time>
      </trkpt>
      <trkpt lat="40.332183" lon="-3.39443">
        <ele>708.8</ele>
        <time>1970-01-01T01:07:05.000Z</time>
      </trkpt>
      <trkpt lat="40.332191" lon="-3.394406">
        <ele>708.8</ele>
        <time>1970-01-01T01:07:06.000Z</time>
      </trkpt>
      <trkpt lat="40.332196" lon="-3.394376">
        <ele>709</ele>
        <time>1970-01-01T01:07:07.000Z</time>
      </trkpt>
      <trkpt lat="40.332198" lon="-3.39434">
        <ele>709</ele>
        <time>1970-01-01T01:07:08.000Z</time>
      </trkpt>
      <trkpt lat="40.332199" lon="-3.394302">
        <ele>709</ele>
        <time>1970-01-01T01:07:09.000Z</time>
      </trkpt>
      <trkpt lat="40.332204" lon="-3.394264">
        <ele>709.2</ele>
        <time>1970-01-01T01:07:10.000Z</time>
      </trkpt>
      <trkpt lat="40.332209" lon="-3.39422">
        <ele>709.2</ele>
        <time>1970-01-01T01:07:11.000Z</time>
      </trkpt>
      <trkpt lat="40.332209" lon="-3.394193">
        <ele>709.2</ele>
        <time>1970-01-01T01:07:12.000Z</time>
      </trkpt>
      <trkpt lat="40.332211" lon="-3.394157">
        <ele>709.2</ele>
        <time>1970-01-01T01:07:13.000Z</time>
      </trkpt>
      <trkpt lat="40.332214" lon="-3.394122">
        <ele>709.2</ele>
        <time>1970-01-01T01:07:14.000Z</time>
      </trkpt>
      <trkpt lat="40.332216" lon="-3.394087">
        <ele>709.4</ele>
        <time>1970-01-01T01:07:15.000Z</time>
      </trkpt>
      <trkpt lat="40.332215" lon="-3.394053">
        <ele>709.4</ele>
        <time>1970-01-01T01:07:16.000Z</time>
      </trkpt>
      <trkpt lat="40.332212" lon="-3.39401">
        <ele>709.4</ele>
        <time>1970-01-01T01:07:17.000Z</time>
      </trkpt>
      <trkpt lat="40.332212" lon="-3.393981">
        <ele>709.4</ele>
        <time>1970-01-01T01:07:18.000Z</time>
      </trkpt>
      <trkpt lat="40.332209" lon="-3.393943">
        <ele>709.4</ele>
        <time>1970-01-01T01:07:19.000Z</time>
      </trkpt>
      <trkpt lat="40.332208" lon="-3.393907">
        <ele>709.4</ele>
        <time>1970-01-01T01:07:20.000Z</time>
      </trkpt>
      <trkpt lat="40.33221" lon="-3.393873">
        <ele>709.6</ele>
        <time>1970-01-01T01:07:21.000Z</time>
      </trkpt>
      <trkpt lat="40.332208" lon="-3.393842">
        <ele>709.4</ele>
        <time>1970-01-01T01:07:22.000Z</time>
      </trkpt>
      <trkpt lat="40.332206" lon="-3.393814">
        <ele>709.6</ele>
        <time>1970-01-01T01:07:23.000Z</time>
      </trkpt>
      <trkpt lat="40.332204" lon="-3.393784">
        <ele>709.8</ele>
        <time>1970-01-01T01:07:24.000Z</time>
      </trkpt>
      <trkpt lat="40.332204" lon="-3.393753">
        <ele>710</ele>
        <time>1970-01-01T01:07:25.000Z</time>
      </trkpt>
      <trkpt lat="40.332203" lon="-3.393723">
        <ele>710</ele>
        <time>1970-01-01T01:07:26.000Z</time>
      </trkpt>
      <trkpt lat="40.332204" lon="-3.393691">
        <ele>710.2</ele>
        <time>1970-01-01T01:07:27.000Z</time>
      </trkpt>
      <trkpt lat="40.332206" lon="-3.393656">
        <ele>710.4</ele>
        <time>1970-01-01T01:07:28.000Z</time>
      </trkpt>
      <trkpt lat="40.332205" lon="-3.393622">
        <ele>710.6</ele>
        <time>1970-01-01T01:07:29.000Z</time>
      </trkpt>
      <trkpt lat="40.332204" lon="-3.393587">
        <ele>710.6</ele>
        <time>1970-01-01T01:07:30.000Z</time>
      </trkpt>
      <trkpt lat="40.332201" lon="-3.393554">
        <ele>710.8</ele>
        <time>1970-01-01T01:07:31.000Z</time>
      </trkpt>
      <trkpt lat="40.332198" lon="-3.393519">
        <ele>711.2</ele>
        <time>1970-01-01T01:07:32.000Z</time>
      </trkpt>
      <trkpt lat="40.332194" lon="-3.393484">
        <ele>711.4</ele>
        <time>1970-01-01T01:07:33.000Z</time>
      </trkpt>
      <trkpt lat="40.332193" lon="-3.39345">
        <ele>712</ele>
        <time>1970-01-01T01:07:34.000Z</time>
      </trkpt>
      <trkpt lat="40.332191" lon="-3.393414">
        <ele>712.2</ele>
        <time>1970-01-01T01:07:35.000Z</time>
      </trkpt>
      <trkpt lat="40.332189" lon="-3.393379">
        <ele>712.4</ele>
        <time>1970-01-01T01:07:36.000Z</time>
      </trkpt>
      <trkpt lat="40.332188" lon="-3.393344">
        <ele>712.6</ele>
        <time>1970-01-01T01:07:37.000Z</time>
      </trkpt>
      <trkpt lat="40.332188" lon="-3.393308">
        <ele>712.8</ele>
        <time>1970-01-01T01:07:38.000Z</time>
      </trkpt>
      <trkpt lat="40.332188" lon="-3.393273">
        <ele>712.8</ele>
        <time>1970-01-01T01:07:39.000Z</time>
      </trkpt>
      <trkpt lat="40.332187" lon="-3.39324">
        <ele>712.8</ele>
        <time>1970-01-01T01:07:40.000Z</time>
      </trkpt>
      <trkpt lat="40.332187" lon="-3.393209">
        <ele>713</ele>
        <time>1970-01-01T01:07:41.000Z</time>
      </trkpt>
      <trkpt lat="40.332188" lon="-3.393178">
        <ele>713</ele>
        <time>1970-01-01T01:07:42.000Z</time>
      </trkpt>
      <trkpt lat="40.332192" lon="-3.393144">
        <ele>713.2</ele>
        <time>1970-01-01T01:07:43.000Z</time>
      </trkpt>
      <trkpt lat="40.3322" lon="-3.39311">
        <ele>713.4</ele>
        <time>1970-01-01T01:07:44.000Z</time>
      </trkpt>
      <trkpt lat="40.332206" lon="-3.393081">
        <ele>713.4</ele>
        <time>1970-01-01T01:07:45.000Z</time>
      </trkpt>
      <trkpt lat="40.332214" lon="-3.393057">
        <ele>713.6</ele>
        <time>1970-01-01T01:07:46.000Z</time>
      </trkpt>
      <trkpt lat="40.332217" lon="-3.39303">
        <ele>713.8</ele>
        <time>1970-01-01T01:07:47.000Z</time>
      </trkpt>
      <trkpt lat="40.332214" lon="-3.393003">
        <ele>714</ele>
        <time>1970-01-01T01:07:48.000Z</time>
      </trkpt>
      <trkpt lat="40.332215" lon="-3.392974">
        <ele>714</ele>
        <time>1970-01-01T01:07:49.000Z</time>
      </trkpt>
      <trkpt lat="40.332216" lon="-3.392939">
        <ele>714.2</ele>
        <time>1970-01-01T01:07:50.000Z</time>
      </trkpt>
      <trkpt lat="40.332215" lon="-3.392915">
        <ele>714.4</ele>
        <time>1970-01-01T01:07:51.000Z</time>
      </trkpt>
      <trkpt lat="40.332214" lon="-3.392888">
        <ele>714.6</ele>
        <time>1970-01-01T01:07:52.000Z</time>
      </trkpt>
      <trkpt lat="40.332212" lon="-3.392862">
        <ele>714.6</ele>
        <time>1970-01-01T01:07:53.000Z</time>
      </trkpt>
      <trkpt lat="40.332209" lon="-3.392833">
        <ele>714.8</ele>
        <time>1970-01-01T01:07:54.000Z</time>
      </trkpt>
      <trkpt lat="40.332203" lon="-3.392804">
        <ele>714.8</ele>
        <time>1970-01-01T01:07:55.000Z</time>
      </trkpt>
      <trkpt lat="40.332195" lon="-3.392776">
        <ele>715.4</ele>
        <time>1970-01-01T01:07:56.000Z</time>
      </trkpt>
      <trkpt lat="40.332188" lon="-3.392752">
        <ele>715.8</ele>
        <time>1970-01-01T01:07:57.000Z</time>
      </trkpt>
      <trkpt lat="40.332184" lon="-3.392728">
        <ele>715.8</ele>
        <time>1970-01-01T01:07:58.000Z</time>
      </trkpt>
      <trkpt lat="40.332184" lon="-3.392703">
        <ele>716.2</ele>
        <time>1970-01-01T01:07:59.000Z</time>
      </trkpt>
      <trkpt lat="40.332186" lon="-3.392682">
        <ele>716.4</ele>
        <time>1970-01-01T01:08:00.000Z</time>
      </trkpt>
      <trkpt lat="40.332189" lon="-3.392665">
        <ele>716.6</ele>
        <time>1970-01-01T01:08:01.000Z</time>
      </trkpt>
      <trkpt lat="40.332191" lon="-3.392649">
        <ele>716.6</ele>
        <time>1970-01-01T01:08:02.000Z</time>
      </trkpt>
      <trkpt lat="40.332195" lon="-3.392629">
        <ele>717</ele>
        <time>1970-01-01T01:08:03.000Z</time>
      </trkpt>
      <trkpt lat="40.332202" lon="-3.392604">
        <ele>717.2</ele>
        <time>1970-01-01T01:08:04.000Z</time>
      </trkpt>
      <trkpt lat="40.33221" lon="-3.392576">
        <ele>717.2</ele>
        <time>1970-01-01T01:08:05.000Z</time>
      </trkpt>
      <trkpt lat="40.33222" lon="-3.392546">
        <ele>717.4</ele>
        <time>1970-01-01T01:08:06.000Z</time>
      </trkpt>
      <trkpt lat="40.332231" lon="-3.392516">
        <ele>717.6</ele>
        <time>1970-01-01T01:08:07.000Z</time>
      </trkpt>
      <trkpt lat="40.332242" lon="-3.392484">
        <ele>717.6</ele>
        <time>1970-01-01T01:08:08.000Z</time>
      </trkpt>
      <trkpt lat="40.332252" lon="-3.392454">
        <ele>717.6</ele>
        <time>1970-01-01T01:08:09.000Z</time>
      </trkpt>
      <trkpt lat="40.332261" lon="-3.392426">
        <ele>717.8</ele>
        <time>1970-01-01T01:08:10.000Z</time>
      </trkpt>
      <trkpt lat="40.332271" lon="-3.392397">
        <ele>717.8</ele>
        <time>1970-01-01T01:08:11.000Z</time>
      </trkpt>
      <trkpt lat="40.332278" lon="-3.392368">
        <ele>718.2</ele>
        <time>1970-01-01T01:08:12.000Z</time>
      </trkpt>
      <trkpt lat="40.332285" lon="-3.392337">
        <ele>718.2</ele>
        <time>1970-01-01T01:08:13.000Z</time>
      </trkpt>
      <trkpt lat="40.332291" lon="-3.392306">
        <ele>718.4</ele>
        <time>1970-01-01T01:08:14.000Z</time>
      </trkpt>
      <trkpt lat="40.332296" lon="-3.392271">
        <ele>718.6</ele>
        <time>1970-01-01T01:08:15.000Z</time>
      </trkpt>
      <trkpt lat="40.332299" lon="-3.392238">
        <ele>718.8</ele>
        <time>1970-01-01T01:08:16.000Z</time>
      </trkpt>
      <trkpt lat="40.332297" lon="-3.392207">
        <ele>719</ele>
        <time>1970-01-01T01:08:17.000Z</time>
      </trkpt>
      <trkpt lat="40.332293" lon="-3.392173">
        <ele>719</ele>
        <time>1970-01-01T01:08:18.000Z</time>
      </trkpt>
      <trkpt lat="40.332287" lon="-3.392138">
        <ele>719.2</ele>
        <time>1970-01-01T01:08:19.000Z</time>
      </trkpt>
      <trkpt lat="40.332282" lon="-3.392106">
        <ele>719.4</ele>
        <time>1970-01-01T01:08:20.000Z</time>
      </trkpt>
      <trkpt lat="40.332274" lon="-3.392072">
        <ele>719.4</ele>
        <time>1970-01-01T01:08:21.000Z</time>
      </trkpt>
      <trkpt lat="40.332262" lon="-3.392026">
        <ele>719.6</ele>
        <time>1970-01-01T01:08:22.000Z</time>
      </trkpt>
      <trkpt lat="40.332252" lon="-3.391997">
        <ele>719.6</ele>
        <time>1970-01-01T01:08:23.000Z</time>
      </trkpt>
      <trkpt lat="40.332239" lon="-3.391966">
        <ele>719.8</ele>
        <time>1970-01-01T01:08:24.000Z</time>
      </trkpt>
      <trkpt lat="40.332228" lon="-3.391936">
        <ele>720</ele>
        <time>1970-01-01T01:08:25.000Z</time>
      </trkpt>
      <trkpt lat="40.332218" lon="-3.391908">
        <ele>720.2</ele>
        <time>1970-01-01T01:08:26.000Z</time>
      </trkpt>
      <trkpt lat="40.332208" lon="-3.391882">
        <ele>720.2</ele>
        <time>1970-01-01T01:08:27.000Z</time>
      </trkpt>
      <trkpt lat="40.332197" lon="-3.391855">
        <ele>720.4</ele>
        <time>1970-01-01T01:08:28.000Z</time>
      </trkpt>
      <trkpt lat="40.332188" lon="-3.391829">
        <ele>720.4</ele>
        <time>1970-01-01T01:08:29.000Z</time>
      </trkpt>
      <trkpt lat="40.33218" lon="-3.391805">
        <ele>720.4</ele>
        <time>1970-01-01T01:08:30.000Z</time>
      </trkpt>
      <trkpt lat="40.332173" lon="-3.391777">
        <ele>720.4</ele>
        <time>1970-01-01T01:08:31.000Z</time>
      </trkpt>
      <trkpt lat="40.332167" lon="-3.391758">
        <ele>720.4</ele>
        <time>1970-01-01T01:08:32.000Z</time>
      </trkpt>
      <trkpt lat="40.332162" lon="-3.391733">
        <ele>720.4</ele>
        <time>1970-01-01T01:08:33.000Z</time>
      </trkpt>
      <trkpt lat="40.332157" lon="-3.391707">
        <ele>720.4</ele>
        <time>1970-01-01T01:08:34.000Z</time>
      </trkpt>
      <trkpt lat="40.332151" lon="-3.391683">
        <ele>720.4</ele>
        <time>1970-01-01T01:08:35.000Z</time>
      </trkpt>
      <trkpt lat="40.332142" lon="-3.391666">
        <ele>720.4</ele>
        <time>1970-01-01T01:08:36.000Z</time>
      </trkpt>
      <trkpt lat="40.33213" lon="-3.391651">
        <ele>720.4</ele>
        <time>1970-01-01T01:08:37.000Z</time>
      </trkpt>
      <trkpt lat="40.332119" lon="-3.391634">
        <ele>720.4</ele>
        <time>1970-01-01T01:08:38.000Z</time>
      </trkpt>
      <trkpt lat="40.33211" lon="-3.391616">
        <ele>720.6</ele>
        <time>1970-01-01T01:08:39.000Z</time>
      </trkpt>
      <trkpt lat="40.332105" lon="-3.391595">
        <ele>720.6</ele>
        <time>1970-01-01T01:08:40.000Z</time>
      </trkpt>
      <trkpt lat="40.332099" lon="-3.39158">
        <ele>720.8</ele>
        <time>1970-01-01T01:08:41.000Z</time>
      </trkpt>
      <trkpt lat="40.332095" lon="-3.391558">
        <ele>720.8</ele>
        <time>1970-01-01T01:08:42.000Z</time>
      </trkpt>
      <trkpt lat="40.332095" lon="-3.391538">
        <ele>721</ele>
        <time>1970-01-01T01:08:43.000Z</time>
      </trkpt>
      <trkpt lat="40.332095" lon="-3.391521">
        <ele>721</ele>
        <time>1970-01-01T01:08:44.000Z</time>
      </trkpt>
      <trkpt lat="40.332096" lon="-3.391502">
        <ele>721</ele>
        <time>1970-01-01T01:08:45.000Z</time>
      </trkpt>
      <trkpt lat="40.332101" lon="-3.391477">
        <ele>721</ele>
        <time>1970-01-01T01:08:46.000Z</time>
      </trkpt>
      <trkpt lat="40.332102" lon="-3.391454">
        <ele>721</ele>
        <time>1970-01-01T01:08:47.000Z</time>
      </trkpt>
      <trkpt lat="40.332102" lon="-3.391429">
        <ele>721.2</ele>
        <time>1970-01-01T01:08:48.000Z</time>
      </trkpt>
      <trkpt lat="40.332099" lon="-3.391406">
        <ele>721.2</ele>
        <time>1970-01-01T01:08:49.000Z</time>
      </trkpt>
      <trkpt lat="40.332096" lon="-3.391382">
        <ele>721.2</ele>
        <time>1970-01-01T01:08:50.000Z</time>
      </trkpt>
      <trkpt lat="40.332092" lon="-3.391356">
        <ele>721.4</ele>
        <time>1970-01-01T01:08:51.000Z</time>
      </trkpt>
      <trkpt lat="40.332089" lon="-3.391329">
        <ele>721.6</ele>
        <time>1970-01-01T01:08:52.000Z</time>
      </trkpt>
      <trkpt lat="40.332083" lon="-3.391303">
        <ele>721.6</ele>
        <time>1970-01-01T01:08:53.000Z</time>
      </trkpt>
      <trkpt lat="40.332077" lon="-3.391274">
        <ele>721.6</ele>
        <time>1970-01-01T01:08:54.000Z</time>
      </trkpt>
      <trkpt lat="40.33207" lon="-3.391246">
        <ele>721.6</ele>
        <time>1970-01-01T01:08:55.000Z</time>
      </trkpt>
      <trkpt lat="40.332062" lon="-3.391217">
        <ele>721.6</ele>
        <time>1970-01-01T01:08:56.000Z</time>
      </trkpt>
      <trkpt lat="40.332055" lon="-3.39119">
        <ele>721.6</ele>
        <time>1970-01-01T01:08:57.000Z</time>
      </trkpt>
      <trkpt lat="40.332051" lon="-3.391163">
        <ele>721.6</ele>
        <time>1970-01-01T01:08:58.000Z</time>
      </trkpt>
      <trkpt lat="40.332049" lon="-3.391132">
        <ele>721.8</ele>
        <time>1970-01-01T01:08:59.000Z</time>
      </trkpt>
      <trkpt lat="40.332046" lon="-3.391095">
        <ele>722</ele>
        <time>1970-01-01T01:09:00.000Z</time>
      </trkpt>
      <trkpt lat="40.332043" lon="-3.391059">
        <ele>722</ele>
        <time>1970-01-01T01:09:01.000Z</time>
      </trkpt>
      <trkpt lat="40.33204" lon="-3.391024">
        <ele>722</ele>
        <time>1970-01-01T01:09:02.000Z</time>
      </trkpt>
      <trkpt lat="40.33204" lon="-3.390989">
        <ele>722</ele>
        <time>1970-01-01T01:09:03.000Z</time>
      </trkpt>
      <trkpt lat="40.332036" lon="-3.390953">
        <ele>722.2</ele>
        <time>1970-01-01T01:09:04.000Z</time>
      </trkpt>
      <trkpt lat="40.332027" lon="-3.390921">
        <ele>722.4</ele>
        <time>1970-01-01T01:09:05.000Z</time>
      </trkpt>
      <trkpt lat="40.332017" lon="-3.390889">
        <ele>722.6</ele>
        <time>1970-01-01T01:09:06.000Z</time>
      </trkpt>
      <trkpt lat="40.332005" lon="-3.390857">
        <ele>722.8</ele>
        <time>1970-01-01T01:09:07.000Z</time>
      </trkpt>
      <trkpt lat="40.331995" lon="-3.390823">
        <ele>722.8</ele>
        <time>1970-01-01T01:09:08.000Z</time>
      </trkpt>
      <trkpt lat="40.331989" lon="-3.390784">
        <ele>723.2</ele>
        <time>1970-01-01T01:09:09.000Z</time>
      </trkpt>
      <trkpt lat="40.331979" lon="-3.390745">
        <ele>723.2</ele>
        <time>1970-01-01T01:09:10.000Z</time>
      </trkpt>
      <trkpt lat="40.33197" lon="-3.390709">
        <ele>723.2</ele>
        <time>1970-01-01T01:09:11.000Z</time>
      </trkpt>
      <trkpt lat="40.331957" lon="-3.390672">
        <ele>723.4</ele>
        <time>1970-01-01T01:09:12.000Z</time>
      </trkpt>
      <trkpt lat="40.331946" lon="-3.390639">
        <ele>723.4</ele>
        <time>1970-01-01T01:09:13.000Z</time>
      </trkpt>
      <trkpt lat="40.331934" lon="-3.390606">
        <ele>723.6</ele>
        <time>1970-01-01T01:09:14.000Z</time>
      </trkpt>
      <trkpt lat="40.331926" lon="-3.390574">
        <ele>723.6</ele>
        <time>1970-01-01T01:09:15.000Z</time>
      </trkpt>
      <trkpt lat="40.331919" lon="-3.39054">
        <ele>723.6</ele>
        <time>1970-01-01T01:09:16.000Z</time>
      </trkpt>
      <trkpt lat="40.331914" lon="-3.390507">
        <ele>723.8</ele>
        <time>1970-01-01T01:09:17.000Z</time>
      </trkpt>
      <trkpt lat="40.331908" lon="-3.390476">
        <ele>723.8</ele>
        <time>1970-01-01T01:09:18.000Z</time>
      </trkpt>
      <trkpt lat="40.331906" lon="-3.390447">
        <ele>724</ele>
        <time>1970-01-01T01:09:19.000Z</time>
      </trkpt>
      <trkpt lat="40.331906" lon="-3.390416">
        <ele>724.2</ele>
        <time>1970-01-01T01:09:20.000Z</time>
      </trkpt>
      <trkpt lat="40.331903" lon="-3.390386">
        <ele>724.2</ele>
        <time>1970-01-01T01:09:21.000Z</time>
      </trkpt>
      <trkpt lat="40.331899" lon="-3.390354">
        <ele>724.2</ele>
        <time>1970-01-01T01:09:22.000Z</time>
      </trkpt>
      <trkpt lat="40.331896" lon="-3.39032">
        <ele>724.2</ele>
        <time>1970-01-01T01:09:23.000Z</time>
      </trkpt>
      <trkpt lat="40.331897" lon="-3.390288">
        <ele>724.4</ele>
        <time>1970-01-01T01:09:24.000Z</time>
      </trkpt>
      <trkpt lat="40.331898" lon="-3.390253">
        <ele>724.4</ele>
        <time>1970-01-01T01:09:25.000Z</time>
      </trkpt>
      <trkpt lat="40.331899" lon="-3.390218">
        <ele>724.6</ele>
        <time>1970-01-01T01:09:26.000Z</time>
      </trkpt>
      <trkpt lat="40.331902" lon="-3.390184">
        <ele>724.8</ele>
        <time>1970-01-01T01:09:27.000Z</time>
      </trkpt>
      <trkpt lat="40.331907" lon="-3.390147">
        <ele>724.8</ele>
        <time>1970-01-01T01:09:28.000Z</time>
      </trkpt>
      <trkpt lat="40.331913" lon="-3.390109">
        <ele>725.2</ele>
        <time>1970-01-01T01:09:29.000Z</time>
      </trkpt>
      <trkpt lat="40.331919" lon="-3.390078">
        <ele>725.4</ele>
        <time>1970-01-01T01:09:30.000Z</time>
      </trkpt>
      <trkpt lat="40.331926" lon="-3.390044">
        <ele>725.6</ele>
        <time>1970-01-01T01:09:31.000Z</time>
      </trkpt>
      <trkpt lat="40.331936" lon="-3.390008">
        <ele>725.8</ele>
        <time>1970-01-01T01:09:32.000Z</time>
      </trkpt>
      <trkpt lat="40.331946" lon="-3.389974">
        <ele>726</ele>
        <time>1970-01-01T01:09:33.000Z</time>
      </trkpt>
      <trkpt lat="40.331958" lon="-3.38994">
        <ele>726</ele>
        <time>1970-01-01T01:09:34.000Z</time>
      </trkpt>
      <trkpt lat="40.331971" lon="-3.389908">
        <ele>726.2</ele>
        <time>1970-01-01T01:09:35.000Z</time>
      </trkpt>
      <trkpt lat="40.331984" lon="-3.389878">
        <ele>726.4</ele>
        <time>1970-01-01T01:09:36.000Z</time>
      </trkpt>
      <trkpt lat="40.331996" lon="-3.389848">
        <ele>726.6</ele>
        <time>1970-01-01T01:09:37.000Z</time>
      </trkpt>
      <trkpt lat="40.332008" lon="-3.389816">
        <ele>726.6</ele>
        <time>1970-01-01T01:09:38.000Z</time>
      </trkpt>
      <trkpt lat="40.332019" lon="-3.389785">
        <ele>726.8</ele>
        <time>1970-01-01T01:09:39.000Z</time>
      </trkpt>
      <trkpt lat="40.332028" lon="-3.389752">
        <ele>727</ele>
        <time>1970-01-01T01:09:40.000Z</time>
      </trkpt>
      <trkpt lat="40.33204" lon="-3.389717">
        <ele>727.2</ele>
        <time>1970-01-01T01:09:41.000Z</time>
      </trkpt>
      <trkpt lat="40.332055" lon="-3.389689">
        <ele>727.2</ele>
        <time>1970-01-01T01:09:42.000Z</time>
      </trkpt>
      <trkpt lat="40.332069" lon="-3.38966">
        <ele>727.4</ele>
        <time>1970-01-01T01:09:44.000Z</time>
      </trkpt>
      <trkpt lat="40.332085" lon="-3.389632">
        <ele>727.6</ele>
        <time>1970-01-01T01:09:45.000Z</time>
      </trkpt>
      <trkpt lat="40.332101" lon="-3.389607">
        <ele>727.8</ele>
        <time>1970-01-01T01:09:46.000Z</time>
      </trkpt>
      <trkpt lat="40.332117" lon="-3.389581">
        <ele>727.8</ele>
        <time>1970-01-01T01:09:47.000Z</time>
      </trkpt>
      <trkpt lat="40.332135" lon="-3.389555">
        <ele>728</ele>
        <time>1970-01-01T01:09:48.000Z</time>
      </trkpt>
      <trkpt lat="40.332152" lon="-3.389532">
        <ele>728.2</ele>
        <time>1970-01-01T01:09:49.000Z</time>
      </trkpt>
      <trkpt lat="40.332167" lon="-3.38951">
        <ele>728.6</ele>
        <time>1970-01-01T01:09:50.000Z</time>
      </trkpt>
      <trkpt lat="40.332184" lon="-3.389487">
        <ele>728.8</ele>
        <time>1970-01-01T01:09:51.000Z</time>
      </trkpt>
      <trkpt lat="40.332203" lon="-3.389467">
        <ele>729.2</ele>
        <time>1970-01-01T01:09:52.000Z</time>
      </trkpt>
      <trkpt lat="40.332222" lon="-3.38945">
        <ele>729.4</ele>
        <time>1970-01-01T01:09:53.000Z</time>
      </trkpt>
      <trkpt lat="40.332241" lon="-3.389434">
        <ele>729.6</ele>
        <time>1970-01-01T01:09:54.000Z</time>
      </trkpt>
      <trkpt lat="40.332258" lon="-3.38942">
        <ele>729.8</ele>
        <time>1970-01-01T01:09:55.000Z</time>
      </trkpt>
      <trkpt lat="40.332275" lon="-3.389408">
        <ele>729.8</ele>
        <time>1970-01-01T01:09:56.000Z</time>
      </trkpt>
      <trkpt lat="40.332293" lon="-3.389397">
        <ele>730</ele>
        <time>1970-01-01T01:09:57.000Z</time>
      </trkpt>
      <trkpt lat="40.332312" lon="-3.389387">
        <ele>730.2</ele>
        <time>1970-01-01T01:09:58.000Z</time>
      </trkpt>
      <trkpt lat="40.332331" lon="-3.389374">
        <ele>730.4</ele>
        <time>1970-01-01T01:09:59.000Z</time>
      </trkpt>
      <trkpt lat="40.332349" lon="-3.38936">
        <ele>730.6</ele>
        <time>1970-01-01T01:10:00.000Z</time>
      </trkpt>
      <trkpt lat="40.332367" lon="-3.389345">
        <ele>730.6</ele>
        <time>1970-01-01T01:10:01.000Z</time>
      </trkpt>
      <trkpt lat="40.332387" lon="-3.38933">
        <ele>730.8</ele>
        <time>1970-01-01T01:10:02.000Z</time>
      </trkpt>
      <trkpt lat="40.332406" lon="-3.389316">
        <ele>731</ele>
        <time>1970-01-01T01:10:03.000Z</time>
      </trkpt>
      <trkpt lat="40.332428" lon="-3.389301">
        <ele>731</ele>
        <time>1970-01-01T01:10:04.000Z</time>
      </trkpt>
      <trkpt lat="40.332446" lon="-3.38929">
        <ele>731.2</ele>
        <time>1970-01-01T01:10:05.000Z</time>
      </trkpt>
      <trkpt lat="40.332464" lon="-3.389278">
        <ele>731.4</ele>
        <time>1970-01-01T01:10:06.000Z</time>
      </trkpt>
      <trkpt lat="40.332483" lon="-3.389263">
        <ele>731.4</ele>
        <time>1970-01-01T01:10:07.000Z</time>
      </trkpt>
      <trkpt lat="40.332503" lon="-3.389247">
        <ele>731.6</ele>
        <time>1970-01-01T01:10:08.000Z</time>
      </trkpt>
      <trkpt lat="40.332523" lon="-3.389231">
        <ele>731.6</ele>
        <time>1970-01-01T01:10:09.000Z</time>
      </trkpt>
      <trkpt lat="40.332542" lon="-3.389213">
        <ele>731.6</ele>
        <time>1970-01-01T01:10:10.000Z</time>
      </trkpt>
      <trkpt lat="40.332561" lon="-3.389192">
        <ele>731.8</ele>
        <time>1970-01-01T01:10:11.000Z</time>
      </trkpt>
      <trkpt lat="40.33258" lon="-3.389172">
        <ele>731.8</ele>
        <time>1970-01-01T01:10:12.000Z</time>
      </trkpt>
      <trkpt lat="40.332598" lon="-3.389152">
        <ele>731.8</ele>
        <time>1970-01-01T01:10:13.000Z</time>
      </trkpt>
      <trkpt lat="40.332613" lon="-3.389135">
        <ele>732</ele>
        <time>1970-01-01T01:10:14.000Z</time>
      </trkpt>
      <trkpt lat="40.332632" lon="-3.389113">
        <ele>732</ele>
        <time>1970-01-01T01:10:15.000Z</time>
      </trkpt>
      <trkpt lat="40.332656" lon="-3.389088">
        <ele>732</ele>
        <time>1970-01-01T01:10:16.000Z</time>
      </trkpt>
      <trkpt lat="40.332674" lon="-3.389067">
        <ele>732.2</ele>
        <time>1970-01-01T01:10:17.000Z</time>
      </trkpt>
      <trkpt lat="40.332693" lon="-3.389048">
        <ele>732.2</ele>
        <time>1970-01-01T01:10:18.000Z</time>
      </trkpt>
      <trkpt lat="40.332712" lon="-3.389026">
        <ele>732.4</ele>
        <time>1970-01-01T01:10:19.000Z</time>
      </trkpt>
      <trkpt lat="40.332732" lon="-3.389003">
        <ele>732.4</ele>
        <time>1970-01-01T01:10:20.000Z</time>
      </trkpt>
      <trkpt lat="40.332753" lon="-3.38898">
        <ele>732.6</ele>
        <time>1970-01-01T01:10:21.000Z</time>
      </trkpt>
      <trkpt lat="40.332773" lon="-3.388957">
        <ele>732.6</ele>
        <time>1970-01-01T01:10:22.000Z</time>
      </trkpt>
      <trkpt lat="40.332792" lon="-3.388938">
        <ele>732.8</ele>
        <time>1970-01-01T01:10:23.000Z</time>
      </trkpt>
      <trkpt lat="40.332812" lon="-3.38892">
        <ele>732.8</ele>
        <time>1970-01-01T01:10:24.000Z</time>
      </trkpt>
      <trkpt lat="40.332831" lon="-3.388899">
        <ele>733</ele>
        <time>1970-01-01T01:10:25.000Z</time>
      </trkpt>
      <trkpt lat="40.332849" lon="-3.388878">
        <ele>733</ele>
        <time>1970-01-01T01:10:26.000Z</time>
      </trkpt>
      <trkpt lat="40.332867" lon="-3.388855">
        <ele>733.2</ele>
        <time>1970-01-01T01:10:27.000Z</time>
      </trkpt>
      <trkpt lat="40.332884" lon="-3.388831">
        <ele>733.4</ele>
        <time>1970-01-01T01:10:28.000Z</time>
      </trkpt>
      <trkpt lat="40.332905" lon="-3.388807">
        <ele>733.4</ele>
        <time>1970-01-01T01:10:29.000Z</time>
      </trkpt>
      <trkpt lat="40.332923" lon="-3.388786">
        <ele>733.4</ele>
        <time>1970-01-01T01:10:30.000Z</time>
      </trkpt>
      <trkpt lat="40.332944" lon="-3.388765">
        <ele>733.8</ele>
        <time>1970-01-01T01:10:31.000Z</time>
      </trkpt>
      <trkpt lat="40.332962" lon="-3.388744">
        <ele>734</ele>
        <time>1970-01-01T01:10:32.000Z</time>
      </trkpt>
      <trkpt lat="40.332979" lon="-3.388722">
        <ele>734</ele>
        <time>1970-01-01T01:10:33.000Z</time>
      </trkpt>
      <trkpt lat="40.332998" lon="-3.388701">
        <ele>734.2</ele>
        <time>1970-01-01T01:10:34.000Z</time>
      </trkpt>
      <trkpt lat="40.333019" lon="-3.388682">
        <ele>734.4</ele>
        <time>1970-01-01T01:10:35.000Z</time>
      </trkpt>
      <trkpt lat="40.333039" lon="-3.388662">
        <ele>734.6</ele>
        <time>1970-01-01T01:10:36.000Z</time>
      </trkpt>
      <trkpt lat="40.333058" lon="-3.388643">
        <ele>734.6</ele>
        <time>1970-01-01T01:10:37.000Z</time>
      </trkpt>
      <trkpt lat="40.333077" lon="-3.388625">
        <ele>734.8</ele>
        <time>1970-01-01T01:10:38.000Z</time>
      </trkpt>
      <trkpt lat="40.333098" lon="-3.388607">
        <ele>735</ele>
        <time>1970-01-01T01:10:39.000Z</time>
      </trkpt>
      <trkpt lat="40.333118" lon="-3.388587">
        <ele>735.2</ele>
        <time>1970-01-01T01:10:40.000Z</time>
      </trkpt>
      <trkpt lat="40.333138" lon="-3.388569">
        <ele>735.4</ele>
        <time>1970-01-01T01:10:41.000Z</time>
      </trkpt>
      <trkpt lat="40.333158" lon="-3.388551">
        <ele>735.4</ele>
        <time>1970-01-01T01:10:42.000Z</time>
      </trkpt>
      <trkpt lat="40.333177" lon="-3.388536">
        <ele>735.8</ele>
        <time>1970-01-01T01:10:43.000Z</time>
      </trkpt>
      <trkpt lat="40.333194" lon="-3.388521">
        <ele>735.8</ele>
        <time>1970-01-01T01:10:44.000Z</time>
      </trkpt>
      <trkpt lat="40.333211" lon="-3.388507">
        <ele>736.2</ele>
        <time>1970-01-01T01:10:45.000Z</time>
      </trkpt>
      <trkpt lat="40.333229" lon="-3.388491">
        <ele>736.2</ele>
        <time>1970-01-01T01:10:46.000Z</time>
      </trkpt>
      <trkpt lat="40.333248" lon="-3.388477">
        <ele>736.6</ele>
        <time>1970-01-01T01:10:47.000Z</time>
      </trkpt>
      <trkpt lat="40.333266" lon="-3.388461">
        <ele>736.8</ele>
        <time>1970-01-01T01:10:48.000Z</time>
      </trkpt>
      <trkpt lat="40.333286" lon="-3.388445">
        <ele>737</ele>
        <time>1970-01-01T01:10:49.000Z</time>
      </trkpt>
      <trkpt lat="40.333306" lon="-3.38843">
        <ele>737</ele>
        <time>1970-01-01T01:10:50.000Z</time>
      </trkpt>
      <trkpt lat="40.333326" lon="-3.388415">
        <ele>737</ele>
        <time>1970-01-01T01:10:51.000Z</time>
      </trkpt>
      <trkpt lat="40.333346" lon="-3.388401">
        <ele>737.6</ele>
        <time>1970-01-01T01:10:52.000Z</time>
      </trkpt>
      <trkpt lat="40.333367" lon="-3.388386">
        <ele>737.6</ele>
        <time>1970-01-01T01:10:53.000Z</time>
      </trkpt>
      <trkpt lat="40.333387" lon="-3.38837">
        <ele>737.8</ele>
        <time>1970-01-01T01:10:54.000Z</time>
      </trkpt>
      <trkpt lat="40.333406" lon="-3.388357">
        <ele>737.8</ele>
        <time>1970-01-01T01:10:55.000Z</time>
      </trkpt>
      <trkpt lat="40.333428" lon="-3.388345">
        <ele>738</ele>
        <time>1970-01-01T01:10:56.000Z</time>
      </trkpt>
      <trkpt lat="40.333448" lon="-3.388333">
        <ele>738</ele>
        <time>1970-01-01T01:10:57.000Z</time>
      </trkpt>
      <trkpt lat="40.333468" lon="-3.388319">
        <ele>738.4</ele>
        <time>1970-01-01T01:10:58.000Z</time>
      </trkpt>
      <trkpt lat="40.333491" lon="-3.3883">
        <ele>738.4</ele>
        <time>1970-01-01T01:10:59.000Z</time>
      </trkpt>
      <trkpt lat="40.333511" lon="-3.388287">
        <ele>738.6</ele>
        <time>1970-01-01T01:11:00.000Z</time>
      </trkpt>
      <trkpt lat="40.333532" lon="-3.388275">
        <ele>738.6</ele>
        <time>1970-01-01T01:11:01.000Z</time>
      </trkpt>
      <trkpt lat="40.333551" lon="-3.388259">
        <ele>738.8</ele>
        <time>1970-01-01T01:11:02.000Z</time>
      </trkpt>
      <trkpt lat="40.333572" lon="-3.388244">
        <ele>739.2</ele>
        <time>1970-01-01T01:11:03.000Z</time>
      </trkpt>
      <trkpt lat="40.333591" lon="-3.388228">
        <ele>739.2</ele>
        <time>1970-01-01T01:11:04.000Z</time>
      </trkpt>
      <trkpt lat="40.333612" lon="-3.38821">
        <ele>739.4</ele>
        <time>1970-01-01T01:11:05.000Z</time>
      </trkpt>
      <trkpt lat="40.333634" lon="-3.388193">
        <ele>739.4</ele>
        <time>1970-01-01T01:11:06.000Z</time>
      </trkpt>
      <trkpt lat="40.333652" lon="-3.388178">
        <ele>739.8</ele>
        <time>1970-01-01T01:11:07.000Z</time>
      </trkpt>
      <trkpt lat="40.333674" lon="-3.388161">
        <ele>739.8</ele>
        <time>1970-01-01T01:11:08.000Z</time>
      </trkpt>
      <trkpt lat="40.3337" lon="-3.388142">
        <ele>740</ele>
        <time>1970-01-01T01:11:09.000Z</time>
      </trkpt>
      <trkpt lat="40.333722" lon="-3.388127">
        <ele>740.2</ele>
        <time>1970-01-01T01:11:10.000Z</time>
      </trkpt>
      <trkpt lat="40.333743" lon="-3.388111">
        <ele>740.6</ele>
        <time>1970-01-01T01:11:11.000Z</time>
      </trkpt>
      <trkpt lat="40.333764" lon="-3.388095">
        <ele>740.8</ele>
        <time>1970-01-01T01:11:12.000Z</time>
      </trkpt>
      <trkpt lat="40.333785" lon="-3.388078">
        <ele>741</ele>
        <time>1970-01-01T01:11:13.000Z</time>
      </trkpt>
      <trkpt lat="40.333806" lon="-3.388063">
        <ele>741.2</ele>
        <time>1970-01-01T01:11:14.000Z</time>
      </trkpt>
      <trkpt lat="40.333825" lon="-3.388046">
        <ele>741.4</ele>
        <time>1970-01-01T01:11:15.000Z</time>
      </trkpt>
      <trkpt lat="40.333844" lon="-3.388032">
        <ele>741.4</ele>
        <time>1970-01-01T01:11:16.000Z</time>
      </trkpt>
      <trkpt lat="40.333864" lon="-3.38802">
        <ele>741.8</ele>
        <time>1970-01-01T01:11:17.000Z</time>
      </trkpt>
      <trkpt lat="40.333885" lon="-3.388001">
        <ele>741.8</ele>
        <time>1970-01-01T01:11:18.000Z</time>
      </trkpt>
      <trkpt lat="40.333905" lon="-3.387981">
        <ele>742</ele>
        <time>1970-01-01T01:11:19.000Z</time>
      </trkpt>
      <trkpt lat="40.333925" lon="-3.387966">
        <ele>742.2</ele>
        <time>1970-01-01T01:11:20.000Z</time>
      </trkpt>
      <trkpt lat="40.333947" lon="-3.387954">
        <ele>742.4</ele>
        <time>1970-01-01T01:11:21.000Z</time>
      </trkpt>
      <trkpt lat="40.333967" lon="-3.387939">
        <ele>742.4</ele>
        <time>1970-01-01T01:11:22.000Z</time>
      </trkpt>
      <trkpt lat="40.333988" lon="-3.387924">
        <ele>742.8</ele>
        <time>1970-01-01T01:11:23.000Z</time>
      </trkpt>
      <trkpt lat="40.334009" lon="-3.387913">
        <ele>743.2</ele>
        <time>1970-01-01T01:11:24.000Z</time>
      </trkpt>
      <trkpt lat="40.33403" lon="-3.387898">
        <ele>743.2</ele>
        <time>1970-01-01T01:11:25.000Z</time>
      </trkpt>
      <trkpt lat="40.334051" lon="-3.387879">
        <ele>743.6</ele>
        <time>1970-01-01T01:11:26.000Z</time>
      </trkpt>
      <trkpt lat="40.33407" lon="-3.387861">
        <ele>743.6</ele>
        <time>1970-01-01T01:11:27.000Z</time>
      </trkpt>
      <trkpt lat="40.334089" lon="-3.387844">
        <ele>743.8</ele>
        <time>1970-01-01T01:11:28.000Z</time>
      </trkpt>
      <trkpt lat="40.334109" lon="-3.387828">
        <ele>744</ele>
        <time>1970-01-01T01:11:29.000Z</time>
      </trkpt>
      <trkpt lat="40.334128" lon="-3.387811">
        <ele>744.2</ele>
        <time>1970-01-01T01:11:30.000Z</time>
      </trkpt>
      <trkpt lat="40.334145" lon="-3.38779">
        <ele>744.2</ele>
        <time>1970-01-01T01:11:31.000Z</time>
      </trkpt>
      <trkpt lat="40.33416" lon="-3.387769">
        <ele>744.6</ele>
        <time>1970-01-01T01:11:32.000Z</time>
      </trkpt>
      <trkpt lat="40.334176" lon="-3.38775">
        <ele>744.8</ele>
        <time>1970-01-01T01:11:33.000Z</time>
      </trkpt>
      <trkpt lat="40.334193" lon="-3.387729">
        <ele>744.8</ele>
        <time>1970-01-01T01:11:34.000Z</time>
      </trkpt>
      <trkpt lat="40.334211" lon="-3.387708">
        <ele>745</ele>
        <time>1970-01-01T01:11:35.000Z</time>
      </trkpt>
      <trkpt lat="40.334228" lon="-3.387689">
        <ele>745</ele>
        <time>1970-01-01T01:11:36.000Z</time>
      </trkpt>
      <trkpt lat="40.334244" lon="-3.387671">
        <ele>745.2</ele>
        <time>1970-01-01T01:11:37.000Z</time>
      </trkpt>
      <trkpt lat="40.33426" lon="-3.38765">
        <ele>745.4</ele>
        <time>1970-01-01T01:11:38.000Z</time>
      </trkpt>
      <trkpt lat="40.334277" lon="-3.387629">
        <ele>745.6</ele>
        <time>1970-01-01T01:11:39.000Z</time>
      </trkpt>
      <trkpt lat="40.334295" lon="-3.387609">
        <ele>745.8</ele>
        <time>1970-01-01T01:11:40.000Z</time>
      </trkpt>
      <trkpt lat="40.334308" lon="-3.387596">
        <ele>746.2</ele>
        <time>1970-01-01T01:11:41.000Z</time>
      </trkpt>
      <trkpt lat="40.334325" lon="-3.387573">
        <ele>746.4</ele>
        <time>1970-01-01T01:11:42.000Z</time>
      </trkpt>
      <trkpt lat="40.334341" lon="-3.38755">
        <ele>746.6</ele>
        <time>1970-01-01T01:11:43.000Z</time>
      </trkpt>
      <trkpt lat="40.334357" lon="-3.387529">
        <ele>746.8</ele>
        <time>1970-01-01T01:11:44.000Z</time>
      </trkpt>
      <trkpt lat="40.334372" lon="-3.387508">
        <ele>747</ele>
        <time>1970-01-01T01:11:45.000Z</time>
      </trkpt>
      <trkpt lat="40.334387" lon="-3.38749">
        <ele>747.2</ele>
        <time>1970-01-01T01:11:46.000Z</time>
      </trkpt>
      <trkpt lat="40.334402" lon="-3.387473">
        <ele>747.4</ele>
        <time>1970-01-01T01:11:47.000Z</time>
      </trkpt>
      <trkpt lat="40.334419" lon="-3.387453">
        <ele>747.6</ele>
        <time>1970-01-01T01:11:48.000Z</time>
      </trkpt>
      <trkpt lat="40.334433" lon="-3.387431">
        <ele>747.8</ele>
        <time>1970-01-01T01:11:49.000Z</time>
      </trkpt>
      <trkpt lat="40.33445" lon="-3.387411">
        <ele>748</ele>
        <time>1970-01-01T01:11:50.000Z</time>
      </trkpt>
      <trkpt lat="40.334467" lon="-3.387392">
        <ele>748.2</ele>
        <time>1970-01-01T01:11:51.000Z</time>
      </trkpt>
      <trkpt lat="40.334486" lon="-3.387373">
        <ele>748.4</ele>
        <time>1970-01-01T01:11:52.000Z</time>
      </trkpt>
      <trkpt lat="40.334504" lon="-3.387353">
        <ele>748.8</ele>
        <time>1970-01-01T01:11:53.000Z</time>
      </trkpt>
      <trkpt lat="40.334522" lon="-3.387335">
        <ele>748.8</ele>
        <time>1970-01-01T01:11:54.000Z</time>
      </trkpt>
      <trkpt lat="40.334538" lon="-3.387317">
        <ele>749</ele>
        <time>1970-01-01T01:11:55.000Z</time>
      </trkpt>
      <trkpt lat="40.334556" lon="-3.387299">
        <ele>749</ele>
        <time>1970-01-01T01:11:56.000Z</time>
      </trkpt>
      <trkpt lat="40.334572" lon="-3.38728">
        <ele>749.2</ele>
        <time>1970-01-01T01:11:57.000Z</time>
      </trkpt>
      <trkpt lat="40.33459" lon="-3.387264">
        <ele>749.4</ele>
        <time>1970-01-01T01:11:58.000Z</time>
      </trkpt>
      <trkpt lat="40.334609" lon="-3.387245">
        <ele>749.6</ele>
        <time>1970-01-01T01:11:59.000Z</time>
      </trkpt>
      <trkpt lat="40.334629" lon="-3.387224">
        <ele>749.8</ele>
        <time>1970-01-01T01:12:00.000Z</time>
      </trkpt>
      <trkpt lat="40.334644" lon="-3.387203">
        <ele>749.8</ele>
        <time>1970-01-01T01:12:01.000Z</time>
      </trkpt>
      <trkpt lat="40.334656" lon="-3.387187">
        <ele>749.8</ele>
        <time>1970-01-01T01:12:02.000Z</time>
      </trkpt>
      <trkpt lat="40.334674" lon="-3.387164">
        <ele>749.8</ele>
        <time>1970-01-01T01:12:03.000Z</time>
      </trkpt>
      <trkpt lat="40.33469" lon="-3.387145">
        <ele>750</ele>
        <time>1970-01-01T01:12:04.000Z</time>
      </trkpt>
      <trkpt lat="40.334709" lon="-3.387126">
        <ele>750</ele>
        <time>1970-01-01T01:12:05.000Z</time>
      </trkpt>
      <trkpt lat="40.334725" lon="-3.387109">
        <ele>750</ele>
        <time>1970-01-01T01:12:06.000Z</time>
      </trkpt>
      <trkpt lat="40.334749" lon="-3.387085">
        <ele>750</ele>
        <time>1970-01-01T01:12:07.000Z</time>
      </trkpt>
      <trkpt lat="40.334769" lon="-3.387069">
        <ele>750</ele>
        <time>1970-01-01T01:12:08.000Z</time>
      </trkpt>
      <trkpt lat="40.33479" lon="-3.387049">
        <ele>750</ele>
        <time>1970-01-01T01:12:09.000Z</time>
      </trkpt>
      <trkpt lat="40.334807" lon="-3.387026">
        <ele>750</ele>
        <time>1970-01-01T01:12:10.000Z</time>
      </trkpt>
      <trkpt lat="40.334823" lon="-3.387006">
        <ele>750</ele>
        <time>1970-01-01T01:12:11.000Z</time>
      </trkpt>
      <trkpt lat="40.334834" lon="-3.38699">
        <ele>750</ele>
        <time>1970-01-01T01:12:12.000Z</time>
      </trkpt>
      <trkpt lat="40.334856" lon="-3.386966">
        <ele>750</ele>
        <time>1970-01-01T01:12:13.000Z</time>
      </trkpt>
      <trkpt lat="40.334876" lon="-3.386945">
        <ele>749.8</ele>
        <time>1970-01-01T01:12:14.000Z</time>
      </trkpt>
      <trkpt lat="40.334899" lon="-3.386922">
        <ele>749.6</ele>
        <time>1970-01-01T01:12:15.000Z</time>
      </trkpt>
      <trkpt lat="40.334921" lon="-3.386895">
        <ele>749.6</ele>
        <time>1970-01-01T01:12:16.000Z</time>
      </trkpt>
      <trkpt lat="40.334942" lon="-3.386868">
        <ele>749.6</ele>
        <time>1970-01-01T01:12:17.000Z</time>
      </trkpt>
      <trkpt lat="40.33496" lon="-3.38684">
        <ele>749.4</ele>
        <time>1970-01-01T01:12:18.000Z</time>
      </trkpt>
      <trkpt lat="40.334975" lon="-3.386811">
        <ele>749.4</ele>
        <time>1970-01-01T01:12:19.000Z</time>
      </trkpt>
      <trkpt lat="40.334992" lon="-3.386775">
        <ele>749.4</ele>
        <time>1970-01-01T01:12:20.000Z</time>
      </trkpt>
      <trkpt lat="40.335004" lon="-3.386748">
        <ele>749.4</ele>
        <time>1970-01-01T01:12:21.000Z</time>
      </trkpt>
      <trkpt lat="40.335021" lon="-3.386714">
        <ele>749.4</ele>
        <time>1970-01-01T01:12:22.000Z</time>
      </trkpt>
      <trkpt lat="40.335042" lon="-3.386675">
        <ele>749.4</ele>
        <time>1970-01-01T01:12:23.000Z</time>
      </trkpt>
      <trkpt lat="40.335063" lon="-3.386643">
        <ele>749.4</ele>
        <time>1970-01-01T01:12:24.000Z</time>
      </trkpt>
      <trkpt lat="40.335086" lon="-3.386612">
        <ele>749.8</ele>
        <time>1970-01-01T01:12:25.000Z</time>
      </trkpt>
      <trkpt lat="40.335109" lon="-3.386581">
        <ele>749.8</ele>
        <time>1970-01-01T01:12:26.000Z</time>
      </trkpt>
      <trkpt lat="40.335126" lon="-3.38656">
        <ele>749.8</ele>
        <time>1970-01-01T01:12:27.000Z</time>
      </trkpt>
      <trkpt lat="40.335153" lon="-3.386525">
        <ele>750</ele>
        <time>1970-01-01T01:12:28.000Z</time>
      </trkpt>
      <trkpt lat="40.335177" lon="-3.386493">
        <ele>749.8</ele>
        <time>1970-01-01T01:12:29.000Z</time>
      </trkpt>
      <trkpt lat="40.335201" lon="-3.386457">
        <ele>750.2</ele>
        <time>1970-01-01T01:12:30.000Z</time>
      </trkpt>
      <trkpt lat="40.33522" lon="-3.386421">
        <ele>750.4</ele>
        <time>1970-01-01T01:12:31.000Z</time>
      </trkpt>
      <trkpt lat="40.335237" lon="-3.386382">
        <ele>750.2</ele>
        <time>1970-01-01T01:12:32.000Z</time>
      </trkpt>
      <trkpt lat="40.335255" lon="-3.38634">
        <ele>750.4</ele>
        <time>1970-01-01T01:12:33.000Z</time>
      </trkpt>
      <trkpt lat="40.335272" lon="-3.386297">
        <ele>750.6</ele>
        <time>1970-01-01T01:12:34.000Z</time>
      </trkpt>
      <trkpt lat="40.335294" lon="-3.386256">
        <ele>750.6</ele>
        <time>1970-01-01T01:12:35.000Z</time>
      </trkpt>
      <trkpt lat="40.335316" lon="-3.386221">
        <ele>750.8</ele>
        <time>1970-01-01T01:12:36.000Z</time>
      </trkpt>
      <trkpt lat="40.33534" lon="-3.386188">
        <ele>750.8</ele>
        <time>1970-01-01T01:12:37.000Z</time>
      </trkpt>
      <trkpt lat="40.335365" lon="-3.386155">
        <ele>751</ele>
        <time>1970-01-01T01:12:38.000Z</time>
      </trkpt>
      <trkpt lat="40.33539" lon="-3.386123">
        <ele>751</ele>
        <time>1970-01-01T01:12:39.000Z</time>
      </trkpt>
      <trkpt lat="40.335414" lon="-3.386088">
        <ele>751.2</ele>
        <time>1970-01-01T01:12:40.000Z</time>
      </trkpt>
      <trkpt lat="40.335435" lon="-3.386055">
        <ele>751.4</ele>
        <time>1970-01-01T01:12:41.000Z</time>
      </trkpt>
      <trkpt lat="40.335459" lon="-3.386024">
        <ele>751.6</ele>
        <time>1970-01-01T01:12:42.000Z</time>
      </trkpt>
      <trkpt lat="40.335482" lon="-3.385992">
        <ele>751.8</ele>
        <time>1970-01-01T01:12:43.000Z</time>
      </trkpt>
      <trkpt lat="40.335505" lon="-3.385958">
        <ele>751.8</ele>
        <time>1970-01-01T01:12:44.000Z</time>
      </trkpt>
      <trkpt lat="40.335529" lon="-3.385924">
        <ele>752</ele>
        <time>1970-01-01T01:12:45.000Z</time>
      </trkpt>
      <trkpt lat="40.335553" lon="-3.385892">
        <ele>752</ele>
        <time>1970-01-01T01:12:46.000Z</time>
      </trkpt>
      <trkpt lat="40.335573" lon="-3.385867">
        <ele>752.2</ele>
        <time>1970-01-01T01:12:47.000Z</time>
      </trkpt>
      <trkpt lat="40.335602" lon="-3.385832">
        <ele>752.4</ele>
        <time>1970-01-01T01:12:48.000Z</time>
      </trkpt>
      <trkpt lat="40.335625" lon="-3.385799">
        <ele>752.6</ele>
        <time>1970-01-01T01:12:49.000Z</time>
      </trkpt>
      <trkpt lat="40.335651" lon="-3.385764">
        <ele>752.6</ele>
        <time>1970-01-01T01:12:50.000Z</time>
      </trkpt>
      <trkpt lat="40.335676" lon="-3.385728">
        <ele>752.6</ele>
        <time>1970-01-01T01:12:51.000Z</time>
      </trkpt>
      <trkpt lat="40.335701" lon="-3.385696">
        <ele>752.6</ele>
        <time>1970-01-01T01:12:52.000Z</time>
      </trkpt>
      <trkpt lat="40.335726" lon="-3.385662">
        <ele>752.6</ele>
        <time>1970-01-01T01:12:53.000Z</time>
      </trkpt>
      <trkpt lat="40.335751" lon="-3.385627">
        <ele>752.6</ele>
        <time>1970-01-01T01:12:54.000Z</time>
      </trkpt>
      <trkpt lat="40.335778" lon="-3.38559">
        <ele>752.6</ele>
        <time>1970-01-01T01:12:55.000Z</time>
      </trkpt>
      <trkpt lat="40.335806" lon="-3.385552">
        <ele>752.6</ele>
        <time>1970-01-01T01:12:56.000Z</time>
      </trkpt>
      <trkpt lat="40.335835" lon="-3.385513">
        <ele>752.6</ele>
        <time>1970-01-01T01:12:57.000Z</time>
      </trkpt>
      <trkpt lat="40.335863" lon="-3.385474">
        <ele>752.6</ele>
        <time>1970-01-01T01:12:58.000Z</time>
      </trkpt>
      <trkpt lat="40.33589" lon="-3.385435">
        <ele>752.6</ele>
        <time>1970-01-01T01:12:59.000Z</time>
      </trkpt>
      <trkpt lat="40.335919" lon="-3.385397">
        <ele>752.4</ele>
        <time>1970-01-01T01:13:00.000Z</time>
      </trkpt>
      <trkpt lat="40.33595" lon="-3.38536">
        <ele>752.4</ele>
        <time>1970-01-01T01:13:01.000Z</time>
      </trkpt>
      <trkpt lat="40.335976" lon="-3.385332">
        <ele>752.4</ele>
        <time>1970-01-01T01:13:02.000Z</time>
      </trkpt>
      <trkpt lat="40.336017" lon="-3.385291">
        <ele>752.4</ele>
        <time>1970-01-01T01:13:03.000Z</time>
      </trkpt>
      <trkpt lat="40.336053" lon="-3.385259">
        <ele>752.4</ele>
        <time>1970-01-01T01:13:04.000Z</time>
      </trkpt>
      <trkpt lat="40.336091" lon="-3.385228">
        <ele>752.4</ele>
        <time>1970-01-01T01:13:05.000Z</time>
      </trkpt>
      <trkpt lat="40.336125" lon="-3.385203">
        <ele>752.2</ele>
        <time>1970-01-01T01:13:06.000Z</time>
      </trkpt>
      <trkpt lat="40.336175" lon="-3.385169">
        <ele>752.2</ele>
        <time>1970-01-01T01:13:07.000Z</time>
      </trkpt>
      <trkpt lat="40.336219" lon="-3.385144">
        <ele>752.2</ele>
        <time>1970-01-01T01:13:08.000Z</time>
      </trkpt>
      <trkpt lat="40.336264" lon="-3.385118">
        <ele>752.2</ele>
        <time>1970-01-01T01:13:09.000Z</time>
      </trkpt>
      <trkpt lat="40.336308" lon="-3.385099">
        <ele>752.2</ele>
        <time>1970-01-01T01:13:10.000Z</time>
      </trkpt>
      <trkpt lat="40.336353" lon="-3.385079">
        <ele>752.2</ele>
        <time>1970-01-01T01:13:11.000Z</time>
      </trkpt>
      <trkpt lat="40.336394" lon="-3.385066">
        <ele>752.2</ele>
        <time>1970-01-01T01:13:12.000Z</time>
      </trkpt>
      <trkpt lat="40.336436" lon="-3.385051">
        <ele>752.2</ele>
        <time>1970-01-01T01:13:13.000Z</time>
      </trkpt>
      <trkpt lat="40.336477" lon="-3.385035">
        <ele>752.2</ele>
        <time>1970-01-01T01:13:14.000Z</time>
      </trkpt>
      <trkpt lat="40.33652" lon="-3.385015">
        <ele>752.2</ele>
        <time>1970-01-01T01:13:15.000Z</time>
      </trkpt>
      <trkpt lat="40.336564" lon="-3.384995">
        <ele>752.2</ele>
        <time>1970-01-01T01:13:16.000Z</time>
      </trkpt>
      <trkpt lat="40.336608" lon="-3.384978">
        <ele>752.2</ele>
        <time>1970-01-01T01:13:17.000Z</time>
      </trkpt>
      <trkpt lat="40.336652" lon="-3.384961">
        <ele>752.2</ele>
        <time>1970-01-01T01:13:18.000Z</time>
      </trkpt>
      <trkpt lat="40.336695" lon="-3.384938">
        <ele>752.2</ele>
        <time>1970-01-01T01:13:19.000Z</time>
      </trkpt>
      <trkpt lat="40.336739" lon="-3.384916">
        <ele>752.2</ele>
        <time>1970-01-01T01:13:20.000Z</time>
      </trkpt>
      <trkpt lat="40.336781" lon="-3.384892">
        <ele>752</ele>
        <time>1970-01-01T01:13:21.000Z</time>
      </trkpt>
      <trkpt lat="40.336822" lon="-3.384867">
        <ele>752</ele>
        <time>1970-01-01T01:13:22.000Z</time>
      </trkpt>
      <trkpt lat="40.336864" lon="-3.38484">
        <ele>752</ele>
        <time>1970-01-01T01:13:23.000Z</time>
      </trkpt>
      <trkpt lat="40.336905" lon="-3.384816">
        <ele>752</ele>
        <time>1970-01-01T01:13:24.000Z</time>
      </trkpt>
      <trkpt lat="40.336938" lon="-3.384793">
        <ele>752</ele>
        <time>1970-01-01T01:13:25.000Z</time>
      </trkpt>
      <trkpt lat="40.336987" lon="-3.38475">
        <ele>752</ele>
        <time>1970-01-01T01:13:26.000Z</time>
      </trkpt>
      <trkpt lat="40.337025" lon="-3.38471">
        <ele>752</ele>
        <time>1970-01-01T01:13:27.000Z</time>
      </trkpt>
      <trkpt lat="40.337059" lon="-3.384668">
        <ele>752.2</ele>
        <time>1970-01-01T01:13:28.000Z</time>
      </trkpt>
      <trkpt lat="40.33709" lon="-3.384628">
        <ele>752.2</ele>
        <time>1970-01-01T01:13:29.000Z</time>
      </trkpt>
      <trkpt lat="40.337121" lon="-3.384588">
        <ele>752.2</ele>
        <time>1970-01-01T01:13:30.000Z</time>
      </trkpt>
      <trkpt lat="40.337146" lon="-3.384553">
        <ele>752.2</ele>
        <time>1970-01-01T01:13:31.000Z</time>
      </trkpt>
      <trkpt lat="40.33718" lon="-3.384497">
        <ele>752.2</ele>
        <time>1970-01-01T01:13:32.000Z</time>
      </trkpt>
      <trkpt lat="40.337207" lon="-3.384448">
        <ele>752.2</ele>
        <time>1970-01-01T01:13:33.000Z</time>
      </trkpt>
      <trkpt lat="40.337233" lon="-3.384401">
        <ele>752.2</ele>
        <time>1970-01-01T01:13:34.000Z</time>
      </trkpt>
      <trkpt lat="40.337259" lon="-3.384354">
        <ele>752.2</ele>
        <time>1970-01-01T01:13:35.000Z</time>
      </trkpt>
      <trkpt lat="40.337285" lon="-3.384304">
        <ele>752</ele>
        <time>1970-01-01T01:13:36.000Z</time>
      </trkpt>
      <trkpt lat="40.337312" lon="-3.384254">
        <ele>752.2</ele>
        <time>1970-01-01T01:13:37.000Z</time>
      </trkpt>
      <trkpt lat="40.337338" lon="-3.384203">
        <ele>752.2</ele>
        <time>1970-01-01T01:13:38.000Z</time>
      </trkpt>
      <trkpt lat="40.337363" lon="-3.384153">
        <ele>752</ele>
        <time>1970-01-01T01:13:39.000Z</time>
      </trkpt>
      <trkpt lat="40.337386" lon="-3.384099">
        <ele>752</ele>
        <time>1970-01-01T01:13:40.000Z</time>
      </trkpt>
      <trkpt lat="40.33741" lon="-3.384044">
        <ele>752</ele>
        <time>1970-01-01T01:13:41.000Z</time>
      </trkpt>
      <trkpt lat="40.337434" lon="-3.383992">
        <ele>752</ele>
        <time>1970-01-01T01:13:42.000Z</time>
      </trkpt>
      <trkpt lat="40.337459" lon="-3.383941">
        <ele>752</ele>
        <time>1970-01-01T01:13:43.000Z</time>
      </trkpt>
      <trkpt lat="40.337484" lon="-3.383891">
        <ele>752</ele>
        <time>1970-01-01T01:13:44.000Z</time>
      </trkpt>
      <trkpt lat="40.337508" lon="-3.38384">
        <ele>752</ele>
        <time>1970-01-01T01:13:45.000Z</time>
      </trkpt>
      <trkpt lat="40.337529" lon="-3.3838">
        <ele>752.2</ele>
        <time>1970-01-01T01:13:46.000Z</time>
      </trkpt>
      <trkpt lat="40.337558" lon="-3.38374">
        <ele>752.2</ele>
        <time>1970-01-01T01:13:47.000Z</time>
      </trkpt>
      <trkpt lat="40.337584" lon="-3.383692">
        <ele>752.2</ele>
        <time>1970-01-01T01:13:48.000Z</time>
      </trkpt>
      <trkpt lat="40.337613" lon="-3.383649">
        <ele>752.4</ele>
        <time>1970-01-01T01:13:49.000Z</time>
      </trkpt>
      <trkpt lat="40.337642" lon="-3.383606">
        <ele>752.4</ele>
        <time>1970-01-01T01:13:50.000Z</time>
      </trkpt>
      <trkpt lat="40.337665" lon="-3.383572">
        <ele>752.2</ele>
        <time>1970-01-01T01:13:51.000Z</time>
      </trkpt>
      <trkpt lat="40.337698" lon="-3.383526">
        <ele>752.2</ele>
        <time>1970-01-01T01:13:52.000Z</time>
      </trkpt>
      <trkpt lat="40.337725" lon="-3.383486">
        <ele>752.4</ele>
        <time>1970-01-01T01:13:53.000Z</time>
      </trkpt>
      <trkpt lat="40.337754" lon="-3.383452">
        <ele>752.4</ele>
        <time>1970-01-01T01:13:54.000Z</time>
      </trkpt>
      <trkpt lat="40.337782" lon="-3.383415">
        <ele>752.6</ele>
        <time>1970-01-01T01:13:55.000Z</time>
      </trkpt>
      <trkpt lat="40.33781" lon="-3.383378">
        <ele>752.8</ele>
        <time>1970-01-01T01:13:56.000Z</time>
      </trkpt>
      <trkpt lat="40.337832" lon="-3.383338">
        <ele>753</ele>
        <time>1970-01-01T01:13:57.000Z</time>
      </trkpt>
      <trkpt lat="40.337853" lon="-3.383297">
        <ele>753.2</ele>
        <time>1970-01-01T01:13:58.000Z</time>
      </trkpt>
      <trkpt lat="40.337876" lon="-3.383251">
        <ele>753.6</ele>
        <time>1970-01-01T01:13:59.000Z</time>
      </trkpt>
      <trkpt lat="40.337901" lon="-3.383212">
        <ele>753.8</ele>
        <time>1970-01-01T01:14:00.000Z</time>
      </trkpt>
      <trkpt lat="40.337921" lon="-3.383183">
        <ele>754</ele>
        <time>1970-01-01T01:14:01.000Z</time>
      </trkpt>
      <trkpt lat="40.337951" lon="-3.383142">
        <ele>754.4</ele>
        <time>1970-01-01T01:14:02.000Z</time>
      </trkpt>
      <trkpt lat="40.337977" lon="-3.383106">
        <ele>754.6</ele>
        <time>1970-01-01T01:14:03.000Z</time>
      </trkpt>
      <trkpt lat="40.338003" lon="-3.383068">
        <ele>754.6</ele>
        <time>1970-01-01T01:14:04.000Z</time>
      </trkpt>
      <trkpt lat="40.338028" lon="-3.383029">
        <ele>754.8</ele>
        <time>1970-01-01T01:14:05.000Z</time>
      </trkpt>
      <trkpt lat="40.33805" lon="-3.382999">
        <ele>755.2</ele>
        <time>1970-01-01T01:14:06.000Z</time>
      </trkpt>
      <trkpt lat="40.338083" lon="-3.382951">
        <ele>755.2</ele>
        <time>1970-01-01T01:14:07.000Z</time>
      </trkpt>
      <trkpt lat="40.338111" lon="-3.38291">
        <ele>755.4</ele>
        <time>1970-01-01T01:14:08.000Z</time>
      </trkpt>
      <trkpt lat="40.338136" lon="-3.382867">
        <ele>755.6</ele>
        <time>1970-01-01T01:14:09.000Z</time>
      </trkpt>
      <trkpt lat="40.338154" lon="-3.382834">
        <ele>755.8</ele>
        <time>1970-01-01T01:14:10.000Z</time>
      </trkpt>
      <trkpt lat="40.338182" lon="-3.382784">
        <ele>756</ele>
        <time>1970-01-01T01:14:11.000Z</time>
      </trkpt>
      <trkpt lat="40.338206" lon="-3.382742">
        <ele>756</ele>
        <time>1970-01-01T01:14:12.000Z</time>
      </trkpt>
      <trkpt lat="40.338228" lon="-3.3827">
        <ele>756.4</ele>
        <time>1970-01-01T01:14:13.000Z</time>
      </trkpt>
      <trkpt lat="40.338247" lon="-3.382663">
        <ele>756.4</ele>
        <time>1970-01-01T01:14:14.000Z</time>
      </trkpt>
      <trkpt lat="40.338269" lon="-3.382619">
        <ele>756.8</ele>
        <time>1970-01-01T01:14:15.000Z</time>
      </trkpt>
      <trkpt lat="40.338296" lon="-3.382574">
        <ele>756.8</ele>
        <time>1970-01-01T01:14:16.000Z</time>
      </trkpt>
      <trkpt lat="40.338316" lon="-3.382543">
        <ele>757</ele>
        <time>1970-01-01T01:14:17.000Z</time>
      </trkpt>
      <trkpt lat="40.338335" lon="-3.382515">
        <ele>757.2</ele>
        <time>1970-01-01T01:14:18.000Z</time>
      </trkpt>
      <trkpt lat="40.338348" lon="-3.382489">
        <ele>757.2</ele>
        <time>1970-01-01T01:14:19.000Z</time>
      </trkpt>
      <trkpt lat="40.338342" lon="-3.382465">
        <ele>757.4</ele>
        <time>1970-01-01T01:14:20.000Z</time>
      </trkpt>
      <trkpt lat="40.338318" lon="-3.38243">
        <ele>757.6</ele>
        <time>1970-01-01T01:14:21.000Z</time>
      </trkpt>
      <trkpt lat="40.338287" lon="-3.382403">
        <ele>757.8</ele>
        <time>1970-01-01T01:14:22.000Z</time>
      </trkpt>
      <trkpt lat="40.338254" lon="-3.382378">
        <ele>758</ele>
        <time>1970-01-01T01:14:23.000Z</time>
      </trkpt>
      <trkpt lat="40.338233" lon="-3.382363">
        <ele>758.2</ele>
        <time>1970-01-01T01:14:24.000Z</time>
      </trkpt>
      <trkpt lat="40.338208" lon="-3.382342">
        <ele>758.2</ele>
        <time>1970-01-01T01:14:25.000Z</time>
      </trkpt>
      <trkpt lat="40.338191" lon="-3.382312">
        <ele>758.4</ele>
        <time>1970-01-01T01:14:26.000Z</time>
      </trkpt>
      <trkpt lat="40.3382" lon="-3.382284">
        <ele>758.6</ele>
        <time>1970-01-01T01:14:27.000Z</time>
      </trkpt>
      <trkpt lat="40.338211" lon="-3.382242">
        <ele>758.8</ele>
        <time>1970-01-01T01:14:28.000Z</time>
      </trkpt>
      <trkpt lat="40.338224" lon="-3.382187">
        <ele>758.8</ele>
        <time>1970-01-01T01:14:29.000Z</time>
      </trkpt>
      <trkpt lat="40.338237" lon="-3.382128">
        <ele>758.8</ele>
        <time>1970-01-01T01:14:30.000Z</time>
      </trkpt>
      <trkpt lat="40.338249" lon="-3.382077">
        <ele>758.8</ele>
        <time>1970-01-01T01:14:31.000Z</time>
      </trkpt>
      <trkpt lat="40.338267" lon="-3.382013">
        <ele>758.8</ele>
        <time>1970-01-01T01:14:32.000Z</time>
      </trkpt>
      <trkpt lat="40.338284" lon="-3.381951">
        <ele>758.8</ele>
        <time>1970-01-01T01:14:33.000Z</time>
      </trkpt>
      <trkpt lat="40.338313" lon="-3.381886">
        <ele>758.8</ele>
        <time>1970-01-01T01:14:34.000Z</time>
      </trkpt>
      <trkpt lat="40.338335" lon="-3.381824">
        <ele>758.8</ele>
        <time>1970-01-01T01:14:35.000Z</time>
      </trkpt>
      <trkpt lat="40.338342" lon="-3.381769">
        <ele>758.6</ele>
        <time>1970-01-01T01:14:36.000Z</time>
      </trkpt>
      <trkpt lat="40.33832" lon="-3.381709">
        <ele>758.4</ele>
        <time>1970-01-01T01:14:37.000Z</time>
      </trkpt>
      <trkpt lat="40.33829" lon="-3.381648">
        <ele>758.2</ele>
        <time>1970-01-01T01:14:38.000Z</time>
      </trkpt>
      <trkpt lat="40.33825" lon="-3.381584">
        <ele>757.8</ele>
        <time>1970-01-01T01:14:39.000Z</time>
      </trkpt>
      <trkpt lat="40.338221" lon="-3.381539">
        <ele>757.4</ele>
        <time>1970-01-01T01:14:40.000Z</time>
      </trkpt>
      <trkpt lat="40.33818" lon="-3.38148">
        <ele>757.4</ele>
        <time>1970-01-01T01:14:41.000Z</time>
      </trkpt>
      <trkpt lat="40.33816" lon="-3.381423">
        <ele>757</ele>
        <time>1970-01-01T01:14:42.000Z</time>
      </trkpt>
      <trkpt lat="40.338156" lon="-3.381359">
        <ele>756.8</ele>
        <time>1970-01-01T01:14:43.000Z</time>
      </trkpt>
      <trkpt lat="40.338158" lon="-3.381294">
        <ele>756.8</ele>
        <time>1970-01-01T01:14:44.000Z</time>
      </trkpt>
      <trkpt lat="40.338168" lon="-3.381226">
        <ele>756.8</ele>
        <time>1970-01-01T01:14:45.000Z</time>
      </trkpt>
      <trkpt lat="40.338175" lon="-3.38116">
        <ele>756.8</ele>
        <time>1970-01-01T01:14:46.000Z</time>
      </trkpt>
      <trkpt lat="40.338179" lon="-3.38109">
        <ele>756.8</ele>
        <time>1970-01-01T01:14:47.000Z</time>
      </trkpt>
      <trkpt lat="40.33817" lon="-3.381035">
        <ele>756.8</ele>
        <time>1970-01-01T01:14:48.000Z</time>
      </trkpt>
      <trkpt lat="40.338149" lon="-3.380987">
        <ele>756.8</ele>
        <time>1970-01-01T01:14:49.000Z</time>
      </trkpt>
      <trkpt lat="40.33813" lon="-3.380943">
        <ele>756.8</ele>
        <time>1970-01-01T01:14:50.000Z</time>
      </trkpt>
      <trkpt lat="40.338117" lon="-3.380912">
        <ele>757</ele>
        <time>1970-01-01T01:14:51.000Z</time>
      </trkpt>
      <trkpt lat="40.338103" lon="-3.380856">
        <ele>757</ele>
        <time>1970-01-01T01:14:52.000Z</time>
      </trkpt>
      <trkpt lat="40.338091" lon="-3.38081">
        <ele>757.2</ele>
        <time>1970-01-01T01:14:53.000Z</time>
      </trkpt>
      <trkpt lat="40.338081" lon="-3.38077">
        <ele>757.2</ele>
        <time>1970-01-01T01:14:54.000Z</time>
      </trkpt>
      <trkpt lat="40.33807" lon="-3.380732">
        <ele>757.4</ele>
        <time>1970-01-01T01:14:55.000Z</time>
      </trkpt>
      <trkpt lat="40.338062" lon="-3.380699">
        <ele>758</ele>
        <time>1970-01-01T01:14:56.000Z</time>
      </trkpt>
      <trkpt lat="40.338058" lon="-3.380651">
        <ele>758.2</ele>
        <time>1970-01-01T01:14:57.000Z</time>
      </trkpt>
      <trkpt lat="40.338057" lon="-3.380614">
        <ele>758.6</ele>
        <time>1970-01-01T01:14:58.000Z</time>
      </trkpt>
      <trkpt lat="40.338056" lon="-3.38058">
        <ele>759</ele>
        <time>1970-01-01T01:14:59.000Z</time>
      </trkpt>
      <trkpt lat="40.338062" lon="-3.380551">
        <ele>759.2</ele>
        <time>1970-01-01T01:15:00.000Z</time>
      </trkpt>
      <trkpt lat="40.338074" lon="-3.380507">
        <ele>759.8</ele>
        <time>1970-01-01T01:15:01.000Z</time>
      </trkpt>
      <trkpt lat="40.338091" lon="-3.380467">
        <ele>759.8</ele>
        <time>1970-01-01T01:15:02.000Z</time>
      </trkpt>
      <trkpt lat="40.338106" lon="-3.380435">
        <ele>760.2</ele>
        <time>1970-01-01T01:15:03.000Z</time>
      </trkpt>
      <trkpt lat="40.338124" lon="-3.380416">
        <ele>760.4</ele>
        <time>1970-01-01T01:15:04.000Z</time>
      </trkpt>
      <trkpt lat="40.338148" lon="-3.380388">
        <ele>760.6</ele>
        <time>1970-01-01T01:15:05.000Z</time>
      </trkpt>
      <trkpt lat="40.338186" lon="-3.380351">
        <ele>761</ele>
        <time>1970-01-01T01:15:06.000Z</time>
      </trkpt>
      <trkpt lat="40.338219" lon="-3.380317">
        <ele>761.2</ele>
        <time>1970-01-01T01:15:07.000Z</time>
      </trkpt>
      <trkpt lat="40.338249" lon="-3.380285">
        <ele>761.4</ele>
        <time>1970-01-01T01:15:08.000Z</time>
      </trkpt>
      <trkpt lat="40.338277" lon="-3.38025">
        <ele>761.6</ele>
        <time>1970-01-01T01:15:09.000Z</time>
      </trkpt>
      <trkpt lat="40.338301" lon="-3.380222">
        <ele>762</ele>
        <time>1970-01-01T01:15:10.000Z</time>
      </trkpt>
      <trkpt lat="40.338333" lon="-3.380167">
        <ele>762</ele>
        <time>1970-01-01T01:15:11.000Z</time>
      </trkpt>
      <trkpt lat="40.338363" lon="-3.380121">
        <ele>762.6</ele>
        <time>1970-01-01T01:15:12.000Z</time>
      </trkpt>
      <trkpt lat="40.338396" lon="-3.380088">
        <ele>762.8</ele>
        <time>1970-01-01T01:15:13.000Z</time>
      </trkpt>
      <trkpt lat="40.338426" lon="-3.380052">
        <ele>763.2</ele>
        <time>1970-01-01T01:15:14.000Z</time>
      </trkpt>
      <trkpt lat="40.338448" lon="-3.38002">
        <ele>763.4</ele>
        <time>1970-01-01T01:15:15.000Z</time>
      </trkpt>
      <trkpt lat="40.338472" lon="-3.379977">
        <ele>763.6</ele>
        <time>1970-01-01T01:15:16.000Z</time>
      </trkpt>
      <trkpt lat="40.338499" lon="-3.379928">
        <ele>764</ele>
        <time>1970-01-01T01:15:17.000Z</time>
      </trkpt>
      <trkpt lat="40.338519" lon="-3.379886">
        <ele>764</ele>
        <time>1970-01-01T01:15:18.000Z</time>
      </trkpt>
      <trkpt lat="40.338538" lon="-3.379843">
        <ele>764.4</ele>
        <time>1970-01-01T01:15:19.000Z</time>
      </trkpt>
      <trkpt lat="40.338557" lon="-3.3798">
        <ele>764.6</ele>
        <time>1970-01-01T01:15:20.000Z</time>
      </trkpt>
      <trkpt lat="40.338571" lon="-3.379767">
        <ele>765.2</ele>
        <time>1970-01-01T01:15:21.000Z</time>
      </trkpt>
      <trkpt lat="40.338596" lon="-3.379721">
        <ele>765.4</ele>
        <time>1970-01-01T01:15:22.000Z</time>
      </trkpt>
      <trkpt lat="40.338609" lon="-3.379682">
        <ele>765.6</ele>
        <time>1970-01-01T01:15:23.000Z</time>
      </trkpt>
      <trkpt lat="40.338619" lon="-3.379638">
        <ele>765.6</ele>
        <time>1970-01-01T01:15:24.000Z</time>
      </trkpt>
      <trkpt lat="40.338629" lon="-3.379601">
        <ele>765.8</ele>
        <time>1970-01-01T01:15:25.000Z</time>
      </trkpt>
      <trkpt lat="40.338645" lon="-3.37954">
        <ele>766</ele>
        <time>1970-01-01T01:15:26.000Z</time>
      </trkpt>
      <trkpt lat="40.33866" lon="-3.379481">
        <ele>766</ele>
        <time>1970-01-01T01:15:27.000Z</time>
      </trkpt>
      <trkpt lat="40.338676" lon="-3.379422">
        <ele>766</ele>
        <time>1970-01-01T01:15:28.000Z</time>
      </trkpt>
      <trkpt lat="40.338693" lon="-3.379365">
        <ele>766</ele>
        <time>1970-01-01T01:15:29.000Z</time>
      </trkpt>
      <trkpt lat="40.338707" lon="-3.379316">
        <ele>766</ele>
        <time>1970-01-01T01:15:30.000Z</time>
      </trkpt>
      <trkpt lat="40.338724" lon="-3.379254">
        <ele>766</ele>
        <time>1970-01-01T01:15:31.000Z</time>
      </trkpt>
      <trkpt lat="40.338747" lon="-3.379179">
        <ele>766</ele>
        <time>1970-01-01T01:15:32.000Z</time>
      </trkpt>
      <trkpt lat="40.338769" lon="-3.379115">
        <ele>766</ele>
        <time>1970-01-01T01:15:33.000Z</time>
      </trkpt>
      <trkpt lat="40.338793" lon="-3.379052">
        <ele>765.8</ele>
        <time>1970-01-01T01:15:34.000Z</time>
      </trkpt>
      <trkpt lat="40.338816" lon="-3.378988">
        <ele>765.6</ele>
        <time>1970-01-01T01:15:35.000Z</time>
      </trkpt>
      <trkpt lat="40.338837" lon="-3.378938">
        <ele>765.4</ele>
        <time>1970-01-01T01:15:36.000Z</time>
      </trkpt>
      <trkpt lat="40.338871" lon="-3.378861">
        <ele>765.2</ele>
        <time>1970-01-01T01:15:37.000Z</time>
      </trkpt>
      <trkpt lat="40.338902" lon="-3.378797">
        <ele>765</ele>
        <time>1970-01-01T01:15:38.000Z</time>
      </trkpt>
      <trkpt lat="40.338938" lon="-3.37874">
        <ele>764.8</ele>
        <time>1970-01-01T01:15:39.000Z</time>
      </trkpt>
      <trkpt lat="40.338968" lon="-3.378699">
        <ele>764.8</ele>
        <time>1970-01-01T01:15:40.000Z</time>
      </trkpt>
      <trkpt lat="40.339013" lon="-3.378652">
        <ele>764.6</ele>
        <time>1970-01-01T01:15:41.000Z</time>
      </trkpt>
      <trkpt lat="40.339073" lon="-3.378598">
        <ele>764.6</ele>
        <time>1970-01-01T01:15:42.000Z</time>
      </trkpt>
      <trkpt lat="40.339126" lon="-3.378555">
        <ele>764.4</ele>
        <time>1970-01-01T01:15:43.000Z</time>
      </trkpt>
      <trkpt lat="40.339181" lon="-3.378512">
        <ele>764.2</ele>
        <time>1970-01-01T01:15:44.000Z</time>
      </trkpt>
      <trkpt lat="40.339238" lon="-3.378469">
        <ele>764</ele>
        <time>1970-01-01T01:15:45.000Z</time>
      </trkpt>
      <trkpt lat="40.339288" lon="-3.378437">
        <ele>763.8</ele>
        <time>1970-01-01T01:15:46.000Z</time>
      </trkpt>
      <trkpt lat="40.339364" lon="-3.378395">
        <ele>763.8</ele>
        <time>1970-01-01T01:15:47.000Z</time>
      </trkpt>
      <trkpt lat="40.339428" lon="-3.37836">
        <ele>763.4</ele>
        <time>1970-01-01T01:15:48.000Z</time>
      </trkpt>
      <trkpt lat="40.339489" lon="-3.378326">
        <ele>763.2</ele>
        <time>1970-01-01T01:15:49.000Z</time>
      </trkpt>
      <trkpt lat="40.339538" lon="-3.378296">
        <ele>762.8</ele>
        <time>1970-01-01T01:15:50.000Z</time>
      </trkpt>
      <trkpt lat="40.339597" lon="-3.378254">
        <ele>762.8</ele>
        <time>1970-01-01T01:15:51.000Z</time>
      </trkpt>
      <trkpt lat="40.339667" lon="-3.3782">
        <ele>762.4</ele>
        <time>1970-01-01T01:15:52.000Z</time>
      </trkpt>
      <trkpt lat="40.33972" lon="-3.378146">
        <ele>762.2</ele>
        <time>1970-01-01T01:15:53.000Z</time>
      </trkpt>
      <trkpt lat="40.339767" lon="-3.378088">
        <ele>761.8</ele>
        <time>1970-01-01T01:15:54.000Z</time>
      </trkpt>
      <trkpt lat="40.339799" lon="-3.378037">
        <ele>761.6</ele>
        <time>1970-01-01T01:15:55.000Z</time>
      </trkpt>
      <trkpt lat="40.339842" lon="-3.377955">
        <ele>761.4</ele>
        <time>1970-01-01T01:15:56.000Z</time>
      </trkpt>
      <trkpt lat="40.339875" lon="-3.377878">
        <ele>761.2</ele>
        <time>1970-01-01T01:15:57.000Z</time>
      </trkpt>
      <trkpt lat="40.339903" lon="-3.377804">
        <ele>761.2</ele>
        <time>1970-01-01T01:15:58.000Z</time>
      </trkpt>
      <trkpt lat="40.339928" lon="-3.377728">
        <ele>761</ele>
        <time>1970-01-01T01:15:59.000Z</time>
      </trkpt>
      <trkpt lat="40.339951" lon="-3.377651">
        <ele>760.8</ele>
        <time>1970-01-01T01:16:00.000Z</time>
      </trkpt>
      <trkpt lat="40.339965" lon="-3.377586">
        <ele>760.6</ele>
        <time>1970-01-01T01:16:01.000Z</time>
      </trkpt>
      <trkpt lat="40.339984" lon="-3.377491">
        <ele>760.6</ele>
        <time>1970-01-01T01:16:02.000Z</time>
      </trkpt>
      <trkpt lat="40.339995" lon="-3.377411">
        <ele>760.4</ele>
        <time>1970-01-01T01:16:03.000Z</time>
      </trkpt>
      <trkpt lat="40.340002" lon="-3.377332">
        <ele>760.4</ele>
        <time>1970-01-01T01:16:04.000Z</time>
      </trkpt>
      <trkpt lat="40.340008" lon="-3.377253">
        <ele>760.4</ele>
        <time>1970-01-01T01:16:05.000Z</time>
      </trkpt>
      <trkpt lat="40.34001" lon="-3.377191">
        <ele>760.4</ele>
        <time>1970-01-01T01:16:06.000Z</time>
      </trkpt>
      <trkpt lat="40.340014" lon="-3.377102">
        <ele>760.4</ele>
        <time>1970-01-01T01:16:07.000Z</time>
      </trkpt>
      <trkpt lat="40.340018" lon="-3.377032">
        <ele>760.2</ele>
        <time>1970-01-01T01:16:08.000Z</time>
      </trkpt>
      <trkpt lat="40.340019" lon="-3.376966">
        <ele>760.2</ele>
        <time>1970-01-01T01:16:09.000Z</time>
      </trkpt>
      <trkpt lat="40.340018" lon="-3.376917">
        <ele>760.2</ele>
        <time>1970-01-01T01:16:10.000Z</time>
      </trkpt>
      <trkpt lat="40.34001" lon="-3.376864">
        <ele>760.2</ele>
        <time>1970-01-01T01:16:11.000Z</time>
      </trkpt>
      <trkpt lat="40.33999" lon="-3.376811">
        <ele>760.2</ele>
        <time>1970-01-01T01:16:12.000Z</time>
      </trkpt>
      <trkpt lat="40.339961" lon="-3.376781">
        <ele>760.2</ele>
        <time>1970-01-01T01:16:13.000Z</time>
      </trkpt>
      <trkpt lat="40.339926" lon="-3.376766">
        <ele>760.2</ele>
        <time>1970-01-01T01:16:14.000Z</time>
      </trkpt>
      <trkpt lat="40.339887" lon="-3.376761">
        <ele>760.4</ele>
        <time>1970-01-01T01:16:15.000Z</time>
      </trkpt>
      <trkpt lat="40.339855" lon="-3.376756">
        <ele>760.4</ele>
        <time>1970-01-01T01:16:16.000Z</time>
      </trkpt>
      <trkpt lat="40.339812" lon="-3.376735">
        <ele>760.4</ele>
        <time>1970-01-01T01:16:17.000Z</time>
      </trkpt>
      <trkpt lat="40.339786" lon="-3.376698">
        <ele>760.4</ele>
        <time>1970-01-01T01:16:18.000Z</time>
      </trkpt>
      <trkpt lat="40.339771" lon="-3.37665">
        <ele>760.4</ele>
        <time>1970-01-01T01:16:19.000Z</time>
      </trkpt>
      <trkpt lat="40.33977" lon="-3.376605">
        <ele>760.6</ele>
        <time>1970-01-01T01:16:20.000Z</time>
      </trkpt>
      <trkpt lat="40.339784" lon="-3.376536">
        <ele>760.6</ele>
        <time>1970-01-01T01:16:21.000Z</time>
      </trkpt>
      <trkpt lat="40.339814" lon="-3.376486">
        <ele>760.6</ele>
        <time>1970-01-01T01:16:22.000Z</time>
      </trkpt>
      <trkpt lat="40.339852" lon="-3.376439">
        <ele>760.6</ele>
        <time>1970-01-01T01:16:23.000Z</time>
      </trkpt>
      <trkpt lat="40.339891" lon="-3.376391">
        <ele>760.8</ele>
        <time>1970-01-01T01:16:24.000Z</time>
      </trkpt>
      <trkpt lat="40.339912" lon="-3.376346">
        <ele>760.8</ele>
        <time>1970-01-01T01:16:25.000Z</time>
      </trkpt>
      <trkpt lat="40.339925" lon="-3.376279">
        <ele>760.8</ele>
        <time>1970-01-01T01:16:26.000Z</time>
      </trkpt>
      <trkpt lat="40.339919" lon="-3.376189">
        <ele>760.8</ele>
        <time>1970-01-01T01:16:27.000Z</time>
      </trkpt>
      <trkpt lat="40.339903" lon="-3.376113">
        <ele>760.6</ele>
        <time>1970-01-01T01:16:28.000Z</time>
      </trkpt>
      <trkpt lat="40.339884" lon="-3.376034">
        <ele>760.4</ele>
        <time>1970-01-01T01:16:29.000Z</time>
      </trkpt>
      <trkpt lat="40.339867" lon="-3.375967">
        <ele>760.2</ele>
        <time>1970-01-01T01:16:30.000Z</time>
      </trkpt>
      <trkpt lat="40.33985" lon="-3.375885">
        <ele>759.8</ele>
        <time>1970-01-01T01:16:31.000Z</time>
      </trkpt>
      <trkpt lat="40.339828" lon="-3.375784">
        <ele>759.6</ele>
        <time>1970-01-01T01:16:32.000Z</time>
      </trkpt>
      <trkpt lat="40.339811" lon="-3.375697">
        <ele>759</ele>
        <time>1970-01-01T01:16:33.000Z</time>
      </trkpt>
      <trkpt lat="40.339794" lon="-3.375607">
        <ele>758.6</ele>
        <time>1970-01-01T01:16:34.000Z</time>
      </trkpt>
      <trkpt lat="40.339777" lon="-3.375518">
        <ele>758.4</ele>
        <time>1970-01-01T01:16:35.000Z</time>
      </trkpt>
      <trkpt lat="40.339764" lon="-3.375445">
        <ele>758</ele>
        <time>1970-01-01T01:16:36.000Z</time>
      </trkpt>
      <trkpt lat="40.339741" lon="-3.375334">
        <ele>757.6</ele>
        <time>1970-01-01T01:16:37.000Z</time>
      </trkpt>
      <trkpt lat="40.33972" lon="-3.37524">
        <ele>757.2</ele>
        <time>1970-01-01T01:16:38.000Z</time>
      </trkpt>
      <trkpt lat="40.3397" lon="-3.375143">
        <ele>757</ele>
        <time>1970-01-01T01:16:39.000Z</time>
      </trkpt>
      <trkpt lat="40.339681" lon="-3.375066">
        <ele>756.8</ele>
        <time>1970-01-01T01:16:40.000Z</time>
      </trkpt>
      <trkpt lat="40.339655" lon="-3.374947">
        <ele>756.6</ele>
        <time>1970-01-01T01:16:41.000Z</time>
      </trkpt>
      <trkpt lat="40.339633" lon="-3.374847">
        <ele>756.4</ele>
        <time>1970-01-01T01:16:42.000Z</time>
      </trkpt>
      <trkpt lat="40.339611" lon="-3.374745">
        <ele>756</ele>
        <time>1970-01-01T01:16:43.000Z</time>
      </trkpt>
      <trkpt lat="40.33959" lon="-3.374644">
        <ele>755.8</ele>
        <time>1970-01-01T01:16:44.000Z</time>
      </trkpt>
      <trkpt lat="40.339572" lon="-3.374565">
        <ele>755.4</ele>
        <time>1970-01-01T01:16:45.000Z</time>
      </trkpt>
      <trkpt lat="40.339552" lon="-3.374469">
        <ele>755.2</ele>
        <time>1970-01-01T01:16:46.000Z</time>
      </trkpt>
      <trkpt lat="40.339528" lon="-3.374353">
        <ele>755</ele>
        <time>1970-01-01T01:16:47.000Z</time>
      </trkpt>
      <trkpt lat="40.339507" lon="-3.374259">
        <ele>754.8</ele>
        <time>1970-01-01T01:16:48.000Z</time>
      </trkpt>
      <trkpt lat="40.339487" lon="-3.374165">
        <ele>754.8</ele>
        <time>1970-01-01T01:16:49.000Z</time>
      </trkpt>
      <trkpt lat="40.339467" lon="-3.374072">
        <ele>754.6</ele>
        <time>1970-01-01T01:16:50.000Z</time>
      </trkpt>
      <trkpt lat="40.33945" lon="-3.373999">
        <ele>754.6</ele>
        <time>1970-01-01T01:16:51.000Z</time>
      </trkpt>
      <trkpt lat="40.339426" lon="-3.373892">
        <ele>754.2</ele>
        <time>1970-01-01T01:16:52.000Z</time>
      </trkpt>
      <trkpt lat="40.339406" lon="-3.373803">
        <ele>754</ele>
        <time>1970-01-01T01:16:53.000Z</time>
      </trkpt>
      <trkpt lat="40.339387" lon="-3.373712">
        <ele>753.8</ele>
        <time>1970-01-01T01:16:54.000Z</time>
      </trkpt>
      <trkpt lat="40.339373" lon="-3.373643">
        <ele>753.8</ele>
        <time>1970-01-01T01:16:55.000Z</time>
      </trkpt>
      <trkpt lat="40.339353" lon="-3.373541">
        <ele>753.8</ele>
        <time>1970-01-01T01:16:56.000Z</time>
      </trkpt>
      <trkpt lat="40.339335" lon="-3.373459">
        <ele>753.6</ele>
        <time>1970-01-01T01:16:57.000Z</time>
      </trkpt>
      <trkpt lat="40.339318" lon="-3.373377">
        <ele>753.6</ele>
        <time>1970-01-01T01:16:58.000Z</time>
      </trkpt>
      <trkpt lat="40.339302" lon="-3.373296">
        <ele>753.4</ele>
        <time>1970-01-01T01:16:59.000Z</time>
      </trkpt>
      <trkpt lat="40.339286" lon="-3.373218">
        <ele>753.4</ele>
        <time>1970-01-01T01:17:00.000Z</time>
      </trkpt>
      <trkpt lat="40.339271" lon="-3.373146">
        <ele>753.2</ele>
        <time>1970-01-01T01:17:01.000Z</time>
      </trkpt>
      <trkpt lat="40.339257" lon="-3.373075">
        <ele>753.2</ele>
        <time>1970-01-01T01:17:02.000Z</time>
      </trkpt>
      <trkpt lat="40.339245" lon="-3.373006">
        <ele>753</ele>
        <time>1970-01-01T01:17:03.000Z</time>
      </trkpt>
      <trkpt lat="40.339239" lon="-3.372952">
        <ele>753</ele>
        <time>1970-01-01T01:17:04.000Z</time>
      </trkpt>
      <trkpt lat="40.33924" lon="-3.372888">
        <ele>753</ele>
        <time>1970-01-01T01:17:05.000Z</time>
      </trkpt>
      <trkpt lat="40.339254" lon="-3.372818">
        <ele>753</ele>
        <time>1970-01-01T01:17:06.000Z</time>
      </trkpt>
      <trkpt lat="40.339286" lon="-3.372779">
        <ele>753</ele>
        <time>1970-01-01T01:17:07.000Z</time>
      </trkpt>
      <trkpt lat="40.339333" lon="-3.372761">
        <ele>752.8</ele>
        <time>1970-01-01T01:17:08.000Z</time>
      </trkpt>
      <trkpt lat="40.33939" lon="-3.372744">
        <ele>752.8</ele>
        <time>1970-01-01T01:17:09.000Z</time>
      </trkpt>
      <trkpt lat="40.339441" lon="-3.372726">
        <ele>752.8</ele>
        <time>1970-01-01T01:17:10.000Z</time>
      </trkpt>
      <trkpt lat="40.339522" lon="-3.372698">
        <ele>752.8</ele>
        <time>1970-01-01T01:17:11.000Z</time>
      </trkpt>
      <trkpt lat="40.33959" lon="-3.372681">
        <ele>752.6</ele>
        <time>1970-01-01T01:17:12.000Z</time>
      </trkpt>
      <trkpt lat="40.339656" lon="-3.37266">
        <ele>752.4</ele>
        <time>1970-01-01T01:17:13.000Z</time>
      </trkpt>
      <trkpt lat="40.339708" lon="-3.372644">
        <ele>751.8</ele>
        <time>1970-01-01T01:17:14.000Z</time>
      </trkpt>
      <trkpt lat="40.339783" lon="-3.372619">
        <ele>751.6</ele>
        <time>1970-01-01T01:17:15.000Z</time>
      </trkpt>
      <trkpt lat="40.339846" lon="-3.372596">
        <ele>751.2</ele>
        <time>1970-01-01T01:17:16.000Z</time>
      </trkpt>
      <trkpt lat="40.339908" lon="-3.372578">
        <ele>751</ele>
        <time>1970-01-01T01:17:17.000Z</time>
      </trkpt>
      <trkpt lat="40.33997" lon="-3.372557">
        <ele>750.8</ele>
        <time>1970-01-01T01:17:18.000Z</time>
      </trkpt>
      <trkpt lat="40.340029" lon="-3.372534">
        <ele>750.6</ele>
        <time>1970-01-01T01:17:19.000Z</time>
      </trkpt>
      <trkpt lat="40.340089" lon="-3.372511">
        <ele>750.6</ele>
        <time>1970-01-01T01:17:20.000Z</time>
      </trkpt>
      <trkpt lat="40.340148" lon="-3.372488">
        <ele>750.4</ele>
        <time>1970-01-01T01:17:21.000Z</time>
      </trkpt>
      <trkpt lat="40.340206" lon="-3.372466">
        <ele>750.4</ele>
        <time>1970-01-01T01:17:22.000Z</time>
      </trkpt>
      <trkpt lat="40.340262" lon="-3.372443">
        <ele>750.2</ele>
        <time>1970-01-01T01:17:23.000Z</time>
      </trkpt>
      <trkpt lat="40.340306" lon="-3.372426">
        <ele>750.2</ele>
        <time>1970-01-01T01:17:24.000Z</time>
      </trkpt>
      <trkpt lat="40.340361" lon="-3.372405">
        <ele>750</ele>
        <time>1970-01-01T01:17:25.000Z</time>
      </trkpt>
      <trkpt lat="40.340425" lon="-3.372381">
        <ele>750</ele>
        <time>1970-01-01T01:17:26.000Z</time>
      </trkpt>
      <trkpt lat="40.340477" lon="-3.372363">
        <ele>750</ele>
        <time>1970-01-01T01:17:27.000Z</time>
      </trkpt>
      <trkpt lat="40.340526" lon="-3.372345">
        <ele>749.8</ele>
        <time>1970-01-01T01:17:28.000Z</time>
      </trkpt>
      <trkpt lat="40.340571" lon="-3.372324">
        <ele>749.8</ele>
        <time>1970-01-01T01:17:29.000Z</time>
      </trkpt>
      <trkpt lat="40.340609" lon="-3.372298">
        <ele>749.8</ele>
        <time>1970-01-01T01:17:30.000Z</time>
      </trkpt>
      <trkpt lat="40.340638" lon="-3.372259">
        <ele>749.8</ele>
        <time>1970-01-01T01:17:31.000Z</time>
      </trkpt>
      <trkpt lat="40.340658" lon="-3.37221">
        <ele>749.8</ele>
        <time>1970-01-01T01:17:32.000Z</time>
      </trkpt>
      <trkpt lat="40.34067" lon="-3.372153">
        <ele>749.8</ele>
        <time>1970-01-01T01:17:33.000Z</time>
      </trkpt>
      <trkpt lat="40.340677" lon="-3.372091">
        <ele>749.8</ele>
        <time>1970-01-01T01:17:34.000Z</time>
      </trkpt>
      <trkpt lat="40.340676" lon="-3.372044">
        <ele>749.8</ele>
        <time>1970-01-01T01:17:35.000Z</time>
      </trkpt>
      <trkpt lat="40.340678" lon="-3.371972">
        <ele>749.8</ele>
        <time>1970-01-01T01:17:36.000Z</time>
      </trkpt>
      <trkpt lat="40.340683" lon="-3.371914">
        <ele>749.8</ele>
        <time>1970-01-01T01:17:37.000Z</time>
      </trkpt>
      <trkpt lat="40.340686" lon="-3.371858">
        <ele>749.8</ele>
        <time>1970-01-01T01:17:38.000Z</time>
      </trkpt>
      <trkpt lat="40.340688" lon="-3.371801">
        <ele>750</ele>
        <time>1970-01-01T01:17:39.000Z</time>
      </trkpt>
      <trkpt lat="40.340692" lon="-3.371745">
        <ele>750</ele>
        <time>1970-01-01T01:17:40.000Z</time>
      </trkpt>
      <trkpt lat="40.340696" lon="-3.371686">
        <ele>750.2</ele>
        <time>1970-01-01T01:17:41.000Z</time>
      </trkpt>
      <trkpt lat="40.340697" lon="-3.371631">
        <ele>750.2</ele>
        <time>1970-01-01T01:17:42.000Z</time>
      </trkpt>
      <trkpt lat="40.340698" lon="-3.371586">
        <ele>750.2</ele>
        <time>1970-01-01T01:17:43.000Z</time>
      </trkpt>
      <trkpt lat="40.340701" lon="-3.371529">
        <ele>750.4</ele>
        <time>1970-01-01T01:17:44.000Z</time>
      </trkpt>
      <trkpt lat="40.340707" lon="-3.37146">
        <ele>750.4</ele>
        <time>1970-01-01T01:17:45.000Z</time>
      </trkpt>
      <trkpt lat="40.340714" lon="-3.371402">
        <ele>750.6</ele>
        <time>1970-01-01T01:17:46.000Z</time>
      </trkpt>
      <trkpt lat="40.340719" lon="-3.371344">
        <ele>750.8</ele>
        <time>1970-01-01T01:17:47.000Z</time>
      </trkpt>
      <trkpt lat="40.340722" lon="-3.3713">
        <ele>750.8</ele>
        <time>1970-01-01T01:17:48.000Z</time>
      </trkpt>
      <trkpt lat="40.340727" lon="-3.371232">
        <ele>750.8</ele>
        <time>1970-01-01T01:17:49.000Z</time>
      </trkpt>
      <trkpt lat="40.340732" lon="-3.371174">
        <ele>751</ele>
        <time>1970-01-01T01:17:50.000Z</time>
      </trkpt>
      <trkpt lat="40.340739" lon="-3.371117">
        <ele>751</ele>
        <time>1970-01-01T01:17:51.000Z</time>
      </trkpt>
      <trkpt lat="40.340748" lon="-3.371062">
        <ele>751.2</ele>
        <time>1970-01-01T01:17:52.000Z</time>
      </trkpt>
      <trkpt lat="40.340755" lon="-3.371019">
        <ele>751.4</ele>
        <time>1970-01-01T01:17:53.000Z</time>
      </trkpt>
      <trkpt lat="40.340766" lon="-3.370964">
        <ele>751.6</ele>
        <time>1970-01-01T01:17:54.000Z</time>
      </trkpt>
      <trkpt lat="40.340779" lon="-3.370899">
        <ele>751.6</ele>
        <time>1970-01-01T01:17:55.000Z</time>
      </trkpt>
      <trkpt lat="40.340788" lon="-3.370844">
        <ele>751.6</ele>
        <time>1970-01-01T01:17:56.000Z</time>
      </trkpt>
      <trkpt lat="40.340798" lon="-3.370793">
        <ele>751.8</ele>
        <time>1970-01-01T01:17:57.000Z</time>
      </trkpt>
      <trkpt lat="40.340803" lon="-3.370751">
        <ele>752</ele>
        <time>1970-01-01T01:17:58.000Z</time>
      </trkpt>
      <trkpt lat="40.340811" lon="-3.370688">
        <ele>752.2</ele>
        <time>1970-01-01T01:17:59.000Z</time>
      </trkpt>
      <trkpt lat="40.340815" lon="-3.370639">
        <ele>752.2</ele>
        <time>1970-01-01T01:18:00.000Z</time>
      </trkpt>
      <trkpt lat="40.340817" lon="-3.370589">
        <ele>752.6</ele>
        <time>1970-01-01T01:18:01.000Z</time>
      </trkpt>
      <trkpt lat="40.340821" lon="-3.370537">
        <ele>752.8</ele>
        <time>1970-01-01T01:18:02.000Z</time>
      </trkpt>
      <trkpt lat="40.340827" lon="-3.370484">
        <ele>752.8</ele>
        <time>1970-01-01T01:18:03.000Z</time>
      </trkpt>
      <trkpt lat="40.340836" lon="-3.37043">
        <ele>753</ele>
        <time>1970-01-01T01:18:04.000Z</time>
      </trkpt>
      <trkpt lat="40.340845" lon="-3.370377">
        <ele>753</ele>
        <time>1970-01-01T01:18:05.000Z</time>
      </trkpt>
      <trkpt lat="40.340855" lon="-3.370328">
        <ele>753.4</ele>
        <time>1970-01-01T01:18:06.000Z</time>
      </trkpt>
      <trkpt lat="40.34087" lon="-3.370279">
        <ele>753.4</ele>
        <time>1970-01-01T01:18:07.000Z</time>
      </trkpt>
      <trkpt lat="40.340887" lon="-3.37023">
        <ele>753.8</ele>
        <time>1970-01-01T01:18:08.000Z</time>
      </trkpt>
      <trkpt lat="40.340904" lon="-3.370184">
        <ele>754</ele>
        <time>1970-01-01T01:18:09.000Z</time>
      </trkpt>
      <trkpt lat="40.340923" lon="-3.370139">
        <ele>754.2</ele>
        <time>1970-01-01T01:18:10.000Z</time>
      </trkpt>
      <trkpt lat="40.340945" lon="-3.370097">
        <ele>754.4</ele>
        <time>1970-01-01T01:18:11.000Z</time>
      </trkpt>
      <trkpt lat="40.340967" lon="-3.370056">
        <ele>754.6</ele>
        <time>1970-01-01T01:18:12.000Z</time>
      </trkpt>
      <trkpt lat="40.340987" lon="-3.370023">
        <ele>754.6</ele>
        <time>1970-01-01T01:18:13.000Z</time>
      </trkpt>
      <trkpt lat="40.341014" lon="-3.369982">
        <ele>754.8</ele>
        <time>1970-01-01T01:18:14.000Z</time>
      </trkpt>
      <trkpt lat="40.341045" lon="-3.369935">
        <ele>754.8</ele>
        <time>1970-01-01T01:18:15.000Z</time>
      </trkpt>
      <trkpt lat="40.341072" lon="-3.369896">
        <ele>754.8</ele>
        <time>1970-01-01T01:18:16.000Z</time>
      </trkpt>
      <trkpt lat="40.341093" lon="-3.369867">
        <ele>755.2</ele>
        <time>1970-01-01T01:18:17.000Z</time>
      </trkpt>
      <trkpt lat="40.341123" lon="-3.369835">
        <ele>755.6</ele>
        <time>1970-01-01T01:18:18.000Z</time>
      </trkpt>
      <trkpt lat="40.341159" lon="-3.369795">
        <ele>755.8</ele>
        <time>1970-01-01T01:18:19.000Z</time>
      </trkpt>
      <trkpt lat="40.341187" lon="-3.369766">
        <ele>755.8</ele>
        <time>1970-01-01T01:18:20.000Z</time>
      </trkpt>
      <trkpt lat="40.341216" lon="-3.36974">
        <ele>756</ele>
        <time>1970-01-01T01:18:21.000Z</time>
      </trkpt>
      <trkpt lat="40.341246" lon="-3.369715">
        <ele>756.2</ele>
        <time>1970-01-01T01:18:22.000Z</time>
      </trkpt>
      <trkpt lat="40.341278" lon="-3.369692">
        <ele>756.4</ele>
        <time>1970-01-01T01:18:23.000Z</time>
      </trkpt>
      <trkpt lat="40.341307" lon="-3.369669">
        <ele>756.8</ele>
        <time>1970-01-01T01:18:24.000Z</time>
      </trkpt>
      <trkpt lat="40.341338" lon="-3.369653">
        <ele>757</ele>
        <time>1970-01-01T01:18:25.000Z</time>
      </trkpt>
      <trkpt lat="40.341372" lon="-3.369642">
        <ele>757.2</ele>
        <time>1970-01-01T01:18:26.000Z</time>
      </trkpt>
      <trkpt lat="40.341407" lon="-3.369626">
        <ele>757.6</ele>
        <time>1970-01-01T01:18:27.000Z</time>
      </trkpt>
      <trkpt lat="40.341445" lon="-3.36961">
        <ele>757.6</ele>
        <time>1970-01-01T01:18:28.000Z</time>
      </trkpt>
      <trkpt lat="40.341484" lon="-3.369595">
        <ele>757.8</ele>
        <time>1970-01-01T01:18:29.000Z</time>
      </trkpt>
      <trkpt lat="40.341526" lon="-3.369579">
        <ele>758</ele>
        <time>1970-01-01T01:18:30.000Z</time>
      </trkpt>
      <trkpt lat="40.34157" lon="-3.369561">
        <ele>758.2</ele>
        <time>1970-01-01T01:18:31.000Z</time>
      </trkpt>
      <trkpt lat="40.341605" lon="-3.369546">
        <ele>758.4</ele>
        <time>1970-01-01T01:18:32.000Z</time>
      </trkpt>
      <trkpt lat="40.341656" lon="-3.369528">
        <ele>758.4</ele>
        <time>1970-01-01T01:18:33.000Z</time>
      </trkpt>
      <trkpt lat="40.341696" lon="-3.369512">
        <ele>758.4</ele>
        <time>1970-01-01T01:18:34.000Z</time>
      </trkpt>
      <trkpt lat="40.34174" lon="-3.369496">
        <ele>758.6</ele>
        <time>1970-01-01T01:18:35.000Z</time>
      </trkpt>
      <trkpt lat="40.341782" lon="-3.369481">
        <ele>758.6</ele>
        <time>1970-01-01T01:18:36.000Z</time>
      </trkpt>
      <trkpt lat="40.341818" lon="-3.36947">
        <ele>758.6</ele>
        <time>1970-01-01T01:18:37.000Z</time>
      </trkpt>
      <trkpt lat="40.341863" lon="-3.369455">
        <ele>758.8</ele>
        <time>1970-01-01T01:18:38.000Z</time>
      </trkpt>
      <trkpt lat="40.341911" lon="-3.36943">
        <ele>758.8</ele>
        <time>1970-01-01T01:18:39.000Z</time>
      </trkpt>
      <trkpt lat="40.341946" lon="-3.369401">
        <ele>759</ele>
        <time>1970-01-01T01:18:40.000Z</time>
      </trkpt>
      <trkpt lat="40.34198" lon="-3.369368">
        <ele>759</ele>
        <time>1970-01-01T01:18:41.000Z</time>
      </trkpt>
      <trkpt lat="40.342012" lon="-3.369335">
        <ele>758.8</ele>
        <time>1970-01-01T01:18:42.000Z</time>
      </trkpt>
      <trkpt lat="40.342043" lon="-3.369298">
        <ele>758.8</ele>
        <time>1970-01-01T01:18:43.000Z</time>
      </trkpt>
      <trkpt lat="40.342074" lon="-3.36926">
        <ele>759</ele>
        <time>1970-01-01T01:18:44.000Z</time>
      </trkpt>
      <trkpt lat="40.342103" lon="-3.36922">
        <ele>759</ele>
        <time>1970-01-01T01:18:45.000Z</time>
      </trkpt>
      <trkpt lat="40.34213" lon="-3.369181">
        <ele>759.2</ele>
        <time>1970-01-01T01:18:46.000Z</time>
      </trkpt>
      <trkpt lat="40.342159" lon="-3.36914">
        <ele>759.4</ele>
        <time>1970-01-01T01:18:47.000Z</time>
      </trkpt>
      <trkpt lat="40.342181" lon="-3.36911">
        <ele>759.4</ele>
        <time>1970-01-01T01:18:48.000Z</time>
      </trkpt>
      <trkpt lat="40.342216" lon="-3.369068">
        <ele>759.6</ele>
        <time>1970-01-01T01:18:49.000Z</time>
      </trkpt>
      <trkpt lat="40.342248" lon="-3.369028">
        <ele>759.8</ele>
        <time>1970-01-01T01:18:50.000Z</time>
      </trkpt>
      <trkpt lat="40.342276" lon="-3.368986">
        <ele>759.8</ele>
        <time>1970-01-01T01:18:51.000Z</time>
      </trkpt>
      <trkpt lat="40.342303" lon="-3.368943">
        <ele>759.8</ele>
        <time>1970-01-01T01:18:52.000Z</time>
      </trkpt>
      <trkpt lat="40.342326" lon="-3.368911">
        <ele>760</ele>
        <time>1970-01-01T01:18:53.000Z</time>
      </trkpt>
      <trkpt lat="40.342356" lon="-3.368861">
        <ele>760.2</ele>
        <time>1970-01-01T01:18:54.000Z</time>
      </trkpt>
      <trkpt lat="40.342382" lon="-3.36882">
        <ele>760.4</ele>
        <time>1970-01-01T01:18:55.000Z</time>
      </trkpt>
      <trkpt lat="40.342408" lon="-3.368779">
        <ele>760.4</ele>
        <time>1970-01-01T01:18:56.000Z</time>
      </trkpt>
      <trkpt lat="40.342428" lon="-3.368748">
        <ele>760.6</ele>
        <time>1970-01-01T01:18:57.000Z</time>
      </trkpt>
      <trkpt lat="40.342458" lon="-3.368698">
        <ele>760.6</ele>
        <time>1970-01-01T01:18:58.000Z</time>
      </trkpt>
      <trkpt lat="40.342482" lon="-3.368656">
        <ele>760.8</ele>
        <time>1970-01-01T01:18:59.000Z</time>
      </trkpt>
      <trkpt lat="40.342505" lon="-3.368615">
        <ele>761</ele>
        <time>1970-01-01T01:19:00.000Z</time>
      </trkpt>
      <trkpt lat="40.342529" lon="-3.368571">
        <ele>761.2</ele>
        <time>1970-01-01T01:19:01.000Z</time>
      </trkpt>
      <trkpt lat="40.342547" lon="-3.368535">
        <ele>761.4</ele>
        <time>1970-01-01T01:19:02.000Z</time>
      </trkpt>
      <trkpt lat="40.342575" lon="-3.368482">
        <ele>761.6</ele>
        <time>1970-01-01T01:19:03.000Z</time>
      </trkpt>
      <trkpt lat="40.3426" lon="-3.368441">
        <ele>761.6</ele>
        <time>1970-01-01T01:19:04.000Z</time>
      </trkpt>
      <trkpt lat="40.342628" lon="-3.368398">
        <ele>761.8</ele>
        <time>1970-01-01T01:19:05.000Z</time>
      </trkpt>
      <trkpt lat="40.342653" lon="-3.368356">
        <ele>762</ele>
        <time>1970-01-01T01:19:06.000Z</time>
      </trkpt>
      <trkpt lat="40.342673" lon="-3.368324">
        <ele>762.2</ele>
        <time>1970-01-01T01:19:07.000Z</time>
      </trkpt>
      <trkpt lat="40.342704" lon="-3.368279">
        <ele>762.2</ele>
        <time>1970-01-01T01:19:08.000Z</time>
      </trkpt>
      <trkpt lat="40.342728" lon="-3.368242">
        <ele>762.4</ele>
        <time>1970-01-01T01:19:09.000Z</time>
      </trkpt>
      <trkpt lat="40.342752" lon="-3.368203">
        <ele>762.6</ele>
        <time>1970-01-01T01:19:10.000Z</time>
      </trkpt>
      <trkpt lat="40.342777" lon="-3.368166">
        <ele>762.8</ele>
        <time>1970-01-01T01:19:11.000Z</time>
      </trkpt>
      <trkpt lat="40.342797" lon="-3.368132">
        <ele>763</ele>
        <time>1970-01-01T01:19:12.000Z</time>
      </trkpt>
      <trkpt lat="40.342827" lon="-3.368087">
        <ele>763.2</ele>
        <time>1970-01-01T01:19:13.000Z</time>
      </trkpt>
      <trkpt lat="40.342851" lon="-3.368051">
        <ele>763.2</ele>
        <time>1970-01-01T01:19:14.000Z</time>
      </trkpt>
      <trkpt lat="40.342874" lon="-3.368015">
        <ele>763.4</ele>
        <time>1970-01-01T01:19:15.000Z</time>
      </trkpt>
      <trkpt lat="40.342896" lon="-3.367976">
        <ele>763.8</ele>
        <time>1970-01-01T01:19:16.000Z</time>
      </trkpt>
      <trkpt lat="40.342919" lon="-3.367935">
        <ele>764</ele>
        <time>1970-01-01T01:19:17.000Z</time>
      </trkpt>
      <trkpt lat="40.34294" lon="-3.367898">
        <ele>764.4</ele>
        <time>1970-01-01T01:19:18.000Z</time>
      </trkpt>
      <trkpt lat="40.342961" lon="-3.367864">
        <ele>764.8</ele>
        <time>1970-01-01T01:19:19.000Z</time>
      </trkpt>
      <trkpt lat="40.342985" lon="-3.367828">
        <ele>765</ele>
        <time>1970-01-01T01:19:20.000Z</time>
      </trkpt>
      <trkpt lat="40.343009" lon="-3.367791">
        <ele>765.4</ele>
        <time>1970-01-01T01:19:21.000Z</time>
      </trkpt>
      <trkpt lat="40.343029" lon="-3.367755">
        <ele>765.6</ele>
        <time>1970-01-01T01:19:22.000Z</time>
      </trkpt>
      <trkpt lat="40.343049" lon="-3.367719">
        <ele>766</ele>
        <time>1970-01-01T01:19:23.000Z</time>
      </trkpt>
      <trkpt lat="40.343068" lon="-3.367683">
        <ele>766</ele>
        <time>1970-01-01T01:19:24.000Z</time>
      </trkpt>
      <trkpt lat="40.343087" lon="-3.367648">
        <ele>766.4</ele>
        <time>1970-01-01T01:19:25.000Z</time>
      </trkpt>
      <trkpt lat="40.343106" lon="-3.367611">
        <ele>766.8</ele>
        <time>1970-01-01T01:19:26.000Z</time>
      </trkpt>
      <trkpt lat="40.343125" lon="-3.367574">
        <ele>767</ele>
        <time>1970-01-01T01:19:27.000Z</time>
      </trkpt>
      <trkpt lat="40.343144" lon="-3.367532">
        <ele>767.6</ele>
        <time>1970-01-01T01:19:28.000Z</time>
      </trkpt>
      <trkpt lat="40.343161" lon="-3.367481">
        <ele>767.8</ele>
        <time>1970-01-01T01:19:29.000Z</time>
      </trkpt>
      <trkpt lat="40.343172" lon="-3.367428">
        <ele>767.8</ele>
        <time>1970-01-01T01:19:30.000Z</time>
      </trkpt>
      <trkpt lat="40.343177" lon="-3.367374">
        <ele>768</ele>
        <time>1970-01-01T01:19:31.000Z</time>
      </trkpt>
      <trkpt lat="40.343185" lon="-3.36732">
        <ele>768</ele>
        <time>1970-01-01T01:19:32.000Z</time>
      </trkpt>
      <trkpt lat="40.343197" lon="-3.367271">
        <ele>768</ele>
        <time>1970-01-01T01:19:33.000Z</time>
      </trkpt>
      <trkpt lat="40.343213" lon="-3.367219">
        <ele>768.2</ele>
        <time>1970-01-01T01:19:34.000Z</time>
      </trkpt>
      <trkpt lat="40.343234" lon="-3.367166">
        <ele>768.2</ele>
        <time>1970-01-01T01:19:35.000Z</time>
      </trkpt>
      <trkpt lat="40.343257" lon="-3.367118">
        <ele>768.2</ele>
        <time>1970-01-01T01:19:36.000Z</time>
      </trkpt>
      <trkpt lat="40.343282" lon="-3.367072">
        <ele>768.4</ele>
        <time>1970-01-01T01:19:37.000Z</time>
      </trkpt>
      <trkpt lat="40.343305" lon="-3.367023">
        <ele>768.6</ele>
        <time>1970-01-01T01:19:38.000Z</time>
      </trkpt>
      <trkpt lat="40.343326" lon="-3.366971">
        <ele>768.6</ele>
        <time>1970-01-01T01:19:39.000Z</time>
      </trkpt>
      <trkpt lat="40.343343" lon="-3.366918">
        <ele>768.8</ele>
        <time>1970-01-01T01:19:40.000Z</time>
      </trkpt>
      <trkpt lat="40.343358" lon="-3.366863">
        <ele>768.8</ele>
        <time>1970-01-01T01:19:41.000Z</time>
      </trkpt>
      <trkpt lat="40.343371" lon="-3.366808">
        <ele>768.8</ele>
        <time>1970-01-01T01:19:42.000Z</time>
      </trkpt>
      <trkpt lat="40.343381" lon="-3.366758">
        <ele>768.8</ele>
        <time>1970-01-01T01:19:43.000Z</time>
      </trkpt>
      <trkpt lat="40.343389" lon="-3.366714">
        <ele>769</ele>
        <time>1970-01-01T01:19:44.000Z</time>
      </trkpt>
      <trkpt lat="40.343395" lon="-3.366669">
        <ele>769</ele>
        <time>1970-01-01T01:19:45.000Z</time>
      </trkpt>
      <trkpt lat="40.343402" lon="-3.366621">
        <ele>769</ele>
        <time>1970-01-01T01:19:46.000Z</time>
      </trkpt>
      <trkpt lat="40.343407" lon="-3.366572">
        <ele>769.2</ele>
        <time>1970-01-01T01:19:47.000Z</time>
      </trkpt>
      <trkpt lat="40.343412" lon="-3.366524">
        <ele>769.2</ele>
        <time>1970-01-01T01:19:48.000Z</time>
      </trkpt>
      <trkpt lat="40.343421" lon="-3.366472">
        <ele>769.2</ele>
        <time>1970-01-01T01:19:49.000Z</time>
      </trkpt>
      <trkpt lat="40.34343" lon="-3.366423">
        <ele>769.4</ele>
        <time>1970-01-01T01:19:50.000Z</time>
      </trkpt>
      <trkpt lat="40.343438" lon="-3.366369">
        <ele>769.4</ele>
        <time>1970-01-01T01:19:51.000Z</time>
      </trkpt>
      <trkpt lat="40.343448" lon="-3.366314">
        <ele>769.6</ele>
        <time>1970-01-01T01:19:52.000Z</time>
      </trkpt>
      <trkpt lat="40.343459" lon="-3.366258">
        <ele>769.6</ele>
        <time>1970-01-01T01:19:53.000Z</time>
      </trkpt>
      <trkpt lat="40.343469" lon="-3.366202">
        <ele>769.8</ele>
        <time>1970-01-01T01:19:54.000Z</time>
      </trkpt>
      <trkpt lat="40.343478" lon="-3.366145">
        <ele>770</ele>
        <time>1970-01-01T01:19:55.000Z</time>
      </trkpt>
      <trkpt lat="40.343489" lon="-3.36609">
        <ele>770</ele>
        <time>1970-01-01T01:19:56.000Z</time>
      </trkpt>
      <trkpt lat="40.343501" lon="-3.366037">
        <ele>770.2</ele>
        <time>1970-01-01T01:19:57.000Z</time>
      </trkpt>
      <trkpt lat="40.343514" lon="-3.365986">
        <ele>770.2</ele>
        <time>1970-01-01T01:19:58.000Z</time>
      </trkpt>
      <trkpt lat="40.343528" lon="-3.365932">
        <ele>770.6</ele>
        <time>1970-01-01T01:19:59.000Z</time>
      </trkpt>
      <trkpt lat="40.343541" lon="-3.365883">
        <ele>770.6</ele>
        <time>1970-01-01T01:20:00.000Z</time>
      </trkpt>
      <trkpt lat="40.343555" lon="-3.365836">
        <ele>770.6</ele>
        <time>1970-01-01T01:20:01.000Z</time>
      </trkpt>
      <trkpt lat="40.343569" lon="-3.36579">
        <ele>770.8</ele>
        <time>1970-01-01T01:20:02.000Z</time>
      </trkpt>
      <trkpt lat="40.343583" lon="-3.365744">
        <ele>770.8</ele>
        <time>1970-01-01T01:20:03.000Z</time>
      </trkpt>
      <trkpt lat="40.343598" lon="-3.365698">
        <ele>771</ele>
        <time>1970-01-01T01:20:04.000Z</time>
      </trkpt>
      <trkpt lat="40.343613" lon="-3.365654">
        <ele>771</ele>
        <time>1970-01-01T01:20:05.000Z</time>
      </trkpt>
      <trkpt lat="40.343628" lon="-3.365609">
        <ele>771.2</ele>
        <time>1970-01-01T01:20:06.000Z</time>
      </trkpt>
      <trkpt lat="40.343643" lon="-3.365568">
        <ele>771.2</ele>
        <time>1970-01-01T01:20:07.000Z</time>
      </trkpt>
      <trkpt lat="40.343659" lon="-3.365524">
        <ele>771.4</ele>
        <time>1970-01-01T01:20:08.000Z</time>
      </trkpt>
      <trkpt lat="40.343674" lon="-3.36548">
        <ele>771.4</ele>
        <time>1970-01-01T01:20:09.000Z</time>
      </trkpt>
      <trkpt lat="40.34369" lon="-3.365435">
        <ele>771.4</ele>
        <time>1970-01-01T01:20:10.000Z</time>
      </trkpt>
      <trkpt lat="40.343703" lon="-3.365389">
        <ele>771.6</ele>
        <time>1970-01-01T01:20:11.000Z</time>
      </trkpt>
      <trkpt lat="40.343715" lon="-3.365346">
        <ele>771.6</ele>
        <time>1970-01-01T01:20:12.000Z</time>
      </trkpt>
      <trkpt lat="40.34373" lon="-3.365303">
        <ele>771.8</ele>
        <time>1970-01-01T01:20:13.000Z</time>
      </trkpt>
      <trkpt lat="40.343744" lon="-3.365266">
        <ele>771.8</ele>
        <time>1970-01-01T01:20:14.000Z</time>
      </trkpt>
      <trkpt lat="40.343757" lon="-3.365234">
        <ele>772</ele>
        <time>1970-01-01T01:20:15.000Z</time>
      </trkpt>
      <trkpt lat="40.343772" lon="-3.365199">
        <ele>772.2</ele>
        <time>1970-01-01T01:20:16.000Z</time>
      </trkpt>
      <trkpt lat="40.343787" lon="-3.365166">
        <ele>772.2</ele>
        <time>1970-01-01T01:20:17.000Z</time>
      </trkpt>
      <trkpt lat="40.343806" lon="-3.365138">
        <ele>772.4</ele>
        <time>1970-01-01T01:20:18.000Z</time>
      </trkpt>
      <trkpt lat="40.343829" lon="-3.365116">
        <ele>772.4</ele>
        <time>1970-01-01T01:20:19.000Z</time>
      </trkpt>
      <trkpt lat="40.343853" lon="-3.365099">
        <ele>772.6</ele>
        <time>1970-01-01T01:20:20.000Z</time>
      </trkpt>
      <trkpt lat="40.343875" lon="-3.365084">
        <ele>772.6</ele>
        <time>1970-01-01T01:20:21.000Z</time>
      </trkpt>
      <trkpt lat="40.343897" lon="-3.365068">
        <ele>772.8</ele>
        <time>1970-01-01T01:20:22.000Z</time>
      </trkpt>
      <trkpt lat="40.343918" lon="-3.365052">
        <ele>773</ele>
        <time>1970-01-01T01:20:23.000Z</time>
      </trkpt>
      <trkpt lat="40.343936" lon="-3.365036">
        <ele>773.2</ele>
        <time>1970-01-01T01:20:24.000Z</time>
      </trkpt>
      <trkpt lat="40.343951" lon="-3.365016">
        <ele>773.4</ele>
        <time>1970-01-01T01:20:25.000Z</time>
      </trkpt>
      <trkpt lat="40.343965" lon="-3.365001">
        <ele>773.6</ele>
        <time>1970-01-01T01:20:26.000Z</time>
      </trkpt>
      <trkpt lat="40.343979" lon="-3.364989">
        <ele>773.6</ele>
        <time>1970-01-01T01:20:27.000Z</time>
      </trkpt>
      <trkpt lat="40.343993" lon="-3.364979">
        <ele>774</ele>
        <time>1970-01-01T01:20:28.000Z</time>
      </trkpt>
      <trkpt lat="40.344006" lon="-3.364965">
        <ele>774.6</ele>
        <time>1970-01-01T01:20:29.000Z</time>
      </trkpt>
      <trkpt lat="40.34402" lon="-3.364951">
        <ele>775</ele>
        <time>1970-01-01T01:20:30.000Z</time>
      </trkpt>
      <trkpt lat="40.344032" lon="-3.364938">
        <ele>775.6</ele>
        <time>1970-01-01T01:20:31.000Z</time>
      </trkpt>
      <trkpt lat="40.344044" lon="-3.36493">
        <ele>775.6</ele>
        <time>1970-01-01T01:20:32.000Z</time>
      </trkpt>
      <trkpt lat="40.344058" lon="-3.364918">
        <ele>776</ele>
        <time>1970-01-01T01:20:33.000Z</time>
      </trkpt>
      <trkpt lat="40.344078" lon="-3.364908">
        <ele>776.4</ele>
        <time>1970-01-01T01:20:34.000Z</time>
      </trkpt>
      <trkpt lat="40.344101" lon="-3.364903">
        <ele>776.8</ele>
        <time>1970-01-01T01:20:35.000Z</time>
      </trkpt>
      <trkpt lat="40.344119" lon="-3.364904">
        <ele>776.8</ele>
        <time>1970-01-01T01:20:36.000Z</time>
      </trkpt>
      <trkpt lat="40.344127" lon="-3.364905">
        <ele>777.2</ele>
        <time>1970-01-01T01:20:37.000Z</time>
      </trkpt>
      <trkpt lat="40.344127" lon="-3.364905">
        <ele>777.8</ele>
        <time>1970-01-01T01:20:38.000Z</time>
      </trkpt>
      <trkpt lat="40.344129" lon="-3.364906">
        <ele>778</ele>
        <time>1970-01-01T01:20:39.000Z</time>
      </trkpt>
      <trkpt lat="40.344169" lon="-3.364861">
        <ele>779.4</ele>
        <time>1970-01-01T01:20:44.000Z</time>
      </trkpt>
      <trkpt lat="40.344185" lon="-3.364846">
        <ele>779.6</ele>
        <time>1970-01-01T01:20:45.000Z</time>
      </trkpt>
      <trkpt lat="40.344201" lon="-3.364842">
        <ele>779.6</ele>
        <time>1970-01-01T01:20:46.000Z</time>
      </trkpt>
      <trkpt lat="40.344214" lon="-3.364847">
        <ele>779.8</ele>
        <time>1970-01-01T01:20:47.000Z</time>
      </trkpt>
      <trkpt lat="40.344224" lon="-3.36485">
        <ele>779.8</ele>
        <time>1970-01-01T01:20:48.000Z</time>
      </trkpt>
      <trkpt lat="40.34423" lon="-3.364843">
        <ele>779.8</ele>
        <time>1970-01-01T01:20:49.000Z</time>
      </trkpt>
      <trkpt lat="40.344232" lon="-3.364832">
        <ele>779.8</ele>
        <time>1970-01-01T01:20:50.000Z</time>
      </trkpt>
      <trkpt lat="40.344239" lon="-3.364814">
        <ele>779.8</ele>
        <time>1970-01-01T01:20:51.000Z</time>
      </trkpt>
      <trkpt lat="40.344252" lon="-3.364797">
        <ele>779.8</ele>
        <time>1970-01-01T01:20:52.000Z</time>
      </trkpt>
      <trkpt lat="40.344272" lon="-3.364782">
        <ele>779.8</ele>
        <time>1970-01-01T01:20:53.000Z</time>
      </trkpt>
      <trkpt lat="40.344296" lon="-3.364766">
        <ele>779.8</ele>
        <time>1970-01-01T01:20:54.000Z</time>
      </trkpt>
      <trkpt lat="40.344322" lon="-3.364748">
        <ele>779.8</ele>
        <time>1970-01-01T01:20:55.000Z</time>
      </trkpt>
      <trkpt lat="40.344346" lon="-3.364716">
        <ele>779.8</ele>
        <time>1970-01-01T01:20:56.000Z</time>
      </trkpt>
      <trkpt lat="40.344371" lon="-3.364675">
        <ele>779.8</ele>
        <time>1970-01-01T01:20:57.000Z</time>
      </trkpt>
      <trkpt lat="40.344397" lon="-3.364629">
        <ele>779.8</ele>
        <time>1970-01-01T01:20:58.000Z</time>
      </trkpt>
      <trkpt lat="40.344425" lon="-3.364585">
        <ele>779.8</ele>
        <time>1970-01-01T01:20:59.000Z</time>
      </trkpt>
      <trkpt lat="40.344454" lon="-3.364532">
        <ele>779.8</ele>
        <time>1970-01-01T01:21:00.000Z</time>
      </trkpt>
      <trkpt lat="40.344486" lon="-3.364476">
        <ele>779.8</ele>
        <time>1970-01-01T01:21:01.000Z</time>
      </trkpt>
      <trkpt lat="40.344519" lon="-3.36442">
        <ele>779.8</ele>
        <time>1970-01-01T01:21:02.000Z</time>
      </trkpt>
      <trkpt lat="40.344554" lon="-3.364369">
        <ele>779.8</ele>
        <time>1970-01-01T01:21:03.000Z</time>
      </trkpt>
      <trkpt lat="40.344587" lon="-3.364322">
        <ele>779.8</ele>
        <time>1970-01-01T01:21:04.000Z</time>
      </trkpt>
      <trkpt lat="40.344613" lon="-3.364278">
        <ele>779.8</ele>
        <time>1970-01-01T01:21:05.000Z</time>
      </trkpt>
      <trkpt lat="40.344636" lon="-3.364236">
        <ele>779.8</ele>
        <time>1970-01-01T01:21:06.000Z</time>
      </trkpt>
      <trkpt lat="40.344658" lon="-3.364196">
        <ele>780</ele>
        <time>1970-01-01T01:21:07.000Z</time>
      </trkpt>
      <trkpt lat="40.344683" lon="-3.364155">
        <ele>780</ele>
        <time>1970-01-01T01:21:08.000Z</time>
      </trkpt>
      <trkpt lat="40.344708" lon="-3.364114">
        <ele>780</ele>
        <time>1970-01-01T01:21:09.000Z</time>
      </trkpt>
      <trkpt lat="40.344733" lon="-3.36407">
        <ele>780.2</ele>
        <time>1970-01-01T01:21:10.000Z</time>
      </trkpt>
      <trkpt lat="40.344758" lon="-3.364025">
        <ele>780.2</ele>
        <time>1970-01-01T01:21:11.000Z</time>
      </trkpt>
      <trkpt lat="40.344782" lon="-3.36398">
        <ele>780.2</ele>
        <time>1970-01-01T01:21:12.000Z</time>
      </trkpt>
      <trkpt lat="40.344804" lon="-3.363936">
        <ele>780.2</ele>
        <time>1970-01-01T01:21:13.000Z</time>
      </trkpt>
      <trkpt lat="40.344827" lon="-3.363891">
        <ele>780.4</ele>
        <time>1970-01-01T01:21:14.000Z</time>
      </trkpt>
      <trkpt lat="40.34485" lon="-3.363847">
        <ele>780.4</ele>
        <time>1970-01-01T01:21:15.000Z</time>
      </trkpt>
      <trkpt lat="40.344873" lon="-3.363806">
        <ele>780.4</ele>
        <time>1970-01-01T01:21:16.000Z</time>
      </trkpt>
      <trkpt lat="40.344898" lon="-3.363762">
        <ele>780.4</ele>
        <time>1970-01-01T01:21:17.000Z</time>
      </trkpt>
      <trkpt lat="40.344924" lon="-3.363715">
        <ele>780.6</ele>
        <time>1970-01-01T01:21:18.000Z</time>
      </trkpt>
      <trkpt lat="40.344949" lon="-3.363667">
        <ele>780.8</ele>
        <time>1970-01-01T01:21:19.000Z</time>
      </trkpt>
      <trkpt lat="40.344975" lon="-3.363618">
        <ele>780.8</ele>
        <time>1970-01-01T01:21:20.000Z</time>
      </trkpt>
      <trkpt lat="40.345001" lon="-3.36357">
        <ele>781</ele>
        <time>1970-01-01T01:21:21.000Z</time>
      </trkpt>
      <trkpt lat="40.345026" lon="-3.363524">
        <ele>781.2</ele>
        <time>1970-01-01T01:21:22.000Z</time>
      </trkpt>
      <trkpt lat="40.34505" lon="-3.36348">
        <ele>781.4</ele>
        <time>1970-01-01T01:21:23.000Z</time>
      </trkpt>
      <trkpt lat="40.345075" lon="-3.363433">
        <ele>781.4</ele>
        <time>1970-01-01T01:21:24.000Z</time>
      </trkpt>
      <trkpt lat="40.345101" lon="-3.363382">
        <ele>781.8</ele>
        <time>1970-01-01T01:21:25.000Z</time>
      </trkpt>
      <trkpt lat="40.345126" lon="-3.363334">
        <ele>781.8</ele>
        <time>1970-01-01T01:21:26.000Z</time>
      </trkpt>
      <trkpt lat="40.34515" lon="-3.363285">
        <ele>782</ele>
        <time>1970-01-01T01:21:27.000Z</time>
      </trkpt>
      <trkpt lat="40.345174" lon="-3.363235">
        <ele>782.2</ele>
        <time>1970-01-01T01:21:28.000Z</time>
      </trkpt>
      <trkpt lat="40.345198" lon="-3.363185">
        <ele>782.4</ele>
        <time>1970-01-01T01:21:29.000Z</time>
      </trkpt>
      <trkpt lat="40.345222" lon="-3.363133">
        <ele>782.4</ele>
        <time>1970-01-01T01:21:30.000Z</time>
      </trkpt>
      <trkpt lat="40.345244" lon="-3.363081">
        <ele>782.4</ele>
        <time>1970-01-01T01:21:31.000Z</time>
      </trkpt>
      <trkpt lat="40.345264" lon="-3.363029">
        <ele>782.6</ele>
        <time>1970-01-01T01:21:32.000Z</time>
      </trkpt>
      <trkpt lat="40.345285" lon="-3.362977">
        <ele>782.6</ele>
        <time>1970-01-01T01:21:33.000Z</time>
      </trkpt>
      <trkpt lat="40.345307" lon="-3.362924">
        <ele>782.8</ele>
        <time>1970-01-01T01:21:34.000Z</time>
      </trkpt>
      <trkpt lat="40.345331" lon="-3.362874">
        <ele>783</ele>
        <time>1970-01-01T01:21:35.000Z</time>
      </trkpt>
      <trkpt lat="40.345358" lon="-3.362824">
        <ele>783</ele>
        <time>1970-01-01T01:21:36.000Z</time>
      </trkpt>
      <trkpt lat="40.345386" lon="-3.362778">
        <ele>783.2</ele>
        <time>1970-01-01T01:21:37.000Z</time>
      </trkpt>
      <trkpt lat="40.345413" lon="-3.36273">
        <ele>783.2</ele>
        <time>1970-01-01T01:21:38.000Z</time>
      </trkpt>
      <trkpt lat="40.345439" lon="-3.362681">
        <ele>783.2</ele>
        <time>1970-01-01T01:21:39.000Z</time>
      </trkpt>
      <trkpt lat="40.345467" lon="-3.362633">
        <ele>783.4</ele>
        <time>1970-01-01T01:21:40.000Z</time>
      </trkpt>
      <trkpt lat="40.345496" lon="-3.362589">
        <ele>783.6</ele>
        <time>1970-01-01T01:21:41.000Z</time>
      </trkpt>
      <trkpt lat="40.345528" lon="-3.362553">
        <ele>783.8</ele>
        <time>1970-01-01T01:21:42.000Z</time>
      </trkpt>
      <trkpt lat="40.34556" lon="-3.362529">
        <ele>783.8</ele>
        <time>1970-01-01T01:21:43.000Z</time>
      </trkpt>
      <trkpt lat="40.345595" lon="-3.362513">
        <ele>784</ele>
        <time>1970-01-01T01:21:44.000Z</time>
      </trkpt>
      <trkpt lat="40.345634" lon="-3.362498">
        <ele>784</ele>
        <time>1970-01-01T01:21:45.000Z</time>
      </trkpt>
      <trkpt lat="40.345676" lon="-3.362477">
        <ele>784.2</ele>
        <time>1970-01-01T01:21:46.000Z</time>
      </trkpt>
      <trkpt lat="40.345718" lon="-3.362446">
        <ele>784.2</ele>
        <time>1970-01-01T01:21:47.000Z</time>
      </trkpt>
      <trkpt lat="40.345756" lon="-3.362411">
        <ele>784.2</ele>
        <time>1970-01-01T01:21:48.000Z</time>
      </trkpt>
      <trkpt lat="40.345792" lon="-3.362376">
        <ele>784.2</ele>
        <time>1970-01-01T01:21:49.000Z</time>
      </trkpt>
      <trkpt lat="40.345829" lon="-3.362343">
        <ele>784.2</ele>
        <time>1970-01-01T01:21:50.000Z</time>
      </trkpt>
      <trkpt lat="40.345864" lon="-3.362312">
        <ele>784.2</ele>
        <time>1970-01-01T01:21:51.000Z</time>
      </trkpt>
      <trkpt lat="40.3459" lon="-3.362284">
        <ele>784.2</ele>
        <time>1970-01-01T01:21:52.000Z</time>
      </trkpt>
      <trkpt lat="40.345938" lon="-3.362265">
        <ele>784.2</ele>
        <time>1970-01-01T01:21:53.000Z</time>
      </trkpt>
      <trkpt lat="40.345977" lon="-3.362254">
        <ele>784.2</ele>
        <time>1970-01-01T01:21:54.000Z</time>
      </trkpt>
      <trkpt lat="40.346018" lon="-3.362249">
        <ele>784.2</ele>
        <time>1970-01-01T01:21:55.000Z</time>
      </trkpt>
      <trkpt lat="40.346059" lon="-3.36225">
        <ele>784</ele>
        <time>1970-01-01T01:21:56.000Z</time>
      </trkpt>
      <trkpt lat="40.346099" lon="-3.362255">
        <ele>784</ele>
        <time>1970-01-01T01:21:57.000Z</time>
      </trkpt>
      <trkpt lat="40.346138" lon="-3.362264">
        <ele>784</ele>
        <time>1970-01-01T01:21:58.000Z</time>
      </trkpt>
      <trkpt lat="40.346176" lon="-3.362272">
        <ele>784</ele>
        <time>1970-01-01T01:21:59.000Z</time>
      </trkpt>
      <trkpt lat="40.346214" lon="-3.362276">
        <ele>784</ele>
        <time>1970-01-01T01:22:00.000Z</time>
      </trkpt>
      <trkpt lat="40.346251" lon="-3.362279">
        <ele>784</ele>
        <time>1970-01-01T01:22:01.000Z</time>
      </trkpt>
      <trkpt lat="40.346291" lon="-3.362275">
        <ele>784</ele>
        <time>1970-01-01T01:22:02.000Z</time>
      </trkpt>
      <trkpt lat="40.34633" lon="-3.362268">
        <ele>784</ele>
        <time>1970-01-01T01:22:03.000Z</time>
      </trkpt>
      <trkpt lat="40.346363" lon="-3.362259">
        <ele>783.8</ele>
        <time>1970-01-01T01:22:04.000Z</time>
      </trkpt>
      <trkpt lat="40.346384" lon="-3.362249">
        <ele>783.8</ele>
        <time>1970-01-01T01:22:05.000Z</time>
      </trkpt>
      <trkpt lat="40.346403" lon="-3.362241">
        <ele>783.8</ele>
        <time>1970-01-01T01:22:06.000Z</time>
      </trkpt>
      <trkpt lat="40.346423" lon="-3.362235">
        <ele>783.6</ele>
        <time>1970-01-01T01:22:07.000Z</time>
      </trkpt>
      <trkpt lat="40.346446" lon="-3.362231">
        <ele>783.6</ele>
        <time>1970-01-01T01:22:08.000Z</time>
      </trkpt>
      <trkpt lat="40.346473" lon="-3.362238">
        <ele>783.6</ele>
        <time>1970-01-01T01:22:09.000Z</time>
      </trkpt>
      <trkpt lat="40.346498" lon="-3.362265">
        <ele>783.6</ele>
        <time>1970-01-01T01:22:10.000Z</time>
      </trkpt>
      <trkpt lat="40.346518" lon="-3.362298">
        <ele>783.6</ele>
        <time>1970-01-01T01:22:11.000Z</time>
      </trkpt>
      <trkpt lat="40.346534" lon="-3.362331">
        <ele>783.6</ele>
        <time>1970-01-01T01:22:12.000Z</time>
      </trkpt>
      <trkpt lat="40.346552" lon="-3.362368">
        <ele>783.4</ele>
        <time>1970-01-01T01:22:13.000Z</time>
      </trkpt>
      <trkpt lat="40.346571" lon="-3.362408">
        <ele>783.2</ele>
        <time>1970-01-01T01:22:14.000Z</time>
      </trkpt>
      <trkpt lat="40.346592" lon="-3.362448">
        <ele>783.2</ele>
        <time>1970-01-01T01:22:15.000Z</time>
      </trkpt>
      <trkpt lat="40.346616" lon="-3.362492">
        <ele>783</ele>
        <time>1970-01-01T01:22:16.000Z</time>
      </trkpt>
      <trkpt lat="40.34664" lon="-3.362543">
        <ele>782.8</ele>
        <time>1970-01-01T01:22:17.000Z</time>
      </trkpt>
      <trkpt lat="40.346661" lon="-3.362598">
        <ele>782.8</ele>
        <time>1970-01-01T01:22:18.000Z</time>
      </trkpt>
      <trkpt lat="40.346681" lon="-3.362655">
        <ele>782.6</ele>
        <time>1970-01-01T01:22:19.000Z</time>
      </trkpt>
      <trkpt lat="40.346699" lon="-3.362714">
        <ele>782.6</ele>
        <time>1970-01-01T01:22:20.000Z</time>
      </trkpt>
      <trkpt lat="40.346714" lon="-3.36277">
        <ele>782.4</ele>
        <time>1970-01-01T01:22:21.000Z</time>
      </trkpt>
      <trkpt lat="40.346727" lon="-3.362826">
        <ele>782</ele>
        <time>1970-01-01T01:22:22.000Z</time>
      </trkpt>
      <trkpt lat="40.346739" lon="-3.362883">
        <ele>782</ele>
        <time>1970-01-01T01:22:23.000Z</time>
      </trkpt>
      <trkpt lat="40.34675" lon="-3.362942">
        <ele>781.8</ele>
        <time>1970-01-01T01:22:24.000Z</time>
      </trkpt>
      <trkpt lat="40.346759" lon="-3.362997">
        <ele>781.8</ele>
        <time>1970-01-01T01:22:25.000Z</time>
      </trkpt>
      <trkpt lat="40.346765" lon="-3.363053">
        <ele>781.8</ele>
        <time>1970-01-01T01:22:26.000Z</time>
      </trkpt>
      <trkpt lat="40.346771" lon="-3.363104">
        <ele>781.8</ele>
        <time>1970-01-01T01:22:27.000Z</time>
      </trkpt>
      <trkpt lat="40.346777" lon="-3.36315">
        <ele>781.8</ele>
        <time>1970-01-01T01:22:28.000Z</time>
      </trkpt>
      <trkpt lat="40.346782" lon="-3.363193">
        <ele>781.8</ele>
        <time>1970-01-01T01:22:29.000Z</time>
      </trkpt>
      <trkpt lat="40.346786" lon="-3.363234">
        <ele>781.8</ele>
        <time>1970-01-01T01:22:30.000Z</time>
      </trkpt>
      <trkpt lat="40.346791" lon="-3.363271">
        <ele>782</ele>
        <time>1970-01-01T01:22:31.000Z</time>
      </trkpt>
      <trkpt lat="40.346796" lon="-3.36331">
        <ele>782.2</ele>
        <time>1970-01-01T01:22:32.000Z</time>
      </trkpt>
      <trkpt lat="40.3468" lon="-3.363349">
        <ele>782.6</ele>
        <time>1970-01-01T01:22:33.000Z</time>
      </trkpt>
      <trkpt lat="40.34681" lon="-3.363382">
        <ele>782.8</ele>
        <time>1970-01-01T01:22:34.000Z</time>
      </trkpt>
      <trkpt lat="40.346818" lon="-3.363418">
        <ele>783.2</ele>
        <time>1970-01-01T01:22:35.000Z</time>
      </trkpt>
      <trkpt lat="40.346834" lon="-3.363453">
        <ele>783.4</ele>
        <time>1970-01-01T01:22:36.000Z</time>
      </trkpt>
      <trkpt lat="40.346861" lon="-3.363485">
        <ele>783.6</ele>
        <time>1970-01-01T01:22:37.000Z</time>
      </trkpt>
      <trkpt lat="40.34689" lon="-3.363517">
        <ele>783.8</ele>
        <time>1970-01-01T01:22:38.000Z</time>
      </trkpt>
      <trkpt lat="40.34692" lon="-3.363556">
        <ele>783.8</ele>
        <time>1970-01-01T01:22:39.000Z</time>
      </trkpt>
      <trkpt lat="40.346949" lon="-3.363596">
        <ele>784</ele>
        <time>1970-01-01T01:22:40.000Z</time>
      </trkpt>
      <trkpt lat="40.346975" lon="-3.363639">
        <ele>784</ele>
        <time>1970-01-01T01:22:41.000Z</time>
      </trkpt>
      <trkpt lat="40.347003" lon="-3.363682">
        <ele>784</ele>
        <time>1970-01-01T01:22:42.000Z</time>
      </trkpt>
      <trkpt lat="40.347031" lon="-3.363722">
        <ele>784</ele>
        <time>1970-01-01T01:22:43.000Z</time>
      </trkpt>
      <trkpt lat="40.34706" lon="-3.363763">
        <ele>784</ele>
        <time>1970-01-01T01:22:44.000Z</time>
      </trkpt>
      <trkpt lat="40.347088" lon="-3.363804">
        <ele>784</ele>
        <time>1970-01-01T01:22:45.000Z</time>
      </trkpt>
      <trkpt lat="40.347116" lon="-3.363843">
        <ele>784.2</ele>
        <time>1970-01-01T01:22:46.000Z</time>
      </trkpt>
      <trkpt lat="40.347144" lon="-3.363882">
        <ele>784.2</ele>
        <time>1970-01-01T01:22:47.000Z</time>
      </trkpt>
      <trkpt lat="40.34717" lon="-3.363921">
        <ele>784.2</ele>
        <time>1970-01-01T01:22:48.000Z</time>
      </trkpt>
      <trkpt lat="40.347197" lon="-3.363958">
        <ele>784.4</ele>
        <time>1970-01-01T01:22:49.000Z</time>
      </trkpt>
      <trkpt lat="40.347227" lon="-3.363997">
        <ele>784.4</ele>
        <time>1970-01-01T01:22:50.000Z</time>
      </trkpt>
      <trkpt lat="40.347256" lon="-3.364036">
        <ele>784.6</ele>
        <time>1970-01-01T01:22:51.000Z</time>
      </trkpt>
      <trkpt lat="40.347288" lon="-3.364075">
        <ele>784.6</ele>
        <time>1970-01-01T01:22:52.000Z</time>
      </trkpt>
      <trkpt lat="40.347321" lon="-3.364116">
        <ele>784.6</ele>
        <time>1970-01-01T01:22:53.000Z</time>
      </trkpt>
      <trkpt lat="40.347351" lon="-3.36416">
        <ele>784.6</ele>
        <time>1970-01-01T01:22:54.000Z</time>
      </trkpt>
      <trkpt lat="40.347384" lon="-3.364206">
        <ele>784.8</ele>
        <time>1970-01-01T01:22:55.000Z</time>
      </trkpt>
      <trkpt lat="40.347416" lon="-3.364252">
        <ele>784.8</ele>
        <time>1970-01-01T01:22:56.000Z</time>
      </trkpt>
      <trkpt lat="40.347446" lon="-3.364298">
        <ele>784.8</ele>
        <time>1970-01-01T01:22:57.000Z</time>
      </trkpt>
      <trkpt lat="40.347477" lon="-3.364344">
        <ele>784.8</ele>
        <time>1970-01-01T01:22:58.000Z</time>
      </trkpt>
      <trkpt lat="40.347506" lon="-3.364389">
        <ele>784.8</ele>
        <time>1970-01-01T01:22:59.000Z</time>
      </trkpt>
      <trkpt lat="40.347535" lon="-3.364436">
        <ele>784.8</ele>
        <time>1970-01-01T01:23:00.000Z</time>
      </trkpt>
      <trkpt lat="40.347565" lon="-3.364485">
        <ele>784.8</ele>
        <time>1970-01-01T01:23:01.000Z</time>
      </trkpt>
      <trkpt lat="40.347595" lon="-3.364533">
        <ele>784.8</ele>
        <time>1970-01-01T01:23:02.000Z</time>
      </trkpt>
      <trkpt lat="40.347625" lon="-3.364585">
        <ele>784.8</ele>
        <time>1970-01-01T01:23:03.000Z</time>
      </trkpt>
      <trkpt lat="40.347652" lon="-3.364636">
        <ele>784.6</ele>
        <time>1970-01-01T01:23:04.000Z</time>
      </trkpt>
      <trkpt lat="40.347679" lon="-3.364685">
        <ele>784.6</ele>
        <time>1970-01-01T01:23:05.000Z</time>
      </trkpt>
      <trkpt lat="40.347708" lon="-3.364733">
        <ele>784.6</ele>
        <time>1970-01-01T01:23:06.000Z</time>
      </trkpt>
      <trkpt lat="40.34774" lon="-3.364781">
        <ele>784.6</ele>
        <time>1970-01-01T01:23:07.000Z</time>
      </trkpt>
      <trkpt lat="40.347771" lon="-3.364829">
        <ele>784.6</ele>
        <time>1970-01-01T01:23:08.000Z</time>
      </trkpt>
      <trkpt lat="40.347806" lon="-3.364877">
        <ele>784.6</ele>
        <time>1970-01-01T01:23:09.000Z</time>
      </trkpt>
      <trkpt lat="40.347841" lon="-3.364922">
        <ele>784.6</ele>
        <time>1970-01-01T01:23:10.000Z</time>
      </trkpt>
      <trkpt lat="40.347876" lon="-3.364967">
        <ele>784.6</ele>
        <time>1970-01-01T01:23:11.000Z</time>
      </trkpt>
      <trkpt lat="40.347911" lon="-3.365013">
        <ele>784.6</ele>
        <time>1970-01-01T01:23:12.000Z</time>
      </trkpt>
      <trkpt lat="40.347946" lon="-3.36506">
        <ele>784.6</ele>
        <time>1970-01-01T01:23:13.000Z</time>
      </trkpt>
      <trkpt lat="40.34798" lon="-3.365109">
        <ele>784.6</ele>
        <time>1970-01-01T01:23:14.000Z</time>
      </trkpt>
      <trkpt lat="40.348013" lon="-3.36516">
        <ele>784.6</ele>
        <time>1970-01-01T01:23:15.000Z</time>
      </trkpt>
      <trkpt lat="40.348047" lon="-3.365209">
        <ele>784.6</ele>
        <time>1970-01-01T01:23:16.000Z</time>
      </trkpt>
      <trkpt lat="40.34808" lon="-3.365258">
        <ele>784.6</ele>
        <time>1970-01-01T01:23:17.000Z</time>
      </trkpt>
      <trkpt lat="40.348111" lon="-3.365309">
        <ele>784.6</ele>
        <time>1970-01-01T01:23:18.000Z</time>
      </trkpt>
      <trkpt lat="40.348143" lon="-3.365357">
        <ele>784.6</ele>
        <time>1970-01-01T01:23:19.000Z</time>
      </trkpt>
      <trkpt lat="40.348177" lon="-3.365404">
        <ele>784.6</ele>
        <time>1970-01-01T01:23:20.000Z</time>
      </trkpt>
      <trkpt lat="40.348212" lon="-3.365451">
        <ele>784.6</ele>
        <time>1970-01-01T01:23:21.000Z</time>
      </trkpt>
      <trkpt lat="40.348244" lon="-3.365499">
        <ele>784.6</ele>
        <time>1970-01-01T01:23:22.000Z</time>
      </trkpt>
      <trkpt lat="40.348277" lon="-3.365547">
        <ele>784.8</ele>
        <time>1970-01-01T01:23:23.000Z</time>
      </trkpt>
      <trkpt lat="40.34831" lon="-3.365592">
        <ele>784.6</ele>
        <time>1970-01-01T01:23:24.000Z</time>
      </trkpt>
      <trkpt lat="40.348343" lon="-3.365635">
        <ele>784.8</ele>
        <time>1970-01-01T01:23:25.000Z</time>
      </trkpt>
      <trkpt lat="40.348375" lon="-3.365676">
        <ele>784.8</ele>
        <time>1970-01-01T01:23:26.000Z</time>
      </trkpt>
      <trkpt lat="40.34841" lon="-3.365714">
        <ele>784.8</ele>
        <time>1970-01-01T01:23:27.000Z</time>
      </trkpt>
      <trkpt lat="40.348445" lon="-3.365755">
        <ele>784.8</ele>
        <time>1970-01-01T01:23:28.000Z</time>
      </trkpt>
      <trkpt lat="40.348481" lon="-3.365794">
        <ele>785</ele>
        <time>1970-01-01T01:23:29.000Z</time>
      </trkpt>
      <trkpt lat="40.348517" lon="-3.36583">
        <ele>785</ele>
        <time>1970-01-01T01:23:30.000Z</time>
      </trkpt>
      <trkpt lat="40.348554" lon="-3.365869">
        <ele>785</ele>
        <time>1970-01-01T01:23:31.000Z</time>
      </trkpt>
      <trkpt lat="40.348591" lon="-3.365908">
        <ele>785</ele>
        <time>1970-01-01T01:23:32.000Z</time>
      </trkpt>
      <trkpt lat="40.348629" lon="-3.365944">
        <ele>785</ele>
        <time>1970-01-01T01:23:33.000Z</time>
      </trkpt>
      <trkpt lat="40.348665" lon="-3.365981">
        <ele>785.2</ele>
        <time>1970-01-01T01:23:34.000Z</time>
      </trkpt>
      <trkpt lat="40.348699" lon="-3.366021">
        <ele>785.2</ele>
        <time>1970-01-01T01:23:35.000Z</time>
      </trkpt>
      <trkpt lat="40.348731" lon="-3.366063">
        <ele>785.4</ele>
        <time>1970-01-01T01:23:36.000Z</time>
      </trkpt>
      <trkpt lat="40.348761" lon="-3.366105">
        <ele>785.4</ele>
        <time>1970-01-01T01:23:37.000Z</time>
      </trkpt>
      <trkpt lat="40.348792" lon="-3.366138">
        <ele>785.6</ele>
        <time>1970-01-01T01:23:38.000Z</time>
      </trkpt>
      <trkpt lat="40.348826" lon="-3.366161">
        <ele>785.6</ele>
        <time>1970-01-01T01:23:39.000Z</time>
      </trkpt>
      <trkpt lat="40.348862" lon="-3.366181">
        <ele>785.6</ele>
        <time>1970-01-01T01:23:40.000Z</time>
      </trkpt>
      <trkpt lat="40.348896" lon="-3.366201">
        <ele>785.6</ele>
        <time>1970-01-01T01:23:41.000Z</time>
      </trkpt>
      <trkpt lat="40.348927" lon="-3.366225">
        <ele>785.8</ele>
        <time>1970-01-01T01:23:42.000Z</time>
      </trkpt>
      <trkpt lat="40.348955" lon="-3.36625">
        <ele>785.8</ele>
        <time>1970-01-01T01:23:43.000Z</time>
      </trkpt>
      <trkpt lat="40.348982" lon="-3.366271">
        <ele>786</ele>
        <time>1970-01-01T01:23:44.000Z</time>
      </trkpt>
      <trkpt lat="40.349013" lon="-3.366284">
        <ele>786</ele>
        <time>1970-01-01T01:23:45.000Z</time>
      </trkpt>
      <trkpt lat="40.349043" lon="-3.366275">
        <ele>786.2</ele>
        <time>1970-01-01T01:23:46.000Z</time>
      </trkpt>
      <trkpt lat="40.34907" lon="-3.366243">
        <ele>786.2</ele>
        <time>1970-01-01T01:23:47.000Z</time>
      </trkpt>
      <trkpt lat="40.349097" lon="-3.366199">
        <ele>786.2</ele>
        <time>1970-01-01T01:23:48.000Z</time>
      </trkpt>
      <trkpt lat="40.349125" lon="-3.366153">
        <ele>786.2</ele>
        <time>1970-01-01T01:23:49.000Z</time>
      </trkpt>
      <trkpt lat="40.349157" lon="-3.366105">
        <ele>786.2</ele>
        <time>1970-01-01T01:23:50.000Z</time>
      </trkpt>
      <trkpt lat="40.34919" lon="-3.366059">
        <ele>786.2</ele>
        <time>1970-01-01T01:23:51.000Z</time>
      </trkpt>
      <trkpt lat="40.349226" lon="-3.366013">
        <ele>786.2</ele>
        <time>1970-01-01T01:23:52.000Z</time>
      </trkpt>
      <trkpt lat="40.349261" lon="-3.365965">
        <ele>786.2</ele>
        <time>1970-01-01T01:23:53.000Z</time>
      </trkpt>
      <trkpt lat="40.349298" lon="-3.365918">
        <ele>786.4</ele>
        <time>1970-01-01T01:23:54.000Z</time>
      </trkpt>
      <trkpt lat="40.349333" lon="-3.365875">
        <ele>786.4</ele>
        <time>1970-01-01T01:23:55.000Z</time>
      </trkpt>
      <trkpt lat="40.349365" lon="-3.365834">
        <ele>786.4</ele>
        <time>1970-01-01T01:23:56.000Z</time>
      </trkpt>
      <trkpt lat="40.349399" lon="-3.365792">
        <ele>786.4</ele>
        <time>1970-01-01T01:23:57.000Z</time>
      </trkpt>
      <trkpt lat="40.349433" lon="-3.365748">
        <ele>786.6</ele>
        <time>1970-01-01T01:23:58.000Z</time>
      </trkpt>
      <trkpt lat="40.349467" lon="-3.36571">
        <ele>786.6</ele>
        <time>1970-01-01T01:23:59.000Z</time>
      </trkpt>
      <trkpt lat="40.349503" lon="-3.365678">
        <ele>786.6</ele>
        <time>1970-01-01T01:24:00.000Z</time>
      </trkpt>
      <trkpt lat="40.349536" lon="-3.365647">
        <ele>786.6</ele>
        <time>1970-01-01T01:24:01.000Z</time>
      </trkpt>
      <trkpt lat="40.349571" lon="-3.365613">
        <ele>786.6</ele>
        <time>1970-01-01T01:24:02.000Z</time>
      </trkpt>
      <trkpt lat="40.349607" lon="-3.365577">
        <ele>786.6</ele>
        <time>1970-01-01T01:24:03.000Z</time>
      </trkpt>
      <trkpt lat="40.349642" lon="-3.365537">
        <ele>786.6</ele>
        <time>1970-01-01T01:24:04.000Z</time>
      </trkpt>
      <trkpt lat="40.349676" lon="-3.365499">
        <ele>786.6</ele>
        <time>1970-01-01T01:24:05.000Z</time>
      </trkpt>
      <trkpt lat="40.349711" lon="-3.365463">
        <ele>786.6</ele>
        <time>1970-01-01T01:24:06.000Z</time>
      </trkpt>
      <trkpt lat="40.349746" lon="-3.365425">
        <ele>786.6</ele>
        <time>1970-01-01T01:24:07.000Z</time>
      </trkpt>
      <trkpt lat="40.349781" lon="-3.365383">
        <ele>786.6</ele>
        <time>1970-01-01T01:24:08.000Z</time>
      </trkpt>
      <trkpt lat="40.349816" lon="-3.36534">
        <ele>786.4</ele>
        <time>1970-01-01T01:24:09.000Z</time>
      </trkpt>
      <trkpt lat="40.34985" lon="-3.365297">
        <ele>786.2</ele>
        <time>1970-01-01T01:24:10.000Z</time>
      </trkpt>
      <trkpt lat="40.349888" lon="-3.365254">
        <ele>786</ele>
        <time>1970-01-01T01:24:11.000Z</time>
      </trkpt>
      <trkpt lat="40.349927" lon="-3.365211">
        <ele>785.8</ele>
        <time>1970-01-01T01:24:12.000Z</time>
      </trkpt>
      <trkpt lat="40.349965" lon="-3.365165">
        <ele>785.4</ele>
        <time>1970-01-01T01:24:13.000Z</time>
      </trkpt>
      <trkpt lat="40.350001" lon="-3.365117">
        <ele>785.4</ele>
        <time>1970-01-01T01:24:14.000Z</time>
      </trkpt>
      <trkpt lat="40.350032" lon="-3.365062">
        <ele>785.2</ele>
        <time>1970-01-01T01:24:15.000Z</time>
      </trkpt>
      <trkpt lat="40.35006" lon="-3.365001">
        <ele>785.2</ele>
        <time>1970-01-01T01:24:16.000Z</time>
      </trkpt>
      <trkpt lat="40.350084" lon="-3.364938">
        <ele>785</ele>
        <time>1970-01-01T01:24:17.000Z</time>
      </trkpt>
      <trkpt lat="40.350103" lon="-3.36487">
        <ele>785</ele>
        <time>1970-01-01T01:24:18.000Z</time>
      </trkpt>
      <trkpt lat="40.350118" lon="-3.364802">
        <ele>784.8</ele>
        <time>1970-01-01T01:24:19.000Z</time>
      </trkpt>
      <trkpt lat="40.350135" lon="-3.364733">
        <ele>784.6</ele>
        <time>1970-01-01T01:24:20.000Z</time>
      </trkpt>
      <trkpt lat="40.350153" lon="-3.364664">
        <ele>784.6</ele>
        <time>1970-01-01T01:24:21.000Z</time>
      </trkpt>
      <trkpt lat="40.350167" lon="-3.364592">
        <ele>784.2</ele>
        <time>1970-01-01T01:24:22.000Z</time>
      </trkpt>
      <trkpt lat="40.350177" lon="-3.364521">
        <ele>784.2</ele>
        <time>1970-01-01T01:24:23.000Z</time>
      </trkpt>
      <trkpt lat="40.350181" lon="-3.36445">
        <ele>783.8</ele>
        <time>1970-01-01T01:24:24.000Z</time>
      </trkpt>
      <trkpt lat="40.350186" lon="-3.364376">
        <ele>783.8</ele>
        <time>1970-01-01T01:24:25.000Z</time>
      </trkpt>
      <trkpt lat="40.350195" lon="-3.364299">
        <ele>783.6</ele>
        <time>1970-01-01T01:24:26.000Z</time>
      </trkpt>
      <trkpt lat="40.350207" lon="-3.36422">
        <ele>783.4</ele>
        <time>1970-01-01T01:24:27.000Z</time>
      </trkpt>
      <trkpt lat="40.350216" lon="-3.364142">
        <ele>783.2</ele>
        <time>1970-01-01T01:24:28.000Z</time>
      </trkpt>
      <trkpt lat="40.350221" lon="-3.364065">
        <ele>783</ele>
        <time>1970-01-01T01:24:29.000Z</time>
      </trkpt>
      <trkpt lat="40.350224" lon="-3.363994">
        <ele>783</ele>
        <time>1970-01-01T01:24:30.000Z</time>
      </trkpt>
      <trkpt lat="40.350218" lon="-3.363926">
        <ele>782.4</ele>
        <time>1970-01-01T01:24:31.000Z</time>
      </trkpt>
      <trkpt lat="40.350204" lon="-3.363863">
        <ele>782.2</ele>
        <time>1970-01-01T01:24:32.000Z</time>
      </trkpt>
      <trkpt lat="40.350187" lon="-3.363806">
        <ele>781.6</ele>
        <time>1970-01-01T01:24:33.000Z</time>
      </trkpt>
      <trkpt lat="40.350173" lon="-3.363745">
        <ele>781.4</ele>
        <time>1970-01-01T01:24:34.000Z</time>
      </trkpt>
      <trkpt lat="40.35016" lon="-3.363682">
        <ele>780.6</ele>
        <time>1970-01-01T01:24:35.000Z</time>
      </trkpt>
      <trkpt lat="40.350154" lon="-3.363616">
        <ele>780.2</ele>
        <time>1970-01-01T01:24:36.000Z</time>
      </trkpt>
      <trkpt lat="40.350149" lon="-3.363547">
        <ele>779.8</ele>
        <time>1970-01-01T01:24:37.000Z</time>
      </trkpt>
      <trkpt lat="40.350141" lon="-3.36348">
        <ele>779</ele>
        <time>1970-01-01T01:24:38.000Z</time>
      </trkpt>
      <trkpt lat="40.350123" lon="-3.363415">
        <ele>778.6</ele>
        <time>1970-01-01T01:24:39.000Z</time>
      </trkpt>
      <trkpt lat="40.350097" lon="-3.363363">
        <ele>778</ele>
        <time>1970-01-01T01:24:40.000Z</time>
      </trkpt>
      <trkpt lat="40.35007" lon="-3.363319">
        <ele>777.8</ele>
        <time>1970-01-01T01:24:41.000Z</time>
      </trkpt>
      <trkpt lat="40.350041" lon="-3.363273">
        <ele>777.2</ele>
        <time>1970-01-01T01:24:42.000Z</time>
      </trkpt>
      <trkpt lat="40.350015" lon="-3.363228">
        <ele>777</ele>
        <time>1970-01-01T01:24:43.000Z</time>
      </trkpt>
      <trkpt lat="40.349992" lon="-3.36319">
        <ele>776.4</ele>
        <time>1970-01-01T01:24:44.000Z</time>
      </trkpt>
      <trkpt lat="40.349972" lon="-3.363157">
        <ele>776</ele>
        <time>1970-01-01T01:24:45.000Z</time>
      </trkpt>
      <trkpt lat="40.349953" lon="-3.363126">
        <ele>775.4</ele>
        <time>1970-01-01T01:24:46.000Z</time>
      </trkpt>
      <trkpt lat="40.349932" lon="-3.363093">
        <ele>774.4</ele>
        <time>1970-01-01T01:24:47.000Z</time>
      </trkpt>
      <trkpt lat="40.34991" lon="-3.363058">
        <ele>774</ele>
        <time>1970-01-01T01:24:48.000Z</time>
      </trkpt>
      <trkpt lat="40.349891" lon="-3.363022">
        <ele>773.2</ele>
        <time>1970-01-01T01:24:49.000Z</time>
      </trkpt>
      <trkpt lat="40.349875" lon="-3.362978">
        <ele>773</ele>
        <time>1970-01-01T01:24:50.000Z</time>
      </trkpt>
      <trkpt lat="40.349861" lon="-3.362924">
        <ele>772.4</ele>
        <time>1970-01-01T01:24:51.000Z</time>
      </trkpt>
      <trkpt lat="40.349844" lon="-3.362877">
        <ele>772.2</ele>
        <time>1970-01-01T01:24:52.000Z</time>
      </trkpt>
      <trkpt lat="40.349829" lon="-3.362833">
        <ele>771.6</ele>
        <time>1970-01-01T01:24:53.000Z</time>
      </trkpt>
      <trkpt lat="40.349816" lon="-3.362795">
        <ele>770.8</ele>
        <time>1970-01-01T01:24:54.000Z</time>
      </trkpt>
      <trkpt lat="40.349799" lon="-3.362767">
        <ele>770.6</ele>
        <time>1970-01-01T01:24:55.000Z</time>
      </trkpt>
      <trkpt lat="40.349781" lon="-3.362747">
        <ele>770</ele>
        <time>1970-01-01T01:24:56.000Z</time>
      </trkpt>
      <trkpt lat="40.349763" lon="-3.362737">
        <ele>769.8</ele>
        <time>1970-01-01T01:24:57.000Z</time>
      </trkpt>
      <trkpt lat="40.349751" lon="-3.362732">
        <ele>769.2</ele>
        <time>1970-01-01T01:24:58.000Z</time>
      </trkpt>
      <trkpt lat="40.349748" lon="-3.362733">
        <ele>769</ele>
        <time>1970-01-01T01:24:59.000Z</time>
      </trkpt>
      <trkpt lat="40.349748" lon="-3.362733">
        <ele>768.6</ele>
        <time>1970-01-01T01:25:00.000Z</time>
      </trkpt>
      <trkpt lat="40.34971" lon="-3.362703">
        <ele>766.6</ele>
        <time>1970-01-01T01:28:40.000Z</time>
      </trkpt>
      <trkpt lat="40.349688" lon="-3.362681">
        <ele>766.6</ele>
        <time>1970-01-01T01:28:41.000Z</time>
      </trkpt>
      <trkpt lat="40.349666" lon="-3.362662">
        <ele>766.6</ele>
        <time>1970-01-01T01:28:42.000Z</time>
      </trkpt>
      <trkpt lat="40.349648" lon="-3.362643">
        <ele>766.6</ele>
        <time>1970-01-01T01:28:43.000Z</time>
      </trkpt>
      <trkpt lat="40.349631" lon="-3.362623">
        <ele>766.6</ele>
        <time>1970-01-01T01:28:44.000Z</time>
      </trkpt>
      <trkpt lat="40.349617" lon="-3.362603">
        <ele>766.4</ele>
        <time>1970-01-01T01:28:45.000Z</time>
      </trkpt>
      <trkpt lat="40.349604" lon="-3.362584">
        <ele>766.4</ele>
        <time>1970-01-01T01:28:46.000Z</time>
      </trkpt>
      <trkpt lat="40.34959" lon="-3.362563">
        <ele>766.2</ele>
        <time>1970-01-01T01:28:47.000Z</time>
      </trkpt>
      <trkpt lat="40.349573" lon="-3.362538">
        <ele>766.2</ele>
        <time>1970-01-01T01:28:48.000Z</time>
      </trkpt>
      <trkpt lat="40.349553" lon="-3.362507">
        <ele>766.2</ele>
        <time>1970-01-01T01:28:49.000Z</time>
      </trkpt>
      <trkpt lat="40.349531" lon="-3.362472">
        <ele>766.2</ele>
        <time>1970-01-01T01:28:50.000Z</time>
      </trkpt>
      <trkpt lat="40.349509" lon="-3.362441">
        <ele>766.2</ele>
        <time>1970-01-01T01:28:51.000Z</time>
      </trkpt>
      <trkpt lat="40.349485" lon="-3.362411">
        <ele>766.6</ele>
        <time>1970-01-01T01:28:52.000Z</time>
      </trkpt>
      <trkpt lat="40.349462" lon="-3.36238">
        <ele>766.4</ele>
        <time>1970-01-01T01:28:53.000Z</time>
      </trkpt>
      <trkpt lat="40.34944" lon="-3.362349">
        <ele>766.6</ele>
        <time>1970-01-01T01:28:54.000Z</time>
      </trkpt>
      <trkpt lat="40.349419" lon="-3.362316">
        <ele>766.4</ele>
        <time>1970-01-01T01:28:55.000Z</time>
      </trkpt>
      <trkpt lat="40.349395" lon="-3.362281">
        <ele>766.6</ele>
        <time>1970-01-01T01:28:56.000Z</time>
      </trkpt>
      <trkpt lat="40.349367" lon="-3.362246">
        <ele>766.6</ele>
        <time>1970-01-01T01:28:57.000Z</time>
      </trkpt>
      <trkpt lat="40.349337" lon="-3.362212">
        <ele>766.6</ele>
        <time>1970-01-01T01:28:58.000Z</time>
      </trkpt>
      <trkpt lat="40.349305" lon="-3.362176">
        <ele>766.6</ele>
        <time>1970-01-01T01:28:59.000Z</time>
      </trkpt>
      <trkpt lat="40.34927" lon="-3.362141">
        <ele>766.8</ele>
        <time>1970-01-01T01:29:00.000Z</time>
      </trkpt>
      <trkpt lat="40.349235" lon="-3.36211">
        <ele>766.8</ele>
        <time>1970-01-01T01:29:01.000Z</time>
      </trkpt>
      <trkpt lat="40.349199" lon="-3.362082">
        <ele>766.8</ele>
        <time>1970-01-01T01:29:02.000Z</time>
      </trkpt>
      <trkpt lat="40.349163" lon="-3.362056">
        <ele>766.6</ele>
        <time>1970-01-01T01:29:03.000Z</time>
      </trkpt>
      <trkpt lat="40.34913" lon="-3.362032">
        <ele>766.6</ele>
        <time>1970-01-01T01:29:04.000Z</time>
      </trkpt>
      <trkpt lat="40.349097" lon="-3.362006">
        <ele>766.6</ele>
        <time>1970-01-01T01:29:05.000Z</time>
      </trkpt>
      <trkpt lat="40.349064" lon="-3.361977">
        <ele>766.6</ele>
        <time>1970-01-01T01:29:06.000Z</time>
      </trkpt>
      <trkpt lat="40.349031" lon="-3.361947">
        <ele>766.8</ele>
        <time>1970-01-01T01:29:07.000Z</time>
      </trkpt>
      <trkpt lat="40.349001" lon="-3.361916">
        <ele>766.8</ele>
        <time>1970-01-01T01:29:08.000Z</time>
      </trkpt>
      <trkpt lat="40.348973" lon="-3.361883">
        <ele>766.8</ele>
        <time>1970-01-01T01:29:09.000Z</time>
      </trkpt>
      <trkpt lat="40.348945" lon="-3.361851">
        <ele>766.8</ele>
        <time>1970-01-01T01:29:10.000Z</time>
      </trkpt>
      <trkpt lat="40.348914" lon="-3.361813">
        <ele>767</ele>
        <time>1970-01-01T01:29:11.000Z</time>
      </trkpt>
      <trkpt lat="40.348885" lon="-3.361776">
        <ele>767</ele>
        <time>1970-01-01T01:29:12.000Z</time>
      </trkpt>
      <trkpt lat="40.348858" lon="-3.361737">
        <ele>767.2</ele>
        <time>1970-01-01T01:29:13.000Z</time>
      </trkpt>
      <trkpt lat="40.348832" lon="-3.3617">
        <ele>767.2</ele>
        <time>1970-01-01T01:29:14.000Z</time>
      </trkpt>
      <trkpt lat="40.348809" lon="-3.361658">
        <ele>767.6</ele>
        <time>1970-01-01T01:29:15.000Z</time>
      </trkpt>
      <trkpt lat="40.348793" lon="-3.361612">
        <ele>767.6</ele>
        <time>1970-01-01T01:29:16.000Z</time>
      </trkpt>
      <trkpt lat="40.348786" lon="-3.361559">
        <ele>767.8</ele>
        <time>1970-01-01T01:29:17.000Z</time>
      </trkpt>
      <trkpt lat="40.348789" lon="-3.361508">
        <ele>768</ele>
        <time>1970-01-01T01:29:18.000Z</time>
      </trkpt>
      <trkpt lat="40.3488" lon="-3.36146">
        <ele>768.2</ele>
        <time>1970-01-01T01:29:19.000Z</time>
      </trkpt>
      <trkpt lat="40.348813" lon="-3.361413">
        <ele>768.4</ele>
        <time>1970-01-01T01:29:20.000Z</time>
      </trkpt>
      <trkpt lat="40.348827" lon="-3.361368">
        <ele>768.6</ele>
        <time>1970-01-01T01:29:21.000Z</time>
      </trkpt>
      <trkpt lat="40.34884" lon="-3.361322">
        <ele>768.6</ele>
        <time>1970-01-01T01:29:22.000Z</time>
      </trkpt>
      <trkpt lat="40.348854" lon="-3.361276">
        <ele>768.6</ele>
        <time>1970-01-01T01:29:23.000Z</time>
      </trkpt>
      <trkpt lat="40.348869" lon="-3.361226">
        <ele>768.6</ele>
        <time>1970-01-01T01:29:24.000Z</time>
      </trkpt>
      <trkpt lat="40.348886" lon="-3.361174">
        <ele>768.6</ele>
        <time>1970-01-01T01:29:25.000Z</time>
      </trkpt>
      <trkpt lat="40.348902" lon="-3.361121">
        <ele>768.6</ele>
        <time>1970-01-01T01:29:26.000Z</time>
      </trkpt>
      <trkpt lat="40.348918" lon="-3.361069">
        <ele>768.6</ele>
        <time>1970-01-01T01:29:27.000Z</time>
      </trkpt>
      <trkpt lat="40.348935" lon="-3.36102">
        <ele>768.6</ele>
        <time>1970-01-01T01:29:28.000Z</time>
      </trkpt>
      <trkpt lat="40.348951" lon="-3.360975">
        <ele>768.6</ele>
        <time>1970-01-01T01:29:29.000Z</time>
      </trkpt>
      <trkpt lat="40.348969" lon="-3.360932">
        <ele>768.4</ele>
        <time>1970-01-01T01:29:30.000Z</time>
      </trkpt>
      <trkpt lat="40.34898" lon="-3.360891">
        <ele>768.2</ele>
        <time>1970-01-01T01:29:31.000Z</time>
      </trkpt>
      <trkpt lat="40.348976" lon="-3.360856">
        <ele>768</ele>
        <time>1970-01-01T01:29:32.000Z</time>
      </trkpt>
      <trkpt lat="40.348955" lon="-3.360829">
        <ele>767.6</ele>
        <time>1970-01-01T01:29:33.000Z</time>
      </trkpt>
      <trkpt lat="40.348925" lon="-3.360811">
        <ele>767.6</ele>
        <time>1970-01-01T01:29:34.000Z</time>
      </trkpt>
      <trkpt lat="40.348893" lon="-3.360795">
        <ele>766.8</ele>
        <time>1970-01-01T01:29:35.000Z</time>
      </trkpt>
      <trkpt lat="40.348861" lon="-3.36078">
        <ele>766.6</ele>
        <time>1970-01-01T01:29:36.000Z</time>
      </trkpt>
      <trkpt lat="40.348827" lon="-3.360764">
        <ele>766</ele>
        <time>1970-01-01T01:29:37.000Z</time>
      </trkpt>
      <trkpt lat="40.348792" lon="-3.360743">
        <ele>765.2</ele>
        <time>1970-01-01T01:29:38.000Z</time>
      </trkpt>
      <trkpt lat="40.348756" lon="-3.36071">
        <ele>765</ele>
        <time>1970-01-01T01:29:39.000Z</time>
      </trkpt>
      <trkpt lat="40.348716" lon="-3.360669">
        <ele>764.6</ele>
        <time>1970-01-01T01:29:40.000Z</time>
      </trkpt>
      <trkpt lat="40.348671" lon="-3.360624">
        <ele>764.4</ele>
        <time>1970-01-01T01:29:41.000Z</time>
      </trkpt>
      <trkpt lat="40.348622" lon="-3.360583">
        <ele>764.2</ele>
        <time>1970-01-01T01:29:42.000Z</time>
      </trkpt>
      <trkpt lat="40.34857" lon="-3.360553">
        <ele>764</ele>
        <time>1970-01-01T01:29:43.000Z</time>
      </trkpt>
      <trkpt lat="40.348519" lon="-3.360527">
        <ele>763.8</ele>
        <time>1970-01-01T01:29:44.000Z</time>
      </trkpt>
      <trkpt lat="40.348471" lon="-3.360504">
        <ele>763.8</ele>
        <time>1970-01-01T01:29:45.000Z</time>
      </trkpt>
      <trkpt lat="40.348425" lon="-3.360486">
        <ele>763.6</ele>
        <time>1970-01-01T01:29:46.000Z</time>
      </trkpt>
      <trkpt lat="40.34838" lon="-3.360473">
        <ele>763.2</ele>
        <time>1970-01-01T01:29:47.000Z</time>
      </trkpt>
      <trkpt lat="40.348337" lon="-3.360462">
        <ele>763</ele>
        <time>1970-01-01T01:29:48.000Z</time>
      </trkpt>
      <trkpt lat="40.348296" lon="-3.360456">
        <ele>762.6</ele>
        <time>1970-01-01T01:29:49.000Z</time>
      </trkpt>
      <trkpt lat="40.348257" lon="-3.360456">
        <ele>762.4</ele>
        <time>1970-01-01T01:29:50.000Z</time>
      </trkpt>
      <trkpt lat="40.348221" lon="-3.36046">
        <ele>762.4</ele>
        <time>1970-01-01T01:29:51.000Z</time>
      </trkpt>
      <trkpt lat="40.348186" lon="-3.360464">
        <ele>762.4</ele>
        <time>1970-01-01T01:29:52.000Z</time>
      </trkpt>
      <trkpt lat="40.348156" lon="-3.360471">
        <ele>762.2</ele>
        <time>1970-01-01T01:29:53.000Z</time>
      </trkpt>
      <trkpt lat="40.348128" lon="-3.360471">
        <ele>762.2</ele>
        <time>1970-01-01T01:29:54.000Z</time>
      </trkpt>
      <trkpt lat="40.348104" lon="-3.360463">
        <ele>762.2</ele>
        <time>1970-01-01T01:29:55.000Z</time>
      </trkpt>
      <trkpt lat="40.34809" lon="-3.36044">
        <ele>762</ele>
        <time>1970-01-01T01:29:56.000Z</time>
      </trkpt>
      <trkpt lat="40.34809" lon="-3.360408">
        <ele>762</ele>
        <time>1970-01-01T01:29:57.000Z</time>
      </trkpt>
      <trkpt lat="40.348104" lon="-3.36037">
        <ele>762</ele>
        <time>1970-01-01T01:29:58.000Z</time>
      </trkpt>
      <trkpt lat="40.348128" lon="-3.36033">
        <ele>762</ele>
        <time>1970-01-01T01:29:59.000Z</time>
      </trkpt>
      <trkpt lat="40.348158" lon="-3.360283">
        <ele>762</ele>
        <time>1970-01-01T01:30:00.000Z</time>
      </trkpt>
      <trkpt lat="40.348191" lon="-3.360228">
        <ele>762</ele>
        <time>1970-01-01T01:30:01.000Z</time>
      </trkpt>
      <trkpt lat="40.348224" lon="-3.360164">
        <ele>762</ele>
        <time>1970-01-01T01:30:02.000Z</time>
      </trkpt>
      <trkpt lat="40.348258" lon="-3.360094">
        <ele>762</ele>
        <time>1970-01-01T01:30:03.000Z</time>
      </trkpt>
      <trkpt lat="40.348294" lon="-3.36002">
        <ele>762</ele>
        <time>1970-01-01T01:30:04.000Z</time>
      </trkpt>
      <trkpt lat="40.348333" lon="-3.359942">
        <ele>761.8</ele>
        <time>1970-01-01T01:30:05.000Z</time>
      </trkpt>
      <trkpt lat="40.348376" lon="-3.359863">
        <ele>761.8</ele>
        <time>1970-01-01T01:30:06.000Z</time>
      </trkpt>
      <trkpt lat="40.348428" lon="-3.359786">
        <ele>761.4</ele>
        <time>1970-01-01T01:30:07.000Z</time>
      </trkpt>
      <trkpt lat="40.348489" lon="-3.359716">
        <ele>761.2</ele>
        <time>1970-01-01T01:30:08.000Z</time>
      </trkpt>
      <trkpt lat="40.348558" lon="-3.359655">
        <ele>761</ele>
        <time>1970-01-01T01:30:09.000Z</time>
      </trkpt>
      <trkpt lat="40.348629" lon="-3.359602">
        <ele>760.6</ele>
        <time>1970-01-01T01:30:10.000Z</time>
      </trkpt>
      <trkpt lat="40.348699" lon="-3.359553">
        <ele>759.8</ele>
        <time>1970-01-01T01:30:11.000Z</time>
      </trkpt>
      <trkpt lat="40.348768" lon="-3.359509">
        <ele>759.2</ele>
        <time>1970-01-01T01:30:12.000Z</time>
      </trkpt>
      <trkpt lat="40.348833" lon="-3.359469">
        <ele>759</ele>
        <time>1970-01-01T01:30:13.000Z</time>
      </trkpt>
      <trkpt lat="40.348893" lon="-3.359434">
        <ele>758.2</ele>
        <time>1970-01-01T01:30:14.000Z</time>
      </trkpt>
      <trkpt lat="40.348953" lon="-3.359401">
        <ele>757.6</ele>
        <time>1970-01-01T01:30:15.000Z</time>
      </trkpt>
      <trkpt lat="40.349013" lon="-3.359367">
        <ele>756.8</ele>
        <time>1970-01-01T01:30:16.000Z</time>
      </trkpt>
      <trkpt lat="40.349076" lon="-3.359331">
        <ele>756.4</ele>
        <time>1970-01-01T01:30:17.000Z</time>
      </trkpt>
      <trkpt lat="40.349136" lon="-3.359293">
        <ele>755.8</ele>
        <time>1970-01-01T01:30:18.000Z</time>
      </trkpt>
      <trkpt lat="40.349193" lon="-3.35925">
        <ele>755.6</ele>
        <time>1970-01-01T01:30:19.000Z</time>
      </trkpt>
      <trkpt lat="40.34925" lon="-3.359207">
        <ele>755.4</ele>
        <time>1970-01-01T01:30:20.000Z</time>
      </trkpt>
      <trkpt lat="40.349308" lon="-3.359165">
        <ele>755.2</ele>
        <time>1970-01-01T01:30:21.000Z</time>
      </trkpt>
      <trkpt lat="40.349366" lon="-3.359119">
        <ele>755.2</ele>
        <time>1970-01-01T01:30:22.000Z</time>
      </trkpt>
      <trkpt lat="40.34942" lon="-3.359068">
        <ele>755</ele>
        <time>1970-01-01T01:30:23.000Z</time>
      </trkpt>
      <trkpt lat="40.349469" lon="-3.359011">
        <ele>755</ele>
        <time>1970-01-01T01:30:24.000Z</time>
      </trkpt>
      <trkpt lat="40.349514" lon="-3.35895">
        <ele>754.8</ele>
        <time>1970-01-01T01:30:25.000Z</time>
      </trkpt>
      <trkpt lat="40.349554" lon="-3.358887">
        <ele>754.6</ele>
        <time>1970-01-01T01:30:26.000Z</time>
      </trkpt>
      <trkpt lat="40.349589" lon="-3.35882">
        <ele>754.6</ele>
        <time>1970-01-01T01:30:27.000Z</time>
      </trkpt>
      <trkpt lat="40.349626" lon="-3.358753">
        <ele>754.4</ele>
        <time>1970-01-01T01:30:28.000Z</time>
      </trkpt>
      <trkpt lat="40.349662" lon="-3.358688">
        <ele>754.2</ele>
        <time>1970-01-01T01:30:29.000Z</time>
      </trkpt>
      <trkpt lat="40.349698" lon="-3.35862">
        <ele>754</ele>
        <time>1970-01-01T01:30:30.000Z</time>
      </trkpt>
      <trkpt lat="40.349731" lon="-3.358549">
        <ele>753.8</ele>
        <time>1970-01-01T01:30:31.000Z</time>
      </trkpt>
      <trkpt lat="40.349767" lon="-3.358473">
        <ele>752.8</ele>
        <time>1970-01-01T01:30:32.000Z</time>
      </trkpt>
      <trkpt lat="40.349805" lon="-3.358392">
        <ele>752.6</ele>
        <time>1970-01-01T01:30:33.000Z</time>
      </trkpt>
      <trkpt lat="40.349846" lon="-3.35831">
        <ele>752.4</ele>
        <time>1970-01-01T01:30:34.000Z</time>
      </trkpt>
      <trkpt lat="40.349889" lon="-3.358229">
        <ele>752.4</ele>
        <time>1970-01-01T01:30:35.000Z</time>
      </trkpt>
      <trkpt lat="40.349933" lon="-3.358146">
        <ele>752.2</ele>
        <time>1970-01-01T01:30:36.000Z</time>
      </trkpt>
      <trkpt lat="40.349974" lon="-3.358062">
        <ele>751.8</ele>
        <time>1970-01-01T01:30:37.000Z</time>
      </trkpt>
      <trkpt lat="40.350013" lon="-3.357973">
        <ele>751.8</ele>
        <time>1970-01-01T01:30:38.000Z</time>
      </trkpt>
      <trkpt lat="40.350052" lon="-3.357886">
        <ele>751.6</ele>
        <time>1970-01-01T01:30:39.000Z</time>
      </trkpt>
      <trkpt lat="40.350093" lon="-3.357802">
        <ele>751.4</ele>
        <time>1970-01-01T01:30:40.000Z</time>
      </trkpt>
      <trkpt lat="40.350136" lon="-3.357723">
        <ele>751.2</ele>
        <time>1970-01-01T01:30:41.000Z</time>
      </trkpt>
      <trkpt lat="40.350182" lon="-3.357651">
        <ele>751.2</ele>
        <time>1970-01-01T01:30:42.000Z</time>
      </trkpt>
      <trkpt lat="40.35023" lon="-3.357582">
        <ele>751</ele>
        <time>1970-01-01T01:30:43.000Z</time>
      </trkpt>
      <trkpt lat="40.350278" lon="-3.357516">
        <ele>750.6</ele>
        <time>1970-01-01T01:30:44.000Z</time>
      </trkpt>
      <trkpt lat="40.350328" lon="-3.357451">
        <ele>750.4</ele>
        <time>1970-01-01T01:30:45.000Z</time>
      </trkpt>
      <trkpt lat="40.350378" lon="-3.357388">
        <ele>750</ele>
        <time>1970-01-01T01:30:46.000Z</time>
      </trkpt>
      <trkpt lat="40.350427" lon="-3.357325">
        <ele>749.6</ele>
        <time>1970-01-01T01:30:47.000Z</time>
      </trkpt>
      <trkpt lat="40.350474" lon="-3.357261">
        <ele>749.2</ele>
        <time>1970-01-01T01:30:48.000Z</time>
      </trkpt>
      <trkpt lat="40.350521" lon="-3.357197">
        <ele>749</ele>
        <time>1970-01-01T01:30:49.000Z</time>
      </trkpt>
      <trkpt lat="40.350566" lon="-3.357133">
        <ele>749</ele>
        <time>1970-01-01T01:30:50.000Z</time>
      </trkpt>
      <trkpt lat="40.350608" lon="-3.357066">
        <ele>748.8</ele>
        <time>1970-01-01T01:30:51.000Z</time>
      </trkpt>
      <trkpt lat="40.350646" lon="-3.357001">
        <ele>748.6</ele>
        <time>1970-01-01T01:30:52.000Z</time>
      </trkpt>
      <trkpt lat="40.350678" lon="-3.356938">
        <ele>748.4</ele>
        <time>1970-01-01T01:30:53.000Z</time>
      </trkpt>
      <trkpt lat="40.350707" lon="-3.35688">
        <ele>748.4</ele>
        <time>1970-01-01T01:30:54.000Z</time>
      </trkpt>
      <trkpt lat="40.350738" lon="-3.356826">
        <ele>748.4</ele>
        <time>1970-01-01T01:30:55.000Z</time>
      </trkpt>
      <trkpt lat="40.350772" lon="-3.356778">
        <ele>748.2</ele>
        <time>1970-01-01T01:30:56.000Z</time>
      </trkpt>
      <trkpt lat="40.350811" lon="-3.356742">
        <ele>748</ele>
        <time>1970-01-01T01:30:57.000Z</time>
      </trkpt>
      <trkpt lat="40.350853" lon="-3.356723">
        <ele>748</ele>
        <time>1970-01-01T01:30:58.000Z</time>
      </trkpt>
      <trkpt lat="40.350898" lon="-3.356714">
        <ele>748</ele>
        <time>1970-01-01T01:30:59.000Z</time>
      </trkpt>
      <trkpt lat="40.350948" lon="-3.356697">
        <ele>748</ele>
        <time>1970-01-01T01:31:00.000Z</time>
      </trkpt>
      <trkpt lat="40.351" lon="-3.356668">
        <ele>748</ele>
        <time>1970-01-01T01:31:01.000Z</time>
      </trkpt>
      <trkpt lat="40.351048" lon="-3.356632">
        <ele>747.8</ele>
        <time>1970-01-01T01:31:02.000Z</time>
      </trkpt>
      <trkpt lat="40.351093" lon="-3.356593">
        <ele>747.6</ele>
        <time>1970-01-01T01:31:03.000Z</time>
      </trkpt>
      <trkpt lat="40.351136" lon="-3.356549">
        <ele>747.4</ele>
        <time>1970-01-01T01:31:04.000Z</time>
      </trkpt>
      <trkpt lat="40.351181" lon="-3.356499">
        <ele>747.4</ele>
        <time>1970-01-01T01:31:05.000Z</time>
      </trkpt>
      <trkpt lat="40.351228" lon="-3.35645">
        <ele>747.2</ele>
        <time>1970-01-01T01:31:06.000Z</time>
      </trkpt>
      <trkpt lat="40.35128" lon="-3.356403">
        <ele>747.2</ele>
        <time>1970-01-01T01:31:07.000Z</time>
      </trkpt>
      <trkpt lat="40.351326" lon="-3.35637">
        <ele>747</ele>
        <time>1970-01-01T01:31:08.000Z</time>
      </trkpt>
      <trkpt lat="40.351399" lon="-3.356341">
        <ele>746.8</ele>
        <time>1970-01-01T01:31:09.000Z</time>
      </trkpt>
      <trkpt lat="40.351461" lon="-3.356335">
        <ele>746.8</ele>
        <time>1970-01-01T01:31:10.000Z</time>
      </trkpt>
      <trkpt lat="40.351522" lon="-3.356337">
        <ele>746.4</ele>
        <time>1970-01-01T01:31:11.000Z</time>
      </trkpt>
      <trkpt lat="40.351586" lon="-3.356338">
        <ele>746</ele>
        <time>1970-01-01T01:31:12.000Z</time>
      </trkpt>
      <trkpt lat="40.351647" lon="-3.356323">
        <ele>745.8</ele>
        <time>1970-01-01T01:31:13.000Z</time>
      </trkpt>
      <trkpt lat="40.351704" lon="-3.356289">
        <ele>745.6</ele>
        <time>1970-01-01T01:31:14.000Z</time>
      </trkpt>
      <trkpt lat="40.35175" lon="-3.356253">
        <ele>745.2</ele>
        <time>1970-01-01T01:31:15.000Z</time>
      </trkpt>
      <trkpt lat="40.351789" lon="-3.356226">
        <ele>745</ele>
        <time>1970-01-01T01:31:16.000Z</time>
      </trkpt>
      <trkpt lat="40.351832" lon="-3.356208">
        <ele>744.8</ele>
        <time>1970-01-01T01:31:17.000Z</time>
      </trkpt>
      <trkpt lat="40.351876" lon="-3.356193">
        <ele>744.4</ele>
        <time>1970-01-01T01:31:18.000Z</time>
      </trkpt>
      <trkpt lat="40.35192" lon="-3.356192">
        <ele>744.2</ele>
        <time>1970-01-01T01:31:19.000Z</time>
      </trkpt>
      <trkpt lat="40.351963" lon="-3.356211">
        <ele>744</ele>
        <time>1970-01-01T01:31:20.000Z</time>
      </trkpt>
      <trkpt lat="40.352004" lon="-3.356247">
        <ele>743.8</ele>
        <time>1970-01-01T01:31:21.000Z</time>
      </trkpt>
      <trkpt lat="40.35205" lon="-3.356289">
        <ele>743.4</ele>
        <time>1970-01-01T01:31:22.000Z</time>
      </trkpt>
      <trkpt lat="40.352098" lon="-3.356336">
        <ele>743.2</ele>
        <time>1970-01-01T01:31:23.000Z</time>
      </trkpt>
      <trkpt lat="40.352147" lon="-3.356384">
        <ele>743</ele>
        <time>1970-01-01T01:31:24.000Z</time>
      </trkpt>
      <trkpt lat="40.352199" lon="-3.356432">
        <ele>743</ele>
        <time>1970-01-01T01:31:25.000Z</time>
      </trkpt>
      <trkpt lat="40.352249" lon="-3.35648">
        <ele>743</ele>
        <time>1970-01-01T01:31:26.000Z</time>
      </trkpt>
      <trkpt lat="40.352299" lon="-3.356528">
        <ele>742.8</ele>
        <time>1970-01-01T01:31:27.000Z</time>
      </trkpt>
      <trkpt lat="40.352346" lon="-3.356577">
        <ele>742.8</ele>
        <time>1970-01-01T01:31:28.000Z</time>
      </trkpt>
      <trkpt lat="40.352392" lon="-3.356621">
        <ele>742.6</ele>
        <time>1970-01-01T01:31:29.000Z</time>
      </trkpt>
      <trkpt lat="40.352432" lon="-3.356659">
        <ele>742.6</ele>
        <time>1970-01-01T01:31:30.000Z</time>
      </trkpt>
      <trkpt lat="40.352467" lon="-3.356691">
        <ele>742.6</ele>
        <time>1970-01-01T01:31:31.000Z</time>
      </trkpt>
      <trkpt lat="40.352498" lon="-3.356716">
        <ele>742.6</ele>
        <time>1970-01-01T01:31:32.000Z</time>
      </trkpt>
      <trkpt lat="40.352527" lon="-3.356733">
        <ele>742.4</ele>
        <time>1970-01-01T01:31:33.000Z</time>
      </trkpt>
      <trkpt lat="40.352561" lon="-3.356744">
        <ele>742.2</ele>
        <time>1970-01-01T01:31:34.000Z</time>
      </trkpt>
      <trkpt lat="40.352598" lon="-3.356747">
        <ele>742.2</ele>
        <time>1970-01-01T01:31:35.000Z</time>
      </trkpt>
      <trkpt lat="40.352641" lon="-3.356736">
        <ele>741.8</ele>
        <time>1970-01-01T01:31:36.000Z</time>
      </trkpt>
      <trkpt lat="40.352686" lon="-3.356717">
        <ele>741.8</ele>
        <time>1970-01-01T01:31:37.000Z</time>
      </trkpt>
      <trkpt lat="40.352734" lon="-3.356694">
        <ele>741.6</ele>
        <time>1970-01-01T01:31:38.000Z</time>
      </trkpt>
      <trkpt lat="40.352783" lon="-3.35667">
        <ele>741.6</ele>
        <time>1970-01-01T01:31:39.000Z</time>
      </trkpt>
      <trkpt lat="40.352831" lon="-3.356644">
        <ele>741.6</ele>
        <time>1970-01-01T01:31:40.000Z</time>
      </trkpt>
      <trkpt lat="40.352876" lon="-3.356619">
        <ele>741.6</ele>
        <time>1970-01-01T01:31:41.000Z</time>
      </trkpt>
      <trkpt lat="40.352919" lon="-3.356598">
        <ele>741.6</ele>
        <time>1970-01-01T01:31:42.000Z</time>
      </trkpt>
      <trkpt lat="40.352963" lon="-3.356576">
        <ele>741.6</ele>
        <time>1970-01-01T01:31:43.000Z</time>
      </trkpt>
      <trkpt lat="40.353006" lon="-3.356557">
        <ele>741.6</ele>
        <time>1970-01-01T01:31:44.000Z</time>
      </trkpt>
      <trkpt lat="40.35305" lon="-3.356538">
        <ele>741.6</ele>
        <time>1970-01-01T01:31:45.000Z</time>
      </trkpt>
      <trkpt lat="40.353092" lon="-3.356519">
        <ele>741.6</ele>
        <time>1970-01-01T01:31:46.000Z</time>
      </trkpt>
      <trkpt lat="40.353134" lon="-3.3565">
        <ele>741.6</ele>
        <time>1970-01-01T01:31:47.000Z</time>
      </trkpt>
      <trkpt lat="40.353176" lon="-3.356479">
        <ele>741.8</ele>
        <time>1970-01-01T01:31:48.000Z</time>
      </trkpt>
      <trkpt lat="40.353218" lon="-3.356456">
        <ele>742</ele>
        <time>1970-01-01T01:31:49.000Z</time>
      </trkpt>
      <trkpt lat="40.353259" lon="-3.356433">
        <ele>742</ele>
        <time>1970-01-01T01:31:50.000Z</time>
      </trkpt>
      <trkpt lat="40.353302" lon="-3.356409">
        <ele>742.2</ele>
        <time>1970-01-01T01:31:51.000Z</time>
      </trkpt>
      <trkpt lat="40.353342" lon="-3.356388">
        <ele>742.2</ele>
        <time>1970-01-01T01:31:52.000Z</time>
      </trkpt>
      <trkpt lat="40.35338" lon="-3.356367">
        <ele>742.4</ele>
        <time>1970-01-01T01:31:53.000Z</time>
      </trkpt>
      <trkpt lat="40.353413" lon="-3.356351">
        <ele>742.4</ele>
        <time>1970-01-01T01:31:54.000Z</time>
      </trkpt>
      <trkpt lat="40.353443" lon="-3.356333">
        <ele>742.4</ele>
        <time>1970-01-01T01:31:55.000Z</time>
      </trkpt>
      <trkpt lat="40.353465" lon="-3.356309">
        <ele>742.4</ele>
        <time>1970-01-01T01:31:56.000Z</time>
      </trkpt>
      <trkpt lat="40.353477" lon="-3.356279">
        <ele>742.4</ele>
        <time>1970-01-01T01:31:57.000Z</time>
      </trkpt>
      <trkpt lat="40.353478" lon="-3.356246">
        <ele>742.4</ele>
        <time>1970-01-01T01:31:58.000Z</time>
      </trkpt>
      <trkpt lat="40.353474" lon="-3.356209">
        <ele>742.4</ele>
        <time>1970-01-01T01:31:59.000Z</time>
      </trkpt>
      <trkpt lat="40.35347" lon="-3.356168">
        <ele>742.4</ele>
        <time>1970-01-01T01:32:00.000Z</time>
      </trkpt>
      <trkpt lat="40.353468" lon="-3.356125">
        <ele>742.4</ele>
        <time>1970-01-01T01:32:01.000Z</time>
      </trkpt>
      <trkpt lat="40.353466" lon="-3.356083">
        <ele>742.4</ele>
        <time>1970-01-01T01:32:02.000Z</time>
      </trkpt>
      <trkpt lat="40.353464" lon="-3.356042">
        <ele>742.8</ele>
        <time>1970-01-01T01:32:03.000Z</time>
      </trkpt>
      <trkpt lat="40.353464" lon="-3.355998">
        <ele>742.8</ele>
        <time>1970-01-01T01:32:04.000Z</time>
      </trkpt>
      <trkpt lat="40.35347" lon="-3.355961">
        <ele>743</ele>
        <time>1970-01-01T01:32:05.000Z</time>
      </trkpt>
      <trkpt lat="40.353482" lon="-3.355932">
        <ele>743.2</ele>
        <time>1970-01-01T01:32:06.000Z</time>
      </trkpt>
      <trkpt lat="40.3535" lon="-3.355909">
        <ele>743.2</ele>
        <time>1970-01-01T01:32:07.000Z</time>
      </trkpt>
      <trkpt lat="40.353521" lon="-3.355886">
        <ele>743.4</ele>
        <time>1970-01-01T01:32:08.000Z</time>
      </trkpt>
      <trkpt lat="40.353543" lon="-3.355862">
        <ele>743.4</ele>
        <time>1970-01-01T01:32:09.000Z</time>
      </trkpt>
      <trkpt lat="40.353566" lon="-3.355838">
        <ele>743.6</ele>
        <time>1970-01-01T01:32:10.000Z</time>
      </trkpt>
      <trkpt lat="40.353591" lon="-3.355822">
        <ele>743.6</ele>
        <time>1970-01-01T01:32:11.000Z</time>
      </trkpt>
      <trkpt lat="40.35362" lon="-3.355812">
        <ele>743.8</ele>
        <time>1970-01-01T01:32:12.000Z</time>
      </trkpt>
      <trkpt lat="40.35365" lon="-3.3558">
        <ele>743.8</ele>
        <time>1970-01-01T01:32:13.000Z</time>
      </trkpt>
      <trkpt lat="40.35368" lon="-3.355787">
        <ele>743.8</ele>
        <time>1970-01-01T01:32:14.000Z</time>
      </trkpt>
      <trkpt lat="40.353709" lon="-3.355771">
        <ele>744</ele>
        <time>1970-01-01T01:32:15.000Z</time>
      </trkpt>
      <trkpt lat="40.353733" lon="-3.355752">
        <ele>744</ele>
        <time>1970-01-01T01:32:16.000Z</time>
      </trkpt>
      <trkpt lat="40.353755" lon="-3.355736">
        <ele>744.2</ele>
        <time>1970-01-01T01:32:17.000Z</time>
      </trkpt>
      <trkpt lat="40.353776" lon="-3.355724">
        <ele>744.4</ele>
        <time>1970-01-01T01:32:18.000Z</time>
      </trkpt>
      <trkpt lat="40.353799" lon="-3.355712">
        <ele>744.6</ele>
        <time>1970-01-01T01:32:19.000Z</time>
      </trkpt>
      <trkpt lat="40.353824" lon="-3.355702">
        <ele>744.6</ele>
        <time>1970-01-01T01:32:20.000Z</time>
      </trkpt>
      <trkpt lat="40.353849" lon="-3.355687">
        <ele>744.8</ele>
        <time>1970-01-01T01:32:21.000Z</time>
      </trkpt>
      <trkpt lat="40.353873" lon="-3.355671">
        <ele>745.2</ele>
        <time>1970-01-01T01:32:22.000Z</time>
      </trkpt>
      <trkpt lat="40.353897" lon="-3.355649">
        <ele>745.4</ele>
        <time>1970-01-01T01:32:23.000Z</time>
      </trkpt>
      <trkpt lat="40.353918" lon="-3.355628">
        <ele>745.6</ele>
        <time>1970-01-01T01:32:24.000Z</time>
      </trkpt>
      <trkpt lat="40.353939" lon="-3.355608">
        <ele>745.6</ele>
        <time>1970-01-01T01:32:25.000Z</time>
      </trkpt>
      <trkpt lat="40.35396" lon="-3.355583">
        <ele>745.8</ele>
        <time>1970-01-01T01:32:26.000Z</time>
      </trkpt>
      <trkpt lat="40.353982" lon="-3.35556">
        <ele>746</ele>
        <time>1970-01-01T01:32:27.000Z</time>
      </trkpt>
      <trkpt lat="40.354004" lon="-3.355542">
        <ele>746.6</ele>
        <time>1970-01-01T01:32:28.000Z</time>
      </trkpt>
      <trkpt lat="40.354025" lon="-3.355519">
        <ele>746.8</ele>
        <time>1970-01-01T01:32:29.000Z</time>
      </trkpt>
      <trkpt lat="40.354041" lon="-3.355491">
        <ele>747</ele>
        <time>1970-01-01T01:32:30.000Z</time>
      </trkpt>
      <trkpt lat="40.35405" lon="-3.355461">
        <ele>747</ele>
        <time>1970-01-01T01:32:31.000Z</time>
      </trkpt>
      <trkpt lat="40.354057" lon="-3.355432">
        <ele>747.2</ele>
        <time>1970-01-01T01:32:32.000Z</time>
      </trkpt>
      <trkpt lat="40.354064" lon="-3.355405">
        <ele>747.4</ele>
        <time>1970-01-01T01:32:33.000Z</time>
      </trkpt>
      <trkpt lat="40.35407" lon="-3.355378">
        <ele>747.4</ele>
        <time>1970-01-01T01:32:34.000Z</time>
      </trkpt>
      <trkpt lat="40.354077" lon="-3.355349">
        <ele>747.6</ele>
        <time>1970-01-01T01:32:35.000Z</time>
      </trkpt>
      <trkpt lat="40.354082" lon="-3.355323">
        <ele>747.8</ele>
        <time>1970-01-01T01:32:36.000Z</time>
      </trkpt>
      <trkpt lat="40.354091" lon="-3.355283">
        <ele>748</ele>
        <time>1970-01-01T01:32:37.000Z</time>
      </trkpt>
      <trkpt lat="40.354095" lon="-3.355251">
        <ele>748.2</ele>
        <time>1970-01-01T01:32:38.000Z</time>
      </trkpt>
      <trkpt lat="40.354103" lon="-3.355218">
        <ele>748.4</ele>
        <time>1970-01-01T01:32:39.000Z</time>
      </trkpt>
      <trkpt lat="40.354114" lon="-3.355186">
        <ele>748.4</ele>
        <time>1970-01-01T01:32:40.000Z</time>
      </trkpt>
      <trkpt lat="40.354128" lon="-3.355154">
        <ele>748.4</ele>
        <time>1970-01-01T01:32:41.000Z</time>
      </trkpt>
      <trkpt lat="40.354146" lon="-3.355125">
        <ele>748.6</ele>
        <time>1970-01-01T01:32:42.000Z</time>
      </trkpt>
      <trkpt lat="40.354165" lon="-3.3551">
        <ele>748.6</ele>
        <time>1970-01-01T01:32:43.000Z</time>
      </trkpt>
      <trkpt lat="40.354188" lon="-3.355076">
        <ele>748.8</ele>
        <time>1970-01-01T01:32:44.000Z</time>
      </trkpt>
      <trkpt lat="40.354217" lon="-3.355057">
        <ele>748.8</ele>
        <time>1970-01-01T01:32:45.000Z</time>
      </trkpt>
      <trkpt lat="40.354248" lon="-3.355043">
        <ele>749</ele>
        <time>1970-01-01T01:32:46.000Z</time>
      </trkpt>
      <trkpt lat="40.354279" lon="-3.355033">
        <ele>749</ele>
        <time>1970-01-01T01:32:47.000Z</time>
      </trkpt>
      <trkpt lat="40.354308" lon="-3.355024">
        <ele>749.2</ele>
        <time>1970-01-01T01:32:48.000Z</time>
      </trkpt>
      <trkpt lat="40.354338" lon="-3.355016">
        <ele>749.2</ele>
        <time>1970-01-01T01:32:49.000Z</time>
      </trkpt>
      <trkpt lat="40.354369" lon="-3.355008">
        <ele>749.2</ele>
        <time>1970-01-01T01:32:50.000Z</time>
      </trkpt>
      <trkpt lat="40.354396" lon="-3.354997">
        <ele>749.2</ele>
        <time>1970-01-01T01:32:51.000Z</time>
      </trkpt>
      <trkpt lat="40.354421" lon="-3.354986">
        <ele>749.2</ele>
        <time>1970-01-01T01:32:52.000Z</time>
      </trkpt>
      <trkpt lat="40.354449" lon="-3.354974">
        <ele>749.2</ele>
        <time>1970-01-01T01:32:53.000Z</time>
      </trkpt>
      <trkpt lat="40.354478" lon="-3.354961">
        <ele>749.2</ele>
        <time>1970-01-01T01:32:54.000Z</time>
      </trkpt>
      <trkpt lat="40.354509" lon="-3.354947">
        <ele>749.2</ele>
        <time>1970-01-01T01:32:55.000Z</time>
      </trkpt>
      <trkpt lat="40.35454" lon="-3.354931">
        <ele>749.2</ele>
        <time>1970-01-01T01:32:56.000Z</time>
      </trkpt>
      <trkpt lat="40.35457" lon="-3.354916">
        <ele>749.2</ele>
        <time>1970-01-01T01:32:57.000Z</time>
      </trkpt>
      <trkpt lat="40.3546" lon="-3.354903">
        <ele>749.2</ele>
        <time>1970-01-01T01:32:58.000Z</time>
      </trkpt>
      <trkpt lat="40.354631" lon="-3.354887">
        <ele>749.2</ele>
        <time>1970-01-01T01:32:59.000Z</time>
      </trkpt>
      <trkpt lat="40.354658" lon="-3.354871">
        <ele>749.2</ele>
        <time>1970-01-01T01:33:00.000Z</time>
      </trkpt>
      <trkpt lat="40.354684" lon="-3.354849">
        <ele>749.2</ele>
        <time>1970-01-01T01:33:01.000Z</time>
      </trkpt>
      <trkpt lat="40.354706" lon="-3.354821">
        <ele>749.2</ele>
        <time>1970-01-01T01:33:02.000Z</time>
      </trkpt>
      <trkpt lat="40.354724" lon="-3.35479">
        <ele>749.4</ele>
        <time>1970-01-01T01:33:03.000Z</time>
      </trkpt>
      <trkpt lat="40.354736" lon="-3.354755">
        <ele>749.6</ele>
        <time>1970-01-01T01:33:04.000Z</time>
      </trkpt>
      <trkpt lat="40.354743" lon="-3.354718">
        <ele>749.6</ele>
        <time>1970-01-01T01:33:05.000Z</time>
      </trkpt>
      <trkpt lat="40.354746" lon="-3.354679">
        <ele>749.6</ele>
        <time>1970-01-01T01:33:06.000Z</time>
      </trkpt>
      <trkpt lat="40.354748" lon="-3.354636">
        <ele>749.8</ele>
        <time>1970-01-01T01:33:07.000Z</time>
      </trkpt>
      <trkpt lat="40.354753" lon="-3.354597">
        <ele>750</ele>
        <time>1970-01-01T01:33:08.000Z</time>
      </trkpt>
      <trkpt lat="40.35476" lon="-3.354558">
        <ele>750.2</ele>
        <time>1970-01-01T01:33:09.000Z</time>
      </trkpt>
      <trkpt lat="40.354769" lon="-3.354522">
        <ele>750.2</ele>
        <time>1970-01-01T01:33:10.000Z</time>
      </trkpt>
      <trkpt lat="40.354778" lon="-3.354486">
        <ele>750.6</ele>
        <time>1970-01-01T01:33:11.000Z</time>
      </trkpt>
      <trkpt lat="40.354786" lon="-3.35445">
        <ele>750.8</ele>
        <time>1970-01-01T01:33:12.000Z</time>
      </trkpt>
      <trkpt lat="40.354793" lon="-3.354414">
        <ele>751</ele>
        <time>1970-01-01T01:33:13.000Z</time>
      </trkpt>
      <trkpt lat="40.354802" lon="-3.354378">
        <ele>751.2</ele>
        <time>1970-01-01T01:33:14.000Z</time>
      </trkpt>
      <trkpt lat="40.354813" lon="-3.354337">
        <ele>751.4</ele>
        <time>1970-01-01T01:33:15.000Z</time>
      </trkpt>
      <trkpt lat="40.354824" lon="-3.35429">
        <ele>751.6</ele>
        <time>1970-01-01T01:33:16.000Z</time>
      </trkpt>
      <trkpt lat="40.354839" lon="-3.354244">
        <ele>751.6</ele>
        <time>1970-01-01T01:33:17.000Z</time>
      </trkpt>
      <trkpt lat="40.354861" lon="-3.354201">
        <ele>751.8</ele>
        <time>1970-01-01T01:33:18.000Z</time>
      </trkpt>
      <trkpt lat="40.354889" lon="-3.354165">
        <ele>751.8</ele>
        <time>1970-01-01T01:33:19.000Z</time>
      </trkpt>
      <trkpt lat="40.354916" lon="-3.354133">
        <ele>752</ele>
        <time>1970-01-01T01:33:20.000Z</time>
      </trkpt>
      <trkpt lat="40.354942" lon="-3.354102">
        <ele>752</ele>
        <time>1970-01-01T01:33:21.000Z</time>
      </trkpt>
      <trkpt lat="40.354968" lon="-3.354071">
        <ele>752.2</ele>
        <time>1970-01-01T01:33:22.000Z</time>
      </trkpt>
      <trkpt lat="40.354991" lon="-3.354039">
        <ele>752.2</ele>
        <time>1970-01-01T01:33:23.000Z</time>
      </trkpt>
      <trkpt lat="40.355014" lon="-3.354007">
        <ele>752.2</ele>
        <time>1970-01-01T01:33:24.000Z</time>
      </trkpt>
      <trkpt lat="40.355034" lon="-3.353976">
        <ele>752.2</ele>
        <time>1970-01-01T01:33:25.000Z</time>
      </trkpt>
      <trkpt lat="40.355054" lon="-3.353946">
        <ele>752.2</ele>
        <time>1970-01-01T01:33:26.000Z</time>
      </trkpt>
      <trkpt lat="40.355076" lon="-3.353917">
        <ele>752.2</ele>
        <time>1970-01-01T01:33:27.000Z</time>
      </trkpt>
      <trkpt lat="40.355101" lon="-3.353895">
        <ele>752.4</ele>
        <time>1970-01-01T01:33:28.000Z</time>
      </trkpt>
      <trkpt lat="40.355129" lon="-3.35388">
        <ele>752.6</ele>
        <time>1970-01-01T01:33:29.000Z</time>
      </trkpt>
      <trkpt lat="40.355158" lon="-3.353867">
        <ele>752.6</ele>
        <time>1970-01-01T01:33:30.000Z</time>
      </trkpt>
      <trkpt lat="40.355186" lon="-3.353852">
        <ele>752.6</ele>
        <time>1970-01-01T01:33:31.000Z</time>
      </trkpt>
      <trkpt lat="40.355212" lon="-3.353834">
        <ele>752.8</ele>
        <time>1970-01-01T01:33:32.000Z</time>
      </trkpt>
      <trkpt lat="40.355238" lon="-3.353813">
        <ele>753</ele>
        <time>1970-01-01T01:33:33.000Z</time>
      </trkpt>
      <trkpt lat="40.355265" lon="-3.353788">
        <ele>753.2</ele>
        <time>1970-01-01T01:33:34.000Z</time>
      </trkpt>
      <trkpt lat="40.355292" lon="-3.353763">
        <ele>753.4</ele>
        <time>1970-01-01T01:33:35.000Z</time>
      </trkpt>
      <trkpt lat="40.35532" lon="-3.353735">
        <ele>753.4</ele>
        <time>1970-01-01T01:33:36.000Z</time>
      </trkpt>
      <trkpt lat="40.355348" lon="-3.353701">
        <ele>753.4</ele>
        <time>1970-01-01T01:33:37.000Z</time>
      </trkpt>
      <trkpt lat="40.355374" lon="-3.353661">
        <ele>753.4</ele>
        <time>1970-01-01T01:33:38.000Z</time>
      </trkpt>
      <trkpt lat="40.355394" lon="-3.353616">
        <ele>753.6</ele>
        <time>1970-01-01T01:33:39.000Z</time>
      </trkpt>
      <trkpt lat="40.355413" lon="-3.353572">
        <ele>753.6</ele>
        <time>1970-01-01T01:33:40.000Z</time>
      </trkpt>
      <trkpt lat="40.35543" lon="-3.353528">
        <ele>753.8</ele>
        <time>1970-01-01T01:33:41.000Z</time>
      </trkpt>
      <trkpt lat="40.355446" lon="-3.353486">
        <ele>753.8</ele>
        <time>1970-01-01T01:33:42.000Z</time>
      </trkpt>
      <trkpt lat="40.355465" lon="-3.353446">
        <ele>753.8</ele>
        <time>1970-01-01T01:33:43.000Z</time>
      </trkpt>
      <trkpt lat="40.35548" lon="-3.353402">
        <ele>753.8</ele>
        <time>1970-01-01T01:33:44.000Z</time>
      </trkpt>
      <trkpt lat="40.355498" lon="-3.353363">
        <ele>753.8</ele>
        <time>1970-01-01T01:33:45.000Z</time>
      </trkpt>
      <trkpt lat="40.355521" lon="-3.35333">
        <ele>753.8</ele>
        <time>1970-01-01T01:33:46.000Z</time>
      </trkpt>
      <trkpt lat="40.355544" lon="-3.353302">
        <ele>753.8</ele>
        <time>1970-01-01T01:33:47.000Z</time>
      </trkpt>
      <trkpt lat="40.355567" lon="-3.353275">
        <ele>753.6</ele>
        <time>1970-01-01T01:33:48.000Z</time>
      </trkpt>
      <trkpt lat="40.355592" lon="-3.353247">
        <ele>753.8</ele>
        <time>1970-01-01T01:33:49.000Z</time>
      </trkpt>
      <trkpt lat="40.355618" lon="-3.353219">
        <ele>753.8</ele>
        <time>1970-01-01T01:33:50.000Z</time>
      </trkpt>
      <trkpt lat="40.355643" lon="-3.353193">
        <ele>753.8</ele>
        <time>1970-01-01T01:33:51.000Z</time>
      </trkpt>
      <trkpt lat="40.355667" lon="-3.353166">
        <ele>753.8</ele>
        <time>1970-01-01T01:33:52.000Z</time>
      </trkpt>
      <trkpt lat="40.35569" lon="-3.35314">
        <ele>754</ele>
        <time>1970-01-01T01:33:53.000Z</time>
      </trkpt>
      <trkpt lat="40.355712" lon="-3.353114">
        <ele>754</ele>
        <time>1970-01-01T01:33:54.000Z</time>
      </trkpt>
      <trkpt lat="40.355734" lon="-3.353089">
        <ele>754.2</ele>
        <time>1970-01-01T01:33:55.000Z</time>
      </trkpt>
      <trkpt lat="40.355755" lon="-3.353063">
        <ele>754.2</ele>
        <time>1970-01-01T01:33:56.000Z</time>
      </trkpt>
      <trkpt lat="40.355775" lon="-3.353036">
        <ele>754.4</ele>
        <time>1970-01-01T01:33:57.000Z</time>
      </trkpt>
      <trkpt lat="40.355796" lon="-3.353012">
        <ele>754.6</ele>
        <time>1970-01-01T01:33:58.000Z</time>
      </trkpt>
      <trkpt lat="40.355816" lon="-3.352985">
        <ele>754.8</ele>
        <time>1970-01-01T01:33:59.000Z</time>
      </trkpt>
      <trkpt lat="40.355838" lon="-3.352961">
        <ele>755.2</ele>
        <time>1970-01-01T01:34:00.000Z</time>
      </trkpt>
      <trkpt lat="40.355861" lon="-3.352938">
        <ele>755.4</ele>
        <time>1970-01-01T01:34:01.000Z</time>
      </trkpt>
      <trkpt lat="40.355886" lon="-3.352912">
        <ele>756</ele>
        <time>1970-01-01T01:34:02.000Z</time>
      </trkpt>
      <trkpt lat="40.355911" lon="-3.352884">
        <ele>756.2</ele>
        <time>1970-01-01T01:34:03.000Z</time>
      </trkpt>
      <trkpt lat="40.355935" lon="-3.352853">
        <ele>756.4</ele>
        <time>1970-01-01T01:34:04.000Z</time>
      </trkpt>
      <trkpt lat="40.355962" lon="-3.352821">
        <ele>756.6</ele>
        <time>1970-01-01T01:34:05.000Z</time>
      </trkpt>
      <trkpt lat="40.355993" lon="-3.352795">
        <ele>756.6</ele>
        <time>1970-01-01T01:34:06.000Z</time>
      </trkpt>
      <trkpt lat="40.35603" lon="-3.352773">
        <ele>756.6</ele>
        <time>1970-01-01T01:34:07.000Z</time>
      </trkpt>
      <trkpt lat="40.356068" lon="-3.352746">
        <ele>756.8</ele>
        <time>1970-01-01T01:34:08.000Z</time>
      </trkpt>
      <trkpt lat="40.356102" lon="-3.352708">
        <ele>756.8</ele>
        <time>1970-01-01T01:34:09.000Z</time>
      </trkpt>
      <trkpt lat="40.356135" lon="-3.352664">
        <ele>756.8</ele>
        <time>1970-01-01T01:34:10.000Z</time>
      </trkpt>
      <trkpt lat="40.356169" lon="-3.352616">
        <ele>756.8</ele>
        <time>1970-01-01T01:34:11.000Z</time>
      </trkpt>
      <trkpt lat="40.356206" lon="-3.352566">
        <ele>756.6</ele>
        <time>1970-01-01T01:34:12.000Z</time>
      </trkpt>
      <trkpt lat="40.356246" lon="-3.352516">
        <ele>756.4</ele>
        <time>1970-01-01T01:34:13.000Z</time>
      </trkpt>
      <trkpt lat="40.356288" lon="-3.352474">
        <ele>756.4</ele>
        <time>1970-01-01T01:34:14.000Z</time>
      </trkpt>
      <trkpt lat="40.356328" lon="-3.352433">
        <ele>756.2</ele>
        <time>1970-01-01T01:34:15.000Z</time>
      </trkpt>
      <trkpt lat="40.356365" lon="-3.352394">
        <ele>755.8</ele>
        <time>1970-01-01T01:34:16.000Z</time>
      </trkpt>
      <trkpt lat="40.3564" lon="-3.352361">
        <ele>755.8</ele>
        <time>1970-01-01T01:34:17.000Z</time>
      </trkpt>
      <trkpt lat="40.356432" lon="-3.35234">
        <ele>755.6</ele>
        <time>1970-01-01T01:34:18.000Z</time>
      </trkpt>
      <trkpt lat="40.356475" lon="-3.352315">
        <ele>755.6</ele>
        <time>1970-01-01T01:34:19.000Z</time>
      </trkpt>
      <trkpt lat="40.356524" lon="-3.352279">
        <ele>755.6</ele>
        <time>1970-01-01T01:34:20.000Z</time>
      </trkpt>
      <trkpt lat="40.356558" lon="-3.352243">
        <ele>755.6</ele>
        <time>1970-01-01T01:34:21.000Z</time>
      </trkpt>
      <trkpt lat="40.356589" lon="-3.352203">
        <ele>755.6</ele>
        <time>1970-01-01T01:34:22.000Z</time>
      </trkpt>
      <trkpt lat="40.356621" lon="-3.352164">
        <ele>755.6</ele>
        <time>1970-01-01T01:34:23.000Z</time>
      </trkpt>
      <trkpt lat="40.356651" lon="-3.352129">
        <ele>755.8</ele>
        <time>1970-01-01T01:34:24.000Z</time>
      </trkpt>
      <trkpt lat="40.356677" lon="-3.352104">
        <ele>755.8</ele>
        <time>1970-01-01T01:34:25.000Z</time>
      </trkpt>
      <trkpt lat="40.356702" lon="-3.352089">
        <ele>756</ele>
        <time>1970-01-01T01:34:26.000Z</time>
      </trkpt>
      <trkpt lat="40.356729" lon="-3.352079">
        <ele>756</ele>
        <time>1970-01-01T01:34:27.000Z</time>
      </trkpt>
      <trkpt lat="40.356758" lon="-3.352068">
        <ele>756.2</ele>
        <time>1970-01-01T01:34:28.000Z</time>
      </trkpt>
      <trkpt lat="40.356786" lon="-3.352059">
        <ele>756.4</ele>
        <time>1970-01-01T01:34:29.000Z</time>
      </trkpt>
      <trkpt lat="40.356813" lon="-3.352037">
        <ele>756.4</ele>
        <time>1970-01-01T01:34:30.000Z</time>
      </trkpt>
      <trkpt lat="40.356834" lon="-3.352001">
        <ele>756.6</ele>
        <time>1970-01-01T01:34:31.000Z</time>
      </trkpt>
      <trkpt lat="40.356855" lon="-3.351959">
        <ele>756.6</ele>
        <time>1970-01-01T01:34:32.000Z</time>
      </trkpt>
      <trkpt lat="40.356881" lon="-3.351915">
        <ele>756.8</ele>
        <time>1970-01-01T01:34:33.000Z</time>
      </trkpt>
      <trkpt lat="40.356913" lon="-3.351879">
        <ele>756.8</ele>
        <time>1970-01-01T01:34:34.000Z</time>
      </trkpt>
      <trkpt lat="40.356947" lon="-3.351854">
        <ele>757</ele>
        <time>1970-01-01T01:34:35.000Z</time>
      </trkpt>
      <trkpt lat="40.356976" lon="-3.351839">
        <ele>757</ele>
        <time>1970-01-01T01:34:36.000Z</time>
      </trkpt>
      <trkpt lat="40.357" lon="-3.351832">
        <ele>757.2</ele>
        <time>1970-01-01T01:34:37.000Z</time>
      </trkpt>
      <trkpt lat="40.357023" lon="-3.351829">
        <ele>757.4</ele>
        <time>1970-01-01T01:34:38.000Z</time>
      </trkpt>
      <trkpt lat="40.357045" lon="-3.351821">
        <ele>757.4</ele>
        <time>1970-01-01T01:34:39.000Z</time>
      </trkpt>
      <trkpt lat="40.357067" lon="-3.351803">
        <ele>757.8</ele>
        <time>1970-01-01T01:34:40.000Z</time>
      </trkpt>
      <trkpt lat="40.35709" lon="-3.351775">
        <ele>757.8</ele>
        <time>1970-01-01T01:34:41.000Z</time>
      </trkpt>
      <trkpt lat="40.357114" lon="-3.351744">
        <ele>758</ele>
        <time>1970-01-01T01:34:42.000Z</time>
      </trkpt>
      <trkpt lat="40.357139" lon="-3.351719">
        <ele>758.4</ele>
        <time>1970-01-01T01:34:43.000Z</time>
      </trkpt>
      <trkpt lat="40.357164" lon="-3.351693">
        <ele>758.4</ele>
        <time>1970-01-01T01:34:44.000Z</time>
      </trkpt>
      <trkpt lat="40.357189" lon="-3.351669">
        <ele>758.6</ele>
        <time>1970-01-01T01:34:45.000Z</time>
      </trkpt>
      <trkpt lat="40.357204" lon="-3.351643">
        <ele>758.8</ele>
        <time>1970-01-01T01:34:46.000Z</time>
      </trkpt>
      <trkpt lat="40.357211" lon="-3.351606">
        <ele>758.8</ele>
        <time>1970-01-01T01:34:47.000Z</time>
      </trkpt>
      <trkpt lat="40.357211" lon="-3.351571">
        <ele>758.8</ele>
        <time>1970-01-01T01:34:48.000Z</time>
      </trkpt>
      <trkpt lat="40.357211" lon="-3.351529">
        <ele>758.8</ele>
        <time>1970-01-01T01:34:49.000Z</time>
      </trkpt>
      <trkpt lat="40.357217" lon="-3.351483">
        <ele>758.8</ele>
        <time>1970-01-01T01:34:50.000Z</time>
      </trkpt>
      <trkpt lat="40.357225" lon="-3.351435">
        <ele>759</ele>
        <time>1970-01-01T01:34:51.000Z</time>
      </trkpt>
      <trkpt lat="40.357225" lon="-3.351394">
        <ele>759.2</ele>
        <time>1970-01-01T01:34:52.000Z</time>
      </trkpt>
      <trkpt lat="40.357226" lon="-3.351351">
        <ele>759.2</ele>
        <time>1970-01-01T01:34:53.000Z</time>
      </trkpt>
      <trkpt lat="40.357229" lon="-3.351313">
        <ele>759.4</ele>
        <time>1970-01-01T01:34:54.000Z</time>
      </trkpt>
      <trkpt lat="40.357239" lon="-3.351279">
        <ele>759.4</ele>
        <time>1970-01-01T01:34:55.000Z</time>
      </trkpt>
      <trkpt lat="40.357264" lon="-3.351238">
        <ele>759.4</ele>
        <time>1970-01-01T01:34:56.000Z</time>
      </trkpt>
      <trkpt lat="40.35728" lon="-3.351205">
        <ele>759.4</ele>
        <time>1970-01-01T01:34:57.000Z</time>
      </trkpt>
      <trkpt lat="40.357288" lon="-3.351171">
        <ele>759.4</ele>
        <time>1970-01-01T01:34:58.000Z</time>
      </trkpt>
      <trkpt lat="40.357289" lon="-3.351135">
        <ele>759.4</ele>
        <time>1970-01-01T01:34:59.000Z</time>
      </trkpt>
      <trkpt lat="40.357288" lon="-3.351097">
        <ele>759.4</ele>
        <time>1970-01-01T01:35:00.000Z</time>
      </trkpt>
      <trkpt lat="40.357283" lon="-3.351059">
        <ele>759.4</ele>
        <time>1970-01-01T01:35:01.000Z</time>
      </trkpt>
      <trkpt lat="40.35728" lon="-3.351022">
        <ele>759.4</ele>
        <time>1970-01-01T01:35:02.000Z</time>
      </trkpt>
      <trkpt lat="40.357277" lon="-3.350985">
        <ele>759.4</ele>
        <time>1970-01-01T01:35:03.000Z</time>
      </trkpt>
      <trkpt lat="40.357275" lon="-3.350949">
        <ele>759.6</ele>
        <time>1970-01-01T01:35:04.000Z</time>
      </trkpt>
      <trkpt lat="40.357274" lon="-3.350918">
        <ele>759.6</ele>
        <time>1970-01-01T01:35:05.000Z</time>
      </trkpt>
      <trkpt lat="40.357273" lon="-3.350892">
        <ele>759.6</ele>
        <time>1970-01-01T01:35:06.000Z</time>
      </trkpt>
      <trkpt lat="40.357269" lon="-3.350867">
        <ele>759.6</ele>
        <time>1970-01-01T01:35:07.000Z</time>
      </trkpt>
      <trkpt lat="40.357267" lon="-3.350844">
        <ele>759.6</ele>
        <time>1970-01-01T01:35:08.000Z</time>
      </trkpt>
      <trkpt lat="40.357269" lon="-3.350819">
        <ele>759.8</ele>
        <time>1970-01-01T01:35:09.000Z</time>
      </trkpt>
      <trkpt lat="40.35727" lon="-3.350794">
        <ele>760</ele>
        <time>1970-01-01T01:35:10.000Z</time>
      </trkpt>
      <trkpt lat="40.357272" lon="-3.350769">
        <ele>760</ele>
        <time>1970-01-01T01:35:11.000Z</time>
      </trkpt>
      <trkpt lat="40.357274" lon="-3.350744">
        <ele>760</ele>
        <time>1970-01-01T01:35:12.000Z</time>
      </trkpt>
      <trkpt lat="40.357273" lon="-3.350715">
        <ele>760</ele>
        <time>1970-01-01T01:35:13.000Z</time>
      </trkpt>
      <trkpt lat="40.357269" lon="-3.350686">
        <ele>760.2</ele>
        <time>1970-01-01T01:35:14.000Z</time>
      </trkpt>
      <trkpt lat="40.357266" lon="-3.350657">
        <ele>760.2</ele>
        <time>1970-01-01T01:35:15.000Z</time>
      </trkpt>
      <trkpt lat="40.357267" lon="-3.350632">
        <ele>760.4</ele>
        <time>1970-01-01T01:35:16.000Z</time>
      </trkpt>
      <trkpt lat="40.357269" lon="-3.350609">
        <ele>760.6</ele>
        <time>1970-01-01T01:35:17.000Z</time>
      </trkpt>
      <trkpt lat="40.357272" lon="-3.350586">
        <ele>760.6</ele>
        <time>1970-01-01T01:35:18.000Z</time>
      </trkpt>
      <trkpt lat="40.357273" lon="-3.35056">
        <ele>760.8</ele>
        <time>1970-01-01T01:35:19.000Z</time>
      </trkpt>
      <trkpt lat="40.357273" lon="-3.350535">
        <ele>760.8</ele>
        <time>1970-01-01T01:35:20.000Z</time>
      </trkpt>
      <trkpt lat="40.357273" lon="-3.350513">
        <ele>761</ele>
        <time>1970-01-01T01:35:21.000Z</time>
      </trkpt>
      <trkpt lat="40.357274" lon="-3.35049">
        <ele>761</ele>
        <time>1970-01-01T01:35:22.000Z</time>
      </trkpt>
      <trkpt lat="40.357271" lon="-3.350464">
        <ele>761</ele>
        <time>1970-01-01T01:35:23.000Z</time>
      </trkpt>
      <trkpt lat="40.357264" lon="-3.350432">
        <ele>761</ele>
        <time>1970-01-01T01:35:24.000Z</time>
      </trkpt>
      <trkpt lat="40.357255" lon="-3.350403">
        <ele>761</ele>
        <time>1970-01-01T01:35:25.000Z</time>
      </trkpt>
      <trkpt lat="40.357246" lon="-3.350378">
        <ele>761.2</ele>
        <time>1970-01-01T01:35:26.000Z</time>
      </trkpt>
      <trkpt lat="40.357235" lon="-3.350359">
        <ele>761.2</ele>
        <time>1970-01-01T01:35:27.000Z</time>
      </trkpt>
      <trkpt lat="40.357229" lon="-3.35034">
        <ele>761.4</ele>
        <time>1970-01-01T01:35:28.000Z</time>
      </trkpt>
      <trkpt lat="40.357224" lon="-3.350321">
        <ele>761.4</ele>
        <time>1970-01-01T01:35:29.000Z</time>
      </trkpt>
      <trkpt lat="40.357222" lon="-3.350294">
        <ele>761.4</ele>
        <time>1970-01-01T01:35:30.000Z</time>
      </trkpt>
      <trkpt lat="40.357224" lon="-3.350269">
        <ele>761.8</ele>
        <time>1970-01-01T01:35:31.000Z</time>
      </trkpt>
      <trkpt lat="40.357217" lon="-3.350246">
        <ele>761.8</ele>
        <time>1970-01-01T01:35:32.000Z</time>
      </trkpt>
      <trkpt lat="40.357206" lon="-3.350225">
        <ele>762.2</ele>
        <time>1970-01-01T01:35:33.000Z</time>
      </trkpt>
      <trkpt lat="40.357193" lon="-3.350207">
        <ele>762.2</ele>
        <time>1970-01-01T01:35:34.000Z</time>
      </trkpt>
      <trkpt lat="40.35718" lon="-3.350191">
        <ele>762.2</ele>
        <time>1970-01-01T01:35:35.000Z</time>
      </trkpt>
      <trkpt lat="40.357169" lon="-3.350174">
        <ele>762.4</ele>
        <time>1970-01-01T01:35:36.000Z</time>
      </trkpt>
      <trkpt lat="40.357155" lon="-3.350158">
        <ele>762.4</ele>
        <time>1970-01-01T01:35:37.000Z</time>
      </trkpt>
      <trkpt lat="40.357139" lon="-3.350138">
        <ele>762.4</ele>
        <time>1970-01-01T01:35:38.000Z</time>
      </trkpt>
      <trkpt lat="40.357126" lon="-3.350112">
        <ele>762.4</ele>
        <time>1970-01-01T01:35:39.000Z</time>
      </trkpt>
      <trkpt lat="40.357118" lon="-3.350085">
        <ele>762.4</ele>
        <time>1970-01-01T01:35:40.000Z</time>
      </trkpt>
      <trkpt lat="40.357111" lon="-3.35006">
        <ele>762.4</ele>
        <time>1970-01-01T01:35:41.000Z</time>
      </trkpt>
      <trkpt lat="40.3571" lon="-3.350037">
        <ele>762.4</ele>
        <time>1970-01-01T01:35:42.000Z</time>
      </trkpt>
      <trkpt lat="40.357086" lon="-3.350016">
        <ele>762.4</ele>
        <time>1970-01-01T01:35:43.000Z</time>
      </trkpt>
      <trkpt lat="40.357075" lon="-3.349996">
        <ele>762.8</ele>
        <time>1970-01-01T01:35:44.000Z</time>
      </trkpt>
      <trkpt lat="40.357062" lon="-3.349975">
        <ele>762.8</ele>
        <time>1970-01-01T01:35:45.000Z</time>
      </trkpt>
      <trkpt lat="40.357049" lon="-3.349954">
        <ele>763</ele>
        <time>1970-01-01T01:35:46.000Z</time>
      </trkpt>
      <trkpt lat="40.35704" lon="-3.349931">
        <ele>763</ele>
        <time>1970-01-01T01:35:47.000Z</time>
      </trkpt>
      <trkpt lat="40.357037" lon="-3.349908">
        <ele>763</ele>
        <time>1970-01-01T01:35:48.000Z</time>
      </trkpt>
      <trkpt lat="40.357037" lon="-3.349884">
        <ele>763</ele>
        <time>1970-01-01T01:35:49.000Z</time>
      </trkpt>
      <trkpt lat="40.357036" lon="-3.34986">
        <ele>763</ele>
        <time>1970-01-01T01:35:50.000Z</time>
      </trkpt>
      <trkpt lat="40.357045" lon="-3.349843">
        <ele>763.2</ele>
        <time>1970-01-01T01:35:51.000Z</time>
      </trkpt>
      <trkpt lat="40.357057" lon="-3.349823">
        <ele>763.2</ele>
        <time>1970-01-01T01:35:52.000Z</time>
      </trkpt>
      <trkpt lat="40.357062" lon="-3.349801">
        <ele>763.6</ele>
        <time>1970-01-01T01:35:53.000Z</time>
      </trkpt>
      <trkpt lat="40.357066" lon="-3.349776">
        <ele>763.6</ele>
        <time>1970-01-01T01:35:54.000Z</time>
      </trkpt>
      <trkpt lat="40.357071" lon="-3.349755">
        <ele>763.8</ele>
        <time>1970-01-01T01:35:55.000Z</time>
      </trkpt>
      <trkpt lat="40.35707" lon="-3.349739">
        <ele>763.8</ele>
        <time>1970-01-01T01:35:56.000Z</time>
      </trkpt>
      <trkpt lat="40.35706" lon="-3.349726">
        <ele>764</ele>
        <time>1970-01-01T01:35:57.000Z</time>
      </trkpt>
      <trkpt lat="40.357044" lon="-3.349709">
        <ele>764</ele>
        <time>1970-01-01T01:35:58.000Z</time>
      </trkpt>
      <trkpt lat="40.357029" lon="-3.349693">
        <ele>764.2</ele>
        <time>1970-01-01T01:35:59.000Z</time>
      </trkpt>
      <trkpt lat="40.357013" lon="-3.34968">
        <ele>764.2</ele>
        <time>1970-01-01T01:36:00.000Z</time>
      </trkpt>
      <trkpt lat="40.356997" lon="-3.349669">
        <ele>764.2</ele>
        <time>1970-01-01T01:36:01.000Z</time>
      </trkpt>
      <trkpt lat="40.356983" lon="-3.349664">
        <ele>764.4</ele>
        <time>1970-01-01T01:36:02.000Z</time>
      </trkpt>
      <trkpt lat="40.356974" lon="-3.34965">
        <ele>764.6</ele>
        <time>1970-01-01T01:36:03.000Z</time>
      </trkpt>
      <trkpt lat="40.356965" lon="-3.34963">
        <ele>764.6</ele>
        <time>1970-01-01T01:36:04.000Z</time>
      </trkpt>
      <trkpt lat="40.356954" lon="-3.349608">
        <ele>765</ele>
        <time>1970-01-01T01:36:05.000Z</time>
      </trkpt>
      <trkpt lat="40.356946" lon="-3.34959">
        <ele>765.2</ele>
        <time>1970-01-01T01:36:06.000Z</time>
      </trkpt>
      <trkpt lat="40.35694" lon="-3.349578">
        <ele>765.4</ele>
        <time>1970-01-01T01:36:07.000Z</time>
      </trkpt>
      <trkpt lat="40.356937" lon="-3.349575">
        <ele>765.6</ele>
        <time>1970-01-01T01:36:08.000Z</time>
      </trkpt>
      <trkpt lat="40.356938" lon="-3.349574">
        <ele>766.2</ele>
        <time>1970-01-01T01:36:09.000Z</time>
      </trkpt>
      <trkpt lat="40.356941" lon="-3.349567">
        <ele>766.4</ele>
        <time>1970-01-01T01:36:10.000Z</time>
      </trkpt>
      <trkpt lat="40.356944" lon="-3.349564">
        <ele>766.8</ele>
        <time>1970-01-01T01:36:11.000Z</time>
      </trkpt>
      <trkpt lat="40.356944" lon="-3.349564">
        <ele>767</ele>
        <time>1970-01-01T01:36:12.000Z</time>
      </trkpt>
      <trkpt lat="40.356885" lon="-3.349385">
        <ele>769.6</ele>
        <time>1970-01-01T01:36:50.000Z</time>
      </trkpt>
      <trkpt lat="40.35689" lon="-3.349365">
        <ele>769.6</ele>
        <time>1970-01-01T01:36:51.000Z</time>
      </trkpt>
      <trkpt lat="40.356899" lon="-3.349347">
        <ele>769.6</ele>
        <time>1970-01-01T01:36:52.000Z</time>
      </trkpt>
      <trkpt lat="40.356905" lon="-3.34933">
        <ele>769.6</ele>
        <time>1970-01-01T01:36:53.000Z</time>
      </trkpt>
      <trkpt lat="40.356914" lon="-3.349311">
        <ele>769.6</ele>
        <time>1970-01-01T01:36:54.000Z</time>
      </trkpt>
      <trkpt lat="40.356927" lon="-3.349293">
        <ele>769.6</ele>
        <time>1970-01-01T01:36:55.000Z</time>
      </trkpt>
      <trkpt lat="40.35694" lon="-3.349273">
        <ele>769.6</ele>
        <time>1970-01-01T01:36:56.000Z</time>
      </trkpt>
      <trkpt lat="40.356952" lon="-3.34925">
        <ele>769.6</ele>
        <time>1970-01-01T01:36:57.000Z</time>
      </trkpt>
      <trkpt lat="40.356964" lon="-3.34923">
        <ele>769.6</ele>
        <time>1970-01-01T01:36:58.000Z</time>
      </trkpt>
      <trkpt lat="40.356976" lon="-3.34921">
        <ele>769.6</ele>
        <time>1970-01-01T01:36:59.000Z</time>
      </trkpt>
      <trkpt lat="40.356988" lon="-3.34919">
        <ele>769.6</ele>
        <time>1970-01-01T01:37:00.000Z</time>
      </trkpt>
      <trkpt lat="40.356998" lon="-3.349167">
        <ele>769.6</ele>
        <time>1970-01-01T01:37:01.000Z</time>
      </trkpt>
      <trkpt lat="40.357008" lon="-3.349146">
        <ele>769.6</ele>
        <time>1970-01-01T01:37:02.000Z</time>
      </trkpt>
      <trkpt lat="40.357018" lon="-3.349126">
        <ele>769.6</ele>
        <time>1970-01-01T01:37:03.000Z</time>
      </trkpt>
      <trkpt lat="40.357027" lon="-3.349109">
        <ele>769.6</ele>
        <time>1970-01-01T01:37:04.000Z</time>
      </trkpt>
      <trkpt lat="40.357037" lon="-3.349095">
        <ele>769.8</ele>
        <time>1970-01-01T01:37:05.000Z</time>
      </trkpt>
      <trkpt lat="40.357045" lon="-3.349086">
        <ele>769.8</ele>
        <time>1970-01-01T01:37:06.000Z</time>
      </trkpt>
      <trkpt lat="40.357053" lon="-3.34908">
        <ele>769.8</ele>
        <time>1970-01-01T01:37:07.000Z</time>
      </trkpt>
      <trkpt lat="40.357062" lon="-3.349073">
        <ele>769.8</ele>
        <time>1970-01-01T01:37:08.000Z</time>
      </trkpt>
      <trkpt lat="40.357066" lon="-3.349071">
        <ele>769.8</ele>
        <time>1970-01-01T01:37:09.000Z</time>
      </trkpt>
      <trkpt lat="40.357066" lon="-3.349071">
        <ele>769.8</ele>
        <time>1970-01-01T01:37:10.000Z</time>
      </trkpt>
      <trkpt lat="40.357066" lon="-3.349071">
        <ele>769.8</ele>
        <time>1970-01-01T01:37:11.000Z</time>
      </trkpt>
      <trkpt lat="40.35711" lon="-3.349041">
        <ele>769.6</ele>
        <time>1970-01-01T01:37:15.000Z</time>
      </trkpt>
      <trkpt lat="40.357116" lon="-3.349033">
        <ele>769.6</ele>
        <time>1970-01-01T01:37:16.000Z</time>
      </trkpt>
      <trkpt lat="40.357116" lon="-3.349033">
        <ele>769.6</ele>
        <time>1970-01-01T01:37:17.000Z</time>
      </trkpt>
      <trkpt lat="40.357118" lon="-3.349063">
        <ele>769.6</ele>
        <time>1970-01-01T01:37:55.000Z</time>
      </trkpt>
      <trkpt lat="40.35713" lon="-3.349078">
        <ele>769.6</ele>
        <time>1970-01-01T01:37:56.000Z</time>
      </trkpt>
      <trkpt lat="40.357143" lon="-3.349101">
        <ele>769.6</ele>
        <time>1970-01-01T01:37:57.000Z</time>
      </trkpt>
      <trkpt lat="40.357158" lon="-3.349123">
        <ele>769.6</ele>
        <time>1970-01-01T01:37:58.000Z</time>
      </trkpt>
      <trkpt lat="40.357175" lon="-3.349144">
        <ele>769.6</ele>
        <time>1970-01-01T01:37:59.000Z</time>
      </trkpt>
      <trkpt lat="40.357193" lon="-3.349167">
        <ele>769.4</ele>
        <time>1970-01-01T01:38:00.000Z</time>
      </trkpt>
      <trkpt lat="40.357211" lon="-3.349191">
        <ele>769.2</ele>
        <time>1970-01-01T01:38:01.000Z</time>
      </trkpt>
      <trkpt lat="40.357231" lon="-3.349213">
        <ele>769.2</ele>
        <time>1970-01-01T01:38:02.000Z</time>
      </trkpt>
      <trkpt lat="40.357253" lon="-3.349231">
        <ele>768.8</ele>
        <time>1970-01-01T01:38:03.000Z</time>
      </trkpt>
      <trkpt lat="40.357276" lon="-3.349241">
        <ele>768.4</ele>
        <time>1970-01-01T01:38:04.000Z</time>
      </trkpt>
      <trkpt lat="40.357299" lon="-3.349248">
        <ele>768</ele>
        <time>1970-01-01T01:38:05.000Z</time>
      </trkpt>
      <trkpt lat="40.357319" lon="-3.34925">
        <ele>768</ele>
        <time>1970-01-01T01:38:06.000Z</time>
      </trkpt>
      <trkpt lat="40.357334" lon="-3.34925">
        <ele>767.4</ele>
        <time>1970-01-01T01:38:07.000Z</time>
      </trkpt>
      <trkpt lat="40.357349" lon="-3.34925">
        <ele>767.4</ele>
        <time>1970-01-01T01:38:08.000Z</time>
      </trkpt>
      <trkpt lat="40.357363" lon="-3.34925">
        <ele>767.2</ele>
        <time>1970-01-01T01:38:09.000Z</time>
      </trkpt>
      <trkpt lat="40.357378" lon="-3.349252">
        <ele>767</ele>
        <time>1970-01-01T01:38:10.000Z</time>
      </trkpt>
      <trkpt lat="40.357395" lon="-3.34926">
        <ele>767</ele>
        <time>1970-01-01T01:38:11.000Z</time>
      </trkpt>
      <trkpt lat="40.357412" lon="-3.349267">
        <ele>767</ele>
        <time>1970-01-01T01:38:12.000Z</time>
      </trkpt>
      <trkpt lat="40.357428" lon="-3.349271">
        <ele>767</ele>
        <time>1970-01-01T01:38:13.000Z</time>
      </trkpt>
      <trkpt lat="40.357443" lon="-3.349271">
        <ele>767</ele>
        <time>1970-01-01T01:38:14.000Z</time>
      </trkpt>
      <trkpt lat="40.357461" lon="-3.349273">
        <ele>767</ele>
        <time>1970-01-01T01:38:15.000Z</time>
      </trkpt>
      <trkpt lat="40.357481" lon="-3.349275">
        <ele>767</ele>
        <time>1970-01-01T01:38:16.000Z</time>
      </trkpt>
      <trkpt lat="40.357501" lon="-3.349282">
        <ele>767</ele>
        <time>1970-01-01T01:38:17.000Z</time>
      </trkpt>
      <trkpt lat="40.357522" lon="-3.349291">
        <ele>767</ele>
        <time>1970-01-01T01:38:18.000Z</time>
      </trkpt>
      <trkpt lat="40.357543" lon="-3.349299">
        <ele>767</ele>
        <time>1970-01-01T01:38:19.000Z</time>
      </trkpt>
      <trkpt lat="40.357563" lon="-3.349303">
        <ele>767</ele>
        <time>1970-01-01T01:38:20.000Z</time>
      </trkpt>
      <trkpt lat="40.357582" lon="-3.349306">
        <ele>767</ele>
        <time>1970-01-01T01:38:21.000Z</time>
      </trkpt>
      <trkpt lat="40.357601" lon="-3.349309">
        <ele>767.2</ele>
        <time>1970-01-01T01:38:22.000Z</time>
      </trkpt>
      <trkpt lat="40.357619" lon="-3.34931">
        <ele>767.2</ele>
        <time>1970-01-01T01:38:23.000Z</time>
      </trkpt>
      <trkpt lat="40.35764" lon="-3.349312">
        <ele>767.2</ele>
        <time>1970-01-01T01:38:24.000Z</time>
      </trkpt>
      <trkpt lat="40.357663" lon="-3.349318">
        <ele>767.2</ele>
        <time>1970-01-01T01:38:25.000Z</time>
      </trkpt>
      <trkpt lat="40.357684" lon="-3.349327">
        <ele>767.2</ele>
        <time>1970-01-01T01:38:26.000Z</time>
      </trkpt>
      <trkpt lat="40.357703" lon="-3.349335">
        <ele>767.2</ele>
        <time>1970-01-01T01:38:27.000Z</time>
      </trkpt>
      <trkpt lat="40.357724" lon="-3.349342">
        <ele>767.2</ele>
        <time>1970-01-01T01:38:28.000Z</time>
      </trkpt>
      <trkpt lat="40.357743" lon="-3.349348">
        <ele>767.2</ele>
        <time>1970-01-01T01:38:29.000Z</time>
      </trkpt>
      <trkpt lat="40.35776" lon="-3.349358">
        <ele>767.2</ele>
        <time>1970-01-01T01:38:30.000Z</time>
      </trkpt>
      <trkpt lat="40.357776" lon="-3.349369">
        <ele>767.4</ele>
        <time>1970-01-01T01:38:31.000Z</time>
      </trkpt>
      <trkpt lat="40.357794" lon="-3.349386">
        <ele>767.4</ele>
        <time>1970-01-01T01:38:32.000Z</time>
      </trkpt>
      <trkpt lat="40.357812" lon="-3.349404">
        <ele>767.6</ele>
        <time>1970-01-01T01:38:33.000Z</time>
      </trkpt>
      <trkpt lat="40.357828" lon="-3.349425">
        <ele>767.6</ele>
        <time>1970-01-01T01:38:34.000Z</time>
      </trkpt>
      <trkpt lat="40.357843" lon="-3.349449">
        <ele>767.8</ele>
        <time>1970-01-01T01:38:35.000Z</time>
      </trkpt>
      <trkpt lat="40.357858" lon="-3.349474">
        <ele>767.8</ele>
        <time>1970-01-01T01:38:36.000Z</time>
      </trkpt>
      <trkpt lat="40.35787" lon="-3.349504">
        <ele>768</ele>
        <time>1970-01-01T01:38:37.000Z</time>
      </trkpt>
      <trkpt lat="40.357876" lon="-3.349535">
        <ele>768</ele>
        <time>1970-01-01T01:38:38.000Z</time>
      </trkpt>
      <trkpt lat="40.357876" lon="-3.349567">
        <ele>768.2</ele>
        <time>1970-01-01T01:38:39.000Z</time>
      </trkpt>
      <trkpt lat="40.357871" lon="-3.349593">
        <ele>768.2</ele>
        <time>1970-01-01T01:38:40.000Z</time>
      </trkpt>
      <trkpt lat="40.357862" lon="-3.349613">
        <ele>768.4</ele>
        <time>1970-01-01T01:38:41.000Z</time>
      </trkpt>
      <trkpt lat="40.357851" lon="-3.349633">
        <ele>768.6</ele>
        <time>1970-01-01T01:38:42.000Z</time>
      </trkpt>
      <trkpt lat="40.357836" lon="-3.349651">
        <ele>768.6</ele>
        <time>1970-01-01T01:38:43.000Z</time>
      </trkpt>
      <trkpt lat="40.357817" lon="-3.349659">
        <ele>769</ele>
        <time>1970-01-01T01:38:44.000Z</time>
      </trkpt>
      <trkpt lat="40.357797" lon="-3.349662">
        <ele>769.2</ele>
        <time>1970-01-01T01:38:45.000Z</time>
      </trkpt>
      <trkpt lat="40.357778" lon="-3.34967">
        <ele>769.4</ele>
        <time>1970-01-01T01:38:46.000Z</time>
      </trkpt>
      <trkpt lat="40.357762" lon="-3.349679">
        <ele>769.6</ele>
        <time>1970-01-01T01:38:47.000Z</time>
      </trkpt>
      <trkpt lat="40.357751" lon="-3.349695">
        <ele>769.8</ele>
        <time>1970-01-01T01:38:48.000Z</time>
      </trkpt>
      <trkpt lat="40.357745" lon="-3.349716">
        <ele>769.8</ele>
        <time>1970-01-01T01:38:49.000Z</time>
      </trkpt>
      <trkpt lat="40.35774" lon="-3.349742">
        <ele>770.2</ele>
        <time>1970-01-01T01:38:50.000Z</time>
      </trkpt>
      <trkpt lat="40.357736" lon="-3.349772">
        <ele>770.4</ele>
        <time>1970-01-01T01:38:51.000Z</time>
      </trkpt>
      <trkpt lat="40.357733" lon="-3.349803">
        <ele>770.6</ele>
        <time>1970-01-01T01:38:52.000Z</time>
      </trkpt>
      <trkpt lat="40.35773" lon="-3.349837">
        <ele>770.8</ele>
        <time>1970-01-01T01:38:53.000Z</time>
      </trkpt>
      <trkpt lat="40.357727" lon="-3.349871">
        <ele>770.8</ele>
        <time>1970-01-01T01:38:54.000Z</time>
      </trkpt>
      <trkpt lat="40.357724" lon="-3.349906">
        <ele>771</ele>
        <time>1970-01-01T01:38:55.000Z</time>
      </trkpt>
      <trkpt lat="40.357722" lon="-3.349938">
        <ele>771</ele>
        <time>1970-01-01T01:38:56.000Z</time>
      </trkpt>
      <trkpt lat="40.357719" lon="-3.349972">
        <ele>771</ele>
        <time>1970-01-01T01:38:57.000Z</time>
      </trkpt>
      <trkpt lat="40.357719" lon="-3.350005">
        <ele>771.2</ele>
        <time>1970-01-01T01:38:58.000Z</time>
      </trkpt>
      <trkpt lat="40.357719" lon="-3.35004">
        <ele>771.2</ele>
        <time>1970-01-01T01:38:59.000Z</time>
      </trkpt>
      <trkpt lat="40.357719" lon="-3.350073">
        <ele>771.2</ele>
        <time>1970-01-01T01:39:00.000Z</time>
      </trkpt>
      <trkpt lat="40.357719" lon="-3.35011">
        <ele>771.2</ele>
        <time>1970-01-01T01:39:01.000Z</time>
      </trkpt>
      <trkpt lat="40.357718" lon="-3.350145">
        <ele>771.2</ele>
        <time>1970-01-01T01:39:02.000Z</time>
      </trkpt>
      <trkpt lat="40.35772" lon="-3.350185">
        <ele>771.4</ele>
        <time>1970-01-01T01:39:03.000Z</time>
      </trkpt>
      <trkpt lat="40.35772" lon="-3.350226">
        <ele>771.4</ele>
        <time>1970-01-01T01:39:04.000Z</time>
      </trkpt>
      <trkpt lat="40.35772" lon="-3.350266">
        <ele>771.4</ele>
        <time>1970-01-01T01:39:05.000Z</time>
      </trkpt>
      <trkpt lat="40.357723" lon="-3.350306">
        <ele>771.6</ele>
        <time>1970-01-01T01:39:06.000Z</time>
      </trkpt>
      <trkpt lat="40.357727" lon="-3.350345">
        <ele>771.6</ele>
        <time>1970-01-01T01:39:07.000Z</time>
      </trkpt>
      <trkpt lat="40.357736" lon="-3.350385">
        <ele>771.8</ele>
        <time>1970-01-01T01:39:08.000Z</time>
      </trkpt>
      <trkpt lat="40.357747" lon="-3.35042">
        <ele>771.8</ele>
        <time>1970-01-01T01:39:09.000Z</time>
      </trkpt>
      <trkpt lat="40.35776" lon="-3.350452">
        <ele>772</ele>
        <time>1970-01-01T01:39:10.000Z</time>
      </trkpt>
      <trkpt lat="40.357772" lon="-3.350484">
        <ele>772</ele>
        <time>1970-01-01T01:39:11.000Z</time>
      </trkpt>
      <trkpt lat="40.357783" lon="-3.350518">
        <ele>772.2</ele>
        <time>1970-01-01T01:39:12.000Z</time>
      </trkpt>
      <trkpt lat="40.357787" lon="-3.350552">
        <ele>772.4</ele>
        <time>1970-01-01T01:39:13.000Z</time>
      </trkpt>
      <trkpt lat="40.357785" lon="-3.350589">
        <ele>772.4</ele>
        <time>1970-01-01T01:39:14.000Z</time>
      </trkpt>
      <trkpt lat="40.357781" lon="-3.35063">
        <ele>772.6</ele>
        <time>1970-01-01T01:39:15.000Z</time>
      </trkpt>
      <trkpt lat="40.357773" lon="-3.350672">
        <ele>772.8</ele>
        <time>1970-01-01T01:39:16.000Z</time>
      </trkpt>
      <trkpt lat="40.357762" lon="-3.350714">
        <ele>772.8</ele>
        <time>1970-01-01T01:39:17.000Z</time>
      </trkpt>
      <trkpt lat="40.35775" lon="-3.350756">
        <ele>772.8</ele>
        <time>1970-01-01T01:39:18.000Z</time>
      </trkpt>
      <trkpt lat="40.357741" lon="-3.350803">
        <ele>772.8</ele>
        <time>1970-01-01T01:39:19.000Z</time>
      </trkpt>
      <trkpt lat="40.357735" lon="-3.350849">
        <ele>772.8</ele>
        <time>1970-01-01T01:39:20.000Z</time>
      </trkpt>
      <trkpt lat="40.357733" lon="-3.350896">
        <ele>773</ele>
        <time>1970-01-01T01:39:21.000Z</time>
      </trkpt>
      <trkpt lat="40.357734" lon="-3.350942">
        <ele>773</ele>
        <time>1970-01-01T01:39:22.000Z</time>
      </trkpt>
      <trkpt lat="40.35774" lon="-3.350988">
        <ele>773</ele>
        <time>1970-01-01T01:39:23.000Z</time>
      </trkpt>
      <trkpt lat="40.357748" lon="-3.351034">
        <ele>773</ele>
        <time>1970-01-01T01:39:24.000Z</time>
      </trkpt>
      <trkpt lat="40.35776" lon="-3.35108">
        <ele>773</ele>
        <time>1970-01-01T01:39:25.000Z</time>
      </trkpt>
      <trkpt lat="40.357776" lon="-3.351128">
        <ele>773</ele>
        <time>1970-01-01T01:39:26.000Z</time>
      </trkpt>
      <trkpt lat="40.357791" lon="-3.351176">
        <ele>773</ele>
        <time>1970-01-01T01:39:27.000Z</time>
      </trkpt>
      <trkpt lat="40.357808" lon="-3.351221">
        <ele>773</ele>
        <time>1970-01-01T01:39:28.000Z</time>
      </trkpt>
      <trkpt lat="40.357825" lon="-3.351265">
        <ele>772.8</ele>
        <time>1970-01-01T01:39:29.000Z</time>
      </trkpt>
      <trkpt lat="40.35784" lon="-3.35131">
        <ele>772.8</ele>
        <time>1970-01-01T01:39:30.000Z</time>
      </trkpt>
      <trkpt lat="40.357852" lon="-3.351359">
        <ele>772.8</ele>
        <time>1970-01-01T01:39:31.000Z</time>
      </trkpt>
      <trkpt lat="40.357864" lon="-3.351408">
        <ele>772.8</ele>
        <time>1970-01-01T01:39:32.000Z</time>
      </trkpt>
      <trkpt lat="40.357877" lon="-3.351458">
        <ele>772.8</ele>
        <time>1970-01-01T01:39:33.000Z</time>
      </trkpt>
      <trkpt lat="40.357892" lon="-3.351507">
        <ele>772.6</ele>
        <time>1970-01-01T01:39:34.000Z</time>
      </trkpt>
      <trkpt lat="40.35791" lon="-3.351552">
        <ele>772.6</ele>
        <time>1970-01-01T01:39:35.000Z</time>
      </trkpt>
      <trkpt lat="40.357931" lon="-3.351595">
        <ele>772.6</ele>
        <time>1970-01-01T01:39:36.000Z</time>
      </trkpt>
      <trkpt lat="40.357951" lon="-3.351639">
        <ele>772.6</ele>
        <time>1970-01-01T01:39:37.000Z</time>
      </trkpt>
      <trkpt lat="40.357969" lon="-3.351684">
        <ele>772.6</ele>
        <time>1970-01-01T01:39:38.000Z</time>
      </trkpt>
      <trkpt lat="40.357991" lon="-3.351732">
        <ele>772.6</ele>
        <time>1970-01-01T01:39:39.000Z</time>
      </trkpt>
      <trkpt lat="40.358019" lon="-3.351782">
        <ele>772.6</ele>
        <time>1970-01-01T01:39:40.000Z</time>
      </trkpt>
      <trkpt lat="40.358047" lon="-3.351831">
        <ele>772.6</ele>
        <time>1970-01-01T01:39:41.000Z</time>
      </trkpt>
      <trkpt lat="40.358075" lon="-3.351885">
        <ele>772.4</ele>
        <time>1970-01-01T01:39:42.000Z</time>
      </trkpt>
      <trkpt lat="40.358097" lon="-3.35194">
        <ele>772.4</ele>
        <time>1970-01-01T01:39:43.000Z</time>
      </trkpt>
      <trkpt lat="40.358118" lon="-3.351997">
        <ele>772.4</ele>
        <time>1970-01-01T01:39:44.000Z</time>
      </trkpt>
      <trkpt lat="40.358135" lon="-3.352063">
        <ele>772.4</ele>
        <time>1970-01-01T01:39:45.000Z</time>
      </trkpt>
      <trkpt lat="40.358149" lon="-3.352138">
        <ele>772.4</ele>
        <time>1970-01-01T01:39:46.000Z</time>
      </trkpt>
      <trkpt lat="40.35816" lon="-3.352216">
        <ele>771.8</ele>
        <time>1970-01-01T01:39:47.000Z</time>
      </trkpt>
      <trkpt lat="40.358171" lon="-3.352295">
        <ele>771.4</ele>
        <time>1970-01-01T01:39:48.000Z</time>
      </trkpt>
      <trkpt lat="40.358181" lon="-3.352371">
        <ele>771.2</ele>
        <time>1970-01-01T01:39:49.000Z</time>
      </trkpt>
      <trkpt lat="40.358193" lon="-3.352442">
        <ele>770.8</ele>
        <time>1970-01-01T01:39:50.000Z</time>
      </trkpt>
      <trkpt lat="40.358209" lon="-3.352507">
        <ele>770.6</ele>
        <time>1970-01-01T01:39:51.000Z</time>
      </trkpt>
      <trkpt lat="40.358228" lon="-3.352564">
        <ele>770.2</ele>
        <time>1970-01-01T01:39:52.000Z</time>
      </trkpt>
      <trkpt lat="40.358249" lon="-3.352611">
        <ele>770.2</ele>
        <time>1970-01-01T01:39:53.000Z</time>
      </trkpt>
      <trkpt lat="40.358269" lon="-3.352648">
        <ele>770.2</ele>
        <time>1970-01-01T01:39:54.000Z</time>
      </trkpt>
      <trkpt lat="40.358291" lon="-3.352685">
        <ele>770.2</ele>
        <time>1970-01-01T01:39:55.000Z</time>
      </trkpt>
      <trkpt lat="40.358306" lon="-3.35272">
        <ele>770.2</ele>
        <time>1970-01-01T01:39:56.000Z</time>
      </trkpt>
      <trkpt lat="40.358313" lon="-3.352755">
        <ele>770.2</ele>
        <time>1970-01-01T01:39:57.000Z</time>
      </trkpt>
      <trkpt lat="40.358317" lon="-3.352789">
        <ele>770.2</ele>
        <time>1970-01-01T01:39:58.000Z</time>
      </trkpt>
      <trkpt lat="40.358323" lon="-3.352819">
        <ele>770.4</ele>
        <time>1970-01-01T01:39:59.000Z</time>
      </trkpt>
      <trkpt lat="40.358336" lon="-3.352847">
        <ele>770.6</ele>
        <time>1970-01-01T01:40:00.000Z</time>
      </trkpt>
      <trkpt lat="40.358356" lon="-3.352879">
        <ele>770.6</ele>
        <time>1970-01-01T01:40:01.000Z</time>
      </trkpt>
      <trkpt lat="40.358379" lon="-3.352902">
        <ele>770.8</ele>
        <time>1970-01-01T01:40:02.000Z</time>
      </trkpt>
      <trkpt lat="40.358407" lon="-3.352925">
        <ele>771</ele>
        <time>1970-01-01T01:40:03.000Z</time>
      </trkpt>
      <trkpt lat="40.358438" lon="-3.35295">
        <ele>771</ele>
        <time>1970-01-01T01:40:04.000Z</time>
      </trkpt>
      <trkpt lat="40.358469" lon="-3.352981">
        <ele>771.2</ele>
        <time>1970-01-01T01:40:05.000Z</time>
      </trkpt>
      <trkpt lat="40.358499" lon="-3.353015">
        <ele>771.2</ele>
        <time>1970-01-01T01:40:06.000Z</time>
      </trkpt>
      <trkpt lat="40.35853" lon="-3.353048">
        <ele>771.4</ele>
        <time>1970-01-01T01:40:07.000Z</time>
      </trkpt>
      <trkpt lat="40.358551" lon="-3.35307">
        <ele>771.4</ele>
        <time>1970-01-01T01:40:08.000Z</time>
      </trkpt>
      <trkpt lat="40.358579" lon="-3.353097">
        <ele>771.6</ele>
        <time>1970-01-01T01:40:09.000Z</time>
      </trkpt>
      <trkpt lat="40.358618" lon="-3.353136">
        <ele>771.6</ele>
        <time>1970-01-01T01:40:10.000Z</time>
      </trkpt>
      <trkpt lat="40.358645" lon="-3.353166">
        <ele>771.6</ele>
        <time>1970-01-01T01:40:11.000Z</time>
      </trkpt>
      <trkpt lat="40.358672" lon="-3.353198">
        <ele>771.8</ele>
        <time>1970-01-01T01:40:12.000Z</time>
      </trkpt>
      <trkpt lat="40.358698" lon="-3.353228">
        <ele>771.8</ele>
        <time>1970-01-01T01:40:13.000Z</time>
      </trkpt>
      <trkpt lat="40.358723" lon="-3.353256">
        <ele>772</ele>
        <time>1970-01-01T01:40:14.000Z</time>
      </trkpt>
      <trkpt lat="40.35875" lon="-3.353284">
        <ele>772</ele>
        <time>1970-01-01T01:40:15.000Z</time>
      </trkpt>
      <trkpt lat="40.358778" lon="-3.35332">
        <ele>772.2</ele>
        <time>1970-01-01T01:40:16.000Z</time>
      </trkpt>
      <trkpt lat="40.358805" lon="-3.353356">
        <ele>772.4</ele>
        <time>1970-01-01T01:40:17.000Z</time>
      </trkpt>
      <trkpt lat="40.358835" lon="-3.353388">
        <ele>772.4</ele>
        <time>1970-01-01T01:40:18.000Z</time>
      </trkpt>
      <trkpt lat="40.358867" lon="-3.353414">
        <ele>772.4</ele>
        <time>1970-01-01T01:40:19.000Z</time>
      </trkpt>
      <trkpt lat="40.358904" lon="-3.353446">
        <ele>772.6</ele>
        <time>1970-01-01T01:40:20.000Z</time>
      </trkpt>
      <trkpt lat="40.358937" lon="-3.35348">
        <ele>772.6</ele>
        <time>1970-01-01T01:40:21.000Z</time>
      </trkpt>
      <trkpt lat="40.358974" lon="-3.353509">
        <ele>772.8</ele>
        <time>1970-01-01T01:40:22.000Z</time>
      </trkpt>
      <trkpt lat="40.359009" lon="-3.353535">
        <ele>772.8</ele>
        <time>1970-01-01T01:40:23.000Z</time>
      </trkpt>
      <trkpt lat="40.35904" lon="-3.353551">
        <ele>773</ele>
        <time>1970-01-01T01:40:24.000Z</time>
      </trkpt>
      <trkpt lat="40.359073" lon="-3.353569">
        <ele>773</ele>
        <time>1970-01-01T01:40:25.000Z</time>
      </trkpt>
      <trkpt lat="40.35911" lon="-3.353592">
        <ele>773.2</ele>
        <time>1970-01-01T01:40:26.000Z</time>
      </trkpt>
      <trkpt lat="40.359149" lon="-3.353604">
        <ele>773.2</ele>
        <time>1970-01-01T01:40:27.000Z</time>
      </trkpt>
      <trkpt lat="40.359189" lon="-3.353628">
        <ele>773.4</ele>
        <time>1970-01-01T01:40:28.000Z</time>
      </trkpt>
      <trkpt lat="40.359227" lon="-3.353644">
        <ele>773.4</ele>
        <time>1970-01-01T01:40:29.000Z</time>
      </trkpt>
      <trkpt lat="40.359264" lon="-3.353666">
        <ele>773.4</ele>
        <time>1970-01-01T01:40:30.000Z</time>
      </trkpt>
      <trkpt lat="40.359299" lon="-3.353693">
        <ele>773.6</ele>
        <time>1970-01-01T01:40:31.000Z</time>
      </trkpt>
      <trkpt lat="40.359328" lon="-3.353717">
        <ele>773.6</ele>
        <time>1970-01-01T01:40:32.000Z</time>
      </trkpt>
      <trkpt lat="40.359341" lon="-3.353726">
        <ele>773.6</ele>
        <time>1970-01-01T01:40:33.000Z</time>
      </trkpt>
      <trkpt lat="40.359361" lon="-3.353759">
        <ele>773.6</ele>
        <time>1970-01-01T01:40:34.000Z</time>
      </trkpt>
      <trkpt lat="40.359382" lon="-3.353807">
        <ele>773.6</ele>
        <time>1970-01-01T01:40:35.000Z</time>
      </trkpt>
      <trkpt lat="40.359403" lon="-3.353844">
        <ele>773.6</ele>
        <time>1970-01-01T01:40:36.000Z</time>
      </trkpt>
      <trkpt lat="40.359423" lon="-3.353876">
        <ele>773.4</ele>
        <time>1970-01-01T01:40:37.000Z</time>
      </trkpt>
      <trkpt lat="40.359445" lon="-3.353907">
        <ele>773.4</ele>
        <time>1970-01-01T01:40:38.000Z</time>
      </trkpt>
      <trkpt lat="40.359466" lon="-3.353936">
        <ele>773.4</ele>
        <time>1970-01-01T01:40:39.000Z</time>
      </trkpt>
      <trkpt lat="40.359487" lon="-3.353959">
        <ele>773.4</ele>
        <time>1970-01-01T01:40:40.000Z</time>
      </trkpt>
      <trkpt lat="40.359502" lon="-3.353991">
        <ele>773.4</ele>
        <time>1970-01-01T01:40:41.000Z</time>
      </trkpt>
      <trkpt lat="40.359517" lon="-3.354026">
        <ele>773.4</ele>
        <time>1970-01-01T01:40:42.000Z</time>
      </trkpt>
      <trkpt lat="40.359531" lon="-3.354069">
        <ele>773.4</ele>
        <time>1970-01-01T01:40:43.000Z</time>
      </trkpt>
      <trkpt lat="40.359546" lon="-3.354122">
        <ele>773.2</ele>
        <time>1970-01-01T01:40:44.000Z</time>
      </trkpt>
      <trkpt lat="40.359561" lon="-3.354181">
        <ele>773.2</ele>
        <time>1970-01-01T01:40:45.000Z</time>
      </trkpt>
      <trkpt lat="40.359577" lon="-3.354241">
        <ele>773</ele>
        <time>1970-01-01T01:40:46.000Z</time>
      </trkpt>
      <trkpt lat="40.359591" lon="-3.354295">
        <ele>772.8</ele>
        <time>1970-01-01T01:40:47.000Z</time>
      </trkpt>
      <trkpt lat="40.359602" lon="-3.354344">
        <ele>772.8</ele>
        <time>1970-01-01T01:40:48.000Z</time>
      </trkpt>
      <trkpt lat="40.359606" lon="-3.354389">
        <ele>772.8</ele>
        <time>1970-01-01T01:40:49.000Z</time>
      </trkpt>
      <trkpt lat="40.359604" lon="-3.35443">
        <ele>772.8</ele>
        <time>1970-01-01T01:40:50.000Z</time>
      </trkpt>
      <trkpt lat="40.359605" lon="-3.354476">
        <ele>772.8</ele>
        <time>1970-01-01T01:40:51.000Z</time>
      </trkpt>
      <trkpt lat="40.359607" lon="-3.35452">
        <ele>772.8</ele>
        <time>1970-01-01T01:40:52.000Z</time>
      </trkpt>
      <trkpt lat="40.359611" lon="-3.35459">
        <ele>772.8</ele>
        <time>1970-01-01T01:40:53.000Z</time>
      </trkpt>
      <trkpt lat="40.359615" lon="-3.354648">
        <ele>773</ele>
        <time>1970-01-01T01:40:54.000Z</time>
      </trkpt>
      <trkpt lat="40.359617" lon="-3.354702">
        <ele>773</ele>
        <time>1970-01-01T01:40:55.000Z</time>
      </trkpt>
      <trkpt lat="40.359617" lon="-3.354753">
        <ele>773.2</ele>
        <time>1970-01-01T01:40:56.000Z</time>
      </trkpt>
      <trkpt lat="40.359618" lon="-3.354795">
        <ele>773.2</ele>
        <time>1970-01-01T01:40:57.000Z</time>
      </trkpt>
      <trkpt lat="40.359629" lon="-3.354835">
        <ele>773.4</ele>
        <time>1970-01-01T01:40:58.000Z</time>
      </trkpt>
      <trkpt lat="40.359641" lon="-3.354879">
        <ele>773.4</ele>
        <time>1970-01-01T01:40:59.000Z</time>
      </trkpt>
      <trkpt lat="40.359647" lon="-3.354932">
        <ele>773.4</ele>
        <time>1970-01-01T01:41:00.000Z</time>
      </trkpt>
      <trkpt lat="40.359655" lon="-3.354993">
        <ele>773.4</ele>
        <time>1970-01-01T01:41:01.000Z</time>
      </trkpt>
      <trkpt lat="40.359662" lon="-3.355056">
        <ele>773.4</ele>
        <time>1970-01-01T01:41:02.000Z</time>
      </trkpt>
      <trkpt lat="40.359678" lon="-3.355117">
        <ele>773.4</ele>
        <time>1970-01-01T01:41:03.000Z</time>
      </trkpt>
      <trkpt lat="40.359696" lon="-3.355168">
        <ele>773.4</ele>
        <time>1970-01-01T01:41:04.000Z</time>
      </trkpt>
      <trkpt lat="40.359712" lon="-3.355216">
        <ele>773.6</ele>
        <time>1970-01-01T01:41:05.000Z</time>
      </trkpt>
      <trkpt lat="40.359727" lon="-3.355267">
        <ele>773.6</ele>
        <time>1970-01-01T01:41:06.000Z</time>
      </trkpt>
      <trkpt lat="40.35974" lon="-3.355314">
        <ele>773.8</ele>
        <time>1970-01-01T01:41:07.000Z</time>
      </trkpt>
      <trkpt lat="40.359749" lon="-3.355365">
        <ele>774</ele>
        <time>1970-01-01T01:41:08.000Z</time>
      </trkpt>
      <trkpt lat="40.359747" lon="-3.35541">
        <ele>774.2</ele>
        <time>1970-01-01T01:41:09.000Z</time>
      </trkpt>
      <trkpt lat="40.359748" lon="-3.355457">
        <ele>774.4</ele>
        <time>1970-01-01T01:41:10.000Z</time>
      </trkpt>
      <trkpt lat="40.359751" lon="-3.355497">
        <ele>774.4</ele>
        <time>1970-01-01T01:41:11.000Z</time>
      </trkpt>
      <trkpt lat="40.359756" lon="-3.355553">
        <ele>774.6</ele>
        <time>1970-01-01T01:41:12.000Z</time>
      </trkpt>
      <trkpt lat="40.359764" lon="-3.3556">
        <ele>774.6</ele>
        <time>1970-01-01T01:41:13.000Z</time>
      </trkpt>
      <trkpt lat="40.359775" lon="-3.355644">
        <ele>774.8</ele>
        <time>1970-01-01T01:41:14.000Z</time>
      </trkpt>
      <trkpt lat="40.359783" lon="-3.355687">
        <ele>774.8</ele>
        <time>1970-01-01T01:41:15.000Z</time>
      </trkpt>
      <trkpt lat="40.359788" lon="-3.355732">
        <ele>774.8</ele>
        <time>1970-01-01T01:41:16.000Z</time>
      </trkpt>
      <trkpt lat="40.35979" lon="-3.355779">
        <ele>774.8</ele>
        <time>1970-01-01T01:41:17.000Z</time>
      </trkpt>
      <trkpt lat="40.359793" lon="-3.355827">
        <ele>774.8</ele>
        <time>1970-01-01T01:41:18.000Z</time>
      </trkpt>
      <trkpt lat="40.35981" lon="-3.355878">
        <ele>774.8</ele>
        <time>1970-01-01T01:41:19.000Z</time>
      </trkpt>
      <trkpt lat="40.359834" lon="-3.355934">
        <ele>774.8</ele>
        <time>1970-01-01T01:41:20.000Z</time>
      </trkpt>
      <trkpt lat="40.35985" lon="-3.355987">
        <ele>774.8</ele>
        <time>1970-01-01T01:41:21.000Z</time>
      </trkpt>
      <trkpt lat="40.359854" lon="-3.356039">
        <ele>774.8</ele>
        <time>1970-01-01T01:41:22.000Z</time>
      </trkpt>
      <trkpt lat="40.359857" lon="-3.356093">
        <ele>774.8</ele>
        <time>1970-01-01T01:41:23.000Z</time>
      </trkpt>
      <trkpt lat="40.359856" lon="-3.356145">
        <ele>774.8</ele>
        <time>1970-01-01T01:41:24.000Z</time>
      </trkpt>
      <trkpt lat="40.35985" lon="-3.356198">
        <ele>774.8</ele>
        <time>1970-01-01T01:41:25.000Z</time>
      </trkpt>
      <trkpt lat="40.359845" lon="-3.356249">
        <ele>774.8</ele>
        <time>1970-01-01T01:41:26.000Z</time>
      </trkpt>
      <trkpt lat="40.359852" lon="-3.356299">
        <ele>775</ele>
        <time>1970-01-01T01:41:27.000Z</time>
      </trkpt>
      <trkpt lat="40.359871" lon="-3.35635">
        <ele>775.2</ele>
        <time>1970-01-01T01:41:28.000Z</time>
      </trkpt>
      <trkpt lat="40.359893" lon="-3.356398">
        <ele>775.2</ele>
        <time>1970-01-01T01:41:29.000Z</time>
      </trkpt>
      <trkpt lat="40.359916" lon="-3.356446">
        <ele>775.2</ele>
        <time>1970-01-01T01:41:30.000Z</time>
      </trkpt>
      <trkpt lat="40.359942" lon="-3.356491">
        <ele>775.2</ele>
        <time>1970-01-01T01:41:31.000Z</time>
      </trkpt>
      <trkpt lat="40.359973" lon="-3.356533">
        <ele>775.2</ele>
        <time>1970-01-01T01:41:32.000Z</time>
      </trkpt>
      <trkpt lat="40.360006" lon="-3.356576">
        <ele>775.4</ele>
        <time>1970-01-01T01:41:33.000Z</time>
      </trkpt>
      <trkpt lat="40.360041" lon="-3.356615">
        <ele>775.8</ele>
        <time>1970-01-01T01:41:34.000Z</time>
      </trkpt>
      <trkpt lat="40.360073" lon="-3.356649">
        <ele>776.2</ele>
        <time>1970-01-01T01:41:35.000Z</time>
      </trkpt>
      <trkpt lat="40.360103" lon="-3.356691">
        <ele>776.2</ele>
        <time>1970-01-01T01:41:36.000Z</time>
      </trkpt>
      <trkpt lat="40.360135" lon="-3.356733">
        <ele>776.2</ele>
        <time>1970-01-01T01:41:37.000Z</time>
      </trkpt>
      <trkpt lat="40.360169" lon="-3.356778">
        <ele>776.4</ele>
        <time>1970-01-01T01:41:38.000Z</time>
      </trkpt>
      <trkpt lat="40.360202" lon="-3.356822">
        <ele>776.4</ele>
        <time>1970-01-01T01:41:39.000Z</time>
      </trkpt>
      <trkpt lat="40.360235" lon="-3.356866">
        <ele>776.4</ele>
        <time>1970-01-01T01:41:40.000Z</time>
      </trkpt>
      <trkpt lat="40.36027" lon="-3.356911">
        <ele>776.2</ele>
        <time>1970-01-01T01:41:41.000Z</time>
      </trkpt>
      <trkpt lat="40.360304" lon="-3.356952">
        <ele>776.2</ele>
        <time>1970-01-01T01:41:42.000Z</time>
      </trkpt>
      <trkpt lat="40.360336" lon="-3.35699">
        <ele>775.8</ele>
        <time>1970-01-01T01:41:43.000Z</time>
      </trkpt>
      <trkpt lat="40.360372" lon="-3.357024">
        <ele>775.6</ele>
        <time>1970-01-01T01:41:44.000Z</time>
      </trkpt>
      <trkpt lat="40.360412" lon="-3.357052">
        <ele>775.4</ele>
        <time>1970-01-01T01:41:45.000Z</time>
      </trkpt>
      <trkpt lat="40.360455" lon="-3.357074">
        <ele>775.2</ele>
        <time>1970-01-01T01:41:46.000Z</time>
      </trkpt>
      <trkpt lat="40.360499" lon="-3.357086">
        <ele>775.2</ele>
        <time>1970-01-01T01:41:47.000Z</time>
      </trkpt>
      <trkpt lat="40.360541" lon="-3.357092">
        <ele>775</ele>
        <time>1970-01-01T01:41:48.000Z</time>
      </trkpt>
      <trkpt lat="40.360584" lon="-3.357098">
        <ele>774.8</ele>
        <time>1970-01-01T01:41:49.000Z</time>
      </trkpt>
      <trkpt lat="40.360627" lon="-3.357106">
        <ele>774.6</ele>
        <time>1970-01-01T01:41:50.000Z</time>
      </trkpt>
      <trkpt lat="40.36067" lon="-3.357113">
        <ele>774.6</ele>
        <time>1970-01-01T01:41:51.000Z</time>
      </trkpt>
      <trkpt lat="40.360714" lon="-3.357118">
        <ele>774.4</ele>
        <time>1970-01-01T01:41:52.000Z</time>
      </trkpt>
      <trkpt lat="40.360759" lon="-3.357126">
        <ele>774.4</ele>
        <time>1970-01-01T01:41:53.000Z</time>
      </trkpt>
      <trkpt lat="40.360802" lon="-3.35714">
        <ele>774.2</ele>
        <time>1970-01-01T01:41:54.000Z</time>
      </trkpt>
      <trkpt lat="40.360842" lon="-3.357153">
        <ele>774.2</ele>
        <time>1970-01-01T01:41:55.000Z</time>
      </trkpt>
      <trkpt lat="40.360879" lon="-3.357164">
        <ele>774</ele>
        <time>1970-01-01T01:41:56.000Z</time>
      </trkpt>
      <trkpt lat="40.360915" lon="-3.357178">
        <ele>774</ele>
        <time>1970-01-01T01:41:57.000Z</time>
      </trkpt>
      <trkpt lat="40.360951" lon="-3.357195">
        <ele>774</ele>
        <time>1970-01-01T01:41:58.000Z</time>
      </trkpt>
      <trkpt lat="40.360988" lon="-3.357214">
        <ele>773.8</ele>
        <time>1970-01-01T01:41:59.000Z</time>
      </trkpt>
      <trkpt lat="40.361027" lon="-3.357235">
        <ele>773.8</ele>
        <time>1970-01-01T01:42:00.000Z</time>
      </trkpt>
      <trkpt lat="40.361068" lon="-3.357252">
        <ele>773.8</ele>
        <time>1970-01-01T01:42:01.000Z</time>
      </trkpt>
      <trkpt lat="40.36111" lon="-3.357262">
        <ele>773.8</ele>
        <time>1970-01-01T01:42:02.000Z</time>
      </trkpt>
      <trkpt lat="40.361152" lon="-3.357268">
        <ele>773.8</ele>
        <time>1970-01-01T01:42:03.000Z</time>
      </trkpt>
      <trkpt lat="40.361195" lon="-3.357263">
        <ele>773.8</ele>
        <time>1970-01-01T01:42:04.000Z</time>
      </trkpt>
      <trkpt lat="40.361236" lon="-3.357242">
        <ele>773.6</ele>
        <time>1970-01-01T01:42:05.000Z</time>
      </trkpt>
      <trkpt lat="40.361276" lon="-3.357206">
        <ele>773.6</ele>
        <time>1970-01-01T01:42:06.000Z</time>
      </trkpt>
      <trkpt lat="40.361309" lon="-3.35716">
        <ele>773.4</ele>
        <time>1970-01-01T01:42:07.000Z</time>
      </trkpt>
      <trkpt lat="40.361339" lon="-3.35711">
        <ele>773.4</ele>
        <time>1970-01-01T01:42:08.000Z</time>
      </trkpt>
      <trkpt lat="40.361368" lon="-3.357054">
        <ele>772.6</ele>
        <time>1970-01-01T01:42:09.000Z</time>
      </trkpt>
      <trkpt lat="40.361394" lon="-3.356996">
        <ele>772.4</ele>
        <time>1970-01-01T01:42:10.000Z</time>
      </trkpt>
      <trkpt lat="40.361418" lon="-3.356938">
        <ele>771.8</ele>
        <time>1970-01-01T01:42:11.000Z</time>
      </trkpt>
      <trkpt lat="40.36144" lon="-3.356882">
        <ele>771.6</ele>
        <time>1970-01-01T01:42:12.000Z</time>
      </trkpt>
      <trkpt lat="40.361459" lon="-3.356828">
        <ele>771.4</ele>
        <time>1970-01-01T01:42:13.000Z</time>
      </trkpt>
      <trkpt lat="40.361473" lon="-3.356777">
        <ele>771.4</ele>
        <time>1970-01-01T01:42:14.000Z</time>
      </trkpt>
      <trkpt lat="40.361488" lon="-3.35673">
        <ele>771.4</ele>
        <time>1970-01-01T01:42:15.000Z</time>
      </trkpt>
      <trkpt lat="40.361508" lon="-3.356691">
        <ele>771.2</ele>
        <time>1970-01-01T01:42:16.000Z</time>
      </trkpt>
      <trkpt lat="40.361531" lon="-3.356662">
        <ele>771.2</ele>
        <time>1970-01-01T01:42:17.000Z</time>
      </trkpt>
      <trkpt lat="40.361551" lon="-3.356641">
        <ele>771.2</ele>
        <time>1970-01-01T01:42:18.000Z</time>
      </trkpt>
      <trkpt lat="40.361569" lon="-3.356629">
        <ele>771.2</ele>
        <time>1970-01-01T01:42:19.000Z</time>
      </trkpt>
      <trkpt lat="40.361587" lon="-3.356625">
        <ele>771.2</ele>
        <time>1970-01-01T01:42:20.000Z</time>
      </trkpt>
      <trkpt lat="40.361608" lon="-3.356627">
        <ele>771.4</ele>
        <time>1970-01-01T01:42:21.000Z</time>
      </trkpt>
      <trkpt lat="40.361636" lon="-3.356636">
        <ele>771.6</ele>
        <time>1970-01-01T01:42:22.000Z</time>
      </trkpt>
      <trkpt lat="40.361667" lon="-3.356664">
        <ele>771.6</ele>
        <time>1970-01-01T01:42:23.000Z</time>
      </trkpt>
      <trkpt lat="40.361695" lon="-3.356708">
        <ele>771.8</ele>
        <time>1970-01-01T01:42:24.000Z</time>
      </trkpt>
      <trkpt lat="40.361716" lon="-3.356761">
        <ele>771.8</ele>
        <time>1970-01-01T01:42:25.000Z</time>
      </trkpt>
      <trkpt lat="40.361731" lon="-3.356826">
        <ele>771.8</ele>
        <time>1970-01-01T01:42:26.000Z</time>
      </trkpt>
      <trkpt lat="40.361738" lon="-3.356894">
        <ele>771.8</ele>
        <time>1970-01-01T01:42:27.000Z</time>
      </trkpt>
      <trkpt lat="40.361741" lon="-3.356966">
        <ele>771.8</ele>
        <time>1970-01-01T01:42:28.000Z</time>
      </trkpt>
      <trkpt lat="40.361746" lon="-3.357041">
        <ele>771.8</ele>
        <time>1970-01-01T01:42:29.000Z</time>
      </trkpt>
      <trkpt lat="40.361759" lon="-3.357114">
        <ele>771.8</ele>
        <time>1970-01-01T01:42:30.000Z</time>
      </trkpt>
      <trkpt lat="40.361784" lon="-3.357181">
        <ele>771.6</ele>
        <time>1970-01-01T01:42:31.000Z</time>
      </trkpt>
      <trkpt lat="40.361824" lon="-3.357237">
        <ele>771.6</ele>
        <time>1970-01-01T01:42:32.000Z</time>
      </trkpt>
      <trkpt lat="40.361875" lon="-3.35727">
        <ele>771.4</ele>
        <time>1970-01-01T01:42:33.000Z</time>
      </trkpt>
      <trkpt lat="40.361931" lon="-3.357266">
        <ele>771.2</ele>
        <time>1970-01-01T01:42:34.000Z</time>
      </trkpt>
      <trkpt lat="40.361979" lon="-3.35723">
        <ele>770.8</ele>
        <time>1970-01-01T01:42:35.000Z</time>
      </trkpt>
      <trkpt lat="40.362015" lon="-3.357181">
        <ele>770.4</ele>
        <time>1970-01-01T01:42:36.000Z</time>
      </trkpt>
      <trkpt lat="40.362049" lon="-3.35713">
        <ele>770.4</ele>
        <time>1970-01-01T01:42:37.000Z</time>
      </trkpt>
      <trkpt lat="40.362083" lon="-3.35708">
        <ele>770.2</ele>
        <time>1970-01-01T01:42:38.000Z</time>
      </trkpt>
      <trkpt lat="40.36212" lon="-3.357029">
        <ele>770.2</ele>
        <time>1970-01-01T01:42:39.000Z</time>
      </trkpt>
      <trkpt lat="40.362158" lon="-3.356979">
        <ele>770.2</ele>
        <time>1970-01-01T01:42:40.000Z</time>
      </trkpt>
      <trkpt lat="40.362195" lon="-3.356931">
        <ele>770.2</ele>
        <time>1970-01-01T01:42:41.000Z</time>
      </trkpt>
      <trkpt lat="40.362234" lon="-3.356886">
        <ele>770.2</ele>
        <time>1970-01-01T01:42:42.000Z</time>
      </trkpt>
      <trkpt lat="40.362272" lon="-3.356838">
        <ele>770.4</ele>
        <time>1970-01-01T01:42:43.000Z</time>
      </trkpt>
      <trkpt lat="40.362309" lon="-3.356793">
        <ele>770.6</ele>
        <time>1970-01-01T01:42:44.000Z</time>
      </trkpt>
      <trkpt lat="40.362348" lon="-3.35675">
        <ele>770.8</ele>
        <time>1970-01-01T01:42:45.000Z</time>
      </trkpt>
      <trkpt lat="40.362387" lon="-3.356709">
        <ele>771</ele>
        <time>1970-01-01T01:42:46.000Z</time>
      </trkpt>
      <trkpt lat="40.362427" lon="-3.356667">
        <ele>771</ele>
        <time>1970-01-01T01:42:47.000Z</time>
      </trkpt>
      <trkpt lat="40.362467" lon="-3.356627">
        <ele>771.2</ele>
        <time>1970-01-01T01:42:48.000Z</time>
      </trkpt>
      <trkpt lat="40.362508" lon="-3.356587">
        <ele>771.4</ele>
        <time>1970-01-01T01:42:49.000Z</time>
      </trkpt>
      <trkpt lat="40.36255" lon="-3.35655">
        <ele>771.6</ele>
        <time>1970-01-01T01:42:50.000Z</time>
      </trkpt>
      <trkpt lat="40.362593" lon="-3.356514">
        <ele>771.6</ele>
        <time>1970-01-01T01:42:51.000Z</time>
      </trkpt>
      <trkpt lat="40.362638" lon="-3.356481">
        <ele>771.8</ele>
        <time>1970-01-01T01:42:52.000Z</time>
      </trkpt>
      <trkpt lat="40.362683" lon="-3.356448">
        <ele>772</ele>
        <time>1970-01-01T01:42:53.000Z</time>
      </trkpt>
      <trkpt lat="40.362728" lon="-3.356417">
        <ele>772.2</ele>
        <time>1970-01-01T01:42:54.000Z</time>
      </trkpt>
      <trkpt lat="40.362775" lon="-3.356387">
        <ele>772.2</ele>
        <time>1970-01-01T01:42:55.000Z</time>
      </trkpt>
      <trkpt lat="40.362823" lon="-3.356357">
        <ele>772.4</ele>
        <time>1970-01-01T01:42:56.000Z</time>
      </trkpt>
      <trkpt lat="40.362868" lon="-3.356327">
        <ele>772.4</ele>
        <time>1970-01-01T01:42:57.000Z</time>
      </trkpt>
      <trkpt lat="40.362915" lon="-3.356298">
        <ele>772.4</ele>
        <time>1970-01-01T01:42:58.000Z</time>
      </trkpt>
      <trkpt lat="40.362962" lon="-3.356266">
        <ele>772.6</ele>
        <time>1970-01-01T01:42:59.000Z</time>
      </trkpt>
      <trkpt lat="40.363007" lon="-3.356233">
        <ele>772.6</ele>
        <time>1970-01-01T01:43:00.000Z</time>
      </trkpt>
      <trkpt lat="40.363054" lon="-3.356203">
        <ele>772.8</ele>
        <time>1970-01-01T01:43:01.000Z</time>
      </trkpt>
      <trkpt lat="40.363101" lon="-3.356173">
        <ele>772.8</ele>
        <time>1970-01-01T01:43:02.000Z</time>
      </trkpt>
      <trkpt lat="40.363148" lon="-3.356143">
        <ele>772.8</ele>
        <time>1970-01-01T01:43:03.000Z</time>
      </trkpt>
      <trkpt lat="40.363193" lon="-3.356114">
        <ele>773</ele>
        <time>1970-01-01T01:43:04.000Z</time>
      </trkpt>
      <trkpt lat="40.363237" lon="-3.356083">
        <ele>773</ele>
        <time>1970-01-01T01:43:05.000Z</time>
      </trkpt>
      <trkpt lat="40.363281" lon="-3.356052">
        <ele>773.4</ele>
        <time>1970-01-01T01:43:06.000Z</time>
      </trkpt>
      <trkpt lat="40.363323" lon="-3.356021">
        <ele>773.4</ele>
        <time>1970-01-01T01:43:07.000Z</time>
      </trkpt>
      <trkpt lat="40.363363" lon="-3.35599">
        <ele>773.6</ele>
        <time>1970-01-01T01:43:08.000Z</time>
      </trkpt>
      <trkpt lat="40.363407" lon="-3.355959">
        <ele>773.6</ele>
        <time>1970-01-01T01:43:09.000Z</time>
      </trkpt>
      <trkpt lat="40.36345" lon="-3.355928">
        <ele>773.8</ele>
        <time>1970-01-01T01:43:10.000Z</time>
      </trkpt>
      <trkpt lat="40.363492" lon="-3.355897">
        <ele>773.8</ele>
        <time>1970-01-01T01:43:11.000Z</time>
      </trkpt>
      <trkpt lat="40.363534" lon="-3.355865">
        <ele>774</ele>
        <time>1970-01-01T01:43:12.000Z</time>
      </trkpt>
      <trkpt lat="40.363577" lon="-3.355833">
        <ele>774</ele>
        <time>1970-01-01T01:43:13.000Z</time>
      </trkpt>
      <trkpt lat="40.363621" lon="-3.3558">
        <ele>774</ele>
        <time>1970-01-01T01:43:14.000Z</time>
      </trkpt>
      <trkpt lat="40.363666" lon="-3.355766">
        <ele>774.2</ele>
        <time>1970-01-01T01:43:15.000Z</time>
      </trkpt>
      <trkpt lat="40.363713" lon="-3.355734">
        <ele>774.4</ele>
        <time>1970-01-01T01:43:16.000Z</time>
      </trkpt>
      <trkpt lat="40.363757" lon="-3.355699">
        <ele>774.4</ele>
        <time>1970-01-01T01:43:17.000Z</time>
      </trkpt>
      <trkpt lat="40.363801" lon="-3.355664">
        <ele>774.6</ele>
        <time>1970-01-01T01:43:18.000Z</time>
      </trkpt>
      <trkpt lat="40.363845" lon="-3.355629">
        <ele>774.6</ele>
        <time>1970-01-01T01:43:19.000Z</time>
      </trkpt>
      <trkpt lat="40.363889" lon="-3.355596">
        <ele>774.8</ele>
        <time>1970-01-01T01:43:20.000Z</time>
      </trkpt>
      <trkpt lat="40.363934" lon="-3.355561">
        <ele>774.8</ele>
        <time>1970-01-01T01:43:21.000Z</time>
      </trkpt>
      <trkpt lat="40.363979" lon="-3.355527">
        <ele>775</ele>
        <time>1970-01-01T01:43:22.000Z</time>
      </trkpt>
      <trkpt lat="40.364024" lon="-3.355493">
        <ele>775</ele>
        <time>1970-01-01T01:43:23.000Z</time>
      </trkpt>
      <trkpt lat="40.364067" lon="-3.355459">
        <ele>775.2</ele>
        <time>1970-01-01T01:43:24.000Z</time>
      </trkpt>
      <trkpt lat="40.36411" lon="-3.355429">
        <ele>775.2</ele>
        <time>1970-01-01T01:43:25.000Z</time>
      </trkpt>
      <trkpt lat="40.364154" lon="-3.355399">
        <ele>775.6</ele>
        <time>1970-01-01T01:43:26.000Z</time>
      </trkpt>
      <trkpt lat="40.364197" lon="-3.355367">
        <ele>775.6</ele>
        <time>1970-01-01T01:43:27.000Z</time>
      </trkpt>
      <trkpt lat="40.36424" lon="-3.355335">
        <ele>775.8</ele>
        <time>1970-01-01T01:43:28.000Z</time>
      </trkpt>
      <trkpt lat="40.364283" lon="-3.355305">
        <ele>775.8</ele>
        <time>1970-01-01T01:43:29.000Z</time>
      </trkpt>
      <trkpt lat="40.364326" lon="-3.355276">
        <ele>776.2</ele>
        <time>1970-01-01T01:43:30.000Z</time>
      </trkpt>
      <trkpt lat="40.36437" lon="-3.355245">
        <ele>776.2</ele>
        <time>1970-01-01T01:43:31.000Z</time>
      </trkpt>
      <trkpt lat="40.364415" lon="-3.355214">
        <ele>776.6</ele>
        <time>1970-01-01T01:43:32.000Z</time>
      </trkpt>
      <trkpt lat="40.364458" lon="-3.355184">
        <ele>776.6</ele>
        <time>1970-01-01T01:43:33.000Z</time>
      </trkpt>
      <trkpt lat="40.364502" lon="-3.35515">
        <ele>776.6</ele>
        <time>1970-01-01T01:43:34.000Z</time>
      </trkpt>
      <trkpt lat="40.364547" lon="-3.355116">
        <ele>776.8</ele>
        <time>1970-01-01T01:43:35.000Z</time>
      </trkpt>
      <trkpt lat="40.364593" lon="-3.355079">
        <ele>776.8</ele>
        <time>1970-01-01T01:43:36.000Z</time>
      </trkpt>
      <trkpt lat="40.364642" lon="-3.355043">
        <ele>777.2</ele>
        <time>1970-01-01T01:43:37.000Z</time>
      </trkpt>
      <trkpt lat="40.364693" lon="-3.355007">
        <ele>777.4</ele>
        <time>1970-01-01T01:43:38.000Z</time>
      </trkpt>
      <trkpt lat="40.364742" lon="-3.354971">
        <ele>777.4</ele>
        <time>1970-01-01T01:43:39.000Z</time>
      </trkpt>
      <trkpt lat="40.364789" lon="-3.354934">
        <ele>777.4</ele>
        <time>1970-01-01T01:43:40.000Z</time>
      </trkpt>
      <trkpt lat="40.364836" lon="-3.354898">
        <ele>777.8</ele>
        <time>1970-01-01T01:43:41.000Z</time>
      </trkpt>
      <trkpt lat="40.364882" lon="-3.354863">
        <ele>777.8</ele>
        <time>1970-01-01T01:43:42.000Z</time>
      </trkpt>
      <trkpt lat="40.36493" lon="-3.354828">
        <ele>778</ele>
        <time>1970-01-01T01:43:43.000Z</time>
      </trkpt>
      <trkpt lat="40.364978" lon="-3.35479">
        <ele>778</ele>
        <time>1970-01-01T01:43:44.000Z</time>
      </trkpt>
      <trkpt lat="40.365025" lon="-3.354753">
        <ele>778.4</ele>
        <time>1970-01-01T01:43:45.000Z</time>
      </trkpt>
      <trkpt lat="40.36507" lon="-3.354712">
        <ele>778.6</ele>
        <time>1970-01-01T01:43:46.000Z</time>
      </trkpt>
      <trkpt lat="40.365114" lon="-3.354671">
        <ele>779.2</ele>
        <time>1970-01-01T01:43:47.000Z</time>
      </trkpt>
      <trkpt lat="40.365159" lon="-3.354629">
        <ele>779.4</ele>
        <time>1970-01-01T01:43:48.000Z</time>
      </trkpt>
      <trkpt lat="40.365204" lon="-3.354591">
        <ele>779.8</ele>
        <time>1970-01-01T01:43:49.000Z</time>
      </trkpt>
      <trkpt lat="40.365246" lon="-3.354544">
        <ele>780</ele>
        <time>1970-01-01T01:43:50.000Z</time>
      </trkpt>
      <trkpt lat="40.365286" lon="-3.354496">
        <ele>780.4</ele>
        <time>1970-01-01T01:43:51.000Z</time>
      </trkpt>
      <trkpt lat="40.365327" lon="-3.354446">
        <ele>780.6</ele>
        <time>1970-01-01T01:43:52.000Z</time>
      </trkpt>
      <trkpt lat="40.365367" lon="-3.354395">
        <ele>780.6</ele>
        <time>1970-01-01T01:43:53.000Z</time>
      </trkpt>
      <trkpt lat="40.365411" lon="-3.354349">
        <ele>781</ele>
        <time>1970-01-01T01:43:54.000Z</time>
      </trkpt>
      <trkpt lat="40.365453" lon="-3.3543">
        <ele>781.2</ele>
        <time>1970-01-01T01:43:55.000Z</time>
      </trkpt>
      <trkpt lat="40.36549" lon="-3.354244">
        <ele>781.6</ele>
        <time>1970-01-01T01:43:56.000Z</time>
      </trkpt>
      <trkpt lat="40.365528" lon="-3.354187">
        <ele>781.8</ele>
        <time>1970-01-01T01:43:57.000Z</time>
      </trkpt>
      <trkpt lat="40.365566" lon="-3.354129">
        <ele>782.4</ele>
        <time>1970-01-01T01:43:58.000Z</time>
      </trkpt>
      <trkpt lat="40.365603" lon="-3.354071">
        <ele>782.6</ele>
        <time>1970-01-01T01:43:59.000Z</time>
      </trkpt>
      <trkpt lat="40.36564" lon="-3.354013">
        <ele>783</ele>
        <time>1970-01-01T01:44:00.000Z</time>
      </trkpt>
      <trkpt lat="40.365677" lon="-3.353955">
        <ele>783</ele>
        <time>1970-01-01T01:44:01.000Z</time>
      </trkpt>
      <trkpt lat="40.365714" lon="-3.353897">
        <ele>783.2</ele>
        <time>1970-01-01T01:44:02.000Z</time>
      </trkpt>
      <trkpt lat="40.365752" lon="-3.353839">
        <ele>783.2</ele>
        <time>1970-01-01T01:44:03.000Z</time>
      </trkpt>
      <trkpt lat="40.365789" lon="-3.353781">
        <ele>783.8</ele>
        <time>1970-01-01T01:44:04.000Z</time>
      </trkpt>
      <trkpt lat="40.365827" lon="-3.353726">
        <ele>784.2</ele>
        <time>1970-01-01T01:44:05.000Z</time>
      </trkpt>
      <trkpt lat="40.365867" lon="-3.353673">
        <ele>784.4</ele>
        <time>1970-01-01T01:44:06.000Z</time>
      </trkpt>
      <trkpt lat="40.365909" lon="-3.353623">
        <ele>784.4</ele>
        <time>1970-01-01T01:44:07.000Z</time>
      </trkpt>
      <trkpt lat="40.365951" lon="-3.353576">
        <ele>784.6</ele>
        <time>1970-01-01T01:44:08.000Z</time>
      </trkpt>
      <trkpt lat="40.365996" lon="-3.353533">
        <ele>785</ele>
        <time>1970-01-01T01:44:09.000Z</time>
      </trkpt>
      <trkpt lat="40.366039" lon="-3.353494">
        <ele>785.2</ele>
        <time>1970-01-01T01:44:10.000Z</time>
      </trkpt>
      <trkpt lat="40.366083" lon="-3.35346">
        <ele>785.6</ele>
        <time>1970-01-01T01:44:11.000Z</time>
      </trkpt>
      <trkpt lat="40.366132" lon="-3.353444">
        <ele>785.8</ele>
        <time>1970-01-01T01:44:12.000Z</time>
      </trkpt>
      <trkpt lat="40.366176" lon="-3.353449">
        <ele>785.8</ele>
        <time>1970-01-01T01:44:13.000Z</time>
      </trkpt>
      <trkpt lat="40.366206" lon="-3.353481">
        <ele>785.8</ele>
        <time>1970-01-01T01:44:14.000Z</time>
      </trkpt>
      <trkpt lat="40.36622" lon="-3.353527">
        <ele>786.2</ele>
        <time>1970-01-01T01:44:15.000Z</time>
      </trkpt>
      <trkpt lat="40.366222" lon="-3.353582">
        <ele>786.2</ele>
        <time>1970-01-01T01:44:16.000Z</time>
      </trkpt>
      <trkpt lat="40.366216" lon="-3.353649">
        <ele>786.2</ele>
        <time>1970-01-01T01:44:17.000Z</time>
      </trkpt>
      <trkpt lat="40.366207" lon="-3.353722">
        <ele>786.2</ele>
        <time>1970-01-01T01:44:18.000Z</time>
      </trkpt>
      <trkpt lat="40.366192" lon="-3.353803">
        <ele>786.2</ele>
        <time>1970-01-01T01:44:19.000Z</time>
      </trkpt>
      <trkpt lat="40.366178" lon="-3.353888">
        <ele>786.2</ele>
        <time>1970-01-01T01:44:20.000Z</time>
      </trkpt>
      <trkpt lat="40.366166" lon="-3.353977">
        <ele>785.8</ele>
        <time>1970-01-01T01:44:21.000Z</time>
      </trkpt>
      <trkpt lat="40.366154" lon="-3.354068">
        <ele>785.6</ele>
        <time>1970-01-01T01:44:22.000Z</time>
      </trkpt>
      <trkpt lat="40.366144" lon="-3.354161">
        <ele>785.2</ele>
        <time>1970-01-01T01:44:23.000Z</time>
      </trkpt>
      <trkpt lat="40.366134" lon="-3.354255">
        <ele>784.6</ele>
        <time>1970-01-01T01:44:24.000Z</time>
      </trkpt>
      <trkpt lat="40.366122" lon="-3.354351">
        <ele>784.2</ele>
        <time>1970-01-01T01:44:25.000Z</time>
      </trkpt>
      <trkpt lat="40.366109" lon="-3.354443">
        <ele>784</ele>
        <time>1970-01-01T01:44:26.000Z</time>
      </trkpt>
      <trkpt lat="40.366098" lon="-3.354535">
        <ele>783.8</ele>
        <time>1970-01-01T01:44:27.000Z</time>
      </trkpt>
      <trkpt lat="40.366091" lon="-3.354621">
        <ele>783.6</ele>
        <time>1970-01-01T01:44:28.000Z</time>
      </trkpt>
      <trkpt lat="40.366084" lon="-3.354703">
        <ele>783.2</ele>
        <time>1970-01-01T01:44:29.000Z</time>
      </trkpt>
      <trkpt lat="40.366077" lon="-3.354783">
        <ele>782.8</ele>
        <time>1970-01-01T01:44:30.000Z</time>
      </trkpt>
      <trkpt lat="40.366069" lon="-3.354862">
        <ele>782.6</ele>
        <time>1970-01-01T01:44:31.000Z</time>
      </trkpt>
      <trkpt lat="40.366062" lon="-3.354939">
        <ele>782.2</ele>
        <time>1970-01-01T01:44:32.000Z</time>
      </trkpt>
      <trkpt lat="40.366056" lon="-3.355018">
        <ele>782</ele>
        <time>1970-01-01T01:44:33.000Z</time>
      </trkpt>
      <trkpt lat="40.36605" lon="-3.355099">
        <ele>781.8</ele>
        <time>1970-01-01T01:44:34.000Z</time>
      </trkpt>
      <trkpt lat="40.366043" lon="-3.355181">
        <ele>781.8</ele>
        <time>1970-01-01T01:44:35.000Z</time>
      </trkpt>
      <trkpt lat="40.366037" lon="-3.355267">
        <ele>781.6</ele>
        <time>1970-01-01T01:44:36.000Z</time>
      </trkpt>
      <trkpt lat="40.366032" lon="-3.355356">
        <ele>781.6</ele>
        <time>1970-01-01T01:44:37.000Z</time>
      </trkpt>
      <trkpt lat="40.366027" lon="-3.35545">
        <ele>781.2</ele>
        <time>1970-01-01T01:44:38.000Z</time>
      </trkpt>
      <trkpt lat="40.366018" lon="-3.355547">
        <ele>780.8</ele>
        <time>1970-01-01T01:44:39.000Z</time>
      </trkpt>
      <trkpt lat="40.366007" lon="-3.355647">
        <ele>780.6</ele>
        <time>1970-01-01T01:44:40.000Z</time>
      </trkpt>
      <trkpt lat="40.365997" lon="-3.35575">
        <ele>780.4</ele>
        <time>1970-01-01T01:44:41.000Z</time>
      </trkpt>
      <trkpt lat="40.365988" lon="-3.355854">
        <ele>780.2</ele>
        <time>1970-01-01T01:44:42.000Z</time>
      </trkpt>
      <trkpt lat="40.365982" lon="-3.355954">
        <ele>779.4</ele>
        <time>1970-01-01T01:44:43.000Z</time>
      </trkpt>
      <trkpt lat="40.365984" lon="-3.356055">
        <ele>778.8</ele>
        <time>1970-01-01T01:44:44.000Z</time>
      </trkpt>
      <trkpt lat="40.365995" lon="-3.356152">
        <ele>777.8</ele>
        <time>1970-01-01T01:44:45.000Z</time>
      </trkpt>
      <trkpt lat="40.366013" lon="-3.356245">
        <ele>777.4</ele>
        <time>1970-01-01T01:44:46.000Z</time>
      </trkpt>
      <trkpt lat="40.366039" lon="-3.356335">
        <ele>777.2</ele>
        <time>1970-01-01T01:44:47.000Z</time>
      </trkpt>
      <trkpt lat="40.36607" lon="-3.356426">
        <ele>776.8</ele>
        <time>1970-01-01T01:44:48.000Z</time>
      </trkpt>
      <trkpt lat="40.366103" lon="-3.356515">
        <ele>776.6</ele>
        <time>1970-01-01T01:44:49.000Z</time>
      </trkpt>
      <trkpt lat="40.366138" lon="-3.356597">
        <ele>776.4</ele>
        <time>1970-01-01T01:44:50.000Z</time>
      </trkpt>
      <trkpt lat="40.366178" lon="-3.356676">
        <ele>776.4</ele>
        <time>1970-01-01T01:44:51.000Z</time>
      </trkpt>
      <trkpt lat="40.366221" lon="-3.356747">
        <ele>776.4</ele>
        <time>1970-01-01T01:44:52.000Z</time>
      </trkpt>
      <trkpt lat="40.366266" lon="-3.356817">
        <ele>776.4</ele>
        <time>1970-01-01T01:44:53.000Z</time>
      </trkpt>
      <trkpt lat="40.366312" lon="-3.356885">
        <ele>776.4</ele>
        <time>1970-01-01T01:44:54.000Z</time>
      </trkpt>
      <trkpt lat="40.366357" lon="-3.356954">
        <ele>776.8</ele>
        <time>1970-01-01T01:44:55.000Z</time>
      </trkpt>
      <trkpt lat="40.3664" lon="-3.357027">
        <ele>777.2</ele>
        <time>1970-01-01T01:44:56.000Z</time>
      </trkpt>
      <trkpt lat="40.36644" lon="-3.357102">
        <ele>777.6</ele>
        <time>1970-01-01T01:44:57.000Z</time>
      </trkpt>
      <trkpt lat="40.366476" lon="-3.357177">
        <ele>778</ele>
        <time>1970-01-01T01:44:58.000Z</time>
      </trkpt>
      <trkpt lat="40.36651" lon="-3.357253">
        <ele>778</ele>
        <time>1970-01-01T01:44:59.000Z</time>
      </trkpt>
      <trkpt lat="40.366543" lon="-3.35733">
        <ele>778.4</ele>
        <time>1970-01-01T01:45:00.000Z</time>
      </trkpt>
      <trkpt lat="40.366575" lon="-3.357407">
        <ele>778.8</ele>
        <time>1970-01-01T01:45:01.000Z</time>
      </trkpt>
      <trkpt lat="40.366606" lon="-3.357482">
        <ele>778.8</ele>
        <time>1970-01-01T01:45:02.000Z</time>
      </trkpt>
      <trkpt lat="40.366634" lon="-3.357558">
        <ele>778.8</ele>
        <time>1970-01-01T01:45:03.000Z</time>
      </trkpt>
      <trkpt lat="40.366663" lon="-3.357634">
        <ele>779.2</ele>
        <time>1970-01-01T01:45:04.000Z</time>
      </trkpt>
      <trkpt lat="40.36669" lon="-3.357708">
        <ele>779.2</ele>
        <time>1970-01-01T01:45:05.000Z</time>
      </trkpt>
      <trkpt lat="40.366716" lon="-3.357781">
        <ele>779.4</ele>
        <time>1970-01-01T01:45:06.000Z</time>
      </trkpt>
      <trkpt lat="40.366746" lon="-3.357852">
        <ele>779.4</ele>
        <time>1970-01-01T01:45:07.000Z</time>
      </trkpt>
      <trkpt lat="40.366777" lon="-3.357922">
        <ele>779.4</ele>
        <time>1970-01-01T01:45:08.000Z</time>
      </trkpt>
      <trkpt lat="40.366805" lon="-3.357997">
        <ele>779.4</ele>
        <time>1970-01-01T01:45:09.000Z</time>
      </trkpt>
      <trkpt lat="40.366832" lon="-3.358071">
        <ele>779.4</ele>
        <time>1970-01-01T01:45:10.000Z</time>
      </trkpt>
      <trkpt lat="40.36686" lon="-3.358147">
        <ele>779.4</ele>
        <time>1970-01-01T01:45:11.000Z</time>
      </trkpt>
      <trkpt lat="40.366887" lon="-3.358221">
        <ele>779.4</ele>
        <time>1970-01-01T01:45:12.000Z</time>
      </trkpt>
      <trkpt lat="40.366915" lon="-3.358288">
        <ele>779.2</ele>
        <time>1970-01-01T01:45:13.000Z</time>
      </trkpt>
      <trkpt lat="40.366942" lon="-3.358353">
        <ele>779.2</ele>
        <time>1970-01-01T01:45:14.000Z</time>
      </trkpt>
      <trkpt lat="40.366968" lon="-3.358416">
        <ele>779</ele>
        <time>1970-01-01T01:45:15.000Z</time>
      </trkpt>
      <trkpt lat="40.366993" lon="-3.358483">
        <ele>779</ele>
        <time>1970-01-01T01:45:16.000Z</time>
      </trkpt>
      <trkpt lat="40.367021" lon="-3.358549">
        <ele>779</ele>
        <time>1970-01-01T01:45:17.000Z</time>
      </trkpt>
      <trkpt lat="40.367049" lon="-3.358616">
        <ele>779.2</ele>
        <time>1970-01-01T01:45:18.000Z</time>
      </trkpt>
      <trkpt lat="40.367079" lon="-3.358687">
        <ele>779</ele>
        <time>1970-01-01T01:45:19.000Z</time>
      </trkpt>
      <trkpt lat="40.367109" lon="-3.358759">
        <ele>778.8</ele>
        <time>1970-01-01T01:45:20.000Z</time>
      </trkpt>
      <trkpt lat="40.367141" lon="-3.358834">
        <ele>778.8</ele>
        <time>1970-01-01T01:45:21.000Z</time>
      </trkpt>
      <trkpt lat="40.367176" lon="-3.358913">
        <ele>778.8</ele>
        <time>1970-01-01T01:45:22.000Z</time>
      </trkpt>
      <trkpt lat="40.367213" lon="-3.358995">
        <ele>778.8</ele>
        <time>1970-01-01T01:45:23.000Z</time>
      </trkpt>
      <trkpt lat="40.367253" lon="-3.359082">
        <ele>778.4</ele>
        <time>1970-01-01T01:45:24.000Z</time>
      </trkpt>
      <trkpt lat="40.367293" lon="-3.359174">
        <ele>778</ele>
        <time>1970-01-01T01:45:25.000Z</time>
      </trkpt>
      <trkpt lat="40.367334" lon="-3.359277">
        <ele>777.8</ele>
        <time>1970-01-01T01:45:26.000Z</time>
      </trkpt>
      <trkpt lat="40.367377" lon="-3.359383">
        <ele>777.4</ele>
        <time>1970-01-01T01:45:27.000Z</time>
      </trkpt>
      <trkpt lat="40.367423" lon="-3.359495">
        <ele>776.8</ele>
        <time>1970-01-01T01:45:28.000Z</time>
      </trkpt>
      <trkpt lat="40.367471" lon="-3.35961">
        <ele>776.2</ele>
        <time>1970-01-01T01:45:29.000Z</time>
      </trkpt>
      <trkpt lat="40.36752" lon="-3.359726">
        <ele>776</ele>
        <time>1970-01-01T01:45:30.000Z</time>
      </trkpt>
      <trkpt lat="40.367568" lon="-3.359843">
        <ele>774.6</ele>
        <time>1970-01-01T01:45:31.000Z</time>
      </trkpt>
      <trkpt lat="40.367616" lon="-3.359958">
        <ele>774.2</ele>
        <time>1970-01-01T01:45:32.000Z</time>
      </trkpt>
      <trkpt lat="40.367664" lon="-3.360071">
        <ele>773.6</ele>
        <time>1970-01-01T01:45:33.000Z</time>
      </trkpt>
      <trkpt lat="40.367711" lon="-3.360184">
        <ele>773</ele>
        <time>1970-01-01T01:45:34.000Z</time>
      </trkpt>
      <trkpt lat="40.367757" lon="-3.360293">
        <ele>772</ele>
        <time>1970-01-01T01:45:35.000Z</time>
      </trkpt>
      <trkpt lat="40.367801" lon="-3.360397">
        <ele>771.6</ele>
        <time>1970-01-01T01:45:36.000Z</time>
      </trkpt>
      <trkpt lat="40.367841" lon="-3.360495">
        <ele>771</ele>
        <time>1970-01-01T01:45:37.000Z</time>
      </trkpt>
      <trkpt lat="40.367878" lon="-3.360591">
        <ele>770.6</ele>
        <time>1970-01-01T01:45:38.000Z</time>
      </trkpt>
      <trkpt lat="40.367911" lon="-3.360683">
        <ele>770.6</ele>
        <time>1970-01-01T01:45:39.000Z</time>
      </trkpt>
      <trkpt lat="40.367944" lon="-3.360771">
        <ele>770.4</ele>
        <time>1970-01-01T01:45:40.000Z</time>
      </trkpt>
      <trkpt lat="40.367974" lon="-3.360856">
        <ele>770.4</ele>
        <time>1970-01-01T01:45:41.000Z</time>
      </trkpt>
      <trkpt lat="40.368004" lon="-3.360936">
        <ele>770.4</ele>
        <time>1970-01-01T01:45:42.000Z</time>
      </trkpt>
      <trkpt lat="40.368035" lon="-3.36101">
        <ele>770.2</ele>
        <time>1970-01-01T01:45:43.000Z</time>
      </trkpt>
      <trkpt lat="40.368065" lon="-3.361082">
        <ele>770.4</ele>
        <time>1970-01-01T01:45:44.000Z</time>
      </trkpt>
      <trkpt lat="40.368094" lon="-3.361153">
        <ele>770.8</ele>
        <time>1970-01-01T01:45:45.000Z</time>
      </trkpt>
      <trkpt lat="40.368123" lon="-3.361222">
        <ele>771</ele>
        <time>1970-01-01T01:45:46.000Z</time>
      </trkpt>
      <trkpt lat="40.368155" lon="-3.36129">
        <ele>771.8</ele>
        <time>1970-01-01T01:45:47.000Z</time>
      </trkpt>
      <trkpt lat="40.368187" lon="-3.361356">
        <ele>772.2</ele>
        <time>1970-01-01T01:45:48.000Z</time>
      </trkpt>
      <trkpt lat="40.368217" lon="-3.361425">
        <ele>772.6</ele>
        <time>1970-01-01T01:45:49.000Z</time>
      </trkpt>
      <trkpt lat="40.368247" lon="-3.361498">
        <ele>772.8</ele>
        <time>1970-01-01T01:45:50.000Z</time>
      </trkpt>
      <trkpt lat="40.368277" lon="-3.361571">
        <ele>773.2</ele>
        <time>1970-01-01T01:45:51.000Z</time>
      </trkpt>
      <trkpt lat="40.368309" lon="-3.361642">
        <ele>773.4</ele>
        <time>1970-01-01T01:45:52.000Z</time>
      </trkpt>
      <trkpt lat="40.368341" lon="-3.361716">
        <ele>774</ele>
        <time>1970-01-01T01:45:53.000Z</time>
      </trkpt>
      <trkpt lat="40.368368" lon="-3.361792">
        <ele>774.2</ele>
        <time>1970-01-01T01:45:54.000Z</time>
      </trkpt>
      <trkpt lat="40.368392" lon="-3.361872">
        <ele>774.4</ele>
        <time>1970-01-01T01:45:55.000Z</time>
      </trkpt>
      <trkpt lat="40.368413" lon="-3.361955">
        <ele>774.6</ele>
        <time>1970-01-01T01:45:56.000Z</time>
      </trkpt>
      <trkpt lat="40.368432" lon="-3.362037">
        <ele>774.6</ele>
        <time>1970-01-01T01:45:57.000Z</time>
      </trkpt>
      <trkpt lat="40.36845" lon="-3.362117">
        <ele>774.6</ele>
        <time>1970-01-01T01:45:58.000Z</time>
      </trkpt>
      <trkpt lat="40.368466" lon="-3.3622">
        <ele>774.6</ele>
        <time>1970-01-01T01:45:59.000Z</time>
      </trkpt>
      <trkpt lat="40.368478" lon="-3.362284">
        <ele>774.6</ele>
        <time>1970-01-01T01:46:00.000Z</time>
      </trkpt>
      <trkpt lat="40.368489" lon="-3.362369">
        <ele>774.8</ele>
        <time>1970-01-01T01:46:01.000Z</time>
      </trkpt>
      <trkpt lat="40.368498" lon="-3.362454">
        <ele>775</ele>
        <time>1970-01-01T01:46:02.000Z</time>
      </trkpt>
      <trkpt lat="40.368507" lon="-3.362539">
        <ele>775.2</ele>
        <time>1970-01-01T01:46:03.000Z</time>
      </trkpt>
      <trkpt lat="40.368516" lon="-3.362623">
        <ele>775.2</ele>
        <time>1970-01-01T01:46:04.000Z</time>
      </trkpt>
      <trkpt lat="40.368523" lon="-3.362705">
        <ele>775.2</ele>
        <time>1970-01-01T01:46:05.000Z</time>
      </trkpt>
      <trkpt lat="40.368529" lon="-3.362789">
        <ele>775.4</ele>
        <time>1970-01-01T01:46:06.000Z</time>
      </trkpt>
      <trkpt lat="40.368535" lon="-3.362875">
        <ele>775.4</ele>
        <time>1970-01-01T01:46:07.000Z</time>
      </trkpt>
      <trkpt lat="40.368541" lon="-3.362962">
        <ele>775.8</ele>
        <time>1970-01-01T01:46:08.000Z</time>
      </trkpt>
      <trkpt lat="40.368547" lon="-3.363047">
        <ele>775.8</ele>
        <time>1970-01-01T01:46:09.000Z</time>
      </trkpt>
      <trkpt lat="40.368551" lon="-3.363129">
        <ele>776</ele>
        <time>1970-01-01T01:46:10.000Z</time>
      </trkpt>
      <trkpt lat="40.368554" lon="-3.363207">
        <ele>776</ele>
        <time>1970-01-01T01:46:11.000Z</time>
      </trkpt>
      <trkpt lat="40.368562" lon="-3.363285">
        <ele>776.2</ele>
        <time>1970-01-01T01:46:12.000Z</time>
      </trkpt>
      <trkpt lat="40.368568" lon="-3.363362">
        <ele>776.2</ele>
        <time>1970-01-01T01:46:13.000Z</time>
      </trkpt>
      <trkpt lat="40.368572" lon="-3.363439">
        <ele>776.2</ele>
        <time>1970-01-01T01:46:14.000Z</time>
      </trkpt>
      <trkpt lat="40.368574" lon="-3.363517">
        <ele>776.2</ele>
        <time>1970-01-01T01:46:15.000Z</time>
      </trkpt>
      <trkpt lat="40.368576" lon="-3.363598">
        <ele>776.2</ele>
        <time>1970-01-01T01:46:16.000Z</time>
      </trkpt>
      <trkpt lat="40.368578" lon="-3.363679">
        <ele>776.2</ele>
        <time>1970-01-01T01:46:17.000Z</time>
      </trkpt>
      <trkpt lat="40.368582" lon="-3.363761">
        <ele>776</ele>
        <time>1970-01-01T01:46:18.000Z</time>
      </trkpt>
      <trkpt lat="40.368592" lon="-3.363849">
        <ele>776</ele>
        <time>1970-01-01T01:46:19.000Z</time>
      </trkpt>
      <trkpt lat="40.368599" lon="-3.363932">
        <ele>775.8</ele>
        <time>1970-01-01T01:46:20.000Z</time>
      </trkpt>
      <trkpt lat="40.368603" lon="-3.364016">
        <ele>775.8</ele>
        <time>1970-01-01T01:46:21.000Z</time>
      </trkpt>
      <trkpt lat="40.368606" lon="-3.364099">
        <ele>775.8</ele>
        <time>1970-01-01T01:46:22.000Z</time>
      </trkpt>
      <trkpt lat="40.36861" lon="-3.364184">
        <ele>775.8</ele>
        <time>1970-01-01T01:46:23.000Z</time>
      </trkpt>
      <trkpt lat="40.368615" lon="-3.364265">
        <ele>775.6</ele>
        <time>1970-01-01T01:46:24.000Z</time>
      </trkpt>
      <trkpt lat="40.368619" lon="-3.364348">
        <ele>775.6</ele>
        <time>1970-01-01T01:46:25.000Z</time>
      </trkpt>
      <trkpt lat="40.368622" lon="-3.364431">
        <ele>775.6</ele>
        <time>1970-01-01T01:46:26.000Z</time>
      </trkpt>
      <trkpt lat="40.368623" lon="-3.364514">
        <ele>775.8</ele>
        <time>1970-01-01T01:46:27.000Z</time>
      </trkpt>
      <trkpt lat="40.368624" lon="-3.364596">
        <ele>775.4</ele>
        <time>1970-01-01T01:46:28.000Z</time>
      </trkpt>
      <trkpt lat="40.368624" lon="-3.364679">
        <ele>775.4</ele>
        <time>1970-01-01T01:46:29.000Z</time>
      </trkpt>
      <trkpt lat="40.368622" lon="-3.364763">
        <ele>775.2</ele>
        <time>1970-01-01T01:46:30.000Z</time>
      </trkpt>
      <trkpt lat="40.368617" lon="-3.364851">
        <ele>775.2</ele>
        <time>1970-01-01T01:46:31.000Z</time>
      </trkpt>
      <trkpt lat="40.368609" lon="-3.364939">
        <ele>775</ele>
        <time>1970-01-01T01:46:32.000Z</time>
      </trkpt>
      <trkpt lat="40.3686" lon="-3.365031">
        <ele>775</ele>
        <time>1970-01-01T01:46:33.000Z</time>
      </trkpt>
      <trkpt lat="40.368587" lon="-3.365127">
        <ele>774.8</ele>
        <time>1970-01-01T01:46:34.000Z</time>
      </trkpt>
      <trkpt lat="40.368571" lon="-3.365227">
        <ele>774.8</ele>
        <time>1970-01-01T01:46:35.000Z</time>
      </trkpt>
      <trkpt lat="40.368552" lon="-3.365331">
        <ele>774.2</ele>
        <time>1970-01-01T01:46:36.000Z</time>
      </trkpt>
      <trkpt lat="40.368528" lon="-3.365441">
        <ele>773.8</ele>
        <time>1970-01-01T01:46:37.000Z</time>
      </trkpt>
      <trkpt lat="40.368501" lon="-3.365558">
        <ele>773.8</ele>
        <time>1970-01-01T01:46:38.000Z</time>
      </trkpt>
      <trkpt lat="40.368466" lon="-3.365678">
        <ele>773.2</ele>
        <time>1970-01-01T01:46:39.000Z</time>
      </trkpt>
      <trkpt lat="40.368429" lon="-3.365801">
        <ele>772.8</ele>
        <time>1970-01-01T01:46:40.000Z</time>
      </trkpt>
      <trkpt lat="40.368395" lon="-3.365929">
        <ele>771.4</ele>
        <time>1970-01-01T01:46:41.000Z</time>
      </trkpt>
      <trkpt lat="40.368368" lon="-3.366058">
        <ele>770.8</ele>
        <time>1970-01-01T01:46:42.000Z</time>
      </trkpt>
      <trkpt lat="40.368341" lon="-3.366188">
        <ele>770</ele>
        <time>1970-01-01T01:46:43.000Z</time>
      </trkpt>
      <trkpt lat="40.368319" lon="-3.36632">
        <ele>769.4</ele>
        <time>1970-01-01T01:46:44.000Z</time>
      </trkpt>
      <trkpt lat="40.368301" lon="-3.366454">
        <ele>769.2</ele>
        <time>1970-01-01T01:46:45.000Z</time>
      </trkpt>
      <trkpt lat="40.368289" lon="-3.366581">
        <ele>768.2</ele>
        <time>1970-01-01T01:46:46.000Z</time>
      </trkpt>
      <trkpt lat="40.368286" lon="-3.366707">
        <ele>767</ele>
        <time>1970-01-01T01:46:47.000Z</time>
      </trkpt>
      <trkpt lat="40.368297" lon="-3.366827">
        <ele>765.8</ele>
        <time>1970-01-01T01:46:48.000Z</time>
      </trkpt>
      <trkpt lat="40.368321" lon="-3.366941">
        <ele>764.8</ele>
        <time>1970-01-01T01:46:49.000Z</time>
      </trkpt>
      <trkpt lat="40.368355" lon="-3.367041">
        <ele>764</ele>
        <time>1970-01-01T01:46:50.000Z</time>
      </trkpt>
      <trkpt lat="40.368399" lon="-3.367129">
        <ele>763.8</ele>
        <time>1970-01-01T01:46:51.000Z</time>
      </trkpt>
      <trkpt lat="40.368449" lon="-3.367203">
        <ele>763.4</ele>
        <time>1970-01-01T01:46:52.000Z</time>
      </trkpt>
      <trkpt lat="40.368498" lon="-3.367266">
        <ele>763.4</ele>
        <time>1970-01-01T01:46:53.000Z</time>
      </trkpt>
      <trkpt lat="40.368547" lon="-3.367321">
        <ele>763.2</ele>
        <time>1970-01-01T01:46:54.000Z</time>
      </trkpt>
      <trkpt lat="40.368591" lon="-3.367373">
        <ele>763</ele>
        <time>1970-01-01T01:46:55.000Z</time>
      </trkpt>
      <trkpt lat="40.368625" lon="-3.367414">
        <ele>763</ele>
        <time>1970-01-01T01:46:56.000Z</time>
      </trkpt>
      <trkpt lat="40.368643" lon="-3.36744">
        <ele>763</ele>
        <time>1970-01-01T01:46:57.000Z</time>
      </trkpt>
      <trkpt lat="40.368654" lon="-3.367459">
        <ele>763</ele>
        <time>1970-01-01T01:46:58.000Z</time>
      </trkpt>
      <trkpt lat="40.368667" lon="-3.367472">
        <ele>763.4</ele>
        <time>1970-01-01T01:46:59.000Z</time>
      </trkpt>
      <trkpt lat="40.368681" lon="-3.367477">
        <ele>763.6</ele>
        <time>1970-01-01T01:47:00.000Z</time>
      </trkpt>
      <trkpt lat="40.368691" lon="-3.367472">
        <ele>763.6</ele>
        <time>1970-01-01T01:47:01.000Z</time>
      </trkpt>
      <trkpt lat="40.368691" lon="-3.367464">
        <ele>763.6</ele>
        <time>1970-01-01T01:47:02.000Z</time>
      </trkpt>
      <trkpt lat="40.368688" lon="-3.367458">
        <ele>763.6</ele>
        <time>1970-01-01T01:47:03.000Z</time>
      </trkpt>
      <trkpt lat="40.36868" lon="-3.367452">
        <ele>763.6</ele>
        <time>1970-01-01T01:47:04.000Z</time>
      </trkpt>
      <trkpt lat="40.368671" lon="-3.367437">
        <ele>763.6</ele>
        <time>1970-01-01T01:47:05.000Z</time>
      </trkpt>
      <trkpt lat="40.368665" lon="-3.367414">
        <ele>763.6</ele>
        <time>1970-01-01T01:47:06.000Z</time>
      </trkpt>
      <trkpt lat="40.368663" lon="-3.367384">
        <ele>763.6</ele>
        <time>1970-01-01T01:47:07.000Z</time>
      </trkpt>
      <trkpt lat="40.368662" lon="-3.367354">
        <ele>763.6</ele>
        <time>1970-01-01T01:47:08.000Z</time>
      </trkpt>
      <trkpt lat="40.368656" lon="-3.367321">
        <ele>763.2</ele>
        <time>1970-01-01T01:47:09.000Z</time>
      </trkpt>
      <trkpt lat="40.368645" lon="-3.36728">
        <ele>763.2</ele>
        <time>1970-01-01T01:47:10.000Z</time>
      </trkpt>
      <trkpt lat="40.368628" lon="-3.367234">
        <ele>762.6</ele>
        <time>1970-01-01T01:47:11.000Z</time>
      </trkpt>
      <trkpt lat="40.368611" lon="-3.367186">
        <ele>762.4</ele>
        <time>1970-01-01T01:47:12.000Z</time>
      </trkpt>
      <trkpt lat="40.36859" lon="-3.367127">
        <ele>762.2</ele>
        <time>1970-01-01T01:47:13.000Z</time>
      </trkpt>
      <trkpt lat="40.36857" lon="-3.367066">
        <ele>762</ele>
        <time>1970-01-01T01:47:14.000Z</time>
      </trkpt>
      <trkpt lat="40.368554" lon="-3.367007">
        <ele>761.8</ele>
        <time>1970-01-01T01:47:15.000Z</time>
      </trkpt>
      <trkpt lat="40.368539" lon="-3.366953">
        <ele>761.8</ele>
        <time>1970-01-01T01:47:16.000Z</time>
      </trkpt>
      <trkpt lat="40.368522" lon="-3.366897">
        <ele>761.2</ele>
        <time>1970-01-01T01:47:17.000Z</time>
      </trkpt>
      <trkpt lat="40.368512" lon="-3.366841">
        <ele>760.4</ele>
        <time>1970-01-01T01:47:18.000Z</time>
      </trkpt>
      <trkpt lat="40.368513" lon="-3.366789">
        <ele>760</ele>
        <time>1970-01-01T01:47:19.000Z</time>
      </trkpt>
      <trkpt lat="40.368519" lon="-3.36674">
        <ele>759.4</ele>
        <time>1970-01-01T01:47:20.000Z</time>
      </trkpt>
      <trkpt lat="40.368537" lon="-3.366695">
        <ele>759</ele>
        <time>1970-01-01T01:47:21.000Z</time>
      </trkpt>
      <trkpt lat="40.368562" lon="-3.366655">
        <ele>758.6</ele>
        <time>1970-01-01T01:47:22.000Z</time>
      </trkpt>
      <trkpt lat="40.36859" lon="-3.366621">
        <ele>758.4</ele>
        <time>1970-01-01T01:47:23.000Z</time>
      </trkpt>
      <trkpt lat="40.36862" lon="-3.366595">
        <ele>758.2</ele>
        <time>1970-01-01T01:47:24.000Z</time>
      </trkpt>
      <trkpt lat="40.368645" lon="-3.366563">
        <ele>758</ele>
        <time>1970-01-01T01:47:25.000Z</time>
      </trkpt>
      <trkpt lat="40.368668" lon="-3.366532">
        <ele>757.6</ele>
        <time>1970-01-01T01:47:26.000Z</time>
      </trkpt>
      <trkpt lat="40.368691" lon="-3.366512">
        <ele>757.4</ele>
        <time>1970-01-01T01:47:27.000Z</time>
      </trkpt>
      <trkpt lat="40.368716" lon="-3.366502">
        <ele>757.2</ele>
        <time>1970-01-01T01:47:28.000Z</time>
      </trkpt>
      <trkpt lat="40.368749" lon="-3.3665">
        <ele>756.6</ele>
        <time>1970-01-01T01:47:29.000Z</time>
      </trkpt>
      <trkpt lat="40.368787" lon="-3.366498">
        <ele>756.2</ele>
        <time>1970-01-01T01:47:30.000Z</time>
      </trkpt>
      <trkpt lat="40.368824" lon="-3.36648">
        <ele>755.8</ele>
        <time>1970-01-01T01:47:31.000Z</time>
      </trkpt>
      <trkpt lat="40.368861" lon="-3.366449">
        <ele>755.8</ele>
        <time>1970-01-01T01:47:32.000Z</time>
      </trkpt>
      <trkpt lat="40.368895" lon="-3.366419">
        <ele>755.4</ele>
        <time>1970-01-01T01:47:33.000Z</time>
      </trkpt>
      <trkpt lat="40.368929" lon="-3.366404">
        <ele>755.2</ele>
        <time>1970-01-01T01:47:34.000Z</time>
      </trkpt>
      <trkpt lat="40.368961" lon="-3.366395">
        <ele>754.6</ele>
        <time>1970-01-01T01:47:35.000Z</time>
      </trkpt>
      <trkpt lat="40.368992" lon="-3.366383">
        <ele>754.2</ele>
        <time>1970-01-01T01:47:36.000Z</time>
      </trkpt>
      <trkpt lat="40.369021" lon="-3.366383">
        <ele>753.8</ele>
        <time>1970-01-01T01:47:37.000Z</time>
      </trkpt>
      <trkpt lat="40.369053" lon="-3.36639">
        <ele>753</ele>
        <time>1970-01-01T01:47:38.000Z</time>
      </trkpt>
      <trkpt lat="40.369088" lon="-3.366402">
        <ele>752.8</ele>
        <time>1970-01-01T01:47:39.000Z</time>
      </trkpt>
      <trkpt lat="40.36912" lon="-3.366408">
        <ele>752.4</ele>
        <time>1970-01-01T01:47:40.000Z</time>
      </trkpt>
      <trkpt lat="40.36915" lon="-3.366399">
        <ele>752.2</ele>
        <time>1970-01-01T01:47:41.000Z</time>
      </trkpt>
      <trkpt lat="40.36918" lon="-3.366381">
        <ele>751.8</ele>
        <time>1970-01-01T01:47:42.000Z</time>
      </trkpt>
      <trkpt lat="40.369213" lon="-3.366362">
        <ele>751.6</ele>
        <time>1970-01-01T01:47:43.000Z</time>
      </trkpt>
      <trkpt lat="40.369246" lon="-3.366353">
        <ele>751.4</ele>
        <time>1970-01-01T01:47:44.000Z</time>
      </trkpt>
      <trkpt lat="40.369278" lon="-3.366355">
        <ele>751</ele>
        <time>1970-01-01T01:47:45.000Z</time>
      </trkpt>
      <trkpt lat="40.369311" lon="-3.366365">
        <ele>750.6</ele>
        <time>1970-01-01T01:47:46.000Z</time>
      </trkpt>
      <trkpt lat="40.369349" lon="-3.366373">
        <ele>749.6</ele>
        <time>1970-01-01T01:47:47.000Z</time>
      </trkpt>
      <trkpt lat="40.369387" lon="-3.366363">
        <ele>749</ele>
        <time>1970-01-01T01:47:48.000Z</time>
      </trkpt>
      <trkpt lat="40.369425" lon="-3.366343">
        <ele>748.4</ele>
        <time>1970-01-01T01:47:49.000Z</time>
      </trkpt>
      <trkpt lat="40.369468" lon="-3.366334">
        <ele>748.2</ele>
        <time>1970-01-01T01:47:50.000Z</time>
      </trkpt>
      <trkpt lat="40.369513" lon="-3.366334">
        <ele>748</ele>
        <time>1970-01-01T01:47:51.000Z</time>
      </trkpt>
      <trkpt lat="40.369563" lon="-3.366327">
        <ele>747.8</ele>
        <time>1970-01-01T01:47:52.000Z</time>
      </trkpt>
      <trkpt lat="40.369613" lon="-3.366311">
        <ele>747.6</ele>
        <time>1970-01-01T01:47:53.000Z</time>
      </trkpt>
      <trkpt lat="40.369662" lon="-3.366287">
        <ele>747.4</ele>
        <time>1970-01-01T01:47:54.000Z</time>
      </trkpt>
      <trkpt lat="40.369716" lon="-3.366274">
        <ele>747.4</ele>
        <time>1970-01-01T01:47:55.000Z</time>
      </trkpt>
      <trkpt lat="40.369772" lon="-3.366271">
        <ele>747</ele>
        <time>1970-01-01T01:47:56.000Z</time>
      </trkpt>
      <trkpt lat="40.369829" lon="-3.366263">
        <ele>746.8</ele>
        <time>1970-01-01T01:47:57.000Z</time>
      </trkpt>
      <trkpt lat="40.369889" lon="-3.366252">
        <ele>745.8</ele>
        <time>1970-01-01T01:47:58.000Z</time>
      </trkpt>
      <trkpt lat="40.36995" lon="-3.366243">
        <ele>745.2</ele>
        <time>1970-01-01T01:47:59.000Z</time>
      </trkpt>
      <trkpt lat="40.370006" lon="-3.366237">
        <ele>744.6</ele>
        <time>1970-01-01T01:48:00.000Z</time>
      </trkpt>
      <trkpt lat="40.370057" lon="-3.36623">
        <ele>743</ele>
        <time>1970-01-01T01:48:01.000Z</time>
      </trkpt>
      <trkpt lat="40.370098" lon="-3.366219">
        <ele>742.6</ele>
        <time>1970-01-01T01:48:02.000Z</time>
      </trkpt>
      <trkpt lat="40.370135" lon="-3.366208">
        <ele>741.8</ele>
        <time>1970-01-01T01:48:03.000Z</time>
      </trkpt>
      <trkpt lat="40.370172" lon="-3.366193">
        <ele>741.6</ele>
        <time>1970-01-01T01:48:04.000Z</time>
      </trkpt>
      <trkpt lat="40.370201" lon="-3.366179">
        <ele>741.4</ele>
        <time>1970-01-01T01:48:05.000Z</time>
      </trkpt>
      <trkpt lat="40.37024" lon="-3.36616">
        <ele>741.2</ele>
        <time>1970-01-01T01:48:06.000Z</time>
      </trkpt>
      <trkpt lat="40.370286" lon="-3.366132">
        <ele>740.8</ele>
        <time>1970-01-01T01:48:07.000Z</time>
      </trkpt>
      <trkpt lat="40.370318" lon="-3.366109">
        <ele>740.2</ele>
        <time>1970-01-01T01:48:08.000Z</time>
      </trkpt>
      <trkpt lat="40.370346" lon="-3.366097">
        <ele>739.8</ele>
        <time>1970-01-01T01:48:09.000Z</time>
      </trkpt>
      <trkpt lat="40.370373" lon="-3.366085">
        <ele>739</ele>
        <time>1970-01-01T01:48:10.000Z</time>
      </trkpt>
      <trkpt lat="40.370393" lon="-3.366083">
        <ele>738.6</ele>
        <time>1970-01-01T01:48:11.000Z</time>
      </trkpt>
      <trkpt lat="40.370427" lon="-3.366089">
        <ele>738.2</ele>
        <time>1970-01-01T01:48:12.000Z</time>
      </trkpt>
      <trkpt lat="40.370464" lon="-3.366094">
        <ele>738</ele>
        <time>1970-01-01T01:48:13.000Z</time>
      </trkpt>
      <trkpt lat="40.370508" lon="-3.366089">
        <ele>737.8</ele>
        <time>1970-01-01T01:48:14.000Z</time>
      </trkpt>
      <trkpt lat="40.370554" lon="-3.366092">
        <ele>737.6</ele>
        <time>1970-01-01T01:48:15.000Z</time>
      </trkpt>
      <trkpt lat="40.3706" lon="-3.366103">
        <ele>737.2</ele>
        <time>1970-01-01T01:48:16.000Z</time>
      </trkpt>
      <trkpt lat="40.370636" lon="-3.366102">
        <ele>736.8</ele>
        <time>1970-01-01T01:48:17.000Z</time>
      </trkpt>
      <trkpt lat="40.370663" lon="-3.366098">
        <ele>736.6</ele>
        <time>1970-01-01T01:48:18.000Z</time>
      </trkpt>
      <trkpt lat="40.370686" lon="-3.366095">
        <ele>736.2</ele>
        <time>1970-01-01T01:48:19.000Z</time>
      </trkpt>
      <trkpt lat="40.370711" lon="-3.36609">
        <ele>736</ele>
        <time>1970-01-01T01:48:20.000Z</time>
      </trkpt>
      <trkpt lat="40.370737" lon="-3.366089">
        <ele>735.4</ele>
        <time>1970-01-01T01:48:21.000Z</time>
      </trkpt>
      <trkpt lat="40.37077" lon="-3.366081">
        <ele>735</ele>
        <time>1970-01-01T01:48:22.000Z</time>
      </trkpt>
      <trkpt lat="40.370803" lon="-3.366068">
        <ele>734.6</ele>
        <time>1970-01-01T01:48:23.000Z</time>
      </trkpt>
      <trkpt lat="40.370831" lon="-3.366052">
        <ele>734.6</ele>
        <time>1970-01-01T01:48:24.000Z</time>
      </trkpt>
      <trkpt lat="40.37086" lon="-3.366038">
        <ele>734</ele>
        <time>1970-01-01T01:48:25.000Z</time>
      </trkpt>
      <trkpt lat="40.370894" lon="-3.366037">
        <ele>733.6</ele>
        <time>1970-01-01T01:48:26.000Z</time>
      </trkpt>
      <trkpt lat="40.370933" lon="-3.366045">
        <ele>733.4</ele>
        <time>1970-01-01T01:48:27.000Z</time>
      </trkpt>
      <trkpt lat="40.370974" lon="-3.366056">
        <ele>732.8</ele>
        <time>1970-01-01T01:48:28.000Z</time>
      </trkpt>
      <trkpt lat="40.371024" lon="-3.366063">
        <ele>732.6</ele>
        <time>1970-01-01T01:48:29.000Z</time>
      </trkpt>
      <trkpt lat="40.371079" lon="-3.366063">
        <ele>732.2</ele>
        <time>1970-01-01T01:48:30.000Z</time>
      </trkpt>
      <trkpt lat="40.371135" lon="-3.366068">
        <ele>732</ele>
        <time>1970-01-01T01:48:31.000Z</time>
      </trkpt>
      <trkpt lat="40.371185" lon="-3.366088">
        <ele>731.4</ele>
        <time>1970-01-01T01:48:32.000Z</time>
      </trkpt>
      <trkpt lat="40.371222" lon="-3.36612">
        <ele>731.2</ele>
        <time>1970-01-01T01:48:33.000Z</time>
      </trkpt>
      <trkpt lat="40.371238" lon="-3.366153">
        <ele>730.6</ele>
        <time>1970-01-01T01:48:34.000Z</time>
      </trkpt>
      <trkpt lat="40.371251" lon="-3.366198">
        <ele>730.2</ele>
        <time>1970-01-01T01:48:35.000Z</time>
      </trkpt>
      <trkpt lat="40.371264" lon="-3.366245">
        <ele>730</ele>
        <time>1970-01-01T01:48:36.000Z</time>
      </trkpt>
      <trkpt lat="40.371275" lon="-3.366274">
        <ele>729.6</ele>
        <time>1970-01-01T01:48:37.000Z</time>
      </trkpt>
      <trkpt lat="40.371287" lon="-3.366295">
        <ele>729.4</ele>
        <time>1970-01-01T01:48:38.000Z</time>
      </trkpt>
      <trkpt lat="40.371295" lon="-3.366301">
        <ele>729.2</ele>
        <time>1970-01-01T01:48:39.000Z</time>
      </trkpt>
      <trkpt lat="40.371305" lon="-3.366303">
        <ele>728.8</ele>
        <time>1970-01-01T01:48:40.000Z</time>
      </trkpt>
      <trkpt lat="40.371313" lon="-3.366302">
        <ele>728.2</ele>
        <time>1970-01-01T01:48:41.000Z</time>
      </trkpt>
      <trkpt lat="40.371313" lon="-3.366302">
        <ele>728</ele>
        <time>1970-01-01T01:48:42.000Z</time>
      </trkpt>
      <trkpt lat="40.371366" lon="-3.366318">
        <ele>726.8</ele>
        <time>1970-01-01T01:48:58.000Z</time>
      </trkpt>
      <trkpt lat="40.371396" lon="-3.366323">
        <ele>726.8</ele>
        <time>1970-01-01T01:48:59.000Z</time>
      </trkpt>
      <trkpt lat="40.371429" lon="-3.366335">
        <ele>726.8</ele>
        <time>1970-01-01T01:49:00.000Z</time>
      </trkpt>
      <trkpt lat="40.371458" lon="-3.366358">
        <ele>726.8</ele>
        <time>1970-01-01T01:49:01.000Z</time>
      </trkpt>
      <trkpt lat="40.371488" lon="-3.366394">
        <ele>726.6</ele>
        <time>1970-01-01T01:49:02.000Z</time>
      </trkpt>
      <trkpt lat="40.371513" lon="-3.366428">
        <ele>726.6</ele>
        <time>1970-01-01T01:49:03.000Z</time>
      </trkpt>
      <trkpt lat="40.371546" lon="-3.366473">
        <ele>726.4</ele>
        <time>1970-01-01T01:49:04.000Z</time>
      </trkpt>
      <trkpt lat="40.371586" lon="-3.366523">
        <ele>726.2</ele>
        <time>1970-01-01T01:49:05.000Z</time>
      </trkpt>
      <trkpt lat="40.371616" lon="-3.366559">
        <ele>726</ele>
        <time>1970-01-01T01:49:06.000Z</time>
      </trkpt>
      <trkpt lat="40.371646" lon="-3.3666">
        <ele>725</ele>
        <time>1970-01-01T01:49:07.000Z</time>
      </trkpt>
      <trkpt lat="40.37167" lon="-3.366627">
        <ele>724.6</ele>
        <time>1970-01-01T01:49:08.000Z</time>
      </trkpt>
      <trkpt lat="40.371704" lon="-3.366652">
        <ele>723.6</ele>
        <time>1970-01-01T01:49:09.000Z</time>
      </trkpt>
      <trkpt lat="40.371746" lon="-3.366671">
        <ele>723.4</ele>
        <time>1970-01-01T01:49:10.000Z</time>
      </trkpt>
      <trkpt lat="40.371777" lon="-3.366683">
        <ele>722.4</ele>
        <time>1970-01-01T01:49:11.000Z</time>
      </trkpt>
      <trkpt lat="40.371808" lon="-3.366706">
        <ele>722</ele>
        <time>1970-01-01T01:49:12.000Z</time>
      </trkpt>
      <trkpt lat="40.37184" lon="-3.366743">
        <ele>721.6</ele>
        <time>1970-01-01T01:49:13.000Z</time>
      </trkpt>
      <trkpt lat="40.371869" lon="-3.366781">
        <ele>720.8</ele>
        <time>1970-01-01T01:49:14.000Z</time>
      </trkpt>
      <trkpt lat="40.371917" lon="-3.366836">
        <ele>720</ele>
        <time>1970-01-01T01:49:15.000Z</time>
      </trkpt>
      <trkpt lat="40.371957" lon="-3.366888">
        <ele>719.2</ele>
        <time>1970-01-01T01:49:16.000Z</time>
      </trkpt>
      <trkpt lat="40.372003" lon="-3.366939">
        <ele>719</ele>
        <time>1970-01-01T01:49:17.000Z</time>
      </trkpt>
      <trkpt lat="40.37205" lon="-3.366969">
        <ele>718.4</ele>
        <time>1970-01-01T01:49:18.000Z</time>
      </trkpt>
      <trkpt lat="40.372121" lon="-3.367001">
        <ele>717.8</ele>
        <time>1970-01-01T01:49:19.000Z</time>
      </trkpt>
      <trkpt lat="40.372174" lon="-3.367035">
        <ele>716.8</ele>
        <time>1970-01-01T01:49:20.000Z</time>
      </trkpt>
      <trkpt lat="40.372229" lon="-3.367075">
        <ele>716.2</ele>
        <time>1970-01-01T01:49:21.000Z</time>
      </trkpt>
      <trkpt lat="40.37229" lon="-3.367108">
        <ele>715.2</ele>
        <time>1970-01-01T01:49:22.000Z</time>
      </trkpt>
      <trkpt lat="40.372347" lon="-3.36712">
        <ele>715</ele>
        <time>1970-01-01T01:49:23.000Z</time>
      </trkpt>
      <trkpt lat="40.372402" lon="-3.36712">
        <ele>714.2</ele>
        <time>1970-01-01T01:49:24.000Z</time>
      </trkpt>
      <trkpt lat="40.372453" lon="-3.367113">
        <ele>713.4</ele>
        <time>1970-01-01T01:49:25.000Z</time>
      </trkpt>
      <trkpt lat="40.372495" lon="-3.367097">
        <ele>713.2</ele>
        <time>1970-01-01T01:49:26.000Z</time>
      </trkpt>
      <trkpt lat="40.372532" lon="-3.367068">
        <ele>712.4</ele>
        <time>1970-01-01T01:49:27.000Z</time>
      </trkpt>
      <trkpt lat="40.372569" lon="-3.367041">
        <ele>712.2</ele>
        <time>1970-01-01T01:49:28.000Z</time>
      </trkpt>
      <trkpt lat="40.372614" lon="-3.367018">
        <ele>711.6</ele>
        <time>1970-01-01T01:49:29.000Z</time>
      </trkpt>
      <trkpt lat="40.372658" lon="-3.367">
        <ele>711.2</ele>
        <time>1970-01-01T01:49:30.000Z</time>
      </trkpt>
      <trkpt lat="40.372694" lon="-3.36698">
        <ele>710.8</ele>
        <time>1970-01-01T01:49:31.000Z</time>
      </trkpt>
      <trkpt lat="40.372727" lon="-3.366961">
        <ele>710.6</ele>
        <time>1970-01-01T01:49:32.000Z</time>
      </trkpt>
      <trkpt lat="40.372753" lon="-3.366948">
        <ele>710.2</ele>
        <time>1970-01-01T01:49:33.000Z</time>
      </trkpt>
      <trkpt lat="40.372773" lon="-3.366939">
        <ele>709.6</ele>
        <time>1970-01-01T01:49:34.000Z</time>
      </trkpt>
      <trkpt lat="40.372791" lon="-3.366929">
        <ele>709.2</ele>
        <time>1970-01-01T01:49:35.000Z</time>
      </trkpt>
      <trkpt lat="40.372804" lon="-3.366922">
        <ele>708.6</ele>
        <time>1970-01-01T01:49:36.000Z</time>
      </trkpt>
      <trkpt lat="40.372809" lon="-3.366922">
        <ele>708.4</ele>
        <time>1970-01-01T01:49:37.000Z</time>
      </trkpt>
      <trkpt lat="40.372809" lon="-3.366922">
        <ele>708</ele>
        <time>1970-01-01T01:49:38.000Z</time>
      </trkpt>
      <trkpt lat="40.372828" lon="-3.366918">
        <ele>707</ele>
        <time>1970-01-01T01:49:54.000Z</time>
      </trkpt>
      <trkpt lat="40.372835" lon="-3.366917">
        <ele>707</ele>
        <time>1970-01-01T01:49:55.000Z</time>
      </trkpt>
      <trkpt lat="40.372835" lon="-3.366917">
        <ele>707</ele>
        <time>1970-01-01T01:49:56.000Z</time>
      </trkpt>
      <trkpt lat="40.372866" lon="-3.366903">
        <ele>706.8</ele>
        <time>1970-01-01T01:50:02.000Z</time>
      </trkpt>
      <trkpt lat="40.372897" lon="-3.366885">
        <ele>706.8</ele>
        <time>1970-01-01T01:50:03.000Z</time>
      </trkpt>
      <trkpt lat="40.372936" lon="-3.36686">
        <ele>706.8</ele>
        <time>1970-01-01T01:50:04.000Z</time>
      </trkpt>
      <trkpt lat="40.372979" lon="-3.36683">
        <ele>706.6</ele>
        <time>1970-01-01T01:50:05.000Z</time>
      </trkpt>
      <trkpt lat="40.373022" lon="-3.366795">
        <ele>706.6</ele>
        <time>1970-01-01T01:50:06.000Z</time>
      </trkpt>
      <trkpt lat="40.373066" lon="-3.366761">
        <ele>706.6</ele>
        <time>1970-01-01T01:50:07.000Z</time>
      </trkpt>
      <trkpt lat="40.373118" lon="-3.366729">
        <ele>706.4</ele>
        <time>1970-01-01T01:50:08.000Z</time>
      </trkpt>
      <trkpt lat="40.373171" lon="-3.366699">
        <ele>706.2</ele>
        <time>1970-01-01T01:50:09.000Z</time>
      </trkpt>
      <trkpt lat="40.37322" lon="-3.366672">
        <ele>706</ele>
        <time>1970-01-01T01:50:10.000Z</time>
      </trkpt>
      <trkpt lat="40.373262" lon="-3.366652">
        <ele>705.8</ele>
        <time>1970-01-01T01:50:11.000Z</time>
      </trkpt>
      <trkpt lat="40.373306" lon="-3.366644">
        <ele>705.2</ele>
        <time>1970-01-01T01:50:12.000Z</time>
      </trkpt>
      <trkpt lat="40.37335" lon="-3.366636">
        <ele>704.8</ele>
        <time>1970-01-01T01:50:13.000Z</time>
      </trkpt>
      <trkpt lat="40.373394" lon="-3.366624">
        <ele>704.6</ele>
        <time>1970-01-01T01:50:14.000Z</time>
      </trkpt>
      <trkpt lat="40.373436" lon="-3.366609">
        <ele>704.4</ele>
        <time>1970-01-01T01:50:15.000Z</time>
      </trkpt>
      <trkpt lat="40.373482" lon="-3.366614">
        <ele>704.2</ele>
        <time>1970-01-01T01:50:16.000Z</time>
      </trkpt>
      <trkpt lat="40.373526" lon="-3.366632">
        <ele>703.6</ele>
        <time>1970-01-01T01:50:17.000Z</time>
      </trkpt>
      <trkpt lat="40.373564" lon="-3.366662">
        <ele>703.2</ele>
        <time>1970-01-01T01:50:18.000Z</time>
      </trkpt>
      <trkpt lat="40.373597" lon="-3.366699">
        <ele>703</ele>
        <time>1970-01-01T01:50:19.000Z</time>
      </trkpt>
      <trkpt lat="40.373628" lon="-3.366732">
        <ele>702.8</ele>
        <time>1970-01-01T01:50:20.000Z</time>
      </trkpt>
      <trkpt lat="40.373655" lon="-3.366756">
        <ele>702.4</ele>
        <time>1970-01-01T01:50:21.000Z</time>
      </trkpt>
      <trkpt lat="40.373672" lon="-3.366769">
        <ele>702.2</ele>
        <time>1970-01-01T01:50:22.000Z</time>
      </trkpt>
      <trkpt lat="40.373701" lon="-3.366755">
        <ele>702</ele>
        <time>1970-01-01T01:50:23.000Z</time>
      </trkpt>
      <trkpt lat="40.373724" lon="-3.366736">
        <ele>701.6</ele>
        <time>1970-01-01T01:50:24.000Z</time>
      </trkpt>
      <trkpt lat="40.373746" lon="-3.366718">
        <ele>700.8</ele>
        <time>1970-01-01T01:50:29.000Z</time>
      </trkpt>
      <trkpt lat="40.373769" lon="-3.366699">
        <ele>700.8</ele>
        <time>1970-01-01T01:50:30.000Z</time>
      </trkpt>
      <trkpt lat="40.373802" lon="-3.366669">
        <ele>700.6</ele>
        <time>1970-01-01T01:50:31.000Z</time>
      </trkpt>
      <trkpt lat="40.373829" lon="-3.366649">
        <ele>700.4</ele>
        <time>1970-01-01T01:50:32.000Z</time>
      </trkpt>
      <trkpt lat="40.373853" lon="-3.366631">
        <ele>700.2</ele>
        <time>1970-01-01T01:50:33.000Z</time>
      </trkpt>
      <trkpt lat="40.373874" lon="-3.366617">
        <ele>700.2</ele>
        <time>1970-01-01T01:50:34.000Z</time>
      </trkpt>
      <trkpt lat="40.37389" lon="-3.366603">
        <ele>700.2</ele>
        <time>1970-01-01T01:50:35.000Z</time>
      </trkpt>
      <trkpt lat="40.373908" lon="-3.36659">
        <ele>700.2</ele>
        <time>1970-01-01T01:50:36.000Z</time>
      </trkpt>
      <trkpt lat="40.373925" lon="-3.366579">
        <ele>700</ele>
        <time>1970-01-01T01:50:37.000Z</time>
      </trkpt>
      <trkpt lat="40.373942" lon="-3.366564">
        <ele>700</ele>
        <time>1970-01-01T01:50:38.000Z</time>
      </trkpt>
      <trkpt lat="40.373962" lon="-3.366551">
        <ele>700</ele>
        <time>1970-01-01T01:50:39.000Z</time>
      </trkpt>
      <trkpt lat="40.373983" lon="-3.366544">
        <ele>700</ele>
        <time>1970-01-01T01:50:40.000Z</time>
      </trkpt>
      <trkpt lat="40.374001" lon="-3.366544">
        <ele>700</ele>
        <time>1970-01-01T01:50:41.000Z</time>
      </trkpt>
      <trkpt lat="40.37402" lon="-3.366548">
        <ele>700</ele>
        <time>1970-01-01T01:50:42.000Z</time>
      </trkpt>
      <trkpt lat="40.374041" lon="-3.366557">
        <ele>700</ele>
        <time>1970-01-01T01:50:43.000Z</time>
      </trkpt>
      <trkpt lat="40.37406" lon="-3.366566">
        <ele>700</ele>
        <time>1970-01-01T01:50:44.000Z</time>
      </trkpt>
      <trkpt lat="40.374074" lon="-3.366575">
        <ele>700</ele>
        <time>1970-01-01T01:50:45.000Z</time>
      </trkpt>
      <trkpt lat="40.374088" lon="-3.366581">
        <ele>700</ele>
        <time>1970-01-01T01:50:46.000Z</time>
      </trkpt>
      <trkpt lat="40.374095" lon="-3.366584">
        <ele>700</ele>
        <time>1970-01-01T01:50:47.000Z</time>
      </trkpt>
      <trkpt lat="40.374095" lon="-3.366584">
        <ele>700</ele>
        <time>1970-01-01T01:50:48.000Z</time>
      </trkpt>
      <trkpt lat="40.374095" lon="-3.366584">
        <ele>699.8</ele>
        <time>1970-01-01T01:50:49.000Z</time>
      </trkpt>
      <trkpt lat="40.374129" lon="-3.366595">
        <ele>699.8</ele>
        <time>1970-01-01T01:50:53.000Z</time>
      </trkpt>
      <trkpt lat="40.374152" lon="-3.366601">
        <ele>699.8</ele>
        <time>1970-01-01T01:50:54.000Z</time>
      </trkpt>
      <trkpt lat="40.374177" lon="-3.366604">
        <ele>699.8</ele>
        <time>1970-01-01T01:50:55.000Z</time>
      </trkpt>
      <trkpt lat="40.374204" lon="-3.366606">
        <ele>699.8</ele>
        <time>1970-01-01T01:50:56.000Z</time>
      </trkpt>
      <trkpt lat="40.374233" lon="-3.366606">
        <ele>699.6</ele>
        <time>1970-01-01T01:50:57.000Z</time>
      </trkpt>
      <trkpt lat="40.374264" lon="-3.366611">
        <ele>699.6</ele>
        <time>1970-01-01T01:50:58.000Z</time>
      </trkpt>
      <trkpt lat="40.374298" lon="-3.366615">
        <ele>699.6</ele>
        <time>1970-01-01T01:50:59.000Z</time>
      </trkpt>
      <trkpt lat="40.374332" lon="-3.366619">
        <ele>699.6</ele>
        <time>1970-01-01T01:51:00.000Z</time>
      </trkpt>
      <trkpt lat="40.374365" lon="-3.366628">
        <ele>699.6</ele>
        <time>1970-01-01T01:51:01.000Z</time>
      </trkpt>
      <trkpt lat="40.374393" lon="-3.366637">
        <ele>699.6</ele>
        <time>1970-01-01T01:51:02.000Z</time>
      </trkpt>
      <trkpt lat="40.374429" lon="-3.366643">
        <ele>699.4</ele>
        <time>1970-01-01T01:51:03.000Z</time>
      </trkpt>
      <trkpt lat="40.374472" lon="-3.366657">
        <ele>699.2</ele>
        <time>1970-01-01T01:51:04.000Z</time>
      </trkpt>
      <trkpt lat="40.374505" lon="-3.366672">
        <ele>699</ele>
        <time>1970-01-01T01:51:05.000Z</time>
      </trkpt>
      <trkpt lat="40.374535" lon="-3.366685">
        <ele>699</ele>
        <time>1970-01-01T01:51:06.000Z</time>
      </trkpt>
      <trkpt lat="40.374561" lon="-3.366692">
        <ele>698.8</ele>
        <time>1970-01-01T01:51:07.000Z</time>
      </trkpt>
      <trkpt lat="40.37458" lon="-3.366695">
        <ele>698.8</ele>
        <time>1970-01-01T01:51:08.000Z</time>
      </trkpt>
      <trkpt lat="40.374611" lon="-3.366701">
        <ele>698.6</ele>
        <time>1970-01-01T01:51:09.000Z</time>
      </trkpt>
      <trkpt lat="40.374641" lon="-3.366708">
        <ele>698.6</ele>
        <time>1970-01-01T01:51:10.000Z</time>
      </trkpt>
      <trkpt lat="40.374674" lon="-3.366717">
        <ele>698.6</ele>
        <time>1970-01-01T01:51:11.000Z</time>
      </trkpt>
      <trkpt lat="40.374708" lon="-3.366729">
        <ele>698.4</ele>
        <time>1970-01-01T01:51:12.000Z</time>
      </trkpt>
      <trkpt lat="40.374744" lon="-3.366742">
        <ele>698.4</ele>
        <time>1970-01-01T01:51:13.000Z</time>
      </trkpt>
      <trkpt lat="40.37478" lon="-3.366755">
        <ele>698.2</ele>
        <time>1970-01-01T01:51:14.000Z</time>
      </trkpt>
      <trkpt lat="40.374814" lon="-3.366767">
        <ele>698</ele>
        <time>1970-01-01T01:51:15.000Z</time>
      </trkpt>
      <trkpt lat="40.374847" lon="-3.366773">
        <ele>698</ele>
        <time>1970-01-01T01:51:16.000Z</time>
      </trkpt>
      <trkpt lat="40.37488" lon="-3.36678">
        <ele>697.8</ele>
        <time>1970-01-01T01:51:17.000Z</time>
      </trkpt>
      <trkpt lat="40.37491" lon="-3.366781">
        <ele>697.8</ele>
        <time>1970-01-01T01:51:18.000Z</time>
      </trkpt>
      <trkpt lat="40.374939" lon="-3.366769">
        <ele>697.8</ele>
        <time>1970-01-01T01:51:19.000Z</time>
      </trkpt>
      <trkpt lat="40.374964" lon="-3.366746">
        <ele>697.8</ele>
        <time>1970-01-01T01:51:20.000Z</time>
      </trkpt>
      <trkpt lat="40.374991" lon="-3.366717">
        <ele>697.8</ele>
        <time>1970-01-01T01:51:21.000Z</time>
      </trkpt>
      <trkpt lat="40.37502" lon="-3.366689">
        <ele>697.8</ele>
        <time>1970-01-01T01:51:22.000Z</time>
      </trkpt>
      <trkpt lat="40.375048" lon="-3.36666">
        <ele>697.8</ele>
        <time>1970-01-01T01:51:23.000Z</time>
      </trkpt>
      <trkpt lat="40.375076" lon="-3.366636">
        <ele>697.8</ele>
        <time>1970-01-01T01:51:24.000Z</time>
      </trkpt>
      <trkpt lat="40.375104" lon="-3.366615">
        <ele>697.8</ele>
        <time>1970-01-01T01:51:25.000Z</time>
      </trkpt>
      <trkpt lat="40.375129" lon="-3.366592">
        <ele>697.8</ele>
        <time>1970-01-01T01:51:26.000Z</time>
      </trkpt>
      <trkpt lat="40.375153" lon="-3.366569">
        <ele>698</ele>
        <time>1970-01-01T01:51:27.000Z</time>
      </trkpt>
      <trkpt lat="40.375178" lon="-3.366546">
        <ele>698.2</ele>
        <time>1970-01-01T01:51:28.000Z</time>
      </trkpt>
      <trkpt lat="40.375205" lon="-3.366525">
        <ele>698.2</ele>
        <time>1970-01-01T01:51:29.000Z</time>
      </trkpt>
      <trkpt lat="40.375232" lon="-3.366507">
        <ele>698.6</ele>
        <time>1970-01-01T01:51:30.000Z</time>
      </trkpt>
      <trkpt lat="40.375255" lon="-3.366491">
        <ele>698.8</ele>
        <time>1970-01-01T01:51:31.000Z</time>
      </trkpt>
      <trkpt lat="40.375278" lon="-3.366472">
        <ele>699</ele>
        <time>1970-01-01T01:51:32.000Z</time>
      </trkpt>
      <trkpt lat="40.375301" lon="-3.366454">
        <ele>699.2</ele>
        <time>1970-01-01T01:51:33.000Z</time>
      </trkpt>
      <trkpt lat="40.375325" lon="-3.366438">
        <ele>699.4</ele>
        <time>1970-01-01T01:51:34.000Z</time>
      </trkpt>
      <trkpt lat="40.37535" lon="-3.366423">
        <ele>699.6</ele>
        <time>1970-01-01T01:51:35.000Z</time>
      </trkpt>
      <trkpt lat="40.375371" lon="-3.366408">
        <ele>699.6</ele>
        <time>1970-01-01T01:51:36.000Z</time>
      </trkpt>
      <trkpt lat="40.375405" lon="-3.366394">
        <ele>699.6</ele>
        <time>1970-01-01T01:51:37.000Z</time>
      </trkpt>
      <trkpt lat="40.375433" lon="-3.366387">
        <ele>699.6</ele>
        <time>1970-01-01T01:51:38.000Z</time>
      </trkpt>
      <trkpt lat="40.375462" lon="-3.366383">
        <ele>699.8</ele>
        <time>1970-01-01T01:51:39.000Z</time>
      </trkpt>
      <trkpt lat="40.375484" lon="-3.36638">
        <ele>700</ele>
        <time>1970-01-01T01:51:40.000Z</time>
      </trkpt>
      <trkpt lat="40.375512" lon="-3.366373">
        <ele>700.2</ele>
        <time>1970-01-01T01:51:41.000Z</time>
      </trkpt>
      <trkpt lat="40.375544" lon="-3.366365">
        <ele>700.4</ele>
        <time>1970-01-01T01:51:42.000Z</time>
      </trkpt>
      <trkpt lat="40.375572" lon="-3.366356">
        <ele>700.6</ele>
        <time>1970-01-01T01:51:43.000Z</time>
      </trkpt>
      <trkpt lat="40.375599" lon="-3.366346">
        <ele>700.6</ele>
        <time>1970-01-01T01:51:44.000Z</time>
      </trkpt>
      <trkpt lat="40.375627" lon="-3.366332">
        <ele>700.8</ele>
        <time>1970-01-01T01:51:45.000Z</time>
      </trkpt>
      <trkpt lat="40.375653" lon="-3.366318">
        <ele>700.8</ele>
        <time>1970-01-01T01:51:46.000Z</time>
      </trkpt>
      <trkpt lat="40.375679" lon="-3.366304">
        <ele>700.8</ele>
        <time>1970-01-01T01:51:47.000Z</time>
      </trkpt>
      <trkpt lat="40.375706" lon="-3.366292">
        <ele>701</ele>
        <time>1970-01-01T01:51:48.000Z</time>
      </trkpt>
      <trkpt lat="40.375734" lon="-3.366279">
        <ele>701</ele>
        <time>1970-01-01T01:51:49.000Z</time>
      </trkpt>
      <trkpt lat="40.375761" lon="-3.366267">
        <ele>701.2</ele>
        <time>1970-01-01T01:51:50.000Z</time>
      </trkpt>
      <trkpt lat="40.375788" lon="-3.366256">
        <ele>701.2</ele>
        <time>1970-01-01T01:51:51.000Z</time>
      </trkpt>
      <trkpt lat="40.375814" lon="-3.366248">
        <ele>701.4</ele>
        <time>1970-01-01T01:51:52.000Z</time>
      </trkpt>
      <trkpt lat="40.375841" lon="-3.366242">
        <ele>701.4</ele>
        <time>1970-01-01T01:51:53.000Z</time>
      </trkpt>
      <trkpt lat="40.375868" lon="-3.366238">
        <ele>701.6</ele>
        <time>1970-01-01T01:51:54.000Z</time>
      </trkpt>
      <trkpt lat="40.375896" lon="-3.366235">
        <ele>701.6</ele>
        <time>1970-01-01T01:51:55.000Z</time>
      </trkpt>
      <trkpt lat="40.375924" lon="-3.366231">
        <ele>701.8</ele>
        <time>1970-01-01T01:51:56.000Z</time>
      </trkpt>
      <trkpt lat="40.375952" lon="-3.366226">
        <ele>702</ele>
        <time>1970-01-01T01:51:57.000Z</time>
      </trkpt>
      <trkpt lat="40.37598" lon="-3.366215">
        <ele>702</ele>
        <time>1970-01-01T01:51:58.000Z</time>
      </trkpt>
      <trkpt lat="40.376007" lon="-3.366203">
        <ele>702.2</ele>
        <time>1970-01-01T01:51:59.000Z</time>
      </trkpt>
      <trkpt lat="40.376032" lon="-3.366187">
        <ele>702.2</ele>
        <time>1970-01-01T01:52:00.000Z</time>
      </trkpt>
      <trkpt lat="40.376054" lon="-3.366167">
        <ele>702.4</ele>
        <time>1970-01-01T01:52:01.000Z</time>
      </trkpt>
      <trkpt lat="40.376073" lon="-3.366146">
        <ele>702.6</ele>
        <time>1970-01-01T01:52:02.000Z</time>
      </trkpt>
      <trkpt lat="40.37609" lon="-3.366122">
        <ele>702.6</ele>
        <time>1970-01-01T01:52:03.000Z</time>
      </trkpt>
      <trkpt lat="40.376104" lon="-3.366094">
        <ele>702.8</ele>
        <time>1970-01-01T01:52:04.000Z</time>
      </trkpt>
      <trkpt lat="40.376116" lon="-3.366063">
        <ele>702.8</ele>
        <time>1970-01-01T01:52:05.000Z</time>
      </trkpt>
      <trkpt lat="40.376126" lon="-3.366031">
        <ele>703</ele>
        <time>1970-01-01T01:52:06.000Z</time>
      </trkpt>
      <trkpt lat="40.376137" lon="-3.365999">
        <ele>703.2</ele>
        <time>1970-01-01T01:52:07.000Z</time>
      </trkpt>
      <trkpt lat="40.376149" lon="-3.365966">
        <ele>703.6</ele>
        <time>1970-01-01T01:52:08.000Z</time>
      </trkpt>
      <trkpt lat="40.376161" lon="-3.365932">
        <ele>703.6</ele>
        <time>1970-01-01T01:52:09.000Z</time>
      </trkpt>
      <trkpt lat="40.376177" lon="-3.365897">
        <ele>703.8</ele>
        <time>1970-01-01T01:52:10.000Z</time>
      </trkpt>
      <trkpt lat="40.376194" lon="-3.365861">
        <ele>703.8</ele>
        <time>1970-01-01T01:52:11.000Z</time>
      </trkpt>
      <trkpt lat="40.376208" lon="-3.365824">
        <ele>704</ele>
        <time>1970-01-01T01:52:12.000Z</time>
      </trkpt>
      <trkpt lat="40.376228" lon="-3.365794">
        <ele>704.2</ele>
        <time>1970-01-01T01:52:13.000Z</time>
      </trkpt>
      <trkpt lat="40.376249" lon="-3.365765">
        <ele>704.2</ele>
        <time>1970-01-01T01:52:14.000Z</time>
      </trkpt>
      <trkpt lat="40.376271" lon="-3.365738">
        <ele>704.2</ele>
        <time>1970-01-01T01:52:15.000Z</time>
      </trkpt>
      <trkpt lat="40.376292" lon="-3.365712">
        <ele>704.4</ele>
        <time>1970-01-01T01:52:16.000Z</time>
      </trkpt>
      <trkpt lat="40.376312" lon="-3.365688">
        <ele>704.6</ele>
        <time>1970-01-01T01:52:17.000Z</time>
      </trkpt>
      <trkpt lat="40.376332" lon="-3.365668">
        <ele>704.8</ele>
        <time>1970-01-01T01:52:18.000Z</time>
      </trkpt>
      <trkpt lat="40.376352" lon="-3.365653">
        <ele>705.2</ele>
        <time>1970-01-01T01:52:19.000Z</time>
      </trkpt>
      <trkpt lat="40.376372" lon="-3.365633">
        <ele>705.4</ele>
        <time>1970-01-01T01:52:20.000Z</time>
      </trkpt>
      <trkpt lat="40.37639" lon="-3.365612">
        <ele>705.8</ele>
        <time>1970-01-01T01:52:21.000Z</time>
      </trkpt>
      <trkpt lat="40.376408" lon="-3.365593">
        <ele>706</ele>
        <time>1970-01-01T01:52:22.000Z</time>
      </trkpt>
      <trkpt lat="40.376427" lon="-3.365576">
        <ele>706.2</ele>
        <time>1970-01-01T01:52:23.000Z</time>
      </trkpt>
      <trkpt lat="40.376446" lon="-3.365559">
        <ele>706.2</ele>
        <time>1970-01-01T01:52:24.000Z</time>
      </trkpt>
      <trkpt lat="40.376464" lon="-3.365542">
        <ele>706.4</ele>
        <time>1970-01-01T01:52:25.000Z</time>
      </trkpt>
      <trkpt lat="40.376482" lon="-3.365522">
        <ele>706.8</ele>
        <time>1970-01-01T01:52:26.000Z</time>
      </trkpt>
      <trkpt lat="40.376502" lon="-3.365499">
        <ele>707</ele>
        <time>1970-01-01T01:52:27.000Z</time>
      </trkpt>
      <trkpt lat="40.376526" lon="-3.365476">
        <ele>707.2</ele>
        <time>1970-01-01T01:52:28.000Z</time>
      </trkpt>
      <trkpt lat="40.376553" lon="-3.365457">
        <ele>707.2</ele>
        <time>1970-01-01T01:52:29.000Z</time>
      </trkpt>
      <trkpt lat="40.376578" lon="-3.365441">
        <ele>707.4</ele>
        <time>1970-01-01T01:52:30.000Z</time>
      </trkpt>
      <trkpt lat="40.376602" lon="-3.365423">
        <ele>707.4</ele>
        <time>1970-01-01T01:52:31.000Z</time>
      </trkpt>
      <trkpt lat="40.376622" lon="-3.365398">
        <ele>707.6</ele>
        <time>1970-01-01T01:52:32.000Z</time>
      </trkpt>
      <trkpt lat="40.376638" lon="-3.365372">
        <ele>707.8</ele>
        <time>1970-01-01T01:52:33.000Z</time>
      </trkpt>
      <trkpt lat="40.376651" lon="-3.365349">
        <ele>707.6</ele>
        <time>1970-01-01T01:52:34.000Z</time>
      </trkpt>
      <trkpt lat="40.376663" lon="-3.365327">
        <ele>707.8</ele>
        <time>1970-01-01T01:52:35.000Z</time>
      </trkpt>
      <trkpt lat="40.376671" lon="-3.3653">
        <ele>707.8</ele>
        <time>1970-01-01T01:52:36.000Z</time>
      </trkpt>
      <trkpt lat="40.376678" lon="-3.365272">
        <ele>708.2</ele>
        <time>1970-01-01T01:52:37.000Z</time>
      </trkpt>
      <trkpt lat="40.376692" lon="-3.36525">
        <ele>708.4</ele>
        <time>1970-01-01T01:52:38.000Z</time>
      </trkpt>
      <trkpt lat="40.376709" lon="-3.365239">
        <ele>708.4</ele>
        <time>1970-01-01T01:52:39.000Z</time>
      </trkpt>
      <trkpt lat="40.376726" lon="-3.365225">
        <ele>708.6</ele>
        <time>1970-01-01T01:52:40.000Z</time>
      </trkpt>
      <trkpt lat="40.376744" lon="-3.365207">
        <ele>708.6</ele>
        <time>1970-01-01T01:52:41.000Z</time>
      </trkpt>
      <trkpt lat="40.376763" lon="-3.365185">
        <ele>709</ele>
        <time>1970-01-01T01:52:42.000Z</time>
      </trkpt>
      <trkpt lat="40.376778" lon="-3.365167">
        <ele>709</ele>
        <time>1970-01-01T01:52:43.000Z</time>
      </trkpt>
      <trkpt lat="40.376798" lon="-3.365141">
        <ele>709.2</ele>
        <time>1970-01-01T01:52:44.000Z</time>
      </trkpt>
      <trkpt lat="40.376812" lon="-3.365123">
        <ele>709.2</ele>
        <time>1970-01-01T01:52:45.000Z</time>
      </trkpt>
      <trkpt lat="40.376824" lon="-3.365106">
        <ele>709.6</ele>
        <time>1970-01-01T01:52:46.000Z</time>
      </trkpt>
      <trkpt lat="40.376835" lon="-3.365087">
        <ele>710</ele>
        <time>1970-01-01T01:52:47.000Z</time>
      </trkpt>
      <trkpt lat="40.376847" lon="-3.36507">
        <ele>710.2</ele>
        <time>1970-01-01T01:52:48.000Z</time>
      </trkpt>
      <trkpt lat="40.376862" lon="-3.365053">
        <ele>710.4</ele>
        <time>1970-01-01T01:52:49.000Z</time>
      </trkpt>
      <trkpt lat="40.376877" lon="-3.365038">
        <ele>710.4</ele>
        <time>1970-01-01T01:52:50.000Z</time>
      </trkpt>
      <trkpt lat="40.376889" lon="-3.365025">
        <ele>710.6</ele>
        <time>1970-01-01T01:52:51.000Z</time>
      </trkpt>
      <trkpt lat="40.376897" lon="-3.365008">
        <ele>710.6</ele>
        <time>1970-01-01T01:52:52.000Z</time>
      </trkpt>
      <trkpt lat="40.376905" lon="-3.364991">
        <ele>710.8</ele>
        <time>1970-01-01T01:52:53.000Z</time>
      </trkpt>
      <trkpt lat="40.376914" lon="-3.36498">
        <ele>711</ele>
        <time>1970-01-01T01:52:54.000Z</time>
      </trkpt>
      <trkpt lat="40.376932" lon="-3.364968">
        <ele>711.2</ele>
        <time>1970-01-01T01:52:55.000Z</time>
      </trkpt>
      <trkpt lat="40.376946" lon="-3.364961">
        <ele>711.4</ele>
        <time>1970-01-01T01:52:56.000Z</time>
      </trkpt>
      <trkpt lat="40.376958" lon="-3.364958">
        <ele>711.4</ele>
        <time>1970-01-01T01:52:57.000Z</time>
      </trkpt>
      <trkpt lat="40.376961" lon="-3.36496">
        <ele>711.6</ele>
        <time>1970-01-01T01:52:58.000Z</time>
      </trkpt>
      <trkpt lat="40.376961" lon="-3.364957">
        <ele>711.8</ele>
        <time>1970-01-01T01:52:59.000Z</time>
      </trkpt>
      <trkpt lat="40.376959" lon="-3.364953">
        <ele>712</ele>
        <time>1970-01-01T01:53:00.000Z</time>
      </trkpt>
      <trkpt lat="40.376961" lon="-3.364954">
        <ele>712.2</ele>
        <time>1970-01-01T01:53:01.000Z</time>
      </trkpt>
      <trkpt lat="40.37697" lon="-3.364949">
        <ele>712.4</ele>
        <time>1970-01-01T01:53:02.000Z</time>
      </trkpt>
      <trkpt lat="40.376975" lon="-3.364947">
        <ele>712.4</ele>
        <time>1970-01-01T01:53:03.000Z</time>
      </trkpt>
      <trkpt lat="40.37698" lon="-3.364947">
        <ele>712.6</ele>
        <time>1970-01-01T01:53:04.000Z</time>
      </trkpt>
      <trkpt lat="40.376989" lon="-3.36494">
        <ele>712.6</ele>
        <time>1970-01-01T01:53:05.000Z</time>
      </trkpt>
      <trkpt lat="40.377004" lon="-3.36493">
        <ele>712.6</ele>
        <time>1970-01-01T01:53:06.000Z</time>
      </trkpt>
      <trkpt lat="40.377019" lon="-3.364916">
        <ele>712.6</ele>
        <time>1970-01-01T01:53:07.000Z</time>
      </trkpt>
      <trkpt lat="40.377035" lon="-3.364902">
        <ele>712.6</ele>
        <time>1970-01-01T01:53:08.000Z</time>
      </trkpt>
      <trkpt lat="40.377052" lon="-3.364893">
        <ele>713</ele>
        <time>1970-01-01T01:53:09.000Z</time>
      </trkpt>
      <trkpt lat="40.377062" lon="-3.364875">
        <ele>713</ele>
        <time>1970-01-01T01:53:10.000Z</time>
      </trkpt>
      <trkpt lat="40.377065" lon="-3.364852">
        <ele>713.2</ele>
        <time>1970-01-01T01:53:11.000Z</time>
      </trkpt>
      <trkpt lat="40.377063" lon="-3.364829">
        <ele>713.2</ele>
        <time>1970-01-01T01:53:12.000Z</time>
      </trkpt>
      <trkpt lat="40.377061" lon="-3.364804">
        <ele>713.4</ele>
        <time>1970-01-01T01:53:13.000Z</time>
      </trkpt>
      <trkpt lat="40.377069" lon="-3.364782">
        <ele>713.6</ele>
        <time>1970-01-01T01:53:14.000Z</time>
      </trkpt>
      <trkpt lat="40.377084" lon="-3.36476">
        <ele>713.6</ele>
        <time>1970-01-01T01:53:15.000Z</time>
      </trkpt>
      <trkpt lat="40.3771" lon="-3.364742">
        <ele>713.8</ele>
        <time>1970-01-01T01:53:16.000Z</time>
      </trkpt>
      <trkpt lat="40.377113" lon="-3.364727">
        <ele>714</ele>
        <time>1970-01-01T01:53:17.000Z</time>
      </trkpt>
      <trkpt lat="40.377128" lon="-3.364716">
        <ele>714.2</ele>
        <time>1970-01-01T01:53:18.000Z</time>
      </trkpt>
      <trkpt lat="40.377144" lon="-3.364708">
        <ele>714</ele>
        <time>1970-01-01T01:53:19.000Z</time>
      </trkpt>
      <trkpt lat="40.377164" lon="-3.364696">
        <ele>714.4</ele>
        <time>1970-01-01T01:53:20.000Z</time>
      </trkpt>
      <trkpt lat="40.377183" lon="-3.36468">
        <ele>714.8</ele>
        <time>1970-01-01T01:53:21.000Z</time>
      </trkpt>
      <trkpt lat="40.377199" lon="-3.36467">
        <ele>714.8</ele>
        <time>1970-01-01T01:53:22.000Z</time>
      </trkpt>
      <trkpt lat="40.377205" lon="-3.364665">
        <ele>715.2</ele>
        <time>1970-01-01T01:53:23.000Z</time>
      </trkpt>
      <trkpt lat="40.377205" lon="-3.364665">
        <ele>715.2</ele>
        <time>1970-01-01T01:53:24.000Z</time>
      </trkpt>
      <trkpt lat="40.377203" lon="-3.364661">
        <ele>715.6</ele>
        <time>1970-01-01T01:53:25.000Z</time>
      </trkpt>
      <trkpt lat="40.377266" lon="-3.364519">
        <ele>716.8</ele>
        <time>1970-01-01T01:54:11.000Z</time>
      </trkpt>
      <trkpt lat="40.377267" lon="-3.364502">
        <ele>716.8</ele>
        <time>1970-01-01T01:54:12.000Z</time>
      </trkpt>
      <trkpt lat="40.377264" lon="-3.364488">
        <ele>716.8</ele>
        <time>1970-01-01T01:54:13.000Z</time>
      </trkpt>
      <trkpt lat="40.377262" lon="-3.364477">
        <ele>717</ele>
        <time>1970-01-01T01:54:14.000Z</time>
      </trkpt>
      <trkpt lat="40.377261" lon="-3.36447">
        <ele>717</ele>
        <time>1970-01-01T01:54:15.000Z</time>
      </trkpt>
      <trkpt lat="40.377262" lon="-3.364469">
        <ele>717</ele>
        <time>1970-01-01T01:54:16.000Z</time>
      </trkpt>
      <trkpt lat="40.37728" lon="-3.364406">
        <ele>717.4</ele>
        <time>1970-01-01T01:54:22.000Z</time>
      </trkpt>
      <trkpt lat="40.377289" lon="-3.364392">
        <ele>717.4</ele>
        <time>1970-01-01T01:54:23.000Z</time>
      </trkpt>
      <trkpt lat="40.377302" lon="-3.364381">
        <ele>717.4</ele>
        <time>1970-01-01T01:54:24.000Z</time>
      </trkpt>
      <trkpt lat="40.377318" lon="-3.364365">
        <ele>717.4</ele>
        <time>1970-01-01T01:54:25.000Z</time>
      </trkpt>
      <trkpt lat="40.377339" lon="-3.364344">
        <ele>717.6</ele>
        <time>1970-01-01T01:54:26.000Z</time>
      </trkpt>
      <trkpt lat="40.377356" lon="-3.364324">
        <ele>717.6</ele>
        <time>1970-01-01T01:54:27.000Z</time>
      </trkpt>
      <trkpt lat="40.37737" lon="-3.364308">
        <ele>717.8</ele>
        <time>1970-01-01T01:54:28.000Z</time>
      </trkpt>
      <trkpt lat="40.377381" lon="-3.364289">
        <ele>718</ele>
        <time>1970-01-01T01:54:29.000Z</time>
      </trkpt>
      <trkpt lat="40.377388" lon="-3.364273">
        <ele>718</ele>
        <time>1970-01-01T01:54:30.000Z</time>
      </trkpt>
      <trkpt lat="40.377397" lon="-3.364251">
        <ele>718.6</ele>
        <time>1970-01-01T01:54:31.000Z</time>
      </trkpt>
      <trkpt lat="40.377409" lon="-3.364224">
        <ele>719</ele>
        <time>1970-01-01T01:54:32.000Z</time>
      </trkpt>
      <trkpt lat="40.37742" lon="-3.364195">
        <ele>719.6</ele>
        <time>1970-01-01T01:54:33.000Z</time>
      </trkpt>
      <trkpt lat="40.377429" lon="-3.364169">
        <ele>719.8</ele>
        <time>1970-01-01T01:54:34.000Z</time>
      </trkpt>
      <trkpt lat="40.377439" lon="-3.364149">
        <ele>720.2</ele>
        <time>1970-01-01T01:54:35.000Z</time>
      </trkpt>
      <trkpt lat="40.377451" lon="-3.36413">
        <ele>720.2</ele>
        <time>1970-01-01T01:54:36.000Z</time>
      </trkpt>
      <trkpt lat="40.377463" lon="-3.364115">
        <ele>720.4</ele>
        <time>1970-01-01T01:54:37.000Z</time>
      </trkpt>
      <trkpt lat="40.377475" lon="-3.3641">
        <ele>720.8</ele>
        <time>1970-01-01T01:54:38.000Z</time>
      </trkpt>
      <trkpt lat="40.377485" lon="-3.364084">
        <ele>721</ele>
        <time>1970-01-01T01:54:39.000Z</time>
      </trkpt>
      <trkpt lat="40.377491" lon="-3.364068">
        <ele>721.4</ele>
        <time>1970-01-01T01:54:40.000Z</time>
      </trkpt>
      <trkpt lat="40.377497" lon="-3.364051">
        <ele>721.6</ele>
        <time>1970-01-01T01:54:41.000Z</time>
      </trkpt>
      <trkpt lat="40.377502" lon="-3.364032">
        <ele>722</ele>
        <time>1970-01-01T01:54:42.000Z</time>
      </trkpt>
      <trkpt lat="40.377513" lon="-3.364017">
        <ele>722.4</ele>
        <time>1970-01-01T01:54:43.000Z</time>
      </trkpt>
      <trkpt lat="40.377524" lon="-3.364002">
        <ele>723</ele>
        <time>1970-01-01T01:54:44.000Z</time>
      </trkpt>
      <trkpt lat="40.377531" lon="-3.363983">
        <ele>723.2</ele>
        <time>1970-01-01T01:54:45.000Z</time>
      </trkpt>
      <trkpt lat="40.377536" lon="-3.36396">
        <ele>723.6</ele>
        <time>1970-01-01T01:54:46.000Z</time>
      </trkpt>
      <trkpt lat="40.377544" lon="-3.363935">
        <ele>723.6</ele>
        <time>1970-01-01T01:54:47.000Z</time>
      </trkpt>
      <trkpt lat="40.37755" lon="-3.363908">
        <ele>723.8</ele>
        <time>1970-01-01T01:54:48.000Z</time>
      </trkpt>
      <trkpt lat="40.377555" lon="-3.363884">
        <ele>724</ele>
        <time>1970-01-01T01:54:49.000Z</time>
      </trkpt>
      <trkpt lat="40.377565" lon="-3.363861">
        <ele>724</ele>
        <time>1970-01-01T01:54:50.000Z</time>
      </trkpt>
      <trkpt lat="40.377578" lon="-3.363835">
        <ele>724.4</ele>
        <time>1970-01-01T01:54:51.000Z</time>
      </trkpt>
      <trkpt lat="40.377593" lon="-3.363811">
        <ele>724.4</ele>
        <time>1970-01-01T01:54:52.000Z</time>
      </trkpt>
      <trkpt lat="40.377607" lon="-3.363794">
        <ele>724.8</ele>
        <time>1970-01-01T01:54:53.000Z</time>
      </trkpt>
      <trkpt lat="40.37762" lon="-3.363775">
        <ele>724.8</ele>
        <time>1970-01-01T01:54:54.000Z</time>
      </trkpt>
      <trkpt lat="40.377637" lon="-3.363758">
        <ele>725</ele>
        <time>1970-01-01T01:54:55.000Z</time>
      </trkpt>
      <trkpt lat="40.377653" lon="-3.363742">
        <ele>725</ele>
        <time>1970-01-01T01:54:56.000Z</time>
      </trkpt>
      <trkpt lat="40.377668" lon="-3.363726">
        <ele>725.2</ele>
        <time>1970-01-01T01:54:57.000Z</time>
      </trkpt>
      <trkpt lat="40.377684" lon="-3.36371">
        <ele>725.6</ele>
        <time>1970-01-01T01:54:58.000Z</time>
      </trkpt>
      <trkpt lat="40.377698" lon="-3.363694">
        <ele>725.8</ele>
        <time>1970-01-01T01:54:59.000Z</time>
      </trkpt>
      <trkpt lat="40.377716" lon="-3.363679">
        <ele>726</ele>
        <time>1970-01-01T01:55:00.000Z</time>
      </trkpt>
      <trkpt lat="40.377731" lon="-3.363672">
        <ele>726</ele>
        <time>1970-01-01T01:55:01.000Z</time>
      </trkpt>
      <trkpt lat="40.377745" lon="-3.363671">
        <ele>726.4</ele>
        <time>1970-01-01T01:55:02.000Z</time>
      </trkpt>
      <trkpt lat="40.377764" lon="-3.363678">
        <ele>726.6</ele>
        <time>1970-01-01T01:55:03.000Z</time>
      </trkpt>
      <trkpt lat="40.377785" lon="-3.363684">
        <ele>727.2</ele>
        <time>1970-01-01T01:55:04.000Z</time>
      </trkpt>
      <trkpt lat="40.377804" lon="-3.363699">
        <ele>727.4</ele>
        <time>1970-01-01T01:55:05.000Z</time>
      </trkpt>
      <trkpt lat="40.377821" lon="-3.363718">
        <ele>727.4</ele>
        <time>1970-01-01T01:55:06.000Z</time>
      </trkpt>
      <trkpt lat="40.377836" lon="-3.363736">
        <ele>727.8</ele>
        <time>1970-01-01T01:55:07.000Z</time>
      </trkpt>
      <trkpt lat="40.377849" lon="-3.363748">
        <ele>727.8</ele>
        <time>1970-01-01T01:55:08.000Z</time>
      </trkpt>
      <trkpt lat="40.377863" lon="-3.363753">
        <ele>728</ele>
        <time>1970-01-01T01:55:09.000Z</time>
      </trkpt>
      <trkpt lat="40.377877" lon="-3.363754">
        <ele>728.2</ele>
        <time>1970-01-01T01:55:10.000Z</time>
      </trkpt>
      <trkpt lat="40.377892" lon="-3.363749">
        <ele>728.4</ele>
        <time>1970-01-01T01:55:11.000Z</time>
      </trkpt>
      <trkpt lat="40.37791" lon="-3.363741">
        <ele>728.4</ele>
        <time>1970-01-01T01:55:12.000Z</time>
      </trkpt>
      <trkpt lat="40.377933" lon="-3.363736">
        <ele>729</ele>
        <time>1970-01-01T01:55:13.000Z</time>
      </trkpt>
      <trkpt lat="40.377954" lon="-3.363737">
        <ele>729.2</ele>
        <time>1970-01-01T01:55:14.000Z</time>
      </trkpt>
      <trkpt lat="40.377975" lon="-3.363739">
        <ele>729.4</ele>
        <time>1970-01-01T01:55:15.000Z</time>
      </trkpt>
      <trkpt lat="40.377996" lon="-3.363731">
        <ele>729.6</ele>
        <time>1970-01-01T01:55:16.000Z</time>
      </trkpt>
      <trkpt lat="40.378019" lon="-3.363712">
        <ele>729.8</ele>
        <time>1970-01-01T01:55:17.000Z</time>
      </trkpt>
      <trkpt lat="40.378048" lon="-3.363686">
        <ele>729.8</ele>
        <time>1970-01-01T01:55:18.000Z</time>
      </trkpt>
      <trkpt lat="40.37807" lon="-3.363656">
        <ele>730</ele>
        <time>1970-01-01T01:55:19.000Z</time>
      </trkpt>
      <trkpt lat="40.378093" lon="-3.363638">
        <ele>730</ele>
        <time>1970-01-01T01:55:20.000Z</time>
      </trkpt>
      <trkpt lat="40.378114" lon="-3.363629">
        <ele>730.2</ele>
        <time>1970-01-01T01:55:21.000Z</time>
      </trkpt>
      <trkpt lat="40.37813" lon="-3.36362">
        <ele>730.2</ele>
        <time>1970-01-01T01:55:22.000Z</time>
      </trkpt>
      <trkpt lat="40.378144" lon="-3.363619">
        <ele>730.8</ele>
        <time>1970-01-01T01:55:23.000Z</time>
      </trkpt>
      <trkpt lat="40.378158" lon="-3.36362">
        <ele>731</ele>
        <time>1970-01-01T01:55:24.000Z</time>
      </trkpt>
      <trkpt lat="40.378172" lon="-3.36362">
        <ele>732</ele>
        <time>1970-01-01T01:55:25.000Z</time>
      </trkpt>
      <trkpt lat="40.378188" lon="-3.363622">
        <ele>732.2</ele>
        <time>1970-01-01T01:55:26.000Z</time>
      </trkpt>
      <trkpt lat="40.378202" lon="-3.363625">
        <ele>733</ele>
        <time>1970-01-01T01:55:27.000Z</time>
      </trkpt>
      <trkpt lat="40.37822" lon="-3.363628">
        <ele>733.2</ele>
        <time>1970-01-01T01:55:28.000Z</time>
      </trkpt>
      <trkpt lat="40.378236" lon="-3.363626">
        <ele>733.4</ele>
        <time>1970-01-01T01:55:29.000Z</time>
      </trkpt>
      <trkpt lat="40.378255" lon="-3.363621">
        <ele>733.8</ele>
        <time>1970-01-01T01:55:30.000Z</time>
      </trkpt>
      <trkpt lat="40.378273" lon="-3.363615">
        <ele>734</ele>
        <time>1970-01-01T01:55:31.000Z</time>
      </trkpt>
      <trkpt lat="40.378291" lon="-3.363605">
        <ele>734.4</ele>
        <time>1970-01-01T01:55:32.000Z</time>
      </trkpt>
      <trkpt lat="40.378308" lon="-3.363598">
        <ele>734.4</ele>
        <time>1970-01-01T01:55:33.000Z</time>
      </trkpt>
      <trkpt lat="40.378326" lon="-3.363592">
        <ele>734.6</ele>
        <time>1970-01-01T01:55:34.000Z</time>
      </trkpt>
      <trkpt lat="40.378348" lon="-3.363592">
        <ele>734.8</ele>
        <time>1970-01-01T01:55:35.000Z</time>
      </trkpt>
      <trkpt lat="40.378377" lon="-3.363594">
        <ele>735.2</ele>
        <time>1970-01-01T01:55:36.000Z</time>
      </trkpt>
      <trkpt lat="40.378409" lon="-3.363592">
        <ele>735</ele>
        <time>1970-01-01T01:55:37.000Z</time>
      </trkpt>
      <trkpt lat="40.378436" lon="-3.363581">
        <ele>735.2</ele>
        <time>1970-01-01T01:55:38.000Z</time>
      </trkpt>
      <trkpt lat="40.37846" lon="-3.363568">
        <ele>735.2</ele>
        <time>1970-01-01T01:55:39.000Z</time>
      </trkpt>
      <trkpt lat="40.378485" lon="-3.363553">
        <ele>735.4</ele>
        <time>1970-01-01T01:55:40.000Z</time>
      </trkpt>
      <trkpt lat="40.378507" lon="-3.363532">
        <ele>735.2</ele>
        <time>1970-01-01T01:55:41.000Z</time>
      </trkpt>
      <trkpt lat="40.37853" lon="-3.363515">
        <ele>735.4</ele>
        <time>1970-01-01T01:55:42.000Z</time>
      </trkpt>
      <trkpt lat="40.378552" lon="-3.363503">
        <ele>735.4</ele>
        <time>1970-01-01T01:55:43.000Z</time>
      </trkpt>
      <trkpt lat="40.378568" lon="-3.363491">
        <ele>735.4</ele>
        <time>1970-01-01T01:55:44.000Z</time>
      </trkpt>
      <trkpt lat="40.378593" lon="-3.363474">
        <ele>735.4</ele>
        <time>1970-01-01T01:55:45.000Z</time>
      </trkpt>
      <trkpt lat="40.37861" lon="-3.363461">
        <ele>735.6</ele>
        <time>1970-01-01T01:55:46.000Z</time>
      </trkpt>
      <trkpt lat="40.37863" lon="-3.36345">
        <ele>735.6</ele>
        <time>1970-01-01T01:55:47.000Z</time>
      </trkpt>
      <trkpt lat="40.37865" lon="-3.363441">
        <ele>735.8</ele>
        <time>1970-01-01T01:55:48.000Z</time>
      </trkpt>
      <trkpt lat="40.378668" lon="-3.363432">
        <ele>736</ele>
        <time>1970-01-01T01:55:49.000Z</time>
      </trkpt>
      <trkpt lat="40.378683" lon="-3.363418">
        <ele>736.2</ele>
        <time>1970-01-01T01:55:50.000Z</time>
      </trkpt>
      <trkpt lat="40.378694" lon="-3.363399">
        <ele>736.4</ele>
        <time>1970-01-01T01:55:51.000Z</time>
      </trkpt>
      <trkpt lat="40.378704" lon="-3.36338">
        <ele>736.6</ele>
        <time>1970-01-01T01:55:52.000Z</time>
      </trkpt>
      <trkpt lat="40.378712" lon="-3.363362">
        <ele>736.8</ele>
        <time>1970-01-01T01:55:53.000Z</time>
      </trkpt>
      <trkpt lat="40.378722" lon="-3.363339">
        <ele>737.2</ele>
        <time>1970-01-01T01:55:54.000Z</time>
      </trkpt>
      <trkpt lat="40.378734" lon="-3.363317">
        <ele>737.6</ele>
        <time>1970-01-01T01:55:55.000Z</time>
      </trkpt>
      <trkpt lat="40.378745" lon="-3.363293">
        <ele>738</ele>
        <time>1970-01-01T01:55:56.000Z</time>
      </trkpt>
      <trkpt lat="40.378759" lon="-3.363271">
        <ele>738.2</ele>
        <time>1970-01-01T01:55:57.000Z</time>
      </trkpt>
      <trkpt lat="40.378779" lon="-3.363252">
        <ele>738.4</ele>
        <time>1970-01-01T01:55:58.000Z</time>
      </trkpt>
      <trkpt lat="40.378797" lon="-3.363242">
        <ele>738.4</ele>
        <time>1970-01-01T01:55:59.000Z</time>
      </trkpt>
      <trkpt lat="40.378823" lon="-3.36323">
        <ele>738.4</ele>
        <time>1970-01-01T01:56:00.000Z</time>
      </trkpt>
      <trkpt lat="40.378843" lon="-3.363223">
        <ele>738.6</ele>
        <time>1970-01-01T01:56:01.000Z</time>
      </trkpt>
      <trkpt lat="40.37886" lon="-3.363212">
        <ele>738.6</ele>
        <time>1970-01-01T01:56:02.000Z</time>
      </trkpt>
      <trkpt lat="40.378874" lon="-3.363196">
        <ele>738.8</ele>
        <time>1970-01-01T01:56:03.000Z</time>
      </trkpt>
      <trkpt lat="40.378892" lon="-3.363177">
        <ele>739</ele>
        <time>1970-01-01T01:56:04.000Z</time>
      </trkpt>
      <trkpt lat="40.378914" lon="-3.363148">
        <ele>739.4</ele>
        <time>1970-01-01T01:56:05.000Z</time>
      </trkpt>
      <trkpt lat="40.37894" lon="-3.363122">
        <ele>739.8</ele>
        <time>1970-01-01T01:56:06.000Z</time>
      </trkpt>
      <trkpt lat="40.378968" lon="-3.363093">
        <ele>739.8</ele>
        <time>1970-01-01T01:56:07.000Z</time>
      </trkpt>
      <trkpt lat="40.378994" lon="-3.363062">
        <ele>740.2</ele>
        <time>1970-01-01T01:56:08.000Z</time>
      </trkpt>
      <trkpt lat="40.379012" lon="-3.363028">
        <ele>740.2</ele>
        <time>1970-01-01T01:56:09.000Z</time>
      </trkpt>
      <trkpt lat="40.379026" lon="-3.362995">
        <ele>740.4</ele>
        <time>1970-01-01T01:56:10.000Z</time>
      </trkpt>
      <trkpt lat="40.379041" lon="-3.362965">
        <ele>740.6</ele>
        <time>1970-01-01T01:56:11.000Z</time>
      </trkpt>
      <trkpt lat="40.379058" lon="-3.362937">
        <ele>740.8</ele>
        <time>1970-01-01T01:56:12.000Z</time>
      </trkpt>
      <trkpt lat="40.379074" lon="-3.362911">
        <ele>740.8</ele>
        <time>1970-01-01T01:56:13.000Z</time>
      </trkpt>
      <trkpt lat="40.379095" lon="-3.362883">
        <ele>741.2</ele>
        <time>1970-01-01T01:56:14.000Z</time>
      </trkpt>
      <trkpt lat="40.379119" lon="-3.362854">
        <ele>741.6</ele>
        <time>1970-01-01T01:56:15.000Z</time>
      </trkpt>
      <trkpt lat="40.379139" lon="-3.362832">
        <ele>741.6</ele>
        <time>1970-01-01T01:56:16.000Z</time>
      </trkpt>
      <trkpt lat="40.379158" lon="-3.362811">
        <ele>741.8</ele>
        <time>1970-01-01T01:56:17.000Z</time>
      </trkpt>
      <trkpt lat="40.379173" lon="-3.362796">
        <ele>741.8</ele>
        <time>1970-01-01T01:56:18.000Z</time>
      </trkpt>
      <trkpt lat="40.379191" lon="-3.362777">
        <ele>742</ele>
        <time>1970-01-01T01:56:19.000Z</time>
      </trkpt>
      <trkpt lat="40.379212" lon="-3.362754">
        <ele>742</ele>
        <time>1970-01-01T01:56:20.000Z</time>
      </trkpt>
      <trkpt lat="40.379229" lon="-3.362731">
        <ele>742.2</ele>
        <time>1970-01-01T01:56:21.000Z</time>
      </trkpt>
      <trkpt lat="40.379245" lon="-3.362708">
        <ele>742.2</ele>
        <time>1970-01-01T01:56:22.000Z</time>
      </trkpt>
      <trkpt lat="40.379254" lon="-3.362691">
        <ele>742.4</ele>
        <time>1970-01-01T01:56:23.000Z</time>
      </trkpt>
      <trkpt lat="40.379267" lon="-3.362662">
        <ele>742.6</ele>
        <time>1970-01-01T01:56:24.000Z</time>
      </trkpt>
      <trkpt lat="40.37928" lon="-3.362641">
        <ele>742.4</ele>
        <time>1970-01-01T01:56:25.000Z</time>
      </trkpt>
      <trkpt lat="40.379291" lon="-3.36262">
        <ele>742.8</ele>
        <time>1970-01-01T01:56:26.000Z</time>
      </trkpt>
      <trkpt lat="40.379304" lon="-3.3626">
        <ele>743</ele>
        <time>1970-01-01T01:56:27.000Z</time>
      </trkpt>
      <trkpt lat="40.37932" lon="-3.362584">
        <ele>743.4</ele>
        <time>1970-01-01T01:56:28.000Z</time>
      </trkpt>
      <trkpt lat="40.379341" lon="-3.362563">
        <ele>743.4</ele>
        <time>1970-01-01T01:56:29.000Z</time>
      </trkpt>
      <trkpt lat="40.37936" lon="-3.362524">
        <ele>743.6</ele>
        <time>1970-01-01T01:56:30.000Z</time>
      </trkpt>
      <trkpt lat="40.379368" lon="-3.362488">
        <ele>743.8</ele>
        <time>1970-01-01T01:56:31.000Z</time>
      </trkpt>
      <trkpt lat="40.379374" lon="-3.362458">
        <ele>743.8</ele>
        <time>1970-01-01T01:56:32.000Z</time>
      </trkpt>
      <trkpt lat="40.379379" lon="-3.362431">
        <ele>744</ele>
        <time>1970-01-01T01:56:33.000Z</time>
      </trkpt>
      <trkpt lat="40.379388" lon="-3.362407">
        <ele>744</ele>
        <time>1970-01-01T01:56:34.000Z</time>
      </trkpt>
      <trkpt lat="40.379402" lon="-3.362383">
        <ele>744.2</ele>
        <time>1970-01-01T01:56:35.000Z</time>
      </trkpt>
      <trkpt lat="40.379416" lon="-3.36236">
        <ele>744.4</ele>
        <time>1970-01-01T01:56:36.000Z</time>
      </trkpt>
      <trkpt lat="40.379429" lon="-3.362338">
        <ele>744.6</ele>
        <time>1970-01-01T01:56:37.000Z</time>
      </trkpt>
      <trkpt lat="40.379442" lon="-3.362317">
        <ele>744.6</ele>
        <time>1970-01-01T01:56:38.000Z</time>
      </trkpt>
      <trkpt lat="40.379456" lon="-3.362298">
        <ele>744.6</ele>
        <time>1970-01-01T01:56:39.000Z</time>
      </trkpt>
      <trkpt lat="40.379474" lon="-3.362274">
        <ele>745</ele>
        <time>1970-01-01T01:56:40.000Z</time>
      </trkpt>
      <trkpt lat="40.379496" lon="-3.362248">
        <ele>745</ele>
        <time>1970-01-01T01:56:41.000Z</time>
      </trkpt>
      <trkpt lat="40.379519" lon="-3.362218">
        <ele>745.4</ele>
        <time>1970-01-01T01:56:42.000Z</time>
      </trkpt>
      <trkpt lat="40.379537" lon="-3.362186">
        <ele>745.4</ele>
        <time>1970-01-01T01:56:43.000Z</time>
      </trkpt>
      <trkpt lat="40.379552" lon="-3.362154">
        <ele>745.6</ele>
        <time>1970-01-01T01:56:44.000Z</time>
      </trkpt>
      <trkpt lat="40.379565" lon="-3.362121">
        <ele>745.8</ele>
        <time>1970-01-01T01:56:45.000Z</time>
      </trkpt>
      <trkpt lat="40.379575" lon="-3.362082">
        <ele>746</ele>
        <time>1970-01-01T01:56:46.000Z</time>
      </trkpt>
      <trkpt lat="40.37958" lon="-3.362038">
        <ele>746</ele>
        <time>1970-01-01T01:56:47.000Z</time>
      </trkpt>
      <trkpt lat="40.379587" lon="-3.361997">
        <ele>746.4</ele>
        <time>1970-01-01T01:56:48.000Z</time>
      </trkpt>
      <trkpt lat="40.379604" lon="-3.361958">
        <ele>746.6</ele>
        <time>1970-01-01T01:56:49.000Z</time>
      </trkpt>
      <trkpt lat="40.379628" lon="-3.361922">
        <ele>746.8</ele>
        <time>1970-01-01T01:56:50.000Z</time>
      </trkpt>
      <trkpt lat="40.379659" lon="-3.361893">
        <ele>747</ele>
        <time>1970-01-01T01:56:51.000Z</time>
      </trkpt>
      <trkpt lat="40.379693" lon="-3.361871">
        <ele>747.2</ele>
        <time>1970-01-01T01:56:52.000Z</time>
      </trkpt>
      <trkpt lat="40.379729" lon="-3.361852">
        <ele>747.4</ele>
        <time>1970-01-01T01:56:53.000Z</time>
      </trkpt>
      <trkpt lat="40.379763" lon="-3.361825">
        <ele>747.6</ele>
        <time>1970-01-01T01:56:54.000Z</time>
      </trkpt>
      <trkpt lat="40.379791" lon="-3.361787">
        <ele>747.8</ele>
        <time>1970-01-01T01:56:55.000Z</time>
      </trkpt>
      <trkpt lat="40.379802" lon="-3.361743">
        <ele>747.8</ele>
        <time>1970-01-01T01:56:56.000Z</time>
      </trkpt>
      <trkpt lat="40.379799" lon="-3.361697">
        <ele>748.2</ele>
        <time>1970-01-01T01:56:57.000Z</time>
      </trkpt>
      <trkpt lat="40.379795" lon="-3.361651">
        <ele>748.4</ele>
        <time>1970-01-01T01:56:58.000Z</time>
      </trkpt>
      <trkpt lat="40.379796" lon="-3.361607">
        <ele>748.4</ele>
        <time>1970-01-01T01:56:59.000Z</time>
      </trkpt>
      <trkpt lat="40.37981" lon="-3.361575">
        <ele>748.6</ele>
        <time>1970-01-01T01:57:00.000Z</time>
      </trkpt>
      <trkpt lat="40.379831" lon="-3.36156">
        <ele>748.8</ele>
        <time>1970-01-01T01:57:01.000Z</time>
      </trkpt>
      <trkpt lat="40.379854" lon="-3.361554">
        <ele>749</ele>
        <time>1970-01-01T01:57:02.000Z</time>
      </trkpt>
      <trkpt lat="40.379882" lon="-3.361556">
        <ele>749.2</ele>
        <time>1970-01-01T01:57:03.000Z</time>
      </trkpt>
      <trkpt lat="40.379912" lon="-3.361559">
        <ele>749.4</ele>
        <time>1970-01-01T01:57:04.000Z</time>
      </trkpt>
      <trkpt lat="40.379941" lon="-3.361561">
        <ele>749.2</ele>
        <time>1970-01-01T01:57:05.000Z</time>
      </trkpt>
      <trkpt lat="40.379967" lon="-3.361556">
        <ele>749.8</ele>
        <time>1970-01-01T01:57:06.000Z</time>
      </trkpt>
      <trkpt lat="40.379989" lon="-3.361547">
        <ele>749.8</ele>
        <time>1970-01-01T01:57:07.000Z</time>
      </trkpt>
      <trkpt lat="40.380008" lon="-3.361532">
        <ele>750.2</ele>
        <time>1970-01-01T01:57:08.000Z</time>
      </trkpt>
      <trkpt lat="40.380024" lon="-3.361514">
        <ele>750.6</ele>
        <time>1970-01-01T01:57:09.000Z</time>
      </trkpt>
      <trkpt lat="40.380038" lon="-3.361496">
        <ele>751</ele>
        <time>1970-01-01T01:57:10.000Z</time>
      </trkpt>
      <trkpt lat="40.380048" lon="-3.361477">
        <ele>751.4</ele>
        <time>1970-01-01T01:57:11.000Z</time>
      </trkpt>
      <trkpt lat="40.380058" lon="-3.36146">
        <ele>751.6</ele>
        <time>1970-01-01T01:57:12.000Z</time>
      </trkpt>
      <trkpt lat="40.380073" lon="-3.361447">
        <ele>752</ele>
        <time>1970-01-01T01:57:13.000Z</time>
      </trkpt>
      <trkpt lat="40.38009" lon="-3.361435">
        <ele>752.2</ele>
        <time>1970-01-01T01:57:14.000Z</time>
      </trkpt>
      <trkpt lat="40.380107" lon="-3.361423">
        <ele>752.6</ele>
        <time>1970-01-01T01:57:15.000Z</time>
      </trkpt>
      <trkpt lat="40.380124" lon="-3.361411">
        <ele>752.8</ele>
        <time>1970-01-01T01:57:16.000Z</time>
      </trkpt>
      <trkpt lat="40.380139" lon="-3.361396">
        <ele>753</ele>
        <time>1970-01-01T01:57:17.000Z</time>
      </trkpt>
      <trkpt lat="40.380157" lon="-3.361384">
        <ele>753.2</ele>
        <time>1970-01-01T01:57:18.000Z</time>
      </trkpt>
      <trkpt lat="40.380177" lon="-3.361381">
        <ele>753.4</ele>
        <time>1970-01-01T01:57:19.000Z</time>
      </trkpt>
      <trkpt lat="40.380197" lon="-3.361382">
        <ele>753.6</ele>
        <time>1970-01-01T01:57:20.000Z</time>
      </trkpt>
      <trkpt lat="40.380218" lon="-3.361383">
        <ele>753.8</ele>
        <time>1970-01-01T01:57:21.000Z</time>
      </trkpt>
      <trkpt lat="40.380238" lon="-3.361389">
        <ele>754</ele>
        <time>1970-01-01T01:57:22.000Z</time>
      </trkpt>
      <trkpt lat="40.380257" lon="-3.361404">
        <ele>754.2</ele>
        <time>1970-01-01T01:57:23.000Z</time>
      </trkpt>
      <trkpt lat="40.380277" lon="-3.361426">
        <ele>754.2</ele>
        <time>1970-01-01T01:57:24.000Z</time>
      </trkpt>
      <trkpt lat="40.380291" lon="-3.361443">
        <ele>754.4</ele>
        <time>1970-01-01T01:57:25.000Z</time>
      </trkpt>
      <trkpt lat="40.380303" lon="-3.361457">
        <ele>754.4</ele>
        <time>1970-01-01T01:57:26.000Z</time>
      </trkpt>
      <trkpt lat="40.380317" lon="-3.361469">
        <ele>754.8</ele>
        <time>1970-01-01T01:57:27.000Z</time>
      </trkpt>
      <trkpt lat="40.380335" lon="-3.361479">
        <ele>755</ele>
        <time>1970-01-01T01:57:28.000Z</time>
      </trkpt>
      <trkpt lat="40.380353" lon="-3.361488">
        <ele>755.6</ele>
        <time>1970-01-01T01:57:29.000Z</time>
      </trkpt>
      <trkpt lat="40.380375" lon="-3.361495">
        <ele>755.8</ele>
        <time>1970-01-01T01:57:30.000Z</time>
      </trkpt>
      <trkpt lat="40.380396" lon="-3.3615">
        <ele>756.2</ele>
        <time>1970-01-01T01:57:31.000Z</time>
      </trkpt>
      <trkpt lat="40.380412" lon="-3.361507">
        <ele>756.4</ele>
        <time>1970-01-01T01:57:32.000Z</time>
      </trkpt>
      <trkpt lat="40.380428" lon="-3.361514">
        <ele>756.6</ele>
        <time>1970-01-01T01:57:33.000Z</time>
      </trkpt>
      <trkpt lat="40.380442" lon="-3.361521">
        <ele>756.8</ele>
        <time>1970-01-01T01:57:34.000Z</time>
      </trkpt>
      <trkpt lat="40.380457" lon="-3.36153">
        <ele>757</ele>
        <time>1970-01-01T01:57:35.000Z</time>
      </trkpt>
      <trkpt lat="40.380473" lon="-3.361543">
        <ele>757.6</ele>
        <time>1970-01-01T01:57:36.000Z</time>
      </trkpt>
      <trkpt lat="40.380491" lon="-3.361554">
        <ele>757.8</ele>
        <time>1970-01-01T01:57:37.000Z</time>
      </trkpt>
      <trkpt lat="40.380511" lon="-3.361565">
        <ele>758.2</ele>
        <time>1970-01-01T01:57:38.000Z</time>
      </trkpt>
      <trkpt lat="40.380529" lon="-3.361575">
        <ele>758.2</ele>
        <time>1970-01-01T01:57:39.000Z</time>
      </trkpt>
      <trkpt lat="40.380546" lon="-3.361584">
        <ele>758.6</ele>
        <time>1970-01-01T01:57:40.000Z</time>
      </trkpt>
      <trkpt lat="40.380563" lon="-3.361593">
        <ele>758.8</ele>
        <time>1970-01-01T01:57:41.000Z</time>
      </trkpt>
      <trkpt lat="40.380581" lon="-3.361603">
        <ele>758.8</ele>
        <time>1970-01-01T01:57:42.000Z</time>
      </trkpt>
      <trkpt lat="40.380598" lon="-3.361611">
        <ele>759.4</ele>
        <time>1970-01-01T01:57:43.000Z</time>
      </trkpt>
      <trkpt lat="40.380615" lon="-3.361616">
        <ele>759.6</ele>
        <time>1970-01-01T01:57:44.000Z</time>
      </trkpt>
      <trkpt lat="40.380636" lon="-3.361616">
        <ele>760</ele>
        <time>1970-01-01T01:57:45.000Z</time>
      </trkpt>
      <trkpt lat="40.380658" lon="-3.361612">
        <ele>760.4</ele>
        <time>1970-01-01T01:57:46.000Z</time>
      </trkpt>
      <trkpt lat="40.380681" lon="-3.361606">
        <ele>760.8</ele>
        <time>1970-01-01T01:57:47.000Z</time>
      </trkpt>
      <trkpt lat="40.380703" lon="-3.361598">
        <ele>761</ele>
        <time>1970-01-01T01:57:48.000Z</time>
      </trkpt>
      <trkpt lat="40.380728" lon="-3.361592">
        <ele>761.6</ele>
        <time>1970-01-01T01:57:49.000Z</time>
      </trkpt>
      <trkpt lat="40.380755" lon="-3.361589">
        <ele>762</ele>
        <time>1970-01-01T01:57:50.000Z</time>
      </trkpt>
      <trkpt lat="40.380784" lon="-3.361589">
        <ele>762.2</ele>
        <time>1970-01-01T01:57:51.000Z</time>
      </trkpt>
      <trkpt lat="40.380813" lon="-3.361588">
        <ele>762.6</ele>
        <time>1970-01-01T01:57:52.000Z</time>
      </trkpt>
      <trkpt lat="40.380838" lon="-3.361586">
        <ele>762.6</ele>
        <time>1970-01-01T01:57:53.000Z</time>
      </trkpt>
      <trkpt lat="40.380862" lon="-3.361584">
        <ele>762.8</ele>
        <time>1970-01-01T01:57:54.000Z</time>
      </trkpt>
      <trkpt lat="40.380884" lon="-3.361578">
        <ele>762.8</ele>
        <time>1970-01-01T01:57:55.000Z</time>
      </trkpt>
      <trkpt lat="40.380906" lon="-3.361574">
        <ele>763</ele>
        <time>1970-01-01T01:57:56.000Z</time>
      </trkpt>
      <trkpt lat="40.380925" lon="-3.361568">
        <ele>763</ele>
        <time>1970-01-01T01:57:57.000Z</time>
      </trkpt>
      <trkpt lat="40.380945" lon="-3.361568">
        <ele>763.2</ele>
        <time>1970-01-01T01:57:58.000Z</time>
      </trkpt>
      <trkpt lat="40.380962" lon="-3.361566">
        <ele>763.2</ele>
        <time>1970-01-01T01:57:59.000Z</time>
      </trkpt>
      <trkpt lat="40.380979" lon="-3.361566">
        <ele>763.4</ele>
        <time>1970-01-01T01:58:00.000Z</time>
      </trkpt>
      <trkpt lat="40.380998" lon="-3.361569">
        <ele>763.4</ele>
        <time>1970-01-01T01:58:01.000Z</time>
      </trkpt>
      <trkpt lat="40.381018" lon="-3.361571">
        <ele>763.4</ele>
        <time>1970-01-01T01:58:02.000Z</time>
      </trkpt>
      <trkpt lat="40.38104" lon="-3.361575">
        <ele>763.6</ele>
        <time>1970-01-01T01:58:03.000Z</time>
      </trkpt>
      <trkpt lat="40.381061" lon="-3.361577">
        <ele>763.8</ele>
        <time>1970-01-01T01:58:04.000Z</time>
      </trkpt>
      <trkpt lat="40.381081" lon="-3.361581">
        <ele>764.2</ele>
        <time>1970-01-01T01:58:05.000Z</time>
      </trkpt>
      <trkpt lat="40.381101" lon="-3.361583">
        <ele>764.2</ele>
        <time>1970-01-01T01:58:06.000Z</time>
      </trkpt>
      <trkpt lat="40.38112" lon="-3.361586">
        <ele>764.6</ele>
        <time>1970-01-01T01:58:07.000Z</time>
      </trkpt>
      <trkpt lat="40.381139" lon="-3.361591">
        <ele>765</ele>
        <time>1970-01-01T01:58:08.000Z</time>
      </trkpt>
      <trkpt lat="40.381159" lon="-3.361598">
        <ele>765.2</ele>
        <time>1970-01-01T01:58:09.000Z</time>
      </trkpt>
      <trkpt lat="40.381178" lon="-3.361607">
        <ele>765.4</ele>
        <time>1970-01-01T01:58:10.000Z</time>
      </trkpt>
      <trkpt lat="40.381195" lon="-3.361615">
        <ele>765.6</ele>
        <time>1970-01-01T01:58:11.000Z</time>
      </trkpt>
      <trkpt lat="40.381212" lon="-3.361626">
        <ele>766.2</ele>
        <time>1970-01-01T01:58:12.000Z</time>
      </trkpt>
      <trkpt lat="40.381232" lon="-3.361636">
        <ele>766.4</ele>
        <time>1970-01-01T01:58:13.000Z</time>
      </trkpt>
      <trkpt lat="40.381254" lon="-3.361643">
        <ele>766.8</ele>
        <time>1970-01-01T01:58:14.000Z</time>
      </trkpt>
      <trkpt lat="40.381276" lon="-3.361651">
        <ele>767</ele>
        <time>1970-01-01T01:58:15.000Z</time>
      </trkpt>
      <trkpt lat="40.381297" lon="-3.361664">
        <ele>767.4</ele>
        <time>1970-01-01T01:58:16.000Z</time>
      </trkpt>
      <trkpt lat="40.381319" lon="-3.361676">
        <ele>767.6</ele>
        <time>1970-01-01T01:58:17.000Z</time>
      </trkpt>
      <trkpt lat="40.381336" lon="-3.361684">
        <ele>768</ele>
        <time>1970-01-01T01:58:18.000Z</time>
      </trkpt>
      <trkpt lat="40.381358" lon="-3.361695">
        <ele>768.2</ele>
        <time>1970-01-01T01:58:19.000Z</time>
      </trkpt>
      <trkpt lat="40.381383" lon="-3.361708">
        <ele>768.4</ele>
        <time>1970-01-01T01:58:20.000Z</time>
      </trkpt>
      <trkpt lat="40.381406" lon="-3.361716">
        <ele>768.8</ele>
        <time>1970-01-01T01:58:21.000Z</time>
      </trkpt>
      <trkpt lat="40.381428" lon="-3.361724">
        <ele>769</ele>
        <time>1970-01-01T01:58:22.000Z</time>
      </trkpt>
      <trkpt lat="40.381442" lon="-3.361732">
        <ele>769.4</ele>
        <time>1970-01-01T01:58:23.000Z</time>
      </trkpt>
      <trkpt lat="40.381454" lon="-3.361742">
        <ele>770</ele>
        <time>1970-01-01T01:58:24.000Z</time>
      </trkpt>
      <trkpt lat="40.38146" lon="-3.361761">
        <ele>770.2</ele>
        <time>1970-01-01T01:58:25.000Z</time>
      </trkpt>
      <trkpt lat="40.381455" lon="-3.361781">
        <ele>770.6</ele>
        <time>1970-01-01T01:58:26.000Z</time>
      </trkpt>
      <trkpt lat="40.381447" lon="-3.361804">
        <ele>770.6</ele>
        <time>1970-01-01T01:58:27.000Z</time>
      </trkpt>
      <trkpt lat="40.381441" lon="-3.361822">
        <ele>770.8</ele>
        <time>1970-01-01T01:58:28.000Z</time>
      </trkpt>
      <trkpt lat="40.38143" lon="-3.361846">
        <ele>770.8</ele>
        <time>1970-01-01T01:58:29.000Z</time>
      </trkpt>
      <trkpt lat="40.381413" lon="-3.361872">
        <ele>770.8</ele>
        <time>1970-01-01T01:58:30.000Z</time>
      </trkpt>
      <trkpt lat="40.381397" lon="-3.361882">
        <ele>771</ele>
        <time>1970-01-01T01:58:31.000Z</time>
      </trkpt>
      <trkpt lat="40.381388" lon="-3.361883">
        <ele>771</ele>
        <time>1970-01-01T01:58:32.000Z</time>
      </trkpt>
      <trkpt lat="40.381388" lon="-3.361883">
        <ele>771.2</ele>
        <time>1970-01-01T01:58:33.000Z</time>
      </trkpt>
      <trkpt lat="40.381392" lon="-3.361885">
        <ele>771</ele>
        <time>1970-01-01T02:03:41.000Z</time>
      </trkpt>
      <trkpt lat="40.381403" lon="-3.361868">
        <ele>771</ele>
        <time>1970-01-01T02:03:42.000Z</time>
      </trkpt>
      <trkpt lat="40.381415" lon="-3.361848">
        <ele>771</ele>
        <time>1970-01-01T02:03:43.000Z</time>
      </trkpt>
      <trkpt lat="40.381424" lon="-3.361823">
        <ele>771</ele>
        <time>1970-01-01T02:03:44.000Z</time>
      </trkpt>
      <trkpt lat="40.381435" lon="-3.3618">
        <ele>770.8</ele>
        <time>1970-01-01T02:03:45.000Z</time>
      </trkpt>
      <trkpt lat="40.381447" lon="-3.361779">
        <ele>770.8</ele>
        <time>1970-01-01T02:03:46.000Z</time>
      </trkpt>
      <trkpt lat="40.38146" lon="-3.361761">
        <ele>770.8</ele>
        <time>1970-01-01T02:03:47.000Z</time>
      </trkpt>
      <trkpt lat="40.381475" lon="-3.361748">
        <ele>770.8</ele>
        <time>1970-01-01T02:03:48.000Z</time>
      </trkpt>
      <trkpt lat="40.381492" lon="-3.361741">
        <ele>770.8</ele>
        <time>1970-01-01T02:03:49.000Z</time>
      </trkpt>
      <trkpt lat="40.381511" lon="-3.361741">
        <ele>771</ele>
        <time>1970-01-01T02:03:50.000Z</time>
      </trkpt>
      <trkpt lat="40.381534" lon="-3.361749">
        <ele>771</ele>
        <time>1970-01-01T02:03:51.000Z</time>
      </trkpt>
      <trkpt lat="40.38156" lon="-3.361758">
        <ele>771</ele>
        <time>1970-01-01T02:03:52.000Z</time>
      </trkpt>
      <trkpt lat="40.381586" lon="-3.361756">
        <ele>771.2</ele>
        <time>1970-01-01T02:03:53.000Z</time>
      </trkpt>
      <trkpt lat="40.381617" lon="-3.361748">
        <ele>771.2</ele>
        <time>1970-01-01T02:03:54.000Z</time>
      </trkpt>
      <trkpt lat="40.381648" lon="-3.361741">
        <ele>771.2</ele>
        <time>1970-01-01T02:03:55.000Z</time>
      </trkpt>
      <trkpt lat="40.381681" lon="-3.361736">
        <ele>771.2</ele>
        <time>1970-01-01T02:03:56.000Z</time>
      </trkpt>
      <trkpt lat="40.381716" lon="-3.361729">
        <ele>771.4</ele>
        <time>1970-01-01T02:03:57.000Z</time>
      </trkpt>
      <trkpt lat="40.381749" lon="-3.361721">
        <ele>771.4</ele>
        <time>1970-01-01T02:03:58.000Z</time>
      </trkpt>
      <trkpt lat="40.381783" lon="-3.36171">
        <ele>771.4</ele>
        <time>1970-01-01T02:03:59.000Z</time>
      </trkpt>
      <trkpt lat="40.381815" lon="-3.361694">
        <ele>771.4</ele>
        <time>1970-01-01T02:04:00.000Z</time>
      </trkpt>
      <trkpt lat="40.381851" lon="-3.361678">
        <ele>771.6</ele>
        <time>1970-01-01T02:04:01.000Z</time>
      </trkpt>
      <trkpt lat="40.381889" lon="-3.361661">
        <ele>771.8</ele>
        <time>1970-01-01T02:04:02.000Z</time>
      </trkpt>
      <trkpt lat="40.381928" lon="-3.361645">
        <ele>771.8</ele>
        <time>1970-01-01T02:04:03.000Z</time>
      </trkpt>
      <trkpt lat="40.381968" lon="-3.361631">
        <ele>772</ele>
        <time>1970-01-01T02:04:04.000Z</time>
      </trkpt>
      <trkpt lat="40.382008" lon="-3.361615">
        <ele>772</ele>
        <time>1970-01-01T02:04:05.000Z</time>
      </trkpt>
      <trkpt lat="40.382052" lon="-3.3616">
        <ele>772.2</ele>
        <time>1970-01-01T02:04:06.000Z</time>
      </trkpt>
      <trkpt lat="40.382095" lon="-3.361581">
        <ele>772.2</ele>
        <time>1970-01-01T02:04:07.000Z</time>
      </trkpt>
      <trkpt lat="40.382139" lon="-3.361564">
        <ele>772.2</ele>
        <time>1970-01-01T02:04:08.000Z</time>
      </trkpt>
      <trkpt lat="40.382184" lon="-3.361548">
        <ele>772.2</ele>
        <time>1970-01-01T02:04:09.000Z</time>
      </trkpt>
      <trkpt lat="40.382226" lon="-3.361533">
        <ele>772.2</ele>
        <time>1970-01-01T02:04:10.000Z</time>
      </trkpt>
      <trkpt lat="40.382264" lon="-3.361519">
        <ele>772.2</ele>
        <time>1970-01-01T02:04:11.000Z</time>
      </trkpt>
      <trkpt lat="40.3823" lon="-3.36151">
        <ele>772.2</ele>
        <time>1970-01-01T02:04:12.000Z</time>
      </trkpt>
      <trkpt lat="40.382337" lon="-3.361502">
        <ele>772.4</ele>
        <time>1970-01-01T02:04:13.000Z</time>
      </trkpt>
      <trkpt lat="40.38237" lon="-3.361493">
        <ele>772.4</ele>
        <time>1970-01-01T02:04:14.000Z</time>
      </trkpt>
      <trkpt lat="40.382403" lon="-3.361494">
        <ele>772.4</ele>
        <time>1970-01-01T02:04:15.000Z</time>
      </trkpt>
      <trkpt lat="40.382437" lon="-3.361512">
        <ele>772.4</ele>
        <time>1970-01-01T02:04:16.000Z</time>
      </trkpt>
      <trkpt lat="40.382464" lon="-3.36155">
        <ele>772.4</ele>
        <time>1970-01-01T02:04:17.000Z</time>
      </trkpt>
      <trkpt lat="40.382484" lon="-3.3616">
        <ele>772.4</ele>
        <time>1970-01-01T02:04:18.000Z</time>
      </trkpt>
      <trkpt lat="40.382501" lon="-3.361655">
        <ele>772.4</ele>
        <time>1970-01-01T02:04:19.000Z</time>
      </trkpt>
      <trkpt lat="40.382517" lon="-3.361711">
        <ele>772.4</ele>
        <time>1970-01-01T02:04:20.000Z</time>
      </trkpt>
      <trkpt lat="40.382536" lon="-3.361762">
        <ele>772.2</ele>
        <time>1970-01-01T02:04:21.000Z</time>
      </trkpt>
      <trkpt lat="40.382555" lon="-3.361809">
        <ele>771.8</ele>
        <time>1970-01-01T02:04:22.000Z</time>
      </trkpt>
      <trkpt lat="40.382575" lon="-3.361855">
        <ele>771.8</ele>
        <time>1970-01-01T02:04:23.000Z</time>
      </trkpt>
      <trkpt lat="40.382595" lon="-3.361904">
        <ele>771.8</ele>
        <time>1970-01-01T02:04:24.000Z</time>
      </trkpt>
      <trkpt lat="40.382609" lon="-3.361953">
        <ele>771.8</ele>
        <time>1970-01-01T02:04:25.000Z</time>
      </trkpt>
      <trkpt lat="40.382614" lon="-3.362006">
        <ele>771.8</ele>
        <time>1970-01-01T02:04:26.000Z</time>
      </trkpt>
      <trkpt lat="40.382617" lon="-3.362059">
        <ele>771.8</ele>
        <time>1970-01-01T02:04:27.000Z</time>
      </trkpt>
      <trkpt lat="40.382616" lon="-3.362116">
        <ele>771.8</ele>
        <time>1970-01-01T02:04:28.000Z</time>
      </trkpt>
      <trkpt lat="40.382614" lon="-3.362177">
        <ele>771.6</ele>
        <time>1970-01-01T02:04:29.000Z</time>
      </trkpt>
      <trkpt lat="40.38261" lon="-3.362242">
        <ele>771.8</ele>
        <time>1970-01-01T02:04:30.000Z</time>
      </trkpt>
      <trkpt lat="40.382609" lon="-3.362308">
        <ele>771.8</ele>
        <time>1970-01-01T02:04:31.000Z</time>
      </trkpt>
      <trkpt lat="40.382614" lon="-3.362375">
        <ele>771.8</ele>
        <time>1970-01-01T02:04:32.000Z</time>
      </trkpt>
      <trkpt lat="40.382622" lon="-3.36244">
        <ele>771.8</ele>
        <time>1970-01-01T02:04:33.000Z</time>
      </trkpt>
      <trkpt lat="40.382633" lon="-3.362504">
        <ele>771.8</ele>
        <time>1970-01-01T02:04:34.000Z</time>
      </trkpt>
      <trkpt lat="40.382649" lon="-3.362569">
        <ele>771.8</ele>
        <time>1970-01-01T02:04:35.000Z</time>
      </trkpt>
      <trkpt lat="40.382661" lon="-3.362633">
        <ele>771.8</ele>
        <time>1970-01-01T02:04:36.000Z</time>
      </trkpt>
      <trkpt lat="40.382664" lon="-3.362696">
        <ele>771.8</ele>
        <time>1970-01-01T02:04:37.000Z</time>
      </trkpt>
      <trkpt lat="40.382667" lon="-3.36275">
        <ele>771.8</ele>
        <time>1970-01-01T02:04:38.000Z</time>
      </trkpt>
      <trkpt lat="40.38268" lon="-3.362795">
        <ele>771.8</ele>
        <time>1970-01-01T02:04:39.000Z</time>
      </trkpt>
      <trkpt lat="40.3827" lon="-3.36284">
        <ele>771.6</ele>
        <time>1970-01-01T02:04:40.000Z</time>
      </trkpt>
      <trkpt lat="40.38272" lon="-3.362894">
        <ele>771.6</ele>
        <time>1970-01-01T02:04:41.000Z</time>
      </trkpt>
      <trkpt lat="40.382738" lon="-3.362948">
        <ele>771.4</ele>
        <time>1970-01-01T02:04:42.000Z</time>
      </trkpt>
      <trkpt lat="40.382755" lon="-3.363001">
        <ele>771.2</ele>
        <time>1970-01-01T02:04:43.000Z</time>
      </trkpt>
      <trkpt lat="40.382772" lon="-3.363059">
        <ele>771.2</ele>
        <time>1970-01-01T02:04:44.000Z</time>
      </trkpt>
      <trkpt lat="40.382791" lon="-3.363124">
        <ele>770.8</ele>
        <time>1970-01-01T02:04:45.000Z</time>
      </trkpt>
      <trkpt lat="40.382812" lon="-3.363196">
        <ele>770.6</ele>
        <time>1970-01-01T02:04:46.000Z</time>
      </trkpt>
      <trkpt lat="40.382838" lon="-3.36327">
        <ele>770.2</ele>
        <time>1970-01-01T02:04:47.000Z</time>
      </trkpt>
      <trkpt lat="40.382864" lon="-3.363345">
        <ele>770</ele>
        <time>1970-01-01T02:04:48.000Z</time>
      </trkpt>
      <trkpt lat="40.382893" lon="-3.363421">
        <ele>769.6</ele>
        <time>1970-01-01T02:04:49.000Z</time>
      </trkpt>
      <trkpt lat="40.382925" lon="-3.363495">
        <ele>768.8</ele>
        <time>1970-01-01T02:04:50.000Z</time>
      </trkpt>
      <trkpt lat="40.382958" lon="-3.363574">
        <ele>768.4</ele>
        <time>1970-01-01T02:04:51.000Z</time>
      </trkpt>
      <trkpt lat="40.382989" lon="-3.363657">
        <ele>767.8</ele>
        <time>1970-01-01T02:04:52.000Z</time>
      </trkpt>
      <trkpt lat="40.383021" lon="-3.363738">
        <ele>767.6</ele>
        <time>1970-01-01T02:04:53.000Z</time>
      </trkpt>
      <trkpt lat="40.383054" lon="-3.363811">
        <ele>767.2</ele>
        <time>1970-01-01T02:04:54.000Z</time>
      </trkpt>
      <trkpt lat="40.383087" lon="-3.363884">
        <ele>767</ele>
        <time>1970-01-01T02:04:55.000Z</time>
      </trkpt>
      <trkpt lat="40.38312" lon="-3.363959">
        <ele>766.6</ele>
        <time>1970-01-01T02:04:56.000Z</time>
      </trkpt>
      <trkpt lat="40.383158" lon="-3.364035">
        <ele>766.2</ele>
        <time>1970-01-01T02:04:57.000Z</time>
      </trkpt>
      <trkpt lat="40.383193" lon="-3.364107">
        <ele>765.2</ele>
        <time>1970-01-01T02:04:58.000Z</time>
      </trkpt>
      <trkpt lat="40.383219" lon="-3.364186">
        <ele>764.8</ele>
        <time>1970-01-01T02:04:59.000Z</time>
      </trkpt>
      <trkpt lat="40.383232" lon="-3.364272">
        <ele>764.8</ele>
        <time>1970-01-01T02:05:00.000Z</time>
      </trkpt>
      <trkpt lat="40.383242" lon="-3.364359">
        <ele>764.6</ele>
        <time>1970-01-01T02:05:01.000Z</time>
      </trkpt>
      <trkpt lat="40.383252" lon="-3.364449">
        <ele>764.4</ele>
        <time>1970-01-01T02:05:02.000Z</time>
      </trkpt>
      <trkpt lat="40.38326" lon="-3.364541">
        <ele>764.2</ele>
        <time>1970-01-01T02:05:03.000Z</time>
      </trkpt>
      <trkpt lat="40.383268" lon="-3.364635">
        <ele>764</ele>
        <time>1970-01-01T02:05:04.000Z</time>
      </trkpt>
      <trkpt lat="40.383279" lon="-3.364731">
        <ele>763.8</ele>
        <time>1970-01-01T02:05:05.000Z</time>
      </trkpt>
      <trkpt lat="40.383292" lon="-3.364829">
        <ele>763.6</ele>
        <time>1970-01-01T02:05:06.000Z</time>
      </trkpt>
      <trkpt lat="40.383306" lon="-3.364921">
        <ele>763.4</ele>
        <time>1970-01-01T02:05:07.000Z</time>
      </trkpt>
      <trkpt lat="40.38332" lon="-3.365007">
        <ele>763</ele>
        <time>1970-01-01T02:05:08.000Z</time>
      </trkpt>
      <trkpt lat="40.383335" lon="-3.365092">
        <ele>763</ele>
        <time>1970-01-01T02:05:09.000Z</time>
      </trkpt>
      <trkpt lat="40.383351" lon="-3.365181">
        <ele>762.4</ele>
        <time>1970-01-01T02:05:10.000Z</time>
      </trkpt>
      <trkpt lat="40.38337" lon="-3.365271">
        <ele>762</ele>
        <time>1970-01-01T02:05:11.000Z</time>
      </trkpt>
      <trkpt lat="40.383388" lon="-3.365364">
        <ele>761.6</ele>
        <time>1970-01-01T02:05:12.000Z</time>
      </trkpt>
      <trkpt lat="40.383405" lon="-3.365458">
        <ele>761.2</ele>
        <time>1970-01-01T02:05:13.000Z</time>
      </trkpt>
      <trkpt lat="40.38342" lon="-3.365552">
        <ele>760.4</ele>
        <time>1970-01-01T02:05:14.000Z</time>
      </trkpt>
      <trkpt lat="40.383435" lon="-3.365644">
        <ele>760.2</ele>
        <time>1970-01-01T02:05:15.000Z</time>
      </trkpt>
      <trkpt lat="40.383445" lon="-3.365738">
        <ele>759.8</ele>
        <time>1970-01-01T02:05:16.000Z</time>
      </trkpt>
      <trkpt lat="40.383447" lon="-3.365833">
        <ele>759.6</ele>
        <time>1970-01-01T02:05:17.000Z</time>
      </trkpt>
      <trkpt lat="40.383447" lon="-3.365926">
        <ele>759.4</ele>
        <time>1970-01-01T02:05:18.000Z</time>
      </trkpt>
      <trkpt lat="40.383454" lon="-3.366015">
        <ele>759</ele>
        <time>1970-01-01T02:05:19.000Z</time>
      </trkpt>
      <trkpt lat="40.383462" lon="-3.366101">
        <ele>758.8</ele>
        <time>1970-01-01T02:05:20.000Z</time>
      </trkpt>
      <trkpt lat="40.383466" lon="-3.366187">
        <ele>758.6</ele>
        <time>1970-01-01T02:05:21.000Z</time>
      </trkpt>
      <trkpt lat="40.383466" lon="-3.366268">
        <ele>758.4</ele>
        <time>1970-01-01T02:05:22.000Z</time>
      </trkpt>
      <trkpt lat="40.383468" lon="-3.366347">
        <ele>758</ele>
        <time>1970-01-01T02:05:23.000Z</time>
      </trkpt>
      <trkpt lat="40.383466" lon="-3.366421">
        <ele>757.2</ele>
        <time>1970-01-01T02:05:24.000Z</time>
      </trkpt>
      <trkpt lat="40.383462" lon="-3.366486">
        <ele>757</ele>
        <time>1970-01-01T02:05:25.000Z</time>
      </trkpt>
      <trkpt lat="40.383459" lon="-3.366541">
        <ele>756.8</ele>
        <time>1970-01-01T02:05:26.000Z</time>
      </trkpt>
      <trkpt lat="40.383455" lon="-3.366589">
        <ele>756.6</ele>
        <time>1970-01-01T02:05:27.000Z</time>
      </trkpt>
      <trkpt lat="40.383448" lon="-3.366635">
        <ele>756.2</ele>
        <time>1970-01-01T02:05:28.000Z</time>
      </trkpt>
      <trkpt lat="40.383441" lon="-3.366684">
        <ele>756.2</ele>
        <time>1970-01-01T02:05:29.000Z</time>
      </trkpt>
      <trkpt lat="40.383438" lon="-3.366739">
        <ele>755.8</ele>
        <time>1970-01-01T02:05:30.000Z</time>
      </trkpt>
      <trkpt lat="40.383441" lon="-3.366799">
        <ele>755.8</ele>
        <time>1970-01-01T02:05:31.000Z</time>
      </trkpt>
      <trkpt lat="40.383451" lon="-3.366859">
        <ele>755.6</ele>
        <time>1970-01-01T02:05:32.000Z</time>
      </trkpt>
      <trkpt lat="40.383463" lon="-3.366918">
        <ele>755.6</ele>
        <time>1970-01-01T02:05:33.000Z</time>
      </trkpt>
      <trkpt lat="40.383472" lon="-3.36698">
        <ele>755.6</ele>
        <time>1970-01-01T02:05:34.000Z</time>
      </trkpt>
      <trkpt lat="40.383482" lon="-3.367042">
        <ele>755.4</ele>
        <time>1970-01-01T02:05:35.000Z</time>
      </trkpt>
      <trkpt lat="40.383492" lon="-3.367104">
        <ele>755.2</ele>
        <time>1970-01-01T02:05:36.000Z</time>
      </trkpt>
      <trkpt lat="40.383496" lon="-3.367174">
        <ele>755.2</ele>
        <time>1970-01-01T02:05:37.000Z</time>
      </trkpt>
      <trkpt lat="40.383494" lon="-3.367251">
        <ele>755</ele>
        <time>1970-01-01T02:05:38.000Z</time>
      </trkpt>
      <trkpt lat="40.383488" lon="-3.367332">
        <ele>754.4</ele>
        <time>1970-01-01T02:05:39.000Z</time>
      </trkpt>
      <trkpt lat="40.383484" lon="-3.367409">
        <ele>753.8</ele>
        <time>1970-01-01T02:05:40.000Z</time>
      </trkpt>
      <trkpt lat="40.38348" lon="-3.367493">
        <ele>753.6</ele>
        <time>1970-01-01T02:05:41.000Z</time>
      </trkpt>
      <trkpt lat="40.383484" lon="-3.367541">
        <ele>752.8</ele>
        <time>1970-01-01T02:05:42.000Z</time>
      </trkpt>
      <trkpt lat="40.383497" lon="-3.367596">
        <ele>752.4</ele>
        <time>1970-01-01T02:05:43.000Z</time>
      </trkpt>
      <trkpt lat="40.383522" lon="-3.367643">
        <ele>751.6</ele>
        <time>1970-01-01T02:05:44.000Z</time>
      </trkpt>
      <trkpt lat="40.383552" lon="-3.367686">
        <ele>751.2</ele>
        <time>1970-01-01T02:05:45.000Z</time>
      </trkpt>
      <trkpt lat="40.383582" lon="-3.367729">
        <ele>750.6</ele>
        <time>1970-01-01T02:05:46.000Z</time>
      </trkpt>
      <trkpt lat="40.383603" lon="-3.36778">
        <ele>750.2</ele>
        <time>1970-01-01T02:05:47.000Z</time>
      </trkpt>
      <trkpt lat="40.383619" lon="-3.367837">
        <ele>748.8</ele>
        <time>1970-01-01T02:05:48.000Z</time>
      </trkpt>
      <trkpt lat="40.383644" lon="-3.367892">
        <ele>747.4</ele>
        <time>1970-01-01T02:05:49.000Z</time>
      </trkpt>
      <trkpt lat="40.383671" lon="-3.367946">
        <ele>746.8</ele>
        <time>1970-01-01T02:05:50.000Z</time>
      </trkpt>
      <trkpt lat="40.383695" lon="-3.368001">
        <ele>745.8</ele>
        <time>1970-01-01T02:05:51.000Z</time>
      </trkpt>
      <trkpt lat="40.383718" lon="-3.368058">
        <ele>745.4</ele>
        <time>1970-01-01T02:05:52.000Z</time>
      </trkpt>
      <trkpt lat="40.383735" lon="-3.368118">
        <ele>744.6</ele>
        <time>1970-01-01T02:05:53.000Z</time>
      </trkpt>
      <trkpt lat="40.383749" lon="-3.368178">
        <ele>743.6</ele>
        <time>1970-01-01T02:05:54.000Z</time>
      </trkpt>
      <trkpt lat="40.383767" lon="-3.368237">
        <ele>742.4</ele>
        <time>1970-01-01T02:05:55.000Z</time>
      </trkpt>
      <trkpt lat="40.383785" lon="-3.3683">
        <ele>741.6</ele>
        <time>1970-01-01T02:05:56.000Z</time>
      </trkpt>
      <trkpt lat="40.383796" lon="-3.368366">
        <ele>741.2</ele>
        <time>1970-01-01T02:05:57.000Z</time>
      </trkpt>
      <trkpt lat="40.383809" lon="-3.368438">
        <ele>740.4</ele>
        <time>1970-01-01T02:05:58.000Z</time>
      </trkpt>
      <trkpt lat="40.383828" lon="-3.368512">
        <ele>740.2</ele>
        <time>1970-01-01T02:05:59.000Z</time>
      </trkpt>
      <trkpt lat="40.38385" lon="-3.368586">
        <ele>739.2</ele>
        <time>1970-01-01T02:06:00.000Z</time>
      </trkpt>
      <trkpt lat="40.383879" lon="-3.368666">
        <ele>739.2</ele>
        <time>1970-01-01T02:06:01.000Z</time>
      </trkpt>
      <trkpt lat="40.383913" lon="-3.368744">
        <ele>738.6</ele>
        <time>1970-01-01T02:06:02.000Z</time>
      </trkpt>
      <trkpt lat="40.383942" lon="-3.368816">
        <ele>738.4</ele>
        <time>1970-01-01T02:06:03.000Z</time>
      </trkpt>
      <trkpt lat="40.383972" lon="-3.368883">
        <ele>737.6</ele>
        <time>1970-01-01T02:06:04.000Z</time>
      </trkpt>
      <trkpt lat="40.384006" lon="-3.368941">
        <ele>736.6</ele>
        <time>1970-01-01T02:06:05.000Z</time>
      </trkpt>
      <trkpt lat="40.384041" lon="-3.368989">
        <ele>736.4</ele>
        <time>1970-01-01T02:06:06.000Z</time>
      </trkpt>
      <trkpt lat="40.384078" lon="-3.369035">
        <ele>735.4</ele>
        <time>1970-01-01T02:06:07.000Z</time>
      </trkpt>
      <trkpt lat="40.384117" lon="-3.369074">
        <ele>734.8</ele>
        <time>1970-01-01T02:06:08.000Z</time>
      </trkpt>
      <trkpt lat="40.384159" lon="-3.369112">
        <ele>733.8</ele>
        <time>1970-01-01T02:06:09.000Z</time>
      </trkpt>
      <trkpt lat="40.384197" lon="-3.369148">
        <ele>733.4</ele>
        <time>1970-01-01T02:06:10.000Z</time>
      </trkpt>
      <trkpt lat="40.384234" lon="-3.369181">
        <ele>732.4</ele>
        <time>1970-01-01T02:06:11.000Z</time>
      </trkpt>
      <trkpt lat="40.384273" lon="-3.36922">
        <ele>731.6</ele>
        <time>1970-01-01T02:06:12.000Z</time>
      </trkpt>
      <trkpt lat="40.384311" lon="-3.369261">
        <ele>731.2</ele>
        <time>1970-01-01T02:06:13.000Z</time>
      </trkpt>
      <trkpt lat="40.38435" lon="-3.369304">
        <ele>730.8</ele>
        <time>1970-01-01T02:06:14.000Z</time>
      </trkpt>
      <trkpt lat="40.384389" lon="-3.369345">
        <ele>730.6</ele>
        <time>1970-01-01T02:06:15.000Z</time>
      </trkpt>
      <trkpt lat="40.384426" lon="-3.369382">
        <ele>730</ele>
        <time>1970-01-01T02:06:16.000Z</time>
      </trkpt>
      <trkpt lat="40.384461" lon="-3.369413">
        <ele>729.8</ele>
        <time>1970-01-01T02:06:17.000Z</time>
      </trkpt>
      <trkpt lat="40.384496" lon="-3.369438">
        <ele>729.2</ele>
        <time>1970-01-01T02:06:18.000Z</time>
      </trkpt>
      <trkpt lat="40.384533" lon="-3.369466">
        <ele>728.4</ele>
        <time>1970-01-01T02:06:19.000Z</time>
      </trkpt>
      <trkpt lat="40.38457" lon="-3.369503">
        <ele>727</ele>
        <time>1970-01-01T02:06:20.000Z</time>
      </trkpt>
      <trkpt lat="40.38461" lon="-3.369551">
        <ele>725.8</ele>
        <time>1970-01-01T02:06:21.000Z</time>
      </trkpt>
      <trkpt lat="40.384652" lon="-3.369609">
        <ele>725.4</ele>
        <time>1970-01-01T02:06:22.000Z</time>
      </trkpt>
      <trkpt lat="40.384691" lon="-3.369672">
        <ele>725</ele>
        <time>1970-01-01T02:06:23.000Z</time>
      </trkpt>
      <trkpt lat="40.38473" lon="-3.369733">
        <ele>724.2</ele>
        <time>1970-01-01T02:06:24.000Z</time>
      </trkpt>
      <trkpt lat="40.384766" lon="-3.369787">
        <ele>722.8</ele>
        <time>1970-01-01T02:06:25.000Z</time>
      </trkpt>
      <trkpt lat="40.3848" lon="-3.369846">
        <ele>722.4</ele>
        <time>1970-01-01T02:06:26.000Z</time>
      </trkpt>
      <trkpt lat="40.384832" lon="-3.369906">
        <ele>721.8</ele>
        <time>1970-01-01T02:06:27.000Z</time>
      </trkpt>
      <trkpt lat="40.384859" lon="-3.369964">
        <ele>721</ele>
        <time>1970-01-01T02:06:28.000Z</time>
      </trkpt>
      <trkpt lat="40.384881" lon="-3.370021">
        <ele>720.8</ele>
        <time>1970-01-01T02:06:29.000Z</time>
      </trkpt>
      <trkpt lat="40.384909" lon="-3.370072">
        <ele>720.4</ele>
        <time>1970-01-01T02:06:30.000Z</time>
      </trkpt>
      <trkpt lat="40.384942" lon="-3.370118">
        <ele>720.2</ele>
        <time>1970-01-01T02:06:31.000Z</time>
      </trkpt>
      <trkpt lat="40.384976" lon="-3.370171">
        <ele>719.4</ele>
        <time>1970-01-01T02:06:32.000Z</time>
      </trkpt>
      <trkpt lat="40.38501" lon="-3.370233">
        <ele>719.2</ele>
        <time>1970-01-01T02:06:33.000Z</time>
      </trkpt>
      <trkpt lat="40.385045" lon="-3.370296">
        <ele>718.4</ele>
        <time>1970-01-01T02:06:34.000Z</time>
      </trkpt>
      <trkpt lat="40.385078" lon="-3.370353">
        <ele>718.2</ele>
        <time>1970-01-01T02:06:35.000Z</time>
      </trkpt>
      <trkpt lat="40.385115" lon="-3.3704">
        <ele>717.4</ele>
        <time>1970-01-01T02:06:36.000Z</time>
      </trkpt>
      <trkpt lat="40.385157" lon="-3.370439">
        <ele>717</ele>
        <time>1970-01-01T02:06:37.000Z</time>
      </trkpt>
      <trkpt lat="40.385199" lon="-3.370481">
        <ele>716.8</ele>
        <time>1970-01-01T02:06:38.000Z</time>
      </trkpt>
      <trkpt lat="40.385238" lon="-3.370527">
        <ele>716.2</ele>
        <time>1970-01-01T02:06:39.000Z</time>
      </trkpt>
      <trkpt lat="40.38527" lon="-3.370582">
        <ele>716</ele>
        <time>1970-01-01T02:06:40.000Z</time>
      </trkpt>
      <trkpt lat="40.385296" lon="-3.370646">
        <ele>715.2</ele>
        <time>1970-01-01T02:06:41.000Z</time>
      </trkpt>
      <trkpt lat="40.385316" lon="-3.370713">
        <ele>715</ele>
        <time>1970-01-01T02:06:42.000Z</time>
      </trkpt>
      <trkpt lat="40.385334" lon="-3.370781">
        <ele>714</ele>
        <time>1970-01-01T02:06:43.000Z</time>
      </trkpt>
      <trkpt lat="40.385353" lon="-3.370851">
        <ele>713.4</ele>
        <time>1970-01-01T02:06:44.000Z</time>
      </trkpt>
      <trkpt lat="40.385379" lon="-3.370933">
        <ele>713.4</ele>
        <time>1970-01-01T02:06:45.000Z</time>
      </trkpt>
      <trkpt lat="40.385396" lon="-3.370982">
        <ele>713</ele>
        <time>1970-01-01T02:06:46.000Z</time>
      </trkpt>
      <trkpt lat="40.385421" lon="-3.371039">
        <ele>712.8</ele>
        <time>1970-01-01T02:06:47.000Z</time>
      </trkpt>
      <trkpt lat="40.38545" lon="-3.371096">
        <ele>712.6</ele>
        <time>1970-01-01T02:06:48.000Z</time>
      </trkpt>
      <trkpt lat="40.38548" lon="-3.371157">
        <ele>712.4</ele>
        <time>1970-01-01T02:06:49.000Z</time>
      </trkpt>
      <trkpt lat="40.38551" lon="-3.371221">
        <ele>712</ele>
        <time>1970-01-01T02:06:50.000Z</time>
      </trkpt>
      <trkpt lat="40.385538" lon="-3.371285">
        <ele>711.8</ele>
        <time>1970-01-01T02:06:51.000Z</time>
      </trkpt>
      <trkpt lat="40.385574" lon="-3.371348">
        <ele>711.8</ele>
        <time>1970-01-01T02:06:52.000Z</time>
      </trkpt>
      <trkpt lat="40.385621" lon="-3.371405">
        <ele>711.6</ele>
        <time>1970-01-01T02:06:53.000Z</time>
      </trkpt>
      <trkpt lat="40.38568" lon="-3.371453">
        <ele>711.4</ele>
        <time>1970-01-01T02:06:54.000Z</time>
      </trkpt>
      <trkpt lat="40.385743" lon="-3.371491">
        <ele>711.4</ele>
        <time>1970-01-01T02:06:55.000Z</time>
      </trkpt>
      <trkpt lat="40.385807" lon="-3.371519">
        <ele>711.2</ele>
        <time>1970-01-01T02:06:56.000Z</time>
      </trkpt>
      <trkpt lat="40.385869" lon="-3.37154">
        <ele>710.8</ele>
        <time>1970-01-01T02:06:57.000Z</time>
      </trkpt>
      <trkpt lat="40.385928" lon="-3.371558">
        <ele>710.8</ele>
        <time>1970-01-01T02:06:58.000Z</time>
      </trkpt>
      <trkpt lat="40.386" lon="-3.371576">
        <ele>709.6</ele>
        <time>1970-01-01T02:06:59.000Z</time>
      </trkpt>
      <trkpt lat="40.386048" lon="-3.371585">
        <ele>709</ele>
        <time>1970-01-01T02:07:00.000Z</time>
      </trkpt>
      <trkpt lat="40.386109" lon="-3.371598">
        <ele>708.2</ele>
        <time>1970-01-01T02:07:01.000Z</time>
      </trkpt>
      <trkpt lat="40.386168" lon="-3.371616">
        <ele>707.8</ele>
        <time>1970-01-01T02:07:02.000Z</time>
      </trkpt>
      <trkpt lat="40.386226" lon="-3.371637">
        <ele>707.4</ele>
        <time>1970-01-01T02:07:03.000Z</time>
      </trkpt>
      <trkpt lat="40.38628" lon="-3.371661">
        <ele>707</ele>
        <time>1970-01-01T02:07:04.000Z</time>
      </trkpt>
      <trkpt lat="40.386329" lon="-3.371681">
        <ele>706.6</ele>
        <time>1970-01-01T02:07:05.000Z</time>
      </trkpt>
      <trkpt lat="40.386375" lon="-3.371689">
        <ele>705.6</ele>
        <time>1970-01-01T02:07:06.000Z</time>
      </trkpt>
      <trkpt lat="40.386418" lon="-3.371683">
        <ele>704.8</ele>
        <time>1970-01-01T02:07:07.000Z</time>
      </trkpt>
      <trkpt lat="40.386455" lon="-3.371668">
        <ele>703.6</ele>
        <time>1970-01-01T02:07:08.000Z</time>
      </trkpt>
      <trkpt lat="40.386479" lon="-3.371647">
        <ele>702.4</ele>
        <time>1970-01-01T02:07:09.000Z</time>
      </trkpt>
      <trkpt lat="40.386494" lon="-3.371623">
        <ele>701.8</ele>
        <time>1970-01-01T02:07:10.000Z</time>
      </trkpt>
      <trkpt lat="40.386508" lon="-3.371601">
        <ele>701</ele>
        <time>1970-01-01T02:07:11.000Z</time>
      </trkpt>
      <trkpt lat="40.386522" lon="-3.371576">
        <ele>700.8</ele>
        <time>1970-01-01T02:07:12.000Z</time>
      </trkpt>
      <trkpt lat="40.386536" lon="-3.371544">
        <ele>700.2</ele>
        <time>1970-01-01T02:07:13.000Z</time>
      </trkpt>
      <trkpt lat="40.386549" lon="-3.371507">
        <ele>700.2</ele>
        <time>1970-01-01T02:07:14.000Z</time>
      </trkpt>
      <trkpt lat="40.386559" lon="-3.371464">
        <ele>699.8</ele>
        <time>1970-01-01T02:07:15.000Z</time>
      </trkpt>
      <trkpt lat="40.386569" lon="-3.371417">
        <ele>699.8</ele>
        <time>1970-01-01T02:07:16.000Z</time>
      </trkpt>
      <trkpt lat="40.38658" lon="-3.371365">
        <ele>699.6</ele>
        <time>1970-01-01T02:07:17.000Z</time>
      </trkpt>
      <trkpt lat="40.386596" lon="-3.371318">
        <ele>699.6</ele>
        <time>1970-01-01T02:07:18.000Z</time>
      </trkpt>
      <trkpt lat="40.386617" lon="-3.371282">
        <ele>699.6</ele>
        <time>1970-01-01T02:07:19.000Z</time>
      </trkpt>
      <trkpt lat="40.386637" lon="-3.371253">
        <ele>699.6</ele>
        <time>1970-01-01T02:07:20.000Z</time>
      </trkpt>
      <trkpt lat="40.386654" lon="-3.371225">
        <ele>699.6</ele>
        <time>1970-01-01T02:07:21.000Z</time>
      </trkpt>
      <trkpt lat="40.386673" lon="-3.371202">
        <ele>699.6</ele>
        <time>1970-01-01T02:07:22.000Z</time>
      </trkpt>
      <trkpt lat="40.386692" lon="-3.371184">
        <ele>699.6</ele>
        <time>1970-01-01T02:07:23.000Z</time>
      </trkpt>
      <trkpt lat="40.386708" lon="-3.371161">
        <ele>699.8</ele>
        <time>1970-01-01T02:07:24.000Z</time>
      </trkpt>
      <trkpt lat="40.386725" lon="-3.37114">
        <ele>699.8</ele>
        <time>1970-01-01T02:07:25.000Z</time>
      </trkpt>
      <trkpt lat="40.386744" lon="-3.37112">
        <ele>700</ele>
        <time>1970-01-01T02:07:26.000Z</time>
      </trkpt>
      <trkpt lat="40.386763" lon="-3.371098">
        <ele>700.2</ele>
        <time>1970-01-01T02:07:27.000Z</time>
      </trkpt>
      <trkpt lat="40.386778" lon="-3.371073">
        <ele>700.2</ele>
        <time>1970-01-01T02:07:28.000Z</time>
      </trkpt>
      <trkpt lat="40.386789" lon="-3.37105">
        <ele>700.4</ele>
        <time>1970-01-01T02:07:29.000Z</time>
      </trkpt>
      <trkpt lat="40.386794" lon="-3.371029">
        <ele>700.6</ele>
        <time>1970-01-01T02:07:30.000Z</time>
      </trkpt>
      <trkpt lat="40.386792" lon="-3.371007">
        <ele>700.8</ele>
        <time>1970-01-01T02:07:31.000Z</time>
      </trkpt>
      <trkpt lat="40.386783" lon="-3.370987">
        <ele>701</ele>
        <time>1970-01-01T02:07:32.000Z</time>
      </trkpt>
      <trkpt lat="40.386768" lon="-3.370974">
        <ele>701.2</ele>
        <time>1970-01-01T02:07:33.000Z</time>
      </trkpt>
      <trkpt lat="40.386746" lon="-3.370967">
        <ele>701.4</ele>
        <time>1970-01-01T02:07:34.000Z</time>
      </trkpt>
      <trkpt lat="40.386721" lon="-3.370962">
        <ele>701.6</ele>
        <time>1970-01-01T02:07:35.000Z</time>
      </trkpt>
      <trkpt lat="40.386695" lon="-3.370957">
        <ele>702</ele>
        <time>1970-01-01T02:07:36.000Z</time>
      </trkpt>
      <trkpt lat="40.38667" lon="-3.37095">
        <ele>702</ele>
        <time>1970-01-01T02:07:37.000Z</time>
      </trkpt>
      <trkpt lat="40.386645" lon="-3.37094">
        <ele>702.4</ele>
        <time>1970-01-01T02:07:38.000Z</time>
      </trkpt>
      <trkpt lat="40.386622" lon="-3.370928">
        <ele>702.4</ele>
        <time>1970-01-01T02:07:39.000Z</time>
      </trkpt>
      <trkpt lat="40.386602" lon="-3.370916">
        <ele>702.6</ele>
        <time>1970-01-01T02:07:40.000Z</time>
      </trkpt>
      <trkpt lat="40.386582" lon="-3.370903">
        <ele>702.8</ele>
        <time>1970-01-01T02:07:41.000Z</time>
      </trkpt>
      <trkpt lat="40.386563" lon="-3.370891">
        <ele>703</ele>
        <time>1970-01-01T02:07:42.000Z</time>
      </trkpt>
      <trkpt lat="40.386543" lon="-3.370873">
        <ele>703.2</ele>
        <time>1970-01-01T02:07:43.000Z</time>
      </trkpt>
      <trkpt lat="40.386523" lon="-3.370854">
        <ele>703.2</ele>
        <time>1970-01-01T02:07:44.000Z</time>
      </trkpt>
      <trkpt lat="40.386503" lon="-3.370837">
        <ele>703.4</ele>
        <time>1970-01-01T02:07:45.000Z</time>
      </trkpt>
      <trkpt lat="40.386484" lon="-3.370818">
        <ele>703.6</ele>
        <time>1970-01-01T02:07:46.000Z</time>
      </trkpt>
      <trkpt lat="40.386464" lon="-3.3708">
        <ele>703.8</ele>
        <time>1970-01-01T02:07:47.000Z</time>
      </trkpt>
      <trkpt lat="40.386446" lon="-3.370781">
        <ele>704</ele>
        <time>1970-01-01T02:07:48.000Z</time>
      </trkpt>
      <trkpt lat="40.386428" lon="-3.370765">
        <ele>704.4</ele>
        <time>1970-01-01T02:07:49.000Z</time>
      </trkpt>
      <trkpt lat="40.386409" lon="-3.370749">
        <ele>704.8</ele>
        <time>1970-01-01T02:07:50.000Z</time>
      </trkpt>
      <trkpt lat="40.386389" lon="-3.370732">
        <ele>704.8</ele>
        <time>1970-01-01T02:07:51.000Z</time>
      </trkpt>
      <trkpt lat="40.386368" lon="-3.370717">
        <ele>705.2</ele>
        <time>1970-01-01T02:07:52.000Z</time>
      </trkpt>
      <trkpt lat="40.386346" lon="-3.370699">
        <ele>705.4</ele>
        <time>1970-01-01T02:07:53.000Z</time>
      </trkpt>
      <trkpt lat="40.386324" lon="-3.370686">
        <ele>705.6</ele>
        <time>1970-01-01T02:07:54.000Z</time>
      </trkpt>
      <trkpt lat="40.386302" lon="-3.370671">
        <ele>705.6</ele>
        <time>1970-01-01T02:07:55.000Z</time>
      </trkpt>
      <trkpt lat="40.38628" lon="-3.370654">
        <ele>705.6</ele>
        <time>1970-01-01T02:07:56.000Z</time>
      </trkpt>
      <trkpt lat="40.386259" lon="-3.370636">
        <ele>705.6</ele>
        <time>1970-01-01T02:07:57.000Z</time>
      </trkpt>
      <trkpt lat="40.386236" lon="-3.370621">
        <ele>705.6</ele>
        <time>1970-01-01T02:07:58.000Z</time>
      </trkpt>
      <trkpt lat="40.386212" lon="-3.370607">
        <ele>705.8</ele>
        <time>1970-01-01T02:07:59.000Z</time>
      </trkpt>
      <trkpt lat="40.38619" lon="-3.370595">
        <ele>705.8</ele>
        <time>1970-01-01T02:08:00.000Z</time>
      </trkpt>
      <trkpt lat="40.386166" lon="-3.370584">
        <ele>705.8</ele>
        <time>1970-01-01T02:08:01.000Z</time>
      </trkpt>
      <trkpt lat="40.386143" lon="-3.370574">
        <ele>705.8</ele>
        <time>1970-01-01T02:08:02.000Z</time>
      </trkpt>
      <trkpt lat="40.386117" lon="-3.370562">
        <ele>705.8</ele>
        <time>1970-01-01T02:08:03.000Z</time>
      </trkpt>
      <trkpt lat="40.386088" lon="-3.370552">
        <ele>705.8</ele>
        <time>1970-01-01T02:08:04.000Z</time>
      </trkpt>
      <trkpt lat="40.38606" lon="-3.370538">
        <ele>705.8</ele>
        <time>1970-01-01T02:08:05.000Z</time>
      </trkpt>
      <trkpt lat="40.386032" lon="-3.370523">
        <ele>705.8</ele>
        <time>1970-01-01T02:08:06.000Z</time>
      </trkpt>
      <trkpt lat="40.386005" lon="-3.370507">
        <ele>705.8</ele>
        <time>1970-01-01T02:08:07.000Z</time>
      </trkpt>
      <trkpt lat="40.38598" lon="-3.370487">
        <ele>705.8</ele>
        <time>1970-01-01T02:08:08.000Z</time>
      </trkpt>
      <trkpt lat="40.385955" lon="-3.370463">
        <ele>705.8</ele>
        <time>1970-01-01T02:08:09.000Z</time>
      </trkpt>
      <trkpt lat="40.38593" lon="-3.370436">
        <ele>705.8</ele>
        <time>1970-01-01T02:08:10.000Z</time>
      </trkpt>
      <trkpt lat="40.385905" lon="-3.370408">
        <ele>705.8</ele>
        <time>1970-01-01T02:08:11.000Z</time>
      </trkpt>
      <trkpt lat="40.385883" lon="-3.370379">
        <ele>705.6</ele>
        <time>1970-01-01T02:08:12.000Z</time>
      </trkpt>
      <trkpt lat="40.385863" lon="-3.37035">
        <ele>705.6</ele>
        <time>1970-01-01T02:08:13.000Z</time>
      </trkpt>
      <trkpt lat="40.385843" lon="-3.370317">
        <ele>705.4</ele>
        <time>1970-01-01T02:08:14.000Z</time>
      </trkpt>
      <trkpt lat="40.385822" lon="-3.370287">
        <ele>705.4</ele>
        <time>1970-01-01T02:08:15.000Z</time>
      </trkpt>
      <trkpt lat="40.3858" lon="-3.37026">
        <ele>705.4</ele>
        <time>1970-01-01T02:08:16.000Z</time>
      </trkpt>
      <trkpt lat="40.385775" lon="-3.370235">
        <ele>705.4</ele>
        <time>1970-01-01T02:08:17.000Z</time>
      </trkpt>
      <trkpt lat="40.38575" lon="-3.370215">
        <ele>705.2</ele>
        <time>1970-01-01T02:08:18.000Z</time>
      </trkpt>
      <trkpt lat="40.385728" lon="-3.370191">
        <ele>705.2</ele>
        <time>1970-01-01T02:08:19.000Z</time>
      </trkpt>
      <trkpt lat="40.385707" lon="-3.370167">
        <ele>705.2</ele>
        <time>1970-01-01T02:08:20.000Z</time>
      </trkpt>
      <trkpt lat="40.385689" lon="-3.370138">
        <ele>705.2</ele>
        <time>1970-01-01T02:08:21.000Z</time>
      </trkpt>
      <trkpt lat="40.385674" lon="-3.370104">
        <ele>705.2</ele>
        <time>1970-01-01T02:08:22.000Z</time>
      </trkpt>
      <trkpt lat="40.385663" lon="-3.370068">
        <ele>705.2</ele>
        <time>1970-01-01T02:08:23.000Z</time>
      </trkpt>
      <trkpt lat="40.385656" lon="-3.370032">
        <ele>705.4</ele>
        <time>1970-01-01T02:08:24.000Z</time>
      </trkpt>
      <trkpt lat="40.385647" lon="-3.369998">
        <ele>705.4</ele>
        <time>1970-01-01T02:08:25.000Z</time>
      </trkpt>
      <trkpt lat="40.385631" lon="-3.36997">
        <ele>705.6</ele>
        <time>1970-01-01T02:08:26.000Z</time>
      </trkpt>
      <trkpt lat="40.385614" lon="-3.36995">
        <ele>705.6</ele>
        <time>1970-01-01T02:08:27.000Z</time>
      </trkpt>
      <trkpt lat="40.385596" lon="-3.36993">
        <ele>705.8</ele>
        <time>1970-01-01T02:08:28.000Z</time>
      </trkpt>
      <trkpt lat="40.385584" lon="-3.369904">
        <ele>705.8</ele>
        <time>1970-01-01T02:08:29.000Z</time>
      </trkpt>
      <trkpt lat="40.385573" lon="-3.369875">
        <ele>706</ele>
        <time>1970-01-01T02:08:30.000Z</time>
      </trkpt>
      <trkpt lat="40.385567" lon="-3.369847">
        <ele>706</ele>
        <time>1970-01-01T02:08:31.000Z</time>
      </trkpt>
      <trkpt lat="40.385563" lon="-3.369822">
        <ele>706.2</ele>
        <time>1970-01-01T02:08:32.000Z</time>
      </trkpt>
      <trkpt lat="40.385558" lon="-3.369798">
        <ele>706.4</ele>
        <time>1970-01-01T02:08:33.000Z</time>
      </trkpt>
      <trkpt lat="40.385553" lon="-3.369776">
        <ele>706.4</ele>
        <time>1970-01-01T02:08:34.000Z</time>
      </trkpt>
      <trkpt lat="40.385546" lon="-3.369755">
        <ele>706.8</ele>
        <time>1970-01-01T02:08:35.000Z</time>
      </trkpt>
      <trkpt lat="40.38554" lon="-3.369734">
        <ele>707</ele>
        <time>1970-01-01T02:08:36.000Z</time>
      </trkpt>
      <trkpt lat="40.385533" lon="-3.369714">
        <ele>707.4</ele>
        <time>1970-01-01T02:08:37.000Z</time>
      </trkpt>
      <trkpt lat="40.385522" lon="-3.369692">
        <ele>707.8</ele>
        <time>1970-01-01T02:08:38.000Z</time>
      </trkpt>
      <trkpt lat="40.385509" lon="-3.36967">
        <ele>708</ele>
        <time>1970-01-01T02:08:39.000Z</time>
      </trkpt>
      <trkpt lat="40.385496" lon="-3.369652">
        <ele>708.4</ele>
        <time>1970-01-01T02:08:40.000Z</time>
      </trkpt>
      <trkpt lat="40.38548" lon="-3.369634">
        <ele>708.6</ele>
        <time>1970-01-01T02:08:41.000Z</time>
      </trkpt>
      <trkpt lat="40.38546" lon="-3.369609">
        <ele>709</ele>
        <time>1970-01-01T02:08:42.000Z</time>
      </trkpt>
      <trkpt lat="40.38544" lon="-3.369585">
        <ele>709</ele>
        <time>1970-01-01T02:08:43.000Z</time>
      </trkpt>
      <trkpt lat="40.38542" lon="-3.369557">
        <ele>709.2</ele>
        <time>1970-01-01T02:08:44.000Z</time>
      </trkpt>
      <trkpt lat="40.385402" lon="-3.369529">
        <ele>709.6</ele>
        <time>1970-01-01T02:08:45.000Z</time>
      </trkpt>
      <trkpt lat="40.385384" lon="-3.369503">
        <ele>709.6</ele>
        <time>1970-01-01T02:08:46.000Z</time>
      </trkpt>
      <trkpt lat="40.385364" lon="-3.369478">
        <ele>709.8</ele>
        <time>1970-01-01T02:08:47.000Z</time>
      </trkpt>
      <trkpt lat="40.385343" lon="-3.369452">
        <ele>709.8</ele>
        <time>1970-01-01T02:08:48.000Z</time>
      </trkpt>
      <trkpt lat="40.385323" lon="-3.369424">
        <ele>710</ele>
        <time>1970-01-01T02:08:49.000Z</time>
      </trkpt>
      <trkpt lat="40.385303" lon="-3.369394">
        <ele>710</ele>
        <time>1970-01-01T02:08:50.000Z</time>
      </trkpt>
      <trkpt lat="40.385288" lon="-3.369362">
        <ele>710</ele>
        <time>1970-01-01T02:08:51.000Z</time>
      </trkpt>
      <trkpt lat="40.385272" lon="-3.369329">
        <ele>710</ele>
        <time>1970-01-01T02:08:52.000Z</time>
      </trkpt>
      <trkpt lat="40.385254" lon="-3.369299">
        <ele>710.4</ele>
        <time>1970-01-01T02:08:53.000Z</time>
      </trkpt>
      <trkpt lat="40.385235" lon="-3.36927">
        <ele>710.4</ele>
        <time>1970-01-01T02:08:54.000Z</time>
      </trkpt>
      <trkpt lat="40.385216" lon="-3.369246">
        <ele>710.6</ele>
        <time>1970-01-01T02:08:55.000Z</time>
      </trkpt>
      <trkpt lat="40.385197" lon="-3.369225">
        <ele>710.8</ele>
        <time>1970-01-01T02:08:56.000Z</time>
      </trkpt>
      <trkpt lat="40.385181" lon="-3.369205">
        <ele>710.8</ele>
        <time>1970-01-01T02:08:57.000Z</time>
      </trkpt>
      <trkpt lat="40.38516" lon="-3.369179">
        <ele>711</ele>
        <time>1970-01-01T02:08:58.000Z</time>
      </trkpt>
      <trkpt lat="40.38514" lon="-3.369153">
        <ele>711.2</ele>
        <time>1970-01-01T02:08:59.000Z</time>
      </trkpt>
      <trkpt lat="40.385121" lon="-3.369129">
        <ele>711.4</ele>
        <time>1970-01-01T02:09:00.000Z</time>
      </trkpt>
      <trkpt lat="40.385102" lon="-3.369105">
        <ele>711.8</ele>
        <time>1970-01-01T02:09:01.000Z</time>
      </trkpt>
      <trkpt lat="40.38508" lon="-3.369077">
        <ele>711.8</ele>
        <time>1970-01-01T02:09:02.000Z</time>
      </trkpt>
      <trkpt lat="40.385062" lon="-3.36905">
        <ele>712</ele>
        <time>1970-01-01T02:09:03.000Z</time>
      </trkpt>
      <trkpt lat="40.385043" lon="-3.36902">
        <ele>712.2</ele>
        <time>1970-01-01T02:09:04.000Z</time>
      </trkpt>
      <trkpt lat="40.385023" lon="-3.368993">
        <ele>712.4</ele>
        <time>1970-01-01T02:09:05.000Z</time>
      </trkpt>
      <trkpt lat="40.385004" lon="-3.368965">
        <ele>712.4</ele>
        <time>1970-01-01T02:09:06.000Z</time>
      </trkpt>
      <trkpt lat="40.384986" lon="-3.368936">
        <ele>712.6</ele>
        <time>1970-01-01T02:09:07.000Z</time>
      </trkpt>
      <trkpt lat="40.384968" lon="-3.368907">
        <ele>712.6</ele>
        <time>1970-01-01T02:09:08.000Z</time>
      </trkpt>
      <trkpt lat="40.384952" lon="-3.368875">
        <ele>712.8</ele>
        <time>1970-01-01T02:09:09.000Z</time>
      </trkpt>
      <trkpt lat="40.384939" lon="-3.368841">
        <ele>713</ele>
        <time>1970-01-01T02:09:10.000Z</time>
      </trkpt>
      <trkpt lat="40.384928" lon="-3.368806">
        <ele>713</ele>
        <time>1970-01-01T02:09:11.000Z</time>
      </trkpt>
      <trkpt lat="40.384918" lon="-3.368772">
        <ele>713.2</ele>
        <time>1970-01-01T02:09:12.000Z</time>
      </trkpt>
      <trkpt lat="40.384906" lon="-3.368742">
        <ele>713.4</ele>
        <time>1970-01-01T02:09:13.000Z</time>
      </trkpt>
      <trkpt lat="40.384892" lon="-3.368713">
        <ele>713.6</ele>
        <time>1970-01-01T02:09:14.000Z</time>
      </trkpt>
      <trkpt lat="40.384877" lon="-3.368686">
        <ele>713.6</ele>
        <time>1970-01-01T02:09:15.000Z</time>
      </trkpt>
      <trkpt lat="40.384862" lon="-3.368657">
        <ele>713.8</ele>
        <time>1970-01-01T02:09:16.000Z</time>
      </trkpt>
      <trkpt lat="40.384849" lon="-3.368626">
        <ele>713.8</ele>
        <time>1970-01-01T02:09:17.000Z</time>
      </trkpt>
      <trkpt lat="40.384836" lon="-3.368596">
        <ele>713.8</ele>
        <time>1970-01-01T02:09:18.000Z</time>
      </trkpt>
      <trkpt lat="40.384823" lon="-3.368564">
        <ele>714.2</ele>
        <time>1970-01-01T02:09:19.000Z</time>
      </trkpt>
      <trkpt lat="40.384811" lon="-3.36853">
        <ele>714.2</ele>
        <time>1970-01-01T02:09:20.000Z</time>
      </trkpt>
      <trkpt lat="40.384797" lon="-3.368489">
        <ele>714.6</ele>
        <time>1970-01-01T02:09:21.000Z</time>
      </trkpt>
      <trkpt lat="40.384788" lon="-3.368462">
        <ele>714.8</ele>
        <time>1970-01-01T02:09:22.000Z</time>
      </trkpt>
      <trkpt lat="40.384775" lon="-3.368429">
        <ele>715</ele>
        <time>1970-01-01T02:09:23.000Z</time>
      </trkpt>
      <trkpt lat="40.384763" lon="-3.368396">
        <ele>715.2</ele>
        <time>1970-01-01T02:09:24.000Z</time>
      </trkpt>
      <trkpt lat="40.38475" lon="-3.368366">
        <ele>715.4</ele>
        <time>1970-01-01T02:09:25.000Z</time>
      </trkpt>
      <trkpt lat="40.384735" lon="-3.368335">
        <ele>715.4</ele>
        <time>1970-01-01T02:09:26.000Z</time>
      </trkpt>
      <trkpt lat="40.384722" lon="-3.368301">
        <ele>715.6</ele>
        <time>1970-01-01T02:09:27.000Z</time>
      </trkpt>
      <trkpt lat="40.384711" lon="-3.368267">
        <ele>715.8</ele>
        <time>1970-01-01T02:09:28.000Z</time>
      </trkpt>
      <trkpt lat="40.384701" lon="-3.368231">
        <ele>716</ele>
        <time>1970-01-01T02:09:29.000Z</time>
      </trkpt>
      <trkpt lat="40.384692" lon="-3.368195">
        <ele>716.2</ele>
        <time>1970-01-01T02:09:30.000Z</time>
      </trkpt>
      <trkpt lat="40.384684" lon="-3.368159">
        <ele>716.2</ele>
        <time>1970-01-01T02:09:31.000Z</time>
      </trkpt>
      <trkpt lat="40.384677" lon="-3.368122">
        <ele>716.6</ele>
        <time>1970-01-01T02:09:32.000Z</time>
      </trkpt>
      <trkpt lat="40.384668" lon="-3.368088">
        <ele>717</ele>
        <time>1970-01-01T02:09:33.000Z</time>
      </trkpt>
      <trkpt lat="40.384659" lon="-3.368053">
        <ele>717.2</ele>
        <time>1970-01-01T02:09:34.000Z</time>
      </trkpt>
      <trkpt lat="40.38465" lon="-3.368017">
        <ele>717.6</ele>
        <time>1970-01-01T02:09:35.000Z</time>
      </trkpt>
      <trkpt lat="40.384645" lon="-3.36798">
        <ele>717.8</ele>
        <time>1970-01-01T02:09:36.000Z</time>
      </trkpt>
      <trkpt lat="40.384645" lon="-3.367944">
        <ele>717.8</ele>
        <time>1970-01-01T02:09:37.000Z</time>
      </trkpt>
      <trkpt lat="40.38465" lon="-3.367906">
        <ele>718</ele>
        <time>1970-01-01T02:09:38.000Z</time>
      </trkpt>
      <trkpt lat="40.384659" lon="-3.36787">
        <ele>718.4</ele>
        <time>1970-01-01T02:09:39.000Z</time>
      </trkpt>
      <trkpt lat="40.384666" lon="-3.367838">
        <ele>718.6</ele>
        <time>1970-01-01T02:09:40.000Z</time>
      </trkpt>
      <trkpt lat="40.384669" lon="-3.36781">
        <ele>719</ele>
        <time>1970-01-01T02:09:41.000Z</time>
      </trkpt>
      <trkpt lat="40.384666" lon="-3.36778">
        <ele>719.2</ele>
        <time>1970-01-01T02:09:42.000Z</time>
      </trkpt>
      <trkpt lat="40.384666" lon="-3.367746">
        <ele>719.4</ele>
        <time>1970-01-01T02:09:43.000Z</time>
      </trkpt>
      <trkpt lat="40.384666" lon="-3.367709">
        <ele>719.6</ele>
        <time>1970-01-01T02:09:44.000Z</time>
      </trkpt>
      <trkpt lat="40.384667" lon="-3.367671">
        <ele>719.6</ele>
        <time>1970-01-01T02:09:45.000Z</time>
      </trkpt>
      <trkpt lat="40.384676" lon="-3.367634">
        <ele>720</ele>
        <time>1970-01-01T02:09:46.000Z</time>
      </trkpt>
      <trkpt lat="40.384688" lon="-3.367599">
        <ele>720.2</ele>
        <time>1970-01-01T02:09:47.000Z</time>
      </trkpt>
      <trkpt lat="40.384697" lon="-3.367563">
        <ele>720.4</ele>
        <time>1970-01-01T02:09:48.000Z</time>
      </trkpt>
      <trkpt lat="40.384699" lon="-3.367529">
        <ele>720.8</ele>
        <time>1970-01-01T02:09:49.000Z</time>
      </trkpt>
      <trkpt lat="40.3847" lon="-3.367492">
        <ele>720.8</ele>
        <time>1970-01-01T02:09:50.000Z</time>
      </trkpt>
      <trkpt lat="40.3847" lon="-3.367453">
        <ele>721</ele>
        <time>1970-01-01T02:09:51.000Z</time>
      </trkpt>
      <trkpt lat="40.384699" lon="-3.367416">
        <ele>721.2</ele>
        <time>1970-01-01T02:09:52.000Z</time>
      </trkpt>
      <trkpt lat="40.384696" lon="-3.367379">
        <ele>721.2</ele>
        <time>1970-01-01T02:09:53.000Z</time>
      </trkpt>
      <trkpt lat="40.384694" lon="-3.367338">
        <ele>721.4</ele>
        <time>1970-01-01T02:09:54.000Z</time>
      </trkpt>
      <trkpt lat="40.384692" lon="-3.367294">
        <ele>721.6</ele>
        <time>1970-01-01T02:09:55.000Z</time>
      </trkpt>
      <trkpt lat="40.38469" lon="-3.367246">
        <ele>721.8</ele>
        <time>1970-01-01T02:09:56.000Z</time>
      </trkpt>
      <trkpt lat="40.384691" lon="-3.367198">
        <ele>721.8</ele>
        <time>1970-01-01T02:09:57.000Z</time>
      </trkpt>
      <trkpt lat="40.384693" lon="-3.367153">
        <ele>722</ele>
        <time>1970-01-01T02:09:58.000Z</time>
      </trkpt>
      <trkpt lat="40.384697" lon="-3.367111">
        <ele>722</ele>
        <time>1970-01-01T02:09:59.000Z</time>
      </trkpt>
      <trkpt lat="40.384701" lon="-3.367073">
        <ele>722</ele>
        <time>1970-01-01T02:10:00.000Z</time>
      </trkpt>
      <trkpt lat="40.384706" lon="-3.367036">
        <ele>722</ele>
        <time>1970-01-01T02:10:01.000Z</time>
      </trkpt>
      <trkpt lat="40.384714" lon="-3.367">
        <ele>722.2</ele>
        <time>1970-01-01T02:10:02.000Z</time>
      </trkpt>
      <trkpt lat="40.384723" lon="-3.366959">
        <ele>722.4</ele>
        <time>1970-01-01T02:10:03.000Z</time>
      </trkpt>
      <trkpt lat="40.384729" lon="-3.36692">
        <ele>722.6</ele>
        <time>1970-01-01T02:10:04.000Z</time>
      </trkpt>
      <trkpt lat="40.384734" lon="-3.366883">
        <ele>722.8</ele>
        <time>1970-01-01T02:10:05.000Z</time>
      </trkpt>
      <trkpt lat="40.384738" lon="-3.366847">
        <ele>723</ele>
        <time>1970-01-01T02:10:06.000Z</time>
      </trkpt>
      <trkpt lat="40.384738" lon="-3.366813">
        <ele>723.2</ele>
        <time>1970-01-01T02:10:07.000Z</time>
      </trkpt>
      <trkpt lat="40.384737" lon="-3.366778">
        <ele>723.2</ele>
        <time>1970-01-01T02:10:08.000Z</time>
      </trkpt>
      <trkpt lat="40.384738" lon="-3.366743">
        <ele>723.4</ele>
        <time>1970-01-01T02:10:09.000Z</time>
      </trkpt>
      <trkpt lat="40.384743" lon="-3.366708">
        <ele>723.6</ele>
        <time>1970-01-01T02:10:10.000Z</time>
      </trkpt>
      <trkpt lat="40.38475" lon="-3.366672">
        <ele>723.8</ele>
        <time>1970-01-01T02:10:11.000Z</time>
      </trkpt>
      <trkpt lat="40.384756" lon="-3.366635">
        <ele>724</ele>
        <time>1970-01-01T02:10:12.000Z</time>
      </trkpt>
      <trkpt lat="40.384758" lon="-3.366598">
        <ele>724.4</ele>
        <time>1970-01-01T02:10:13.000Z</time>
      </trkpt>
      <trkpt lat="40.384757" lon="-3.366562">
        <ele>724.6</ele>
        <time>1970-01-01T02:10:14.000Z</time>
      </trkpt>
      <trkpt lat="40.384759" lon="-3.366522">
        <ele>724.6</ele>
        <time>1970-01-01T02:10:15.000Z</time>
      </trkpt>
      <trkpt lat="40.384767" lon="-3.366483">
        <ele>725</ele>
        <time>1970-01-01T02:10:16.000Z</time>
      </trkpt>
      <trkpt lat="40.384782" lon="-3.366445">
        <ele>725.2</ele>
        <time>1970-01-01T02:10:17.000Z</time>
      </trkpt>
      <trkpt lat="40.384796" lon="-3.366414">
        <ele>725.2</ele>
        <time>1970-01-01T02:10:18.000Z</time>
      </trkpt>
      <trkpt lat="40.384802" lon="-3.366383">
        <ele>725.4</ele>
        <time>1970-01-01T02:10:19.000Z</time>
      </trkpt>
      <trkpt lat="40.384795" lon="-3.366355">
        <ele>725.8</ele>
        <time>1970-01-01T02:10:20.000Z</time>
      </trkpt>
      <trkpt lat="40.384778" lon="-3.366327">
        <ele>726</ele>
        <time>1970-01-01T02:10:21.000Z</time>
      </trkpt>
      <trkpt lat="40.384756" lon="-3.366301">
        <ele>726.2</ele>
        <time>1970-01-01T02:10:22.000Z</time>
      </trkpt>
      <trkpt lat="40.384734" lon="-3.366271">
        <ele>726.4</ele>
        <time>1970-01-01T02:10:23.000Z</time>
      </trkpt>
      <trkpt lat="40.384716" lon="-3.36624">
        <ele>726.4</ele>
        <time>1970-01-01T02:10:24.000Z</time>
      </trkpt>
      <trkpt lat="40.384699" lon="-3.366206">
        <ele>726.6</ele>
        <time>1970-01-01T02:10:25.000Z</time>
      </trkpt>
      <trkpt lat="40.384677" lon="-3.366176">
        <ele>726.6</ele>
        <time>1970-01-01T02:10:26.000Z</time>
      </trkpt>
      <trkpt lat="40.384657" lon="-3.366149">
        <ele>726.8</ele>
        <time>1970-01-01T02:10:27.000Z</time>
      </trkpt>
      <trkpt lat="40.384641" lon="-3.36612">
        <ele>726.8</ele>
        <time>1970-01-01T02:10:28.000Z</time>
      </trkpt>
      <trkpt lat="40.384628" lon="-3.366091">
        <ele>727</ele>
        <time>1970-01-01T02:10:29.000Z</time>
      </trkpt>
      <trkpt lat="40.384616" lon="-3.366062">
        <ele>727.2</ele>
        <time>1970-01-01T02:10:30.000Z</time>
      </trkpt>
      <trkpt lat="40.384607" lon="-3.366032">
        <ele>727.4</ele>
        <time>1970-01-01T02:10:31.000Z</time>
      </trkpt>
      <trkpt lat="40.384598" lon="-3.366002">
        <ele>727.4</ele>
        <time>1970-01-01T02:10:32.000Z</time>
      </trkpt>
      <trkpt lat="40.384591" lon="-3.365972">
        <ele>727.6</ele>
        <time>1970-01-01T02:10:33.000Z</time>
      </trkpt>
      <trkpt lat="40.384586" lon="-3.365942">
        <ele>727.8</ele>
        <time>1970-01-01T02:10:34.000Z</time>
      </trkpt>
      <trkpt lat="40.384584" lon="-3.36591">
        <ele>727.8</ele>
        <time>1970-01-01T02:10:35.000Z</time>
      </trkpt>
      <trkpt lat="40.384582" lon="-3.365879">
        <ele>728.2</ele>
        <time>1970-01-01T02:10:36.000Z</time>
      </trkpt>
      <trkpt lat="40.38458" lon="-3.365845">
        <ele>728.4</ele>
        <time>1970-01-01T02:10:37.000Z</time>
      </trkpt>
      <trkpt lat="40.384574" lon="-3.365809">
        <ele>729</ele>
        <time>1970-01-01T02:10:38.000Z</time>
      </trkpt>
      <trkpt lat="40.384563" lon="-3.365774">
        <ele>729.4</ele>
        <time>1970-01-01T02:10:39.000Z</time>
      </trkpt>
      <trkpt lat="40.38455" lon="-3.365732">
        <ele>729.6</ele>
        <time>1970-01-01T02:10:40.000Z</time>
      </trkpt>
      <trkpt lat="40.384542" lon="-3.365704">
        <ele>729.8</ele>
        <time>1970-01-01T02:10:41.000Z</time>
      </trkpt>
      <trkpt lat="40.384534" lon="-3.365667">
        <ele>730</ele>
        <time>1970-01-01T02:10:42.000Z</time>
      </trkpt>
      <trkpt lat="40.384527" lon="-3.365629">
        <ele>730.2</ele>
        <time>1970-01-01T02:10:43.000Z</time>
      </trkpt>
      <trkpt lat="40.384521" lon="-3.365592">
        <ele>730.2</ele>
        <time>1970-01-01T02:10:44.000Z</time>
      </trkpt>
      <trkpt lat="40.384515" lon="-3.365555">
        <ele>730.4</ele>
        <time>1970-01-01T02:10:45.000Z</time>
      </trkpt>
      <trkpt lat="40.384514" lon="-3.365519">
        <ele>730.6</ele>
        <time>1970-01-01T02:10:46.000Z</time>
      </trkpt>
      <trkpt lat="40.384515" lon="-3.365486">
        <ele>730.8</ele>
        <time>1970-01-01T02:10:47.000Z</time>
      </trkpt>
      <trkpt lat="40.384512" lon="-3.365454">
        <ele>731</ele>
        <time>1970-01-01T02:10:48.000Z</time>
      </trkpt>
      <trkpt lat="40.384504" lon="-3.365418">
        <ele>731.2</ele>
        <time>1970-01-01T02:10:49.000Z</time>
      </trkpt>
      <trkpt lat="40.384494" lon="-3.365381">
        <ele>731.4</ele>
        <time>1970-01-01T02:10:50.000Z</time>
      </trkpt>
      <trkpt lat="40.384482" lon="-3.365345">
        <ele>731.4</ele>
        <time>1970-01-01T02:10:51.000Z</time>
      </trkpt>
      <trkpt lat="40.384473" lon="-3.365314">
        <ele>731.8</ele>
        <time>1970-01-01T02:10:52.000Z</time>
      </trkpt>
      <trkpt lat="40.384466" lon="-3.365291">
        <ele>732</ele>
        <time>1970-01-01T02:10:53.000Z</time>
      </trkpt>
      <trkpt lat="40.384461" lon="-3.365273">
        <ele>732</ele>
        <time>1970-01-01T02:10:54.000Z</time>
      </trkpt>
      <trkpt lat="40.384456" lon="-3.365253">
        <ele>732</ele>
        <time>1970-01-01T02:10:55.000Z</time>
      </trkpt>
      <trkpt lat="40.384452" lon="-3.365228">
        <ele>732.2</ele>
        <time>1970-01-01T02:10:56.000Z</time>
      </trkpt>
      <trkpt lat="40.384446" lon="-3.365206">
        <ele>732.2</ele>
        <time>1970-01-01T02:10:57.000Z</time>
      </trkpt>
      <trkpt lat="40.384438" lon="-3.365187">
        <ele>732.2</ele>
        <time>1970-01-01T02:10:58.000Z</time>
      </trkpt>
      <trkpt lat="40.384429" lon="-3.365166">
        <ele>732.4</ele>
        <time>1970-01-01T02:10:59.000Z</time>
      </trkpt>
      <trkpt lat="40.384417" lon="-3.365144">
        <ele>732.4</ele>
        <time>1970-01-01T02:11:00.000Z</time>
      </trkpt>
      <trkpt lat="40.384407" lon="-3.365115">
        <ele>732.6</ele>
        <time>1970-01-01T02:11:01.000Z</time>
      </trkpt>
      <trkpt lat="40.384399" lon="-3.365082">
        <ele>733</ele>
        <time>1970-01-01T02:11:02.000Z</time>
      </trkpt>
      <trkpt lat="40.384394" lon="-3.365051">
        <ele>733</ele>
        <time>1970-01-01T02:11:03.000Z</time>
      </trkpt>
      <trkpt lat="40.384389" lon="-3.365022">
        <ele>733.4</ele>
        <time>1970-01-01T02:11:04.000Z</time>
      </trkpt>
      <trkpt lat="40.384383" lon="-3.364992">
        <ele>733.4</ele>
        <time>1970-01-01T02:11:05.000Z</time>
      </trkpt>
      <trkpt lat="40.384379" lon="-3.364966">
        <ele>733.8</ele>
        <time>1970-01-01T02:11:06.000Z</time>
      </trkpt>
      <trkpt lat="40.384376" lon="-3.36494">
        <ele>734</ele>
        <time>1970-01-01T02:11:07.000Z</time>
      </trkpt>
      <trkpt lat="40.384375" lon="-3.364912">
        <ele>734.2</ele>
        <time>1970-01-01T02:11:08.000Z</time>
      </trkpt>
      <trkpt lat="40.384374" lon="-3.364883">
        <ele>734.4</ele>
        <time>1970-01-01T02:11:09.000Z</time>
      </trkpt>
      <trkpt lat="40.384374" lon="-3.364855">
        <ele>734.6</ele>
        <time>1970-01-01T02:11:10.000Z</time>
      </trkpt>
      <trkpt lat="40.384375" lon="-3.364825">
        <ele>734.8</ele>
        <time>1970-01-01T02:11:11.000Z</time>
      </trkpt>
      <trkpt lat="40.384373" lon="-3.364794">
        <ele>734.8</ele>
        <time>1970-01-01T02:11:12.000Z</time>
      </trkpt>
      <trkpt lat="40.384371" lon="-3.36476">
        <ele>735</ele>
        <time>1970-01-01T02:11:13.000Z</time>
      </trkpt>
      <trkpt lat="40.384371" lon="-3.36473">
        <ele>735.2</ele>
        <time>1970-01-01T02:11:14.000Z</time>
      </trkpt>
      <trkpt lat="40.384371" lon="-3.364699">
        <ele>735.4</ele>
        <time>1970-01-01T02:11:15.000Z</time>
      </trkpt>
      <trkpt lat="40.384372" lon="-3.364671">
        <ele>735.4</ele>
        <time>1970-01-01T02:11:16.000Z</time>
      </trkpt>
      <trkpt lat="40.38437" lon="-3.364639">
        <ele>735.6</ele>
        <time>1970-01-01T02:11:17.000Z</time>
      </trkpt>
      <trkpt lat="40.384368" lon="-3.364611">
        <ele>735.8</ele>
        <time>1970-01-01T02:11:18.000Z</time>
      </trkpt>
      <trkpt lat="40.384366" lon="-3.364581">
        <ele>735.8</ele>
        <time>1970-01-01T02:11:19.000Z</time>
      </trkpt>
      <trkpt lat="40.384364" lon="-3.364549">
        <ele>736.2</ele>
        <time>1970-01-01T02:11:20.000Z</time>
      </trkpt>
      <trkpt lat="40.384358" lon="-3.364515">
        <ele>736.2</ele>
        <time>1970-01-01T02:11:21.000Z</time>
      </trkpt>
      <trkpt lat="40.384353" lon="-3.364482">
        <ele>736.4</ele>
        <time>1970-01-01T02:11:22.000Z</time>
      </trkpt>
      <trkpt lat="40.384352" lon="-3.364448">
        <ele>736.4</ele>
        <time>1970-01-01T02:11:23.000Z</time>
      </trkpt>
      <trkpt lat="40.384356" lon="-3.364416">
        <ele>736.6</ele>
        <time>1970-01-01T02:11:24.000Z</time>
      </trkpt>
      <trkpt lat="40.384357" lon="-3.364383">
        <ele>736.6</ele>
        <time>1970-01-01T02:11:25.000Z</time>
      </trkpt>
      <trkpt lat="40.384356" lon="-3.364352">
        <ele>736.8</ele>
        <time>1970-01-01T02:11:26.000Z</time>
      </trkpt>
      <trkpt lat="40.384358" lon="-3.364323">
        <ele>737.2</ele>
        <time>1970-01-01T02:11:27.000Z</time>
      </trkpt>
      <trkpt lat="40.384361" lon="-3.364297">
        <ele>737.2</ele>
        <time>1970-01-01T02:11:28.000Z</time>
      </trkpt>
      <trkpt lat="40.384364" lon="-3.364271">
        <ele>737.6</ele>
        <time>1970-01-01T02:11:29.000Z</time>
      </trkpt>
      <trkpt lat="40.384371" lon="-3.364243">
        <ele>737.6</ele>
        <time>1970-01-01T02:11:30.000Z</time>
      </trkpt>
      <trkpt lat="40.384377" lon="-3.364214">
        <ele>738</ele>
        <time>1970-01-01T02:11:31.000Z</time>
      </trkpt>
      <trkpt lat="40.384384" lon="-3.364184">
        <ele>738.2</ele>
        <time>1970-01-01T02:11:32.000Z</time>
      </trkpt>
      <trkpt lat="40.384394" lon="-3.364155">
        <ele>738.6</ele>
        <time>1970-01-01T02:11:33.000Z</time>
      </trkpt>
      <trkpt lat="40.384402" lon="-3.364123">
        <ele>739.2</ele>
        <time>1970-01-01T02:11:34.000Z</time>
      </trkpt>
      <trkpt lat="40.384409" lon="-3.364087">
        <ele>739.2</ele>
        <time>1970-01-01T02:11:35.000Z</time>
      </trkpt>
      <trkpt lat="40.384415" lon="-3.364056">
        <ele>739.4</ele>
        <time>1970-01-01T02:11:36.000Z</time>
      </trkpt>
      <trkpt lat="40.384424" lon="-3.364026">
        <ele>739.6</ele>
        <time>1970-01-01T02:11:37.000Z</time>
      </trkpt>
      <trkpt lat="40.384431" lon="-3.363997">
        <ele>739.8</ele>
        <time>1970-01-01T02:11:38.000Z</time>
      </trkpt>
      <trkpt lat="40.384437" lon="-3.363969">
        <ele>740</ele>
        <time>1970-01-01T02:11:39.000Z</time>
      </trkpt>
      <trkpt lat="40.384442" lon="-3.363943">
        <ele>740.2</ele>
        <time>1970-01-01T02:11:40.000Z</time>
      </trkpt>
      <trkpt lat="40.384444" lon="-3.363917">
        <ele>740.2</ele>
        <time>1970-01-01T02:11:41.000Z</time>
      </trkpt>
      <trkpt lat="40.384447" lon="-3.36389">
        <ele>740.2</ele>
        <time>1970-01-01T02:11:42.000Z</time>
      </trkpt>
      <trkpt lat="40.384453" lon="-3.363865">
        <ele>740.6</ele>
        <time>1970-01-01T02:11:43.000Z</time>
      </trkpt>
      <trkpt lat="40.384459" lon="-3.363835">
        <ele>740.6</ele>
        <time>1970-01-01T02:11:44.000Z</time>
      </trkpt>
      <trkpt lat="40.384465" lon="-3.363807">
        <ele>741</ele>
        <time>1970-01-01T02:11:45.000Z</time>
      </trkpt>
      <trkpt lat="40.384475" lon="-3.36378">
        <ele>741</ele>
        <time>1970-01-01T02:11:46.000Z</time>
      </trkpt>
      <trkpt lat="40.384486" lon="-3.363755">
        <ele>741.2</ele>
        <time>1970-01-01T02:11:47.000Z</time>
      </trkpt>
      <trkpt lat="40.384498" lon="-3.36373">
        <ele>741.4</ele>
        <time>1970-01-01T02:11:48.000Z</time>
      </trkpt>
      <trkpt lat="40.384514" lon="-3.363704">
        <ele>741.8</ele>
        <time>1970-01-01T02:11:49.000Z</time>
      </trkpt>
      <trkpt lat="40.38453" lon="-3.363676">
        <ele>742</ele>
        <time>1970-01-01T02:11:50.000Z</time>
      </trkpt>
      <trkpt lat="40.384548" lon="-3.36365">
        <ele>742</ele>
        <time>1970-01-01T02:11:51.000Z</time>
      </trkpt>
      <trkpt lat="40.384562" lon="-3.36362">
        <ele>742</ele>
        <time>1970-01-01T02:11:52.000Z</time>
      </trkpt>
      <trkpt lat="40.384572" lon="-3.363587">
        <ele>742</ele>
        <time>1970-01-01T02:11:53.000Z</time>
      </trkpt>
      <trkpt lat="40.38458" lon="-3.363553">
        <ele>742.2</ele>
        <time>1970-01-01T02:11:54.000Z</time>
      </trkpt>
      <trkpt lat="40.384586" lon="-3.363521">
        <ele>742.2</ele>
        <time>1970-01-01T02:11:55.000Z</time>
      </trkpt>
      <trkpt lat="40.384596" lon="-3.363491">
        <ele>742.6</ele>
        <time>1970-01-01T02:11:56.000Z</time>
      </trkpt>
      <trkpt lat="40.384608" lon="-3.363462">
        <ele>742.8</ele>
        <time>1970-01-01T02:11:57.000Z</time>
      </trkpt>
      <trkpt lat="40.384621" lon="-3.363435">
        <ele>743</ele>
        <time>1970-01-01T02:11:58.000Z</time>
      </trkpt>
      <trkpt lat="40.384634" lon="-3.36341">
        <ele>743.2</ele>
        <time>1970-01-01T02:11:59.000Z</time>
      </trkpt>
      <trkpt lat="40.384647" lon="-3.363385">
        <ele>743.4</ele>
        <time>1970-01-01T02:12:00.000Z</time>
      </trkpt>
      <trkpt lat="40.384661" lon="-3.363366">
        <ele>743.8</ele>
        <time>1970-01-01T02:12:01.000Z</time>
      </trkpt>
      <trkpt lat="40.384674" lon="-3.363346">
        <ele>744</ele>
        <time>1970-01-01T02:12:02.000Z</time>
      </trkpt>
      <trkpt lat="40.384688" lon="-3.363325">
        <ele>744.4</ele>
        <time>1970-01-01T02:12:03.000Z</time>
      </trkpt>
      <trkpt lat="40.384701" lon="-3.363304">
        <ele>744.6</ele>
        <time>1970-01-01T02:12:04.000Z</time>
      </trkpt>
      <trkpt lat="40.384715" lon="-3.363281">
        <ele>744.6</ele>
        <time>1970-01-01T02:12:05.000Z</time>
      </trkpt>
      <trkpt lat="40.38473" lon="-3.363258">
        <ele>744.8</ele>
        <time>1970-01-01T02:12:06.000Z</time>
      </trkpt>
      <trkpt lat="40.384746" lon="-3.363231">
        <ele>744.8</ele>
        <time>1970-01-01T02:12:07.000Z</time>
      </trkpt>
      <trkpt lat="40.38476" lon="-3.363204">
        <ele>745</ele>
        <time>1970-01-01T02:12:08.000Z</time>
      </trkpt>
      <trkpt lat="40.384775" lon="-3.363171">
        <ele>745</ele>
        <time>1970-01-01T02:12:09.000Z</time>
      </trkpt>
      <trkpt lat="40.384784" lon="-3.363148">
        <ele>745.4</ele>
        <time>1970-01-01T02:12:10.000Z</time>
      </trkpt>
      <trkpt lat="40.384793" lon="-3.363118">
        <ele>745.4</ele>
        <time>1970-01-01T02:12:11.000Z</time>
      </trkpt>
      <trkpt lat="40.384801" lon="-3.363088">
        <ele>745.6</ele>
        <time>1970-01-01T02:12:12.000Z</time>
      </trkpt>
      <trkpt lat="40.384808" lon="-3.36306">
        <ele>745.8</ele>
        <time>1970-01-01T02:12:13.000Z</time>
      </trkpt>
      <trkpt lat="40.384813" lon="-3.363028">
        <ele>746</ele>
        <time>1970-01-01T02:12:14.000Z</time>
      </trkpt>
      <trkpt lat="40.384817" lon="-3.362994">
        <ele>746.2</ele>
        <time>1970-01-01T02:12:15.000Z</time>
      </trkpt>
      <trkpt lat="40.384823" lon="-3.362959">
        <ele>746.4</ele>
        <time>1970-01-01T02:12:16.000Z</time>
      </trkpt>
      <trkpt lat="40.384828" lon="-3.362924">
        <ele>746.8</ele>
        <time>1970-01-01T02:12:17.000Z</time>
      </trkpt>
      <trkpt lat="40.384832" lon="-3.362887">
        <ele>746.8</ele>
        <time>1970-01-01T02:12:18.000Z</time>
      </trkpt>
      <trkpt lat="40.384831" lon="-3.362851">
        <ele>747</ele>
        <time>1970-01-01T02:12:19.000Z</time>
      </trkpt>
      <trkpt lat="40.384827" lon="-3.362816">
        <ele>747</ele>
        <time>1970-01-01T02:12:20.000Z</time>
      </trkpt>
      <trkpt lat="40.38482" lon="-3.362779">
        <ele>747.2</ele>
        <time>1970-01-01T02:12:21.000Z</time>
      </trkpt>
      <trkpt lat="40.384812" lon="-3.362743">
        <ele>747.4</ele>
        <time>1970-01-01T02:12:22.000Z</time>
      </trkpt>
      <trkpt lat="40.384799" lon="-3.362709">
        <ele>747.6</ele>
        <time>1970-01-01T02:12:23.000Z</time>
      </trkpt>
      <trkpt lat="40.38478" lon="-3.362678">
        <ele>747.6</ele>
        <time>1970-01-01T02:12:24.000Z</time>
      </trkpt>
      <trkpt lat="40.384756" lon="-3.362647">
        <ele>747.6</ele>
        <time>1970-01-01T02:12:25.000Z</time>
      </trkpt>
      <trkpt lat="40.384737" lon="-3.36261">
        <ele>747.8</ele>
        <time>1970-01-01T02:12:26.000Z</time>
      </trkpt>
      <trkpt lat="40.384728" lon="-3.362575">
        <ele>748</ele>
        <time>1970-01-01T02:12:27.000Z</time>
      </trkpt>
      <trkpt lat="40.384723" lon="-3.362547">
        <ele>748.4</ele>
        <time>1970-01-01T02:12:28.000Z</time>
      </trkpt>
      <trkpt lat="40.384714" lon="-3.362524">
        <ele>748.6</ele>
        <time>1970-01-01T02:12:29.000Z</time>
      </trkpt>
      <trkpt lat="40.384706" lon="-3.362505">
        <ele>749</ele>
        <time>1970-01-01T02:12:30.000Z</time>
      </trkpt>
      <trkpt lat="40.384696" lon="-3.362485">
        <ele>749.6</ele>
        <time>1970-01-01T02:12:31.000Z</time>
      </trkpt>
      <trkpt lat="40.384681" lon="-3.362468">
        <ele>749.6</ele>
        <time>1970-01-01T02:12:32.000Z</time>
      </trkpt>
      <trkpt lat="40.384665" lon="-3.362455">
        <ele>750</ele>
        <time>1970-01-01T02:12:33.000Z</time>
      </trkpt>
      <trkpt lat="40.384648" lon="-3.362444">
        <ele>750.2</ele>
        <time>1970-01-01T02:12:34.000Z</time>
      </trkpt>
      <trkpt lat="40.384629" lon="-3.362431">
        <ele>750.4</ele>
        <time>1970-01-01T02:12:35.000Z</time>
      </trkpt>
      <trkpt lat="40.384614" lon="-3.362417">
        <ele>750.6</ele>
        <time>1970-01-01T02:12:36.000Z</time>
      </trkpt>
      <trkpt lat="40.384603" lon="-3.362399">
        <ele>750.8</ele>
        <time>1970-01-01T02:12:37.000Z</time>
      </trkpt>
      <trkpt lat="40.384591" lon="-3.362378">
        <ele>751</ele>
        <time>1970-01-01T02:12:38.000Z</time>
      </trkpt>
      <trkpt lat="40.384577" lon="-3.362357">
        <ele>751</ele>
        <time>1970-01-01T02:12:39.000Z</time>
      </trkpt>
      <trkpt lat="40.384563" lon="-3.362335">
        <ele>751.2</ele>
        <time>1970-01-01T02:12:40.000Z</time>
      </trkpt>
      <trkpt lat="40.384553" lon="-3.362313">
        <ele>751.2</ele>
        <time>1970-01-01T02:12:41.000Z</time>
      </trkpt>
      <trkpt lat="40.384547" lon="-3.362287">
        <ele>751.4</ele>
        <time>1970-01-01T02:12:42.000Z</time>
      </trkpt>
      <trkpt lat="40.384546" lon="-3.36226">
        <ele>751.6</ele>
        <time>1970-01-01T02:12:43.000Z</time>
      </trkpt>
      <trkpt lat="40.384544" lon="-3.362232">
        <ele>752</ele>
        <time>1970-01-01T02:12:44.000Z</time>
      </trkpt>
      <trkpt lat="40.38454" lon="-3.362204">
        <ele>752</ele>
        <time>1970-01-01T02:12:45.000Z</time>
      </trkpt>
      <trkpt lat="40.384532" lon="-3.362176">
        <ele>752.2</ele>
        <time>1970-01-01T02:12:46.000Z</time>
      </trkpt>
      <trkpt lat="40.38452" lon="-3.362152">
        <ele>752.6</ele>
        <time>1970-01-01T02:12:47.000Z</time>
      </trkpt>
      <trkpt lat="40.384507" lon="-3.362128">
        <ele>752.6</ele>
        <time>1970-01-01T02:12:48.000Z</time>
      </trkpt>
      <trkpt lat="40.384493" lon="-3.362102">
        <ele>752.8</ele>
        <time>1970-01-01T02:12:49.000Z</time>
      </trkpt>
      <trkpt lat="40.384479" lon="-3.362079">
        <ele>752.8</ele>
        <time>1970-01-01T02:12:50.000Z</time>
      </trkpt>
      <trkpt lat="40.384458" lon="-3.362061">
        <ele>753</ele>
        <time>1970-01-01T02:12:51.000Z</time>
      </trkpt>
      <trkpt lat="40.384436" lon="-3.362043">
        <ele>753.2</ele>
        <time>1970-01-01T02:12:52.000Z</time>
      </trkpt>
      <trkpt lat="40.384415" lon="-3.362026">
        <ele>753.2</ele>
        <time>1970-01-01T02:12:53.000Z</time>
      </trkpt>
      <trkpt lat="40.384396" lon="-3.362011">
        <ele>753.4</ele>
        <time>1970-01-01T02:12:54.000Z</time>
      </trkpt>
      <trkpt lat="40.384376" lon="-3.361996">
        <ele>753.4</ele>
        <time>1970-01-01T02:12:55.000Z</time>
      </trkpt>
      <trkpt lat="40.384357" lon="-3.361978">
        <ele>753.6</ele>
        <time>1970-01-01T02:12:56.000Z</time>
      </trkpt>
      <trkpt lat="40.384338" lon="-3.361959">
        <ele>753.8</ele>
        <time>1970-01-01T02:12:57.000Z</time>
      </trkpt>
      <trkpt lat="40.384322" lon="-3.361942">
        <ele>754</ele>
        <time>1970-01-01T02:12:58.000Z</time>
      </trkpt>
      <trkpt lat="40.384312" lon="-3.361922">
        <ele>754.2</ele>
        <time>1970-01-01T02:12:59.000Z</time>
      </trkpt>
      <trkpt lat="40.38431" lon="-3.361909">
        <ele>754.2</ele>
        <time>1970-01-01T02:13:00.000Z</time>
      </trkpt>
      <trkpt lat="40.38431" lon="-3.361909">
        <ele>754.4</ele>
        <time>1970-01-01T02:13:01.000Z</time>
      </trkpt>
      <trkpt lat="40.38431" lon="-3.361909">
        <ele>754.4</ele>
        <time>1970-01-01T02:13:02.000Z</time>
      </trkpt>
      <trkpt lat="40.384304" lon="-3.361846">
        <ele>755.8</ele>
        <time>1970-01-01T02:13:10.000Z</time>
      </trkpt>
      <trkpt lat="40.384297" lon="-3.361827">
        <ele>755.8</ele>
        <time>1970-01-01T02:13:11.000Z</time>
      </trkpt>
      <trkpt lat="40.384288" lon="-3.361809">
        <ele>756</ele>
        <time>1970-01-01T02:13:12.000Z</time>
      </trkpt>
      <trkpt lat="40.384279" lon="-3.361791">
        <ele>756</ele>
        <time>1970-01-01T02:13:13.000Z</time>
      </trkpt>
      <trkpt lat="40.384273" lon="-3.361779">
        <ele>756</ele>
        <time>1970-01-01T02:13:14.000Z</time>
      </trkpt>
      <trkpt lat="40.384271" lon="-3.361774">
        <ele>756</ele>
        <time>1970-01-01T02:13:15.000Z</time>
      </trkpt>
      <trkpt lat="40.384271" lon="-3.361774">
        <ele>756</ele>
        <time>1970-01-01T02:13:16.000Z</time>
      </trkpt>
      <trkpt lat="40.384271" lon="-3.361774">
        <ele>756</ele>
        <time>1970-01-01T02:13:17.000Z</time>
      </trkpt>
      <trkpt lat="40.384239" lon="-3.361672">
        <ele>755.4</ele>
        <time>1970-01-01T02:17:21.000Z</time>
      </trkpt>
      <trkpt lat="40.384229" lon="-3.361652">
        <ele>755.6</ele>
        <time>1970-01-01T02:17:22.000Z</time>
      </trkpt>
      <trkpt lat="40.38422" lon="-3.361632">
        <ele>755.6</ele>
        <time>1970-01-01T02:17:23.000Z</time>
      </trkpt>
      <trkpt lat="40.38421" lon="-3.361614">
        <ele>755.6</ele>
        <time>1970-01-01T02:17:24.000Z</time>
      </trkpt>
      <trkpt lat="40.384201" lon="-3.361596">
        <ele>755.6</ele>
        <time>1970-01-01T02:17:25.000Z</time>
      </trkpt>
      <trkpt lat="40.384195" lon="-3.361576">
        <ele>755.6</ele>
        <time>1970-01-01T02:17:26.000Z</time>
      </trkpt>
      <trkpt lat="40.38419" lon="-3.361555">
        <ele>755.6</ele>
        <time>1970-01-01T02:17:27.000Z</time>
      </trkpt>
      <trkpt lat="40.384188" lon="-3.361534">
        <ele>755.8</ele>
        <time>1970-01-01T02:17:28.000Z</time>
      </trkpt>
      <trkpt lat="40.384186" lon="-3.36151">
        <ele>756</ele>
        <time>1970-01-01T02:17:29.000Z</time>
      </trkpt>
      <trkpt lat="40.384186" lon="-3.361483">
        <ele>756.2</ele>
        <time>1970-01-01T02:17:30.000Z</time>
      </trkpt>
      <trkpt lat="40.38419" lon="-3.361456">
        <ele>756.2</ele>
        <time>1970-01-01T02:17:31.000Z</time>
      </trkpt>
      <trkpt lat="40.384194" lon="-3.361428">
        <ele>756.2</ele>
        <time>1970-01-01T02:17:32.000Z</time>
      </trkpt>
      <trkpt lat="40.384196" lon="-3.361401">
        <ele>756.4</ele>
        <time>1970-01-01T02:17:33.000Z</time>
      </trkpt>
      <trkpt lat="40.384197" lon="-3.361374">
        <ele>756.6</ele>
        <time>1970-01-01T02:17:34.000Z</time>
      </trkpt>
      <trkpt lat="40.384198" lon="-3.361345">
        <ele>756.8</ele>
        <time>1970-01-01T02:17:35.000Z</time>
      </trkpt>
      <trkpt lat="40.384198" lon="-3.361317">
        <ele>756.8</ele>
        <time>1970-01-01T02:17:36.000Z</time>
      </trkpt>
      <trkpt lat="40.384194" lon="-3.36129">
        <ele>757.2</ele>
        <time>1970-01-01T02:17:37.000Z</time>
      </trkpt>
      <trkpt lat="40.384188" lon="-3.361266">
        <ele>757.4</ele>
        <time>1970-01-01T02:17:38.000Z</time>
      </trkpt>
      <trkpt lat="40.384182" lon="-3.361246">
        <ele>757.8</ele>
        <time>1970-01-01T02:17:39.000Z</time>
      </trkpt>
      <trkpt lat="40.384174" lon="-3.361226">
        <ele>758</ele>
        <time>1970-01-01T02:17:40.000Z</time>
      </trkpt>
      <trkpt lat="40.384167" lon="-3.361204">
        <ele>758.2</ele>
        <time>1970-01-01T02:17:41.000Z</time>
      </trkpt>
      <trkpt lat="40.38416" lon="-3.361182">
        <ele>758.4</ele>
        <time>1970-01-01T02:17:42.000Z</time>
      </trkpt>
      <trkpt lat="40.384153" lon="-3.361162">
        <ele>758.4</ele>
        <time>1970-01-01T02:17:43.000Z</time>
      </trkpt>
      <trkpt lat="40.384145" lon="-3.361142">
        <ele>758.8</ele>
        <time>1970-01-01T02:17:44.000Z</time>
      </trkpt>
      <trkpt lat="40.384139" lon="-3.361124">
        <ele>758.8</ele>
        <time>1970-01-01T02:17:45.000Z</time>
      </trkpt>
      <trkpt lat="40.384137" lon="-3.361107">
        <ele>759.2</ele>
        <time>1970-01-01T02:17:46.000Z</time>
      </trkpt>
      <trkpt lat="40.384137" lon="-3.361089">
        <ele>759.4</ele>
        <time>1970-01-01T02:17:47.000Z</time>
      </trkpt>
      <trkpt lat="40.384135" lon="-3.361072">
        <ele>759.6</ele>
        <time>1970-01-01T02:17:48.000Z</time>
      </trkpt>
      <trkpt lat="40.384134" lon="-3.361056">
        <ele>760</ele>
        <time>1970-01-01T02:17:49.000Z</time>
      </trkpt>
      <trkpt lat="40.384135" lon="-3.36104">
        <ele>760.2</ele>
        <time>1970-01-01T02:17:50.000Z</time>
      </trkpt>
      <trkpt lat="40.384136" lon="-3.361022">
        <ele>760.2</ele>
        <time>1970-01-01T02:17:51.000Z</time>
      </trkpt>
      <trkpt lat="40.384141" lon="-3.361005">
        <ele>760.4</ele>
        <time>1970-01-01T02:17:52.000Z</time>
      </trkpt>
      <trkpt lat="40.38415" lon="-3.360989">
        <ele>760.6</ele>
        <time>1970-01-01T02:17:53.000Z</time>
      </trkpt>
      <trkpt lat="40.384159" lon="-3.360976">
        <ele>760.8</ele>
        <time>1970-01-01T02:17:54.000Z</time>
      </trkpt>
      <trkpt lat="40.38417" lon="-3.360962">
        <ele>760.8</ele>
        <time>1970-01-01T02:17:55.000Z</time>
      </trkpt>
      <trkpt lat="40.384181" lon="-3.360946">
        <ele>761</ele>
        <time>1970-01-01T02:17:56.000Z</time>
      </trkpt>
      <trkpt lat="40.384195" lon="-3.360933">
        <ele>761</ele>
        <time>1970-01-01T02:17:57.000Z</time>
      </trkpt>
      <trkpt lat="40.384209" lon="-3.360925">
        <ele>761.2</ele>
        <time>1970-01-01T02:17:58.000Z</time>
      </trkpt>
      <trkpt lat="40.384224" lon="-3.360917">
        <ele>761.2</ele>
        <time>1970-01-01T02:17:59.000Z</time>
      </trkpt>
      <trkpt lat="40.384239" lon="-3.360912">
        <ele>761.2</ele>
        <time>1970-01-01T02:18:00.000Z</time>
      </trkpt>
      <trkpt lat="40.384251" lon="-3.360901">
        <ele>761.2</ele>
        <time>1970-01-01T02:18:01.000Z</time>
      </trkpt>
      <trkpt lat="40.384263" lon="-3.360887">
        <ele>761.4</ele>
        <time>1970-01-01T02:18:02.000Z</time>
      </trkpt>
      <trkpt lat="40.384276" lon="-3.360871">
        <ele>761.4</ele>
        <time>1970-01-01T02:18:03.000Z</time>
      </trkpt>
      <trkpt lat="40.384293" lon="-3.360853">
        <ele>761.4</ele>
        <time>1970-01-01T02:18:04.000Z</time>
      </trkpt>
      <trkpt lat="40.38431" lon="-3.360834">
        <ele>761.6</ele>
        <time>1970-01-01T02:18:05.000Z</time>
      </trkpt>
      <trkpt lat="40.384322" lon="-3.360817">
        <ele>761.8</ele>
        <time>1970-01-01T02:18:06.000Z</time>
      </trkpt>
      <trkpt lat="40.384332" lon="-3.3608">
        <ele>762</ele>
        <time>1970-01-01T02:18:07.000Z</time>
      </trkpt>
      <trkpt lat="40.384341" lon="-3.360782">
        <ele>762.2</ele>
        <time>1970-01-01T02:18:08.000Z</time>
      </trkpt>
      <trkpt lat="40.38435" lon="-3.360763">
        <ele>762.6</ele>
        <time>1970-01-01T02:18:09.000Z</time>
      </trkpt>
      <trkpt lat="40.384359" lon="-3.360743">
        <ele>763</ele>
        <time>1970-01-01T02:18:10.000Z</time>
      </trkpt>
      <trkpt lat="40.384371" lon="-3.360723">
        <ele>763.2</ele>
        <time>1970-01-01T02:18:11.000Z</time>
      </trkpt>
      <trkpt lat="40.384383" lon="-3.360707">
        <ele>763.6</ele>
        <time>1970-01-01T02:18:12.000Z</time>
      </trkpt>
      <trkpt lat="40.38439" lon="-3.360692">
        <ele>763.8</ele>
        <time>1970-01-01T02:18:13.000Z</time>
      </trkpt>
      <trkpt lat="40.384399" lon="-3.360676">
        <ele>764.2</ele>
        <time>1970-01-01T02:18:14.000Z</time>
      </trkpt>
      <trkpt lat="40.384412" lon="-3.360658">
        <ele>764.2</ele>
        <time>1970-01-01T02:18:15.000Z</time>
      </trkpt>
      <trkpt lat="40.384425" lon="-3.360638">
        <ele>764.4</ele>
        <time>1970-01-01T02:18:16.000Z</time>
      </trkpt>
      <trkpt lat="40.384438" lon="-3.360618">
        <ele>764.4</ele>
        <time>1970-01-01T02:18:17.000Z</time>
      </trkpt>
      <trkpt lat="40.384453" lon="-3.3606">
        <ele>764.6</ele>
        <time>1970-01-01T02:18:18.000Z</time>
      </trkpt>
      <trkpt lat="40.38447" lon="-3.360582">
        <ele>764.8</ele>
        <time>1970-01-01T02:18:19.000Z</time>
      </trkpt>
      <trkpt lat="40.384488" lon="-3.360565">
        <ele>764.8</ele>
        <time>1970-01-01T02:18:20.000Z</time>
      </trkpt>
      <trkpt lat="40.384505" lon="-3.360549">
        <ele>765</ele>
        <time>1970-01-01T02:18:21.000Z</time>
      </trkpt>
      <trkpt lat="40.384523" lon="-3.360534">
        <ele>765</ele>
        <time>1970-01-01T02:18:22.000Z</time>
      </trkpt>
      <trkpt lat="40.38454" lon="-3.360521">
        <ele>765.4</ele>
        <time>1970-01-01T02:18:23.000Z</time>
      </trkpt>
      <trkpt lat="40.384556" lon="-3.360508">
        <ele>765.4</ele>
        <time>1970-01-01T02:18:24.000Z</time>
      </trkpt>
      <trkpt lat="40.384573" lon="-3.360495">
        <ele>765.6</ele>
        <time>1970-01-01T02:18:25.000Z</time>
      </trkpt>
      <trkpt lat="40.384587" lon="-3.360482">
        <ele>765.8</ele>
        <time>1970-01-01T02:18:26.000Z</time>
      </trkpt>
      <trkpt lat="40.384597" lon="-3.360467">
        <ele>766</ele>
        <time>1970-01-01T02:18:27.000Z</time>
      </trkpt>
      <trkpt lat="40.384607" lon="-3.360453">
        <ele>766.2</ele>
        <time>1970-01-01T02:18:28.000Z</time>
      </trkpt>
      <trkpt lat="40.384615" lon="-3.360442">
        <ele>766.4</ele>
        <time>1970-01-01T02:18:29.000Z</time>
      </trkpt>
      <trkpt lat="40.384622" lon="-3.360431">
        <ele>766.6</ele>
        <time>1970-01-01T02:18:30.000Z</time>
      </trkpt>
      <trkpt lat="40.384629" lon="-3.360419">
        <ele>766.8</ele>
        <time>1970-01-01T02:18:31.000Z</time>
      </trkpt>
      <trkpt lat="40.384636" lon="-3.360407">
        <ele>767</ele>
        <time>1970-01-01T02:18:32.000Z</time>
      </trkpt>
      <trkpt lat="40.384642" lon="-3.360396">
        <ele>767.2</ele>
        <time>1970-01-01T02:18:33.000Z</time>
      </trkpt>
      <trkpt lat="40.384649" lon="-3.360384">
        <ele>767.4</ele>
        <time>1970-01-01T02:18:34.000Z</time>
      </trkpt>
      <trkpt lat="40.384658" lon="-3.360374">
        <ele>767.6</ele>
        <time>1970-01-01T02:18:35.000Z</time>
      </trkpt>
      <trkpt lat="40.384666" lon="-3.360365">
        <ele>767.6</ele>
        <time>1970-01-01T02:18:36.000Z</time>
      </trkpt>
      <trkpt lat="40.384672" lon="-3.360359">
        <ele>767.8</ele>
        <time>1970-01-01T02:18:37.000Z</time>
      </trkpt>
      <trkpt lat="40.384682" lon="-3.360351">
        <ele>767.8</ele>
        <time>1970-01-01T02:18:38.000Z</time>
      </trkpt>
      <trkpt lat="40.38469" lon="-3.360343">
        <ele>768</ele>
        <time>1970-01-01T02:18:39.000Z</time>
      </trkpt>
      <trkpt lat="40.384698" lon="-3.360341">
        <ele>768</ele>
        <time>1970-01-01T02:18:40.000Z</time>
      </trkpt>
      <trkpt lat="40.38471" lon="-3.360336">
        <ele>768.2</ele>
        <time>1970-01-01T02:18:41.000Z</time>
      </trkpt>
      <trkpt lat="40.384722" lon="-3.36033">
        <ele>768.2</ele>
        <time>1970-01-01T02:18:42.000Z</time>
      </trkpt>
      <trkpt lat="40.384736" lon="-3.360322">
        <ele>768.2</ele>
        <time>1970-01-01T02:18:43.000Z</time>
      </trkpt>
      <trkpt lat="40.38475" lon="-3.360314">
        <ele>768.6</ele>
        <time>1970-01-01T02:18:44.000Z</time>
      </trkpt>
      <trkpt lat="40.384762" lon="-3.360302">
        <ele>768.6</ele>
        <time>1970-01-01T02:18:45.000Z</time>
      </trkpt>
      <trkpt lat="40.384776" lon="-3.36029">
        <ele>768.8</ele>
        <time>1970-01-01T02:18:46.000Z</time>
      </trkpt>
      <trkpt lat="40.384791" lon="-3.360279">
        <ele>768.8</ele>
        <time>1970-01-01T02:18:47.000Z</time>
      </trkpt>
      <trkpt lat="40.384806" lon="-3.36027">
        <ele>769</ele>
        <time>1970-01-01T02:18:48.000Z</time>
      </trkpt>
      <trkpt lat="40.384821" lon="-3.360262">
        <ele>769.2</ele>
        <time>1970-01-01T02:18:49.000Z</time>
      </trkpt>
      <trkpt lat="40.384836" lon="-3.360255">
        <ele>769.2</ele>
        <time>1970-01-01T02:18:50.000Z</time>
      </trkpt>
      <trkpt lat="40.38485" lon="-3.360245">
        <ele>769.4</ele>
        <time>1970-01-01T02:18:51.000Z</time>
      </trkpt>
      <trkpt lat="40.384865" lon="-3.360235">
        <ele>769.4</ele>
        <time>1970-01-01T02:18:52.000Z</time>
      </trkpt>
      <trkpt lat="40.38488" lon="-3.360232">
        <ele>769.6</ele>
        <time>1970-01-01T02:18:53.000Z</time>
      </trkpt>
      <trkpt lat="40.384894" lon="-3.360235">
        <ele>769.6</ele>
        <time>1970-01-01T02:18:54.000Z</time>
      </trkpt>
      <trkpt lat="40.384908" lon="-3.360239">
        <ele>769.6</ele>
        <time>1970-01-01T02:18:55.000Z</time>
      </trkpt>
      <trkpt lat="40.384923" lon="-3.360245">
        <ele>769.8</ele>
        <time>1970-01-01T02:18:56.000Z</time>
      </trkpt>
      <trkpt lat="40.384938" lon="-3.36025">
        <ele>769.8</ele>
        <time>1970-01-01T02:18:57.000Z</time>
      </trkpt>
      <trkpt lat="40.384954" lon="-3.360253">
        <ele>769.8</ele>
        <time>1970-01-01T02:18:58.000Z</time>
      </trkpt>
      <trkpt lat="40.384969" lon="-3.360258">
        <ele>770</ele>
        <time>1970-01-01T02:18:59.000Z</time>
      </trkpt>
      <trkpt lat="40.384983" lon="-3.360262">
        <ele>770.2</ele>
        <time>1970-01-01T02:19:00.000Z</time>
      </trkpt>
      <trkpt lat="40.384996" lon="-3.360268">
        <ele>770.4</ele>
        <time>1970-01-01T02:19:01.000Z</time>
      </trkpt>
      <trkpt lat="40.38501" lon="-3.360273">
        <ele>770.6</ele>
        <time>1970-01-01T02:19:02.000Z</time>
      </trkpt>
      <trkpt lat="40.385023" lon="-3.360276">
        <ele>770.6</ele>
        <time>1970-01-01T02:19:03.000Z</time>
      </trkpt>
      <trkpt lat="40.385036" lon="-3.36028">
        <ele>770.6</ele>
        <time>1970-01-01T02:19:04.000Z</time>
      </trkpt>
      <trkpt lat="40.385051" lon="-3.360283">
        <ele>771</ele>
        <time>1970-01-01T02:19:05.000Z</time>
      </trkpt>
      <trkpt lat="40.385067" lon="-3.360285">
        <ele>771</ele>
        <time>1970-01-01T02:19:06.000Z</time>
      </trkpt>
      <trkpt lat="40.385084" lon="-3.36029">
        <ele>771.2</ele>
        <time>1970-01-01T02:19:07.000Z</time>
      </trkpt>
      <trkpt lat="40.385101" lon="-3.360299">
        <ele>771.2</ele>
        <time>1970-01-01T02:19:08.000Z</time>
      </trkpt>
      <trkpt lat="40.385119" lon="-3.360305">
        <ele>771.2</ele>
        <time>1970-01-01T02:19:09.000Z</time>
      </trkpt>
      <trkpt lat="40.385137" lon="-3.360312">
        <ele>771.2</ele>
        <time>1970-01-01T02:19:10.000Z</time>
      </trkpt>
      <trkpt lat="40.385155" lon="-3.360314">
        <ele>771.4</ele>
        <time>1970-01-01T02:19:11.000Z</time>
      </trkpt>
      <trkpt lat="40.385176" lon="-3.360313">
        <ele>771.4</ele>
        <time>1970-01-01T02:19:12.000Z</time>
      </trkpt>
      <trkpt lat="40.385194" lon="-3.360313">
        <ele>771.4</ele>
        <time>1970-01-01T02:19:13.000Z</time>
      </trkpt>
      <trkpt lat="40.38521" lon="-3.360313">
        <ele>771.4</ele>
        <time>1970-01-01T02:19:14.000Z</time>
      </trkpt>
      <trkpt lat="40.385229" lon="-3.360309">
        <ele>771.4</ele>
        <time>1970-01-01T02:19:15.000Z</time>
      </trkpt>
      <trkpt lat="40.385249" lon="-3.360305">
        <ele>771.4</ele>
        <time>1970-01-01T02:19:16.000Z</time>
      </trkpt>
      <trkpt lat="40.385269" lon="-3.360304">
        <ele>771.4</ele>
        <time>1970-01-01T02:19:17.000Z</time>
      </trkpt>
      <trkpt lat="40.385282" lon="-3.360306">
        <ele>771.4</ele>
        <time>1970-01-01T02:19:18.000Z</time>
      </trkpt>
      <trkpt lat="40.385293" lon="-3.360311">
        <ele>771.6</ele>
        <time>1970-01-01T02:19:19.000Z</time>
      </trkpt>
      <trkpt lat="40.385302" lon="-3.360316">
        <ele>771.6</ele>
        <time>1970-01-01T02:19:20.000Z</time>
      </trkpt>
      <trkpt lat="40.385311" lon="-3.360321">
        <ele>771.6</ele>
        <time>1970-01-01T02:19:21.000Z</time>
      </trkpt>
      <trkpt lat="40.385318" lon="-3.360323">
        <ele>771.6</ele>
        <time>1970-01-01T02:19:22.000Z</time>
      </trkpt>
      <trkpt lat="40.385321" lon="-3.360325">
        <ele>771.6</ele>
        <time>1970-01-01T02:19:23.000Z</time>
      </trkpt>
      <trkpt lat="40.385321" lon="-3.360325">
        <ele>771.6</ele>
        <time>1970-01-01T02:19:24.000Z</time>
      </trkpt>
      <trkpt lat="40.385321" lon="-3.360325">
        <ele>771.6</ele>
        <time>1970-01-01T02:19:25.000Z</time>
      </trkpt>
      <trkpt lat="40.385336" lon="-3.36034">
        <ele>771.4</ele>
        <time>1970-01-01T02:20:14.000Z</time>
      </trkpt>
      <trkpt lat="40.385355" lon="-3.360359">
        <ele>771.4</ele>
        <time>1970-01-01T02:20:15.000Z</time>
      </trkpt>
      <trkpt lat="40.385374" lon="-3.360382">
        <ele>771.4</ele>
        <time>1970-01-01T02:20:16.000Z</time>
      </trkpt>
      <trkpt lat="40.385395" lon="-3.360407">
        <ele>771.4</ele>
        <time>1970-01-01T02:20:17.000Z</time>
      </trkpt>
      <trkpt lat="40.385418" lon="-3.360434">
        <ele>771.4</ele>
        <time>1970-01-01T02:20:18.000Z</time>
      </trkpt>
      <trkpt lat="40.385443" lon="-3.360464">
        <ele>771.4</ele>
        <time>1970-01-01T02:20:19.000Z</time>
      </trkpt>
      <trkpt lat="40.385468" lon="-3.360498">
        <ele>771.6</ele>
        <time>1970-01-01T02:20:20.000Z</time>
      </trkpt>
      <trkpt lat="40.385496" lon="-3.360531">
        <ele>771.8</ele>
        <time>1970-01-01T02:20:21.000Z</time>
      </trkpt>
      <trkpt lat="40.385526" lon="-3.360563">
        <ele>771.8</ele>
        <time>1970-01-01T02:20:22.000Z</time>
      </trkpt>
      <trkpt lat="40.385556" lon="-3.360598">
        <ele>772</ele>
        <time>1970-01-01T02:20:23.000Z</time>
      </trkpt>
      <trkpt lat="40.385585" lon="-3.360634">
        <ele>772</ele>
        <time>1970-01-01T02:20:24.000Z</time>
      </trkpt>
      <trkpt lat="40.385614" lon="-3.360666">
        <ele>772</ele>
        <time>1970-01-01T02:20:25.000Z</time>
      </trkpt>
      <trkpt lat="40.385645" lon="-3.3607">
        <ele>772.2</ele>
        <time>1970-01-01T02:20:26.000Z</time>
      </trkpt>
      <trkpt lat="40.385676" lon="-3.360739">
        <ele>772.2</ele>
        <time>1970-01-01T02:20:27.000Z</time>
      </trkpt>
      <trkpt lat="40.385708" lon="-3.360784">
        <ele>772.2</ele>
        <time>1970-01-01T02:20:28.000Z</time>
      </trkpt>
      <trkpt lat="40.38574" lon="-3.360833">
        <ele>772.2</ele>
        <time>1970-01-01T02:20:29.000Z</time>
      </trkpt>
      <trkpt lat="40.385769" lon="-3.360884">
        <ele>772.4</ele>
        <time>1970-01-01T02:20:30.000Z</time>
      </trkpt>
      <trkpt lat="40.385797" lon="-3.360938">
        <ele>772.4</ele>
        <time>1970-01-01T02:20:31.000Z</time>
      </trkpt>
      <trkpt lat="40.385827" lon="-3.360993">
        <ele>772.4</ele>
        <time>1970-01-01T02:20:32.000Z</time>
      </trkpt>
      <trkpt lat="40.385855" lon="-3.361046">
        <ele>772.4</ele>
        <time>1970-01-01T02:20:33.000Z</time>
      </trkpt>
      <trkpt lat="40.385886" lon="-3.361098">
        <ele>772.6</ele>
        <time>1970-01-01T02:20:34.000Z</time>
      </trkpt>
      <trkpt lat="40.385919" lon="-3.361158">
        <ele>772.4</ele>
        <time>1970-01-01T02:20:35.000Z</time>
      </trkpt>
      <trkpt lat="40.385953" lon="-3.361223">
        <ele>772.4</ele>
        <time>1970-01-01T02:20:36.000Z</time>
      </trkpt>
      <trkpt lat="40.385989" lon="-3.361289">
        <ele>772.4</ele>
        <time>1970-01-01T02:20:37.000Z</time>
      </trkpt>
      <trkpt lat="40.386024" lon="-3.361357">
        <ele>772.4</ele>
        <time>1970-01-01T02:20:38.000Z</time>
      </trkpt>
      <trkpt lat="40.386058" lon="-3.361424">
        <ele>772.4</ele>
        <time>1970-01-01T02:20:39.000Z</time>
      </trkpt>
      <trkpt lat="40.386093" lon="-3.36149">
        <ele>772.2</ele>
        <time>1970-01-01T02:20:40.000Z</time>
      </trkpt>
      <trkpt lat="40.386128" lon="-3.361555">
        <ele>772.2</ele>
        <time>1970-01-01T02:20:41.000Z</time>
      </trkpt>
      <trkpt lat="40.386165" lon="-3.361621">
        <ele>772</ele>
        <time>1970-01-01T02:20:42.000Z</time>
      </trkpt>
      <trkpt lat="40.386201" lon="-3.361691">
        <ele>771.8</ele>
        <time>1970-01-01T02:20:43.000Z</time>
      </trkpt>
      <trkpt lat="40.386234" lon="-3.361762">
        <ele>771.8</ele>
        <time>1970-01-01T02:20:44.000Z</time>
      </trkpt>
      <trkpt lat="40.386267" lon="-3.361833">
        <ele>771.6</ele>
        <time>1970-01-01T02:20:45.000Z</time>
      </trkpt>
      <trkpt lat="40.3863" lon="-3.361899">
        <ele>771.4</ele>
        <time>1970-01-01T02:20:46.000Z</time>
      </trkpt>
      <trkpt lat="40.386331" lon="-3.361966">
        <ele>771.2</ele>
        <time>1970-01-01T02:20:47.000Z</time>
      </trkpt>
      <trkpt lat="40.386362" lon="-3.36203">
        <ele>770.8</ele>
        <time>1970-01-01T02:20:48.000Z</time>
      </trkpt>
      <trkpt lat="40.386394" lon="-3.362092">
        <ele>770.6</ele>
        <time>1970-01-01T02:20:49.000Z</time>
      </trkpt>
      <trkpt lat="40.38643" lon="-3.362149">
        <ele>770.4</ele>
        <time>1970-01-01T02:20:50.000Z</time>
      </trkpt>
      <trkpt lat="40.386464" lon="-3.362208">
        <ele>770.2</ele>
        <time>1970-01-01T02:20:51.000Z</time>
      </trkpt>
      <trkpt lat="40.386496" lon="-3.36227">
        <ele>770.2</ele>
        <time>1970-01-01T02:20:52.000Z</time>
      </trkpt>
      <trkpt lat="40.386526" lon="-3.362332">
        <ele>770</ele>
        <time>1970-01-01T02:20:53.000Z</time>
      </trkpt>
      <trkpt lat="40.386554" lon="-3.362389">
        <ele>770</ele>
        <time>1970-01-01T02:20:54.000Z</time>
      </trkpt>
      <trkpt lat="40.386583" lon="-3.362445">
        <ele>770</ele>
        <time>1970-01-01T02:20:55.000Z</time>
      </trkpt>
      <trkpt lat="40.38661" lon="-3.3625">
        <ele>770</ele>
        <time>1970-01-01T02:20:56.000Z</time>
      </trkpt>
      <trkpt lat="40.386637" lon="-3.362556">
        <ele>769.6</ele>
        <time>1970-01-01T02:20:57.000Z</time>
      </trkpt>
      <trkpt lat="40.386665" lon="-3.362613">
        <ele>769.2</ele>
        <time>1970-01-01T02:20:58.000Z</time>
      </trkpt>
      <trkpt lat="40.386693" lon="-3.362669">
        <ele>769.2</ele>
        <time>1970-01-01T02:20:59.000Z</time>
      </trkpt>
      <trkpt lat="40.386723" lon="-3.362726">
        <ele>769</ele>
        <time>1970-01-01T02:21:00.000Z</time>
      </trkpt>
      <trkpt lat="40.386755" lon="-3.362783">
        <ele>769</ele>
        <time>1970-01-01T02:21:01.000Z</time>
      </trkpt>
      <trkpt lat="40.386785" lon="-3.36284">
        <ele>768.8</ele>
        <time>1970-01-01T02:21:02.000Z</time>
      </trkpt>
      <trkpt lat="40.386816" lon="-3.362899">
        <ele>768.6</ele>
        <time>1970-01-01T02:21:03.000Z</time>
      </trkpt>
      <trkpt lat="40.386847" lon="-3.362959">
        <ele>768.6</ele>
        <time>1970-01-01T02:21:04.000Z</time>
      </trkpt>
      <trkpt lat="40.386878" lon="-3.363019">
        <ele>768.4</ele>
        <time>1970-01-01T02:21:05.000Z</time>
      </trkpt>
      <trkpt lat="40.38691" lon="-3.36308">
        <ele>768.4</ele>
        <time>1970-01-01T02:21:06.000Z</time>
      </trkpt>
      <trkpt lat="40.386942" lon="-3.363143">
        <ele>768.2</ele>
        <time>1970-01-01T02:21:07.000Z</time>
      </trkpt>
      <trkpt lat="40.386973" lon="-3.363207">
        <ele>768.2</ele>
        <time>1970-01-01T02:21:08.000Z</time>
      </trkpt>
      <trkpt lat="40.387004" lon="-3.363271">
        <ele>768.2</ele>
        <time>1970-01-01T02:21:09.000Z</time>
      </trkpt>
      <trkpt lat="40.387035" lon="-3.363333">
        <ele>768</ele>
        <time>1970-01-01T02:21:10.000Z</time>
      </trkpt>
      <trkpt lat="40.387068" lon="-3.363395">
        <ele>767.6</ele>
        <time>1970-01-01T02:21:11.000Z</time>
      </trkpt>
      <trkpt lat="40.387099" lon="-3.363453">
        <ele>767.6</ele>
        <time>1970-01-01T02:21:12.000Z</time>
      </trkpt>
      <trkpt lat="40.387129" lon="-3.36351">
        <ele>767.6</ele>
        <time>1970-01-01T02:21:13.000Z</time>
      </trkpt>
      <trkpt lat="40.387157" lon="-3.363563">
        <ele>767.4</ele>
        <time>1970-01-01T02:21:14.000Z</time>
      </trkpt>
      <trkpt lat="40.387187" lon="-3.363616">
        <ele>767.4</ele>
        <time>1970-01-01T02:21:15.000Z</time>
      </trkpt>
      <trkpt lat="40.387219" lon="-3.363664">
        <ele>767.2</ele>
        <time>1970-01-01T02:21:16.000Z</time>
      </trkpt>
      <trkpt lat="40.387245" lon="-3.363713">
        <ele>767.2</ele>
        <time>1970-01-01T02:21:17.000Z</time>
      </trkpt>
      <trkpt lat="40.387268" lon="-3.363757">
        <ele>767.2</ele>
        <time>1970-01-01T02:21:18.000Z</time>
      </trkpt>
      <trkpt lat="40.387287" lon="-3.363796">
        <ele>767.2</ele>
        <time>1970-01-01T02:21:19.000Z</time>
      </trkpt>
      <trkpt lat="40.387305" lon="-3.363833">
        <ele>767.2</ele>
        <time>1970-01-01T02:21:20.000Z</time>
      </trkpt>
      <trkpt lat="40.387322" lon="-3.363863">
        <ele>767.2</ele>
        <time>1970-01-01T02:21:21.000Z</time>
      </trkpt>
      <trkpt lat="40.387337" lon="-3.363892">
        <ele>767.2</ele>
        <time>1970-01-01T02:21:22.000Z</time>
      </trkpt>
      <trkpt lat="40.387352" lon="-3.363923">
        <ele>767.2</ele>
        <time>1970-01-01T02:21:23.000Z</time>
      </trkpt>
      <trkpt lat="40.387369" lon="-3.363957">
        <ele>767.2</ele>
        <time>1970-01-01T02:21:24.000Z</time>
      </trkpt>
      <trkpt lat="40.387386" lon="-3.363991">
        <ele>767.4</ele>
        <time>1970-01-01T02:21:25.000Z</time>
      </trkpt>
      <trkpt lat="40.387405" lon="-3.364026">
        <ele>767.4</ele>
        <time>1970-01-01T02:21:26.000Z</time>
      </trkpt>
      <trkpt lat="40.387425" lon="-3.364062">
        <ele>767.6</ele>
        <time>1970-01-01T02:21:27.000Z</time>
      </trkpt>
      <trkpt lat="40.387447" lon="-3.364098">
        <ele>767.6</ele>
        <time>1970-01-01T02:21:28.000Z</time>
      </trkpt>
      <trkpt lat="40.387466" lon="-3.364138">
        <ele>767.6</ele>
        <time>1970-01-01T02:21:29.000Z</time>
      </trkpt>
      <trkpt lat="40.387485" lon="-3.364179">
        <ele>767.6</ele>
        <time>1970-01-01T02:21:30.000Z</time>
      </trkpt>
      <trkpt lat="40.387503" lon="-3.36422">
        <ele>767.8</ele>
        <time>1970-01-01T02:21:31.000Z</time>
      </trkpt>
      <trkpt lat="40.387525" lon="-3.364259">
        <ele>768</ele>
        <time>1970-01-01T02:21:32.000Z</time>
      </trkpt>
      <trkpt lat="40.387546" lon="-3.3643">
        <ele>768</ele>
        <time>1970-01-01T02:21:33.000Z</time>
      </trkpt>
      <trkpt lat="40.387567" lon="-3.364342">
        <ele>768</ele>
        <time>1970-01-01T02:21:34.000Z</time>
      </trkpt>
      <trkpt lat="40.387589" lon="-3.364385">
        <ele>768</ele>
        <time>1970-01-01T02:21:35.000Z</time>
      </trkpt>
      <trkpt lat="40.387613" lon="-3.364429">
        <ele>768</ele>
        <time>1970-01-01T02:21:36.000Z</time>
      </trkpt>
      <trkpt lat="40.387635" lon="-3.364477">
        <ele>768</ele>
        <time>1970-01-01T02:21:37.000Z</time>
      </trkpt>
      <trkpt lat="40.387658" lon="-3.364529">
        <ele>768</ele>
        <time>1970-01-01T02:21:38.000Z</time>
      </trkpt>
      <trkpt lat="40.387685" lon="-3.364577">
        <ele>768</ele>
        <time>1970-01-01T02:21:39.000Z</time>
      </trkpt>
      <trkpt lat="40.387712" lon="-3.364626">
        <ele>768</ele>
        <time>1970-01-01T02:21:40.000Z</time>
      </trkpt>
      <trkpt lat="40.387736" lon="-3.364678">
        <ele>768</ele>
        <time>1970-01-01T02:21:41.000Z</time>
      </trkpt>
      <trkpt lat="40.387759" lon="-3.364729">
        <ele>767.8</ele>
        <time>1970-01-01T02:21:42.000Z</time>
      </trkpt>
      <trkpt lat="40.38778" lon="-3.364773">
        <ele>767.6</ele>
        <time>1970-01-01T02:21:43.000Z</time>
      </trkpt>
      <trkpt lat="40.387799" lon="-3.364809">
        <ele>767.4</ele>
        <time>1970-01-01T02:21:44.000Z</time>
      </trkpt>
      <trkpt lat="40.387814" lon="-3.364839">
        <ele>767.4</ele>
        <time>1970-01-01T02:21:45.000Z</time>
      </trkpt>
      <trkpt lat="40.387829" lon="-3.364863">
        <ele>767.2</ele>
        <time>1970-01-01T02:21:46.000Z</time>
      </trkpt>
      <trkpt lat="40.387844" lon="-3.36488">
        <ele>767.2</ele>
        <time>1970-01-01T02:21:47.000Z</time>
      </trkpt>
      <trkpt lat="40.387857" lon="-3.364894">
        <ele>766.6</ele>
        <time>1970-01-01T02:21:48.000Z</time>
      </trkpt>
      <trkpt lat="40.387867" lon="-3.364907">
        <ele>766.2</ele>
        <time>1970-01-01T02:21:49.000Z</time>
      </trkpt>
      <trkpt lat="40.387876" lon="-3.36492">
        <ele>765.8</ele>
        <time>1970-01-01T02:21:50.000Z</time>
      </trkpt>
      <trkpt lat="40.387883" lon="-3.364937">
        <ele>765.4</ele>
        <time>1970-01-01T02:21:51.000Z</time>
      </trkpt>
      <trkpt lat="40.387892" lon="-3.364949">
        <ele>765.4</ele>
        <time>1970-01-01T02:21:52.000Z</time>
      </trkpt>
      <trkpt lat="40.387897" lon="-3.364954">
        <ele>765.2</ele>
        <time>1970-01-01T02:21:53.000Z</time>
      </trkpt>
      <trkpt lat="40.387897" lon="-3.364954">
        <ele>765</ele>
        <time>1970-01-01T02:21:54.000Z</time>
      </trkpt>
      <trkpt lat="40.387897" lon="-3.364954">
        <ele>765</ele>
        <time>1970-01-01T02:21:55.000Z</time>
      </trkpt>
      <trkpt lat="40.387875" lon="-3.364943">
        <ele>764.4</ele>
        <time>1970-01-01T02:25:22.000Z</time>
      </trkpt>
      <trkpt lat="40.387863" lon="-3.364929">
        <ele>764.6</ele>
        <time>1970-01-01T02:25:23.000Z</time>
      </trkpt>
      <trkpt lat="40.387847" lon="-3.364915">
        <ele>764.6</ele>
        <time>1970-01-01T02:25:24.000Z</time>
      </trkpt>
      <trkpt lat="40.387833" lon="-3.364897">
        <ele>764.6</ele>
        <time>1970-01-01T02:25:25.000Z</time>
      </trkpt>
      <trkpt lat="40.38782" lon="-3.36488">
        <ele>764.6</ele>
        <time>1970-01-01T02:25:26.000Z</time>
      </trkpt>
      <trkpt lat="40.387809" lon="-3.364866">
        <ele>764.6</ele>
        <time>1970-01-01T02:25:27.000Z</time>
      </trkpt>
      <trkpt lat="40.387797" lon="-3.364852">
        <ele>764.6</ele>
        <time>1970-01-01T02:25:28.000Z</time>
      </trkpt>
      <trkpt lat="40.387783" lon="-3.364838">
        <ele>764.8</ele>
        <time>1970-01-01T02:25:29.000Z</time>
      </trkpt>
      <trkpt lat="40.387771" lon="-3.364829">
        <ele>765</ele>
        <time>1970-01-01T02:25:30.000Z</time>
      </trkpt>
      <trkpt lat="40.387754" lon="-3.364822">
        <ele>765</ele>
        <time>1970-01-01T02:25:31.000Z</time>
      </trkpt>
      <trkpt lat="40.387733" lon="-3.364815">
        <ele>765.2</ele>
        <time>1970-01-01T02:25:32.000Z</time>
      </trkpt>
      <trkpt lat="40.387714" lon="-3.364809">
        <ele>765.2</ele>
        <time>1970-01-01T02:25:33.000Z</time>
      </trkpt>
      <trkpt lat="40.387698" lon="-3.364801">
        <ele>765.4</ele>
        <time>1970-01-01T02:25:34.000Z</time>
      </trkpt>
      <trkpt lat="40.387683" lon="-3.364796">
        <ele>765.4</ele>
        <time>1970-01-01T02:25:35.000Z</time>
      </trkpt>
      <trkpt lat="40.38767" lon="-3.364788">
        <ele>765.4</ele>
        <time>1970-01-01T02:25:36.000Z</time>
      </trkpt>
      <trkpt lat="40.387657" lon="-3.364783">
        <ele>765.4</ele>
        <time>1970-01-01T02:25:37.000Z</time>
      </trkpt>
      <trkpt lat="40.387644" lon="-3.364783">
        <ele>765.4</ele>
        <time>1970-01-01T02:25:38.000Z</time>
      </trkpt>
      <trkpt lat="40.38763" lon="-3.364787">
        <ele>765.6</ele>
        <time>1970-01-01T02:25:39.000Z</time>
      </trkpt>
      <trkpt lat="40.387613" lon="-3.364791">
        <ele>765.6</ele>
        <time>1970-01-01T02:25:40.000Z</time>
      </trkpt>
      <trkpt lat="40.387595" lon="-3.364793">
        <ele>765.8</ele>
        <time>1970-01-01T02:25:41.000Z</time>
      </trkpt>
      <trkpt lat="40.387578" lon="-3.364792">
        <ele>765.8</ele>
        <time>1970-01-01T02:25:42.000Z</time>
      </trkpt>
      <trkpt lat="40.387564" lon="-3.364792">
        <ele>765.8</ele>
        <time>1970-01-01T02:25:43.000Z</time>
      </trkpt>
      <trkpt lat="40.387552" lon="-3.364791">
        <ele>765.8</ele>
        <time>1970-01-01T02:25:44.000Z</time>
      </trkpt>
      <trkpt lat="40.387542" lon="-3.364788">
        <ele>765.8</ele>
        <time>1970-01-01T02:25:45.000Z</time>
      </trkpt>
      <trkpt lat="40.387534" lon="-3.364782">
        <ele>765.8</ele>
        <time>1970-01-01T02:25:46.000Z</time>
      </trkpt>
      <trkpt lat="40.387526" lon="-3.364776">
        <ele>766</ele>
        <time>1970-01-01T02:25:47.000Z</time>
      </trkpt>
      <trkpt lat="40.387517" lon="-3.364776">
        <ele>766</ele>
        <time>1970-01-01T02:25:48.000Z</time>
      </trkpt>
      <trkpt lat="40.38751" lon="-3.364776">
        <ele>766</ele>
        <time>1970-01-01T02:25:49.000Z</time>
      </trkpt>
      <trkpt lat="40.387503" lon="-3.364776">
        <ele>766</ele>
        <time>1970-01-01T02:25:50.000Z</time>
      </trkpt>
      <trkpt lat="40.387496" lon="-3.364777">
        <ele>766</ele>
        <time>1970-01-01T02:25:51.000Z</time>
      </trkpt>
      <trkpt lat="40.387488" lon="-3.36478">
        <ele>766</ele>
        <time>1970-01-01T02:25:52.000Z</time>
      </trkpt>
      <trkpt lat="40.387483" lon="-3.36478">
        <ele>766</ele>
        <time>1970-01-01T02:25:53.000Z</time>
      </trkpt>
      <trkpt lat="40.387483" lon="-3.36478">
        <ele>766</ele>
        <time>1970-01-01T02:25:54.000Z</time>
      </trkpt>
      <trkpt lat="40.387483" lon="-3.36478">
        <ele>766</ele>
        <time>1970-01-01T02:25:55.000Z</time>
      </trkpt>
      <trkpt lat="40.387446" lon="-3.364813">
        <ele>766.2</ele>
        <time>1970-01-01T02:25:59.000Z</time>
      </trkpt>
      <trkpt lat="40.387436" lon="-3.364823">
        <ele>766.2</ele>
        <time>1970-01-01T02:26:00.000Z</time>
      </trkpt>
      <trkpt lat="40.387426" lon="-3.364832">
        <ele>766.2</ele>
        <time>1970-01-01T02:26:01.000Z</time>
      </trkpt>
      <trkpt lat="40.387418" lon="-3.364842">
        <ele>766.2</ele>
        <time>1970-01-01T02:26:02.000Z</time>
      </trkpt>
      <trkpt lat="40.38741" lon="-3.364851">
        <ele>766.2</ele>
        <time>1970-01-01T02:26:03.000Z</time>
      </trkpt>
      <trkpt lat="40.387405" lon="-3.364863">
        <ele>766</ele>
        <time>1970-01-01T02:26:04.000Z</time>
      </trkpt>
      <trkpt lat="40.387407" lon="-3.364882">
        <ele>766</ele>
        <time>1970-01-01T02:26:05.000Z</time>
      </trkpt>
      <trkpt lat="40.387411" lon="-3.364906">
        <ele>765.8</ele>
        <time>1970-01-01T02:26:06.000Z</time>
      </trkpt>
      <trkpt lat="40.387415" lon="-3.364941">
        <ele>765.8</ele>
        <time>1970-01-01T02:26:07.000Z</time>
      </trkpt>
      <trkpt lat="40.387418" lon="-3.364983">
        <ele>765.8</ele>
        <time>1970-01-01T02:26:08.000Z</time>
      </trkpt>
      <trkpt lat="40.387422" lon="-3.365028">
        <ele>765.6</ele>
        <time>1970-01-01T02:26:09.000Z</time>
      </trkpt>
      <trkpt lat="40.38742" lon="-3.365074">
        <ele>765.6</ele>
        <time>1970-01-01T02:26:10.000Z</time>
      </trkpt>
      <trkpt lat="40.387421" lon="-3.365112">
        <ele>765.4</ele>
        <time>1970-01-01T02:26:11.000Z</time>
      </trkpt>
      <trkpt lat="40.387435" lon="-3.365141">
        <ele>765.4</ele>
        <time>1970-01-01T02:26:12.000Z</time>
      </trkpt>
      <trkpt lat="40.387454" lon="-3.365166">
        <ele>765</ele>
        <time>1970-01-01T02:26:13.000Z</time>
      </trkpt>
      <trkpt lat="40.387475" lon="-3.365193">
        <ele>764.8</ele>
        <time>1970-01-01T02:26:14.000Z</time>
      </trkpt>
      <trkpt lat="40.387496" lon="-3.365223">
        <ele>764.4</ele>
        <time>1970-01-01T02:26:15.000Z</time>
      </trkpt>
      <trkpt lat="40.387514" lon="-3.365255">
        <ele>764</ele>
        <time>1970-01-01T02:26:16.000Z</time>
      </trkpt>
      <trkpt lat="40.387528" lon="-3.365293">
        <ele>763.8</ele>
        <time>1970-01-01T02:26:17.000Z</time>
      </trkpt>
      <trkpt lat="40.387541" lon="-3.365339">
        <ele>762.4</ele>
        <time>1970-01-01T02:26:18.000Z</time>
      </trkpt>
      <trkpt lat="40.387554" lon="-3.365387">
        <ele>761.4</ele>
        <time>1970-01-01T02:26:19.000Z</time>
      </trkpt>
      <trkpt lat="40.387563" lon="-3.365433">
        <ele>760.4</ele>
        <time>1970-01-01T02:26:20.000Z</time>
      </trkpt>
      <trkpt lat="40.387568" lon="-3.365473">
        <ele>760.2</ele>
        <time>1970-01-01T02:26:21.000Z</time>
      </trkpt>
      <trkpt lat="40.387572" lon="-3.365508">
        <ele>759.4</ele>
        <time>1970-01-01T02:26:22.000Z</time>
      </trkpt>
      <trkpt lat="40.387576" lon="-3.365541">
        <ele>758.6</ele>
        <time>1970-01-01T02:26:23.000Z</time>
      </trkpt>
      <trkpt lat="40.387578" lon="-3.365569">
        <ele>758.2</ele>
        <time>1970-01-01T02:26:24.000Z</time>
      </trkpt>
      <trkpt lat="40.387577" lon="-3.365581">
        <ele>757.4</ele>
        <time>1970-01-01T02:26:25.000Z</time>
      </trkpt>
      <trkpt lat="40.387577" lon="-3.365581">
        <ele>757.2</ele>
        <time>1970-01-01T02:26:26.000Z</time>
      </trkpt>
      <trkpt lat="40.387577" lon="-3.365581">
        <ele>756.8</ele>
        <time>1970-01-01T02:26:27.000Z</time>
      </trkpt>
      <trkpt lat="40.387589" lon="-3.365606">
        <ele>756</ele>
        <time>1970-01-01T02:27:03.000Z</time>
      </trkpt>
      <trkpt lat="40.387609" lon="-3.365636">
        <ele>756</ele>
        <time>1970-01-01T02:27:04.000Z</time>
      </trkpt>
      <trkpt lat="40.387638" lon="-3.365672">
        <ele>756</ele>
        <time>1970-01-01T02:27:05.000Z</time>
      </trkpt>
      <trkpt lat="40.387667" lon="-3.365711">
        <ele>755.8</ele>
        <time>1970-01-01T02:27:06.000Z</time>
      </trkpt>
      <trkpt lat="40.387696" lon="-3.365744">
        <ele>755.8</ele>
        <time>1970-01-01T02:27:07.000Z</time>
      </trkpt>
      <trkpt lat="40.387724" lon="-3.365772">
        <ele>755.6</ele>
        <time>1970-01-01T02:27:08.000Z</time>
      </trkpt>
      <trkpt lat="40.387753" lon="-3.365799">
        <ele>755.4</ele>
        <time>1970-01-01T02:27:09.000Z</time>
      </trkpt>
      <trkpt lat="40.387786" lon="-3.365823">
        <ele>755.2</ele>
        <time>1970-01-01T02:27:10.000Z</time>
      </trkpt>
      <trkpt lat="40.387817" lon="-3.36586">
        <ele>754.6</ele>
        <time>1970-01-01T02:27:11.000Z</time>
      </trkpt>
      <trkpt lat="40.387846" lon="-3.365903">
        <ele>754.4</ele>
        <time>1970-01-01T02:27:12.000Z</time>
      </trkpt>
      <trkpt lat="40.387874" lon="-3.365942">
        <ele>753.8</ele>
        <time>1970-01-01T02:27:13.000Z</time>
      </trkpt>
      <trkpt lat="40.387904" lon="-3.365974">
        <ele>753.6</ele>
        <time>1970-01-01T02:27:14.000Z</time>
      </trkpt>
      <trkpt lat="40.387934" lon="-3.366">
        <ele>751.6</ele>
        <time>1970-01-01T02:27:15.000Z</time>
      </trkpt>
      <trkpt lat="40.387958" lon="-3.366029">
        <ele>749.8</ele>
        <time>1970-01-01T02:27:16.000Z</time>
      </trkpt>
      <trkpt lat="40.387981" lon="-3.366058">
        <ele>749.2</ele>
        <time>1970-01-01T02:27:17.000Z</time>
      </trkpt>
      <trkpt lat="40.388005" lon="-3.366084">
        <ele>747.8</ele>
        <time>1970-01-01T02:27:18.000Z</time>
      </trkpt>
      <trkpt lat="40.388033" lon="-3.366098">
        <ele>747.6</ele>
        <time>1970-01-01T02:27:19.000Z</time>
      </trkpt>
      <trkpt lat="40.388066" lon="-3.36611">
        <ele>747</ele>
        <time>1970-01-01T02:27:20.000Z</time>
      </trkpt>
      <trkpt lat="40.388092" lon="-3.366123">
        <ele>746.8</ele>
        <time>1970-01-01T02:27:21.000Z</time>
      </trkpt>
      <trkpt lat="40.388108" lon="-3.366146">
        <ele>745.6</ele>
        <time>1970-01-01T02:27:22.000Z</time>
      </trkpt>
      <trkpt lat="40.388119" lon="-3.36618">
        <ele>744.2</ele>
        <time>1970-01-01T02:27:23.000Z</time>
      </trkpt>
      <trkpt lat="40.388135" lon="-3.366224">
        <ele>743.6</ele>
        <time>1970-01-01T02:27:24.000Z</time>
      </trkpt>
      <trkpt lat="40.388149" lon="-3.366281">
        <ele>742.8</ele>
        <time>1970-01-01T02:27:25.000Z</time>
      </trkpt>
      <trkpt lat="40.388155" lon="-3.366339">
        <ele>742.4</ele>
        <time>1970-01-01T02:27:26.000Z</time>
      </trkpt>
      <trkpt lat="40.388153" lon="-3.366397">
        <ele>741.4</ele>
        <time>1970-01-01T02:27:27.000Z</time>
      </trkpt>
      <trkpt lat="40.388156" lon="-3.366442">
        <ele>740.8</ele>
        <time>1970-01-01T02:27:28.000Z</time>
      </trkpt>
      <trkpt lat="40.388173" lon="-3.366471">
        <ele>739.8</ele>
        <time>1970-01-01T02:27:29.000Z</time>
      </trkpt>
      <trkpt lat="40.38819" lon="-3.366499">
        <ele>739.4</ele>
        <time>1970-01-01T02:27:30.000Z</time>
      </trkpt>
      <trkpt lat="40.388195" lon="-3.366533">
        <ele>738.6</ele>
        <time>1970-01-01T02:27:31.000Z</time>
      </trkpt>
      <trkpt lat="40.388204" lon="-3.366586">
        <ele>738</ele>
        <time>1970-01-01T02:27:32.000Z</time>
      </trkpt>
      <trkpt lat="40.388221" lon="-3.366622">
        <ele>737.8</ele>
        <time>1970-01-01T02:27:33.000Z</time>
      </trkpt>
      <trkpt lat="40.388243" lon="-3.366658">
        <ele>736.8</ele>
        <time>1970-01-01T02:27:34.000Z</time>
      </trkpt>
      <trkpt lat="40.388271" lon="-3.366702">
        <ele>736.4</ele>
        <time>1970-01-01T02:27:35.000Z</time>
      </trkpt>
      <trkpt lat="40.388309" lon="-3.366743">
        <ele>735</ele>
        <time>1970-01-01T02:27:36.000Z</time>
      </trkpt>
      <trkpt lat="40.388351" lon="-3.36678">
        <ele>734.6</ele>
        <time>1970-01-01T02:27:37.000Z</time>
      </trkpt>
      <trkpt lat="40.388381" lon="-3.36682">
        <ele>733.8</ele>
        <time>1970-01-01T02:27:38.000Z</time>
      </trkpt>
      <trkpt lat="40.388394" lon="-3.366872">
        <ele>733.4</ele>
        <time>1970-01-01T02:27:39.000Z</time>
      </trkpt>
      <trkpt lat="40.388398" lon="-3.366936">
        <ele>732.8</ele>
        <time>1970-01-01T02:27:40.000Z</time>
      </trkpt>
      <trkpt lat="40.388398" lon="-3.366999">
        <ele>731.4</ele>
        <time>1970-01-01T02:27:41.000Z</time>
      </trkpt>
      <trkpt lat="40.388392" lon="-3.367061">
        <ele>730.8</ele>
        <time>1970-01-01T02:27:42.000Z</time>
      </trkpt>
      <trkpt lat="40.388384" lon="-3.367128">
        <ele>730</ele>
        <time>1970-01-01T02:27:43.000Z</time>
      </trkpt>
      <trkpt lat="40.388377" lon="-3.367204">
        <ele>729.6</ele>
        <time>1970-01-01T02:27:44.000Z</time>
      </trkpt>
      <trkpt lat="40.388376" lon="-3.367285">
        <ele>729</ele>
        <time>1970-01-01T02:27:45.000Z</time>
      </trkpt>
      <trkpt lat="40.388382" lon="-3.36736">
        <ele>728.4</ele>
        <time>1970-01-01T02:27:46.000Z</time>
      </trkpt>
      <trkpt lat="40.388379" lon="-3.367416">
        <ele>727.6</ele>
        <time>1970-01-01T02:27:47.000Z</time>
      </trkpt>
      <trkpt lat="40.388361" lon="-3.367454">
        <ele>726.6</ele>
        <time>1970-01-01T02:27:48.000Z</time>
      </trkpt>
      <trkpt lat="40.388339" lon="-3.367479">
        <ele>726</ele>
        <time>1970-01-01T02:27:49.000Z</time>
      </trkpt>
      <trkpt lat="40.388314" lon="-3.367497">
        <ele>724.8</ele>
        <time>1970-01-01T02:27:50.000Z</time>
      </trkpt>
      <trkpt lat="40.388282" lon="-3.367517">
        <ele>724.6</ele>
        <time>1970-01-01T02:27:51.000Z</time>
      </trkpt>
      <trkpt lat="40.388236" lon="-3.367549">
        <ele>723.6</ele>
        <time>1970-01-01T02:27:52.000Z</time>
      </trkpt>
      <trkpt lat="40.388186" lon="-3.367596">
        <ele>723</ele>
        <time>1970-01-01T02:27:53.000Z</time>
      </trkpt>
      <trkpt lat="40.388148" lon="-3.367651">
        <ele>722.8</ele>
        <time>1970-01-01T02:27:54.000Z</time>
      </trkpt>
      <trkpt lat="40.388127" lon="-3.367708">
        <ele>722.2</ele>
        <time>1970-01-01T02:27:55.000Z</time>
      </trkpt>
      <trkpt lat="40.388123" lon="-3.367757">
        <ele>721.6</ele>
        <time>1970-01-01T02:27:56.000Z</time>
      </trkpt>
      <trkpt lat="40.388123" lon="-3.367801">
        <ele>719.8</ele>
        <time>1970-01-01T02:27:57.000Z</time>
      </trkpt>
      <trkpt lat="40.38812" lon="-3.367854">
        <ele>719.4</ele>
        <time>1970-01-01T02:27:58.000Z</time>
      </trkpt>
      <trkpt lat="40.388102" lon="-3.367918">
        <ele>718.4</ele>
        <time>1970-01-01T02:27:59.000Z</time>
      </trkpt>
      <trkpt lat="40.388082" lon="-3.367977">
        <ele>718</ele>
        <time>1970-01-01T02:28:00.000Z</time>
      </trkpt>
      <trkpt lat="40.388053" lon="-3.368073">
        <ele>717.2</ele>
        <time>1970-01-01T02:28:01.000Z</time>
      </trkpt>
      <trkpt lat="40.388031" lon="-3.368149">
        <ele>716.2</ele>
        <time>1970-01-01T02:28:02.000Z</time>
      </trkpt>
      <trkpt lat="40.388001" lon="-3.368213">
        <ele>715.8</ele>
        <time>1970-01-01T02:28:03.000Z</time>
      </trkpt>
      <trkpt lat="40.387971" lon="-3.368262">
        <ele>715</ele>
        <time>1970-01-01T02:28:04.000Z</time>
      </trkpt>
      <trkpt lat="40.38795" lon="-3.368293">
        <ele>714.6</ele>
        <time>1970-01-01T02:28:05.000Z</time>
      </trkpt>
      <trkpt lat="40.387936" lon="-3.368314">
        <ele>714.2</ele>
        <time>1970-01-01T02:28:06.000Z</time>
      </trkpt>
      <trkpt lat="40.387926" lon="-3.368328">
        <ele>714</ele>
        <time>1970-01-01T02:28:07.000Z</time>
      </trkpt>
      <trkpt lat="40.387922" lon="-3.368334">
        <ele>713.8</ele>
        <time>1970-01-01T02:28:08.000Z</time>
      </trkpt>
      <trkpt lat="40.387922" lon="-3.368334">
        <ele>713.8</ele>
        <time>1970-01-01T02:28:09.000Z</time>
      </trkpt>
      <trkpt lat="40.387922" lon="-3.368334">
        <ele>713.8</ele>
        <time>1970-01-01T02:28:10.000Z</time>
      </trkpt>
      <trkpt lat="40.387908" lon="-3.368393">
        <ele>714</ele>
        <time>1970-01-01T02:29:17.000Z</time>
      </trkpt>
      <trkpt lat="40.387901" lon="-3.368427">
        <ele>714</ele>
        <time>1970-01-01T02:29:18.000Z</time>
      </trkpt>
      <trkpt lat="40.387895" lon="-3.368459">
        <ele>714</ele>
        <time>1970-01-01T02:29:19.000Z</time>
      </trkpt>
      <trkpt lat="40.38789" lon="-3.368489">
        <ele>714</ele>
        <time>1970-01-01T02:29:20.000Z</time>
      </trkpt>
      <trkpt lat="40.387885" lon="-3.368518">
        <ele>714</ele>
        <time>1970-01-01T02:29:21.000Z</time>
      </trkpt>
      <trkpt lat="40.387881" lon="-3.368543">
        <ele>714</ele>
        <time>1970-01-01T02:29:22.000Z</time>
      </trkpt>
      <trkpt lat="40.387876" lon="-3.368564">
        <ele>714</ele>
        <time>1970-01-01T02:29:23.000Z</time>
      </trkpt>
      <trkpt lat="40.387871" lon="-3.368585">
        <ele>714</ele>
        <time>1970-01-01T02:29:24.000Z</time>
      </trkpt>
      <trkpt lat="40.387865" lon="-3.368605">
        <ele>714.2</ele>
        <time>1970-01-01T02:29:25.000Z</time>
      </trkpt>
      <trkpt lat="40.387863" lon="-3.368619">
        <ele>714.2</ele>
        <time>1970-01-01T02:29:26.000Z</time>
      </trkpt>
      <trkpt lat="40.387864" lon="-3.368626">
        <ele>714.2</ele>
        <time>1970-01-01T02:29:27.000Z</time>
      </trkpt>
      <trkpt lat="40.387864" lon="-3.368626">
        <ele>714.2</ele>
        <time>1970-01-01T02:29:28.000Z</time>
      </trkpt>
      <trkpt lat="40.387864" lon="-3.368626">
        <ele>714.4</ele>
        <time>1970-01-01T02:29:29.000Z</time>
      </trkpt>
      <trkpt lat="40.387855" lon="-3.368683">
        <ele>714.4</ele>
        <time>1970-01-01T02:30:09.000Z</time>
      </trkpt>
      <trkpt lat="40.387851" lon="-3.368714">
        <ele>714.4</ele>
        <time>1970-01-01T02:30:10.000Z</time>
      </trkpt>
      <trkpt lat="40.387847" lon="-3.368746">
        <ele>714.4</ele>
        <time>1970-01-01T02:30:11.000Z</time>
      </trkpt>
      <trkpt lat="40.387844" lon="-3.36878">
        <ele>714.2</ele>
        <time>1970-01-01T02:30:12.000Z</time>
      </trkpt>
      <trkpt lat="40.387837" lon="-3.368819">
        <ele>714</ele>
        <time>1970-01-01T02:30:13.000Z</time>
      </trkpt>
      <trkpt lat="40.387831" lon="-3.368861">
        <ele>714.2</ele>
        <time>1970-01-01T02:30:14.000Z</time>
      </trkpt>
      <trkpt lat="40.387827" lon="-3.368901">
        <ele>714</ele>
        <time>1970-01-01T02:30:15.000Z</time>
      </trkpt>
      <trkpt lat="40.387819" lon="-3.368952">
        <ele>714</ele>
        <time>1970-01-01T02:30:16.000Z</time>
      </trkpt>
      <trkpt lat="40.387809" lon="-3.369004">
        <ele>713.8</ele>
        <time>1970-01-01T02:30:17.000Z</time>
      </trkpt>
      <trkpt lat="40.3878" lon="-3.36906">
        <ele>713.6</ele>
        <time>1970-01-01T02:30:18.000Z</time>
      </trkpt>
      <trkpt lat="40.387793" lon="-3.369112">
        <ele>713.6</ele>
        <time>1970-01-01T02:30:19.000Z</time>
      </trkpt>
      <trkpt lat="40.387785" lon="-3.369167">
        <ele>713.6</ele>
        <time>1970-01-01T02:30:20.000Z</time>
      </trkpt>
      <trkpt lat="40.387771" lon="-3.369221">
        <ele>713.6</ele>
        <time>1970-01-01T02:30:21.000Z</time>
      </trkpt>
      <trkpt lat="40.387755" lon="-3.369278">
        <ele>713.4</ele>
        <time>1970-01-01T02:30:22.000Z</time>
      </trkpt>
      <trkpt lat="40.387737" lon="-3.369339">
        <ele>713.2</ele>
        <time>1970-01-01T02:30:23.000Z</time>
      </trkpt>
      <trkpt lat="40.387721" lon="-3.369405">
        <ele>713</ele>
        <time>1970-01-01T02:30:24.000Z</time>
      </trkpt>
      <trkpt lat="40.387707" lon="-3.369475">
        <ele>712.8</ele>
        <time>1970-01-01T02:30:25.000Z</time>
      </trkpt>
      <trkpt lat="40.387691" lon="-3.36955">
        <ele>712.6</ele>
        <time>1970-01-01T02:30:26.000Z</time>
      </trkpt>
      <trkpt lat="40.38768" lon="-3.369629">
        <ele>712.4</ele>
        <time>1970-01-01T02:30:27.000Z</time>
      </trkpt>
      <trkpt lat="40.38767" lon="-3.369711">
        <ele>712.2</ele>
        <time>1970-01-01T02:30:28.000Z</time>
      </trkpt>
      <trkpt lat="40.387659" lon="-3.369797">
        <ele>711.8</ele>
        <time>1970-01-01T02:30:29.000Z</time>
      </trkpt>
      <trkpt lat="40.38764" lon="-3.369888">
        <ele>711.6</ele>
        <time>1970-01-01T02:30:30.000Z</time>
      </trkpt>
      <trkpt lat="40.387613" lon="-3.369982">
        <ele>711.4</ele>
        <time>1970-01-01T02:30:31.000Z</time>
      </trkpt>
      <trkpt lat="40.387588" lon="-3.370075">
        <ele>711.2</ele>
        <time>1970-01-01T02:30:32.000Z</time>
      </trkpt>
      <trkpt lat="40.387561" lon="-3.370165">
        <ele>710.6</ele>
        <time>1970-01-01T02:30:33.000Z</time>
      </trkpt>
      <trkpt lat="40.387531" lon="-3.370253">
        <ele>710.2</ele>
        <time>1970-01-01T02:30:34.000Z</time>
      </trkpt>
      <trkpt lat="40.387498" lon="-3.370337">
        <ele>709.6</ele>
        <time>1970-01-01T02:30:35.000Z</time>
      </trkpt>
      <trkpt lat="40.387461" lon="-3.370417">
        <ele>709.2</ele>
        <time>1970-01-01T02:30:36.000Z</time>
      </trkpt>
      <trkpt lat="40.387421" lon="-3.37049">
        <ele>709</ele>
        <time>1970-01-01T02:30:37.000Z</time>
      </trkpt>
      <trkpt lat="40.387381" lon="-3.370557">
        <ele>708.4</ele>
        <time>1970-01-01T02:30:38.000Z</time>
      </trkpt>
      <trkpt lat="40.387345" lon="-3.370613">
        <ele>708</ele>
        <time>1970-01-01T02:30:39.000Z</time>
      </trkpt>
      <trkpt lat="40.38732" lon="-3.370652">
        <ele>707.6</ele>
        <time>1970-01-01T02:30:40.000Z</time>
      </trkpt>
      <trkpt lat="40.387311" lon="-3.370683">
        <ele>707.4</ele>
        <time>1970-01-01T02:30:41.000Z</time>
      </trkpt>
      <trkpt lat="40.387317" lon="-3.370708">
        <ele>707.2</ele>
        <time>1970-01-01T02:30:42.000Z</time>
      </trkpt>
      <trkpt lat="40.387334" lon="-3.370718">
        <ele>707</ele>
        <time>1970-01-01T02:30:43.000Z</time>
      </trkpt>
      <trkpt lat="40.387356" lon="-3.370709">
        <ele>707</ele>
        <time>1970-01-01T02:30:44.000Z</time>
      </trkpt>
      <trkpt lat="40.38738" lon="-3.370689">
        <ele>706.8</ele>
        <time>1970-01-01T02:30:45.000Z</time>
      </trkpt>
      <trkpt lat="40.387412" lon="-3.370665">
        <ele>706.8</ele>
        <time>1970-01-01T02:30:46.000Z</time>
      </trkpt>
      <trkpt lat="40.387445" lon="-3.370638">
        <ele>706.6</ele>
        <time>1970-01-01T02:30:47.000Z</time>
      </trkpt>
      <trkpt lat="40.387477" lon="-3.370614">
        <ele>706.6</ele>
        <time>1970-01-01T02:30:48.000Z</time>
      </trkpt>
      <trkpt lat="40.387517" lon="-3.370587">
        <ele>706.6</ele>
        <time>1970-01-01T02:30:49.000Z</time>
      </trkpt>
      <trkpt lat="40.387571" lon="-3.370553">
        <ele>706.6</ele>
        <time>1970-01-01T02:30:50.000Z</time>
      </trkpt>
      <trkpt lat="40.38762" lon="-3.370523">
        <ele>706.2</ele>
        <time>1970-01-01T02:30:51.000Z</time>
      </trkpt>
      <trkpt lat="40.387659" lon="-3.370498">
        <ele>705.6</ele>
        <time>1970-01-01T02:30:52.000Z</time>
      </trkpt>
      <trkpt lat="40.387702" lon="-3.370464">
        <ele>705.4</ele>
        <time>1970-01-01T02:30:53.000Z</time>
      </trkpt>
      <trkpt lat="40.387753" lon="-3.370421">
        <ele>704.8</ele>
        <time>1970-01-01T02:30:54.000Z</time>
      </trkpt>
      <trkpt lat="40.387796" lon="-3.370389">
        <ele>704.6</ele>
        <time>1970-01-01T02:30:55.000Z</time>
      </trkpt>
      <trkpt lat="40.38784" lon="-3.37036">
        <ele>704.4</ele>
        <time>1970-01-01T02:30:56.000Z</time>
      </trkpt>
      <trkpt lat="40.387873" lon="-3.370338">
        <ele>704.2</ele>
        <time>1970-01-01T02:30:57.000Z</time>
      </trkpt>
      <trkpt lat="40.387911" lon="-3.37031">
        <ele>704.2</ele>
        <time>1970-01-01T02:30:58.000Z</time>
      </trkpt>
      <trkpt lat="40.387951" lon="-3.370277">
        <ele>704</ele>
        <time>1970-01-01T02:30:59.000Z</time>
      </trkpt>
      <trkpt lat="40.387975" lon="-3.370254">
        <ele>704</ele>
        <time>1970-01-01T02:31:00.000Z</time>
      </trkpt>
      <trkpt lat="40.387995" lon="-3.370233">
        <ele>703.8</ele>
        <time>1970-01-01T02:31:01.000Z</time>
      </trkpt>
      <trkpt lat="40.388012" lon="-3.370216">
        <ele>703.6</ele>
        <time>1970-01-01T02:31:02.000Z</time>
      </trkpt>
      <trkpt lat="40.388023" lon="-3.370206">
        <ele>703.6</ele>
        <time>1970-01-01T02:31:03.000Z</time>
      </trkpt>
      <trkpt lat="40.38804" lon="-3.370196">
        <ele>703.4</ele>
        <time>1970-01-01T02:31:04.000Z</time>
      </trkpt>
      <trkpt lat="40.388066" lon="-3.370184">
        <ele>703.4</ele>
        <time>1970-01-01T02:31:05.000Z</time>
      </trkpt>
      <trkpt lat="40.388093" lon="-3.370179">
        <ele>703.4</ele>
        <time>1970-01-01T02:31:06.000Z</time>
      </trkpt>
      <trkpt lat="40.388124" lon="-3.370174">
        <ele>703.2</ele>
        <time>1970-01-01T02:31:07.000Z</time>
      </trkpt>
      <trkpt lat="40.388152" lon="-3.370172">
        <ele>703.2</ele>
        <time>1970-01-01T02:31:08.000Z</time>
      </trkpt>
      <trkpt lat="40.388194" lon="-3.370173">
        <ele>703</ele>
        <time>1970-01-01T02:31:09.000Z</time>
      </trkpt>
      <trkpt lat="40.388249" lon="-3.370182">
        <ele>702.6</ele>
        <time>1970-01-01T02:31:10.000Z</time>
      </trkpt>
      <trkpt lat="40.388298" lon="-3.370198">
        <ele>702.4</ele>
        <time>1970-01-01T02:31:11.000Z</time>
      </trkpt>
      <trkpt lat="40.388339" lon="-3.370224">
        <ele>702.2</ele>
        <time>1970-01-01T02:31:12.000Z</time>
      </trkpt>
      <trkpt lat="40.38837" lon="-3.370253">
        <ele>702</ele>
        <time>1970-01-01T02:31:13.000Z</time>
      </trkpt>
      <trkpt lat="40.388384" lon="-3.370275">
        <ele>701.6</ele>
        <time>1970-01-01T02:31:14.000Z</time>
      </trkpt>
      <trkpt lat="40.388392" lon="-3.370301">
        <ele>701.4</ele>
        <time>1970-01-01T02:31:15.000Z</time>
      </trkpt>
      <trkpt lat="40.388391" lon="-3.370312">
        <ele>701.4</ele>
        <time>1970-01-01T02:31:16.000Z</time>
      </trkpt>
      <trkpt lat="40.388391" lon="-3.370323">
        <ele>701</ele>
        <time>1970-01-01T02:31:17.000Z</time>
      </trkpt>
      <trkpt lat="40.388393" lon="-3.370336">
        <ele>700.8</ele>
        <time>1970-01-01T02:31:18.000Z</time>
      </trkpt>
      <trkpt lat="40.388399" lon="-3.370354">
        <ele>700.4</ele>
        <time>1970-01-01T02:31:19.000Z</time>
      </trkpt>
      <trkpt lat="40.388409" lon="-3.370375">
        <ele>700.4</ele>
        <time>1970-01-01T02:31:20.000Z</time>
      </trkpt>
      <trkpt lat="40.388425" lon="-3.370405">
        <ele>700.2</ele>
        <time>1970-01-01T02:31:21.000Z</time>
      </trkpt>
      <trkpt lat="40.388441" lon="-3.370433">
        <ele>700</ele>
        <time>1970-01-01T02:31:22.000Z</time>
      </trkpt>
      <trkpt lat="40.388455" lon="-3.370474">
        <ele>699.8</ele>
        <time>1970-01-01T02:31:23.000Z</time>
      </trkpt>
      <trkpt lat="40.388463" lon="-3.370513">
        <ele>699.6</ele>
        <time>1970-01-01T02:31:24.000Z</time>
      </trkpt>
      <trkpt lat="40.388472" lon="-3.370555">
        <ele>699.4</ele>
        <time>1970-01-01T02:31:25.000Z</time>
      </trkpt>
      <trkpt lat="40.38848" lon="-3.370582">
        <ele>699.4</ele>
        <time>1970-01-01T02:31:26.000Z</time>
      </trkpt>
      <trkpt lat="40.388487" lon="-3.370598">
        <ele>699.2</ele>
        <time>1970-01-01T02:31:27.000Z</time>
      </trkpt>
      <trkpt lat="40.388496" lon="-3.370616">
        <ele>698.8</ele>
        <time>1970-01-01T02:31:28.000Z</time>
      </trkpt>
      <trkpt lat="40.38851" lon="-3.370638">
        <ele>698.6</ele>
        <time>1970-01-01T02:31:29.000Z</time>
      </trkpt>
      <trkpt lat="40.388536" lon="-3.370658">
        <ele>698.4</ele>
        <time>1970-01-01T02:31:30.000Z</time>
      </trkpt>
      <trkpt lat="40.388559" lon="-3.370653">
        <ele>698.2</ele>
        <time>1970-01-01T02:31:31.000Z</time>
      </trkpt>
      <trkpt lat="40.388583" lon="-3.370643">
        <ele>698</ele>
        <time>1970-01-01T02:31:32.000Z</time>
      </trkpt>
      <trkpt lat="40.388605" lon="-3.370634">
        <ele>697.8</ele>
        <time>1970-01-01T02:31:33.000Z</time>
      </trkpt>
      <trkpt lat="40.388633" lon="-3.370626">
        <ele>697.6</ele>
        <time>1970-01-01T02:31:34.000Z</time>
      </trkpt>
      <trkpt lat="40.388671" lon="-3.370611">
        <ele>697.2</ele>
        <time>1970-01-01T02:31:35.000Z</time>
      </trkpt>
      <trkpt lat="40.388706" lon="-3.370596">
        <ele>697</ele>
        <time>1970-01-01T02:31:36.000Z</time>
      </trkpt>
      <trkpt lat="40.388742" lon="-3.37058">
        <ele>696.8</ele>
        <time>1970-01-01T02:31:37.000Z</time>
      </trkpt>
      <trkpt lat="40.388774" lon="-3.370563">
        <ele>696.6</ele>
        <time>1970-01-01T02:31:38.000Z</time>
      </trkpt>
      <trkpt lat="40.388819" lon="-3.370541">
        <ele>696.6</ele>
        <time>1970-01-01T02:31:39.000Z</time>
      </trkpt>
      <trkpt lat="40.388871" lon="-3.370509">
        <ele>696.2</ele>
        <time>1970-01-01T02:31:40.000Z</time>
      </trkpt>
      <trkpt lat="40.388916" lon="-3.370479">
        <ele>696.2</ele>
        <time>1970-01-01T02:31:41.000Z</time>
      </trkpt>
      <trkpt lat="40.388961" lon="-3.370445">
        <ele>696</ele>
        <time>1970-01-01T02:31:42.000Z</time>
      </trkpt>
      <trkpt lat="40.388997" lon="-3.370413">
        <ele>696</ele>
        <time>1970-01-01T02:31:43.000Z</time>
      </trkpt>
      <trkpt lat="40.389041" lon="-3.37037">
        <ele>695.6</ele>
        <time>1970-01-01T02:31:44.000Z</time>
      </trkpt>
      <trkpt lat="40.389091" lon="-3.370309">
        <ele>695.6</ele>
        <time>1970-01-01T02:31:45.000Z</time>
      </trkpt>
      <trkpt lat="40.389132" lon="-3.370255">
        <ele>695.6</ele>
        <time>1970-01-01T02:31:46.000Z</time>
      </trkpt>
      <trkpt lat="40.389175" lon="-3.370204">
        <ele>695</ele>
        <time>1970-01-01T02:31:47.000Z</time>
      </trkpt>
      <trkpt lat="40.389217" lon="-3.370168">
        <ele>695</ele>
        <time>1970-01-01T02:31:48.000Z</time>
      </trkpt>
      <trkpt lat="40.38928" lon="-3.370129">
        <ele>694.4</ele>
        <time>1970-01-01T02:31:49.000Z</time>
      </trkpt>
      <trkpt lat="40.389362" lon="-3.370112">
        <ele>694.2</ele>
        <time>1970-01-01T02:31:50.000Z</time>
      </trkpt>
      <trkpt lat="40.38943" lon="-3.370133">
        <ele>693.8</ele>
        <time>1970-01-01T02:31:51.000Z</time>
      </trkpt>
      <trkpt lat="40.389492" lon="-3.370168">
        <ele>693.8</ele>
        <time>1970-01-01T02:31:52.000Z</time>
      </trkpt>
      <trkpt lat="40.389554" lon="-3.370199">
        <ele>693</ele>
        <time>1970-01-01T02:31:53.000Z</time>
      </trkpt>
      <trkpt lat="40.389601" lon="-3.370217">
        <ele>692.2</ele>
        <time>1970-01-01T02:31:54.000Z</time>
      </trkpt>
      <trkpt lat="40.389659" lon="-3.370231">
        <ele>692</ele>
        <time>1970-01-01T02:31:55.000Z</time>
      </trkpt>
      <trkpt lat="40.389727" lon="-3.370249">
        <ele>691.4</ele>
        <time>1970-01-01T02:31:56.000Z</time>
      </trkpt>
      <trkpt lat="40.389785" lon="-3.370261">
        <ele>691.2</ele>
        <time>1970-01-01T02:31:57.000Z</time>
      </trkpt>
      <trkpt lat="40.389846" lon="-3.370271">
        <ele>691</ele>
        <time>1970-01-01T02:31:58.000Z</time>
      </trkpt>
      <trkpt lat="40.389911" lon="-3.370279">
        <ele>691</ele>
        <time>1970-01-01T02:31:59.000Z</time>
      </trkpt>
      <trkpt lat="40.389965" lon="-3.370286">
        <ele>690.6</ele>
        <time>1970-01-01T02:32:00.000Z</time>
      </trkpt>
      <trkpt lat="40.390047" lon="-3.370298">
        <ele>690.6</ele>
        <time>1970-01-01T02:32:01.000Z</time>
      </trkpt>
      <trkpt lat="40.390114" lon="-3.370311">
        <ele>690.4</ele>
        <time>1970-01-01T02:32:02.000Z</time>
      </trkpt>
      <trkpt lat="40.390178" lon="-3.370327">
        <ele>690.4</ele>
        <time>1970-01-01T02:32:03.000Z</time>
      </trkpt>
      <trkpt lat="40.390227" lon="-3.370341">
        <ele>690.4</ele>
        <time>1970-01-01T02:32:04.000Z</time>
      </trkpt>
      <trkpt lat="40.39029" lon="-3.370359">
        <ele>690.2</ele>
        <time>1970-01-01T02:32:05.000Z</time>
      </trkpt>
      <trkpt lat="40.390362" lon="-3.370375">
        <ele>690.2</ele>
        <time>1970-01-01T02:32:06.000Z</time>
      </trkpt>
      <trkpt lat="40.390422" lon="-3.370386">
        <ele>690.2</ele>
        <time>1970-01-01T02:32:07.000Z</time>
      </trkpt>
      <trkpt lat="40.390484" lon="-3.370392">
        <ele>690.2</ele>
        <time>1970-01-01T02:32:08.000Z</time>
      </trkpt>
      <trkpt lat="40.390534" lon="-3.370389">
        <ele>690.2</ele>
        <time>1970-01-01T02:32:09.000Z</time>
      </trkpt>
      <trkpt lat="40.390594" lon="-3.370378">
        <ele>690.2</ele>
        <time>1970-01-01T02:32:10.000Z</time>
      </trkpt>
      <trkpt lat="40.390667" lon="-3.37036">
        <ele>690</ele>
        <time>1970-01-01T02:32:11.000Z</time>
      </trkpt>
      <trkpt lat="40.390728" lon="-3.37034">
        <ele>690</ele>
        <time>1970-01-01T02:32:12.000Z</time>
      </trkpt>
      <trkpt lat="40.390788" lon="-3.370313">
        <ele>689.8</ele>
        <time>1970-01-01T02:32:13.000Z</time>
      </trkpt>
      <trkpt lat="40.390835" lon="-3.370287">
        <ele>690</ele>
        <time>1970-01-01T02:32:14.000Z</time>
      </trkpt>
      <trkpt lat="40.390894" lon="-3.370252">
        <ele>690</ele>
        <time>1970-01-01T02:32:15.000Z</time>
      </trkpt>
      <trkpt lat="40.390961" lon="-3.370218">
        <ele>690</ele>
        <time>1970-01-01T02:32:16.000Z</time>
      </trkpt>
      <trkpt lat="40.391021" lon="-3.370186">
        <ele>690</ele>
        <time>1970-01-01T02:32:17.000Z</time>
      </trkpt>
      <trkpt lat="40.391083" lon="-3.370154">
        <ele>690</ele>
        <time>1970-01-01T02:32:18.000Z</time>
      </trkpt>
      <trkpt lat="40.391132" lon="-3.370131">
        <ele>689.8</ele>
        <time>1970-01-01T02:32:19.000Z</time>
      </trkpt>
      <trkpt lat="40.391193" lon="-3.370104">
        <ele>689.6</ele>
        <time>1970-01-01T02:32:20.000Z</time>
      </trkpt>
      <trkpt lat="40.391265" lon="-3.370075">
        <ele>689.6</ele>
        <time>1970-01-01T02:32:21.000Z</time>
      </trkpt>
      <trkpt lat="40.391329" lon="-3.370051">
        <ele>689.4</ele>
        <time>1970-01-01T02:32:22.000Z</time>
      </trkpt>
      <trkpt lat="40.391396" lon="-3.370029">
        <ele>689.2</ele>
        <time>1970-01-01T02:32:23.000Z</time>
      </trkpt>
      <trkpt lat="40.391461" lon="-3.370008">
        <ele>689.2</ele>
        <time>1970-01-01T02:32:24.000Z</time>
      </trkpt>
      <trkpt lat="40.391516" lon="-3.369991">
        <ele>689</ele>
        <time>1970-01-01T02:32:25.000Z</time>
      </trkpt>
      <trkpt lat="40.391599" lon="-3.369962">
        <ele>688.8</ele>
        <time>1970-01-01T02:32:26.000Z</time>
      </trkpt>
      <trkpt lat="40.391669" lon="-3.369937">
        <ele>688.6</ele>
        <time>1970-01-01T02:32:27.000Z</time>
      </trkpt>
      <trkpt lat="40.391737" lon="-3.369913">
        <ele>688.4</ele>
        <time>1970-01-01T02:32:28.000Z</time>
      </trkpt>
      <trkpt lat="40.391793" lon="-3.369895">
        <ele>688.4</ele>
        <time>1970-01-01T02:32:29.000Z</time>
      </trkpt>
      <trkpt lat="40.391862" lon="-3.369878">
        <ele>688</ele>
        <time>1970-01-01T02:32:30.000Z</time>
      </trkpt>
      <trkpt lat="40.391947" lon="-3.369859">
        <ele>688</ele>
        <time>1970-01-01T02:32:31.000Z</time>
      </trkpt>
      <trkpt lat="40.392018" lon="-3.369843">
        <ele>687.8</ele>
        <time>1970-01-01T02:32:32.000Z</time>
      </trkpt>
      <trkpt lat="40.392089" lon="-3.36983">
        <ele>687.4</ele>
        <time>1970-01-01T02:32:33.000Z</time>
      </trkpt>
      <trkpt lat="40.392146" lon="-3.369819">
        <ele>687</ele>
        <time>1970-01-01T02:32:34.000Z</time>
      </trkpt>
      <trkpt lat="40.392217" lon="-3.369804">
        <ele>686.4</ele>
        <time>1970-01-01T02:32:35.000Z</time>
      </trkpt>
      <trkpt lat="40.392302" lon="-3.369785">
        <ele>686</ele>
        <time>1970-01-01T02:32:36.000Z</time>
      </trkpt>
      <trkpt lat="40.392372" lon="-3.369773">
        <ele>685.6</ele>
        <time>1970-01-01T02:32:37.000Z</time>
      </trkpt>
      <trkpt lat="40.392442" lon="-3.369761">
        <ele>685.4</ele>
        <time>1970-01-01T02:32:38.000Z</time>
      </trkpt>
      <trkpt lat="40.392495" lon="-3.36975">
        <ele>685</ele>
        <time>1970-01-01T02:32:39.000Z</time>
      </trkpt>
      <trkpt lat="40.39256" lon="-3.36974">
        <ele>685</ele>
        <time>1970-01-01T02:32:40.000Z</time>
      </trkpt>
      <trkpt lat="40.392639" lon="-3.369723">
        <ele>684.6</ele>
        <time>1970-01-01T02:32:41.000Z</time>
      </trkpt>
      <trkpt lat="40.392705" lon="-3.369699">
        <ele>684.6</ele>
        <time>1970-01-01T02:32:42.000Z</time>
      </trkpt>
      <trkpt lat="40.392768" lon="-3.369668">
        <ele>684.4</ele>
        <time>1970-01-01T02:32:43.000Z</time>
      </trkpt>
      <trkpt lat="40.392817" lon="-3.369645">
        <ele>684.4</ele>
        <time>1970-01-01T02:32:44.000Z</time>
      </trkpt>
      <trkpt lat="40.392878" lon="-3.369618">
        <ele>684.4</ele>
        <time>1970-01-01T02:32:45.000Z</time>
      </trkpt>
      <trkpt lat="40.392952" lon="-3.369591">
        <ele>684.4</ele>
        <time>1970-01-01T02:32:46.000Z</time>
      </trkpt>
      <trkpt lat="40.393015" lon="-3.369573">
        <ele>684.2</ele>
        <time>1970-01-01T02:32:47.000Z</time>
      </trkpt>
      <trkpt lat="40.393078" lon="-3.36956">
        <ele>684</ele>
        <time>1970-01-01T02:32:48.000Z</time>
      </trkpt>
      <trkpt lat="40.39313" lon="-3.369552">
        <ele>683.8</ele>
        <time>1970-01-01T02:32:49.000Z</time>
      </trkpt>
      <trkpt lat="40.393195" lon="-3.369543">
        <ele>683.8</ele>
        <time>1970-01-01T02:32:50.000Z</time>
      </trkpt>
      <trkpt lat="40.393275" lon="-3.369533">
        <ele>683.4</ele>
        <time>1970-01-01T02:32:51.000Z</time>
      </trkpt>
      <trkpt lat="40.393346" lon="-3.369529">
        <ele>683.2</ele>
        <time>1970-01-01T02:32:52.000Z</time>
      </trkpt>
      <trkpt lat="40.393419" lon="-3.369526">
        <ele>683.2</ele>
        <time>1970-01-01T02:32:53.000Z</time>
      </trkpt>
      <trkpt lat="40.393494" lon="-3.369524">
        <ele>683.2</ele>
        <time>1970-01-01T02:32:54.000Z</time>
      </trkpt>
      <trkpt lat="40.393554" lon="-3.369524">
        <ele>683</ele>
        <time>1970-01-01T02:32:55.000Z</time>
      </trkpt>
      <trkpt lat="40.39363" lon="-3.369525">
        <ele>682.6</ele>
        <time>1970-01-01T02:32:56.000Z</time>
      </trkpt>
      <trkpt lat="40.393722" lon="-3.369532">
        <ele>682.8</ele>
        <time>1970-01-01T02:32:57.000Z</time>
      </trkpt>
      <trkpt lat="40.393798" lon="-3.369546">
        <ele>682.6</ele>
        <time>1970-01-01T02:32:58.000Z</time>
      </trkpt>
      <trkpt lat="40.393873" lon="-3.369564">
        <ele>682.4</ele>
        <time>1970-01-01T02:32:59.000Z</time>
      </trkpt>
      <trkpt lat="40.393932" lon="-3.369582">
        <ele>681.8</ele>
        <time>1970-01-01T02:33:00.000Z</time>
      </trkpt>
      <trkpt lat="40.394004" lon="-3.36961">
        <ele>681.4</ele>
        <time>1970-01-01T02:33:01.000Z</time>
      </trkpt>
      <trkpt lat="40.394092" lon="-3.36964">
        <ele>681</ele>
        <time>1970-01-01T02:33:02.000Z</time>
      </trkpt>
      <trkpt lat="40.394168" lon="-3.369655">
        <ele>680.6</ele>
        <time>1970-01-01T02:33:03.000Z</time>
      </trkpt>
      <trkpt lat="40.394246" lon="-3.369663">
        <ele>680</ele>
        <time>1970-01-01T02:33:04.000Z</time>
      </trkpt>
      <trkpt lat="40.394311" lon="-3.369659">
        <ele>679.8</ele>
        <time>1970-01-01T02:33:05.000Z</time>
      </trkpt>
      <trkpt lat="40.394393" lon="-3.369649">
        <ele>679.6</ele>
        <time>1970-01-01T02:33:06.000Z</time>
      </trkpt>
      <trkpt lat="40.394494" lon="-3.369632">
        <ele>679.2</ele>
        <time>1970-01-01T02:33:07.000Z</time>
      </trkpt>
      <trkpt lat="40.394583" lon="-3.36962">
        <ele>679.2</ele>
        <time>1970-01-01T02:33:08.000Z</time>
      </trkpt>
      <trkpt lat="40.394673" lon="-3.369609">
        <ele>679</ele>
        <time>1970-01-01T02:33:09.000Z</time>
      </trkpt>
      <trkpt lat="40.394745" lon="-3.369601">
        <ele>678.6</ele>
        <time>1970-01-01T02:33:10.000Z</time>
      </trkpt>
      <trkpt lat="40.394836" lon="-3.369589">
        <ele>678</ele>
        <time>1970-01-01T02:33:11.000Z</time>
      </trkpt>
      <trkpt lat="40.394944" lon="-3.369579">
        <ele>677.4</ele>
        <time>1970-01-01T02:33:12.000Z</time>
      </trkpt>
      <trkpt lat="40.395034" lon="-3.369575">
        <ele>677</ele>
        <time>1970-01-01T02:33:13.000Z</time>
      </trkpt>
      <trkpt lat="40.395122" lon="-3.369574">
        <ele>675.8</ele>
        <time>1970-01-01T02:33:14.000Z</time>
      </trkpt>
      <trkpt lat="40.395207" lon="-3.369575">
        <ele>675.4</ele>
        <time>1970-01-01T02:33:15.000Z</time>
      </trkpt>
      <trkpt lat="40.395292" lon="-3.369575">
        <ele>674.6</ele>
        <time>1970-01-01T02:33:16.000Z</time>
      </trkpt>
      <trkpt lat="40.395373" lon="-3.369572">
        <ele>674.4</ele>
        <time>1970-01-01T02:33:17.000Z</time>
      </trkpt>
      <trkpt lat="40.395456" lon="-3.369566">
        <ele>674</ele>
        <time>1970-01-01T02:33:18.000Z</time>
      </trkpt>
      <trkpt lat="40.395538" lon="-3.369556">
        <ele>673.8</ele>
        <time>1970-01-01T02:33:19.000Z</time>
      </trkpt>
      <trkpt lat="40.395618" lon="-3.369547">
        <ele>673.6</ele>
        <time>1970-01-01T02:33:20.000Z</time>
      </trkpt>
      <trkpt lat="40.395697" lon="-3.369536">
        <ele>673.4</ele>
        <time>1970-01-01T02:33:21.000Z</time>
      </trkpt>
      <trkpt lat="40.395773" lon="-3.369522">
        <ele>673.4</ele>
        <time>1970-01-01T02:33:22.000Z</time>
      </trkpt>
      <trkpt lat="40.395834" lon="-3.369508">
        <ele>673.4</ele>
        <time>1970-01-01T02:33:23.000Z</time>
      </trkpt>
      <trkpt lat="40.395911" lon="-3.369489">
        <ele>673.2</ele>
        <time>1970-01-01T02:33:24.000Z</time>
      </trkpt>
      <trkpt lat="40.395985" lon="-3.369469">
        <ele>673.2</ele>
        <time>1970-01-01T02:33:25.000Z</time>
      </trkpt>
      <trkpt lat="40.396073" lon="-3.369444">
        <ele>673.2</ele>
        <time>1970-01-01T02:33:26.000Z</time>
      </trkpt>
      <trkpt lat="40.396146" lon="-3.369425">
        <ele>673.2</ele>
        <time>1970-01-01T02:33:27.000Z</time>
      </trkpt>
      <trkpt lat="40.396203" lon="-3.369409">
        <ele>673.2</ele>
        <time>1970-01-01T02:33:28.000Z</time>
      </trkpt>
      <trkpt lat="40.396272" lon="-3.369388">
        <ele>673</ele>
        <time>1970-01-01T02:33:29.000Z</time>
      </trkpt>
      <trkpt lat="40.396342" lon="-3.369367">
        <ele>673</ele>
        <time>1970-01-01T02:33:30.000Z</time>
      </trkpt>
      <trkpt lat="40.396429" lon="-3.369346">
        <ele>673</ele>
        <time>1970-01-01T02:33:31.000Z</time>
      </trkpt>
      <trkpt lat="40.396501" lon="-3.369328">
        <ele>673</ele>
        <time>1970-01-01T02:33:32.000Z</time>
      </trkpt>
      <trkpt lat="40.396575" lon="-3.36931">
        <ele>673</ele>
        <time>1970-01-01T02:33:33.000Z</time>
      </trkpt>
      <trkpt lat="40.396636" lon="-3.369296">
        <ele>673</ele>
        <time>1970-01-01T02:33:34.000Z</time>
      </trkpt>
      <trkpt lat="40.39671" lon="-3.369277">
        <ele>673</ele>
        <time>1970-01-01T02:33:35.000Z</time>
      </trkpt>
      <trkpt lat="40.396798" lon="-3.369253">
        <ele>672</ele>
        <time>1970-01-01T02:33:36.000Z</time>
      </trkpt>
      <trkpt lat="40.396872" lon="-3.369235">
        <ele>671.6</ele>
        <time>1970-01-01T02:33:37.000Z</time>
      </trkpt>
      <trkpt lat="40.396931" lon="-3.369223">
        <ele>671.2</ele>
        <time>1970-01-01T02:33:38.000Z</time>
      </trkpt>
      <trkpt lat="40.397006" lon="-3.369208">
        <ele>671</ele>
        <time>1970-01-01T02:33:39.000Z</time>
      </trkpt>
      <trkpt lat="40.397081" lon="-3.369191">
        <ele>670.8</ele>
        <time>1970-01-01T02:33:40.000Z</time>
      </trkpt>
      <trkpt lat="40.39717" lon="-3.369172">
        <ele>670.8</ele>
        <time>1970-01-01T02:33:41.000Z</time>
      </trkpt>
      <trkpt lat="40.397243" lon="-3.369164">
        <ele>670.6</ele>
        <time>1970-01-01T02:33:42.000Z</time>
      </trkpt>
      <trkpt lat="40.397315" lon="-3.369178">
        <ele>670.4</ele>
        <time>1970-01-01T02:33:43.000Z</time>
      </trkpt>
      <trkpt lat="40.397381" lon="-3.369212">
        <ele>669.8</ele>
        <time>1970-01-01T02:33:44.000Z</time>
      </trkpt>
      <trkpt lat="40.397443" lon="-3.369262">
        <ele>669.6</ele>
        <time>1970-01-01T02:33:45.000Z</time>
      </trkpt>
      <trkpt lat="40.397502" lon="-3.369321">
        <ele>669.4</ele>
        <time>1970-01-01T02:33:46.000Z</time>
      </trkpt>
      <trkpt lat="40.397558" lon="-3.369382">
        <ele>669.2</ele>
        <time>1970-01-01T02:33:47.000Z</time>
      </trkpt>
      <trkpt lat="40.397616" lon="-3.36944">
        <ele>669</ele>
        <time>1970-01-01T02:33:48.000Z</time>
      </trkpt>
      <trkpt lat="40.397671" lon="-3.3695">
        <ele>669</ele>
        <time>1970-01-01T02:33:49.000Z</time>
      </trkpt>
      <trkpt lat="40.397728" lon="-3.369557">
        <ele>668.8</ele>
        <time>1970-01-01T02:33:50.000Z</time>
      </trkpt>
      <trkpt lat="40.397787" lon="-3.369613">
        <ele>668.6</ele>
        <time>1970-01-01T02:33:51.000Z</time>
      </trkpt>
      <trkpt lat="40.397845" lon="-3.369671">
        <ele>668.2</ele>
        <time>1970-01-01T02:33:52.000Z</time>
      </trkpt>
      <trkpt lat="40.397904" lon="-3.369729">
        <ele>667.6</ele>
        <time>1970-01-01T02:33:53.000Z</time>
      </trkpt>
      <trkpt lat="40.397962" lon="-3.369785">
        <ele>667.4</ele>
        <time>1970-01-01T02:33:54.000Z</time>
      </trkpt>
      <trkpt lat="40.398019" lon="-3.369844">
        <ele>667.2</ele>
        <time>1970-01-01T02:33:55.000Z</time>
      </trkpt>
      <trkpt lat="40.398075" lon="-3.369905">
        <ele>667</ele>
        <time>1970-01-01T02:33:56.000Z</time>
      </trkpt>
      <trkpt lat="40.398131" lon="-3.369966">
        <ele>666.4</ele>
        <time>1970-01-01T02:33:57.000Z</time>
      </trkpt>
      <trkpt lat="40.39819" lon="-3.370023">
        <ele>666</ele>
        <time>1970-01-01T02:33:58.000Z</time>
      </trkpt>
      <trkpt lat="40.39825" lon="-3.370083">
        <ele>665.4</ele>
        <time>1970-01-01T02:33:59.000Z</time>
      </trkpt>
      <trkpt lat="40.398311" lon="-3.370141">
        <ele>665.2</ele>
        <time>1970-01-01T02:34:00.000Z</time>
      </trkpt>
      <trkpt lat="40.398372" lon="-3.370203">
        <ele>665</ele>
        <time>1970-01-01T02:34:01.000Z</time>
      </trkpt>
      <trkpt lat="40.398436" lon="-3.370264">
        <ele>664.8</ele>
        <time>1970-01-01T02:34:02.000Z</time>
      </trkpt>
      <trkpt lat="40.398502" lon="-3.370328">
        <ele>664.8</ele>
        <time>1970-01-01T02:34:03.000Z</time>
      </trkpt>
      <trkpt lat="40.398569" lon="-3.370393">
        <ele>664.4</ele>
        <time>1970-01-01T02:34:04.000Z</time>
      </trkpt>
      <trkpt lat="40.398632" lon="-3.370453">
        <ele>664.2</ele>
        <time>1970-01-01T02:34:05.000Z</time>
      </trkpt>
      <trkpt lat="40.39869" lon="-3.370513">
        <ele>663.4</ele>
        <time>1970-01-01T02:34:06.000Z</time>
      </trkpt>
      <trkpt lat="40.398744" lon="-3.370565">
        <ele>663.2</ele>
        <time>1970-01-01T02:34:07.000Z</time>
      </trkpt>
      <trkpt lat="40.398791" lon="-3.370611">
        <ele>662.8</ele>
        <time>1970-01-01T02:34:08.000Z</time>
      </trkpt>
      <trkpt lat="40.398832" lon="-3.370653">
        <ele>662.6</ele>
        <time>1970-01-01T02:34:09.000Z</time>
      </trkpt>
      <trkpt lat="40.398878" lon="-3.370681">
        <ele>662.4</ele>
        <time>1970-01-01T02:34:10.000Z</time>
      </trkpt>
      <trkpt lat="40.398928" lon="-3.370692">
        <ele>662</ele>
        <time>1970-01-01T02:34:11.000Z</time>
      </trkpt>
      <trkpt lat="40.398978" lon="-3.370681">
        <ele>661.8</ele>
        <time>1970-01-01T02:34:12.000Z</time>
      </trkpt>
      <trkpt lat="40.399027" lon="-3.370652">
        <ele>661.4</ele>
        <time>1970-01-01T02:34:13.000Z</time>
      </trkpt>
      <trkpt lat="40.399075" lon="-3.370611">
        <ele>661.4</ele>
        <time>1970-01-01T02:34:14.000Z</time>
      </trkpt>
      <trkpt lat="40.399125" lon="-3.370569">
        <ele>661.2</ele>
        <time>1970-01-01T02:34:15.000Z</time>
      </trkpt>
      <trkpt lat="40.399177" lon="-3.370522">
        <ele>661</ele>
        <time>1970-01-01T02:34:16.000Z</time>
      </trkpt>
      <trkpt lat="40.399227" lon="-3.370473">
        <ele>660.8</ele>
        <time>1970-01-01T02:34:17.000Z</time>
      </trkpt>
      <trkpt lat="40.399278" lon="-3.370421">
        <ele>660.8</ele>
        <time>1970-01-01T02:34:18.000Z</time>
      </trkpt>
      <trkpt lat="40.399331" lon="-3.37037">
        <ele>660.6</ele>
        <time>1970-01-01T02:34:19.000Z</time>
      </trkpt>
      <trkpt lat="40.399383" lon="-3.370319">
        <ele>660.4</ele>
        <time>1970-01-01T02:34:20.000Z</time>
      </trkpt>
      <trkpt lat="40.399434" lon="-3.370267">
        <ele>660.2</ele>
        <time>1970-01-01T02:34:21.000Z</time>
      </trkpt>
      <trkpt lat="40.399485" lon="-3.370215">
        <ele>660.2</ele>
        <time>1970-01-01T02:34:22.000Z</time>
      </trkpt>
      <trkpt lat="40.399536" lon="-3.370163">
        <ele>660</ele>
        <time>1970-01-01T02:34:23.000Z</time>
      </trkpt>
      <trkpt lat="40.399587" lon="-3.370111">
        <ele>659.8</ele>
        <time>1970-01-01T02:34:24.000Z</time>
      </trkpt>
      <trkpt lat="40.399639" lon="-3.370058">
        <ele>659.8</ele>
        <time>1970-01-01T02:34:25.000Z</time>
      </trkpt>
      <trkpt lat="40.399691" lon="-3.370003">
        <ele>659.8</ele>
        <time>1970-01-01T02:34:26.000Z</time>
      </trkpt>
      <trkpt lat="40.399741" lon="-3.369946">
        <ele>659.4</ele>
        <time>1970-01-01T02:34:27.000Z</time>
      </trkpt>
      <trkpt lat="40.39979" lon="-3.369889">
        <ele>659.4</ele>
        <time>1970-01-01T02:34:28.000Z</time>
      </trkpt>
      <trkpt lat="40.399838" lon="-3.369832">
        <ele>659</ele>
        <time>1970-01-01T02:34:29.000Z</time>
      </trkpt>
      <trkpt lat="40.399876" lon="-3.369785">
        <ele>659</ele>
        <time>1970-01-01T02:34:30.000Z</time>
      </trkpt>
      <trkpt lat="40.399923" lon="-3.369728">
        <ele>658.6</ele>
        <time>1970-01-01T02:34:31.000Z</time>
      </trkpt>
      <trkpt lat="40.399978" lon="-3.369662">
        <ele>658.6</ele>
        <time>1970-01-01T02:34:32.000Z</time>
      </trkpt>
      <trkpt lat="40.400016" lon="-3.369617">
        <ele>658.4</ele>
        <time>1970-01-01T02:34:33.000Z</time>
      </trkpt>
      <trkpt lat="40.400073" lon="-3.369547">
        <ele>658.4</ele>
        <time>1970-01-01T02:34:34.000Z</time>
      </trkpt>
      <trkpt lat="40.400112" lon="-3.369501">
        <ele>658.2</ele>
        <time>1970-01-01T02:34:35.000Z</time>
      </trkpt>
      <trkpt lat="40.400159" lon="-3.369444">
        <ele>658.2</ele>
        <time>1970-01-01T02:34:36.000Z</time>
      </trkpt>
      <trkpt lat="40.400209" lon="-3.369386">
        <ele>658.2</ele>
        <time>1970-01-01T02:34:37.000Z</time>
      </trkpt>
      <trkpt lat="40.400259" lon="-3.369331">
        <ele>658</ele>
        <time>1970-01-01T02:34:38.000Z</time>
      </trkpt>
      <trkpt lat="40.400307" lon="-3.369278">
        <ele>658</ele>
        <time>1970-01-01T02:34:39.000Z</time>
      </trkpt>
      <trkpt lat="40.400357" lon="-3.369222">
        <ele>658</ele>
        <time>1970-01-01T02:34:40.000Z</time>
      </trkpt>
      <trkpt lat="40.400407" lon="-3.369165">
        <ele>658</ele>
        <time>1970-01-01T02:34:41.000Z</time>
      </trkpt>
      <trkpt lat="40.400456" lon="-3.369107">
        <ele>658</ele>
        <time>1970-01-01T02:34:42.000Z</time>
      </trkpt>
      <trkpt lat="40.400505" lon="-3.36905">
        <ele>658</ele>
        <time>1970-01-01T02:34:43.000Z</time>
      </trkpt>
      <trkpt lat="40.400554" lon="-3.368993">
        <ele>658</ele>
        <time>1970-01-01T02:34:44.000Z</time>
      </trkpt>
      <trkpt lat="40.400602" lon="-3.368936">
        <ele>658.2</ele>
        <time>1970-01-01T02:34:45.000Z</time>
      </trkpt>
      <trkpt lat="40.400652" lon="-3.368881">
        <ele>658.2</ele>
        <time>1970-01-01T02:34:46.000Z</time>
      </trkpt>
      <trkpt lat="40.400709" lon="-3.368819">
        <ele>658.2</ele>
        <time>1970-01-01T02:34:47.000Z</time>
      </trkpt>
      <trkpt lat="40.400756" lon="-3.368768">
        <ele>658.4</ele>
        <time>1970-01-01T02:34:48.000Z</time>
      </trkpt>
      <trkpt lat="40.400805" lon="-3.368714">
        <ele>658.4</ele>
        <time>1970-01-01T02:34:49.000Z</time>
      </trkpt>
      <trkpt lat="40.400845" lon="-3.368669">
        <ele>658.4</ele>
        <time>1970-01-01T02:34:50.000Z</time>
      </trkpt>
      <trkpt lat="40.400894" lon="-3.368615">
        <ele>658.4</ele>
        <time>1970-01-01T02:34:51.000Z</time>
      </trkpt>
      <trkpt lat="40.400955" lon="-3.368553">
        <ele>658.2</ele>
        <time>1970-01-01T02:34:52.000Z</time>
      </trkpt>
      <trkpt lat="40.400996" lon="-3.368512">
        <ele>658.2</ele>
        <time>1970-01-01T02:34:53.000Z</time>
      </trkpt>
      <trkpt lat="40.401051" lon="-3.368458">
        <ele>658.2</ele>
        <time>1970-01-01T02:34:54.000Z</time>
      </trkpt>
      <trkpt lat="40.401104" lon="-3.368407">
        <ele>658</ele>
        <time>1970-01-01T02:34:55.000Z</time>
      </trkpt>
      <trkpt lat="40.401157" lon="-3.368357">
        <ele>658</ele>
        <time>1970-01-01T02:34:56.000Z</time>
      </trkpt>
      <trkpt lat="40.401212" lon="-3.368304">
        <ele>657.8</ele>
        <time>1970-01-01T02:34:57.000Z</time>
      </trkpt>
      <trkpt lat="40.401265" lon="-3.36825">
        <ele>657.8</ele>
        <time>1970-01-01T02:34:58.000Z</time>
      </trkpt>
      <trkpt lat="40.401329" lon="-3.368182">
        <ele>657.6</ele>
        <time>1970-01-01T02:34:59.000Z</time>
      </trkpt>
      <trkpt lat="40.40137" lon="-3.368136">
        <ele>657.6</ele>
        <time>1970-01-01T02:35:00.000Z</time>
      </trkpt>
      <trkpt lat="40.40142" lon="-3.368078">
        <ele>657.6</ele>
        <time>1970-01-01T02:35:01.000Z</time>
      </trkpt>
      <trkpt lat="40.401469" lon="-3.368021">
        <ele>657.6</ele>
        <time>1970-01-01T02:35:02.000Z</time>
      </trkpt>
      <trkpt lat="40.401515" lon="-3.367963">
        <ele>657.6</ele>
        <time>1970-01-01T02:35:03.000Z</time>
      </trkpt>
      <trkpt lat="40.40157" lon="-3.367893">
        <ele>657.6</ele>
        <time>1970-01-01T02:35:04.000Z</time>
      </trkpt>
      <trkpt lat="40.401604" lon="-3.367846">
        <ele>657.6</ele>
        <time>1970-01-01T02:35:05.000Z</time>
      </trkpt>
      <trkpt lat="40.401647" lon="-3.367788">
        <ele>657.6</ele>
        <time>1970-01-01T02:35:06.000Z</time>
      </trkpt>
      <trkpt lat="40.401699" lon="-3.36772">
        <ele>657.6</ele>
        <time>1970-01-01T02:35:07.000Z</time>
      </trkpt>
      <trkpt lat="40.401744" lon="-3.367662">
        <ele>657.6</ele>
        <time>1970-01-01T02:35:08.000Z</time>
      </trkpt>
      <trkpt lat="40.401791" lon="-3.367603">
        <ele>657.6</ele>
        <time>1970-01-01T02:35:09.000Z</time>
      </trkpt>
      <trkpt lat="40.401828" lon="-3.367555">
        <ele>657.6</ele>
        <time>1970-01-01T02:35:10.000Z</time>
      </trkpt>
      <trkpt lat="40.401874" lon="-3.367496">
        <ele>657.6</ele>
        <time>1970-01-01T02:35:11.000Z</time>
      </trkpt>
      <trkpt lat="40.401929" lon="-3.367424">
        <ele>657.6</ele>
        <time>1970-01-01T02:35:12.000Z</time>
      </trkpt>
      <trkpt lat="40.401973" lon="-3.367365">
        <ele>657.6</ele>
        <time>1970-01-01T02:35:13.000Z</time>
      </trkpt>
      <trkpt lat="40.402016" lon="-3.367307">
        <ele>657.6</ele>
        <time>1970-01-01T02:35:14.000Z</time>
      </trkpt>
      <trkpt lat="40.402052" lon="-3.367263">
        <ele>657.8</ele>
        <time>1970-01-01T02:35:15.000Z</time>
      </trkpt>
      <trkpt lat="40.402097" lon="-3.367207">
        <ele>657.8</ele>
        <time>1970-01-01T02:35:16.000Z</time>
      </trkpt>
      <trkpt lat="40.402149" lon="-3.36714">
        <ele>658.2</ele>
        <time>1970-01-01T02:35:17.000Z</time>
      </trkpt>
      <trkpt lat="40.40219" lon="-3.367082">
        <ele>658.2</ele>
        <time>1970-01-01T02:35:18.000Z</time>
      </trkpt>
      <trkpt lat="40.402233" lon="-3.367024">
        <ele>658.4</ele>
        <time>1970-01-01T02:35:19.000Z</time>
      </trkpt>
      <trkpt lat="40.402269" lon="-3.366978">
        <ele>658.6</ele>
        <time>1970-01-01T02:35:20.000Z</time>
      </trkpt>
      <trkpt lat="40.402314" lon="-3.366923">
        <ele>658.6</ele>
        <time>1970-01-01T02:35:21.000Z</time>
      </trkpt>
      <trkpt lat="40.402358" lon="-3.366865">
        <ele>658.6</ele>
        <time>1970-01-01T02:35:22.000Z</time>
      </trkpt>
      <trkpt lat="40.402411" lon="-3.366798">
        <ele>658.6</ele>
        <time>1970-01-01T02:35:23.000Z</time>
      </trkpt>
      <trkpt lat="40.402455" lon="-3.366744">
        <ele>658.8</ele>
        <time>1970-01-01T02:35:24.000Z</time>
      </trkpt>
      <trkpt lat="40.402498" lon="-3.36669">
        <ele>658.8</ele>
        <time>1970-01-01T02:35:25.000Z</time>
      </trkpt>
      <trkpt lat="40.402531" lon="-3.366646">
        <ele>659</ele>
        <time>1970-01-01T02:35:26.000Z</time>
      </trkpt>
      <trkpt lat="40.402572" lon="-3.366592">
        <ele>659.2</ele>
        <time>1970-01-01T02:35:27.000Z</time>
      </trkpt>
      <trkpt lat="40.40262" lon="-3.36653">
        <ele>659.2</ele>
        <time>1970-01-01T02:35:28.000Z</time>
      </trkpt>
      <trkpt lat="40.40266" lon="-3.366478">
        <ele>659.2</ele>
        <time>1970-01-01T02:35:29.000Z</time>
      </trkpt>
      <trkpt lat="40.402691" lon="-3.366435">
        <ele>659.4</ele>
        <time>1970-01-01T02:35:30.000Z</time>
      </trkpt>
      <trkpt lat="40.40273" lon="-3.366383">
        <ele>659.4</ele>
        <time>1970-01-01T02:35:31.000Z</time>
      </trkpt>
      <trkpt lat="40.402772" lon="-3.366333">
        <ele>659.4</ele>
        <time>1970-01-01T02:35:32.000Z</time>
      </trkpt>
      <trkpt lat="40.402817" lon="-3.366272">
        <ele>659.4</ele>
        <time>1970-01-01T02:35:33.000Z</time>
      </trkpt>
      <trkpt lat="40.402848" lon="-3.36623">
        <ele>659.4</ele>
        <time>1970-01-01T02:35:34.000Z</time>
      </trkpt>
      <trkpt lat="40.402896" lon="-3.366164">
        <ele>659.4</ele>
        <time>1970-01-01T02:35:35.000Z</time>
      </trkpt>
      <trkpt lat="40.402929" lon="-3.366122">
        <ele>659.2</ele>
        <time>1970-01-01T02:35:36.000Z</time>
      </trkpt>
      <trkpt lat="40.40297" lon="-3.366071">
        <ele>659</ele>
        <time>1970-01-01T02:35:37.000Z</time>
      </trkpt>
      <trkpt lat="40.403011" lon="-3.366024">
        <ele>659</ele>
        <time>1970-01-01T02:35:38.000Z</time>
      </trkpt>
      <trkpt lat="40.403064" lon="-3.365971">
        <ele>659</ele>
        <time>1970-01-01T02:35:39.000Z</time>
      </trkpt>
      <trkpt lat="40.403105" lon="-3.365923">
        <ele>658.8</ele>
        <time>1970-01-01T02:35:40.000Z</time>
      </trkpt>
      <trkpt lat="40.403142" lon="-3.365863">
        <ele>658.6</ele>
        <time>1970-01-01T02:35:41.000Z</time>
      </trkpt>
      <trkpt lat="40.403162" lon="-3.365802">
        <ele>658.6</ele>
        <time>1970-01-01T02:35:42.000Z</time>
      </trkpt>
      <trkpt lat="40.403183" lon="-3.365719">
        <ele>658.2</ele>
        <time>1970-01-01T02:35:43.000Z</time>
      </trkpt>
      <trkpt lat="40.403206" lon="-3.36561">
        <ele>658</ele>
        <time>1970-01-01T02:35:44.000Z</time>
      </trkpt>
      <trkpt lat="40.403223" lon="-3.365512">
        <ele>657.8</ele>
        <time>1970-01-01T02:35:45.000Z</time>
      </trkpt>
      <trkpt lat="40.403246" lon="-3.365415">
        <ele>657.6</ele>
        <time>1970-01-01T02:35:46.000Z</time>
      </trkpt>
      <trkpt lat="40.403266" lon="-3.365336">
        <ele>657.4</ele>
        <time>1970-01-01T02:35:47.000Z</time>
      </trkpt>
      <trkpt lat="40.403291" lon="-3.365236">
        <ele>657.2</ele>
        <time>1970-01-01T02:35:48.000Z</time>
      </trkpt>
      <trkpt lat="40.403319" lon="-3.36512">
        <ele>656.8</ele>
        <time>1970-01-01T02:35:49.000Z</time>
      </trkpt>
      <trkpt lat="40.40334" lon="-3.365028">
        <ele>656.4</ele>
        <time>1970-01-01T02:35:50.000Z</time>
      </trkpt>
      <trkpt lat="40.403359" lon="-3.364941">
        <ele>656.6</ele>
        <time>1970-01-01T02:35:51.000Z</time>
      </trkpt>
      <trkpt lat="40.403376" lon="-3.364857">
        <ele>656.2</ele>
        <time>1970-01-01T02:35:52.000Z</time>
      </trkpt>
      <trkpt lat="40.40339" lon="-3.364793">
        <ele>656</ele>
        <time>1970-01-01T02:35:53.000Z</time>
      </trkpt>
      <trkpt lat="40.403406" lon="-3.364713">
        <ele>656</ele>
        <time>1970-01-01T02:35:54.000Z</time>
      </trkpt>
      <trkpt lat="40.403422" lon="-3.364621">
        <ele>656</ele>
        <time>1970-01-01T02:35:55.000Z</time>
      </trkpt>
      <trkpt lat="40.403437" lon="-3.364545">
        <ele>655.8</ele>
        <time>1970-01-01T02:35:56.000Z</time>
      </trkpt>
      <trkpt lat="40.403452" lon="-3.36447">
        <ele>655.6</ele>
        <time>1970-01-01T02:35:57.000Z</time>
      </trkpt>
      <trkpt lat="40.403463" lon="-3.36441">
        <ele>655.6</ele>
        <time>1970-01-01T02:35:58.000Z</time>
      </trkpt>
      <trkpt lat="40.403474" lon="-3.364336">
        <ele>655.6</ele>
        <time>1970-01-01T02:35:59.000Z</time>
      </trkpt>
      <trkpt lat="40.403491" lon="-3.364246">
        <ele>655.4</ele>
        <time>1970-01-01T02:36:00.000Z</time>
      </trkpt>
      <trkpt lat="40.403505" lon="-3.36417">
        <ele>655.4</ele>
        <time>1970-01-01T02:36:01.000Z</time>
      </trkpt>
      <trkpt lat="40.403518" lon="-3.364094">
        <ele>655.2</ele>
        <time>1970-01-01T02:36:02.000Z</time>
      </trkpt>
      <trkpt lat="40.403528" lon="-3.364034">
        <ele>655.2</ele>
        <time>1970-01-01T02:36:03.000Z</time>
      </trkpt>
      <trkpt lat="40.403543" lon="-3.363958">
        <ele>655.2</ele>
        <time>1970-01-01T02:36:04.000Z</time>
      </trkpt>
      <trkpt lat="40.403559" lon="-3.363887">
        <ele>655.2</ele>
        <time>1970-01-01T02:36:05.000Z</time>
      </trkpt>
      <trkpt lat="40.403578" lon="-3.363804">
        <ele>655.2</ele>
        <time>1970-01-01T02:36:06.000Z</time>
      </trkpt>
      <trkpt lat="40.403594" lon="-3.363736">
        <ele>655.2</ele>
        <time>1970-01-01T02:36:07.000Z</time>
      </trkpt>
      <trkpt lat="40.403608" lon="-3.363665">
        <ele>655.2</ele>
        <time>1970-01-01T02:36:08.000Z</time>
      </trkpt>
      <trkpt lat="40.403618" lon="-3.36361">
        <ele>655.2</ele>
        <time>1970-01-01T02:36:09.000Z</time>
      </trkpt>
      <trkpt lat="40.40363" lon="-3.363539">
        <ele>655</ele>
        <time>1970-01-01T02:36:10.000Z</time>
      </trkpt>
      <trkpt lat="40.403643" lon="-3.363455">
        <ele>655</ele>
        <time>1970-01-01T02:36:11.000Z</time>
      </trkpt>
      <trkpt lat="40.403652" lon="-3.363391">
        <ele>655</ele>
        <time>1970-01-01T02:36:12.000Z</time>
      </trkpt>
      <trkpt lat="40.40366" lon="-3.363341">
        <ele>654.8</ele>
        <time>1970-01-01T02:36:13.000Z</time>
      </trkpt>
      <trkpt lat="40.403667" lon="-3.363306">
        <ele>654.8</ele>
        <time>1970-01-01T02:36:14.000Z</time>
      </trkpt>
      <trkpt lat="40.403671" lon="-3.363282">
        <ele>654.8</ele>
        <time>1970-01-01T02:36:15.000Z</time>
      </trkpt>
      <trkpt lat="40.403678" lon="-3.363265">
        <ele>654.8</ele>
        <time>1970-01-01T02:36:16.000Z</time>
      </trkpt>
      <trkpt lat="40.403687" lon="-3.36325">
        <ele>654.8</ele>
        <time>1970-01-01T02:36:17.000Z</time>
      </trkpt>
      <trkpt lat="40.403692" lon="-3.363233">
        <ele>654.8</ele>
        <time>1970-01-01T02:36:18.000Z</time>
      </trkpt>
      <trkpt lat="40.403691" lon="-3.363214">
        <ele>654.6</ele>
        <time>1970-01-01T02:36:19.000Z</time>
      </trkpt>
      <trkpt lat="40.403683" lon="-3.363197">
        <ele>654.6</ele>
        <time>1970-01-01T02:36:20.000Z</time>
      </trkpt>
      <trkpt lat="40.40367" lon="-3.363184">
        <ele>654.6</ele>
        <time>1970-01-01T02:36:21.000Z</time>
      </trkpt>
      <trkpt lat="40.40366" lon="-3.363169">
        <ele>654.6</ele>
        <time>1970-01-01T02:36:22.000Z</time>
      </trkpt>
      <trkpt lat="40.403656" lon="-3.363153">
        <ele>654.6</ele>
        <time>1970-01-01T02:36:23.000Z</time>
      </trkpt>
      <trkpt lat="40.403657" lon="-3.363137">
        <ele>654.4</ele>
        <time>1970-01-01T02:36:24.000Z</time>
      </trkpt>
      <trkpt lat="40.403671" lon="-3.363129">
        <ele>654.4</ele>
        <time>1970-01-01T02:36:25.000Z</time>
      </trkpt>
      <trkpt lat="40.403691" lon="-3.363134">
        <ele>654.4</ele>
        <time>1970-01-01T02:36:26.000Z</time>
      </trkpt>
      <trkpt lat="40.403709" lon="-3.36315">
        <ele>654.4</ele>
        <time>1970-01-01T02:36:27.000Z</time>
      </trkpt>
      <trkpt lat="40.403722" lon="-3.363179">
        <ele>654.4</ele>
        <time>1970-01-01T02:36:28.000Z</time>
      </trkpt>
      <trkpt lat="40.403726" lon="-3.363211">
        <ele>654.4</ele>
        <time>1970-01-01T02:36:29.000Z</time>
      </trkpt>
      <trkpt lat="40.403724" lon="-3.36324">
        <ele>654.4</ele>
        <time>1970-01-01T02:36:30.000Z</time>
      </trkpt>
      <trkpt lat="40.403713" lon="-3.363254">
        <ele>654.4</ele>
        <time>1970-01-01T02:36:31.000Z</time>
      </trkpt>
      <trkpt lat="40.403702" lon="-3.363255">
        <ele>654.4</ele>
        <time>1970-01-01T02:36:32.000Z</time>
      </trkpt>
      <trkpt lat="40.403689" lon="-3.36326">
        <ele>654.4</ele>
        <time>1970-01-01T02:36:33.000Z</time>
      </trkpt>
      <trkpt lat="40.403677" lon="-3.363269">
        <ele>654.4</ele>
        <time>1970-01-01T02:36:34.000Z</time>
      </trkpt>
      <trkpt lat="40.403668" lon="-3.363284">
        <ele>654.4</ele>
        <time>1970-01-01T02:36:35.000Z</time>
      </trkpt>
      <trkpt lat="40.403665" lon="-3.363303">
        <ele>654.4</ele>
        <time>1970-01-01T02:36:36.000Z</time>
      </trkpt>
      <trkpt lat="40.40367" lon="-3.363324">
        <ele>654.4</ele>
        <time>1970-01-01T02:36:37.000Z</time>
      </trkpt>
      <trkpt lat="40.403682" lon="-3.363331">
        <ele>654.4</ele>
        <time>1970-01-01T02:36:38.000Z</time>
      </trkpt>
      <trkpt lat="40.403693" lon="-3.363321">
        <ele>654.4</ele>
        <time>1970-01-01T02:36:39.000Z</time>
      </trkpt>
      <trkpt lat="40.403697" lon="-3.363301">
        <ele>654.4</ele>
        <time>1970-01-01T02:36:40.000Z</time>
      </trkpt>
      <trkpt lat="40.40369" lon="-3.363286">
        <ele>654.4</ele>
        <time>1970-01-01T02:36:41.000Z</time>
      </trkpt>
      <trkpt lat="40.403681" lon="-3.363269">
        <ele>654.4</ele>
        <time>1970-01-01T02:36:42.000Z</time>
      </trkpt>
      <trkpt lat="40.403673" lon="-3.363248">
        <ele>654.4</ele>
        <time>1970-01-01T02:36:43.000Z</time>
      </trkpt>
      <trkpt lat="40.403671" lon="-3.363225">
        <ele>654.4</ele>
        <time>1970-01-01T02:36:44.000Z</time>
      </trkpt>
      <trkpt lat="40.403669" lon="-3.363202">
        <ele>654.4</ele>
        <time>1970-01-01T02:36:45.000Z</time>
      </trkpt>
      <trkpt lat="40.403667" lon="-3.363184">
        <ele>654.4</ele>
        <time>1970-01-01T02:36:46.000Z</time>
      </trkpt>
      <trkpt lat="40.403661" lon="-3.363168">
        <ele>654.4</ele>
        <time>1970-01-01T02:36:47.000Z</time>
      </trkpt>
      <trkpt lat="40.403651" lon="-3.363158">
        <ele>654.4</ele>
        <time>1970-01-01T02:36:48.000Z</time>
      </trkpt>
      <trkpt lat="40.403639" lon="-3.363155">
        <ele>654.4</ele>
        <time>1970-01-01T02:36:49.000Z</time>
      </trkpt>
      <trkpt lat="40.403629" lon="-3.363148">
        <ele>654.4</ele>
        <time>1970-01-01T02:36:50.000Z</time>
      </trkpt>
      <trkpt lat="40.403619" lon="-3.363137">
        <ele>654.4</ele>
        <time>1970-01-01T02:36:51.000Z</time>
      </trkpt>
      <trkpt lat="40.403618" lon="-3.363117">
        <ele>654.4</ele>
        <time>1970-01-01T02:36:52.000Z</time>
      </trkpt>
      <trkpt lat="40.403629" lon="-3.363107">
        <ele>654.4</ele>
        <time>1970-01-01T02:36:53.000Z</time>
      </trkpt>
      <trkpt lat="40.403647" lon="-3.363115">
        <ele>654.4</ele>
        <time>1970-01-01T02:36:54.000Z</time>
      </trkpt>
      <trkpt lat="40.403659" lon="-3.363136">
        <ele>654.4</ele>
        <time>1970-01-01T02:36:55.000Z</time>
      </trkpt>
      <trkpt lat="40.403666" lon="-3.363163">
        <ele>654.4</ele>
        <time>1970-01-01T02:36:56.000Z</time>
      </trkpt>
      <trkpt lat="40.403673" lon="-3.36319">
        <ele>654.4</ele>
        <time>1970-01-01T02:36:57.000Z</time>
      </trkpt>
      <trkpt lat="40.403682" lon="-3.363205">
        <ele>654.4</ele>
        <time>1970-01-01T02:36:58.000Z</time>
      </trkpt>
      <trkpt lat="40.403693" lon="-3.363213">
        <ele>654.4</ele>
        <time>1970-01-01T02:36:59.000Z</time>
      </trkpt>
      <trkpt lat="40.403707" lon="-3.363219">
        <ele>654.4</ele>
        <time>1970-01-01T02:37:00.000Z</time>
      </trkpt>
      <trkpt lat="40.403718" lon="-3.363232">
        <ele>654.4</ele>
        <time>1970-01-01T02:37:01.000Z</time>
      </trkpt>
      <trkpt lat="40.403721" lon="-3.363251">
        <ele>654.4</ele>
        <time>1970-01-01T02:37:02.000Z</time>
      </trkpt>
      <trkpt lat="40.40371" lon="-3.363268">
        <ele>654.2</ele>
        <time>1970-01-01T02:37:03.000Z</time>
      </trkpt>
      <trkpt lat="40.403698" lon="-3.363275">
        <ele>654.2</ele>
        <time>1970-01-01T02:37:04.000Z</time>
      </trkpt>
      <trkpt lat="40.403684" lon="-3.363269">
        <ele>654.2</ele>
        <time>1970-01-01T02:37:05.000Z</time>
      </trkpt>
      <trkpt lat="40.403675" lon="-3.363252">
        <ele>654.2</ele>
        <time>1970-01-01T02:37:06.000Z</time>
      </trkpt>
      <trkpt lat="40.403676" lon="-3.363237">
        <ele>654.2</ele>
        <time>1970-01-01T02:37:07.000Z</time>
      </trkpt>
      <trkpt lat="40.403681" lon="-3.36322">
        <ele>654.2</ele>
        <time>1970-01-01T02:37:08.000Z</time>
      </trkpt>
      <trkpt lat="40.403679" lon="-3.363203">
        <ele>654.2</ele>
        <time>1970-01-01T02:37:09.000Z</time>
      </trkpt>
      <trkpt lat="40.403677" lon="-3.363186">
        <ele>654.2</ele>
        <time>1970-01-01T02:37:10.000Z</time>
      </trkpt>
      <trkpt lat="40.403672" lon="-3.363163">
        <ele>654.2</ele>
        <time>1970-01-01T02:37:11.000Z</time>
      </trkpt>
      <trkpt lat="40.403662" lon="-3.363143">
        <ele>654.2</ele>
        <time>1970-01-01T02:37:12.000Z</time>
      </trkpt>
      <trkpt lat="40.403649" lon="-3.363122">
        <ele>654.2</ele>
        <time>1970-01-01T02:37:13.000Z</time>
      </trkpt>
      <trkpt lat="40.403637" lon="-3.363097">
        <ele>654.2</ele>
        <time>1970-01-01T02:37:14.000Z</time>
      </trkpt>
      <trkpt lat="40.403625" lon="-3.36307">
        <ele>654.4</ele>
        <time>1970-01-01T02:37:15.000Z</time>
      </trkpt>
      <trkpt lat="40.403613" lon="-3.363039">
        <ele>654.4</ele>
        <time>1970-01-01T02:37:16.000Z</time>
      </trkpt>
      <trkpt lat="40.403604" lon="-3.363004">
        <ele>654.4</ele>
        <time>1970-01-01T02:37:17.000Z</time>
      </trkpt>
      <trkpt lat="40.403603" lon="-3.362967">
        <ele>654.4</ele>
        <time>1970-01-01T02:37:18.000Z</time>
      </trkpt>
      <trkpt lat="40.403612" lon="-3.362928">
        <ele>654.4</ele>
        <time>1970-01-01T02:37:19.000Z</time>
      </trkpt>
      <trkpt lat="40.403628" lon="-3.362885">
        <ele>654.6</ele>
        <time>1970-01-01T02:37:20.000Z</time>
      </trkpt>
      <trkpt lat="40.403643" lon="-3.362842">
        <ele>654.6</ele>
        <time>1970-01-01T02:37:21.000Z</time>
      </trkpt>
      <trkpt lat="40.40365" lon="-3.362796">
        <ele>654.6</ele>
        <time>1970-01-01T02:37:22.000Z</time>
      </trkpt>
      <trkpt lat="40.403646" lon="-3.362749">
        <ele>654.8</ele>
        <time>1970-01-01T02:37:23.000Z</time>
      </trkpt>
      <trkpt lat="40.403636" lon="-3.362704">
        <ele>654.8</ele>
        <time>1970-01-01T02:37:24.000Z</time>
      </trkpt>
      <trkpt lat="40.403628" lon="-3.362663">
        <ele>654.8</ele>
        <time>1970-01-01T02:37:25.000Z</time>
      </trkpt>
      <trkpt lat="40.403622" lon="-3.362626">
        <ele>655</ele>
        <time>1970-01-01T02:37:26.000Z</time>
      </trkpt>
      <trkpt lat="40.403618" lon="-3.362591">
        <ele>655</ele>
        <time>1970-01-01T02:37:27.000Z</time>
      </trkpt>
      <trkpt lat="40.403614" lon="-3.362556">
        <ele>655.2</ele>
        <time>1970-01-01T02:37:28.000Z</time>
      </trkpt>
      <trkpt lat="40.40361" lon="-3.362523">
        <ele>655.2</ele>
        <time>1970-01-01T02:37:29.000Z</time>
      </trkpt>
      <trkpt lat="40.403604" lon="-3.362486">
        <ele>655.4</ele>
        <time>1970-01-01T02:37:30.000Z</time>
      </trkpt>
      <trkpt lat="40.403597" lon="-3.362443">
        <ele>655.4</ele>
        <time>1970-01-01T02:37:31.000Z</time>
      </trkpt>
      <trkpt lat="40.403591" lon="-3.362397">
        <ele>655.4</ele>
        <time>1970-01-01T02:37:32.000Z</time>
      </trkpt>
      <trkpt lat="40.403583" lon="-3.362355">
        <ele>655.6</ele>
        <time>1970-01-01T02:37:33.000Z</time>
      </trkpt>
      <trkpt lat="40.403579" lon="-3.362311">
        <ele>655.6</ele>
        <time>1970-01-01T02:37:34.000Z</time>
      </trkpt>
      <trkpt lat="40.403574" lon="-3.362269">
        <ele>655.8</ele>
        <time>1970-01-01T02:37:35.000Z</time>
      </trkpt>
      <trkpt lat="40.403569" lon="-3.362229">
        <ele>655.8</ele>
        <time>1970-01-01T02:37:36.000Z</time>
      </trkpt>
      <trkpt lat="40.403564" lon="-3.362188">
        <ele>656</ele>
        <time>1970-01-01T02:37:37.000Z</time>
      </trkpt>
      <trkpt lat="40.403557" lon="-3.36215">
        <ele>656.2</ele>
        <time>1970-01-01T02:37:38.000Z</time>
      </trkpt>
      <trkpt lat="40.403553" lon="-3.362109">
        <ele>656.2</ele>
        <time>1970-01-01T02:37:39.000Z</time>
      </trkpt>
      <trkpt lat="40.40355" lon="-3.362066">
        <ele>656.4</ele>
        <time>1970-01-01T02:37:40.000Z</time>
      </trkpt>
      <trkpt lat="40.403545" lon="-3.362026">
        <ele>656.6</ele>
        <time>1970-01-01T02:37:41.000Z</time>
      </trkpt>
      <trkpt lat="40.403535" lon="-3.361988">
        <ele>656.8</ele>
        <time>1970-01-01T02:37:42.000Z</time>
      </trkpt>
      <trkpt lat="40.403527" lon="-3.361947">
        <ele>657</ele>
        <time>1970-01-01T02:37:43.000Z</time>
      </trkpt>
      <trkpt lat="40.403523" lon="-3.361906">
        <ele>657</ele>
        <time>1970-01-01T02:37:44.000Z</time>
      </trkpt>
      <trkpt lat="40.403519" lon="-3.361862">
        <ele>657.2</ele>
        <time>1970-01-01T02:37:45.000Z</time>
      </trkpt>
      <trkpt lat="40.403514" lon="-3.361815">
        <ele>657.4</ele>
        <time>1970-01-01T02:37:46.000Z</time>
      </trkpt>
      <trkpt lat="40.403507" lon="-3.361772">
        <ele>657.4</ele>
        <time>1970-01-01T02:37:47.000Z</time>
      </trkpt>
      <trkpt lat="40.403501" lon="-3.36173">
        <ele>657.6</ele>
        <time>1970-01-01T02:37:48.000Z</time>
      </trkpt>
      <trkpt lat="40.403494" lon="-3.361686">
        <ele>657.8</ele>
        <time>1970-01-01T02:37:49.000Z</time>
      </trkpt>
      <trkpt lat="40.403488" lon="-3.36164">
        <ele>657.8</ele>
        <time>1970-01-01T02:37:50.000Z</time>
      </trkpt>
      <trkpt lat="40.403482" lon="-3.361598">
        <ele>658</ele>
        <time>1970-01-01T02:37:51.000Z</time>
      </trkpt>
      <trkpt lat="40.403477" lon="-3.361561">
        <ele>658.2</ele>
        <time>1970-01-01T02:37:52.000Z</time>
      </trkpt>
      <trkpt lat="40.403473" lon="-3.361519">
        <ele>658.4</ele>
        <time>1970-01-01T02:37:53.000Z</time>
      </trkpt>
      <trkpt lat="40.403468" lon="-3.361471">
        <ele>658.4</ele>
        <time>1970-01-01T02:37:54.000Z</time>
      </trkpt>
      <trkpt lat="40.403463" lon="-3.361421">
        <ele>658.6</ele>
        <time>1970-01-01T02:37:55.000Z</time>
      </trkpt>
      <trkpt lat="40.403456" lon="-3.361371">
        <ele>658.8</ele>
        <time>1970-01-01T02:37:56.000Z</time>
      </trkpt>
      <trkpt lat="40.403446" lon="-3.361324">
        <ele>658.8</ele>
        <time>1970-01-01T02:37:57.000Z</time>
      </trkpt>
      <trkpt lat="40.403438" lon="-3.361276">
        <ele>659</ele>
        <time>1970-01-01T02:37:58.000Z</time>
      </trkpt>
      <trkpt lat="40.403431" lon="-3.361224">
        <ele>659.2</ele>
        <time>1970-01-01T02:37:59.000Z</time>
      </trkpt>
      <trkpt lat="40.403423" lon="-3.361176">
        <ele>659.4</ele>
        <time>1970-01-01T02:38:00.000Z</time>
      </trkpt>
      <trkpt lat="40.403416" lon="-3.361135">
        <ele>659.4</ele>
        <time>1970-01-01T02:38:01.000Z</time>
      </trkpt>
      <trkpt lat="40.403412" lon="-3.361084">
        <ele>659.6</ele>
        <time>1970-01-01T02:38:02.000Z</time>
      </trkpt>
      <trkpt lat="40.403401" lon="-3.361026">
        <ele>660</ele>
        <time>1970-01-01T02:38:03.000Z</time>
      </trkpt>
      <trkpt lat="40.403393" lon="-3.360979">
        <ele>660.2</ele>
        <time>1970-01-01T02:38:04.000Z</time>
      </trkpt>
      <trkpt lat="40.403387" lon="-3.36094">
        <ele>660.2</ele>
        <time>1970-01-01T02:38:05.000Z</time>
      </trkpt>
      <trkpt lat="40.403378" lon="-3.360876">
        <ele>660.4</ele>
        <time>1970-01-01T02:38:06.000Z</time>
      </trkpt>
      <trkpt lat="40.403369" lon="-3.360823">
        <ele>660.6</ele>
        <time>1970-01-01T02:38:07.000Z</time>
      </trkpt>
      <trkpt lat="40.403361" lon="-3.360771">
        <ele>660.8</ele>
        <time>1970-01-01T02:38:08.000Z</time>
      </trkpt>
      <trkpt lat="40.403353" lon="-3.360725">
        <ele>661</ele>
        <time>1970-01-01T02:38:09.000Z</time>
      </trkpt>
      <trkpt lat="40.403344" lon="-3.360677">
        <ele>661</ele>
        <time>1970-01-01T02:38:10.000Z</time>
      </trkpt>
      <trkpt lat="40.403337" lon="-3.360626">
        <ele>661.2</ele>
        <time>1970-01-01T02:38:11.000Z</time>
      </trkpt>
      <trkpt lat="40.40333" lon="-3.360576">
        <ele>661.4</ele>
        <time>1970-01-01T02:38:12.000Z</time>
      </trkpt>
      <trkpt lat="40.403324" lon="-3.360526">
        <ele>661.6</ele>
        <time>1970-01-01T02:38:13.000Z</time>
      </trkpt>
      <trkpt lat="40.40332" lon="-3.360476">
        <ele>661.8</ele>
        <time>1970-01-01T02:38:14.000Z</time>
      </trkpt>
      <trkpt lat="40.403314" lon="-3.360426">
        <ele>661.8</ele>
        <time>1970-01-01T02:38:15.000Z</time>
      </trkpt>
      <trkpt lat="40.403307" lon="-3.360377">
        <ele>662.2</ele>
        <time>1970-01-01T02:38:16.000Z</time>
      </trkpt>
      <trkpt lat="40.403299" lon="-3.36033">
        <ele>662.2</ele>
        <time>1970-01-01T02:38:17.000Z</time>
      </trkpt>
      <trkpt lat="40.40329" lon="-3.360283">
        <ele>662.4</ele>
        <time>1970-01-01T02:38:18.000Z</time>
      </trkpt>
      <trkpt lat="40.403281" lon="-3.360233">
        <ele>662.6</ele>
        <time>1970-01-01T02:38:19.000Z</time>
      </trkpt>
      <trkpt lat="40.403276" lon="-3.360189">
        <ele>662.6</ele>
        <time>1970-01-01T02:38:20.000Z</time>
      </trkpt>
      <trkpt lat="40.403267" lon="-3.360143">
        <ele>663</ele>
        <time>1970-01-01T02:38:21.000Z</time>
      </trkpt>
      <trkpt lat="40.403254" lon="-3.360096">
        <ele>663</ele>
        <time>1970-01-01T02:38:22.000Z</time>
      </trkpt>
      <trkpt lat="40.403238" lon="-3.360046">
        <ele>663.4</ele>
        <time>1970-01-01T02:38:23.000Z</time>
      </trkpt>
      <trkpt lat="40.403218" lon="-3.359995">
        <ele>663.4</ele>
        <time>1970-01-01T02:38:24.000Z</time>
      </trkpt>
      <trkpt lat="40.403198" lon="-3.359943">
        <ele>663.6</ele>
        <time>1970-01-01T02:38:25.000Z</time>
      </trkpt>
      <trkpt lat="40.403179" lon="-3.359889">
        <ele>663.6</ele>
        <time>1970-01-01T02:38:26.000Z</time>
      </trkpt>
      <trkpt lat="40.40316" lon="-3.359836">
        <ele>663.8</ele>
        <time>1970-01-01T02:38:27.000Z</time>
      </trkpt>
      <trkpt lat="40.403144" lon="-3.359784">
        <ele>664</ele>
        <time>1970-01-01T02:38:28.000Z</time>
      </trkpt>
      <trkpt lat="40.403129" lon="-3.359731">
        <ele>664</ele>
        <time>1970-01-01T02:38:29.000Z</time>
      </trkpt>
      <trkpt lat="40.403118" lon="-3.359679">
        <ele>664</ele>
        <time>1970-01-01T02:38:30.000Z</time>
      </trkpt>
      <trkpt lat="40.40312" lon="-3.359633">
        <ele>664.2</ele>
        <time>1970-01-01T02:38:31.000Z</time>
      </trkpt>
      <trkpt lat="40.40314" lon="-3.359597">
        <ele>664.2</ele>
        <time>1970-01-01T02:38:32.000Z</time>
      </trkpt>
      <trkpt lat="40.403176" lon="-3.359575">
        <ele>664.2</ele>
        <time>1970-01-01T02:38:33.000Z</time>
      </trkpt>
      <trkpt lat="40.403216" lon="-3.359572">
        <ele>664.4</ele>
        <time>1970-01-01T02:38:34.000Z</time>
      </trkpt>
      <trkpt lat="40.403257" lon="-3.359583">
        <ele>664.4</ele>
        <time>1970-01-01T02:38:35.000Z</time>
      </trkpt>
      <trkpt lat="40.403297" lon="-3.359599">
        <ele>664.4</ele>
        <time>1970-01-01T02:38:36.000Z</time>
      </trkpt>
      <trkpt lat="40.403337" lon="-3.359617">
        <ele>664.4</ele>
        <time>1970-01-01T02:38:37.000Z</time>
      </trkpt>
      <trkpt lat="40.403375" lon="-3.35964">
        <ele>664.6</ele>
        <time>1970-01-01T02:38:38.000Z</time>
      </trkpt>
      <trkpt lat="40.403413" lon="-3.359666">
        <ele>664.6</ele>
        <time>1970-01-01T02:38:39.000Z</time>
      </trkpt>
      <trkpt lat="40.403452" lon="-3.359692">
        <ele>664.6</ele>
        <time>1970-01-01T02:38:40.000Z</time>
      </trkpt>
      <trkpt lat="40.403493" lon="-3.359717">
        <ele>664.6</ele>
        <time>1970-01-01T02:38:41.000Z</time>
      </trkpt>
      <trkpt lat="40.403539" lon="-3.359742">
        <ele>664.6</ele>
        <time>1970-01-01T02:38:42.000Z</time>
      </trkpt>
      <trkpt lat="40.403583" lon="-3.359768">
        <ele>664.4</ele>
        <time>1970-01-01T02:38:43.000Z</time>
      </trkpt>
      <trkpt lat="40.403628" lon="-3.359795">
        <ele>664.4</ele>
        <time>1970-01-01T02:38:44.000Z</time>
      </trkpt>
      <trkpt lat="40.403678" lon="-3.359822">
        <ele>664.4</ele>
        <time>1970-01-01T02:38:45.000Z</time>
      </trkpt>
      <trkpt lat="40.403727" lon="-3.359849">
        <ele>664.2</ele>
        <time>1970-01-01T02:38:46.000Z</time>
      </trkpt>
      <trkpt lat="40.403777" lon="-3.359879">
        <ele>664.2</ele>
        <time>1970-01-01T02:38:47.000Z</time>
      </trkpt>
      <trkpt lat="40.403827" lon="-3.359909">
        <ele>664</ele>
        <time>1970-01-01T02:38:48.000Z</time>
      </trkpt>
      <trkpt lat="40.403878" lon="-3.359939">
        <ele>664</ele>
        <time>1970-01-01T02:38:49.000Z</time>
      </trkpt>
      <trkpt lat="40.403929" lon="-3.359967">
        <ele>664</ele>
        <time>1970-01-01T02:38:50.000Z</time>
      </trkpt>
      <trkpt lat="40.403979" lon="-3.359993">
        <ele>663.8</ele>
        <time>1970-01-01T02:38:51.000Z</time>
      </trkpt>
      <trkpt lat="40.404027" lon="-3.360022">
        <ele>663.8</ele>
        <time>1970-01-01T02:38:52.000Z</time>
      </trkpt>
      <trkpt lat="40.404072" lon="-3.360051">
        <ele>663.8</ele>
        <time>1970-01-01T02:38:53.000Z</time>
      </trkpt>
      <trkpt lat="40.404118" lon="-3.360079">
        <ele>663.6</ele>
        <time>1970-01-01T02:38:54.000Z</time>
      </trkpt>
      <trkpt lat="40.404167" lon="-3.360105">
        <ele>663.6</ele>
        <time>1970-01-01T02:38:55.000Z</time>
      </trkpt>
      <trkpt lat="40.404212" lon="-3.36013">
        <ele>663.6</ele>
        <time>1970-01-01T02:38:56.000Z</time>
      </trkpt>
      <trkpt lat="40.404253" lon="-3.36015">
        <ele>663.6</ele>
        <time>1970-01-01T02:38:57.000Z</time>
      </trkpt>
      <trkpt lat="40.404281" lon="-3.360162">
        <ele>663.6</ele>
        <time>1970-01-01T02:38:58.000Z</time>
      </trkpt>
      <trkpt lat="40.40431" lon="-3.360175">
        <ele>663.4</ele>
        <time>1970-01-01T02:38:59.000Z</time>
      </trkpt>
      <trkpt lat="40.404335" lon="-3.360185">
        <ele>663.4</ele>
        <time>1970-01-01T02:39:00.000Z</time>
      </trkpt>
      <trkpt lat="40.404346" lon="-3.360187">
        <ele>663.4</ele>
        <time>1970-01-01T02:39:01.000Z</time>
      </trkpt>
      <trkpt lat="40.404349" lon="-3.360187">
        <ele>663.2</ele>
        <time>1970-01-01T02:39:02.000Z</time>
      </trkpt>
      <trkpt lat="40.404349" lon="-3.360187">
        <ele>663.2</ele>
        <time>1970-01-01T02:39:03.000Z</time>
      </trkpt>
      <trkpt lat="40.404348" lon="-3.360186">
        <ele>663.2</ele>
        <time>1970-01-01T02:39:04.000Z</time>
      </trkpt>
      <trkpt lat="40.404424" lon="-3.360208">
        <ele>663.4</ele>
        <time>1970-01-01T02:41:59.000Z</time>
      </trkpt>
      <trkpt lat="40.40444" lon="-3.360202">
        <ele>663.4</ele>
        <time>1970-01-01T02:42:00.000Z</time>
      </trkpt>
      <trkpt lat="40.404455" lon="-3.3602">
        <ele>663.4</ele>
        <time>1970-01-01T02:42:01.000Z</time>
      </trkpt>
      <trkpt lat="40.404463" lon="-3.360204">
        <ele>663.4</ele>
        <time>1970-01-01T02:42:02.000Z</time>
      </trkpt>
      <trkpt lat="40.404465" lon="-3.360204">
        <ele>663.4</ele>
        <time>1970-01-01T02:42:03.000Z</time>
      </trkpt>
      <trkpt lat="40.404465" lon="-3.360204">
        <ele>663.4</ele>
        <time>1970-01-01T02:42:04.000Z</time>
      </trkpt>
      <trkpt lat="40.404405" lon="-3.360227">
        <ele>663.2</ele>
        <time>1970-01-01T02:42:33.000Z</time>
      </trkpt>
      <trkpt lat="40.404376" lon="-3.360217">
        <ele>663.2</ele>
        <time>1970-01-01T02:42:34.000Z</time>
      </trkpt>
      <trkpt lat="40.404354" lon="-3.36021">
        <ele>663.2</ele>
        <time>1970-01-01T02:42:35.000Z</time>
      </trkpt>
      <trkpt lat="40.404328" lon="-3.360194">
        <ele>663.2</ele>
        <time>1970-01-01T02:42:36.000Z</time>
      </trkpt>
      <trkpt lat="40.4043" lon="-3.360177">
        <ele>663.2</ele>
        <time>1970-01-01T02:42:37.000Z</time>
      </trkpt>
      <trkpt lat="40.404257" lon="-3.360162">
        <ele>663.2</ele>
        <time>1970-01-01T02:42:38.000Z</time>
      </trkpt>
      <trkpt lat="40.404222" lon="-3.360143">
        <ele>663.2</ele>
        <time>1970-01-01T02:42:39.000Z</time>
      </trkpt>
      <trkpt lat="40.404193" lon="-3.360124">
        <ele>663.2</ele>
        <time>1970-01-01T02:42:40.000Z</time>
      </trkpt>
      <trkpt lat="40.404158" lon="-3.360101">
        <ele>663.4</ele>
        <time>1970-01-01T02:42:41.000Z</time>
      </trkpt>
      <trkpt lat="40.40412" lon="-3.36008">
        <ele>663.4</ele>
        <time>1970-01-01T02:42:42.000Z</time>
      </trkpt>
      <trkpt lat="40.404086" lon="-3.360059">
        <ele>663.4</ele>
        <time>1970-01-01T02:42:43.000Z</time>
      </trkpt>
      <trkpt lat="40.404048" lon="-3.360039">
        <ele>663.4</ele>
        <time>1970-01-01T02:42:44.000Z</time>
      </trkpt>
      <trkpt lat="40.404024" lon="-3.360027">
        <ele>663.4</ele>
        <time>1970-01-01T02:42:45.000Z</time>
      </trkpt>
      <trkpt lat="40.403989" lon="-3.360008">
        <ele>663.6</ele>
        <time>1970-01-01T02:42:46.000Z</time>
      </trkpt>
      <trkpt lat="40.40395" lon="-3.359995">
        <ele>663.6</ele>
        <time>1970-01-01T02:42:47.000Z</time>
      </trkpt>
      <trkpt lat="40.403908" lon="-3.359979">
        <ele>663.6</ele>
        <time>1970-01-01T02:42:48.000Z</time>
      </trkpt>
      <trkpt lat="40.403866" lon="-3.359956">
        <ele>663.8</ele>
        <time>1970-01-01T02:42:49.000Z</time>
      </trkpt>
      <trkpt lat="40.403826" lon="-3.359933">
        <ele>663.8</ele>
        <time>1970-01-01T02:42:50.000Z</time>
      </trkpt>
      <trkpt lat="40.403784" lon="-3.359909">
        <ele>663.8</ele>
        <time>1970-01-01T02:42:51.000Z</time>
      </trkpt>
      <trkpt lat="40.403747" lon="-3.359885">
        <ele>663.8</ele>
        <time>1970-01-01T02:42:52.000Z</time>
      </trkpt>
      <trkpt lat="40.403704" lon="-3.359857">
        <ele>663.8</ele>
        <time>1970-01-01T02:42:53.000Z</time>
      </trkpt>
      <trkpt lat="40.403673" lon="-3.35983">
        <ele>663.8</ele>
        <time>1970-01-01T02:42:54.000Z</time>
      </trkpt>
      <trkpt lat="40.403634" lon="-3.359804">
        <ele>663.8</ele>
        <time>1970-01-01T02:42:55.000Z</time>
      </trkpt>
      <trkpt lat="40.403597" lon="-3.359781">
        <ele>663.8</ele>
        <time>1970-01-01T02:42:56.000Z</time>
      </trkpt>
      <trkpt lat="40.40356" lon="-3.359747">
        <ele>663.8</ele>
        <time>1970-01-01T02:42:57.000Z</time>
      </trkpt>
      <trkpt lat="40.403515" lon="-3.359725">
        <ele>664</ele>
        <time>1970-01-01T02:42:58.000Z</time>
      </trkpt>
      <trkpt lat="40.403488" lon="-3.359712">
        <ele>664</ele>
        <time>1970-01-01T02:42:59.000Z</time>
      </trkpt>
      <trkpt lat="40.403455" lon="-3.359693">
        <ele>664</ele>
        <time>1970-01-01T02:43:00.000Z</time>
      </trkpt>
      <trkpt lat="40.403422" lon="-3.359672">
        <ele>664</ele>
        <time>1970-01-01T02:43:01.000Z</time>
      </trkpt>
      <trkpt lat="40.403391" lon="-3.359648">
        <ele>664.2</ele>
        <time>1970-01-01T02:43:02.000Z</time>
      </trkpt>
      <trkpt lat="40.403361" lon="-3.359619">
        <ele>664.2</ele>
        <time>1970-01-01T02:43:03.000Z</time>
      </trkpt>
      <trkpt lat="40.403338" lon="-3.359577">
        <ele>664.2</ele>
        <time>1970-01-01T02:43:04.000Z</time>
      </trkpt>
      <trkpt lat="40.403328" lon="-3.359547">
        <ele>664.4</ele>
        <time>1970-01-01T02:43:05.000Z</time>
      </trkpt>
      <trkpt lat="40.403318" lon="-3.359501">
        <ele>664.4</ele>
        <time>1970-01-01T02:43:06.000Z</time>
      </trkpt>
      <trkpt lat="40.403318" lon="-3.359455">
        <ele>664.4</ele>
        <time>1970-01-01T02:43:07.000Z</time>
      </trkpt>
      <trkpt lat="40.403322" lon="-3.359406">
        <ele>664.6</ele>
        <time>1970-01-01T02:43:08.000Z</time>
      </trkpt>
      <trkpt lat="40.40333" lon="-3.359359">
        <ele>664.8</ele>
        <time>1970-01-01T02:43:09.000Z</time>
      </trkpt>
      <trkpt lat="40.403342" lon="-3.359315">
        <ele>664.8</ele>
        <time>1970-01-01T02:43:10.000Z</time>
      </trkpt>
      <trkpt lat="40.403349" lon="-3.359267">
        <ele>665</ele>
        <time>1970-01-01T02:43:11.000Z</time>
      </trkpt>
      <trkpt lat="40.403353" lon="-3.359213">
        <ele>665</ele>
        <time>1970-01-01T02:43:12.000Z</time>
      </trkpt>
      <trkpt lat="40.403354" lon="-3.359155">
        <ele>665.2</ele>
        <time>1970-01-01T02:43:13.000Z</time>
      </trkpt>
      <trkpt lat="40.403355" lon="-3.359098">
        <ele>665.2</ele>
        <time>1970-01-01T02:43:14.000Z</time>
      </trkpt>
      <trkpt lat="40.403359" lon="-3.359044">
        <ele>665.2</ele>
        <time>1970-01-01T02:43:15.000Z</time>
      </trkpt>
      <trkpt lat="40.403363" lon="-3.35899">
        <ele>665.4</ele>
        <time>1970-01-01T02:43:16.000Z</time>
      </trkpt>
      <trkpt lat="40.40337" lon="-3.358937">
        <ele>665.4</ele>
        <time>1970-01-01T02:43:17.000Z</time>
      </trkpt>
      <trkpt lat="40.403377" lon="-3.358882">
        <ele>665.4</ele>
        <time>1970-01-01T02:43:18.000Z</time>
      </trkpt>
      <trkpt lat="40.403384" lon="-3.358827">
        <ele>665.4</ele>
        <time>1970-01-01T02:43:19.000Z</time>
      </trkpt>
      <trkpt lat="40.403391" lon="-3.35877">
        <ele>665.6</ele>
        <time>1970-01-01T02:43:20.000Z</time>
      </trkpt>
      <trkpt lat="40.403398" lon="-3.358712">
        <ele>665.6</ele>
        <time>1970-01-01T02:43:21.000Z</time>
      </trkpt>
      <trkpt lat="40.403406" lon="-3.358653">
        <ele>665.8</ele>
        <time>1970-01-01T02:43:22.000Z</time>
      </trkpt>
      <trkpt lat="40.403413" lon="-3.358595">
        <ele>665.8</ele>
        <time>1970-01-01T02:43:23.000Z</time>
      </trkpt>
      <trkpt lat="40.403419" lon="-3.358537">
        <ele>665.8</ele>
        <time>1970-01-01T02:43:24.000Z</time>
      </trkpt>
      <trkpt lat="40.403427" lon="-3.358478">
        <ele>666</ele>
        <time>1970-01-01T02:43:25.000Z</time>
      </trkpt>
      <trkpt lat="40.403435" lon="-3.358421">
        <ele>666</ele>
        <time>1970-01-01T02:43:26.000Z</time>
      </trkpt>
      <trkpt lat="40.403446" lon="-3.358364">
        <ele>666</ele>
        <time>1970-01-01T02:43:27.000Z</time>
      </trkpt>
      <trkpt lat="40.403453" lon="-3.358311">
        <ele>666</ele>
        <time>1970-01-01T02:43:28.000Z</time>
      </trkpt>
      <trkpt lat="40.403458" lon="-3.358255">
        <ele>666</ele>
        <time>1970-01-01T02:43:29.000Z</time>
      </trkpt>
      <trkpt lat="40.40346" lon="-3.3582">
        <ele>666.2</ele>
        <time>1970-01-01T02:43:30.000Z</time>
      </trkpt>
      <trkpt lat="40.403459" lon="-3.358148">
        <ele>666.2</ele>
        <time>1970-01-01T02:43:31.000Z</time>
      </trkpt>
      <trkpt lat="40.403454" lon="-3.358098">
        <ele>666.2</ele>
        <time>1970-01-01T02:43:32.000Z</time>
      </trkpt>
      <trkpt lat="40.403446" lon="-3.358049">
        <ele>666.2</ele>
        <time>1970-01-01T02:43:33.000Z</time>
      </trkpt>
      <trkpt lat="40.403433" lon="-3.358001">
        <ele>666.2</ele>
        <time>1970-01-01T02:43:34.000Z</time>
      </trkpt>
      <trkpt lat="40.403417" lon="-3.357947">
        <ele>666.2</ele>
        <time>1970-01-01T02:43:35.000Z</time>
      </trkpt>
      <trkpt lat="40.403413" lon="-3.357924">
        <ele>666.4</ele>
        <time>1970-01-01T02:43:36.000Z</time>
      </trkpt>
      <trkpt lat="40.403422" lon="-3.357907">
        <ele>666.4</ele>
        <time>1970-01-01T02:43:37.000Z</time>
      </trkpt>
      <trkpt lat="40.403443" lon="-3.357907">
        <ele>666.4</ele>
        <time>1970-01-01T02:43:38.000Z</time>
      </trkpt>
      <trkpt lat="40.403468" lon="-3.357918">
        <ele>666.4</ele>
        <time>1970-01-01T02:43:39.000Z</time>
      </trkpt>
      <trkpt lat="40.403501" lon="-3.357926">
        <ele>666.4</ele>
        <time>1970-01-01T02:43:40.000Z</time>
      </trkpt>
      <trkpt lat="40.403538" lon="-3.357932">
        <ele>666.4</ele>
        <time>1970-01-01T02:43:41.000Z</time>
      </trkpt>
      <trkpt lat="40.403579" lon="-3.357938">
        <ele>666.4</ele>
        <time>1970-01-01T02:43:42.000Z</time>
      </trkpt>
      <trkpt lat="40.403621" lon="-3.357949">
        <ele>666.4</ele>
        <time>1970-01-01T02:43:43.000Z</time>
      </trkpt>
      <trkpt lat="40.403666" lon="-3.357962">
        <ele>666.4</ele>
        <time>1970-01-01T02:43:44.000Z</time>
      </trkpt>
      <trkpt lat="40.403712" lon="-3.35797">
        <ele>666.4</ele>
        <time>1970-01-01T02:43:45.000Z</time>
      </trkpt>
      <trkpt lat="40.403762" lon="-3.357974">
        <ele>666.2</ele>
        <time>1970-01-01T02:43:46.000Z</time>
      </trkpt>
      <trkpt lat="40.403813" lon="-3.35798">
        <ele>666.2</ele>
        <time>1970-01-01T02:43:47.000Z</time>
      </trkpt>
      <trkpt lat="40.403862" lon="-3.357988">
        <ele>666.4</ele>
        <time>1970-01-01T02:43:48.000Z</time>
      </trkpt>
      <trkpt lat="40.403911" lon="-3.357998">
        <ele>666.4</ele>
        <time>1970-01-01T02:43:49.000Z</time>
      </trkpt>
      <trkpt lat="40.40396" lon="-3.358008">
        <ele>666</ele>
        <time>1970-01-01T02:43:50.000Z</time>
      </trkpt>
      <trkpt lat="40.404018" lon="-3.35802">
        <ele>666</ele>
        <time>1970-01-01T02:43:51.000Z</time>
      </trkpt>
      <trkpt lat="40.404054" lon="-3.358029">
        <ele>666</ele>
        <time>1970-01-01T02:43:52.000Z</time>
      </trkpt>
      <trkpt lat="40.404101" lon="-3.35804">
        <ele>666.2</ele>
        <time>1970-01-01T02:43:53.000Z</time>
      </trkpt>
      <trkpt lat="40.404147" lon="-3.358045">
        <ele>666.2</ele>
        <time>1970-01-01T02:43:54.000Z</time>
      </trkpt>
      <trkpt lat="40.404189" lon="-3.35805">
        <ele>666.2</ele>
        <time>1970-01-01T02:43:55.000Z</time>
      </trkpt>
      <trkpt lat="40.404241" lon="-3.358055">
        <ele>666.2</ele>
        <time>1970-01-01T02:43:56.000Z</time>
      </trkpt>
      <trkpt lat="40.404278" lon="-3.358058">
        <ele>666.2</ele>
        <time>1970-01-01T02:43:57.000Z</time>
      </trkpt>
      <trkpt lat="40.404324" lon="-3.358063">
        <ele>666.2</ele>
        <time>1970-01-01T02:43:58.000Z</time>
      </trkpt>
      <trkpt lat="40.404371" lon="-3.358066">
        <ele>666.4</ele>
        <time>1970-01-01T02:43:59.000Z</time>
      </trkpt>
      <trkpt lat="40.404415" lon="-3.358069">
        <ele>666.4</ele>
        <time>1970-01-01T02:44:00.000Z</time>
      </trkpt>
      <trkpt lat="40.404458" lon="-3.358071">
        <ele>666.6</ele>
        <time>1970-01-01T02:44:01.000Z</time>
      </trkpt>
      <trkpt lat="40.4045" lon="-3.358073">
        <ele>667</ele>
        <time>1970-01-01T02:44:02.000Z</time>
      </trkpt>
      <trkpt lat="40.40454" lon="-3.358077">
        <ele>667</ele>
        <time>1970-01-01T02:44:03.000Z</time>
      </trkpt>
      <trkpt lat="40.404574" lon="-3.358081">
        <ele>667.4</ele>
        <time>1970-01-01T02:44:04.000Z</time>
      </trkpt>
      <trkpt lat="40.404603" lon="-3.358086">
        <ele>667.4</ele>
        <time>1970-01-01T02:44:05.000Z</time>
      </trkpt>
      <trkpt lat="40.404632" lon="-3.358086">
        <ele>667.6</ele>
        <time>1970-01-01T02:44:06.000Z</time>
      </trkpt>
      <trkpt lat="40.404661" lon="-3.358078">
        <ele>667.6</ele>
        <time>1970-01-01T02:44:07.000Z</time>
      </trkpt>
      <trkpt lat="40.404692" lon="-3.358066">
        <ele>667.8</ele>
        <time>1970-01-01T02:44:08.000Z</time>
      </trkpt>
      <trkpt lat="40.404722" lon="-3.358053">
        <ele>668</ele>
        <time>1970-01-01T02:44:09.000Z</time>
      </trkpt>
      <trkpt lat="40.404752" lon="-3.358044">
        <ele>668.2</ele>
        <time>1970-01-01T02:44:10.000Z</time>
      </trkpt>
      <trkpt lat="40.404783" lon="-3.358038">
        <ele>668.4</ele>
        <time>1970-01-01T02:44:11.000Z</time>
      </trkpt>
      <trkpt lat="40.404815" lon="-3.358028">
        <ele>668.6</ele>
        <time>1970-01-01T02:44:12.000Z</time>
      </trkpt>
      <trkpt lat="40.404849" lon="-3.358012">
        <ele>669</ele>
        <time>1970-01-01T02:44:13.000Z</time>
      </trkpt>
      <trkpt lat="40.404883" lon="-3.357995">
        <ele>669</ele>
        <time>1970-01-01T02:44:14.000Z</time>
      </trkpt>
      <trkpt lat="40.404916" lon="-3.357974">
        <ele>669.4</ele>
        <time>1970-01-01T02:44:15.000Z</time>
      </trkpt>
      <trkpt lat="40.404951" lon="-3.357949">
        <ele>669.4</ele>
        <time>1970-01-01T02:44:16.000Z</time>
      </trkpt>
      <trkpt lat="40.404985" lon="-3.357923">
        <ele>669.8</ele>
        <time>1970-01-01T02:44:17.000Z</time>
      </trkpt>
      <trkpt lat="40.40502" lon="-3.357898">
        <ele>670</ele>
        <time>1970-01-01T02:44:18.000Z</time>
      </trkpt>
      <trkpt lat="40.405056" lon="-3.357876">
        <ele>670.2</ele>
        <time>1970-01-01T02:44:19.000Z</time>
      </trkpt>
      <trkpt lat="40.405092" lon="-3.357852">
        <ele>670.2</ele>
        <time>1970-01-01T02:44:20.000Z</time>
      </trkpt>
      <trkpt lat="40.405129" lon="-3.357827">
        <ele>670.4</ele>
        <time>1970-01-01T02:44:21.000Z</time>
      </trkpt>
      <trkpt lat="40.405167" lon="-3.357802">
        <ele>670.4</ele>
        <time>1970-01-01T02:44:22.000Z</time>
      </trkpt>
      <trkpt lat="40.405204" lon="-3.35778">
        <ele>670.4</ele>
        <time>1970-01-01T02:44:23.000Z</time>
      </trkpt>
      <trkpt lat="40.405243" lon="-3.357756">
        <ele>670.4</ele>
        <time>1970-01-01T02:44:24.000Z</time>
      </trkpt>
      <trkpt lat="40.405287" lon="-3.357728">
        <ele>670.4</ele>
        <time>1970-01-01T02:44:25.000Z</time>
      </trkpt>
      <trkpt lat="40.405331" lon="-3.357701">
        <ele>670.4</ele>
        <time>1970-01-01T02:44:26.000Z</time>
      </trkpt>
      <trkpt lat="40.405378" lon="-3.35767">
        <ele>670.4</ele>
        <time>1970-01-01T02:44:27.000Z</time>
      </trkpt>
      <trkpt lat="40.405429" lon="-3.357639">
        <ele>670.4</ele>
        <time>1970-01-01T02:44:28.000Z</time>
      </trkpt>
      <trkpt lat="40.405481" lon="-3.357609">
        <ele>670.4</ele>
        <time>1970-01-01T02:44:29.000Z</time>
      </trkpt>
      <trkpt lat="40.405537" lon="-3.35758">
        <ele>670.4</ele>
        <time>1970-01-01T02:44:30.000Z</time>
      </trkpt>
      <trkpt lat="40.405595" lon="-3.35755">
        <ele>670.4</ele>
        <time>1970-01-01T02:44:31.000Z</time>
      </trkpt>
      <trkpt lat="40.40565" lon="-3.357518">
        <ele>670.4</ele>
        <time>1970-01-01T02:44:32.000Z</time>
      </trkpt>
      <trkpt lat="40.405703" lon="-3.357486">
        <ele>670.2</ele>
        <time>1970-01-01T02:44:33.000Z</time>
      </trkpt>
      <trkpt lat="40.405756" lon="-3.357453">
        <ele>669.8</ele>
        <time>1970-01-01T02:44:34.000Z</time>
      </trkpt>
      <trkpt lat="40.405806" lon="-3.35742">
        <ele>669.6</ele>
        <time>1970-01-01T02:44:35.000Z</time>
      </trkpt>
      <trkpt lat="40.405854" lon="-3.357386">
        <ele>669.4</ele>
        <time>1970-01-01T02:44:36.000Z</time>
      </trkpt>
      <trkpt lat="40.405894" lon="-3.357355">
        <ele>669.2</ele>
        <time>1970-01-01T02:44:37.000Z</time>
      </trkpt>
      <trkpt lat="40.405924" lon="-3.357326">
        <ele>669</ele>
        <time>1970-01-01T02:44:38.000Z</time>
      </trkpt>
      <trkpt lat="40.405952" lon="-3.357298">
        <ele>668.8</ele>
        <time>1970-01-01T02:44:39.000Z</time>
      </trkpt>
      <trkpt lat="40.405977" lon="-3.357268">
        <ele>668.6</ele>
        <time>1970-01-01T02:44:40.000Z</time>
      </trkpt>
      <trkpt lat="40.406006" lon="-3.357231">
        <ele>668.4</ele>
        <time>1970-01-01T02:44:41.000Z</time>
      </trkpt>
      <trkpt lat="40.406042" lon="-3.357189">
        <ele>668.4</ele>
        <time>1970-01-01T02:44:42.000Z</time>
      </trkpt>
      <trkpt lat="40.406081" lon="-3.357147">
        <ele>668</ele>
        <time>1970-01-01T02:44:43.000Z</time>
      </trkpt>
      <trkpt lat="40.40612" lon="-3.357109">
        <ele>667.8</ele>
        <time>1970-01-01T02:44:44.000Z</time>
      </trkpt>
      <trkpt lat="40.40616" lon="-3.357069">
        <ele>667.2</ele>
        <time>1970-01-01T02:44:45.000Z</time>
      </trkpt>
      <trkpt lat="40.406199" lon="-3.357027">
        <ele>666.6</ele>
        <time>1970-01-01T02:44:46.000Z</time>
      </trkpt>
      <trkpt lat="40.406237" lon="-3.356984">
        <ele>665.8</ele>
        <time>1970-01-01T02:44:47.000Z</time>
      </trkpt>
      <trkpt lat="40.406271" lon="-3.356943">
        <ele>664.6</ele>
        <time>1970-01-01T02:44:48.000Z</time>
      </trkpt>
      <trkpt lat="40.406305" lon="-3.356905">
        <ele>663</ele>
        <time>1970-01-01T02:44:49.000Z</time>
      </trkpt>
      <trkpt lat="40.406336" lon="-3.356867">
        <ele>661.6</ele>
        <time>1970-01-01T02:44:50.000Z</time>
      </trkpt>
      <trkpt lat="40.406365" lon="-3.356835">
        <ele>661</ele>
        <time>1970-01-01T02:44:51.000Z</time>
      </trkpt>
      <trkpt lat="40.406392" lon="-3.356814">
        <ele>659.6</ele>
        <time>1970-01-01T02:44:52.000Z</time>
      </trkpt>
      <trkpt lat="40.406417" lon="-3.356796">
        <ele>658.8</ele>
        <time>1970-01-01T02:44:53.000Z</time>
      </trkpt>
      <trkpt lat="40.406432" lon="-3.356773">
        <ele>656.8</ele>
        <time>1970-01-01T02:44:54.000Z</time>
      </trkpt>
      <trkpt lat="40.406432" lon="-3.356744">
        <ele>656.2</ele>
        <time>1970-01-01T02:44:55.000Z</time>
      </trkpt>
      <trkpt lat="40.406417" lon="-3.356717">
        <ele>654.6</ele>
        <time>1970-01-01T02:44:56.000Z</time>
      </trkpt>
      <trkpt lat="40.406398" lon="-3.356695">
        <ele>653.4</ele>
        <time>1970-01-01T02:44:57.000Z</time>
      </trkpt>
      <trkpt lat="40.406378" lon="-3.356666">
        <ele>652.6</ele>
        <time>1970-01-01T02:44:58.000Z</time>
      </trkpt>
      <trkpt lat="40.40635" lon="-3.356628">
        <ele>651.6</ele>
        <time>1970-01-01T02:44:59.000Z</time>
      </trkpt>
      <trkpt lat="40.406327" lon="-3.356603">
        <ele>651.4</ele>
        <time>1970-01-01T02:45:00.000Z</time>
      </trkpt>
      <trkpt lat="40.406297" lon="-3.356571">
        <ele>651.2</ele>
        <time>1970-01-01T02:45:01.000Z</time>
      </trkpt>
      <trkpt lat="40.406266" lon="-3.356534">
        <ele>651</ele>
        <time>1970-01-01T02:45:02.000Z</time>
      </trkpt>
      <trkpt lat="40.406235" lon="-3.356494">
        <ele>650.8</ele>
        <time>1970-01-01T02:45:03.000Z</time>
      </trkpt>
      <trkpt lat="40.406209" lon="-3.356453">
        <ele>650.8</ele>
        <time>1970-01-01T02:45:04.000Z</time>
      </trkpt>
      <trkpt lat="40.406189" lon="-3.356413">
        <ele>650.6</ele>
        <time>1970-01-01T02:45:05.000Z</time>
      </trkpt>
      <trkpt lat="40.40617" lon="-3.356376">
        <ele>650.2</ele>
        <time>1970-01-01T02:45:06.000Z</time>
      </trkpt>
      <trkpt lat="40.406152" lon="-3.35634">
        <ele>650</ele>
        <time>1970-01-01T02:45:07.000Z</time>
      </trkpt>
      <trkpt lat="40.406132" lon="-3.356302">
        <ele>649.8</ele>
        <time>1970-01-01T02:45:08.000Z</time>
      </trkpt>
      <trkpt lat="40.406113" lon="-3.356258">
        <ele>649.6</ele>
        <time>1970-01-01T02:45:09.000Z</time>
      </trkpt>
      <trkpt lat="40.406094" lon="-3.356211">
        <ele>649.4</ele>
        <time>1970-01-01T02:45:10.000Z</time>
      </trkpt>
      <trkpt lat="40.406076" lon="-3.356163">
        <ele>649.2</ele>
        <time>1970-01-01T02:45:11.000Z</time>
      </trkpt>
      <trkpt lat="40.40606" lon="-3.356119">
        <ele>649</ele>
        <time>1970-01-01T02:45:12.000Z</time>
      </trkpt>
      <trkpt lat="40.406045" lon="-3.356075">
        <ele>648.6</ele>
        <time>1970-01-01T02:45:13.000Z</time>
      </trkpt>
      <trkpt lat="40.40603" lon="-3.356032">
        <ele>648.4</ele>
        <time>1970-01-01T02:45:14.000Z</time>
      </trkpt>
      <trkpt lat="40.406017" lon="-3.355986">
        <ele>648.2</ele>
        <time>1970-01-01T02:45:15.000Z</time>
      </trkpt>
      <trkpt lat="40.406008" lon="-3.35596">
        <ele>648.2</ele>
        <time>1970-01-01T02:45:16.000Z</time>
      </trkpt>
      <trkpt lat="40.405997" lon="-3.355927">
        <ele>648</ele>
        <time>1970-01-01T02:45:17.000Z</time>
      </trkpt>
      <trkpt lat="40.405988" lon="-3.355897">
        <ele>647.8</ele>
        <time>1970-01-01T02:45:18.000Z</time>
      </trkpt>
      <trkpt lat="40.405981" lon="-3.355867">
        <ele>647.8</ele>
        <time>1970-01-01T02:45:19.000Z</time>
      </trkpt>
      <trkpt lat="40.405971" lon="-3.355832">
        <ele>647.6</ele>
        <time>1970-01-01T02:45:20.000Z</time>
      </trkpt>
      <trkpt lat="40.405965" lon="-3.355814">
        <ele>647.4</ele>
        <time>1970-01-01T02:45:21.000Z</time>
      </trkpt>
      <trkpt lat="40.405959" lon="-3.355791">
        <ele>647.2</ele>
        <time>1970-01-01T02:45:22.000Z</time>
      </trkpt>
      <trkpt lat="40.405954" lon="-3.35577">
        <ele>647</ele>
        <time>1970-01-01T02:45:23.000Z</time>
      </trkpt>
      <trkpt lat="40.40595" lon="-3.35575">
        <ele>647</ele>
        <time>1970-01-01T02:45:24.000Z</time>
      </trkpt>
      <trkpt lat="40.405944" lon="-3.355731">
        <ele>646.8</ele>
        <time>1970-01-01T02:45:25.000Z</time>
      </trkpt>
      <trkpt lat="40.405938" lon="-3.355715">
        <ele>646.8</ele>
        <time>1970-01-01T02:45:26.000Z</time>
      </trkpt>
      <trkpt lat="40.405933" lon="-3.355698">
        <ele>646.8</ele>
        <time>1970-01-01T02:45:27.000Z</time>
      </trkpt>
      <trkpt lat="40.40593" lon="-3.35568">
        <ele>646.8</ele>
        <time>1970-01-01T02:45:28.000Z</time>
      </trkpt>
      <trkpt lat="40.405927" lon="-3.355664">
        <ele>646.8</ele>
        <time>1970-01-01T02:45:29.000Z</time>
      </trkpt>
      <trkpt lat="40.405925" lon="-3.35565">
        <ele>646.6</ele>
        <time>1970-01-01T02:45:30.000Z</time>
      </trkpt>
      <trkpt lat="40.405922" lon="-3.355639">
        <ele>646.6</ele>
        <time>1970-01-01T02:45:31.000Z</time>
      </trkpt>
      <trkpt lat="40.40592" lon="-3.355626">
        <ele>646.6</ele>
        <time>1970-01-01T02:45:32.000Z</time>
      </trkpt>
      <trkpt lat="40.405918" lon="-3.355611">
        <ele>646.6</ele>
        <time>1970-01-01T02:45:33.000Z</time>
      </trkpt>
      <trkpt lat="40.405915" lon="-3.355596">
        <ele>646.6</ele>
        <time>1970-01-01T02:45:34.000Z</time>
      </trkpt>
      <trkpt lat="40.405913" lon="-3.355582">
        <ele>646.6</ele>
        <time>1970-01-01T02:45:35.000Z</time>
      </trkpt>
      <trkpt lat="40.40591" lon="-3.355566">
        <ele>646.6</ele>
        <time>1970-01-01T02:45:36.000Z</time>
      </trkpt>
      <trkpt lat="40.405906" lon="-3.355555">
        <ele>646.6</ele>
        <time>1970-01-01T02:45:37.000Z</time>
      </trkpt>
      <trkpt lat="40.405904" lon="-3.355551">
        <ele>646.4</ele>
        <time>1970-01-01T02:45:38.000Z</time>
      </trkpt>
      <trkpt lat="40.405904" lon="-3.355551">
        <ele>646.4</ele>
        <time>1970-01-01T02:45:39.000Z</time>
      </trkpt>
      <trkpt lat="40.405925" lon="-3.355594">
        <ele>646.4</ele>
        <time>1970-01-01T02:46:18.000Z</time>
      </trkpt>
      <trkpt lat="40.405928" lon="-3.355617">
        <ele>646.4</ele>
        <time>1970-01-01T02:46:19.000Z</time>
      </trkpt>
      <trkpt lat="40.405933" lon="-3.355641">
        <ele>646.4</ele>
        <time>1970-01-01T02:46:20.000Z</time>
      </trkpt>
      <trkpt lat="40.405943" lon="-3.355671">
        <ele>646.4</ele>
        <time>1970-01-01T02:46:21.000Z</time>
      </trkpt>
      <trkpt lat="40.405953" lon="-3.355702">
        <ele>646.4</ele>
        <time>1970-01-01T02:46:22.000Z</time>
      </trkpt>
      <trkpt lat="40.405961" lon="-3.35573">
        <ele>646.6</ele>
        <time>1970-01-01T02:46:23.000Z</time>
      </trkpt>
      <trkpt lat="40.40597" lon="-3.355765">
        <ele>646.6</ele>
        <time>1970-01-01T02:46:24.000Z</time>
      </trkpt>
      <trkpt lat="40.405978" lon="-3.355798">
        <ele>646.6</ele>
        <time>1970-01-01T02:46:25.000Z</time>
      </trkpt>
      <trkpt lat="40.405991" lon="-3.35584">
        <ele>646.8</ele>
        <time>1970-01-01T02:46:26.000Z</time>
      </trkpt>
      <trkpt lat="40.406002" lon="-3.355878">
        <ele>646.8</ele>
        <time>1970-01-01T02:46:27.000Z</time>
      </trkpt>
      <trkpt lat="40.40601" lon="-3.355907">
        <ele>646.8</ele>
        <time>1970-01-01T02:46:28.000Z</time>
      </trkpt>
      <trkpt lat="40.40602" lon="-3.35594">
        <ele>646.8</ele>
        <time>1970-01-01T02:46:29.000Z</time>
      </trkpt>
      <trkpt lat="40.40603" lon="-3.35597">
        <ele>647</ele>
        <time>1970-01-01T02:46:30.000Z</time>
      </trkpt>
      <trkpt lat="40.406037" lon="-3.356005">
        <ele>647</ele>
        <time>1970-01-01T02:46:31.000Z</time>
      </trkpt>
      <trkpt lat="40.406038" lon="-3.356031">
        <ele>647.2</ele>
        <time>1970-01-01T02:46:32.000Z</time>
      </trkpt>
      <trkpt lat="40.406039" lon="-3.356048">
        <ele>647.2</ele>
        <time>1970-01-01T02:46:33.000Z</time>
      </trkpt>
      <trkpt lat="40.406047" lon="-3.35606">
        <ele>647.2</ele>
        <time>1970-01-01T02:46:34.000Z</time>
      </trkpt>
      <trkpt lat="40.406056" lon="-3.356054">
        <ele>647.4</ele>
        <time>1970-01-01T02:46:35.000Z</time>
      </trkpt>
      <trkpt lat="40.406053" lon="-3.356041">
        <ele>647.4</ele>
        <time>1970-01-01T02:46:36.000Z</time>
      </trkpt>
      <trkpt lat="40.406043" lon="-3.356022">
        <ele>647.4</ele>
        <time>1970-01-01T02:46:37.000Z</time>
      </trkpt>
      <trkpt lat="40.406033" lon="-3.356009">
        <ele>647.4</ele>
        <time>1970-01-01T02:46:38.000Z</time>
      </trkpt>
      <trkpt lat="40.40602" lon="-3.35599">
        <ele>647.4</ele>
        <time>1970-01-01T02:46:39.000Z</time>
      </trkpt>
      <trkpt lat="40.406008" lon="-3.355961">
        <ele>647.4</ele>
        <time>1970-01-01T02:46:40.000Z</time>
      </trkpt>
      <trkpt lat="40.405997" lon="-3.355931">
        <ele>647.4</ele>
        <time>1970-01-01T02:46:41.000Z</time>
      </trkpt>
      <trkpt lat="40.405988" lon="-3.355901">
        <ele>647.4</ele>
        <time>1970-01-01T02:46:42.000Z</time>
      </trkpt>
      <trkpt lat="40.405978" lon="-3.355861">
        <ele>647.4</ele>
        <time>1970-01-01T02:46:43.000Z</time>
      </trkpt>
      <trkpt lat="40.405969" lon="-3.355816">
        <ele>647.4</ele>
        <time>1970-01-01T02:46:44.000Z</time>
      </trkpt>
      <trkpt lat="40.405956" lon="-3.355767">
        <ele>647.4</ele>
        <time>1970-01-01T02:46:45.000Z</time>
      </trkpt>
      <trkpt lat="40.405944" lon="-3.355728">
        <ele>647.2</ele>
        <time>1970-01-01T02:46:46.000Z</time>
      </trkpt>
      <trkpt lat="40.405936" lon="-3.355683">
        <ele>647.2</ele>
        <time>1970-01-01T02:46:47.000Z</time>
      </trkpt>
      <trkpt lat="40.405927" lon="-3.355646">
        <ele>647.2</ele>
        <time>1970-01-01T02:46:48.000Z</time>
      </trkpt>
      <trkpt lat="40.405918" lon="-3.355601">
        <ele>647</ele>
        <time>1970-01-01T02:46:49.000Z</time>
      </trkpt>
      <trkpt lat="40.40591" lon="-3.355555">
        <ele>647</ele>
        <time>1970-01-01T02:46:50.000Z</time>
      </trkpt>
      <trkpt lat="40.405902" lon="-3.355514">
        <ele>647</ele>
        <time>1970-01-01T02:46:51.000Z</time>
      </trkpt>
      <trkpt lat="40.405895" lon="-3.355467">
        <ele>647</ele>
        <time>1970-01-01T02:46:52.000Z</time>
      </trkpt>
      <trkpt lat="40.405891" lon="-3.35544">
        <ele>647</ele>
        <time>1970-01-01T02:46:53.000Z</time>
      </trkpt>
      <trkpt lat="40.405888" lon="-3.355405">
        <ele>646.8</ele>
        <time>1970-01-01T02:46:54.000Z</time>
      </trkpt>
      <trkpt lat="40.405883" lon="-3.355359">
        <ele>646.8</ele>
        <time>1970-01-01T02:46:55.000Z</time>
      </trkpt>
      <trkpt lat="40.405875" lon="-3.355317">
        <ele>646.6</ele>
        <time>1970-01-01T02:46:56.000Z</time>
      </trkpt>
      <trkpt lat="40.405868" lon="-3.355275">
        <ele>646.6</ele>
        <time>1970-01-01T02:46:57.000Z</time>
      </trkpt>
      <trkpt lat="40.405865" lon="-3.355241">
        <ele>646.6</ele>
        <time>1970-01-01T02:46:58.000Z</time>
      </trkpt>
      <trkpt lat="40.405861" lon="-3.355199">
        <ele>646.6</ele>
        <time>1970-01-01T02:46:59.000Z</time>
      </trkpt>
      <trkpt lat="40.405855" lon="-3.355149">
        <ele>646.6</ele>
        <time>1970-01-01T02:47:00.000Z</time>
      </trkpt>
      <trkpt lat="40.405851" lon="-3.355106">
        <ele>646.6</ele>
        <time>1970-01-01T02:47:01.000Z</time>
      </trkpt>
      <trkpt lat="40.405845" lon="-3.35506">
        <ele>646.6</ele>
        <time>1970-01-01T02:47:02.000Z</time>
      </trkpt>
      <trkpt lat="40.405838" lon="-3.355023">
        <ele>646.6</ele>
        <time>1970-01-01T02:47:03.000Z</time>
      </trkpt>
      <trkpt lat="40.40583" lon="-3.354975">
        <ele>646.6</ele>
        <time>1970-01-01T02:47:04.000Z</time>
      </trkpt>
      <trkpt lat="40.405821" lon="-3.354932">
        <ele>646.8</ele>
        <time>1970-01-01T02:47:05.000Z</time>
      </trkpt>
      <trkpt lat="40.405812" lon="-3.354888">
        <ele>646.8</ele>
        <time>1970-01-01T02:47:06.000Z</time>
      </trkpt>
      <trkpt lat="40.405801" lon="-3.354832">
        <ele>646.8</ele>
        <time>1970-01-01T02:47:07.000Z</time>
      </trkpt>
      <trkpt lat="40.405794" lon="-3.354791">
        <ele>646.8</ele>
        <time>1970-01-01T02:47:08.000Z</time>
      </trkpt>
      <trkpt lat="40.405785" lon="-3.35474">
        <ele>647</ele>
        <time>1970-01-01T02:47:09.000Z</time>
      </trkpt>
      <trkpt lat="40.405774" lon="-3.354676">
        <ele>647</ele>
        <time>1970-01-01T02:47:10.000Z</time>
      </trkpt>
      <trkpt lat="40.405764" lon="-3.354622">
        <ele>647</ele>
        <time>1970-01-01T02:47:11.000Z</time>
      </trkpt>
      <trkpt lat="40.405753" lon="-3.35457">
        <ele>647.2</ele>
        <time>1970-01-01T02:47:12.000Z</time>
      </trkpt>
      <trkpt lat="40.405747" lon="-3.354526">
        <ele>647.4</ele>
        <time>1970-01-01T02:47:13.000Z</time>
      </trkpt>
      <trkpt lat="40.405739" lon="-3.354471">
        <ele>647.6</ele>
        <time>1970-01-01T02:47:14.000Z</time>
      </trkpt>
      <trkpt lat="40.405727" lon="-3.354404">
        <ele>647.8</ele>
        <time>1970-01-01T02:47:15.000Z</time>
      </trkpt>
      <trkpt lat="40.405717" lon="-3.354344">
        <ele>647.8</ele>
        <time>1970-01-01T02:47:16.000Z</time>
      </trkpt>
      <trkpt lat="40.405706" lon="-3.354284">
        <ele>648</ele>
        <time>1970-01-01T02:47:17.000Z</time>
      </trkpt>
      <trkpt lat="40.405697" lon="-3.354233">
        <ele>648</ele>
        <time>1970-01-01T02:47:18.000Z</time>
      </trkpt>
      <trkpt lat="40.405685" lon="-3.354166">
        <ele>648.2</ele>
        <time>1970-01-01T02:47:19.000Z</time>
      </trkpt>
      <trkpt lat="40.405674" lon="-3.354087">
        <ele>648.2</ele>
        <time>1970-01-01T02:47:20.000Z</time>
      </trkpt>
      <trkpt lat="40.405669" lon="-3.354033">
        <ele>648.2</ele>
        <time>1970-01-01T02:47:21.000Z</time>
      </trkpt>
      <trkpt lat="40.405662" lon="-3.353964">
        <ele>648.4</ele>
        <time>1970-01-01T02:47:22.000Z</time>
      </trkpt>
      <trkpt lat="40.405654" lon="-3.353893">
        <ele>648.6</ele>
        <time>1970-01-01T02:47:23.000Z</time>
      </trkpt>
      <trkpt lat="40.405649" lon="-3.353825">
        <ele>648.6</ele>
        <time>1970-01-01T02:47:24.000Z</time>
      </trkpt>
      <trkpt lat="40.405644" lon="-3.353746">
        <ele>648.8</ele>
        <time>1970-01-01T02:47:25.000Z</time>
      </trkpt>
      <trkpt lat="40.40564" lon="-3.353696">
        <ele>649</ele>
        <time>1970-01-01T02:47:26.000Z</time>
      </trkpt>
      <trkpt lat="40.405638" lon="-3.353634">
        <ele>649</ele>
        <time>1970-01-01T02:47:27.000Z</time>
      </trkpt>
      <trkpt lat="40.405637" lon="-3.353574">
        <ele>649.2</ele>
        <time>1970-01-01T02:47:28.000Z</time>
      </trkpt>
      <trkpt lat="40.405637" lon="-3.353515">
        <ele>649.2</ele>
        <time>1970-01-01T02:47:29.000Z</time>
      </trkpt>
      <trkpt lat="40.405636" lon="-3.353455">
        <ele>649.4</ele>
        <time>1970-01-01T02:47:30.000Z</time>
      </trkpt>
      <trkpt lat="40.405633" lon="-3.353393">
        <ele>649.6</ele>
        <time>1970-01-01T02:47:31.000Z</time>
      </trkpt>
      <trkpt lat="40.405632" lon="-3.353331">
        <ele>649.8</ele>
        <time>1970-01-01T02:47:32.000Z</time>
      </trkpt>
      <trkpt lat="40.405632" lon="-3.353271">
        <ele>649.8</ele>
        <time>1970-01-01T02:47:33.000Z</time>
      </trkpt>
      <trkpt lat="40.405632" lon="-3.353212">
        <ele>650</ele>
        <time>1970-01-01T02:47:34.000Z</time>
      </trkpt>
      <trkpt lat="40.405633" lon="-3.353155">
        <ele>650</ele>
        <time>1970-01-01T02:47:35.000Z</time>
      </trkpt>
      <trkpt lat="40.405634" lon="-3.353101">
        <ele>650.2</ele>
        <time>1970-01-01T02:47:36.000Z</time>
      </trkpt>
      <trkpt lat="40.405632" lon="-3.353036">
        <ele>650.2</ele>
        <time>1970-01-01T02:47:37.000Z</time>
      </trkpt>
      <trkpt lat="40.405631" lon="-3.352993">
        <ele>650.4</ele>
        <time>1970-01-01T02:47:38.000Z</time>
      </trkpt>
      <trkpt lat="40.405629" lon="-3.35294">
        <ele>650.4</ele>
        <time>1970-01-01T02:47:39.000Z</time>
      </trkpt>
      <trkpt lat="40.405629" lon="-3.352889">
        <ele>650.6</ele>
        <time>1970-01-01T02:47:40.000Z</time>
      </trkpt>
      <trkpt lat="40.405631" lon="-3.352842">
        <ele>650.8</ele>
        <time>1970-01-01T02:47:41.000Z</time>
      </trkpt>
      <trkpt lat="40.405633" lon="-3.352797">
        <ele>651</ele>
        <time>1970-01-01T02:47:42.000Z</time>
      </trkpt>
      <trkpt lat="40.405635" lon="-3.352752">
        <ele>651.2</ele>
        <time>1970-01-01T02:47:43.000Z</time>
      </trkpt>
      <trkpt lat="40.405634" lon="-3.352705">
        <ele>651.4</ele>
        <time>1970-01-01T02:47:44.000Z</time>
      </trkpt>
      <trkpt lat="40.405632" lon="-3.352658">
        <ele>651.4</ele>
        <time>1970-01-01T02:47:45.000Z</time>
      </trkpt>
      <trkpt lat="40.40563" lon="-3.352611">
        <ele>651.4</ele>
        <time>1970-01-01T02:47:46.000Z</time>
      </trkpt>
      <trkpt lat="40.405634" lon="-3.352567">
        <ele>651.6</ele>
        <time>1970-01-01T02:47:47.000Z</time>
      </trkpt>
      <trkpt lat="40.405637" lon="-3.35252">
        <ele>651.6</ele>
        <time>1970-01-01T02:47:48.000Z</time>
      </trkpt>
      <trkpt lat="40.40564" lon="-3.352473">
        <ele>651.6</ele>
        <time>1970-01-01T02:47:49.000Z</time>
      </trkpt>
      <trkpt lat="40.405646" lon="-3.352429">
        <ele>651.8</ele>
        <time>1970-01-01T02:47:50.000Z</time>
      </trkpt>
      <trkpt lat="40.405649" lon="-3.352387">
        <ele>652</ele>
        <time>1970-01-01T02:47:51.000Z</time>
      </trkpt>
      <trkpt lat="40.40565" lon="-3.352334">
        <ele>652.2</ele>
        <time>1970-01-01T02:47:52.000Z</time>
      </trkpt>
      <trkpt lat="40.405652" lon="-3.352301">
        <ele>652.4</ele>
        <time>1970-01-01T02:47:53.000Z</time>
      </trkpt>
      <trkpt lat="40.405657" lon="-3.352261">
        <ele>652.4</ele>
        <time>1970-01-01T02:47:54.000Z</time>
      </trkpt>
      <trkpt lat="40.405659" lon="-3.352217">
        <ele>652.6</ele>
        <time>1970-01-01T02:47:55.000Z</time>
      </trkpt>
      <trkpt lat="40.405662" lon="-3.352172">
        <ele>652.6</ele>
        <time>1970-01-01T02:47:56.000Z</time>
      </trkpt>
      <trkpt lat="40.405665" lon="-3.352116">
        <ele>652.6</ele>
        <time>1970-01-01T02:47:57.000Z</time>
      </trkpt>
      <trkpt lat="40.405666" lon="-3.352077">
        <ele>652.8</ele>
        <time>1970-01-01T02:47:58.000Z</time>
      </trkpt>
      <trkpt lat="40.405667" lon="-3.352032">
        <ele>652.8</ele>
        <time>1970-01-01T02:47:59.000Z</time>
      </trkpt>
      <trkpt lat="40.405669" lon="-3.351988">
        <ele>653</ele>
        <time>1970-01-01T02:48:00.000Z</time>
      </trkpt>
      <trkpt lat="40.405671" lon="-3.351935">
        <ele>653</ele>
        <time>1970-01-01T02:48:01.000Z</time>
      </trkpt>
      <trkpt lat="40.405674" lon="-3.351901">
        <ele>653.2</ele>
        <time>1970-01-01T02:48:02.000Z</time>
      </trkpt>
      <trkpt lat="40.405676" lon="-3.351857">
        <ele>653.2</ele>
        <time>1970-01-01T02:48:03.000Z</time>
      </trkpt>
      <trkpt lat="40.405679" lon="-3.351815">
        <ele>653.4</ele>
        <time>1970-01-01T02:48:04.000Z</time>
      </trkpt>
      <trkpt lat="40.405685" lon="-3.351768">
        <ele>653.8</ele>
        <time>1970-01-01T02:48:05.000Z</time>
      </trkpt>
      <trkpt lat="40.405686" lon="-3.351738">
        <ele>653.8</ele>
        <time>1970-01-01T02:48:06.000Z</time>
      </trkpt>
      <trkpt lat="40.405691" lon="-3.351699">
        <ele>654</ele>
        <time>1970-01-01T02:48:07.000Z</time>
      </trkpt>
      <trkpt lat="40.405698" lon="-3.351658">
        <ele>654</ele>
        <time>1970-01-01T02:48:08.000Z</time>
      </trkpt>
      <trkpt lat="40.405704" lon="-3.351615">
        <ele>654.4</ele>
        <time>1970-01-01T02:48:09.000Z</time>
      </trkpt>
      <trkpt lat="40.405707" lon="-3.351571">
        <ele>654.4</ele>
        <time>1970-01-01T02:48:10.000Z</time>
      </trkpt>
      <trkpt lat="40.405709" lon="-3.351519">
        <ele>654.6</ele>
        <time>1970-01-01T02:48:11.000Z</time>
      </trkpt>
      <trkpt lat="40.40571" lon="-3.351485">
        <ele>654.8</ele>
        <time>1970-01-01T02:48:12.000Z</time>
      </trkpt>
      <trkpt lat="40.405711" lon="-3.351444">
        <ele>654.8</ele>
        <time>1970-01-01T02:48:13.000Z</time>
      </trkpt>
      <trkpt lat="40.405714" lon="-3.351395">
        <ele>655.2</ele>
        <time>1970-01-01T02:48:14.000Z</time>
      </trkpt>
      <trkpt lat="40.405715" lon="-3.35136">
        <ele>655.4</ele>
        <time>1970-01-01T02:48:15.000Z</time>
      </trkpt>
      <trkpt lat="40.405717" lon="-3.351317">
        <ele>655.6</ele>
        <time>1970-01-01T02:48:16.000Z</time>
      </trkpt>
      <trkpt lat="40.405719" lon="-3.351273">
        <ele>655.8</ele>
        <time>1970-01-01T02:48:17.000Z</time>
      </trkpt>
      <trkpt lat="40.405721" lon="-3.351229">
        <ele>656</ele>
        <time>1970-01-01T02:48:18.000Z</time>
      </trkpt>
      <trkpt lat="40.405723" lon="-3.351187">
        <ele>656.2</ele>
        <time>1970-01-01T02:48:19.000Z</time>
      </trkpt>
      <trkpt lat="40.405726" lon="-3.351146">
        <ele>656.4</ele>
        <time>1970-01-01T02:48:20.000Z</time>
      </trkpt>
      <trkpt lat="40.40573" lon="-3.351106">
        <ele>656.6</ele>
        <time>1970-01-01T02:48:21.000Z</time>
      </trkpt>
      <trkpt lat="40.405733" lon="-3.351065">
        <ele>656.6</ele>
        <time>1970-01-01T02:48:22.000Z</time>
      </trkpt>
      <trkpt lat="40.405736" lon="-3.351022">
        <ele>657</ele>
        <time>1970-01-01T02:48:23.000Z</time>
      </trkpt>
      <trkpt lat="40.405737" lon="-3.350978">
        <ele>657</ele>
        <time>1970-01-01T02:48:24.000Z</time>
      </trkpt>
      <trkpt lat="40.405737" lon="-3.350935">
        <ele>657.2</ele>
        <time>1970-01-01T02:48:25.000Z</time>
      </trkpt>
      <trkpt lat="40.405738" lon="-3.350892">
        <ele>657.2</ele>
        <time>1970-01-01T02:48:26.000Z</time>
      </trkpt>
      <trkpt lat="40.40574" lon="-3.350851">
        <ele>657.4</ele>
        <time>1970-01-01T02:48:27.000Z</time>
      </trkpt>
      <trkpt lat="40.405741" lon="-3.350809">
        <ele>657.6</ele>
        <time>1970-01-01T02:48:28.000Z</time>
      </trkpt>
      <trkpt lat="40.405741" lon="-3.350765">
        <ele>657.6</ele>
        <time>1970-01-01T02:48:29.000Z</time>
      </trkpt>
      <trkpt lat="40.405742" lon="-3.350722">
        <ele>657.6</ele>
        <time>1970-01-01T02:48:30.000Z</time>
      </trkpt>
      <trkpt lat="40.405744" lon="-3.350678">
        <ele>657.6</ele>
        <time>1970-01-01T02:48:31.000Z</time>
      </trkpt>
      <trkpt lat="40.405746" lon="-3.350636">
        <ele>657.8</ele>
        <time>1970-01-01T02:48:32.000Z</time>
      </trkpt>
      <trkpt lat="40.405747" lon="-3.350594">
        <ele>657.8</ele>
        <time>1970-01-01T02:48:33.000Z</time>
      </trkpt>
      <trkpt lat="40.405747" lon="-3.350552">
        <ele>658</ele>
        <time>1970-01-01T02:48:34.000Z</time>
      </trkpt>
      <trkpt lat="40.405746" lon="-3.35051">
        <ele>658.4</ele>
        <time>1970-01-01T02:48:35.000Z</time>
      </trkpt>
      <trkpt lat="40.405747" lon="-3.350468">
        <ele>658.6</ele>
        <time>1970-01-01T02:48:36.000Z</time>
      </trkpt>
      <trkpt lat="40.405745" lon="-3.350424">
        <ele>659</ele>
        <time>1970-01-01T02:48:37.000Z</time>
      </trkpt>
      <trkpt lat="40.405743" lon="-3.350381">
        <ele>659</ele>
        <time>1970-01-01T02:48:38.000Z</time>
      </trkpt>
      <trkpt lat="40.405742" lon="-3.350338">
        <ele>659.4</ele>
        <time>1970-01-01T02:48:39.000Z</time>
      </trkpt>
      <trkpt lat="40.40574" lon="-3.350294">
        <ele>659.6</ele>
        <time>1970-01-01T02:48:40.000Z</time>
      </trkpt>
      <trkpt lat="40.405738" lon="-3.35025">
        <ele>659.8</ele>
        <time>1970-01-01T02:48:41.000Z</time>
      </trkpt>
      <trkpt lat="40.405735" lon="-3.350206">
        <ele>660</ele>
        <time>1970-01-01T02:48:42.000Z</time>
      </trkpt>
      <trkpt lat="40.405732" lon="-3.350161">
        <ele>660</ele>
        <time>1970-01-01T02:48:43.000Z</time>
      </trkpt>
      <trkpt lat="40.405729" lon="-3.350116">
        <ele>660.2</ele>
        <time>1970-01-01T02:48:44.000Z</time>
      </trkpt>
      <trkpt lat="40.405725" lon="-3.350071">
        <ele>660.2</ele>
        <time>1970-01-01T02:48:45.000Z</time>
      </trkpt>
      <trkpt lat="40.405722" lon="-3.350016">
        <ele>660.4</ele>
        <time>1970-01-01T02:48:46.000Z</time>
      </trkpt>
      <trkpt lat="40.405717" lon="-3.349979">
        <ele>660.6</ele>
        <time>1970-01-01T02:48:47.000Z</time>
      </trkpt>
      <trkpt lat="40.405711" lon="-3.349932">
        <ele>660.8</ele>
        <time>1970-01-01T02:48:48.000Z</time>
      </trkpt>
      <trkpt lat="40.405705" lon="-3.349884">
        <ele>660.8</ele>
        <time>1970-01-01T02:48:49.000Z</time>
      </trkpt>
      <trkpt lat="40.405698" lon="-3.349839">
        <ele>661</ele>
        <time>1970-01-01T02:48:50.000Z</time>
      </trkpt>
      <trkpt lat="40.405692" lon="-3.349793">
        <ele>661</ele>
        <time>1970-01-01T02:48:51.000Z</time>
      </trkpt>
      <trkpt lat="40.405684" lon="-3.349746">
        <ele>661.2</ele>
        <time>1970-01-01T02:48:52.000Z</time>
      </trkpt>
      <trkpt lat="40.405676" lon="-3.349702">
        <ele>661.4</ele>
        <time>1970-01-01T02:48:53.000Z</time>
      </trkpt>
      <trkpt lat="40.405664" lon="-3.349661">
        <ele>661.6</ele>
        <time>1970-01-01T02:48:54.000Z</time>
      </trkpt>
      <trkpt lat="40.405652" lon="-3.349622">
        <ele>662</ele>
        <time>1970-01-01T02:48:55.000Z</time>
      </trkpt>
      <trkpt lat="40.405639" lon="-3.349577">
        <ele>662.2</ele>
        <time>1970-01-01T02:48:56.000Z</time>
      </trkpt>
      <trkpt lat="40.405634" lon="-3.349549">
        <ele>662.6</ele>
        <time>1970-01-01T02:48:57.000Z</time>
      </trkpt>
      <trkpt lat="40.40563" lon="-3.349515">
        <ele>662.4</ele>
        <time>1970-01-01T02:48:58.000Z</time>
      </trkpt>
      <trkpt lat="40.405624" lon="-3.349482">
        <ele>662.6</ele>
        <time>1970-01-01T02:48:59.000Z</time>
      </trkpt>
      <trkpt lat="40.405619" lon="-3.349449">
        <ele>662.8</ele>
        <time>1970-01-01T02:49:00.000Z</time>
      </trkpt>
      <trkpt lat="40.405613" lon="-3.349408">
        <ele>663</ele>
        <time>1970-01-01T02:49:01.000Z</time>
      </trkpt>
      <trkpt lat="40.405608" lon="-3.349382">
        <ele>663.2</ele>
        <time>1970-01-01T02:49:02.000Z</time>
      </trkpt>
      <trkpt lat="40.4056" lon="-3.349348">
        <ele>663.4</ele>
        <time>1970-01-01T02:49:03.000Z</time>
      </trkpt>
      <trkpt lat="40.405592" lon="-3.349307">
        <ele>663.6</ele>
        <time>1970-01-01T02:49:04.000Z</time>
      </trkpt>
      <trkpt lat="40.405588" lon="-3.349281">
        <ele>663.8</ele>
        <time>1970-01-01T02:49:05.000Z</time>
      </trkpt>
      <trkpt lat="40.405583" lon="-3.349249">
        <ele>664</ele>
        <time>1970-01-01T02:49:06.000Z</time>
      </trkpt>
      <trkpt lat="40.405577" lon="-3.349218">
        <ele>664.4</ele>
        <time>1970-01-01T02:49:07.000Z</time>
      </trkpt>
      <trkpt lat="40.405571" lon="-3.349185">
        <ele>664.6</ele>
        <time>1970-01-01T02:49:08.000Z</time>
      </trkpt>
      <trkpt lat="40.405563" lon="-3.349149">
        <ele>664.8</ele>
        <time>1970-01-01T02:49:09.000Z</time>
      </trkpt>
      <trkpt lat="40.405558" lon="-3.349118">
        <ele>665</ele>
        <time>1970-01-01T02:49:10.000Z</time>
      </trkpt>
      <trkpt lat="40.40555" lon="-3.349077">
        <ele>665.4</ele>
        <time>1970-01-01T02:49:11.000Z</time>
      </trkpt>
      <trkpt lat="40.405547" lon="-3.349053">
        <ele>665.6</ele>
        <time>1970-01-01T02:49:12.000Z</time>
      </trkpt>
      <trkpt lat="40.405542" lon="-3.349021">
        <ele>666</ele>
        <time>1970-01-01T02:49:13.000Z</time>
      </trkpt>
      <trkpt lat="40.405536" lon="-3.348984">
        <ele>666.4</ele>
        <time>1970-01-01T02:49:14.000Z</time>
      </trkpt>
      <trkpt lat="40.405532" lon="-3.348961">
        <ele>666.4</ele>
        <time>1970-01-01T02:49:15.000Z</time>
      </trkpt>
      <trkpt lat="40.405527" lon="-3.348927">
        <ele>666.8</ele>
        <time>1970-01-01T02:49:16.000Z</time>
      </trkpt>
      <trkpt lat="40.405526" lon="-3.348903">
        <ele>667</ele>
        <time>1970-01-01T02:49:17.000Z</time>
      </trkpt>
      <trkpt lat="40.405522" lon="-3.348874">
        <ele>667</ele>
        <time>1970-01-01T02:49:18.000Z</time>
      </trkpt>
      <trkpt lat="40.405517" lon="-3.34884">
        <ele>667.4</ele>
        <time>1970-01-01T02:49:19.000Z</time>
      </trkpt>
      <trkpt lat="40.405514" lon="-3.348819">
        <ele>667.6</ele>
        <time>1970-01-01T02:49:20.000Z</time>
      </trkpt>
      <trkpt lat="40.405509" lon="-3.348789">
        <ele>667.8</ele>
        <time>1970-01-01T02:49:21.000Z</time>
      </trkpt>
      <trkpt lat="40.405505" lon="-3.34877">
        <ele>668</ele>
        <time>1970-01-01T02:49:22.000Z</time>
      </trkpt>
      <trkpt lat="40.405501" lon="-3.348744">
        <ele>668.2</ele>
        <time>1970-01-01T02:49:23.000Z</time>
      </trkpt>
      <trkpt lat="40.405498" lon="-3.348718">
        <ele>668.6</ele>
        <time>1970-01-01T02:49:24.000Z</time>
      </trkpt>
      <trkpt lat="40.405494" lon="-3.348687">
        <ele>668.8</ele>
        <time>1970-01-01T02:49:25.000Z</time>
      </trkpt>
      <trkpt lat="40.40549" lon="-3.348659">
        <ele>669</ele>
        <time>1970-01-01T02:49:26.000Z</time>
      </trkpt>
      <trkpt lat="40.405488" lon="-3.348638">
        <ele>669.2</ele>
        <time>1970-01-01T02:49:27.000Z</time>
      </trkpt>
      <trkpt lat="40.405483" lon="-3.348611">
        <ele>669.2</ele>
        <time>1970-01-01T02:49:28.000Z</time>
      </trkpt>
      <trkpt lat="40.405476" lon="-3.348575">
        <ele>669.6</ele>
        <time>1970-01-01T02:49:29.000Z</time>
      </trkpt>
      <trkpt lat="40.405473" lon="-3.348551">
        <ele>670</ele>
        <time>1970-01-01T02:49:30.000Z</time>
      </trkpt>
      <trkpt lat="40.405471" lon="-3.34852">
        <ele>670.2</ele>
        <time>1970-01-01T02:49:31.000Z</time>
      </trkpt>
      <trkpt lat="40.405469" lon="-3.348492">
        <ele>670.4</ele>
        <time>1970-01-01T02:49:32.000Z</time>
      </trkpt>
      <trkpt lat="40.405468" lon="-3.348465">
        <ele>670.4</ele>
        <time>1970-01-01T02:49:33.000Z</time>
      </trkpt>
      <trkpt lat="40.405468" lon="-3.348438">
        <ele>670.6</ele>
        <time>1970-01-01T02:49:34.000Z</time>
      </trkpt>
      <trkpt lat="40.405466" lon="-3.348405">
        <ele>670.8</ele>
        <time>1970-01-01T02:49:35.000Z</time>
      </trkpt>
      <trkpt lat="40.405462" lon="-3.348384">
        <ele>671.2</ele>
        <time>1970-01-01T02:49:36.000Z</time>
      </trkpt>
      <trkpt lat="40.405459" lon="-3.348356">
        <ele>671.4</ele>
        <time>1970-01-01T02:49:37.000Z</time>
      </trkpt>
      <trkpt lat="40.405455" lon="-3.348329">
        <ele>671.6</ele>
        <time>1970-01-01T02:49:38.000Z</time>
      </trkpt>
      <trkpt lat="40.405447" lon="-3.348294">
        <ele>671.8</ele>
        <time>1970-01-01T02:49:39.000Z</time>
      </trkpt>
      <trkpt lat="40.405443" lon="-3.348269">
        <ele>672</ele>
        <time>1970-01-01T02:49:40.000Z</time>
      </trkpt>
      <trkpt lat="40.40544" lon="-3.34825">
        <ele>672.4</ele>
        <time>1970-01-01T02:49:41.000Z</time>
      </trkpt>
      <trkpt lat="40.405435" lon="-3.348225">
        <ele>672.6</ele>
        <time>1970-01-01T02:49:42.000Z</time>
      </trkpt>
      <trkpt lat="40.40543" lon="-3.348196">
        <ele>673.2</ele>
        <time>1970-01-01T02:49:43.000Z</time>
      </trkpt>
      <trkpt lat="40.405428" lon="-3.348173">
        <ele>673.4</ele>
        <time>1970-01-01T02:49:44.000Z</time>
      </trkpt>
      <trkpt lat="40.405426" lon="-3.348152">
        <ele>673.6</ele>
        <time>1970-01-01T02:49:45.000Z</time>
      </trkpt>
      <trkpt lat="40.405425" lon="-3.348135">
        <ele>674</ele>
        <time>1970-01-01T02:49:46.000Z</time>
      </trkpt>
      <trkpt lat="40.405422" lon="-3.348112">
        <ele>674</ele>
        <time>1970-01-01T02:49:47.000Z</time>
      </trkpt>
      <trkpt lat="40.405417" lon="-3.348085">
        <ele>674.2</ele>
        <time>1970-01-01T02:49:48.000Z</time>
      </trkpt>
      <trkpt lat="40.405417" lon="-3.348066">
        <ele>674.4</ele>
        <time>1970-01-01T02:49:49.000Z</time>
      </trkpt>
      <trkpt lat="40.405417" lon="-3.348041">
        <ele>674.6</ele>
        <time>1970-01-01T02:49:50.000Z</time>
      </trkpt>
      <trkpt lat="40.405416" lon="-3.348015">
        <ele>674.6</ele>
        <time>1970-01-01T02:49:51.000Z</time>
      </trkpt>
      <trkpt lat="40.405414" lon="-3.347988">
        <ele>674.8</ele>
        <time>1970-01-01T02:49:52.000Z</time>
      </trkpt>
      <trkpt lat="40.40541" lon="-3.347955">
        <ele>675</ele>
        <time>1970-01-01T02:49:53.000Z</time>
      </trkpt>
      <trkpt lat="40.405407" lon="-3.347932">
        <ele>675.2</ele>
        <time>1970-01-01T02:49:54.000Z</time>
      </trkpt>
      <trkpt lat="40.405405" lon="-3.347898">
        <ele>675.2</ele>
        <time>1970-01-01T02:49:55.000Z</time>
      </trkpt>
      <trkpt lat="40.405405" lon="-3.347875">
        <ele>675.4</ele>
        <time>1970-01-01T02:49:56.000Z</time>
      </trkpt>
      <trkpt lat="40.405405" lon="-3.347846">
        <ele>675.4</ele>
        <time>1970-01-01T02:49:57.000Z</time>
      </trkpt>
      <trkpt lat="40.405406" lon="-3.34781">
        <ele>675.6</ele>
        <time>1970-01-01T02:49:58.000Z</time>
      </trkpt>
      <trkpt lat="40.405406" lon="-3.347777">
        <ele>675.6</ele>
        <time>1970-01-01T02:49:59.000Z</time>
      </trkpt>
      <trkpt lat="40.405407" lon="-3.347746">
        <ele>675.8</ele>
        <time>1970-01-01T02:50:00.000Z</time>
      </trkpt>
      <trkpt lat="40.405407" lon="-3.34772">
        <ele>676</ele>
        <time>1970-01-01T02:50:01.000Z</time>
      </trkpt>
      <trkpt lat="40.405408" lon="-3.347689">
        <ele>676</ele>
        <time>1970-01-01T02:50:02.000Z</time>
      </trkpt>
      <trkpt lat="40.405408" lon="-3.34765">
        <ele>676.2</ele>
        <time>1970-01-01T02:50:03.000Z</time>
      </trkpt>
      <trkpt lat="40.405409" lon="-3.34762">
        <ele>676.4</ele>
        <time>1970-01-01T02:50:04.000Z</time>
      </trkpt>
      <trkpt lat="40.405409" lon="-3.347589">
        <ele>676.4</ele>
        <time>1970-01-01T02:50:05.000Z</time>
      </trkpt>
      <trkpt lat="40.40541" lon="-3.347565">
        <ele>676.6</ele>
        <time>1970-01-01T02:50:06.000Z</time>
      </trkpt>
      <trkpt lat="40.405413" lon="-3.347536">
        <ele>676.6</ele>
        <time>1970-01-01T02:50:07.000Z</time>
      </trkpt>
      <trkpt lat="40.405415" lon="-3.347503">
        <ele>676.8</ele>
        <time>1970-01-01T02:50:08.000Z</time>
      </trkpt>
      <trkpt lat="40.405417" lon="-3.34748">
        <ele>676.8</ele>
        <time>1970-01-01T02:50:09.000Z</time>
      </trkpt>
      <trkpt lat="40.405419" lon="-3.347451">
        <ele>677</ele>
        <time>1970-01-01T02:50:10.000Z</time>
      </trkpt>
      <trkpt lat="40.405421" lon="-3.347423">
        <ele>677</ele>
        <time>1970-01-01T02:50:11.000Z</time>
      </trkpt>
      <trkpt lat="40.405423" lon="-3.347394">
        <ele>677.2</ele>
        <time>1970-01-01T02:50:12.000Z</time>
      </trkpt>
      <trkpt lat="40.405427" lon="-3.347359">
        <ele>677.2</ele>
        <time>1970-01-01T02:50:13.000Z</time>
      </trkpt>
      <trkpt lat="40.405427" lon="-3.347331">
        <ele>677.2</ele>
        <time>1970-01-01T02:50:14.000Z</time>
      </trkpt>
      <trkpt lat="40.405424" lon="-3.347309">
        <ele>677.4</ele>
        <time>1970-01-01T02:50:15.000Z</time>
      </trkpt>
      <trkpt lat="40.405424" lon="-3.347282">
        <ele>677.6</ele>
        <time>1970-01-01T02:50:16.000Z</time>
      </trkpt>
      <trkpt lat="40.405422" lon="-3.347253">
        <ele>677.8</ele>
        <time>1970-01-01T02:50:17.000Z</time>
      </trkpt>
      <trkpt lat="40.405419" lon="-3.347226">
        <ele>678</ele>
        <time>1970-01-01T02:50:18.000Z</time>
      </trkpt>
      <trkpt lat="40.405415" lon="-3.347191">
        <ele>678.2</ele>
        <time>1970-01-01T02:50:19.000Z</time>
      </trkpt>
      <trkpt lat="40.405413" lon="-3.347168">
        <ele>678.4</ele>
        <time>1970-01-01T02:50:20.000Z</time>
      </trkpt>
      <trkpt lat="40.405409" lon="-3.34714">
        <ele>678.4</ele>
        <time>1970-01-01T02:50:21.000Z</time>
      </trkpt>
      <trkpt lat="40.405403" lon="-3.347104">
        <ele>678.6</ele>
        <time>1970-01-01T02:50:22.000Z</time>
      </trkpt>
      <trkpt lat="40.405396" lon="-3.347074">
        <ele>678.6</ele>
        <time>1970-01-01T02:50:23.000Z</time>
      </trkpt>
      <trkpt lat="40.405386" lon="-3.347048">
        <ele>678.8</ele>
        <time>1970-01-01T02:50:24.000Z</time>
      </trkpt>
      <trkpt lat="40.405379" lon="-3.347027">
        <ele>678.8</ele>
        <time>1970-01-01T02:50:25.000Z</time>
      </trkpt>
      <trkpt lat="40.405369" lon="-3.346999">
        <ele>679</ele>
        <time>1970-01-01T02:50:26.000Z</time>
      </trkpt>
      <trkpt lat="40.405363" lon="-3.346966">
        <ele>679.2</ele>
        <time>1970-01-01T02:50:27.000Z</time>
      </trkpt>
      <trkpt lat="40.405359" lon="-3.346939">
        <ele>679.4</ele>
        <time>1970-01-01T02:50:28.000Z</time>
      </trkpt>
      <trkpt lat="40.405355" lon="-3.346911">
        <ele>679.8</ele>
        <time>1970-01-01T02:50:29.000Z</time>
      </trkpt>
      <trkpt lat="40.405352" lon="-3.346886">
        <ele>680</ele>
        <time>1970-01-01T02:50:30.000Z</time>
      </trkpt>
      <trkpt lat="40.405347" lon="-3.346858">
        <ele>680</ele>
        <time>1970-01-01T02:50:31.000Z</time>
      </trkpt>
      <trkpt lat="40.405345" lon="-3.34683">
        <ele>680.2</ele>
        <time>1970-01-01T02:50:32.000Z</time>
      </trkpt>
      <trkpt lat="40.405342" lon="-3.346803">
        <ele>680.2</ele>
        <time>1970-01-01T02:50:33.000Z</time>
      </trkpt>
      <trkpt lat="40.405338" lon="-3.346776">
        <ele>680.6</ele>
        <time>1970-01-01T02:50:34.000Z</time>
      </trkpt>
      <trkpt lat="40.405338" lon="-3.346748">
        <ele>680.8</ele>
        <time>1970-01-01T02:50:35.000Z</time>
      </trkpt>
      <trkpt lat="40.405337" lon="-3.346723">
        <ele>681</ele>
        <time>1970-01-01T02:50:36.000Z</time>
      </trkpt>
      <trkpt lat="40.405337" lon="-3.346693">
        <ele>681</ele>
        <time>1970-01-01T02:50:37.000Z</time>
      </trkpt>
      <trkpt lat="40.405334" lon="-3.346667">
        <ele>681</ele>
        <time>1970-01-01T02:50:38.000Z</time>
      </trkpt>
      <trkpt lat="40.405333" lon="-3.346643">
        <ele>681.2</ele>
        <time>1970-01-01T02:50:39.000Z</time>
      </trkpt>
      <trkpt lat="40.405334" lon="-3.346623">
        <ele>681.4</ele>
        <time>1970-01-01T02:50:40.000Z</time>
      </trkpt>
      <trkpt lat="40.405333" lon="-3.346597">
        <ele>681.6</ele>
        <time>1970-01-01T02:50:41.000Z</time>
      </trkpt>
      <trkpt lat="40.405332" lon="-3.346571">
        <ele>681.8</ele>
        <time>1970-01-01T02:50:42.000Z</time>
      </trkpt>
      <trkpt lat="40.405329" lon="-3.346544">
        <ele>683</ele>
        <time>1970-01-01T02:50:43.000Z</time>
      </trkpt>
      <trkpt lat="40.405328" lon="-3.346517">
        <ele>683.4</ele>
        <time>1970-01-01T02:50:44.000Z</time>
      </trkpt>
      <trkpt lat="40.405329" lon="-3.346491">
        <ele>683.8</ele>
        <time>1970-01-01T02:50:45.000Z</time>
      </trkpt>
      <trkpt lat="40.405329" lon="-3.346466">
        <ele>684</ele>
        <time>1970-01-01T02:50:46.000Z</time>
      </trkpt>
      <trkpt lat="40.405329" lon="-3.346441">
        <ele>684.2</ele>
        <time>1970-01-01T02:50:47.000Z</time>
      </trkpt>
      <trkpt lat="40.405328" lon="-3.346417">
        <ele>684.2</ele>
        <time>1970-01-01T02:50:48.000Z</time>
      </trkpt>
      <trkpt lat="40.405328" lon="-3.346394">
        <ele>684.4</ele>
        <time>1970-01-01T02:50:49.000Z</time>
      </trkpt>
      <trkpt lat="40.405328" lon="-3.346371">
        <ele>684.4</ele>
        <time>1970-01-01T02:50:50.000Z</time>
      </trkpt>
      <trkpt lat="40.405329" lon="-3.346348">
        <ele>684.4</ele>
        <time>1970-01-01T02:50:51.000Z</time>
      </trkpt>
      <trkpt lat="40.40533" lon="-3.346326">
        <ele>684.4</ele>
        <time>1970-01-01T02:50:52.000Z</time>
      </trkpt>
      <trkpt lat="40.405329" lon="-3.346301">
        <ele>684.4</ele>
        <time>1970-01-01T02:50:53.000Z</time>
      </trkpt>
      <trkpt lat="40.405328" lon="-3.346272">
        <ele>684.6</ele>
        <time>1970-01-01T02:50:54.000Z</time>
      </trkpt>
      <trkpt lat="40.405326" lon="-3.346243">
        <ele>684.6</ele>
        <time>1970-01-01T02:50:55.000Z</time>
      </trkpt>
      <trkpt lat="40.405325" lon="-3.346213">
        <ele>684.6</ele>
        <time>1970-01-01T02:50:56.000Z</time>
      </trkpt>
      <trkpt lat="40.405324" lon="-3.346176">
        <ele>684.8</ele>
        <time>1970-01-01T02:50:57.000Z</time>
      </trkpt>
      <trkpt lat="40.405324" lon="-3.346146">
        <ele>684.8</ele>
        <time>1970-01-01T02:50:58.000Z</time>
      </trkpt>
      <trkpt lat="40.405322" lon="-3.346116">
        <ele>685.2</ele>
        <time>1970-01-01T02:50:59.000Z</time>
      </trkpt>
      <trkpt lat="40.405319" lon="-3.346089">
        <ele>685.2</ele>
        <time>1970-01-01T02:51:00.000Z</time>
      </trkpt>
      <trkpt lat="40.405316" lon="-3.346059">
        <ele>685.6</ele>
        <time>1970-01-01T02:51:01.000Z</time>
      </trkpt>
      <trkpt lat="40.405314" lon="-3.34603">
        <ele>685.8</ele>
        <time>1970-01-01T02:51:02.000Z</time>
      </trkpt>
      <trkpt lat="40.405313" lon="-3.346002">
        <ele>685.8</ele>
        <time>1970-01-01T02:51:03.000Z</time>
      </trkpt>
      <trkpt lat="40.405311" lon="-3.345976">
        <ele>686</ele>
        <time>1970-01-01T02:51:04.000Z</time>
      </trkpt>
      <trkpt lat="40.405308" lon="-3.345951">
        <ele>686.2</ele>
        <time>1970-01-01T02:51:05.000Z</time>
      </trkpt>
      <trkpt lat="40.405305" lon="-3.345925">
        <ele>686.4</ele>
        <time>1970-01-01T02:51:06.000Z</time>
      </trkpt>
      <trkpt lat="40.4053" lon="-3.345897">
        <ele>686.6</ele>
        <time>1970-01-01T02:51:07.000Z</time>
      </trkpt>
      <trkpt lat="40.405296" lon="-3.34587">
        <ele>686.6</ele>
        <time>1970-01-01T02:51:08.000Z</time>
      </trkpt>
      <trkpt lat="40.405293" lon="-3.345843">
        <ele>687</ele>
        <time>1970-01-01T02:51:09.000Z</time>
      </trkpt>
      <trkpt lat="40.405292" lon="-3.345818">
        <ele>687.2</ele>
        <time>1970-01-01T02:51:10.000Z</time>
      </trkpt>
      <trkpt lat="40.40529" lon="-3.345795">
        <ele>687.4</ele>
        <time>1970-01-01T02:51:11.000Z</time>
      </trkpt>
      <trkpt lat="40.405288" lon="-3.345767">
        <ele>687.4</ele>
        <time>1970-01-01T02:51:12.000Z</time>
      </trkpt>
      <trkpt lat="40.405285" lon="-3.345742">
        <ele>687.6</ele>
        <time>1970-01-01T02:51:13.000Z</time>
      </trkpt>
      <trkpt lat="40.405281" lon="-3.345716">
        <ele>687.8</ele>
        <time>1970-01-01T02:51:14.000Z</time>
      </trkpt>
      <trkpt lat="40.405276" lon="-3.345695">
        <ele>688.2</ele>
        <time>1970-01-01T02:51:15.000Z</time>
      </trkpt>
      <trkpt lat="40.40527" lon="-3.345669">
        <ele>688.4</ele>
        <time>1970-01-01T02:51:16.000Z</time>
      </trkpt>
      <trkpt lat="40.405266" lon="-3.345644">
        <ele>688.6</ele>
        <time>1970-01-01T02:51:17.000Z</time>
      </trkpt>
      <trkpt lat="40.405262" lon="-3.34562">
        <ele>689</ele>
        <time>1970-01-01T02:51:18.000Z</time>
      </trkpt>
      <trkpt lat="40.405257" lon="-3.345597">
        <ele>689</ele>
        <time>1970-01-01T02:51:19.000Z</time>
      </trkpt>
      <trkpt lat="40.405252" lon="-3.345574">
        <ele>689.2</ele>
        <time>1970-01-01T02:51:20.000Z</time>
      </trkpt>
      <trkpt lat="40.405248" lon="-3.345551">
        <ele>689.4</ele>
        <time>1970-01-01T02:51:21.000Z</time>
      </trkpt>
      <trkpt lat="40.405245" lon="-3.345531">
        <ele>689.8</ele>
        <time>1970-01-01T02:51:22.000Z</time>
      </trkpt>
      <trkpt lat="40.405246" lon="-3.345513">
        <ele>690</ele>
        <time>1970-01-01T02:51:23.000Z</time>
      </trkpt>
      <trkpt lat="40.405244" lon="-3.345495">
        <ele>690.2</ele>
        <time>1970-01-01T02:51:24.000Z</time>
      </trkpt>
      <trkpt lat="40.405239" lon="-3.345476">
        <ele>690.6</ele>
        <time>1970-01-01T02:51:25.000Z</time>
      </trkpt>
      <trkpt lat="40.405233" lon="-3.345456">
        <ele>690.8</ele>
        <time>1970-01-01T02:51:26.000Z</time>
      </trkpt>
      <trkpt lat="40.405229" lon="-3.345436">
        <ele>691.2</ele>
        <time>1970-01-01T02:51:27.000Z</time>
      </trkpt>
      <trkpt lat="40.405229" lon="-3.345414">
        <ele>691.2</ele>
        <time>1970-01-01T02:51:28.000Z</time>
      </trkpt>
      <trkpt lat="40.405227" lon="-3.345394">
        <ele>691.4</ele>
        <time>1970-01-01T02:51:29.000Z</time>
      </trkpt>
      <trkpt lat="40.405224" lon="-3.345373">
        <ele>691.6</ele>
        <time>1970-01-01T02:51:30.000Z</time>
      </trkpt>
      <trkpt lat="40.405219" lon="-3.345357">
        <ele>692.2</ele>
        <time>1970-01-01T02:51:31.000Z</time>
      </trkpt>
      <trkpt lat="40.405214" lon="-3.345338">
        <ele>692.2</ele>
        <time>1970-01-01T02:51:32.000Z</time>
      </trkpt>
      <trkpt lat="40.40521" lon="-3.345315">
        <ele>692.4</ele>
        <time>1970-01-01T02:51:33.000Z</time>
      </trkpt>
      <trkpt lat="40.405207" lon="-3.345299">
        <ele>692.6</ele>
        <time>1970-01-01T02:51:34.000Z</time>
      </trkpt>
      <trkpt lat="40.405206" lon="-3.345282">
        <ele>692.8</ele>
        <time>1970-01-01T02:51:35.000Z</time>
      </trkpt>
      <trkpt lat="40.405204" lon="-3.345261">
        <ele>693</ele>
        <time>1970-01-01T02:51:36.000Z</time>
      </trkpt>
      <trkpt lat="40.405201" lon="-3.345239">
        <ele>693.2</ele>
        <time>1970-01-01T02:51:37.000Z</time>
      </trkpt>
      <trkpt lat="40.405199" lon="-3.34522">
        <ele>693.4</ele>
        <time>1970-01-01T02:51:38.000Z</time>
      </trkpt>
      <trkpt lat="40.405198" lon="-3.345198">
        <ele>693.6</ele>
        <time>1970-01-01T02:51:39.000Z</time>
      </trkpt>
      <trkpt lat="40.405196" lon="-3.345176">
        <ele>694</ele>
        <time>1970-01-01T02:51:40.000Z</time>
      </trkpt>
      <trkpt lat="40.405194" lon="-3.345157">
        <ele>694.4</ele>
        <time>1970-01-01T02:51:41.000Z</time>
      </trkpt>
      <trkpt lat="40.405194" lon="-3.345137">
        <ele>694.6</ele>
        <time>1970-01-01T02:51:42.000Z</time>
      </trkpt>
      <trkpt lat="40.405193" lon="-3.345116">
        <ele>695</ele>
        <time>1970-01-01T02:51:43.000Z</time>
      </trkpt>
      <trkpt lat="40.405193" lon="-3.345096">
        <ele>695.4</ele>
        <time>1970-01-01T02:51:44.000Z</time>
      </trkpt>
      <trkpt lat="40.405193" lon="-3.345075">
        <ele>695.8</ele>
        <time>1970-01-01T02:51:45.000Z</time>
      </trkpt>
      <trkpt lat="40.405194" lon="-3.345055">
        <ele>696</ele>
        <time>1970-01-01T02:51:46.000Z</time>
      </trkpt>
      <trkpt lat="40.405195" lon="-3.345034">
        <ele>696.2</ele>
        <time>1970-01-01T02:51:47.000Z</time>
      </trkpt>
      <trkpt lat="40.405194" lon="-3.345007">
        <ele>696.4</ele>
        <time>1970-01-01T02:51:48.000Z</time>
      </trkpt>
      <trkpt lat="40.405192" lon="-3.344984">
        <ele>696.6</ele>
        <time>1970-01-01T02:51:49.000Z</time>
      </trkpt>
      <trkpt lat="40.405192" lon="-3.344965">
        <ele>696.8</ele>
        <time>1970-01-01T02:51:50.000Z</time>
      </trkpt>
      <trkpt lat="40.405194" lon="-3.344943">
        <ele>697</ele>
        <time>1970-01-01T02:51:51.000Z</time>
      </trkpt>
      <trkpt lat="40.405195" lon="-3.344921">
        <ele>697.2</ele>
        <time>1970-01-01T02:51:52.000Z</time>
      </trkpt>
      <trkpt lat="40.405195" lon="-3.344897">
        <ele>697.4</ele>
        <time>1970-01-01T02:51:53.000Z</time>
      </trkpt>
      <trkpt lat="40.405193" lon="-3.344873">
        <ele>698</ele>
        <time>1970-01-01T02:51:54.000Z</time>
      </trkpt>
      <trkpt lat="40.40519" lon="-3.344845">
        <ele>698.2</ele>
        <time>1970-01-01T02:51:55.000Z</time>
      </trkpt>
      <trkpt lat="40.405188" lon="-3.344822">
        <ele>698.4</ele>
        <time>1970-01-01T02:51:56.000Z</time>
      </trkpt>
      <trkpt lat="40.405186" lon="-3.344803">
        <ele>698.6</ele>
        <time>1970-01-01T02:51:57.000Z</time>
      </trkpt>
      <trkpt lat="40.405184" lon="-3.344781">
        <ele>698.6</ele>
        <time>1970-01-01T02:51:58.000Z</time>
      </trkpt>
      <trkpt lat="40.405184" lon="-3.344755">
        <ele>699</ele>
        <time>1970-01-01T02:51:59.000Z</time>
      </trkpt>
      <trkpt lat="40.405181" lon="-3.344737">
        <ele>699.2</ele>
        <time>1970-01-01T02:52:00.000Z</time>
      </trkpt>
      <trkpt lat="40.405182" lon="-3.344712">
        <ele>699.6</ele>
        <time>1970-01-01T02:52:01.000Z</time>
      </trkpt>
      <trkpt lat="40.405185" lon="-3.344697">
        <ele>699.8</ele>
        <time>1970-01-01T02:52:02.000Z</time>
      </trkpt>
      <trkpt lat="40.405184" lon="-3.344674">
        <ele>700</ele>
        <time>1970-01-01T02:52:03.000Z</time>
      </trkpt>
      <trkpt lat="40.405184" lon="-3.344653">
        <ele>700.4</ele>
        <time>1970-01-01T02:52:04.000Z</time>
      </trkpt>
      <trkpt lat="40.405184" lon="-3.344631">
        <ele>700.4</ele>
        <time>1970-01-01T02:52:05.000Z</time>
      </trkpt>
      <trkpt lat="40.405184" lon="-3.344609">
        <ele>700.8</ele>
        <time>1970-01-01T02:52:06.000Z</time>
      </trkpt>
      <trkpt lat="40.405183" lon="-3.344588">
        <ele>700.8</ele>
        <time>1970-01-01T02:52:07.000Z</time>
      </trkpt>
      <trkpt lat="40.405185" lon="-3.344567">
        <ele>701.2</ele>
        <time>1970-01-01T02:52:08.000Z</time>
      </trkpt>
      <trkpt lat="40.405187" lon="-3.344544">
        <ele>701.4</ele>
        <time>1970-01-01T02:52:09.000Z</time>
      </trkpt>
      <trkpt lat="40.405187" lon="-3.344521">
        <ele>701.8</ele>
        <time>1970-01-01T02:52:10.000Z</time>
      </trkpt>
      <trkpt lat="40.405187" lon="-3.344498">
        <ele>702.2</ele>
        <time>1970-01-01T02:52:11.000Z</time>
      </trkpt>
      <trkpt lat="40.405189" lon="-3.344475">
        <ele>702.4</ele>
        <time>1970-01-01T02:52:12.000Z</time>
      </trkpt>
      <trkpt lat="40.405191" lon="-3.344453">
        <ele>702.6</ele>
        <time>1970-01-01T02:52:13.000Z</time>
      </trkpt>
      <trkpt lat="40.405194" lon="-3.344432">
        <ele>702.6</ele>
        <time>1970-01-01T02:52:14.000Z</time>
      </trkpt>
      <trkpt lat="40.405195" lon="-3.344418">
        <ele>702.8</ele>
        <time>1970-01-01T02:52:15.000Z</time>
      </trkpt>
      <trkpt lat="40.405193" lon="-3.344407">
        <ele>703</ele>
        <time>1970-01-01T02:52:16.000Z</time>
      </trkpt>
      <trkpt lat="40.405191" lon="-3.344397">
        <ele>703.2</ele>
        <time>1970-01-01T02:52:17.000Z</time>
      </trkpt>
      <trkpt lat="40.405188" lon="-3.344385">
        <ele>703.2</ele>
        <time>1970-01-01T02:52:18.000Z</time>
      </trkpt>
      <trkpt lat="40.405184" lon="-3.344374">
        <ele>703.6</ele>
        <time>1970-01-01T02:52:19.000Z</time>
      </trkpt>
      <trkpt lat="40.405176" lon="-3.344364">
        <ele>703.8</ele>
        <time>1970-01-01T02:52:20.000Z</time>
      </trkpt>
      <trkpt lat="40.405163" lon="-3.34436">
        <ele>704</ele>
        <time>1970-01-01T02:52:21.000Z</time>
      </trkpt>
      <trkpt lat="40.405149" lon="-3.34436">
        <ele>704</ele>
        <time>1970-01-01T02:52:22.000Z</time>
      </trkpt>
      <trkpt lat="40.405142" lon="-3.34436">
        <ele>704</ele>
        <time>1970-01-01T02:52:23.000Z</time>
      </trkpt>
      <trkpt lat="40.405132" lon="-3.344361">
        <ele>704.2</ele>
        <time>1970-01-01T02:52:24.000Z</time>
      </trkpt>
      <trkpt lat="40.405122" lon="-3.34436">
        <ele>704.2</ele>
        <time>1970-01-01T02:52:25.000Z</time>
      </trkpt>
      <trkpt lat="40.405111" lon="-3.34436">
        <ele>704.2</ele>
        <time>1970-01-01T02:52:26.000Z</time>
      </trkpt>
      <trkpt lat="40.405098" lon="-3.344363">
        <ele>704.2</ele>
        <time>1970-01-01T02:52:27.000Z</time>
      </trkpt>
      <trkpt lat="40.405082" lon="-3.344366">
        <ele>704.2</ele>
        <time>1970-01-01T02:52:28.000Z</time>
      </trkpt>
      <trkpt lat="40.405064" lon="-3.344365">
        <ele>704.2</ele>
        <time>1970-01-01T02:52:29.000Z</time>
      </trkpt>
      <trkpt lat="40.405044" lon="-3.344363">
        <ele>704.2</ele>
        <time>1970-01-01T02:52:30.000Z</time>
      </trkpt>
      <trkpt lat="40.405027" lon="-3.344353">
        <ele>704.2</ele>
        <time>1970-01-01T02:52:31.000Z</time>
      </trkpt>
      <trkpt lat="40.405009" lon="-3.344341">
        <ele>704.2</ele>
        <time>1970-01-01T02:52:32.000Z</time>
      </trkpt>
      <trkpt lat="40.404988" lon="-3.344325">
        <ele>704.2</ele>
        <time>1970-01-01T02:52:33.000Z</time>
      </trkpt>
      <trkpt lat="40.404969" lon="-3.344309">
        <ele>704</ele>
        <time>1970-01-01T02:52:34.000Z</time>
      </trkpt>
      <trkpt lat="40.404943" lon="-3.344296">
        <ele>703.8</ele>
        <time>1970-01-01T02:52:35.000Z</time>
      </trkpt>
      <trkpt lat="40.404907" lon="-3.344283">
        <ele>703.6</ele>
        <time>1970-01-01T02:52:36.000Z</time>
      </trkpt>
      <trkpt lat="40.404885" lon="-3.344278">
        <ele>703.6</ele>
        <time>1970-01-01T02:52:37.000Z</time>
      </trkpt>
      <trkpt lat="40.404861" lon="-3.344278">
        <ele>703.2</ele>
        <time>1970-01-01T02:52:38.000Z</time>
      </trkpt>
      <trkpt lat="40.404833" lon="-3.344283">
        <ele>703</ele>
        <time>1970-01-01T02:52:39.000Z</time>
      </trkpt>
      <trkpt lat="40.404798" lon="-3.344292">
        <ele>702.6</ele>
        <time>1970-01-01T02:52:40.000Z</time>
      </trkpt>
      <trkpt lat="40.40476" lon="-3.344308">
        <ele>702.4</ele>
        <time>1970-01-01T02:52:41.000Z</time>
      </trkpt>
      <trkpt lat="40.404731" lon="-3.344323">
        <ele>702</ele>
        <time>1970-01-01T02:52:42.000Z</time>
      </trkpt>
      <trkpt lat="40.404712" lon="-3.344331">
        <ele>701.4</ele>
        <time>1970-01-01T02:52:43.000Z</time>
      </trkpt>
      <trkpt lat="40.404691" lon="-3.344341">
        <ele>701.2</ele>
        <time>1970-01-01T02:52:44.000Z</time>
      </trkpt>
      <trkpt lat="40.404676" lon="-3.344345">
        <ele>700.6</ele>
        <time>1970-01-01T02:52:45.000Z</time>
      </trkpt>
      <trkpt lat="40.404673" lon="-3.344342">
        <ele>700.4</ele>
        <time>1970-01-01T02:52:46.000Z</time>
      </trkpt>
      <trkpt lat="40.404673" lon="-3.344342">
        <ele>700</ele>
        <time>1970-01-01T02:52:47.000Z</time>
      </trkpt>
      <trkpt lat="40.404673" lon="-3.344342">
        <ele>699.8</ele>
        <time>1970-01-01T02:52:48.000Z</time>
      </trkpt>
      <trkpt lat="40.404625" lon="-3.344359">
        <ele>700</ele>
        <time>1970-01-01T02:53:08.000Z</time>
      </trkpt>
      <trkpt lat="40.404605" lon="-3.34438">
        <ele>699.8</ele>
        <time>1970-01-01T02:53:09.000Z</time>
      </trkpt>
      <trkpt lat="40.404584" lon="-3.344404">
        <ele>699.8</ele>
        <time>1970-01-01T02:53:10.000Z</time>
      </trkpt>
      <trkpt lat="40.404569" lon="-3.344418">
        <ele>699.8</ele>
        <time>1970-01-01T02:53:11.000Z</time>
      </trkpt>
      <trkpt lat="40.404545" lon="-3.34443">
        <ele>699.8</ele>
        <time>1970-01-01T02:53:12.000Z</time>
      </trkpt>
      <trkpt lat="40.404514" lon="-3.344435">
        <ele>700</ele>
        <time>1970-01-01T02:53:13.000Z</time>
      </trkpt>
      <trkpt lat="40.404483" lon="-3.344443">
        <ele>699.8</ele>
        <time>1970-01-01T02:53:14.000Z</time>
      </trkpt>
      <trkpt lat="40.404452" lon="-3.344455">
        <ele>699.8</ele>
        <time>1970-01-01T02:53:15.000Z</time>
      </trkpt>
      <trkpt lat="40.404423" lon="-3.34447">
        <ele>699.8</ele>
        <time>1970-01-01T02:53:16.000Z</time>
      </trkpt>
      <trkpt lat="40.404401" lon="-3.344486">
        <ele>700</ele>
        <time>1970-01-01T02:53:17.000Z</time>
      </trkpt>
      <trkpt lat="40.404379" lon="-3.3445">
        <ele>700</ele>
        <time>1970-01-01T02:53:18.000Z</time>
      </trkpt>
      <trkpt lat="40.404362" lon="-3.344509">
        <ele>700.2</ele>
        <time>1970-01-01T02:53:19.000Z</time>
      </trkpt>
      <trkpt lat="40.404347" lon="-3.344517">
        <ele>700.4</ele>
        <time>1970-01-01T02:53:20.000Z</time>
      </trkpt>
      <trkpt lat="40.404335" lon="-3.344527">
        <ele>700.6</ele>
        <time>1970-01-01T02:53:21.000Z</time>
      </trkpt>
      <trkpt lat="40.404326" lon="-3.344535">
        <ele>700.8</ele>
        <time>1970-01-01T02:53:22.000Z</time>
      </trkpt>
      <trkpt lat="40.404319" lon="-3.344541">
        <ele>700.8</ele>
        <time>1970-01-01T02:53:23.000Z</time>
      </trkpt>
      <trkpt lat="40.404313" lon="-3.344546">
        <ele>700.8</ele>
        <time>1970-01-01T02:53:24.000Z</time>
      </trkpt>
      <trkpt lat="40.404306" lon="-3.344547">
        <ele>700.8</ele>
        <time>1970-01-01T02:53:25.000Z</time>
      </trkpt>
      <trkpt lat="40.404297" lon="-3.344552">
        <ele>701</ele>
        <time>1970-01-01T02:53:26.000Z</time>
      </trkpt>
      <trkpt lat="40.404288" lon="-3.344559">
        <ele>700.8</ele>
        <time>1970-01-01T02:53:27.000Z</time>
      </trkpt>
      <trkpt lat="40.404277" lon="-3.344564">
        <ele>700.8</ele>
        <time>1970-01-01T02:53:28.000Z</time>
      </trkpt>
      <trkpt lat="40.404261" lon="-3.344571">
        <ele>700.6</ele>
        <time>1970-01-01T02:53:29.000Z</time>
      </trkpt>
      <trkpt lat="40.40424" lon="-3.344587">
        <ele>700.6</ele>
        <time>1970-01-01T02:53:30.000Z</time>
      </trkpt>
      <trkpt lat="40.404204" lon="-3.344609">
        <ele>700.4</ele>
        <time>1970-01-01T02:53:31.000Z</time>
      </trkpt>
      <trkpt lat="40.40418" lon="-3.344616">
        <ele>700.4</ele>
        <time>1970-01-01T02:53:32.000Z</time>
      </trkpt>
      <trkpt lat="40.404143" lon="-3.344617">
        <ele>700</ele>
        <time>1970-01-01T02:53:33.000Z</time>
      </trkpt>
      <trkpt lat="40.404118" lon="-3.344609">
        <ele>699.8</ele>
        <time>1970-01-01T02:53:34.000Z</time>
      </trkpt>
      <trkpt lat="40.404099" lon="-3.3446">
        <ele>699</ele>
        <time>1970-01-01T02:53:35.000Z</time>
      </trkpt>
      <trkpt lat="40.404083" lon="-3.344588">
        <ele>698</ele>
        <time>1970-01-01T02:53:36.000Z</time>
      </trkpt>
      <trkpt lat="40.404068" lon="-3.344575">
        <ele>697.8</ele>
        <time>1970-01-01T02:53:37.000Z</time>
      </trkpt>
      <trkpt lat="40.404053" lon="-3.344563">
        <ele>697.6</ele>
        <time>1970-01-01T02:53:38.000Z</time>
      </trkpt>
      <trkpt lat="40.404021" lon="-3.344544">
        <ele>697.4</ele>
        <time>1970-01-01T02:53:39.000Z</time>
      </trkpt>
      <trkpt lat="40.404005" lon="-3.344535">
        <ele>697.4</ele>
        <time>1970-01-01T02:53:40.000Z</time>
      </trkpt>
      <trkpt lat="40.403988" lon="-3.344527">
        <ele>697.4</ele>
        <time>1970-01-01T02:53:41.000Z</time>
      </trkpt>
      <trkpt lat="40.403972" lon="-3.344518">
        <ele>697.6</ele>
        <time>1970-01-01T02:53:42.000Z</time>
      </trkpt>
      <trkpt lat="40.403955" lon="-3.34451">
        <ele>697.8</ele>
        <time>1970-01-01T02:53:43.000Z</time>
      </trkpt>
      <trkpt lat="40.403939" lon="-3.344501">
        <ele>698</ele>
        <time>1970-01-01T02:54:05.000Z</time>
      </trkpt>
      <trkpt lat="40.403922" lon="-3.344493">
        <ele>698</ele>
        <time>1970-01-01T02:54:06.000Z</time>
      </trkpt>
      <trkpt lat="40.403894" lon="-3.344464">
        <ele>698</ele>
        <time>1970-01-01T02:54:07.000Z</time>
      </trkpt>
      <trkpt lat="40.403876" lon="-3.344438">
        <ele>697.8</ele>
        <time>1970-01-01T02:54:08.000Z</time>
      </trkpt>
      <trkpt lat="40.403872" lon="-3.344433">
        <ele>697.8</ele>
        <time>1970-01-01T02:54:09.000Z</time>
      </trkpt>
      <trkpt lat="40.40387" lon="-3.344432">
        <ele>697.8</ele>
        <time>1970-01-01T02:54:10.000Z</time>
      </trkpt>
      <trkpt lat="40.403868" lon="-3.344432">
        <ele>697.8</ele>
        <time>1970-01-01T02:54:11.000Z</time>
      </trkpt>
      <trkpt lat="40.403866" lon="-3.344431">
        <ele>697.8</ele>
        <time>1970-01-01T02:54:12.000Z</time>
      </trkpt>
      <trkpt lat="40.403834" lon="-3.344393">
        <ele>698.8</ele>
        <time>1970-01-01T02:54:33.000Z</time>
      </trkpt>
      <trkpt lat="40.403828" lon="-3.344366">
        <ele>698.8</ele>
        <time>1970-01-01T02:54:34.000Z</time>
      </trkpt>
      <trkpt lat="40.403823" lon="-3.344336">
        <ele>698.8</ele>
        <time>1970-01-01T02:54:35.000Z</time>
      </trkpt>
      <trkpt lat="40.403819" lon="-3.344308">
        <ele>699</ele>
        <time>1970-01-01T02:54:36.000Z</time>
      </trkpt>
      <trkpt lat="40.403817" lon="-3.344287">
        <ele>699</ele>
        <time>1970-01-01T02:54:37.000Z</time>
      </trkpt>
      <trkpt lat="40.403816" lon="-3.344263">
        <ele>699</ele>
        <time>1970-01-01T02:54:38.000Z</time>
      </trkpt>
      <trkpt lat="40.403811" lon="-3.344241">
        <ele>699.2</ele>
        <time>1970-01-01T02:54:39.000Z</time>
      </trkpt>
      <trkpt lat="40.403796" lon="-3.344223">
        <ele>699.6</ele>
        <time>1970-01-01T02:54:40.000Z</time>
      </trkpt>
      <trkpt lat="40.403775" lon="-3.344212">
        <ele>699.8</ele>
        <time>1970-01-01T02:54:41.000Z</time>
      </trkpt>
      <trkpt lat="40.403742" lon="-3.344218">
        <ele>700</ele>
        <time>1970-01-01T02:54:42.000Z</time>
      </trkpt>
      <trkpt lat="40.403696" lon="-3.344234">
        <ele>700.2</ele>
        <time>1970-01-01T02:54:43.000Z</time>
      </trkpt>
      <trkpt lat="40.403659" lon="-3.344242">
        <ele>700.2</ele>
        <time>1970-01-01T02:54:44.000Z</time>
      </trkpt>
      <trkpt lat="40.403632" lon="-3.344247">
        <ele>700.4</ele>
        <time>1970-01-01T02:54:45.000Z</time>
      </trkpt>
      <trkpt lat="40.403606" lon="-3.344248">
        <ele>700.4</ele>
        <time>1970-01-01T02:54:46.000Z</time>
      </trkpt>
      <trkpt lat="40.403576" lon="-3.344251">
        <ele>700.6</ele>
        <time>1970-01-01T02:54:47.000Z</time>
      </trkpt>
      <trkpt lat="40.403547" lon="-3.344255">
        <ele>700.6</ele>
        <time>1970-01-01T02:54:48.000Z</time>
      </trkpt>
      <trkpt lat="40.403518" lon="-3.344256">
        <ele>700.6</ele>
        <time>1970-01-01T02:54:49.000Z</time>
      </trkpt>
      <trkpt lat="40.403489" lon="-3.34425">
        <ele>700.6</ele>
        <time>1970-01-01T02:54:50.000Z</time>
      </trkpt>
      <trkpt lat="40.403461" lon="-3.344237">
        <ele>700.6</ele>
        <time>1970-01-01T02:54:51.000Z</time>
      </trkpt>
      <trkpt lat="40.403435" lon="-3.344226">
        <ele>700.8</ele>
        <time>1970-01-01T02:54:52.000Z</time>
      </trkpt>
      <trkpt lat="40.403409" lon="-3.344223">
        <ele>700.8</ele>
        <time>1970-01-01T02:54:53.000Z</time>
      </trkpt>
      <trkpt lat="40.403386" lon="-3.344226">
        <ele>700.8</ele>
        <time>1970-01-01T02:54:54.000Z</time>
      </trkpt>
      <trkpt lat="40.403363" lon="-3.344237">
        <ele>701</ele>
        <time>1970-01-01T02:54:55.000Z</time>
      </trkpt>
      <trkpt lat="40.403338" lon="-3.344255">
        <ele>701</ele>
        <time>1970-01-01T02:54:56.000Z</time>
      </trkpt>
      <trkpt lat="40.403309" lon="-3.344284">
        <ele>701.2</ele>
        <time>1970-01-01T02:54:57.000Z</time>
      </trkpt>
      <trkpt lat="40.403287" lon="-3.344318">
        <ele>701.2</ele>
        <time>1970-01-01T02:54:58.000Z</time>
      </trkpt>
      <trkpt lat="40.403267" lon="-3.344351">
        <ele>701.2</ele>
        <time>1970-01-01T02:54:59.000Z</time>
      </trkpt>
      <trkpt lat="40.403253" lon="-3.344381">
        <ele>701.2</ele>
        <time>1970-01-01T02:55:00.000Z</time>
      </trkpt>
      <trkpt lat="40.403244" lon="-3.344401">
        <ele>701.2</ele>
        <time>1970-01-01T02:55:01.000Z</time>
      </trkpt>
      <trkpt lat="40.403241" lon="-3.344408">
        <ele>701.2</ele>
        <time>1970-01-01T02:55:02.000Z</time>
      </trkpt>
      <trkpt lat="40.403241" lon="-3.344408">
        <ele>701</ele>
        <time>1970-01-01T02:55:03.000Z</time>
      </trkpt>
      <trkpt lat="40.403241" lon="-3.344408">
        <ele>701</ele>
        <time>1970-01-01T02:55:04.000Z</time>
      </trkpt>
      <trkpt lat="40.403211" lon="-3.344447">
        <ele>699.6</ele>
        <time>1970-01-01T02:55:45.000Z</time>
      </trkpt>
      <trkpt lat="40.403189" lon="-3.344473">
        <ele>699.6</ele>
        <time>1970-01-01T02:55:46.000Z</time>
      </trkpt>
      <trkpt lat="40.403162" lon="-3.344509">
        <ele>699.6</ele>
        <time>1970-01-01T02:55:47.000Z</time>
      </trkpt>
      <trkpt lat="40.403135" lon="-3.344553">
        <ele>699.6</ele>
        <time>1970-01-01T02:55:48.000Z</time>
      </trkpt>
      <trkpt lat="40.403109" lon="-3.344612">
        <ele>699.6</ele>
        <time>1970-01-01T02:55:49.000Z</time>
      </trkpt>
      <trkpt lat="40.403092" lon="-3.344661">
        <ele>699.4</ele>
        <time>1970-01-01T02:55:50.000Z</time>
      </trkpt>
      <trkpt lat="40.403066" lon="-3.344719">
        <ele>699.2</ele>
        <time>1970-01-01T02:55:51.000Z</time>
      </trkpt>
      <trkpt lat="40.403027" lon="-3.344763">
        <ele>699</ele>
        <time>1970-01-01T02:55:52.000Z</time>
      </trkpt>
      <trkpt lat="40.402971" lon="-3.344792">
        <ele>698.8</ele>
        <time>1970-01-01T02:55:53.000Z</time>
      </trkpt>
      <trkpt lat="40.402936" lon="-3.344801">
        <ele>698.2</ele>
        <time>1970-01-01T02:55:54.000Z</time>
      </trkpt>
      <trkpt lat="40.402898" lon="-3.344803">
        <ele>698</ele>
        <time>1970-01-01T02:55:55.000Z</time>
      </trkpt>
      <trkpt lat="40.402865" lon="-3.344798">
        <ele>697.6</ele>
        <time>1970-01-01T02:55:56.000Z</time>
      </trkpt>
      <trkpt lat="40.402841" lon="-3.344787">
        <ele>697.6</ele>
        <time>1970-01-01T02:55:57.000Z</time>
      </trkpt>
      <trkpt lat="40.402819" lon="-3.344775">
        <ele>697.4</ele>
        <time>1970-01-01T02:55:58.000Z</time>
      </trkpt>
      <trkpt lat="40.402808" lon="-3.344768">
        <ele>697.4</ele>
        <time>1970-01-01T02:55:59.000Z</time>
      </trkpt>
      <trkpt lat="40.402795" lon="-3.344763">
        <ele>697.4</ele>
        <time>1970-01-01T02:56:00.000Z</time>
      </trkpt>
      <trkpt lat="40.402785" lon="-3.344758">
        <ele>697.2</ele>
        <time>1970-01-01T02:56:01.000Z</time>
      </trkpt>
      <trkpt lat="40.402775" lon="-3.34475">
        <ele>697.2</ele>
        <time>1970-01-01T02:56:02.000Z</time>
      </trkpt>
      <trkpt lat="40.402762" lon="-3.344739">
        <ele>697.2</ele>
        <time>1970-01-01T02:56:03.000Z</time>
      </trkpt>
      <trkpt lat="40.402744" lon="-3.344725">
        <ele>697.2</ele>
        <time>1970-01-01T02:56:04.000Z</time>
      </trkpt>
      <trkpt lat="40.402719" lon="-3.344711">
        <ele>697.4</ele>
        <time>1970-01-01T02:56:05.000Z</time>
      </trkpt>
      <trkpt lat="40.402703" lon="-3.344704">
        <ele>697.4</ele>
        <time>1970-01-01T02:56:06.000Z</time>
      </trkpt>
      <trkpt lat="40.402684" lon="-3.344697">
        <ele>697.4</ele>
        <time>1970-01-01T02:56:07.000Z</time>
      </trkpt>
      <trkpt lat="40.402663" lon="-3.344696">
        <ele>697.6</ele>
        <time>1970-01-01T02:56:08.000Z</time>
      </trkpt>
      <trkpt lat="40.402647" lon="-3.344697">
        <ele>697.6</ele>
        <time>1970-01-01T02:56:09.000Z</time>
      </trkpt>
      <trkpt lat="40.402628" lon="-3.344702">
        <ele>697.6</ele>
        <time>1970-01-01T02:56:10.000Z</time>
      </trkpt>
      <trkpt lat="40.402602" lon="-3.344714">
        <ele>697.6</ele>
        <time>1970-01-01T02:56:11.000Z</time>
      </trkpt>
      <trkpt lat="40.402569" lon="-3.344723">
        <ele>697.6</ele>
        <time>1970-01-01T02:56:12.000Z</time>
      </trkpt>
      <trkpt lat="40.402518" lon="-3.344729">
        <ele>697.6</ele>
        <time>1970-01-01T02:56:13.000Z</time>
      </trkpt>
      <trkpt lat="40.40245" lon="-3.344735">
        <ele>697.6</ele>
        <time>1970-01-01T02:56:14.000Z</time>
      </trkpt>
      <trkpt lat="40.402398" lon="-3.344739">
        <ele>697.6</ele>
        <time>1970-01-01T02:56:15.000Z</time>
      </trkpt>
      <trkpt lat="40.402356" lon="-3.344744">
        <ele>697.6</ele>
        <time>1970-01-01T02:56:16.000Z</time>
      </trkpt>
      <trkpt lat="40.402332" lon="-3.344745">
        <ele>697.6</ele>
        <time>1970-01-01T02:56:17.000Z</time>
      </trkpt>
      <trkpt lat="40.402307" lon="-3.344746">
        <ele>697.8</ele>
        <time>1970-01-01T02:56:18.000Z</time>
      </trkpt>
      <trkpt lat="40.402282" lon="-3.344745">
        <ele>697.8</ele>
        <time>1970-01-01T02:56:19.000Z</time>
      </trkpt>
      <trkpt lat="40.402266" lon="-3.344738">
        <ele>697.8</ele>
        <time>1970-01-01T02:56:20.000Z</time>
      </trkpt>
      <trkpt lat="40.40225" lon="-3.344731">
        <ele>697.8</ele>
        <time>1970-01-01T02:56:21.000Z</time>
      </trkpt>
      <trkpt lat="40.402231" lon="-3.344729">
        <ele>698</ele>
        <time>1970-01-01T02:56:22.000Z</time>
      </trkpt>
      <trkpt lat="40.402214" lon="-3.344725">
        <ele>698</ele>
        <time>1970-01-01T02:56:23.000Z</time>
      </trkpt>
      <trkpt lat="40.402192" lon="-3.344717">
        <ele>698</ele>
        <time>1970-01-01T02:56:24.000Z</time>
      </trkpt>
      <trkpt lat="40.402175" lon="-3.344707">
        <ele>698.2</ele>
        <time>1970-01-01T02:56:25.000Z</time>
      </trkpt>
      <trkpt lat="40.402158" lon="-3.344696">
        <ele>698.2</ele>
        <time>1970-01-01T02:56:26.000Z</time>
      </trkpt>
      <trkpt lat="40.402137" lon="-3.344681">
        <ele>698.4</ele>
        <time>1970-01-01T02:56:27.000Z</time>
      </trkpt>
      <trkpt lat="40.402112" lon="-3.344664">
        <ele>698.6</ele>
        <time>1970-01-01T02:56:28.000Z</time>
      </trkpt>
      <trkpt lat="40.402084" lon="-3.34464">
        <ele>698.8</ele>
        <time>1970-01-01T02:56:29.000Z</time>
      </trkpt>
      <trkpt lat="40.402045" lon="-3.344605">
        <ele>698.8</ele>
        <time>1970-01-01T02:56:30.000Z</time>
      </trkpt>
      <trkpt lat="40.401999" lon="-3.344563">
        <ele>698.8</ele>
        <time>1970-01-01T02:56:31.000Z</time>
      </trkpt>
      <trkpt lat="40.401967" lon="-3.344519">
        <ele>698.8</ele>
        <time>1970-01-01T02:56:32.000Z</time>
      </trkpt>
      <trkpt lat="40.401951" lon="-3.344485">
        <ele>698.8</ele>
        <time>1970-01-01T02:56:33.000Z</time>
      </trkpt>
      <trkpt lat="40.401943" lon="-3.34446">
        <ele>698.8</ele>
        <time>1970-01-01T02:56:34.000Z</time>
      </trkpt>
      <trkpt lat="40.401935" lon="-3.344438">
        <ele>698.8</ele>
        <time>1970-01-01T02:56:35.000Z</time>
      </trkpt>
      <trkpt lat="40.401928" lon="-3.344419">
        <ele>698.8</ele>
        <time>1970-01-01T02:56:36.000Z</time>
      </trkpt>
      <trkpt lat="40.401922" lon="-3.344404">
        <ele>698.8</ele>
        <time>1970-01-01T02:56:37.000Z</time>
      </trkpt>
      <trkpt lat="40.401916" lon="-3.344391">
        <ele>698.8</ele>
        <time>1970-01-01T02:56:38.000Z</time>
      </trkpt>
      <trkpt lat="40.401906" lon="-3.344376">
        <ele>698.8</ele>
        <time>1970-01-01T02:56:39.000Z</time>
      </trkpt>
      <trkpt lat="40.401895" lon="-3.344361">
        <ele>699</ele>
        <time>1970-01-01T02:56:40.000Z</time>
      </trkpt>
      <trkpt lat="40.401879" lon="-3.34435">
        <ele>699.2</ele>
        <time>1970-01-01T02:56:41.000Z</time>
      </trkpt>
      <trkpt lat="40.401861" lon="-3.34434">
        <ele>699.2</ele>
        <time>1970-01-01T02:56:42.000Z</time>
      </trkpt>
      <trkpt lat="40.401844" lon="-3.344329">
        <ele>699.4</ele>
        <time>1970-01-01T02:56:43.000Z</time>
      </trkpt>
      <trkpt lat="40.401827" lon="-3.344318">
        <ele>699.6</ele>
        <time>1970-01-01T02:56:44.000Z</time>
      </trkpt>
      <trkpt lat="40.401811" lon="-3.344306">
        <ele>699.6</ele>
        <time>1970-01-01T02:56:45.000Z</time>
      </trkpt>
      <trkpt lat="40.401796" lon="-3.344295">
        <ele>699.8</ele>
        <time>1970-01-01T02:56:46.000Z</time>
      </trkpt>
      <trkpt lat="40.401782" lon="-3.344285">
        <ele>700</ele>
        <time>1970-01-01T02:56:47.000Z</time>
      </trkpt>
      <trkpt lat="40.40177" lon="-3.344276">
        <ele>700</ele>
        <time>1970-01-01T02:56:48.000Z</time>
      </trkpt>
      <trkpt lat="40.401759" lon="-3.344269">
        <ele>700.2</ele>
        <time>1970-01-01T02:56:49.000Z</time>
      </trkpt>
      <trkpt lat="40.401746" lon="-3.344261">
        <ele>700.2</ele>
        <time>1970-01-01T02:56:50.000Z</time>
      </trkpt>
      <trkpt lat="40.401731" lon="-3.344254">
        <ele>700.4</ele>
        <time>1970-01-01T02:56:51.000Z</time>
      </trkpt>
      <trkpt lat="40.401712" lon="-3.344251">
        <ele>700.6</ele>
        <time>1970-01-01T02:56:52.000Z</time>
      </trkpt>
      <trkpt lat="40.401683" lon="-3.344253">
        <ele>700.6</ele>
        <time>1970-01-01T02:56:53.000Z</time>
      </trkpt>
      <trkpt lat="40.401638" lon="-3.344261">
        <ele>700.6</ele>
        <time>1970-01-01T02:56:54.000Z</time>
      </trkpt>
      <trkpt lat="40.40159" lon="-3.344272">
        <ele>700.6</ele>
        <time>1970-01-01T02:56:55.000Z</time>
      </trkpt>
      <trkpt lat="40.401558" lon="-3.344276">
        <ele>700.8</ele>
        <time>1970-01-01T02:56:56.000Z</time>
      </trkpt>
      <trkpt lat="40.401538" lon="-3.344276">
        <ele>701</ele>
        <time>1970-01-01T02:56:57.000Z</time>
      </trkpt>
      <trkpt lat="40.401522" lon="-3.344273">
        <ele>701</ele>
        <time>1970-01-01T02:56:58.000Z</time>
      </trkpt>
      <trkpt lat="40.401506" lon="-3.344274">
        <ele>701</ele>
        <time>1970-01-01T02:56:59.000Z</time>
      </trkpt>
      <trkpt lat="40.401491" lon="-3.344274">
        <ele>701.2</ele>
        <time>1970-01-01T02:57:00.000Z</time>
      </trkpt>
      <trkpt lat="40.401478" lon="-3.344275">
        <ele>701.2</ele>
        <time>1970-01-01T02:57:01.000Z</time>
      </trkpt>
      <trkpt lat="40.401463" lon="-3.344277">
        <ele>701.4</ele>
        <time>1970-01-01T02:57:02.000Z</time>
      </trkpt>
      <trkpt lat="40.401448" lon="-3.344278">
        <ele>701.4</ele>
        <time>1970-01-01T02:57:03.000Z</time>
      </trkpt>
      <trkpt lat="40.401434" lon="-3.34428">
        <ele>701.6</ele>
        <time>1970-01-01T02:57:04.000Z</time>
      </trkpt>
      <trkpt lat="40.401421" lon="-3.344282">
        <ele>701.6</ele>
        <time>1970-01-01T02:57:05.000Z</time>
      </trkpt>
      <trkpt lat="40.401412" lon="-3.344282">
        <ele>701.8</ele>
        <time>1970-01-01T02:57:06.000Z</time>
      </trkpt>
      <trkpt lat="40.40141" lon="-3.344279">
        <ele>701.8</ele>
        <time>1970-01-01T02:57:07.000Z</time>
      </trkpt>
      <trkpt lat="40.40141" lon="-3.344279">
        <ele>702</ele>
        <time>1970-01-01T02:57:08.000Z</time>
      </trkpt>
      <trkpt lat="40.40093" lon="-3.343862">
        <ele>719</ele>
        <time>1970-01-01T03:00:59.000Z</time>
      </trkpt>
      <trkpt lat="40.400913" lon="-3.343849">
        <ele>719</ele>
        <time>1970-01-01T03:01:00.000Z</time>
      </trkpt>
      <trkpt lat="40.400898" lon="-3.343835">
        <ele>718.8</ele>
        <time>1970-01-01T03:01:01.000Z</time>
      </trkpt>
      <trkpt lat="40.400888" lon="-3.343824">
        <ele>718.4</ele>
        <time>1970-01-01T03:01:02.000Z</time>
      </trkpt>
      <trkpt lat="40.40088" lon="-3.34382">
        <ele>718</ele>
        <time>1970-01-01T03:01:03.000Z</time>
      </trkpt>
      <trkpt lat="40.400877" lon="-3.343819">
        <ele>717.6</ele>
        <time>1970-01-01T03:01:04.000Z</time>
      </trkpt>
      <trkpt lat="40.400877" lon="-3.343819">
        <ele>717.4</ele>
        <time>1970-01-01T03:01:05.000Z</time>
      </trkpt>
      <trkpt lat="40.400877" lon="-3.343819">
        <ele>717</ele>
        <time>1970-01-01T03:01:06.000Z</time>
      </trkpt>
      <trkpt lat="40.400877" lon="-3.343819">
        <ele>717</ele>
        <time>1970-01-01T03:31:10.000Z</time>
      </trkpt>
      <trkpt lat="40.400877" lon="-3.343819">
        <ele>717</ele>
        <time>1970-01-01T03:31:11.000Z</time>
      </trkpt>
      <trkpt lat="40.400877" lon="-3.343819">
        <ele>717</ele>
        <time>1970-01-01T03:31:12.000Z</time>
      </trkpt>
      <trkpt lat="40.400877" lon="-3.343819">
        <ele>717</ele>
        <time>1970-01-01T03:31:13.000Z</time>
      </trkpt>
      <trkpt lat="40.400877" lon="-3.343819">
        <ele>717</ele>
        <time>1970-01-01T03:31:14.000Z</time>
      </trkpt>
      <trkpt lat="40.400877" lon="-3.343819">
        <ele>717</ele>
        <time>1970-01-01T03:31:15.000Z</time>
      </trkpt>
      <trkpt lat="40.400877" lon="-3.343819">
        <ele>717</ele>
        <time>1970-01-01T03:31:16.000Z</time>
      </trkpt>
      <trkpt lat="40.400877" lon="-3.343819">
        <ele>717</ele>
        <time>1970-01-01T03:31:17.000Z</time>
      </trkpt>
      <trkpt lat="40.400877" lon="-3.343819">
        <ele>717</ele>
        <time>1970-01-01T03:31:18.000Z</time>
      </trkpt>
      <trkpt lat="40.400877" lon="-3.343819">
        <ele>717</ele>
        <time>1970-01-01T03:31:19.000Z</time>
      </trkpt>
      <trkpt lat="40.400877" lon="-3.343819">
        <ele>717</ele>
        <time>1970-01-01T03:31:20.000Z</time>
      </trkpt>
      <trkpt lat="40.400877" lon="-3.343819">
        <ele>717</ele>
        <time>1970-01-01T03:31:21.000Z</time>
      </trkpt>
      <trkpt lat="40.400877" lon="-3.343819">
        <ele>717</ele>
        <time>1970-01-01T03:31:22.000Z</time>
      </trkpt>
      <trkpt lat="40.400877" lon="-3.343819">
        <ele>717</ele>
        <time>1970-01-01T03:31:23.000Z</time>
      </trkpt>
      <trkpt lat="40.400877" lon="-3.343819">
        <ele>717</ele>
        <time>1970-01-01T03:31:24.000Z</time>
      </trkpt>
      <trkpt lat="40.400864984840155" lon="-3.34376497194171">
        <ele>721.10000000000002</ele>
        <time>1970-01-01T02:26:19Z</time>
      </trkpt>
      <trkpt lat="40.400864984840155" lon="-3.343756003305316">
        <ele>720.89999999999998</ele>
        <time>1970-01-01T02:26:21Z</time>
      </trkpt>
      <trkpt lat="40.400865990668535" lon="-3.343758014962077">
        <ele>720.89999999999998</ele>
        <time>1970-01-01T02:26:22Z</time>
      </trkpt>
      <trkpt lat="40.400866996496916" lon="-3.343759020790458">
        <ele>720.89999999999998</ele>
        <time>1970-01-01T02:26:23Z</time>
      </trkpt>
      <trkpt lat="40.400866996496916" lon="-3.343752985820174">
        <ele>720.79999999999995</ele>
        <time>1970-01-01T02:26:25Z</time>
      </trkpt>
      <trkpt lat="40.400864984840155" lon="-3.343751979991794">
        <ele>720.79999999999995</ele>
        <time>1970-01-01T02:26:26Z</time>
      </trkpt>
      <trkpt lat="40.400862973183393" lon="-3.343749968335033">
        <ele>720.70000000000005</ele>
        <time>1970-01-01T02:26:27Z</time>
      </trkpt>
      <trkpt lat="40.400854004547" lon="-3.343744017183781">
        <ele>720.5</ele>
        <time>1970-01-01T02:26:29Z</time>
      </trkpt>
      <trkpt lat="40.400845035910606" lon="-3.343738988041878">
        <ele>720.29999999999995</ele>
        <time>1970-01-01T02:26:31Z</time>
      </trkpt>
      <trkpt lat="40.400835983455181" lon="-3.343733958899975">
        <ele>720.10000000000002</ele>
        <time>1970-01-01T02:26:33Z</time>
      </trkpt>
      <trkpt lat="40.400827014818788" lon="-3.343729013577104">
        <ele>720</ele>
        <time>1970-01-01T02:26:34Z</time>
      </trkpt>
      <trkpt lat="40.400817040354013" lon="-3.343724990263581">
        <ele>719.79999999999995</ele>
        <time>1970-01-01T02:26:36Z</time>
      </trkpt>
      <trkpt lat="40.400807987898588" lon="-3.343719961121678">
        <ele>719.60000000000002</ele>
        <time>1970-01-01T02:26:37Z</time>
      </trkpt>
      <trkpt lat="40.400799019262195" lon="-3.343715015798807">
        <ele>719.39999999999998</ele>
        <time>1970-01-01T02:27:38Z</time>
      </trkpt>
      <trkpt lat="40.400789966806769" lon="-3.343709986656904">
        <ele>719.20000000000005</ele>
        <time>1970-01-01T02:27:40Z</time>
      </trkpt>
      <trkpt lat="40.400780998170376" lon="-3.343705041334033">
        <ele>719</ele>
        <time>1970-01-01T02:27:41Z</time>
      </trkpt>
      <trkpt lat="40.400746967643499" lon="-3.343690959736705">
        <ele>718.20000000000005</ele>
        <time>1970-01-01T02:27:43Z</time>
      </trkpt>
      <trkpt lat="40.400724001228809" lon="-3.343674028292298">
        <ele>717.70000000000005</ele>
        <time>1970-01-01T02:27:44Z</time>
      </trkpt>
      <trkpt lat="40.400662980973721" lon="-3.343616025522351">
        <ele>716.20000000000005</ele>
        <time>1970-01-01T02:27:46Z</time>
      </trkpt>
      <trkpt lat="40.400599027052522" lon="-3.343518041074276">
        <ele>714.20000000000005</ele>
        <time>1970-01-01T02:27:47Z</time>
      </trkpt>
      <trkpt lat="40.400546975433826" lon="-3.343455009162426">
        <ele>712.79999999999995</ele>
        <time>1970-01-01T02:27:49Z</time>
      </trkpt>
      <trkpt lat="40.400515962392092" lon="-3.343409998342395">
        <ele>711.89999999999998</ele>
        <time>1970-01-01T02:27:50Z</time>
      </trkpt>
      <trkpt lat="40.400481009855866" lon="-3.343374039977789">
        <ele>710.89999999999998</ele>
        <time>1970-01-01T02:27:51Z</time>
      </trkpt>
      <trkpt lat="40.400440022349358" lon="-3.343332968652248">
        <ele>709.79999999999995</ele>
        <time>1970-01-01T02:27:53Z</time>
      </trkpt>
      <trkpt lat="40.400417977944016" lon="-3.343314025551081">
        <ele>709.29999999999995</ele>
        <time>1970-01-01T02:27:54Z</time>
      </trkpt>
      <trkpt lat="40.40038101375103" lon="-3.343278989195824">
        <ele>708.20000000000005</ele>
        <time>1970-01-01T02:27:56Z</time>
      </trkpt>
      <trkpt lat="40.400334997102618" lon="-3.343239007517695">
        <ele>707</ele>
        <time>1970-01-01T02:27:57Z</time>
      </trkpt>
      <trkpt lat="40.400280011817813" lon="-3.343188967555761">
        <ele>705.79999999999995</ele>
        <time>1970-01-01T02:27:58Z</time>
      </trkpt>
      <trkpt lat="40.40025201626122" lon="-3.343153009191155">
        <ele>705.20000000000005</ele>
        <time>1970-01-01T02:27:59Z</time>
      </trkpt>
      <trkpt lat="40.400227038189769" lon="-3.343071034178138">
        <ele>704.29999999999995</ele>
        <time>1970-01-01T02:28:01Z</time>
      </trkpt>
      <trkpt lat="40.400229971855879" lon="-3.343030968680978">
        <ele>704</ele>
        <time>1970-01-01T02:28:02Z</time>
      </trkpt>
      <trkpt lat="40.400242041796446" lon="-3.342983024194837">
        <ele>703.70000000000005</ele>
        <time>1970-01-01T02:28:04Z</time>
      </trkpt>
      <trkpt lat="40.400245981290936" lon="-3.342944970354438">
        <ele>703.5</ele>
        <time>1970-01-01T02:28:05Z</time>
      </trkpt>
      <trkpt lat="40.400247992947698" lon="-3.342908006161451">
        <ele>703.39999999999998</ele>
        <time>1970-01-01T02:28:06Z</time>
      </trkpt>
      <trkpt lat="40.400245981290936" lon="-3.342872969806194">
        <ele>703.20000000000005</ele>
        <time>1970-01-01T02:28:07Z</time>
      </trkpt>
      <trkpt lat="40.400244975462556" lon="-3.342808010056615">
        <ele>703.10000000000002</ele>
        <time>1970-01-01T02:28:09Z</time>
      </trkpt>
      <trkpt lat="40.400245981290936" lon="-3.342765010893345">
        <ele>703.10000000000002</ele>
        <time>1970-01-01T02:28:10Z</time>
      </trkpt>
      <trkpt lat="40.400253022089601" lon="-3.342724023386836">
        <ele>703</ele>
        <time>1970-01-01T02:28:11Z</time>
      </trkpt>
      <trkpt lat="40.400260984897614" lon="-3.342684041708708">
        <ele>703.10000000000002</ele>
        <time>1970-01-01T02:28:13Z</time>
      </trkpt>
      <trkpt lat="40.400270037353039" lon="-3.342620003968477">
        <ele>703.10000000000002</ele>
        <time>1970-01-01T02:28:14Z</time>
      </trkpt>
      <trkpt lat="40.400281017646194" lon="-3.342554038390517">
        <ele>703.10000000000002</ele>
        <time>1970-01-01T02:28:16Z</time>
      </trkpt>
      <trkpt lat="40.400286968797445" lon="-3.342532999813557">
        <ele>703.10000000000002</ele>
        <time>1970-01-01T02:28:17Z</time>
      </trkpt>
      <trkpt lat="40.400291997939348" lon="-3.342512967064977">
        <ele>703.10000000000002</ele>
        <time>1970-01-01T02:28:18Z</time>
      </trkpt>
      <trkpt lat="40.400296021252871" lon="-3.342499975115061">
        <ele>703.10000000000002</ele>
        <time>1970-01-01T02:28:20Z</time>
      </trkpt>
      <trkpt lat="40.400298032909632" lon="-3.34249896928668">
        <ele>703.10000000000002</ele>
        <time>1970-01-01T02:28:21Z</time>
      </trkpt>
      <trkpt lat="40.400322005152702" lon="-3.34236997179687">
        <ele>703.29999999999995</ele>
        <time>1970-01-01T02:28:23Z</time>
      </trkpt>
      <trkpt lat="40.400313958525658" lon="-3.342379024252296">
        <ele>703.29999999999995</ele>
        <time>1970-01-01T02:28:24Z</time>
      </trkpt>
      <trkpt lat="40.400310019031167" lon="-3.342415988445282">
        <ele>703.5</ele>
        <time>1970-01-01T02:28:25Z</time>
      </trkpt>
      <trkpt lat="40.400308007374406" lon="-3.342430992051959">
        <ele>703.5</ele>
        <time>1970-01-01T02:28:26Z</time>
      </trkpt>
      <trkpt lat="40.400307001546025" lon="-3.34241297096014">
        <ele>703.60000000000002</ele>
        <time>1970-01-01T02:28:27Z</time>
      </trkpt>
      <trkpt lat="40.400308007374406" lon="-3.342382963746786">
        <ele>703.70000000000005</ele>
        <time>1970-01-01T02:28:28Z</time>
      </trkpt>
      <trkpt lat="40.400308007374406" lon="-3.342351028695703">
        <ele>703.79999999999995</ele>
        <time>1970-01-01T02:28:30Z</time>
      </trkpt>
      <trkpt lat="40.400308007374406" lon="-3.34228296764195">
        <ele>704.10000000000002</ele>
        <time>1970-01-01T02:28:31Z</time>
      </trkpt>
      <trkpt lat="40.400308007374406" lon="-3.342252038419247">
        <ele>704.20000000000005</ele>
        <time>1970-01-01T02:28:33Z</time>
      </trkpt>
      <trkpt lat="40.400311024859548" lon="-3.342206021770835">
        <ele>704.39999999999998</ele>
        <time>1970-01-01T02:28:35Z</time>
      </trkpt>
      <trkpt lat="40.40031798183918" lon="-3.342166962102056">
        <ele>704.60000000000002</ele>
        <time>1970-01-01T02:28:36Z</time>
      </trkpt>
      <trkpt lat="40.400327034294605" lon="-3.342129997909069">
        <ele>704.79999999999995</ele>
        <time>1970-01-01T02:28:37Z</time>
      </trkpt>
      <trkpt lat="40.400344971567392" lon="-3.342083981260657">
        <ele>705</ele>
        <time>1970-01-01T02:28:39Z</time>
      </trkpt>
      <trkpt lat="40.400373972952366" lon="-3.342036958783865">
        <ele>705.39999999999998</ele>
        <time>1970-01-01T02:28:41Z</time>
      </trkpt>
      <trkpt lat="40.400400040671229" lon="-3.341993037611246">
        <ele>705.79999999999995</ele>
        <time>1970-01-01T02:28:42Z</time>
      </trkpt>
      <trkpt lat="40.400413032621145" lon="-3.341966969892383">
        <ele>706</ele>
        <time>1970-01-01T02:28:43Z</time>
      </trkpt>
      <trkpt lat="40.400431975722313" lon="-3.341909972950816">
        <ele>706.39999999999998</ele>
        <time>1970-01-01T02:28:44Z</time>
      </trkpt>
      <trkpt lat="40.400442034006119" lon="-3.341864040121436">
        <ele>706.70000000000005</ele>
        <time>1970-01-01T02:28:46Z</time>
      </trkpt>
      <trkpt lat="40.400454020127654" lon="-3.341811988502741">
        <ele>707.10000000000002</ele>
        <time>1970-01-01T02:28:47Z</time>
      </trkpt>
      <trkpt lat="40.400460977107286" lon="-3.341771000996232">
        <ele>707.39999999999998</ele>
        <time>1970-01-01T02:28:48Z</time>
      </trkpt>
      <trkpt lat="40.400465000420809" lon="-3.341729007661343">
        <ele>707.70000000000005</ele>
        <time>1970-01-01T02:28:49Z</time>
      </trkpt>
      <trkpt lat="40.400474974885583" lon="-3.341687014326453">
        <ele>708.10000000000002</ele>
        <time>1970-01-01T02:28:51Z</time>
      </trkpt>
      <trkpt lat="40.400495007634163" lon="-3.341634040698409">
        <ele>708.5</ele>
        <time>1970-01-01T02:28:52Z</time>
      </trkpt>
      <trkpt lat="40.400512022897601" lon="-3.341596992686391">
        <ele>708.89999999999998</ele>
        <time>1970-01-01T02:28:53Z</time>
      </trkpt>
      <trkpt lat="40.400517974048853" lon="-3.341586012393236">
        <ele>709</ele>
        <time>1970-01-01T02:28:54Z</time>
      </trkpt>
      <trkpt lat="40.400545969605446" lon="-3.341556005179882">
        <ele>709.39999999999998</ele>
        <time>1970-01-01T02:28:56Z</time>
      </trkpt>
      <trkpt lat="40.400556027889252" lon="-3.341545024886727">
        <ele>709.5</ele>
        <time>1970-01-01T02:28:57Z</time>
      </trkpt>
      <trkpt lat="40.400587040930986" lon="-3.341507976874709">
        <ele>709.89999999999998</ele>
        <time>1970-01-01T02:28:58Z</time>
      </trkpt>
      <trkpt lat="40.400599027052522" lon="-3.341493979096413">
        <ele>710.10000000000002</ele>
        <time>1970-01-01T02:28:59Z</time>
      </trkpt>
      <trkpt lat="40.400616964325309" lon="-3.34146598353982">
        <ele>710.39999999999998</ele>
        <time>1970-01-01T02:29:01Z</time>
      </trkpt>
      <trkpt lat="40.400624005123973" lon="-3.341451985761523">
        <ele>710.5</ele>
        <time>1970-01-01T02:29:02Z</time>
      </trkpt>
      <trkpt lat="40.400632973760366" lon="-3.341426001861692">
        <ele>710.70000000000005</ele>
        <time>1970-01-01T02:29:04Z</time>
      </trkpt>
      <trkpt lat="40.400635991245508" lon="-3.341408986598253">
        <ele>710.79999999999995</ele>
        <time>1970-01-01T02:29:05Z</time>
      </trkpt>
      <trkpt lat="40.400641020387411" lon="-3.341385014355183">
        <ele>711</ele>
        <time>1970-01-01T02:29:06Z</time>
      </trkpt>
      <trkpt lat="40.400638002902269" lon="-3.341371016576886">
        <ele>711.10000000000002</ele>
        <time>1970-01-01T02:29:08Z</time>
      </trkpt>
      <trkpt lat="40.40063900873065" lon="-3.341372022405267">
        <ele>711.10000000000002</ele>
        <time>1970-01-01T02:29:09Z</time>
      </trkpt>
      <trkpt lat="40.400640014559031" lon="-3.341375961899757">
        <ele>711.20000000000005</ele>
        <time>1970-01-01T02:29:11Z</time>
      </trkpt>
      <trkpt lat="40.400641020387411" lon="-3.341376967728138">
        <ele>711.20000000000005</ele>
        <time>1970-01-01T02:29:13Z</time>
      </trkpt>
      <trkpt lat="40.400641020387411" lon="-3.341376967728138">
        <ele>711.20000000000005</ele>
        <time>1970-01-01T02:29:14Z</time>
      </trkpt>
      <trkpt lat="40.400641020387411" lon="-3.341377973556519">
        <ele>711.20000000000005</ele>
        <time>1970-01-01T02:29:15Z</time>
      </trkpt>
      <trkpt lat="40.400640014559031" lon="-3.341378979384899">
        <ele>711.20000000000005</ele>
        <time>1970-01-01T02:29:17Z</time>
      </trkpt>
      <trkpt lat="40.400631967931986" lon="-3.341381996870041">
        <ele>711.29999999999995</ele>
        <time>1970-01-01T02:29:57Z</time>
      </trkpt>
      <trkpt lat="40.40063900873065" lon="-3.341321982443333">
        <ele>711.60000000000002</ele>
        <time>1970-01-01T02:29:59Z</time>
      </trkpt>
      <trkpt lat="40.400643032044172" lon="-3.341286024078727">
        <ele>711.79999999999995</ele>
        <time>1970-01-01T02:30:01Z</time>
      </trkpt>
      <trkpt lat="40.400636997073889" lon="-3.341282000765204">
        <ele>711.89999999999998</ele>
        <time>1970-01-01T02:30:02Z</time>
      </trkpt>
      <trkpt lat="40.400630962103605" lon="-3.341311002150178">
        <ele>712.10000000000002</ele>
        <time>1970-01-01T02:30:04Z</time>
      </trkpt>
      <trkpt lat="40.400658035650849" lon="-3.341260040178895">
        <ele>712.5</ele>
        <time>1970-01-01T02:30:05Z</time>
      </trkpt>
      <trkpt lat="40.400665998458862" lon="-3.34122802130878">
        <ele>712.70000000000005</ele>
        <time>1970-01-01T02:30:07Z</time>
      </trkpt>
      <trkpt lat="40.400684019550681" lon="-3.341174963861704">
        <ele>713.10000000000002</ele>
        <time>1970-01-01T02:30:08Z</time>
      </trkpt>
      <trkpt lat="40.400692988187075" lon="-3.341134982183576">
        <ele>713.39999999999998</ele>
        <time>1970-01-01T02:30:09Z</time>
      </trkpt>
      <trkpt lat="40.400697011500597" lon="-3.341120984405279">
        <ele>713.5</ele>
        <time>1970-01-01T02:30:10Z</time>
      </trkpt>
      <trkpt lat="40.400714026764035" lon="-3.341070022433996">
        <ele>714</ele>
        <time>1970-01-01T02:30:12Z</time>
      </trkpt>
      <trkpt lat="40.400734981521964" lon="-3.341006990522146">
        <ele>714.60000000000002</ele>
        <time>1970-01-01T02:30:13Z</time>
      </trkpt>
      <trkpt lat="40.400759959593415" lon="-3.340952005237341">
        <ele>715.10000000000002</ele>
        <time>1970-01-01T02:30:14Z</time>
      </trkpt>
      <trkpt lat="40.400779992341995" lon="-3.34090699441731">
        <ele>715.60000000000002</ele>
        <time>1970-01-01T02:30:15Z</time>
      </trkpt>
      <trkpt lat="40.400796001777053" lon="-3.340872041881084">
        <ele>715.89999999999998</ele>
        <time>1970-01-01T02:30:17Z</time>
      </trkpt>
      <trkpt lat="40.400819974020123" lon="-3.340832982212305">
        <ele>716.29999999999995</ele>
        <time>1970-01-01T02:30:19Z</time>
      </trkpt>
      <trkpt lat="40.400827014818788" lon="-3.340814961120486">
        <ele>716.39999999999998</ele>
        <time>1970-01-01T02:30:20Z</time>
      </trkpt>
      <trkpt lat="40.400832965970039" lon="-3.340796018019319">
        <ele>716.60000000000002</ele>
        <time>1970-01-01T02:30:21Z</time>
      </trkpt>
      <trkpt lat="40.400849981233478" lon="-3.340761987492442">
        <ele>716.79999999999995</ele>
        <time>1970-01-01T02:30:22Z</time>
      </trkpt>
      <trkpt lat="40.400856016203761" lon="-3.340750001370907">
        <ele>716.89999999999998</ele>
        <time>1970-01-01T02:30:23Z</time>
      </trkpt>
      <trkpt lat="40.400864984840155" lon="-3.34073600359261">
        <ele>717</ele>
        <time>1970-01-01T02:30:25Z</time>
      </trkpt>
      <trkpt lat="40.400875965133309" lon="-3.34071496501565">
        <ele>717</ele>
        <time>1970-01-01T02:30:26Z</time>
      </trkpt>
      <trkpt lat="40.400887029245496" lon="-3.340694010257721">
        <ele>717.10000000000002</ele>
        <time>1970-01-01T02:30:27Z</time>
      </trkpt>
      <trkpt lat="40.400904966518283" lon="-3.340666014701128">
        <ele>717.10000000000002</ele>
        <time>1970-01-01T02:30:29Z</time>
      </trkpt>
      <trkpt lat="40.400930028408766" lon="-3.340641036629677">
        <ele>717.10000000000002</ele>
        <time>1970-01-01T02:30:30Z</time>
      </trkpt>
      <trkpt lat="40.400936985388398" lon="-3.340631984174252">
        <ele>717.10000000000002</ele>
        <time>1970-01-01T02:30:31Z</time>
      </trkpt>
      <trkpt lat="40.4009610414505" lon="-3.340613963082433">
        <ele>717</ele>
        <time>1970-01-01T02:30:32Z</time>
      </trkpt>
      <trkpt lat="40.40098300203681" lon="-3.340598959475756">
        <ele>716.89999999999998</ele>
        <time>1970-01-01T02:30:34Z</time>
      </trkpt>
      <trkpt lat="40.400990964844823" lon="-3.340594014152885">
        <ele>716.89999999999998</ele>
        <time>1970-01-01T02:30:35Z</time>
      </trkpt>
      <trkpt lat="40.401022983714938" lon="-3.340574987232685">
        <ele>716.70000000000005</ele>
        <time>1970-01-01T02:30:37Z</time>
      </trkpt>
      <trkpt lat="40.401041004806757" lon="-3.34056400693953">
        <ele>716.60000000000002</ele>
        <time>1970-01-01T02:30:38Z</time>
      </trkpt>
      <trkpt lat="40.401061037555337" lon="-3.340538023039699">
        <ele>716.39999999999998</ele>
        <time>1970-01-01T02:30:40Z</time>
      </trkpt>
      <trkpt lat="40.401074029505253" lon="-3.340509021654725">
        <ele>716.29999999999995</ele>
        <time>1970-01-01T02:30:41Z</time>
      </trkpt>
      <trkpt lat="40.401094984263182" lon="-3.340431991964579">
        <ele>716</ele>
        <time>1970-01-01T02:30:43Z</time>
      </trkpt>
      <trkpt lat="40.401093978434801" lon="-3.340393016114831">
        <ele>715.89999999999998</ele>
        <time>1970-01-01T02:30:44Z</time>
      </trkpt>
      <trkpt lat="40.401094984263182" lon="-3.340364014729857">
        <ele>715.79999999999995</ele>
        <time>1970-01-01T02:30:45Z</time>
      </trkpt>
      <trkpt lat="40.401106970384717" lon="-3.340251026675105">
        <ele>715.39999999999998</ele>
        <time>1970-01-01T02:30:47Z</time>
      </trkpt>
      <trkpt lat="40.401120968163013" lon="-3.340138038620353">
        <ele>715.10000000000002</ele>
        <time>1970-01-01T02:30:49Z</time>
      </trkpt>
      <trkpt lat="40.401127003133297" lon="-3.340086992830038">
        <ele>715</ele>
        <time>1970-01-01T02:30:50Z</time>
      </trkpt>
      <trkpt lat="40.4011320322752" lon="-3.340040976181626">
        <ele>714.89999999999998</ele>
        <time>1970-01-01T02:30:51Z</time>
      </trkpt>
      <trkpt lat="40.401133960112929" lon="-3.339975010603666">
        <ele>714.70000000000005</ele>
        <time>1970-01-01T02:30:52Z</time>
      </trkpt>
      <trkpt lat="40.40113303810358" lon="-3.339922036975622">
        <ele>714.60000000000002</ele>
        <time>1970-01-01T02:30:53Z</time>
      </trkpt>
      <trkpt lat="40.401130020618439" lon="-3.339879037812352">
        <ele>714.60000000000002</ele>
        <time>1970-01-01T02:30:55Z</time>
      </trkpt>
      <trkpt lat="40.401125997304916" lon="-3.339835032820702">
        <ele>714.5</ele>
        <time>1970-01-01T02:30:56Z</time>
      </trkpt>
      <trkpt lat="40.401125997304916" lon="-3.339804019778967">
        <ele>714.5</ele>
        <time>1970-01-01T02:30:57Z</time>
      </trkpt>
      <trkpt lat="40.401128008961678" lon="-3.339754985645413">
        <ele>714.39999999999998</ele>
        <time>1970-01-01T02:30:59Z</time>
      </trkpt>
      <trkpt lat="40.401129014790058" lon="-3.339719027280808">
        <ele>714.29999999999995</ele>
        <time>1970-01-01T02:31:00Z</time>
      </trkpt>
      <trkpt lat="40.4011320322752" lon="-3.339672004804015">
        <ele>714.29999999999995</ele>
        <time>1970-01-01T02:31:01Z</time>
      </trkpt>
      <trkpt lat="40.401137983426452" lon="-3.339616013690829">
        <ele>714.20000000000005</ele>
        <time>1970-01-01T02:31:03Z</time>
      </trkpt>
      <trkpt lat="40.401143012568355" lon="-3.339561028406024">
        <ele>714.20000000000005</ele>
        <time>1970-01-01T02:31:04Z</time>
      </trkpt>
      <trkpt lat="40.401144018396735" lon="-3.339505959302187">
        <ele>714.10000000000002</ele>
        <time>1970-01-01T02:31:05Z</time>
      </trkpt>
      <trkpt lat="40.401138989254832" lon="-3.339470000937581">
        <ele>714.10000000000002</ele>
        <time>1970-01-01T02:31:06Z</time>
      </trkpt>
      <trkpt lat="40.401125997304916" lon="-3.339425995945931">
        <ele>714.10000000000002</ele>
        <time>1970-01-01T02:31:08Z</time>
      </trkpt>
      <trkpt lat="40.401100013405085" lon="-3.339385008439422">
        <ele>714</ele>
        <time>1970-01-01T02:31:09Z</time>
      </trkpt>
      <trkpt lat="40.401067994534969" lon="-3.339345026761293">
        <ele>713.79999999999995</ele>
        <time>1970-01-01T02:31:10Z</time>
      </trkpt>
      <trkpt lat="40.401030024513602" lon="-3.339301021769643">
        <ele>713.70000000000005</ele>
        <time>1970-01-01T02:31:11Z</time>
      </trkpt>
      <trkpt lat="40.4010059684515" lon="-3.339270008727908">
        <ele>713.60000000000002</ele>
        <time>1970-01-01T02:31:12Z</time>
      </trkpt>
      <trkpt lat="40.400985013693571" lon="-3.339233966544271">
        <ele>713.39999999999998</ele>
        <time>1970-01-01T02:31:14Z</time>
      </trkpt>
      <trkpt lat="40.400976967066526" lon="-3.339219968765974">
        <ele>713.39999999999998</ele>
        <time>1970-01-01T02:31:15Z</time>
      </trkpt>
      <trkpt lat="40.4009610414505" lon="-3.339183004572988">
        <ele>713.29999999999995</ele>
        <time>1970-01-01T02:31:16Z</time>
      </trkpt>
      <trkpt lat="40.400947965681553" lon="-3.339143022894859">
        <ele>713.10000000000002</ele>
        <time>1970-01-01T02:31:18Z</time>
      </trkpt>
      <trkpt lat="40.400945032015443" lon="-3.339134976267815">
        <ele>713.10000000000002</ele>
        <time>1970-01-01T02:31:19Z</time>
      </trkpt>
      <trkpt lat="40.400942014530301" lon="-3.339111004024744">
        <ele>712.89999999999998</ele>
        <time>1970-01-01T02:31:21Z</time>
      </trkpt>
      <trkpt lat="40.400944026187062" lon="-3.339093988761306">
        <ele>712.79999999999995</ele>
        <time>1970-01-01T02:31:22Z</time>
      </trkpt>
      <trkpt lat="40.400956012308598" lon="-3.339055012911558">
        <ele>712.60000000000002</ele>
        <time>1970-01-01T02:31:23Z</time>
      </trkpt>
      <trkpt lat="40.40096296928823" lon="-3.339036991819739">
        <ele>712.5</ele>
        <time>1970-01-01T02:31:24Z</time>
      </trkpt>
      <trkpt lat="40.400979984551668" lon="-3.339003967121244">
        <ele>712.20000000000005</ele>
        <time>1970-01-01T02:31:26Z</time>
      </trkpt>
      <trkpt lat="40.400989959016442" lon="-3.338947976008058">
        <ele>711.89999999999998</ele>
        <time>1970-01-01T02:31:28Z</time>
      </trkpt>
      <trkpt lat="40.400974033400416" lon="-3.338931966573">
        <ele>711.79999999999995</ele>
        <time>1970-01-01T02:31:29Z</time>
      </trkpt>
      <trkpt lat="40.400964980944991" lon="-3.338919980451465">
        <ele>711.70000000000005</ele>
        <time>1970-01-01T02:31:30Z</time>
      </trkpt>
      <trkpt lat="40.400957018136978" lon="-3.33890900015831">
        <ele>711.70000000000005</ele>
        <time>1970-01-01T02:31:32Z</time>
      </trkpt>
      <trkpt lat="40.400947965681553" lon="-3.338897014036775">
        <ele>711.60000000000002</ele>
        <time>1970-01-01T02:31:33Z</time>
      </trkpt>
      <trkpt lat="40.400938997045159" lon="-3.33888603374362">
        <ele>711.60000000000002</ele>
        <time>1970-01-01T02:31:34Z</time>
      </trkpt>
      <trkpt lat="40.400920975953341" lon="-3.338881004601717">
        <ele>711.60000000000002</ele>
        <time>1970-01-01T02:31:35Z</time>
      </trkpt>
      <trkpt lat="40.400863979011774" lon="-3.338871030136943">
        <ele>711.70000000000005</ele>
        <time>1970-01-01T02:31:37Z</time>
      </trkpt>
      <trkpt lat="40.400841012597084" lon="-3.338895002380014">
        <ele>711.89999999999998</ele>
        <time>1970-01-01T02:31:39Z</time>
      </trkpt>
      <trkpt lat="40.400826008990407" lon="-3.338902965188026">
        <ele>712</ele>
        <time>1970-01-01T02:31:40Z</time>
      </trkpt>
      <trkpt lat="40.40078803896904" lon="-3.338916962966323">
        <ele>712.29999999999995</ele>
        <time>1970-01-01T02:31:41Z</time>
      </trkpt>
      <trkpt lat="40.400750990957022" lon="-3.338930038735271">
        <ele>712.70000000000005</ele>
        <time>1970-01-01T02:31:42Z</time>
      </trkpt>
      <trkpt lat="40.40072500705719" lon="-3.338930038735271">
        <ele>712.89999999999998</ele>
        <time>1970-01-01T02:31:43Z</time>
      </trkpt>
      <trkpt lat="40.400710003450513" lon="-3.338926015421748">
        <ele>713.10000000000002</ele>
        <time>1970-01-01T02:31:45Z</time>
      </trkpt>
      <trkpt lat="40.400679996237159" lon="-3.338901959359646">
        <ele>713.39999999999998</ele>
        <time>1970-01-01T02:31:46Z</time>
      </trkpt>
      <trkpt lat="40.400672033429146" lon="-3.338893996551633">
        <ele>713.5</ele>
        <time>1970-01-01T02:31:47Z</time>
      </trkpt>
      <trkpt lat="40.400652000680566" lon="-3.338863989338279">
        <ele>713.79999999999995</ele>
        <time>1970-01-01T02:31:48Z</time>
      </trkpt>
      <trkpt lat="40.400644037872553" lon="-3.338852003216744">
        <ele>713.89999999999998</ele>
        <time>1970-01-01T02:31:49Z</time>
      </trkpt>
      <trkpt lat="40.400624005123973" lon="-3.338816966861486">
        <ele>714.20000000000005</ele>
        <time>1970-01-01T02:31:51Z</time>
      </trkpt>
      <trkpt lat="40.400616964325309" lon="-3.338804980739951">
        <ele>714.29999999999995</ele>
        <time>1970-01-01T02:31:52Z</time>
      </trkpt>
      <trkpt lat="40.400590980425477" lon="-3.338769022375345">
        <ele>714.60000000000002</ele>
        <time>1970-01-01T02:31:53Z</time>
      </trkpt>
      <trkpt lat="40.400582011789083" lon="-3.338757958263159">
        <ele>714.60000000000002</ele>
        <time>1970-01-01T02:31:54Z</time>
      </trkpt>
      <trkpt lat="40.400544963777065" lon="-3.338731974363327">
        <ele>714.79999999999995</ele>
        <time>1970-01-01T02:31:56Z</time>
      </trkpt>
      <trkpt lat="40.400523003190756" lon="-3.338721999898553">
        <ele>714.89999999999998</ele>
        <time>1970-01-01T02:31:58Z</time>
      </trkpt>
      <trkpt lat="40.400487966835499" lon="-3.338708002120256">
        <ele>715</ele>
        <time>1970-01-01T02:32:00Z</time>
      </trkpt>
      <trkpt lat="40.400451002642512" lon="-3.338696015998721">
        <ele>715</ele>
        <time>1970-01-01T02:32:01Z</time>
      </trkpt>
      <trkpt lat="40.400438010692596" lon="-3.338691992685199">
        <ele>715</ele>
        <time>1970-01-01T02:32:02Z</time>
      </trkpt>
      <trkpt lat="40.400406997650862" lon="-3.338686041533947">
        <ele>714.89999999999998</ele>
        <time>1970-01-01T02:32:03Z</time>
      </trkpt>
      <trkpt lat="40.400371961295605" lon="-3.338681012392044">
        <ele>714.79999999999995</ele>
        <time>1970-01-01T02:32:05Z</time>
      </trkpt>
      <trkpt lat="40.400334997102618" lon="-3.338682018220425">
        <ele>714.70000000000005</ele>
        <time>1970-01-01T02:32:06Z</time>
      </trkpt>
      <trkpt lat="40.400312030687928" lon="-3.338680006563664">
        <ele>714.60000000000002</ele>
        <time>1970-01-01T02:32:08Z</time>
      </trkpt>
      <trkpt lat="40.400271965190768" lon="-3.338681012392044">
        <ele>714.39999999999998</ele>
        <time>1970-01-01T02:32:10Z</time>
      </trkpt>
      <trkpt lat="40.400266014039516" lon="-3.338683024048805">
        <ele>714.29999999999995</ele>
        <time>1970-01-01T02:32:11Z</time>
      </trkpt>
      <trkpt lat="40.400271965190768" lon="-3.338679000735283">
        <ele>714.29999999999995</ele>
        <time>1970-01-01T02:32:13Z</time>
      </trkpt>
      <trkpt lat="40.400275988504291" lon="-3.338679000735283">
        <ele>714.29999999999995</ele>
        <time>1970-01-01T02:32:14Z</time>
      </trkpt>
      <trkpt lat="40.400279005989432" lon="-3.338677994906902">
        <ele>714.29999999999995</ele>
        <time>1970-01-01T02:32:15Z</time>
      </trkpt>
      <trkpt lat="40.400284035131335" lon="-3.338677994906902">
        <ele>714.20000000000005</ele>
        <time>1970-01-01T02:32:17Z</time>
      </trkpt>
      <trkpt lat="40.400285040959716" lon="-3.338672965764999">
        <ele>714.20000000000005</ele>
        <time>1970-01-01T02:32:19Z</time>
      </trkpt>
      <trkpt lat="40.400284035131335" lon="-3.338669026270509">
        <ele>714.20000000000005</ele>
        <time>1970-01-01T02:32:20Z</time>
      </trkpt>
      <trkpt lat="40.400283029302955" lon="-3.338659973815084">
        <ele>714.20000000000005</ele>
        <time>1970-01-01T02:32:21Z</time>
      </trkpt>
      <trkpt lat="40.400279005989432" lon="-3.338648993521929">
        <ele>714.10000000000002</ele>
        <time>1970-01-01T02:32:23Z</time>
      </trkpt>
      <trkpt lat="40.400278000161052" lon="-3.338648993521929">
        <ele>714.10000000000002</ele>
        <time>1970-01-01T02:32:24Z</time>
      </trkpt>
      <trkpt lat="40.400276994332671" lon="-3.338648993521929">
        <ele>714.10000000000002</ele>
        <time>1970-01-01T02:32:25Z</time>
      </trkpt>
      <trkpt lat="40.400279005989432" lon="-3.338653016835451">
        <ele>714.10000000000002</ele>
        <time>1970-01-01T02:32:27Z</time>
      </trkpt>
      <trkpt lat="40.400281017646194" lon="-3.338660979643464">
        <ele>714.10000000000002</ele>
        <time>1970-01-01T02:32:29Z</time>
      </trkpt>
      <trkpt lat="40.400283029302955" lon="-3.338663997128606">
        <ele>714.10000000000002</ele>
        <time>1970-01-01T02:32:31Z</time>
      </trkpt>
      <trkpt lat="40.400284035131335" lon="-3.338665002956986">
        <ele>714.10000000000002</ele>
        <time>1970-01-01T02:32:33Z</time>
      </trkpt>
      <trkpt lat="40.400284035131335" lon="-3.338667014613748">
        <ele>714.10000000000002</ele>
        <time>1970-01-01T02:32:34Z</time>
      </trkpt>
      <trkpt lat="40.400284035131335" lon="-3.338668020442128">
        <ele>714</ele>
        <time>1970-01-01T02:32:36Z</time>
      </trkpt>
      <trkpt lat="40.400241035968065" lon="-3.338669026270509">
        <ele>713.89999999999998</ele>
        <time>1970-01-01T02:33:52Z</time>
      </trkpt>
      <trkpt lat="40.400189990177751" lon="-3.338671959936619">
        <ele>713.60000000000002</ele>
        <time>1970-01-01T02:33:54Z</time>
      </trkpt>
      <trkpt lat="40.400164006277919" lon="-3.338691992685199">
        <ele>713.5</ele>
        <time>1970-01-01T02:33:55Z</time>
      </trkpt>
      <trkpt lat="40.400140034034848" lon="-3.338686963543296">
        <ele>713.29999999999995</ele>
        <time>1970-01-01T02:33:56Z</time>
      </trkpt>
      <trkpt lat="40.400128969922662" lon="-3.338681012392044">
        <ele>713.20000000000005</ele>
        <time>1970-01-01T02:33:58Z</time>
      </trkpt>
      <trkpt lat="40.400117989629507" lon="-3.33867397159338">
        <ele>713.20000000000005</ele>
        <time>1970-01-01T02:33:59Z</time>
      </trkpt>
      <trkpt lat="40.400098040699959" lon="-3.338667014613748">
        <ele>713</ele>
        <time>1970-01-01T02:34:00Z</time>
      </trkpt>
      <trkpt lat="40.399978011846542" lon="-3.338661985471845">
        <ele>712</ele>
        <time>1970-01-01T02:34:02Z</time>
      </trkpt>
      <trkpt lat="40.399901987984776" lon="-3.338645976036787">
        <ele>711.29999999999995</ele>
        <time>1970-01-01T02:34:03Z</time>
      </trkpt>
      <trkpt lat="40.399809032678604" lon="-3.338626027107239">
        <ele>710.39999999999998</ele>
        <time>1970-01-01T02:34:04Z</time>
      </trkpt>
      <trkpt lat="40.39973895996809" lon="-3.338609011843801">
        <ele>709.79999999999995</ele>
        <time>1970-01-01T02:34:05Z</time>
      </trkpt>
      <trkpt lat="40.399605017155409" lon="-3.338546985760331">
        <ele>709</ele>
        <time>1970-01-01T02:34:07Z</time>
      </trkpt>
      <trkpt lat="40.399505021050572" lon="-3.338443972170353">
        <ele>708.79999999999995</ele>
        <time>1970-01-01T02:34:09Z</time>
      </trkpt>
      <trkpt lat="40.399456992745399" lon="-3.33839301019907">
        <ele>708.89999999999998</ele>
        <time>1970-01-01T02:34:10Z</time>
      </trkpt>
      <trkpt lat="40.399407958611846" lon="-3.338347999379039">
        <ele>709.10000000000002</ele>
        <time>1970-01-01T02:34:11Z</time>
      </trkpt>
      <trkpt lat="40.399376023560762" lon="-3.338302988559008">
        <ele>709.20000000000005</ele>
        <time>1970-01-01T02:34:12Z</time>
      </trkpt>
      <trkpt lat="40.399355990812182" lon="-3.338237022981048">
        <ele>709.20000000000005</ele>
        <time>1970-01-01T02:34:14Z</time>
      </trkpt>
      <trkpt lat="40.399322966113687" lon="-3.33817801438272">
        <ele>709.10000000000002</ele>
        <time>1970-01-01T02:34:15Z</time>
      </trkpt>
      <trkpt lat="40.399267980828881" lon="-3.338125040754676">
        <ele>709</ele>
        <time>1970-01-01T02:34:17Z</time>
      </trkpt>
      <trkpt lat="40.399187011644244" lon="-3.338053962215781">
        <ele>708.5</ele>
        <time>1970-01-01T02:34:19Z</time>
      </trkpt>
      <trkpt lat="40.39909397251904" lon="-3.337969975546002">
        <ele>707.89999999999998</ele>
        <time>1970-01-01T02:34:21Z</time>
      </trkpt>
      <trkpt lat="40.39905097335577" lon="-3.337922031059861">
        <ele>707.5</ele>
        <time>1970-01-01T02:34:22Z</time>
      </trkpt>
      <trkpt lat="40.398989031091332" lon="-3.337794961407781">
        <ele>707</ele>
        <time>1970-01-01T02:34:24Z</time>
      </trkpt>
      <trkpt lat="40.398977966979146" lon="-3.337762020528317">
        <ele>706.79999999999995</ele>
        <time>1970-01-01T02:34:25Z</time>
      </trkpt>
      <trkpt lat="40.398933039978147" lon="-3.337668981403112">
        <ele>706.5</ele>
        <time>1970-01-01T02:34:27Z</time>
      </trkpt>
      <trkpt lat="40.398907978087664" lon="-3.337599998340011">
        <ele>706.20000000000005</ele>
        <time>1970-01-01T02:34:28Z</time>
      </trkpt>
      <trkpt lat="40.398860033601522" lon="-3.337454991415143">
        <ele>706.10000000000002</ele>
        <time>1970-01-01T02:34:30Z</time>
      </trkpt>
      <trkpt lat="40.39883203804493" lon="-3.337391959503293">
        <ele>706.29999999999995</ele>
        <time>1970-01-01T02:34:31Z</time>
      </trkpt>
      <trkpt lat="40.398833965882659" lon="-3.337347032502294">
        <ele>706.39999999999998</ele>
        <time>1970-01-01T02:34:32Z</time>
      </trkpt>
      <trkpt lat="40.398857016116381" lon="-3.337356001138687">
        <ele>706.60000000000002</ele>
        <time>1970-01-01T02:34:33Z</time>
      </trkpt>
      <trkpt lat="40.398864978924394" lon="-3.337385002523661">
        <ele>706.70000000000005</ele>
        <time>1970-01-01T02:34:35Z</time>
      </trkpt>
      <trkpt lat="40.398875959217548" lon="-3.33732096478343">
        <ele>707</ele>
        <time>1970-01-01T02:34:36Z</time>
      </trkpt>
      <trkpt lat="40.39887897670269" lon="-3.337268996983767">
        <ele>707.29999999999995</ele>
        <time>1970-01-01T02:34:38Z</time>
      </trkpt>
      <trkpt lat="40.398901021108031" lon="-3.33718903362751">
        <ele>707.70000000000005</ele>
        <time>1970-01-01T02:34:39Z</time>
      </trkpt>
      <trkpt lat="40.398933961987495" lon="-3.337114015594125">
        <ele>708.10000000000002</ele>
        <time>1970-01-01T02:34:41Z</time>
      </trkpt>
      <trkpt lat="40.398989031091332" lon="-3.336998010054231">
        <ele>708.79999999999995</ele>
        <time>1970-01-01T02:34:43Z</time>
      </trkpt>
      <trkpt lat="40.399003028869629" lon="-3.336955010890961">
        <ele>709</ele>
        <time>1970-01-01T02:34:44Z</time>
      </trkpt>
      <trkpt lat="40.399011997506022" lon="-3.336917962878943">
        <ele>709.10000000000002</ele>
        <time>1970-01-01T02:34:45Z</time>
      </trkpt>
      <trkpt lat="40.399029012769461" lon="-3.336875969544053">
        <ele>709.39999999999998</ele>
        <time>1970-01-01T02:34:46Z</time>
      </trkpt>
      <trkpt lat="40.39904996752739" lon="-3.336821990087628">
        <ele>709.60000000000002</ele>
        <time>1970-01-01T02:34:47Z</time>
      </trkpt>
      <trkpt lat="40.399061031639576" lon="-3.3367820084095">
        <ele>709.79999999999995</ele>
        <time>1970-01-01T02:34:48Z</time>
      </trkpt>
      <trkpt lat="40.399076035246253" lon="-3.336741020902991">
        <ele>710.10000000000002</ele>
        <time>1970-01-01T02:34:49Z</time>
      </trkpt>
      <trkpt lat="40.39909397251904" lon="-3.336682012304664">
        <ele>710.39999999999998</ele>
        <time>1970-01-01T02:34:51Z</time>
      </trkpt>
      <trkpt lat="40.399109981954098" lon="-3.336644964292646">
        <ele>710.70000000000005</ele>
        <time>1970-01-01T02:34:52Z</time>
      </trkpt>
      <trkpt lat="40.399124985560775" lon="-3.336611017584801">
        <ele>710.89999999999998</ele>
        <time>1970-01-01T02:34:53Z</time>
      </trkpt>
      <trkpt lat="40.399140994995832" lon="-3.336580004543066">
        <ele>711.10000000000002</ele>
        <time>1970-01-01T02:34:55Z</time>
      </trkpt>
      <trkpt lat="40.399155998602509" lon="-3.336531976237893">
        <ele>711.29999999999995</ele>
        <time>1970-01-01T02:34:56Z</time>
      </trkpt>
      <trkpt lat="40.399167984724045" lon="-3.336496017873287">
        <ele>711.60000000000002</ele>
        <time>1970-01-01T02:34:58Z</time>
      </trkpt>
      <trkpt lat="40.399186005815864" lon="-3.336455030366778">
        <ele>711.79999999999995</ele>
        <time>1970-01-01T02:34:59Z</time>
      </trkpt>
      <trkpt lat="40.399212995544076" lon="-3.336397027596831">
        <ele>712.20000000000005</ele>
        <time>1970-01-01T02:35:01Z</time>
      </trkpt>
      <trkpt lat="40.399239985272288" lon="-3.336342964321375">
        <ele>712.5</ele>
        <time>1970-01-01T02:35:02Z</time>
      </trkpt>
      <trkpt lat="40.399257000535727" lon="-3.336313962936401">
        <ele>712.79999999999995</ele>
        <time>1970-01-01T02:35:03Z</time>
      </trkpt>
      <trkpt lat="40.399270998314023" lon="-3.336272975429893">
        <ele>713</ele>
        <time>1970-01-01T02:35:04Z</time>
      </trkpt>
      <trkpt lat="40.399283990263939" lon="-3.336238022893667">
        <ele>713.29999999999995</ele>
        <time>1970-01-01T02:35:05Z</time>
      </trkpt>
      <trkpt lat="40.399299999698997" lon="-3.336207009851933">
        <ele>713.5</ele>
        <time>1970-01-01T02:35:07Z</time>
      </trkpt>
      <trkpt lat="40.399319026619196" lon="-3.336174990981817">
        <ele>713.70000000000005</ele>
        <time>1970-01-01T02:35:08Z</time>
      </trkpt>
      <trkpt lat="40.399344004690647" lon="-3.336141966283321">
        <ele>714</ele>
        <time>1970-01-01T02:35:10Z</time>
      </trkpt>
      <trkpt lat="40.399374011904001" lon="-3.336106007918716">
        <ele>714.39999999999998</ele>
        <time>1970-01-01T02:35:11Z</time>
      </trkpt>
      <trkpt lat="40.399382980540395" lon="-3.3360930159688">
        <ele>714.5</ele>
        <time>1970-01-01T02:35:12Z</time>
      </trkpt>
      <trkpt lat="40.399403013288975" lon="-3.336065020412207">
        <ele>714.70000000000005</ele>
        <time>1970-01-01T02:35:13Z</time>
      </trkpt>
      <trkpt lat="40.39941499941051" lon="-3.336042976006866">
        <ele>714.79999999999995</ele>
        <time>1970-01-01T02:35:14Z</time>
      </trkpt>
      <trkpt lat="40.399428997188807" lon="-3.336021015420556">
        <ele>715</ele>
        <time>1970-01-01T02:35:16Z</time>
      </trkpt>
      <trkpt lat="40.399452969431877" lon="-3.335971981287003">
        <ele>715.20000000000005</ele>
        <time>1970-01-01T02:35:17Z</time>
      </trkpt>
      <trkpt lat="40.399469984695315" lon="-3.335934011265636">
        <ele>715.39999999999998</ele>
        <time>1970-01-01T02:35:18Z</time>
      </trkpt>
      <trkpt lat="40.399493034929037" lon="-3.335881037637591">
        <ele>715.70000000000005</ele>
        <time>1970-01-01T02:35:20Z</time>
      </trkpt>
      <trkpt lat="40.399510972201824" lon="-3.335847007110715">
        <ele>715.79999999999995</ele>
        <time>1970-01-01T02:35:21Z</time>
      </trkpt>
      <trkpt lat="40.399531004950404" lon="-3.33581599406898">
        <ele>716</ele>
        <time>1970-01-01T02:35:22Z</time>
      </trkpt>
      <trkpt lat="40.399553971365094" lon="-3.335777018219233">
        <ele>716.10000000000002</ele>
        <time>1970-01-01T02:35:23Z</time>
      </trkpt>
      <trkpt lat="40.399583978578448" lon="-3.335721027106047">
        <ele>716.39999999999998</ele>
        <time>1970-01-01T02:35:25Z</time>
      </trkpt>
      <trkpt lat="40.399594958871603" lon="-3.335700994357467">
        <ele>716.39999999999998</ele>
        <time>1970-01-01T02:35:26Z</time>
      </trkpt>
      <trkpt lat="40.39960702881217" lon="-3.335681967437267">
        <ele>716.5</ele>
        <time>1970-01-01T02:35:27Z</time>
      </trkpt>
      <trkpt lat="40.399627983570099" lon="-3.335661012679339">
        <ele>716.60000000000002</ele>
        <time>1970-01-01T02:35:28Z</time>
      </trkpt>
      <trkpt lat="40.399658996611834" lon="-3.335628993809223">
        <ele>716.79999999999995</ele>
        <time>1970-01-01T02:35:30Z</time>
      </trkpt>
      <trkpt lat="40.399684980511665" lon="-3.335597980767489">
        <ele>716.89999999999998</ele>
        <time>1970-01-01T02:35:31Z</time>
      </trkpt>
      <trkpt lat="40.399701995775104" lon="-3.335566967725754">
        <ele>717</ele>
        <time>1970-01-01T02:35:32Z</time>
      </trkpt>
      <trkpt lat="40.399723034352064" lon="-3.335523968562484">
        <ele>717.10000000000002</ele>
        <time>1970-01-01T02:35:33Z</time>
      </trkpt>
      <trkpt lat="40.399740971624851" lon="-3.335483986884356">
        <ele>717.29999999999995</ele>
        <time>1970-01-01T02:35:35Z</time>
      </trkpt>
      <trkpt lat="40.399744994938374" lon="-3.335473006591201">
        <ele>717.29999999999995</ele>
        <time>1970-01-01T02:35:36Z</time>
      </trkpt>
      <trkpt lat="40.399762010201812" lon="-3.335435958579183">
        <ele>717.39999999999998</ele>
        <time>1970-01-01T02:35:37Z</time>
      </trkpt>
      <trkpt lat="40.399769973009825" lon="-3.335418021306396">
        <ele>717.39999999999998</ele>
        <time>1970-01-01T02:35:38Z</time>
      </trkpt>
      <trkpt lat="40.399787994101644" lon="-3.335368987172842">
        <ele>717.5</ele>
        <time>1970-01-01T02:35:40Z</time>
      </trkpt>
      <trkpt lat="40.399795034900308" lon="-3.335348032414913">
        <ele>717.60000000000002</ele>
        <time>1970-01-01T02:35:41Z</time>
      </trkpt>
      <trkpt lat="40.399812972173095" lon="-3.335314001888037">
        <ele>717.60000000000002</ele>
        <time>1970-01-01T02:35:42Z</time>
      </trkpt>
      <trkpt lat="40.399819007143378" lon="-3.33530000410974">
        <ele>717.70000000000005</ele>
        <time>1970-01-01T02:35:43Z</time>
      </trkpt>
      <trkpt lat="40.399835016578436" lon="-3.335246024653316">
        <ele>717.70000000000005</ele>
        <time>1970-01-01T02:35:44Z</time>
      </trkpt>
      <trkpt lat="40.399841973558068" lon="-3.335215011611581">
        <ele>717.79999999999995</ele>
        <time>1970-01-01T02:35:45Z</time>
      </trkpt>
      <trkpt lat="40.399843985214829" lon="-3.335195984691382">
        <ele>717.79999999999995</ele>
        <time>1970-01-01T02:35:47Z</time>
      </trkpt>
      <trkpt lat="40.399845996871591" lon="-3.335173018276691">
        <ele>717.79999999999995</ele>
        <time>1970-01-01T02:35:48Z</time>
      </trkpt>
      <trkpt lat="40.399851026013494" lon="-3.335144016891718">
        <ele>717.79999999999995</ele>
        <time>1970-01-01T02:35:49Z</time>
      </trkpt>
      <trkpt lat="40.399856977164745" lon="-3.335115015506744">
        <ele>717.79999999999995</ele>
        <time>1970-01-01T02:35:51Z</time>
      </trkpt>
      <trkpt lat="40.399873992428184" lon="-3.335067993029952">
        <ele>717.79999999999995</ele>
        <time>1970-01-01T02:35:52Z</time>
      </trkpt>
      <trkpt lat="40.399886984378099" lon="-3.335033040493727">
        <ele>717.79999999999995</ele>
        <time>1970-01-01T02:35:54Z</time>
      </trkpt>
      <trkpt lat="40.399899976328015" lon="-3.334991969168186">
        <ele>717.79999999999995</ele>
        <time>1970-01-01T02:35:55Z</time>
      </trkpt>
      <trkpt lat="40.39990802295506" lon="-3.334953999146819">
        <ele>717.79999999999995</ele>
        <time>1970-01-01T02:35:56Z</time>
      </trkpt>
      <trkpt lat="40.399921014904976" lon="-3.334918962791562">
        <ele>717.79999999999995</ele>
        <time>1970-01-01T02:35:58Z</time>
      </trkpt>
      <trkpt lat="40.399925960227847" lon="-3.334900019690394">
        <ele>717.79999999999995</ele>
        <time>1970-01-01T02:35:59Z</time>
      </trkpt>
      <trkpt lat="40.399948004633188" lon="-3.334832964465022">
        <ele>717.79999999999995</ele>
        <time>1970-01-01T02:36:00Z</time>
      </trkpt>
      <trkpt lat="40.399967031553388" lon="-3.334788959473372">
        <ele>717.70000000000005</ele>
        <time>1970-01-01T02:36:02Z</time>
      </trkpt>
      <trkpt lat="40.399980023503304" lon="-3.334756018593907">
        <ele>717.70000000000005</ele>
        <time>1970-01-01T02:36:03Z</time>
      </trkpt>
      <trkpt lat="40.399991003796458" lon="-3.33471997641027">
        <ele>717.70000000000005</ele>
        <time>1970-01-01T02:36:04Z</time>
      </trkpt>
      <trkpt lat="40.400005001574755" lon="-3.334644958376885">
        <ele>717.70000000000005</ele>
        <time>1970-01-01T02:36:05Z</time>
      </trkpt>
      <trkpt lat="40.400007013231516" lon="-3.334589973092079">
        <ele>717.79999999999995</ele>
        <time>1970-01-01T02:36:07Z</time>
      </trkpt>
      <trkpt lat="40.400008019059896" lon="-3.33456801250577">
        <ele>717.79999999999995</ele>
        <time>1970-01-01T02:36:08Z</time>
      </trkpt>
      <trkpt lat="40.400011958554387" lon="-3.334510009735823">
        <ele>717.79999999999995</ele>
        <time>1970-01-01T02:36:09Z</time>
      </trkpt>
      <trkpt lat="40.400018999353051" lon="-3.334441026672721">
        <ele>718</ele>
        <time>1970-01-01T02:36:11Z</time>
      </trkpt>
      <trkpt lat="40.400026962161064" lon="-3.334392998367548">
        <ele>718.10000000000002</ele>
        <time>1970-01-01T02:36:12Z</time>
      </trkpt>
      <trkpt lat="40.400036014616489" lon="-3.334361985325813">
        <ele>718.20000000000005</ele>
        <time>1970-01-01T02:36:13Z</time>
      </trkpt>
      <trkpt lat="40.400054035708308" lon="-3.334317980334163">
        <ele>718.39999999999998</ele>
        <time>1970-01-01T02:36:15Z</time>
      </trkpt>
      <trkpt lat="40.400086976587772" lon="-3.334253020584583">
        <ele>718.60000000000002</ele>
        <time>1970-01-01T02:36:16Z</time>
      </trkpt>
      <trkpt lat="40.400118995457888" lon="-3.334213960915804">
        <ele>718.79999999999995</ele>
        <time>1970-01-01T02:36:17Z</time>
      </trkpt>
      <trkpt lat="40.400142967700958" lon="-3.334165010601282">
        <ele>719.10000000000002</ele>
        <time>1970-01-01T02:36:19Z</time>
      </trkpt>
      <trkpt lat="40.400149002671242" lon="-3.334125028923154">
        <ele>719.29999999999995</ele>
        <time>1970-01-01T02:36:20Z</time>
      </trkpt>
      <trkpt lat="40.400156965479255" lon="-3.334049005061388">
        <ele>719.60000000000002</ele>
        <time>1970-01-01T02:36:21Z</time>
      </trkpt>
      <trkpt lat="40.400171969085932" lon="-3.334018997848034">
        <ele>719.79999999999995</ele>
        <time>1970-01-01T02:36:23Z</time>
      </trkpt>
      <trkpt lat="40.400176998227835" lon="-3.334008017554879">
        <ele>719.89999999999998</ele>
        <time>1970-01-01T02:36:24Z</time>
      </trkpt>
      <trkpt lat="40.400202982127666" lon="-3.33396602421999">
        <ele>720.10000000000002</ele>
        <time>1970-01-01T02:36:25Z</time>
      </trkpt>
      <trkpt lat="40.400215974077582" lon="-3.333949008956552">
        <ele>720.29999999999995</ele>
        <time>1970-01-01T02:36:26Z</time>
      </trkpt>
      <trkpt lat="40.400235000997782" lon="-3.333930987864733">
        <ele>720.39999999999998</ele>
        <time>1970-01-01T02:36:27Z</time>
      </trkpt>
      <trkpt lat="40.400247992947698" lon="-3.333899974822998">
        <ele>720.60000000000002</ele>
        <time>1970-01-01T02:36:29Z</time>
      </trkpt>
      <trkpt lat="40.400266014039516" lon="-3.333833003416657">
        <ele>721</ele>
        <time>1970-01-01T02:36:30Z</time>
      </trkpt>
      <trkpt lat="40.400272971019149" lon="-3.333820011466742">
        <ele>721</ele>
        <time>1970-01-01T02:36:32Z</time>
      </trkpt>
      <trkpt lat="40.400290992110968" lon="-3.333804002031684">
        <ele>721.20000000000005</ele>
        <time>1970-01-01T02:36:33Z</time>
      </trkpt>
      <trkpt lat="40.400298032909632" lon="-3.333793021738529">
        <ele>721.29999999999995</ele>
        <time>1970-01-01T02:36:35Z</time>
      </trkpt>
      <trkpt lat="40.400302978232503" lon="-3.333786986768246">
        <ele>721.29999999999995</ele>
        <time>1970-01-01T02:36:36Z</time>
      </trkpt>
      <trkpt lat="40.400313958525658" lon="-3.333770977333188">
        <ele>721.5</ele>
        <time>1970-01-01T02:36:38Z</time>
      </trkpt>
      <trkpt lat="40.400315970182419" lon="-3.333758991211653">
        <ele>721.5</ele>
        <time>1970-01-01T02:36:40Z</time>
      </trkpt>
      <trkpt lat="40.400318987667561" lon="-3.333747005090118">
        <ele>721.60000000000002</ele>
        <time>1970-01-01T02:36:41Z</time>
      </trkpt>
      <trkpt lat="40.400325022637844" lon="-3.333735018968582">
        <ele>721.70000000000005</ele>
        <time>1970-01-01T02:36:42Z</time>
      </trkpt>
      <trkpt lat="40.400346983224154" lon="-3.333707023411989">
        <ele>721.89999999999998</ele>
        <time>1970-01-01T02:36:43Z</time>
      </trkpt>
      <trkpt lat="40.400356035679579" lon="-3.333695959299803">
        <ele>722</ele>
        <time>1970-01-01T02:36:44Z</time>
      </trkpt>
      <trkpt lat="40.400383025407791" lon="-3.333670981228352">
        <ele>722.29999999999995</ele>
        <time>1970-01-01T02:36:46Z</time>
      </trkpt>
      <trkpt lat="40.400396017357707" lon="-3.33366796374321">
        <ele>722.39999999999998</ele>
        <time>1970-01-01T02:36:47Z</time>
      </trkpt>
      <trkpt lat="40.400400962680578" lon="-3.333661006763578">
        <ele>722.39999999999998</ele>
        <time>1970-01-01T02:36:49Z</time>
      </trkpt>
      <trkpt lat="40.400405991822481" lon="-3.333652960136533">
        <ele>722.5</ele>
        <time>1970-01-01T02:36:50Z</time>
      </trkpt>
      <trkpt lat="40.400416972115636" lon="-3.333643991500139">
        <ele>722.60000000000002</ele>
        <time>1970-01-01T02:36:52Z</time>
      </trkpt>
      <trkpt lat="40.400447985157371" lon="-3.333615995943546">
        <ele>722.79999999999995</ele>
        <time>1970-01-01T02:36:53Z</time>
      </trkpt>
      <trkpt lat="40.40046701207757" lon="-3.333597974851728">
        <ele>723</ele>
        <time>1970-01-01T02:36:55Z</time>
      </trkpt>
      <trkpt lat="40.400497019290924" lon="-3.333566961809993">
        <ele>723.20000000000005</ele>
        <time>1970-01-01T02:36:57Z</time>
      </trkpt>
      <trkpt lat="40.400511017069221" lon="-3.333549024537206">
        <ele>723.39999999999998</ele>
        <time>1970-01-01T02:36:58Z</time>
      </trkpt>
      <trkpt lat="40.400520991533995" lon="-3.33353603258729">
        <ele>723.5</ele>
        <time>1970-01-01T02:36:59Z</time>
      </trkpt>
      <trkpt lat="40.400529960170388" lon="-3.333508959040046">
        <ele>723.60000000000002</ele>
        <time>1970-01-01T02:37:00Z</time>
      </trkpt>
      <trkpt lat="40.400528032332659" lon="-3.333497978746891">
        <ele>723.60000000000002</ele>
        <time>1970-01-01T02:37:02Z</time>
      </trkpt>
      <trkpt lat="40.400527026504278" lon="-3.333485992625356">
        <ele>723.70000000000005</ele>
        <time>1970-01-01T02:37:04Z</time>
      </trkpt>
      <trkpt lat="40.400526020675898" lon="-3.33347400650382">
        <ele>723.70000000000005</ele>
        <time>1970-01-01T02:37:05Z</time>
      </trkpt>
      <trkpt lat="40.400524009019136" lon="-3.333463026210666">
        <ele>723.79999999999995</ele>
        <time>1970-01-01T02:37:07Z</time>
      </trkpt>
      <trkpt lat="40.400523003190756" lon="-3.33345104008913">
        <ele>723.79999999999995</ele>
        <time>1970-01-01T02:37:08Z</time>
      </trkpt>
      <trkpt lat="40.400509005412459" lon="-3.333421032875776">
        <ele>723.89999999999998</ele>
        <time>1970-01-01T02:37:09Z</time>
      </trkpt>
      <trkpt lat="40.400506993755698" lon="-3.333394965156913">
        <ele>724</ele>
        <time>1970-01-01T02:37:11Z</time>
      </trkpt>
      <trkpt lat="40.400504982098937" lon="-3.333354983478785">
        <ele>724.10000000000002</ele>
        <time>1970-01-01T02:37:12Z</time>
      </trkpt>
      <trkpt lat="40.400503976270556" lon="-3.333342997357249">
        <ele>724.10000000000002</ele>
        <time>1970-01-01T02:37:13Z</time>
      </trkpt>
      <trkpt lat="40.400502970442176" lon="-3.333305027335882">
        <ele>724.20000000000005</ele>
        <time>1970-01-01T02:37:14Z</time>
      </trkpt>
      <trkpt lat="40.400523003190756" lon="-3.333191033452749">
        <ele>724.10000000000002</ele>
        <time>1970-01-01T02:37:16Z</time>
      </trkpt>
      <trkpt lat="40.400542030110955" lon="-3.333117021247745">
        <ele>724</ele>
        <time>1970-01-01T02:37:17Z</time>
      </trkpt>
      <trkpt lat="40.400538006797433" lon="-3.333077039569616">
        <ele>724</ele>
        <time>1970-01-01T02:37:18Z</time>
      </trkpt>
      <trkpt lat="40.400521997362375" lon="-3.333017025142908">
        <ele>724.10000000000002</ele>
        <time>1970-01-01T02:37:20Z</time>
      </trkpt>
      <trkpt lat="40.400519985705614" lon="-3.332992969080806">
        <ele>724.10000000000002</ele>
        <time>1970-01-01T02:37:21Z</time>
      </trkpt>
      <trkpt lat="40.400516968220472" lon="-3.332970002666116">
        <ele>724.20000000000005</ele>
        <time>1970-01-01T02:37:22Z</time>
      </trkpt>
      <trkpt lat="40.400529038161039" lon="-3.332937983796001">
        <ele>724.20000000000005</ele>
        <time>1970-01-01T02:37:24Z</time>
      </trkpt>
      <trkpt lat="40.400529038161039" lon="-3.332885010167956">
        <ele>724.39999999999998</ele>
        <time>1970-01-01T02:37:26Z</time>
      </trkpt>
      <trkpt lat="40.400529960170388" lon="-3.332884004339576">
        <ele>724.39999999999998</ele>
        <time>1970-01-01T02:37:27Z</time>
      </trkpt>
      <trkpt lat="40.400529038161039" lon="-3.332890961319208">
        <ele>724.39999999999998</ele>
        <time>1970-01-01T02:37:28Z</time>
      </trkpt>
      <trkpt lat="40.400517974048853" lon="-3.332890039309859">
        <ele>724.39999999999998</ele>
        <time>1970-01-01T02:37:29Z</time>
      </trkpt>
      <trkpt lat="40.400509005412459" lon="-3.332886015996337">
        <ele>724.39999999999998</ele>
        <time>1970-01-01T02:37:30Z</time>
      </trkpt>
      <trkpt lat="40.400501964613795" lon="-3.332881992682815">
        <ele>724.5</ele>
        <time>1970-01-01T02:37:32Z</time>
      </trkpt>
      <trkpt lat="40.400494001805782" lon="-3.332876963540912">
        <ele>724.5</ele>
        <time>1970-01-01T02:37:33Z</time>
      </trkpt>
      <trkpt lat="40.40048997849226" lon="-3.332874029874802">
        <ele>724.5</ele>
        <time>1970-01-01T02:37:35Z</time>
      </trkpt>
      <trkpt lat="40.40048997849226" lon="-3.332873024046421">
        <ele>724.5</ele>
        <time>1970-01-01T02:37:36Z</time>
      </trkpt>
      <trkpt lat="40.400492995977402" lon="-3.332875035703182">
        <ele>724.5</ele>
        <time>1970-01-01T02:37:37Z</time>
      </trkpt>
      <trkpt lat="40.400494001805782" lon="-3.332874029874802">
        <ele>724.5</ele>
        <time>1970-01-01T02:37:38Z</time>
      </trkpt>
      <trkpt lat="40.400487966835499" lon="-3.332865983247757">
        <ele>724.5</ele>
        <time>1970-01-01T02:37:39Z</time>
      </trkpt>
      <trkpt lat="40.400478998199105" lon="-3.33285097964108">
        <ele>724.5</ele>
        <time>1970-01-01T02:37:40Z</time>
      </trkpt>
      <trkpt lat="40.400474974885583" lon="-3.332837987691164">
        <ele>724.5</ele>
        <time>1970-01-01T02:37:42Z</time>
      </trkpt>
      <trkpt lat="40.400475980713964" lon="-3.332835976034403">
        <ele>724.5</ele>
        <time>1970-01-01T02:37:43Z</time>
      </trkpt>
      <trkpt lat="40.400474974885583" lon="-3.332830024883151">
        <ele>724.5</ele>
        <time>1970-01-01T02:37:44Z</time>
      </trkpt>
      <trkpt lat="40.400472963228822" lon="-3.332819966599345">
        <ele>724.5</ele>
        <time>1970-01-01T02:37:46Z</time>
      </trkpt>
      <trkpt lat="40.400472963228822" lon="-3.332809992134571">
        <ele>724.5</ele>
        <time>1970-01-01T02:37:47Z</time>
      </trkpt>
      <trkpt lat="40.400473969057202" lon="-3.332789959385991">
        <ele>724.39999999999998</ele>
        <time>1970-01-01T02:37:49Z</time>
      </trkpt>
      <trkpt lat="40.400478998199105" lon="-3.332773027941585">
        <ele>724.39999999999998</ele>
        <time>1970-01-01T02:37:50Z</time>
      </trkpt>
      <trkpt lat="40.400483021512628" lon="-3.332761963829398">
        <ele>724.39999999999998</ele>
        <time>1970-01-01T02:37:51Z</time>
      </trkpt>
      <trkpt lat="40.400486961007118" lon="-3.332752995193005">
        <ele>724.39999999999998</ele>
        <time>1970-01-01T02:37:52Z</time>
      </trkpt>
      <trkpt lat="40.40048997849226" lon="-3.332736985757947">
        <ele>724.29999999999995</ele>
        <time>1970-01-01T02:37:54Z</time>
      </trkpt>
      <trkpt lat="40.400491990149021" lon="-3.332709996029735">
        <ele>724.29999999999995</ele>
        <time>1970-01-01T02:37:55Z</time>
      </trkpt>
      <trkpt lat="40.400490984320641" lon="-3.332682000473142">
        <ele>724.20000000000005</ele>
        <time>1970-01-01T02:37:57Z</time>
      </trkpt>
      <trkpt lat="40.400496013462543" lon="-3.332674959674478">
        <ele>724.20000000000005</ele>
        <time>1970-01-01T02:37:58Z</time>
      </trkpt>
      <trkpt lat="40.400501964613795" lon="-3.332672026008368">
        <ele>724.20000000000005</ele>
        <time>1970-01-01T02:37:59Z</time>
      </trkpt>
      <trkpt lat="40.400506993755698" lon="-3.332669008523226">
        <ele>724.10000000000002</ele>
        <time>1970-01-01T02:38:00Z</time>
      </trkpt>
      <trkpt lat="40.400509005412459" lon="-3.332661967724562">
        <ele>724.10000000000002</ele>
        <time>1970-01-01T02:38:02Z</time>
      </trkpt>
      <trkpt lat="40.400515040382743" lon="-3.332660961896181">
        <ele>724.10000000000002</ele>
        <time>1970-01-01T02:38:04Z</time>
      </trkpt>
      <trkpt lat="40.400516968220472" lon="-3.332663979381323">
        <ele>724.10000000000002</ele>
        <time>1970-01-01T02:38:06Z</time>
      </trkpt>
      <trkpt lat="40.400521997362375" lon="-3.332674959674478">
        <ele>724.10000000000002</ele>
        <time>1970-01-01T02:38:07Z</time>
      </trkpt>
      <trkpt lat="40.400521997362375" lon="-3.332677977159619">
        <ele>724.10000000000002</ele>
        <time>1970-01-01T02:38:09Z</time>
      </trkpt>
      <trkpt lat="40.400518979877234" lon="-3.332673031836748">
        <ele>724.10000000000002</ele>
        <time>1970-01-01T02:38:10Z</time>
      </trkpt>
      <trkpt lat="40.400472963228822" lon="-3.332637995481491">
        <ele>724.10000000000002</ele>
        <time>1970-01-01T02:38:45Z</time>
      </trkpt>
      <trkpt lat="40.400468017905951" lon="-3.332607988268137">
        <ele>724.20000000000005</ele>
        <time>1970-01-01T02:38:46Z</time>
      </trkpt>
      <trkpt lat="40.400468017905951" lon="-3.332576975226402">
        <ele>724.20000000000005</ele>
        <time>1970-01-01T02:38:48Z</time>
      </trkpt>
      <trkpt lat="40.400476986542344" lon="-3.332540011033416">
        <ele>724.39999999999998</ele>
        <time>1970-01-01T02:38:49Z</time>
      </trkpt>
      <trkpt lat="40.400482015684247" lon="-3.332493994385004">
        <ele>724.5</ele>
        <time>1970-01-01T02:38:51Z</time>
      </trkpt>
      <trkpt lat="40.400490984320641" lon="-3.332445966079831">
        <ele>724.70000000000005</ele>
        <time>1970-01-01T02:38:52Z</time>
      </trkpt>
      <trkpt lat="40.400499030947685" lon="-3.332366002723575">
        <ele>725.10000000000002</ele>
        <time>1970-01-01T02:38:53Z</time>
      </trkpt>
      <trkpt lat="40.400505987927318" lon="-3.332284027710557">
        <ele>725.5</ele>
        <time>1970-01-01T02:38:55Z</time>
      </trkpt>
      <trkpt lat="40.400516968220472" lon="-3.332197023555636">
        <ele>725.79999999999995</ele>
        <time>1970-01-01T02:38:57Z</time>
      </trkpt>
      <trkpt lat="40.400521997362375" lon="-3.332137009128928">
        <ele>725.89999999999998</ele>
        <time>1970-01-01T02:38:58Z</time>
      </trkpt>
      <trkpt lat="40.400520991533995" lon="-3.332096021622419">
        <ele>726</ele>
        <time>1970-01-01T02:38:59Z</time>
      </trkpt>
      <trkpt lat="40.400513028725982" lon="-3.332060985267162">
        <ele>726.10000000000002</ele>
        <time>1970-01-01T02:39:01Z</time>
      </trkpt>
      <trkpt lat="40.400496013462543" lon="-3.332021003589034">
        <ele>726.20000000000005</ele>
        <time>1970-01-01T02:39:02Z</time>
      </trkpt>
      <trkpt lat="40.400482015684247" lon="-3.331984039396048">
        <ele>726.29999999999995</ele>
        <time>1970-01-01T02:39:03Z</time>
      </trkpt>
      <trkpt lat="40.400471035391092" lon="-3.331945985555649">
        <ele>726.5</ele>
        <time>1970-01-01T02:39:04Z</time>
      </trkpt>
      <trkpt lat="40.400463994592428" lon="-3.331902986392379">
        <ele>726.60000000000002</ele>
        <time>1970-01-01T02:39:06Z</time>
      </trkpt>
      <trkpt lat="40.400462988764048" lon="-3.331891000270844">
        <ele>726.70000000000005</ele>
        <time>1970-01-01T02:39:07Z</time>
      </trkpt>
      <trkpt lat="40.400469023734331" lon="-3.331848001107574">
        <ele>726.79999999999995</ele>
        <time>1970-01-01T02:39:08Z</time>
      </trkpt>
      <trkpt lat="40.400472963228822" lon="-3.331835009157658">
        <ele>726.89999999999998</ele>
        <time>1970-01-01T02:39:09Z</time>
      </trkpt>
      <trkpt lat="40.400485033169389" lon="-3.331795027479529">
        <ele>727.10000000000002</ele>
        <time>1970-01-01T02:39:10Z</time>
      </trkpt>
      <trkpt lat="40.40048997849226" lon="-3.331778012216091">
        <ele>727.10000000000002</ele>
        <time>1970-01-01T02:39:11Z</time>
      </trkpt>
      <trkpt lat="40.400500036776066" lon="-3.331707017496228">
        <ele>727.5</ele>
        <time>1970-01-01T02:39:13Z</time>
      </trkpt>
      <trkpt lat="40.400504982098937" lon="-3.331681033596396">
        <ele>727.70000000000005</ele>
        <time>1970-01-01T02:39:15Z</time>
      </trkpt>
      <trkpt lat="40.400509005412459" lon="-3.331653960049152">
        <ele>727.79999999999995</ele>
        <time>1970-01-01T02:39:16Z</time>
      </trkpt>
      <trkpt lat="40.400513028725982" lon="-3.331627976149321">
        <ele>728</ele>
        <time>1970-01-01T02:39:17Z</time>
      </trkpt>
      <trkpt lat="40.400519985705614" lon="-3.331598974764347">
        <ele>728.10000000000002</ele>
        <time>1970-01-01T02:39:19Z</time>
      </trkpt>
      <trkpt lat="40.400523003190756" lon="-3.331585982814431">
        <ele>728.20000000000005</ele>
        <time>1970-01-01T02:39:20Z</time>
      </trkpt>
      <trkpt lat="40.400526020675898" lon="-3.331571985036135">
        <ele>728.29999999999995</ele>
        <time>1970-01-01T02:39:21Z</time>
      </trkpt>
      <trkpt lat="40.400539012625813" lon="-3.331539966166019">
        <ele>728.5</ele>
        <time>1970-01-01T02:39:23Z</time>
      </trkpt>
      <trkpt lat="40.400557033717632" lon="-3.331509958952665">
        <ele>728.70000000000005</ele>
        <time>1970-01-01T02:39:25Z</time>
      </trkpt>
      <trkpt lat="40.400568014010787" lon="-3.331495961174369">
        <ele>728.79999999999995</ele>
        <time>1970-01-01T02:39:26Z</time>
      </trkpt>
      <trkpt lat="40.400578994303942" lon="-3.331479029729962">
        <ele>729</ele>
        <time>1970-01-01T02:39:27Z</time>
      </trkpt>
      <trkpt lat="40.400576982647181" lon="-3.331477018073201">
        <ele>729</ele>
        <time>1970-01-01T02:39:29Z</time>
      </trkpt>
      <trkpt lat="40.400580000132322" lon="-3.331482969224453">
        <ele>729</ele>
        <time>1970-01-01T02:39:31Z</time>
      </trkpt>
      <trkpt lat="40.400589974597096" lon="-3.331480035558343">
        <ele>729.10000000000002</ele>
        <time>1970-01-01T02:39:32Z</time>
      </trkpt>
      <trkpt lat="40.400597015395761" lon="-3.331463020294905">
        <ele>729.20000000000005</ele>
        <time>1970-01-01T02:39:33Z</time>
      </trkpt>
      <trkpt lat="40.400605984032154" lon="-3.331425972282887">
        <ele>729.5</ele>
        <time>1970-01-01T02:39:35Z</time>
      </trkpt>
      <trkpt lat="40.400611013174057" lon="-3.331388002261519">
        <ele>729.70000000000005</ele>
        <time>1970-01-01T02:39:36Z</time>
      </trkpt>
      <trkpt lat="40.40061897598207" lon="-3.331342991441488">
        <ele>730</ele>
        <time>1970-01-01T02:39:37Z</time>
      </trkpt>
      <trkpt lat="40.400629034265876" lon="-3.331297980621457">
        <ele>730.29999999999995</ele>
        <time>1970-01-01T02:39:38Z</time>
      </trkpt>
      <trkpt lat="40.400656023994088" lon="-3.33119697868824">
        <ele>731.10000000000002</ele>
        <time>1970-01-01T02:39:40Z</time>
      </trkpt>
      <trkpt lat="40.400673961266875" lon="-3.331120032817125">
        <ele>731.70000000000005</ele>
        <time>1970-01-01T02:39:41Z</time>
      </trkpt>
      <trkpt lat="40.400686031207442" lon="-3.331070998683572">
        <ele>732.10000000000002</ele>
        <time>1970-01-01T02:39:42Z</time>
      </trkpt>
      <trkpt lat="40.400702962651849" lon="-3.331011990085244">
        <ele>732.60000000000002</ele>
        <time>1970-01-01T02:39:44Z</time>
      </trkpt>
      <trkpt lat="40.400721989572048" lon="-3.330960022285581">
        <ele>733</ele>
        <time>1970-01-01T02:39:45Z</time>
      </trkpt>
      <trkpt lat="40.400736993178725" lon="-3.330911993980408">
        <ele>733.39999999999998</ele>
        <time>1970-01-01T02:39:46Z</time>
      </trkpt>
      <trkpt lat="40.400748979300261" lon="-3.330866983160377">
        <ele>733.70000000000005</ele>
        <time>1970-01-01T02:39:47Z</time>
      </trkpt>
      <trkpt lat="40.400759037584066" lon="-3.330825995653868">
        <ele>734</ele>
        <time>1970-01-01T02:39:48Z</time>
      </trkpt>
      <trkpt lat="40.40076800622046" lon="-3.330773022025824">
        <ele>734.29999999999995</ele>
        <time>1970-01-01T02:39:50Z</time>
      </trkpt>
      <trkpt lat="40.400774963200092" lon="-3.330741003155708">
        <ele>734.5</ele>
        <time>1970-01-01T02:39:51Z</time>
      </trkpt>
      <trkpt lat="40.400786027312279" lon="-3.330684006214142">
        <ele>734.70000000000005</ele>
        <time>1970-01-01T02:39:52Z</time>
      </trkpt>
      <trkpt lat="40.400794995948672" lon="-3.330632960423827">
        <ele>734.89999999999998</ele>
        <time>1970-01-01T02:39:54Z</time>
      </trkpt>
      <trkpt lat="40.400809999555349" lon="-3.330564983189106">
        <ele>735.10000000000002</ele>
        <time>1970-01-01T02:39:55Z</time>
      </trkpt>
      <trkpt lat="40.400820979848504" lon="-3.330516032874584">
        <ele>735.29999999999995</ele>
        <time>1970-01-01T02:39:57Z</time>
      </trkpt>
      <trkpt lat="40.400837995111942" lon="-3.330459035933018">
        <ele>735.39999999999998</ele>
        <time>1970-01-01T02:39:58Z</time>
      </trkpt>
      <trkpt lat="40.400846963748336" lon="-3.330415030941367">
        <ele>735.5</ele>
        <time>1970-01-01T02:39:59Z</time>
      </trkpt>
      <trkpt lat="40.400851992890239" lon="-3.330373037606478">
        <ele>735.60000000000002</ele>
        <time>1970-01-01T02:40:01Z</time>
      </trkpt>
      <trkpt lat="40.400859033688903" lon="-3.33033598959446">
        <ele>735.70000000000005</ele>
        <time>1970-01-01T02:40:02Z</time>
      </trkpt>
      <trkpt lat="40.400861967355013" lon="-3.330248985439539">
        <ele>735.79999999999995</ele>
        <time>1970-01-01T02:40:04Z</time>
      </trkpt>
      <trkpt lat="40.400855010375381" lon="-3.330216966569424">
        <ele>735.79999999999995</ele>
        <time>1970-01-01T02:40:05Z</time>
      </trkpt>
      <trkpt lat="40.400843024253845" lon="-3.330180002376437">
        <ele>735.79999999999995</ele>
        <time>1970-01-01T02:40:07Z</time>
      </trkpt>
      <trkpt lat="40.400817040354013" lon="-3.330145971849561">
        <ele>735.89999999999998</ele>
        <time>1970-01-01T02:40:09Z</time>
      </trkpt>
      <trkpt lat="40.400809999555349" lon="-3.330135997384787">
        <ele>734.89999999999998</ele>
        <time>1970-01-01T02:40:11Z</time>
      </trkpt>
      <trkpt lat="40.40081100538373" lon="-3.330139014869928">
        <ele>735</ele>
        <time>1970-01-01T02:40:13Z</time>
      </trkpt>
      <trkpt lat="40.400809999555349" lon="-3.33014203235507">
        <ele>735</ele>
        <time>1970-01-01T02:40:14Z</time>
      </trkpt>
      <trkpt lat="40.400807987898588" lon="-3.330143038183451">
        <ele>735.10000000000002</ele>
        <time>1970-01-01T02:40:15Z</time>
      </trkpt>
      <trkpt lat="40.400799019262195" lon="-3.33014496602118">
        <ele>735.29999999999995</ele>
        <time>1970-01-01T02:40:17Z</time>
      </trkpt>
      <trkpt lat="40.400801030918956" lon="-3.330151000991464">
        <ele>735.29999999999995</ele>
        <time>1970-01-01T02:40:19Z</time>
      </trkpt>
      <trkpt lat="40.400804970413446" lon="-3.330156030133367">
        <ele>735.39999999999998</ele>
        <time>1970-01-01T02:40:21Z</time>
      </trkpt>
      <trkpt lat="40.40081100538373" lon="-3.330220989882946">
        <ele>735.60000000000002</ele>
        <time>1970-01-01T02:40:35Z</time>
      </trkpt>
      <trkpt lat="40.400809999555349" lon="-3.330221995711327">
        <ele>735.70000000000005</ele>
        <time>1970-01-01T02:40:37Z</time>
      </trkpt>
      <trkpt lat="40.400809999555349" lon="-3.330223001539707">
        <ele>735.70000000000005</ele>
        <time>1970-01-01T02:40:39Z</time>
      </trkpt>
      <trkpt lat="40.400809999555349" lon="-3.330223001539707">
        <ele>735.79999999999995</ele>
        <time>1970-01-01T02:40:40Z</time>
      </trkpt>
      <trkpt lat="40.400809999555349" lon="-3.330221995711327">
        <ele>735.79999999999995</ele>
        <time>1970-01-01T02:40:42Z</time>
      </trkpt>
      <trkpt lat="40.400809999555349" lon="-3.330218978226185">
        <ele>735.89999999999998</ele>
        <time>1970-01-01T02:40:44Z</time>
      </trkpt>
      <trkpt lat="40.400809999555349" lon="-3.330217972397804">
        <ele>735.89999999999998</ele>
        <time>1970-01-01T02:40:45Z</time>
      </trkpt>
      <trkpt lat="40.400809999555349" lon="-3.330218978226185">
        <ele>736</ele>
        <time>1970-01-01T02:40:47Z</time>
      </trkpt>
      <trkpt lat="40.40081100538373" lon="-3.330219984054565">
        <ele>736</ele>
        <time>1970-01-01T02:40:48Z</time>
      </trkpt>
      <trkpt lat="40.40081100538373" lon="-3.330219984054565">
        <ele>736.10000000000002</ele>
        <time>1970-01-01T02:40:49Z</time>
      </trkpt>
      <trkpt lat="40.400809999555349" lon="-3.330220989882946">
        <ele>736.10000000000002</ele>
        <time>1970-01-01T02:40:51Z</time>
      </trkpt>
      <trkpt lat="40.400808993726969" lon="-3.330220989882946">
        <ele>736.20000000000005</ele>
        <time>1970-01-01T02:40:52Z</time>
      </trkpt>
      <trkpt lat="40.400808993726969" lon="-3.330221995711327">
        <ele>736.20000000000005</ele>
        <time>1970-01-01T02:40:53Z</time>
      </trkpt>
      <trkpt lat="40.400806982070208" lon="-3.330224007368088">
        <ele>736.29999999999995</ele>
        <time>1970-01-01T02:40:55Z</time>
      </trkpt>
      <trkpt lat="40.400807987898588" lon="-3.330225013196468">
        <ele>736.29999999999995</ele>
        <time>1970-01-01T02:40:57Z</time>
      </trkpt>
      <trkpt lat="40.400808993726969" lon="-3.330224007368088">
        <ele>736.39999999999998</ele>
        <time>1970-01-01T02:40:59Z</time>
      </trkpt>
      <trkpt lat="40.400809999555349" lon="-3.330223001539707">
        <ele>736.39999999999998</ele>
        <time>1970-01-01T02:41:01Z</time>
      </trkpt>
      <trkpt lat="40.400801030918956" lon="-3.330223001539707">
        <ele>736.5</ele>
        <time>1970-01-01T02:41:03Z</time>
      </trkpt>
      <trkpt lat="40.400797007605433" lon="-3.330224007368088">
        <ele>736.5</ele>
        <time>1970-01-01T02:41:05Z</time>
      </trkpt>
      <trkpt lat="40.400799019262195" lon="-3.330224007368088">
        <ele>736.60000000000002</ele>
        <time>1970-01-01T02:41:07Z</time>
      </trkpt>
      <trkpt lat="40.400800025090575" lon="-3.330225013196468">
        <ele>736.60000000000002</ele>
        <time>1970-01-01T02:41:08Z</time>
      </trkpt>
      <trkpt lat="40.400800025090575" lon="-3.330224007368088">
        <ele>736.70000000000005</ele>
        <time>1970-01-01T02:41:10Z</time>
      </trkpt>
      <trkpt lat="40.400800025090575" lon="-3.330224007368088">
        <ele>736.70000000000005</ele>
        <time>1970-01-01T02:41:11Z</time>
      </trkpt>
      <trkpt lat="40.400800025090575" lon="-3.330224007368088">
        <ele>736.79999999999995</ele>
        <time>1970-01-01T02:41:12Z</time>
      </trkpt>
      <trkpt lat="40.400800025090575" lon="-3.330224007368088">
        <ele>736.79999999999995</ele>
        <time>1970-01-01T02:41:14Z</time>
      </trkpt>
      <trkpt lat="40.400780998170376" lon="-3.330235993489623">
        <ele>736.29999999999995</ele>
        <time>1970-01-01T02:41:30Z</time>
      </trkpt>
      <trkpt lat="40.400754008442163" lon="-3.330240016803145">
        <ele>736.39999999999998</ele>
        <time>1970-01-01T02:41:31Z</time>
      </trkpt>
      <trkpt lat="40.400729030370712" lon="-3.330238005146384">
        <ele>735.70000000000005</ele>
        <time>1970-01-01T02:41:32Z</time>
      </trkpt>
      <trkpt lat="40.400715032592416" lon="-3.330235993489623">
        <ele>735.20000000000005</ele>
        <time>1970-01-01T02:41:34Z</time>
      </trkpt>
      <trkpt lat="40.4007020406425" lon="-3.330232976004481">
        <ele>735.29999999999995</ele>
        <time>1970-01-01T02:41:35Z</time>
      </trkpt>
      <trkpt lat="40.400687959045172" lon="-3.33023096434772">
        <ele>735.29999999999995</ele>
        <time>1970-01-01T02:41:36Z</time>
      </trkpt>
      <trkpt lat="40.400674967095256" lon="-3.330229036509991">
        <ele>734.70000000000005</ele>
        <time>1970-01-01T02:41:37Z</time>
      </trkpt>
      <trkpt lat="40.400644959881902" lon="-3.330238005146384">
        <ele>734.60000000000002</ele>
        <time>1970-01-01T02:41:39Z</time>
      </trkpt>
      <trkpt lat="40.400630040094256" lon="-3.330240016803145">
        <ele>734.60000000000002</ele>
        <time>1970-01-01T02:41:40Z</time>
      </trkpt>
      <trkpt lat="40.400590980425477" lon="-3.330238005146384">
        <ele>734.29999999999995</ele>
        <time>1970-01-01T02:41:42Z</time>
      </trkpt>
      <trkpt lat="40.400587962940335" lon="-3.330244040116668">
        <ele>734.10000000000002</ele>
        <time>1970-01-01T02:41:44Z</time>
      </trkpt>
      <trkpt lat="40.400584023445845" lon="-3.3302509970963">
        <ele>734.10000000000002</ele>
        <time>1970-01-01T02:41:46Z</time>
      </trkpt>
      <trkpt lat="40.400581005960703" lon="-3.330257032066584">
        <ele>734.20000000000005</ele>
        <time>1970-01-01T02:41:47Z</time>
      </trkpt>
      <trkpt lat="40.400576982647181" lon="-3.330262983217835">
        <ele>734.20000000000005</ele>
        <time>1970-01-01T02:41:48Z</time>
      </trkpt>
      <trkpt lat="40.400572959333658" lon="-3.330269018188119">
        <ele>734.29999999999995</ele>
        <time>1970-01-01T02:41:50Z</time>
      </trkpt>
      <trkpt lat="40.400570025667548" lon="-3.330274969339371">
        <ele>734.39999999999998</ele>
        <time>1970-01-01T02:41:51Z</time>
      </trkpt>
      <trkpt lat="40.400566002354026" lon="-3.330282010138035">
        <ele>734.5</ele>
        <time>1970-01-01T02:41:52Z</time>
      </trkpt>
      <trkpt lat="40.400562984868884" lon="-3.330287961289287">
        <ele>734.5</ele>
        <time>1970-01-01T02:42:28Z</time>
      </trkpt>
      <trkpt lat="40.400558961555362" lon="-3.33029399625957">
        <ele>734.60000000000002</ele>
        <time>1970-01-01T02:42:29Z</time>
      </trkpt>
      <trkpt lat="40.400555022060871" lon="-3.330300031229854">
        <ele>734.29999999999995</ele>
        <time>1970-01-01T02:42:30Z</time>
      </trkpt>
      <trkpt lat="40.400552004575729" lon="-3.330305982381105">
        <ele>734.39999999999998</ele>
        <time>1970-01-01T02:42:31Z</time>
      </trkpt>
      <trkpt lat="40.400547981262207" lon="-3.33031302317977">
        <ele>734.39999999999998</ele>
        <time>1970-01-01T02:42:33Z</time>
      </trkpt>
      <trkpt lat="40.400544963777065" lon="-3.330318974331021">
        <ele>734.5</ele>
        <time>1970-01-01T02:42:34Z</time>
      </trkpt>
      <trkpt lat="40.400541024282575" lon="-3.330325009301305">
        <ele>734.5</ele>
        <time>1970-01-01T02:42:35Z</time>
      </trkpt>
      <trkpt lat="40.400544041767716" lon="-3.330369014292955">
        <ele>734.60000000000002</ele>
        <time>1970-01-01T02:42:36Z</time>
      </trkpt>
      <trkpt lat="40.400544041767716" lon="-3.330385023728013">
        <ele>734.60000000000002</ele>
        <time>1970-01-01T02:42:37Z</time>
      </trkpt>
      <trkpt lat="40.400528032332659" lon="-3.330446965992451">
        <ele>734.60000000000002</ele>
        <time>1970-01-01T02:42:39Z</time>
      </trkpt>
      <trkpt lat="40.400525014847517" lon="-3.330469010397792">
        <ele>734.5</ele>
        <time>1970-01-01T02:42:40Z</time>
      </trkpt>
      <trkpt lat="40.400521997362375" lon="-3.330489965155721">
        <ele>734.39999999999998</ele>
        <time>1970-01-01T02:42:41Z</time>
      </trkpt>
      <trkpt lat="40.400516968220472" lon="-3.330518966540694">
        <ele>734.29999999999995</ele>
        <time>1970-01-01T02:42:43Z</time>
      </trkpt>
      <trkpt lat="40.400517974048853" lon="-3.330587027594447">
        <ele>734.20000000000005</ele>
        <time>1970-01-01T02:42:45Z</time>
      </trkpt>
      <trkpt lat="40.400515962392092" lon="-3.330634972080588">
        <ele>734</ele>
        <time>1970-01-01T02:42:46Z</time>
      </trkpt>
      <trkpt lat="40.40051001124084" lon="-3.330683000385761">
        <ele>733.89999999999998</ele>
        <time>1970-01-01T02:42:47Z</time>
      </trkpt>
      <trkpt lat="40.400500958785415" lon="-3.330728011205792">
        <ele>733.70000000000005</ele>
        <time>1970-01-01T02:42:49Z</time>
      </trkpt>
      <trkpt lat="40.400498025119305" lon="-3.330742008984089">
        <ele>733.70000000000005</ele>
        <time>1970-01-01T02:42:50Z</time>
      </trkpt>
      <trkpt lat="40.400490984320641" lon="-3.330782996490598">
        <ele>733.60000000000002</ele>
        <time>1970-01-01T02:42:52Z</time>
      </trkpt>
      <trkpt lat="40.400465000420809" lon="-3.330828007310629">
        <ele>733.39999999999998</ele>
        <time>1970-01-01T02:42:53Z</time>
      </trkpt>
      <trkpt lat="40.400432981550694" lon="-3.330877041444182">
        <ele>733.20000000000005</ele>
        <time>1970-01-01T02:42:54Z</time>
      </trkpt>
      <trkpt lat="40.400397023186088" lon="-3.330939989537001">
        <ele>733</ele>
        <time>1970-01-01T02:42:56Z</time>
      </trkpt>
      <trkpt lat="40.400369027629495" lon="-3.330983994528651">
        <ele>732.89999999999998</ele>
        <time>1970-01-01T02:42:57Z</time>
      </trkpt>
      <trkpt lat="40.400350000709295" lon="-3.331058006733656">
        <ele>732.70000000000005</ele>
        <time>1970-01-01T02:42:58Z</time>
      </trkpt>
      <trkpt lat="40.40033801458776" lon="-3.331104023382068">
        <ele>732.5</ele>
        <time>1970-01-01T02:42:59Z</time>
      </trkpt>
      <trkpt lat="40.400330973789096" lon="-3.331140987575054">
        <ele>732.39999999999998</ele>
        <time>1970-01-01T02:43:01Z</time>
      </trkpt>
      <trkpt lat="40.400336002930999" lon="-3.331181975081563">
        <ele>732.29999999999995</ele>
        <time>1970-01-01T02:43:02Z</time>
      </trkpt>
      <trkpt lat="40.400347989052534" lon="-3.331197984516621">
        <ele>732.29999999999995</ele>
        <time>1970-01-01T02:43:03Z</time>
      </trkpt>
      <trkpt lat="40.400357963517308" lon="-3.331214999780059">
        <ele>732.20000000000005</ele>
        <time>1970-01-01T02:43:05Z</time>
      </trkpt>
      <trkpt lat="40.400379002094269" lon="-3.331249030306935">
        <ele>732.10000000000002</ele>
        <time>1970-01-01T02:43:07Z</time>
      </trkpt>
      <trkpt lat="40.400404985994101" lon="-3.331292029470205">
        <ele>732</ele>
        <time>1970-01-01T02:43:08Z</time>
      </trkpt>
      <trkpt lat="40.400419989600778" lon="-3.331365035846829">
        <ele>731.79999999999995</ele>
        <time>1970-01-01T02:43:09Z</time>
      </trkpt>
      <trkpt lat="40.400410015136003" lon="-3.331408035010099">
        <ele>731.70000000000005</ele>
        <time>1970-01-01T02:43:11Z</time>
      </trkpt>
      <trkpt lat="40.400390988215804" lon="-3.33147500641644">
        <ele>731.5</ele>
        <time>1970-01-01T02:43:13Z</time>
      </trkpt>
      <trkpt lat="40.400354024022818" lon="-3.331543989479542">
        <ele>731.29999999999995</ele>
        <time>1970-01-01T02:43:15Z</time>
      </trkpt>
      <trkpt lat="40.400341032072902" lon="-3.331591011956334">
        <ele>731.20000000000005</ele>
        <time>1970-01-01T02:43:16Z</time>
      </trkpt>
      <trkpt lat="40.400337008759379" lon="-3.331609033048153">
        <ele>731.20000000000005</ele>
        <time>1970-01-01T02:43:17Z</time>
      </trkpt>
      <trkpt lat="40.400332985445857" lon="-3.331630993634462">
        <ele>731.10000000000002</ele>
        <time>1970-01-01T02:43:19Z</time>
      </trkpt>
      <trkpt lat="40.400330973789096" lon="-3.33164700306952">
        <ele>731.10000000000002</ele>
        <time>1970-01-01T02:43:20Z</time>
      </trkpt>
      <trkpt lat="40.400328962132335" lon="-3.331661000847817">
        <ele>731.10000000000002</ele>
        <time>1970-01-01T02:43:21Z</time>
      </trkpt>
      <trkpt lat="40.400328962132335" lon="-3.331677010282874">
        <ele>731</ele>
        <time>1970-01-01T02:43:22Z</time>
      </trkpt>
      <trkpt lat="40.400330973789096" lon="-3.331715986132622">
        <ele>730.89999999999998</ele>
        <time>1970-01-01T02:43:24Z</time>
      </trkpt>
      <trkpt lat="40.400330973789096" lon="-3.331726966425777">
        <ele>730.89999999999998</ele>
        <time>1970-01-01T02:43:25Z</time>
      </trkpt>
      <trkpt lat="40.400329967960715" lon="-3.33175596781075">
        <ele>730.79999999999995</ele>
        <time>1970-01-01T02:43:26Z</time>
      </trkpt>
      <trkpt lat="40.400328962132335" lon="-3.331801984459162">
        <ele>730.70000000000005</ele>
        <time>1970-01-01T02:43:28Z</time>
      </trkpt>
      <trkpt lat="40.400331979617476" lon="-3.331826040521264">
        <ele>730.70000000000005</ele>
        <time>1970-01-01T02:43:29Z</time>
      </trkpt>
      <trkpt lat="40.400334997102618" lon="-3.331843977794051">
        <ele>730.70000000000005</ele>
        <time>1970-01-01T02:43:31Z</time>
      </trkpt>
      <trkpt lat="40.400342037901282" lon="-3.331860993057489">
        <ele>730.60000000000002</ele>
        <time>1970-01-01T02:43:33Z</time>
      </trkpt>
      <trkpt lat="40.400345977395773" lon="-3.331869039684534">
        <ele>730.60000000000002</ele>
        <time>1970-01-01T02:43:34Z</time>
      </trkpt>
      <trkpt lat="40.400355029851198" lon="-3.331893011927605">
        <ele>730.5</ele>
        <time>1970-01-01T02:43:36Z</time>
      </trkpt>
      <trkpt lat="40.400359975174069" lon="-3.331921007484198">
        <ele>730.5</ele>
        <time>1970-01-01T02:43:37Z</time>
      </trkpt>
      <trkpt lat="40.400366010144353" lon="-3.331945985555649">
        <ele>730.39999999999998</ele>
        <time>1970-01-01T02:43:39Z</time>
      </trkpt>
      <trkpt lat="40.400376990437508" lon="-3.331970041617751">
        <ele>730.29999999999995</ele>
        <time>1970-01-01T02:43:40Z</time>
      </trkpt>
      <trkpt lat="40.400391994044185" lon="-3.331998037174344">
        <ele>730.29999999999995</ele>
        <time>1970-01-01T02:43:42Z</time>
      </trkpt>
      <trkpt lat="40.400404985994101" lon="-3.332032989710569">
        <ele>730.20000000000005</ele>
        <time>1970-01-01T02:43:43Z</time>
      </trkpt>
      <trkpt lat="40.400418983772397" lon="-3.332066014409065">
        <ele>730.10000000000002</ele>
        <time>1970-01-01T02:43:45Z</time>
      </trkpt>
      <trkpt lat="40.4004240129143" lon="-3.332084035500884">
        <ele>730</ele>
        <time>1970-01-01T02:43:46Z</time>
      </trkpt>
      <trkpt lat="40.4004240129143" lon="-3.332101972773671">
        <ele>730</ele>
        <time>1970-01-01T02:43:47Z</time>
      </trkpt>
      <trkpt lat="40.400420995429158" lon="-3.332111025229096">
        <ele>730</ele>
        <time>1970-01-01T02:43:49Z</time>
      </trkpt>
      <trkpt lat="40.400417977944016" lon="-3.332144971936941">
        <ele>729.89999999999998</ele>
        <time>1970-01-01T02:43:50Z</time>
      </trkpt>
      <trkpt lat="40.400408003479242" lon="-3.332199035212398">
        <ele>729.79999999999995</ele>
        <time>1970-01-01T02:43:51Z</time>
      </trkpt>
      <trkpt lat="40.400402974337339" lon="-3.332218984141946">
        <ele>729.70000000000005</ele>
        <time>1970-01-01T02:43:52Z</time>
      </trkpt>
      <trkpt lat="40.400385959073901" lon="-3.332244968041778">
        <ele>729.70000000000005</ele>
        <time>1970-01-01T02:43:54Z</time>
      </trkpt>
      <trkpt lat="40.400380007922649" lon="-3.332256032153964">
        <ele>729.60000000000002</ele>
        <time>1970-01-01T02:43:55Z</time>
      </trkpt>
      <trkpt lat="40.400361986830831" lon="-3.332302970811725">
        <ele>729.5</ele>
        <time>1970-01-01T02:43:57Z</time>
      </trkpt>
      <trkpt lat="40.40036098100245" lon="-3.332395004108548">
        <ele>729.39999999999998</ele>
        <time>1970-01-01T02:43:58Z</time>
      </trkpt>
      <trkpt lat="40.400359975174069" lon="-3.332465998828411">
        <ele>729.29999999999995</ele>
        <time>1970-01-01T02:44:00Z</time>
      </trkpt>
      <trkpt lat="40.400357963517308" lon="-3.332503968849778">
        <ele>729.20000000000005</ele>
        <time>1970-01-01T02:44:01Z</time>
      </trkpt>
      <trkpt lat="40.400353018194437" lon="-3.332546968013048">
        <ele>729.20000000000005</ele>
        <time>1970-01-01T02:44:03Z</time>
      </trkpt>
      <trkpt lat="40.400346983224154" lon="-3.332559959962964">
        <ele>729.20000000000005</ele>
        <time>1970-01-01T02:44:04Z</time>
      </trkpt>
      <trkpt lat="40.400329967960715" lon="-3.332602037116885">
        <ele>729.10000000000002</ele>
        <time>1970-01-01T02:44:06Z</time>
      </trkpt>
      <trkpt lat="40.400327034294605" lon="-3.332617040723562">
        <ele>729.10000000000002</ele>
        <time>1970-01-01T02:44:07Z</time>
      </trkpt>
      <trkpt lat="40.400318987667561" lon="-3.332636989653111">
        <ele>729.10000000000002</ele>
        <time>1970-01-01T02:44:08Z</time>
      </trkpt>
      <trkpt lat="40.400313036516309" lon="-3.332662973552942">
        <ele>729</ele>
        <time>1970-01-01T02:44:10Z</time>
      </trkpt>
      <trkpt lat="40.400304989889264" lon="-3.332690969109535">
        <ele>729</ele>
        <time>1970-01-01T02:44:11Z</time>
      </trkpt>
      <trkpt lat="40.400297027081251" lon="-3.332726005464792">
        <ele>728.89999999999998</ele>
        <time>1970-01-01T02:44:13Z</time>
      </trkpt>
      <trkpt lat="40.400283029302955" lon="-3.332765987142921">
        <ele>728.89999999999998</ele>
        <time>1970-01-01T02:44:14Z</time>
      </trkpt>
      <trkpt lat="40.400275988504291" lon="-3.332783002406359">
        <ele>728.79999999999995</ele>
        <time>1970-01-01T02:44:15Z</time>
      </trkpt>
      <trkpt lat="40.400264002382755" lon="-3.332820972427726">
        <ele>728.79999999999995</ele>
        <time>1970-01-01T02:44:16Z</time>
      </trkpt>
      <trkpt lat="40.400258973240852" lon="-3.332857014611363">
        <ele>728.70000000000005</ele>
        <time>1970-01-01T02:44:17Z</time>
      </trkpt>
      <trkpt lat="40.400256039574742" lon="-3.332894984632731">
        <ele>728.70000000000005</ele>
        <time>1970-01-01T02:44:18Z</time>
      </trkpt>
      <trkpt lat="40.400254027917981" lon="-3.3329570107162">
        <ele>728.60000000000002</ele>
        <time>1970-01-01T02:44:20Z</time>
      </trkpt>
      <trkpt lat="40.400254027917981" lon="-3.332971008494496">
        <ele>728.60000000000002</ele>
        <time>1970-01-01T02:44:22Z</time>
      </trkpt>
      <trkpt lat="40.400254027917981" lon="-3.332971008494496">
        <ele>728.60000000000002</ele>
        <time>1970-01-01T02:44:23Z</time>
      </trkpt>
      <trkpt lat="40.400257967412472" lon="-3.332976037636399">
        <ele>728.60000000000002</ele>
        <time>1970-01-01T02:44:25Z</time>
      </trkpt>
      <trkpt lat="40.400272971019149" lon="-3.332990035414696">
        <ele>728.60000000000002</ele>
        <time>1970-01-01T02:44:26Z</time>
      </trkpt>
      <trkpt lat="40.400299038738012" lon="-3.333009984344244">
        <ele>728.5</ele>
        <time>1970-01-01T02:44:28Z</time>
      </trkpt>
      <trkpt lat="40.400311024859548" lon="-3.333019958809018">
        <ele>728.5</ele>
        <time>1970-01-01T02:44:29Z</time>
      </trkpt>
      <trkpt lat="40.400327034294605" lon="-3.333040997385979">
        <ele>728.5</ele>
        <time>1970-01-01T02:44:31Z</time>
      </trkpt>
      <trkpt lat="40.400342037901282" lon="-3.333071004599333">
        <ele>728.39999999999998</ele>
        <time>1970-01-01T02:44:33Z</time>
      </trkpt>
      <trkpt lat="40.400347989052534" lon="-3.333133030682802">
        <ele>728.29999999999995</ele>
        <time>1970-01-01T02:44:35Z</time>
      </trkpt>
      <trkpt lat="40.400343965739012" lon="-3.333158008754253">
        <ele>728.29999999999995</ele>
        <time>1970-01-01T02:44:36Z</time>
      </trkpt>
      <trkpt lat="40.400341032072902" lon="-3.333182986825705">
        <ele>728.20000000000005</ele>
        <time>1970-01-01T02:44:37Z</time>
      </trkpt>
      <trkpt lat="40.400299960747361" lon="-3.333264039829373">
        <ele>728.10000000000002</ele>
        <time>1970-01-01T02:44:39Z</time>
      </trkpt>
      <trkpt lat="40.400258973240852" lon="-3.333309972658753">
        <ele>727.89999999999998</ele>
        <time>1970-01-01T02:44:41Z</time>
      </trkpt>
      <trkpt lat="40.400219997391105" lon="-3.333347020670772">
        <ele>727.70000000000005</ele>
        <time>1970-01-01T02:44:42Z</time>
      </trkpt>
      <trkpt lat="40.400185966864228" lon="-3.3333679754287">
        <ele>727.60000000000002</ele>
        <time>1970-01-01T02:44:43Z</time>
      </trkpt>
      <trkpt lat="40.400151014328003" lon="-3.333377027884126">
        <ele>727.39999999999998</ele>
        <time>1970-01-01T02:44:45Z</time>
      </trkpt>
      <trkpt lat="40.400139028206468" lon="-3.333379961550236">
        <ele>727.39999999999998</ele>
        <time>1970-01-01T02:44:46Z</time>
      </trkpt>
      <trkpt lat="40.400115977972746" lon="-3.333395970985293">
        <ele>727.20000000000005</ele>
        <time>1970-01-01T02:44:48Z</time>
      </trkpt>
      <trkpt lat="40.400098962709308" lon="-3.333406029269099">
        <ele>727.20000000000005</ele>
        <time>1970-01-01T02:44:49Z</time>
      </trkpt>
      <trkpt lat="40.400095023214817" lon="-3.33340996876359">
        <ele>727.10000000000002</ele>
        <time>1970-01-01T02:44:51Z</time>
      </trkpt>
      <trkpt lat="40.400089994072914" lon="-3.333412986248732">
        <ele>727.10000000000002</ele>
        <time>1970-01-01T02:44:52Z</time>
      </trkpt>
      <trkpt lat="40.400085970759392" lon="-3.333417009562254">
        <ele>727.10000000000002</ele>
        <time>1970-01-01T02:44:53Z</time>
      </trkpt>
      <trkpt lat="40.400081025436521" lon="-3.333421032875776">
        <ele>727</ele>
        <time>1970-01-01T02:44:54Z</time>
      </trkpt>
      <trkpt lat="40.400072978809476" lon="-3.333434024825692">
        <ele>727</ele>
        <time>1970-01-01T02:44:56Z</time>
      </trkpt>
      <trkpt lat="40.400060992687941" lon="-3.333457997068763">
        <ele>726.89999999999998</ele>
        <time>1970-01-01T02:44:57Z</time>
      </trkpt>
      <trkpt lat="40.400049006566405" lon="-3.333494961261749">
        <ele>726.70000000000005</ele>
        <time>1970-01-01T02:44:58Z</time>
      </trkpt>
      <trkpt lat="40.400048000738025" lon="-3.333506025373936">
        <ele>726.60000000000002</ele>
        <time>1970-01-01T02:44:59Z</time>
      </trkpt>
      <trkpt lat="40.400044983252883" lon="-3.333533015102148">
        <ele>726.5</ele>
        <time>1970-01-01T02:45:01Z</time>
      </trkpt>
      <trkpt lat="40.400042971596122" lon="-3.333542989566922">
        <ele>726.5</ele>
        <time>1970-01-01T02:45:03Z</time>
      </trkpt>
      <trkpt lat="40.400040959939361" lon="-3.333552964031696">
        <ele>726.39999999999998</ele>
        <time>1970-01-01T02:45:04Z</time>
      </trkpt>
      <trkpt lat="40.400038026273251" lon="-3.333562016487122">
        <ele>726.39999999999998</ele>
        <time>1970-01-01T02:45:05Z</time>
      </trkpt>
      <trkpt lat="40.400036014616489" lon="-3.333571990951896">
        <ele>726.29999999999995</ele>
        <time>1970-01-01T02:45:06Z</time>
      </trkpt>
      <trkpt lat="40.400034002959728" lon="-3.33358196541667">
        <ele>726.20000000000005</ele>
        <time>1970-01-01T02:45:08Z</time>
      </trkpt>
      <trkpt lat="40.400031991302967" lon="-3.333592023700476">
        <ele>726.20000000000005</ele>
        <time>1970-01-01T02:45:09Z</time>
      </trkpt>
      <trkpt lat="40.400015981867909" lon="-3.333608033135533">
        <ele>726</ele>
        <time>1970-01-01T02:45:10Z</time>
      </trkpt>
      <trkpt lat="40.400001984089613" lon="-3.333613984286785">
        <ele>725.89999999999998</ele>
        <time>1970-01-01T02:45:11Z</time>
      </trkpt>
      <trkpt lat="40.399978011846542" lon="-3.333608033135533">
        <ele>725.70000000000005</ele>
        <time>1970-01-01T02:45:13Z</time>
      </trkpt>
      <trkpt lat="40.399952027946711" lon="-3.333633011206985">
        <ele>725.5</ele>
        <time>1970-01-01T02:45:15Z</time>
      </trkpt>
      <trkpt lat="40.399946998804808" lon="-3.333667041733861">
        <ele>725.20000000000005</ele>
        <time>1970-01-01T02:45:16Z</time>
      </trkpt>
      <trkpt lat="40.399945992976427" lon="-3.333681961521506">
        <ele>725.10000000000002</ele>
        <time>1970-01-01T02:45:17Z</time>
      </trkpt>
      <trkpt lat="40.399939035996795" lon="-3.333734013140202">
        <ele>724.79999999999995</ele>
        <time>1970-01-01T02:45:18Z</time>
      </trkpt>
      <trkpt lat="40.399936018511653" lon="-3.333750022575259">
        <ele>724.60000000000002</ele>
        <time>1970-01-01T02:45:20Z</time>
      </trkpt>
      <trkpt lat="40.399931995198131" lon="-3.333766032010317">
        <ele>724.5</ele>
        <time>1970-01-01T02:45:21Z</time>
      </trkpt>
      <trkpt lat="40.399933001026511" lon="-3.333770977333188">
        <ele>724.5</ele>
        <time>1970-01-01T02:45:22Z</time>
      </trkpt>
      <trkpt lat="40.399929983541369" lon="-3.333791010081768">
        <ele>724.29999999999995</ele>
        <time>1970-01-01T02:45:23Z</time>
      </trkpt>
      <trkpt lat="40.399928977712989" lon="-3.333812970668078">
        <ele>724.10000000000002</ele>
        <time>1970-01-01T02:45:25Z</time>
      </trkpt>
      <trkpt lat="40.399928977712989" lon="-3.333829985931516">
        <ele>724</ele>
        <time>1970-01-01T02:45:26Z</time>
      </trkpt>
      <trkpt lat="40.399933001026511" lon="-3.333850018680096">
        <ele>723.79999999999995</ele>
        <time>1970-01-01T02:45:27Z</time>
      </trkpt>
      <trkpt lat="40.39993098936975" lon="-3.333873990923166">
        <ele>723.70000000000005</ele>
        <time>1970-01-01T02:45:29Z</time>
      </trkpt>
      <trkpt lat="40.399927971884608" lon="-3.333885977044702">
        <ele>723.60000000000002</ele>
        <time>1970-01-01T02:45:30Z</time>
      </trkpt>
      <trkpt lat="40.399919003248215" lon="-3.333900980651379">
        <ele>723.39999999999998</ele>
        <time>1970-01-01T02:45:32Z</time>
      </trkpt>
      <trkpt lat="40.399916991591454" lon="-3.333907015621662">
        <ele>723.29999999999995</ele>
        <time>1970-01-01T02:45:33Z</time>
      </trkpt>
      <trkpt lat="40.399913974106312" lon="-3.333917995914817">
        <ele>723.29999999999995</ele>
        <time>1970-01-01T02:45:34Z</time>
      </trkpt>
      <trkpt lat="40.399907017126679" lon="-3.333932999521494">
        <ele>723.10000000000002</ele>
        <time>1970-01-01T02:45:36Z</time>
      </trkpt>
      <trkpt lat="40.399898970499635" lon="-3.333948003128171">
        <ele>723</ele>
        <time>1970-01-01T02:45:37Z</time>
      </trkpt>
      <trkpt lat="40.399892013520002" lon="-3.333958983421326">
        <ele>722.79999999999995</ele>
        <time>1970-01-01T02:45:38Z</time>
      </trkpt>
      <trkpt lat="40.399884972721338" lon="-3.333965018391609">
        <ele>722.79999999999995</ele>
        <time>1970-01-01T02:45:39Z</time>
      </trkpt>
      <trkpt lat="40.399874998256564" lon="-3.333970969542861">
        <ele>722.60000000000002</ele>
        <time>1970-01-01T02:45:40Z</time>
      </trkpt>
      <trkpt lat="40.399842979386449" lon="-3.333981027826667">
        <ele>722.29999999999995</ele>
        <time>1970-01-01T02:45:42Z</time>
      </trkpt>
      <trkpt lat="40.399834010750055" lon="-3.333987984806299">
        <ele>722.10000000000002</ele>
        <time>1970-01-01T02:45:43Z</time>
      </trkpt>
      <trkpt lat="40.399814983829856" lon="-3.334003994241357">
        <ele>721.89999999999998</ele>
        <time>1970-01-01T02:45:44Z</time>
      </trkpt>
      <trkpt lat="40.399792017415166" lon="-3.334020003676415">
        <ele>721.60000000000002</ele>
        <time>1970-01-01T02:45:46Z</time>
      </trkpt>
      <trkpt lat="40.399765027686954" lon="-3.334055040031672">
        <ele>721.20000000000005</ele>
        <time>1970-01-01T02:45:47Z</time>
      </trkpt>
      <trkpt lat="40.399752035737038" lon="-3.334069959819317">
        <ele>721</ele>
        <time>1970-01-01T02:45:48Z</time>
      </trkpt>
      <trkpt lat="40.399721022695303" lon="-3.334130980074406">
        <ele>720.39999999999998</ele>
        <time>1970-01-01T02:45:50Z</time>
      </trkpt>
      <trkpt lat="40.399706019088626" lon="-3.334158975630999">
        <ele>720.10000000000002</ele>
        <time>1970-01-01T02:45:51Z</time>
      </trkpt>
      <trkpt lat="40.399681041017175" lon="-3.334208009764552">
        <ele>719.60000000000002</ele>
        <time>1970-01-01T02:45:52Z</time>
      </trkpt>
      <trkpt lat="40.399669976904988" lon="-3.334241034463048">
        <ele>719.29999999999995</ele>
        <time>1970-01-01T02:45:54Z</time>
      </trkpt>
      <trkpt lat="40.39965296164155" lon="-3.334294008091092">
        <ele>718.79999999999995</ele>
        <time>1970-01-01T02:45:55Z</time>
      </trkpt>
      <trkpt lat="40.399626977741718" lon="-3.334330972284079">
        <ele>718.39999999999998</ele>
        <time>1970-01-01T02:45:56Z</time>
      </trkpt>
      <trkpt lat="40.399619014933705" lon="-3.334342036396265">
        <ele>718.29999999999995</ele>
        <time>1970-01-01T02:45:57Z</time>
      </trkpt>
      <trkpt lat="40.399619014933705" lon="-3.334334995597601">
        <ele>718.20000000000005</ele>
        <time>1970-01-01T02:45:59Z</time>
      </trkpt>
      <trkpt lat="40.399621026590466" lon="-3.334334995597601">
        <ele>718.20000000000005</ele>
        <time>1970-01-01T02:46:01Z</time>
      </trkpt>
      <trkpt lat="40.399621026590466" lon="-3.334334995597601">
        <ele>718.20000000000005</ele>
        <time>1970-01-01T02:46:02Z</time>
      </trkpt>
      <trkpt lat="40.399621026590466" lon="-3.334337007254362">
        <ele>718.20000000000005</ele>
        <time>1970-01-01T02:46:04Z</time>
      </trkpt>
      <trkpt lat="40.399622032418847" lon="-3.334337007254362">
        <ele>718.10000000000002</ele>
        <time>1970-01-01T02:46:06Z</time>
      </trkpt>
      <trkpt lat="40.399621026590466" lon="-3.334337007254362">
        <ele>718.10000000000002</ele>
        <time>1970-01-01T02:46:07Z</time>
      </trkpt>
      <trkpt lat="40.399646004661918" lon="-3.334312029182911">
        <ele>717.79999999999995</ele>
        <time>1970-01-01T02:46:32Z</time>
      </trkpt>
      <trkpt lat="40.399649022147059" lon="-3.334307000041008">
        <ele>717.70000000000005</ele>
        <time>1970-01-01T02:46:33Z</time>
      </trkpt>
      <trkpt lat="40.399648016318679" lon="-3.334305994212627">
        <ele>717.70000000000005</ele>
        <time>1970-01-01T02:46:34Z</time>
      </trkpt>
      <trkpt lat="40.399646004661918" lon="-3.334303982555866">
        <ele>717.70000000000005</ele>
        <time>1970-01-01T02:46:35Z</time>
      </trkpt>
      <trkpt lat="40.399643993005157" lon="-3.334299959242344">
        <ele>717.70000000000005</ele>
        <time>1970-01-01T02:46:36Z</time>
      </trkpt>
      <trkpt lat="40.399643993005157" lon="-3.33428998477757">
        <ele>717.60000000000002</ele>
        <time>1970-01-01T02:46:38Z</time>
      </trkpt>
      <trkpt lat="40.399641981348395" lon="-3.33429099060595">
        <ele>717.60000000000002</ele>
        <time>1970-01-01T02:46:40Z</time>
      </trkpt>
      <trkpt lat="40.399637036025524" lon="-3.334294008091092">
        <ele>717.5</ele>
        <time>1970-01-01T02:46:41Z</time>
      </trkpt>
      <trkpt lat="40.399635024368763" lon="-3.334288978949189">
        <ele>717.5</ele>
        <time>1970-01-01T02:46:42Z</time>
      </trkpt>
      <trkpt lat="40.399636030197144" lon="-3.33426802419126">
        <ele>717.29999999999995</ele>
        <time>1970-01-01T02:46:44Z</time>
      </trkpt>
      <trkpt lat="40.399623038247228" lon="-3.334301970899105">
        <ele>717</ele>
        <time>1970-01-01T02:46:46Z</time>
      </trkpt>
      <trkpt lat="40.399609040468931" lon="-3.334328960627317">
        <ele>716.70000000000005</ele>
        <time>1970-01-01T02:46:47Z</time>
      </trkpt>
      <trkpt lat="40.399600993841887" lon="-3.334336001425982">
        <ele>716.60000000000002</ele>
        <time>1970-01-01T02:46:49Z</time>
      </trkpt>
      <trkpt lat="40.399593031033874" lon="-3.334341030567884">
        <ele>716.5</ele>
        <time>1970-01-01T02:46:50Z</time>
      </trkpt>
      <trkpt lat="40.39958699606359" lon="-3.334346981719136">
        <ele>716.5</ele>
        <time>1970-01-01T02:46:52Z</time>
      </trkpt>
      <trkpt lat="40.399581966921687" lon="-3.334349999204278">
        <ele>716.39999999999998</ele>
        <time>1970-01-01T02:46:53Z</time>
      </trkpt>
      <trkpt lat="40.399576015770435" lon="-3.334360979497433">
        <ele>716.29999999999995</ele>
        <time>1970-01-01T02:46:55Z</time>
      </trkpt>
      <trkpt lat="40.399575009942055" lon="-3.334366008639336">
        <ele>716.29999999999995</ele>
        <time>1970-01-01T02:46:56Z</time>
      </trkpt>
      <trkpt lat="40.399572998285294" lon="-3.334371959790587">
        <ele>716.20000000000005</ele>
        <time>1970-01-01T02:46:57Z</time>
      </trkpt>
      <trkpt lat="40.399571992456913" lon="-3.334374977275729">
        <ele>716.20000000000005</ele>
        <time>1970-01-01T02:46:58Z</time>
      </trkpt>
      <trkpt lat="40.399571992456913" lon="-3.334383023902774">
        <ele>716.10000000000002</ele>
        <time>1970-01-01T02:47:00Z</time>
      </trkpt>
      <trkpt lat="40.399570986628532" lon="-3.334385035559535">
        <ele>716.10000000000002</ele>
        <time>1970-01-01T02:47:01Z</time>
      </trkpt>
      <trkpt lat="40.399571992456913" lon="-3.334386963397265">
        <ele>716.10000000000002</ele>
        <time>1970-01-01T02:47:02Z</time>
      </trkpt>
      <trkpt lat="40.399555983021855" lon="-3.334432980045676">
        <ele>715.70000000000005</ele>
        <time>1970-01-01T02:47:51Z</time>
      </trkpt>
      <trkpt lat="40.399555983021855" lon="-3.334417976438999">
        <ele>715.60000000000002</ele>
        <time>1970-01-01T02:47:52Z</time>
      </trkpt>
      <trkpt lat="40.399556988850236" lon="-3.334410013630986">
        <ele>715.60000000000002</ele>
        <time>1970-01-01T02:47:54Z</time>
      </trkpt>
      <trkpt lat="40.399555983021855" lon="-3.334401967003942">
        <ele>715.5</ele>
        <time>1970-01-01T02:47:55Z</time>
      </trkpt>
      <trkpt lat="40.399554977193475" lon="-3.33439601585269">
        <ele>715.5</ele>
        <time>1970-01-01T02:47:57Z</time>
      </trkpt>
      <trkpt lat="40.399551037698984" lon="-3.334398027509451">
        <ele>715.39999999999998</ele>
        <time>1970-01-01T02:47:58Z</time>
      </trkpt>
      <trkpt lat="40.399550031870604" lon="-3.334394004195929">
        <ele>715.39999999999998</ele>
        <time>1970-01-01T02:48:00Z</time>
      </trkpt>
      <trkpt lat="40.399549026042223" lon="-3.334394004195929">
        <ele>715.39999999999998</ele>
        <time>1970-01-01T02:48:01Z</time>
      </trkpt>
      <trkpt lat="40.399548020213842" lon="-3.33439601585269">
        <ele>715.39999999999998</ele>
        <time>1970-01-01T02:48:02Z</time>
      </trkpt>
      <trkpt lat="40.399547014385462" lon="-3.334398027509451">
        <ele>715.29999999999995</ele>
        <time>1970-01-01T02:48:04Z</time>
      </trkpt>
      <trkpt lat="40.399548020213842" lon="-3.334398027509451">
        <ele>715.29999999999995</ele>
        <time>1970-01-01T02:48:06Z</time>
      </trkpt>
      <trkpt lat="40.399548020213842" lon="-3.334392998367548">
        <ele>715.29999999999995</ele>
        <time>1970-01-01T02:48:07Z</time>
      </trkpt>
      <trkpt lat="40.399545002728701" lon="-3.334388975054026">
        <ele>715.29999999999995</ele>
        <time>1970-01-01T02:48:09Z</time>
      </trkpt>
      <trkpt lat="40.39954399690032" lon="-3.334386963397265">
        <ele>715.20000000000005</ele>
        <time>1970-01-01T02:48:10Z</time>
      </trkpt>
      <trkpt lat="40.399540979415178" lon="-3.334384029731154">
        <ele>715.20000000000005</ele>
        <time>1970-01-01T02:48:11Z</time>
      </trkpt>
      <trkpt lat="40.399537961930037" lon="-3.334386041387916">
        <ele>715.20000000000005</ele>
        <time>1970-01-01T02:48:13Z</time>
      </trkpt>
      <trkpt lat="40.399532010778785" lon="-3.334387969225645">
        <ele>715.10000000000002</ele>
        <time>1970-01-01T02:48:14Z</time>
      </trkpt>
      <trkpt lat="40.399525975808501" lon="-3.334389980882406">
        <ele>715.10000000000002</ele>
        <time>1970-01-01T02:48:15Z</time>
      </trkpt>
      <trkpt lat="40.399510972201824" lon="-3.334388975054026">
        <ele>714.89999999999998</ele>
        <time>1970-01-01T02:48:16Z</time>
      </trkpt>
      <trkpt lat="40.39950099773705" lon="-3.334389980882406">
        <ele>714.79999999999995</ele>
        <time>1970-01-01T02:48:18Z</time>
      </trkpt>
      <trkpt lat="40.399497980251908" lon="-3.334404984489083">
        <ele>714.70000000000005</ele>
        <time>1970-01-01T02:48:20Z</time>
      </trkpt>
      <trkpt lat="40.399495968595147" lon="-3.334408001974225">
        <ele>714.70000000000005</ele>
        <time>1970-01-01T02:48:21Z</time>
      </trkpt>
      <trkpt lat="40.399495968595147" lon="-3.334413031116128">
        <ele>714.70000000000005</ele>
        <time>1970-01-01T02:48:22Z</time>
      </trkpt>
      <trkpt lat="40.399492029100657" lon="-3.334414036944509">
        <ele>714.60000000000002</ele>
        <time>1970-01-01T02:48:24Z</time>
      </trkpt>
      <trkpt lat="40.399491023272276" lon="-3.334415964782238">
        <ele>714.60000000000002</ele>
        <time>1970-01-01T02:48:25Z</time>
      </trkpt>
      <trkpt lat="40.399492029100657" lon="-3.33441898226738">
        <ele>714.60000000000002</ele>
        <time>1970-01-01T02:48:26Z</time>
      </trkpt>
      <trkpt lat="40.399464033544064" lon="-3.334415964782238">
        <ele>714.29999999999995</ele>
        <time>1970-01-01T02:50:10Z</time>
      </trkpt>
      <trkpt lat="40.399469984695315" lon="-3.334417976438999">
        <ele>714.29999999999995</ele>
        <time>1970-01-01T02:50:11Z</time>
      </trkpt>
      <trkpt lat="40.399469984695315" lon="-3.334425017237663">
        <ele>714.29999999999995</ele>
        <time>1970-01-01T02:50:12Z</time>
      </trkpt>
      <trkpt lat="40.399466967210174" lon="-3.334425017237663">
        <ele>714.20000000000005</ele>
        <time>1970-01-01T02:50:14Z</time>
      </trkpt>
      <trkpt lat="40.39945799857378" lon="-3.334430968388915">
        <ele>714.10000000000002</ele>
        <time>1970-01-01T02:50:16Z</time>
      </trkpt>
      <trkpt lat="40.399453975260258" lon="-3.334435997530818">
        <ele>714.10000000000002</ele>
        <time>1970-01-01T02:50:18Z</time>
      </trkpt>
      <trkpt lat="40.399451963603497" lon="-3.33443901501596">
        <ele>714.10000000000002</ele>
        <time>1970-01-01T02:50:20Z</time>
      </trkpt>
      <trkpt lat="40.399450035765767" lon="-3.33444002084434">
        <ele>714.10000000000002</ele>
        <time>1970-01-01T02:50:21Z</time>
      </trkpt>
      <trkpt lat="40.399442994967103" lon="-3.334438009187579">
        <ele>714</ele>
        <time>1970-01-01T02:50:23Z</time>
      </trkpt>
      <trkpt lat="40.399439977481961" lon="-3.334435997530818">
        <ele>714</ele>
        <time>1970-01-01T02:50:24Z</time>
      </trkpt>
      <trkpt lat="40.399439977481961" lon="-3.33443901501596">
        <ele>714</ele>
        <time>1970-01-01T02:50:25Z</time>
      </trkpt>
      <trkpt lat="40.3994379658252" lon="-3.33444002084434">
        <ele>713.89999999999998</ele>
        <time>1970-01-01T02:50:27Z</time>
      </trkpt>
      <trkpt lat="40.3994379658252" lon="-3.334441026672721">
        <ele>713.89999999999998</ele>
        <time>1970-01-01T02:50:28Z</time>
      </trkpt>
      <trkpt lat="40.3994379658252" lon="-3.334445971995592">
        <ele>713.89999999999998</ele>
        <time>1970-01-01T02:50:29Z</time>
      </trkpt>
      <trkpt lat="40.399440983310342" lon="-3.334449995309115">
        <ele>713.89999999999998</ele>
        <time>1970-01-01T02:50:31Z</time>
      </trkpt>
      <trkpt lat="40.399444000795484" lon="-3.334452006965876">
        <ele>713.79999999999995</ele>
        <time>1970-01-01T02:50:32Z</time>
      </trkpt>
      <trkpt lat="40.399445006623864" lon="-3.334452006965876">
        <ele>713.79999999999995</ele>
        <time>1970-01-01T02:50:34Z</time>
      </trkpt>
      <trkpt lat="40.399445006623864" lon="-3.334454018622637">
        <ele>713.79999999999995</ele>
        <time>1970-01-01T02:50:35Z</time>
      </trkpt>
      <trkpt lat="40.399446012452245" lon="-3.334454018622637">
        <ele>713.79999999999995</ele>
        <time>1970-01-01T02:50:37Z</time>
      </trkpt>
      <trkpt lat="40.399448024109006" lon="-3.334453012794256">
        <ele>713.79999999999995</ele>
        <time>1970-01-01T02:50:38Z</time>
      </trkpt>
      <trkpt lat="40.399449029937387" lon="-3.334453012794256">
        <ele>713.79999999999995</ele>
        <time>1970-01-01T02:50:40Z</time>
      </trkpt>
      <trkpt lat="40.399413993582129" lon="-3.334434991702437">
        <ele>713.5</ele>
        <time>1970-01-01T02:52:13Z</time>
      </trkpt>
      <trkpt lat="40.399410976096988" lon="-3.334428034722805">
        <ele>713.5</ele>
        <time>1970-01-01T02:52:15Z</time>
      </trkpt>
      <trkpt lat="40.39941499941051" lon="-3.334428034722805">
        <ele>713.39999999999998</ele>
        <time>1970-01-01T02:52:16Z</time>
      </trkpt>
      <trkpt lat="40.39941499941051" lon="-3.334404984489083">
        <ele>713.29999999999995</ele>
        <time>1970-01-01T02:52:17Z</time>
      </trkpt>
      <trkpt lat="40.399425979703665" lon="-3.334384029731154">
        <ele>713.20000000000005</ele>
        <time>1970-01-01T02:52:19Z</time>
      </trkpt>
      <trkpt lat="40.399442994967103" lon="-3.334339018911123">
        <ele>712.89999999999998</ele>
        <time>1970-01-01T02:52:21Z</time>
      </trkpt>
      <trkpt lat="40.399447018280625" lon="-3.334319991990924">
        <ele>712.79999999999995</ele>
        <time>1970-01-01T02:52:22Z</time>
      </trkpt>
      <trkpt lat="40.399452969431877" lon="-3.334295013919473">
        <ele>712.89999999999998</ele>
        <time>1970-01-01T02:52:23Z</time>
      </trkpt>
      <trkpt lat="40.399455986917019" lon="-3.334275986999273">
        <ele>713</ele>
        <time>1970-01-01T02:52:24Z</time>
      </trkpt>
      <trkpt lat="40.399461016058922" lon="-3.334245979785919">
        <ele>713.29999999999995</ele>
        <time>1970-01-01T02:52:25Z</time>
      </trkpt>
      <trkpt lat="40.399479959160089" lon="-3.334180014207959">
        <ele>713.79999999999995</ele>
        <time>1970-01-01T02:52:27Z</time>
      </trkpt>
      <trkpt lat="40.399493034929037" lon="-3.334132991731167">
        <ele>714.20000000000005</ele>
        <time>1970-01-01T02:52:28Z</time>
      </trkpt>
      <trkpt lat="40.399508038535714" lon="-3.334079012274742">
        <ele>714.70000000000005</ele>
        <time>1970-01-01T02:52:30Z</time>
      </trkpt>
      <trkpt lat="40.399510972201824" lon="-3.334061997011304">
        <ele>714.89999999999998</ele>
        <time>1970-01-01T02:52:31Z</time>
      </trkpt>
      <trkpt lat="40.399514995515347" lon="-3.334045987576246">
        <ele>715</ele>
        <time>1970-01-01T02:52:32Z</time>
      </trkpt>
      <trkpt lat="40.399525975808501" lon="-3.334012040868402">
        <ele>715.39999999999998</ele>
        <time>1970-01-01T02:52:33Z</time>
      </trkpt>
      <trkpt lat="40.399531004950404" lon="-3.333999970927835">
        <ele>715.5</ele>
        <time>1970-01-01T02:52:34Z</time>
      </trkpt>
      <trkpt lat="40.399537961930037" lon="-3.333978010341525">
        <ele>715.79999999999995</ele>
        <time>1970-01-01T02:52:36Z</time>
      </trkpt>
      <trkpt lat="40.399542991071939" lon="-3.333957977592945">
        <ele>716</ele>
        <time>1970-01-01T02:52:37Z</time>
      </trkpt>
      <trkpt lat="40.399546008557081" lon="-3.333939034491777">
        <ele>716.20000000000005</ele>
        <time>1970-01-01T02:52:38Z</time>
      </trkpt>
      <trkpt lat="40.399547014385462" lon="-3.333917995914817">
        <ele>716.39999999999998</ele>
        <time>1970-01-01T02:52:39Z</time>
      </trkpt>
      <trkpt lat="40.399551037698984" lon="-3.333885977044702">
        <ele>716.70000000000005</ele>
        <time>1970-01-01T02:52:40Z</time>
      </trkpt>
      <trkpt lat="40.399557994678617" lon="-3.333867033943534">
        <ele>716.89999999999998</ele>
        <time>1970-01-01T02:52:42Z</time>
      </trkpt>
      <trkpt lat="40.399568974971771" lon="-3.333830991759896">
        <ele>717.39999999999998</ele>
        <time>1970-01-01T02:52:43Z</time>
      </trkpt>
      <trkpt lat="40.399572998285294" lon="-3.3338169939816">
        <ele>717.5</ele>
        <time>1970-01-01T02:52:44Z</time>
      </trkpt>
      <trkpt lat="40.39958699606359" lon="-3.333764020353556">
        <ele>718.10000000000002</ele>
        <time>1970-01-01T02:52:46Z</time>
      </trkpt>
      <trkpt lat="40.399590013548732" lon="-3.333747005090118">
        <ele>718.29999999999995</ele>
        <time>1970-01-01T02:52:47Z</time>
      </trkpt>
      <trkpt lat="40.399594036862254" lon="-3.333728983998299">
        <ele>718.5</ele>
        <time>1970-01-01T02:52:48Z</time>
      </trkpt>
      <trkpt lat="40.399604011327028" lon="-3.333684979006648">
        <ele>719.10000000000002</ele>
        <time>1970-01-01T02:52:49Z</time>
      </trkpt>
      <trkpt lat="40.399609040468931" lon="-3.33366603590548">
        <ele>719.29999999999995</ele>
        <time>1970-01-01T02:52:50Z</time>
      </trkpt>
      <trkpt lat="40.399611974135041" lon="-3.333649020642042">
        <ele>719.5</ele>
        <time>1970-01-01T02:52:51Z</time>
      </trkpt>
      <trkpt lat="40.399614991620183" lon="-3.333628987893462">
        <ele>719.70000000000005</ele>
        <time>1970-01-01T02:52:52Z</time>
      </trkpt>
      <trkpt lat="40.399623960256577" lon="-3.333591017872095">
        <ele>720.20000000000005</ele>
        <time>1970-01-01T02:52:54Z</time>
      </trkpt>
      <trkpt lat="40.399626977741718" lon="-3.333571990951896">
        <ele>720.39999999999998</ele>
        <time>1970-01-01T02:52:55Z</time>
      </trkpt>
      <trkpt lat="40.399635024368763" lon="-3.333531003445387">
        <ele>720.89999999999998</ele>
        <time>1970-01-01T02:52:57Z</time>
      </trkpt>
      <trkpt lat="40.399638041853905" lon="-3.333518011495471">
        <ele>721</ele>
        <time>1970-01-01T02:52:58Z</time>
      </trkpt>
      <trkpt lat="40.399646004661918" lon="-3.333469983190298">
        <ele>721.60000000000002</ele>
        <time>1970-01-01T02:53:00Z</time>
      </trkpt>
      <trkpt lat="40.399655979126692" lon="-3.33343100734055">
        <ele>722.10000000000002</ele>
        <time>1970-01-01T02:53:01Z</time>
      </trkpt>
      <trkpt lat="40.399670982733369" lon="-3.333379039540887">
        <ele>722.70000000000005</ele>
        <time>1970-01-01T02:53:02Z</time>
      </trkpt>
      <trkpt lat="40.399677017703652" lon="-3.333360012620688">
        <ele>722.89999999999998</ele>
        <time>1970-01-01T02:53:03Z</time>
      </trkpt>
      <trkpt lat="40.399694032967091" lon="-3.333306033164263">
        <ele>723.60000000000002</ele>
        <time>1970-01-01T02:53:05Z</time>
      </trkpt>
      <trkpt lat="40.399720016866922" lon="-3.333233026787639">
        <ele>724.39999999999998</ele>
        <time>1970-01-01T02:53:06Z</time>
      </trkpt>
      <trkpt lat="40.399741977453232" lon="-3.333167983219028">
        <ele>725.10000000000002</ele>
        <time>1970-01-01T02:53:08Z</time>
      </trkpt>
      <trkpt lat="40.399755975231528" lon="-3.333121966570616">
        <ele>725.60000000000002</ele>
        <time>1970-01-01T02:53:09Z</time>
      </trkpt>
      <trkpt lat="40.399769973009825" lon="-3.333081984892488">
        <ele>726</ele>
        <time>1970-01-01T02:53:10Z</time>
      </trkpt>
      <trkpt lat="40.399784976616502" lon="-3.333023982122541">
        <ele>726.39999999999998</ele>
        <time>1970-01-01T02:53:12Z</time>
      </trkpt>
      <trkpt lat="40.399791011586785" lon="-3.333005039021373">
        <ele>726.5</ele>
        <time>1970-01-01T02:53:13Z</time>
      </trkpt>
      <trkpt lat="40.399796962738037" lon="-3.332986012101173">
        <ele>726.70000000000005</ele>
        <time>1970-01-01T02:53:14Z</time>
      </trkpt>
      <trkpt lat="40.399807021021843" lon="-3.332937983796001">
        <ele>727</ele>
        <time>1970-01-01T02:53:15Z</time>
      </trkpt>
      <trkpt lat="40.399820012971759" lon="-3.332889033481479">
        <ele>727.20000000000005</ele>
        <time>1970-01-01T02:53:17Z</time>
      </trkpt>
      <trkpt lat="40.399824036285281" lon="-3.332872018218041">
        <ele>727.29999999999995</ele>
        <time>1970-01-01T02:53:18Z</time>
      </trkpt>
      <trkpt lat="40.399826969951391" lon="-3.332848967984319">
        <ele>727.39999999999998</ele>
        <time>1970-01-01T02:53:20Z</time>
      </trkpt>
      <trkpt lat="40.399828981608152" lon="-3.332834970206022">
        <ele>727.5</ele>
        <time>1970-01-01T02:53:21Z</time>
      </trkpt>
      <trkpt lat="40.399835016578436" lon="-3.332804040983319">
        <ele>727.60000000000002</ele>
        <time>1970-01-01T02:53:22Z</time>
      </trkpt>
      <trkpt lat="40.399838034063578" lon="-3.332780990749598">
        <ele>727.70000000000005</ele>
        <time>1970-01-01T02:53:24Z</time>
      </trkpt>
      <trkpt lat="40.399840967729688" lon="-3.332770010456443">
        <ele>727.79999999999995</ele>
        <time>1970-01-01T02:53:25Z</time>
      </trkpt>
      <trkpt lat="40.399853037670255" lon="-3.332737991586328">
        <ele>727.89999999999998</ele>
        <time>1970-01-01T02:53:26Z</time>
      </trkpt>
      <trkpt lat="40.399858988821507" lon="-3.332719970494509">
        <ele>728</ele>
        <time>1970-01-01T02:53:27Z</time>
      </trkpt>
      <trkpt lat="40.39986502379179" lon="-3.332702033221722">
        <ele>728</ele>
        <time>1970-01-01T02:53:28Z</time>
      </trkpt>
      <trkpt lat="40.399870974943042" lon="-3.332680994644761">
        <ele>728.10000000000002</ele>
        <time>1970-01-01T02:53:29Z</time>
      </trkpt>
      <trkpt lat="40.399876004084945" lon="-3.332633972167969">
        <ele>728.20000000000005</ele>
        <time>1970-01-01T02:53:31Z</time>
      </trkpt>
      <trkpt lat="40.399879021570086" lon="-3.332589967176318">
        <ele>728.29999999999995</ele>
        <time>1970-01-01T02:53:32Z</time>
      </trkpt>
      <trkpt lat="40.399890001863241" lon="-3.332526013255119">
        <ele>728.39999999999998</ele>
        <time>1970-01-01T02:53:33Z</time>
      </trkpt>
      <trkpt lat="40.399898970499635" lon="-3.332495000213385">
        <ele>728.5</ele>
        <time>1970-01-01T02:53:34Z</time>
      </trkpt>
      <trkpt lat="40.399906011298299" lon="-3.332465998828411">
        <ele>728.5</ele>
        <time>1970-01-01T02:53:36Z</time>
      </trkpt>
      <trkpt lat="40.399915985763073" lon="-3.332417970523238">
        <ele>728.60000000000002</ele>
        <time>1970-01-01T02:53:37Z</time>
      </trkpt>
      <trkpt lat="40.399920009076595" lon="-3.332401039078832">
        <ele>728.60000000000002</ele>
        <time>1970-01-01T02:53:38Z</time>
      </trkpt>
      <trkpt lat="40.399928977712989" lon="-3.332364996895194">
        <ele>728.70000000000005</ele>
        <time>1970-01-01T02:53:40Z</time>
      </trkpt>
      <trkpt lat="40.399948004633188" lon="-3.332318980246782">
        <ele>728.79999999999995</ele>
        <time>1970-01-01T02:53:42Z</time>
      </trkpt>
      <trkpt lat="40.399958984926343" lon="-3.332275981083512">
        <ele>728.89999999999998</ele>
        <time>1970-01-01T02:53:43Z</time>
      </trkpt>
      <trkpt lat="40.399963008239865" lon="-3.332258965820074">
        <ele>728.89999999999998</ele>
        <time>1970-01-01T02:53:44Z</time>
      </trkpt>
      <trkpt lat="40.399971976876259" lon="-3.332212027162314">
        <ele>729</ele>
        <time>1970-01-01T02:53:46Z</time>
      </trkpt>
      <trkpt lat="40.399981029331684" lon="-3.332176990807056">
        <ele>729.10000000000002</ele>
        <time>1970-01-01T02:53:47Z</time>
      </trkpt>
      <trkpt lat="40.400000978261232" lon="-3.332130974158645">
        <ele>729.20000000000005</ele>
        <time>1970-01-01T02:53:48Z</time>
      </trkpt>
      <trkpt lat="40.400017993524671" lon="-3.332068026065826">
        <ele>729.29999999999995</ele>
        <time>1970-01-01T02:53:50Z</time>
      </trkpt>
      <trkpt lat="40.400035008788109" lon="-3.332007005810738">
        <ele>729.39999999999998</ele>
        <time>1970-01-01T02:53:52Z</time>
      </trkpt>
      <trkpt lat="40.400043977424502" lon="-3.331972975283861">
        <ele>729.5</ele>
        <time>1970-01-01T02:53:53Z</time>
      </trkpt>
      <trkpt lat="40.400057975202799" lon="-3.331908015534282">
        <ele>729.60000000000002</ele>
        <time>1970-01-01T02:53:54Z</time>
      </trkpt>
      <trkpt lat="40.400070967152715" lon="-3.331878008320928">
        <ele>729.70000000000005</ele>
        <time>1970-01-01T02:53:55Z</time>
      </trkpt>
      <trkpt lat="40.400078007951379" lon="-3.331845989450812">
        <ele>729.79999999999995</ele>
        <time>1970-01-01T02:53:57Z</time>
      </trkpt>
      <trkpt lat="40.400088988244534" lon="-3.331811036914587">
        <ele>729.89999999999998</ele>
        <time>1970-01-01T02:53:58Z</time>
      </trkpt>
      <trkpt lat="40.400093011558056" lon="-3.331797961145639">
        <ele>730</ele>
        <time>1970-01-01T02:53:59Z</time>
      </trkpt>
      <trkpt lat="40.400106003507972" lon="-3.331751022487879">
        <ele>730.10000000000002</ele>
        <time>1970-01-01T02:54:00Z</time>
      </trkpt>
      <trkpt lat="40.400109020993114" lon="-3.331735013052821">
        <ele>730.20000000000005</ele>
        <time>1970-01-01T02:54:01Z</time>
      </trkpt>
      <trkpt lat="40.400118995457888" lon="-3.331696959212422">
        <ele>730.29999999999995</ele>
        <time>1970-01-01T02:54:02Z</time>
      </trkpt>
      <trkpt lat="40.400132993236184" lon="-3.331656977534294">
        <ele>730.5</ele>
        <time>1970-01-01T02:54:04Z</time>
      </trkpt>
      <trkpt lat="40.400136010721326" lon="-3.331644991412759">
        <ele>730.5</ele>
        <time>1970-01-01T02:54:05Z</time>
      </trkpt>
      <trkpt lat="40.400147996842861" lon="-3.331593023613095">
        <ele>730.70000000000005</ele>
        <time>1970-01-01T02:54:07Z</time>
      </trkpt>
      <trkpt lat="40.400160988792777" lon="-3.331549018621445">
        <ele>730.79999999999995</ele>
        <time>1970-01-01T02:54:08Z</time>
      </trkpt>
      <trkpt lat="40.400172974914312" lon="-3.331483975052834">
        <ele>731</ele>
        <time>1970-01-01T02:54:10Z</time>
      </trkpt>
      <trkpt lat="40.400173980742693" lon="-3.331458996981382">
        <ele>731.10000000000002</ele>
        <time>1970-01-01T02:54:11Z</time>
      </trkpt>
      <trkpt lat="40.400175992399454" lon="-3.331433013081551">
        <ele>731.10000000000002</ele>
        <time>1970-01-01T02:54:12Z</time>
      </trkpt>
      <trkpt lat="40.400175992399454" lon="-3.331362018361688">
        <ele>731.39999999999998</ele>
        <time>1970-01-01T02:54:14Z</time>
      </trkpt>
      <trkpt lat="40.400176998227835" lon="-3.331332011148334">
        <ele>731.5</ele>
        <time>1970-01-01T02:54:15Z</time>
      </trkpt>
      <trkpt lat="40.400176998227835" lon="-3.331302003934979">
        <ele>731.5</ele>
        <time>1970-01-01T02:54:16Z</time>
      </trkpt>
      <trkpt lat="40.400179009884596" lon="-3.33123997785151">
        <ele>731.70000000000005</ele>
        <time>1970-01-01T02:54:18Z</time>
      </trkpt>
      <trkpt lat="40.400178004056215" lon="-3.331203013658524">
        <ele>731.89999999999998</ele>
        <time>1970-01-01T02:54:19Z</time>
      </trkpt>
      <trkpt lat="40.400171969085932" lon="-3.331133024767041">
        <ele>732.10000000000002</ele>
        <time>1970-01-01T02:54:21Z</time>
      </trkpt>
      <trkpt lat="40.400170041248202" lon="-3.331082984805107">
        <ele>732.29999999999995</ele>
        <time>1970-01-01T02:54:22Z</time>
      </trkpt>
      <trkpt lat="40.400176998227835" lon="-3.331025987863541">
        <ele>732.5</ele>
        <time>1970-01-01T02:54:24Z</time>
      </trkpt>
      <trkpt lat="40.400181021541357" lon="-3.331004027277231">
        <ele>732.5</ele>
        <time>1970-01-01T02:54:25Z</time>
      </trkpt>
      <trkpt lat="40.400184039026499" lon="-3.330982988700271">
        <ele>732.60000000000002</ele>
        <time>1970-01-01T02:54:26Z</time>
      </trkpt>
      <trkpt lat="40.400190996006131" lon="-3.330942001193762">
        <ele>732.79999999999995</ele>
        <time>1970-01-01T02:54:28Z</time>
      </trkpt>
      <trkpt lat="40.400195019319654" lon="-3.330929009243846">
        <ele>732.79999999999995</ele>
        <time>1970-01-01T02:54:29Z</time>
      </trkpt>
      <trkpt lat="40.400200970470905" lon="-3.330899002030492">
        <ele>732.89999999999998</ele>
        <time>1970-01-01T02:54:30Z</time>
      </trkpt>
      <trkpt lat="40.400211028754711" lon="-3.330867988988757">
        <ele>733.10000000000002</ele>
        <time>1970-01-01T02:54:32Z</time>
      </trkpt>
      <trkpt lat="40.400219997391105" lon="-3.330831024795771">
        <ele>733.20000000000005</ele>
        <time>1970-01-01T02:54:33Z</time>
      </trkpt>
      <trkpt lat="40.400225026533008" lon="-3.330793976783752">
        <ele>733.29999999999995</ele>
        <time>1970-01-01T02:54:35Z</time>
      </trkpt>
      <trkpt lat="40.40023198351264" lon="-3.330745026469231">
        <ele>733.5</ele>
        <time>1970-01-01T02:54:36Z</time>
      </trkpt>
      <trkpt lat="40.400240030139685" lon="-3.330719964578748">
        <ele>733.60000000000002</ele>
        <time>1970-01-01T02:54:37Z</time>
      </trkpt>
      <trkpt lat="40.400248998776078" lon="-3.330689035356045">
        <ele>733.79999999999995</ele>
        <time>1970-01-01T02:54:39Z</time>
      </trkpt>
      <trkpt lat="40.400253022089601" lon="-3.330659028142691">
        <ele>733.89999999999998</ele>
        <time>1970-01-01T02:54:40Z</time>
      </trkpt>
      <trkpt lat="40.400257967412472" lon="-3.330601025372744">
        <ele>734.10000000000002</ele>
        <time>1970-01-01T02:54:42Z</time>
      </trkpt>
      <trkpt lat="40.400255033746362" lon="-3.330546040087938">
        <ele>734.29999999999995</ele>
        <time>1970-01-01T02:54:43Z</time>
      </trkpt>
      <trkpt lat="40.400253022089601" lon="-3.330526007339358">
        <ele>734.39999999999998</ele>
        <time>1970-01-01T02:54:44Z</time>
      </trkpt>
      <trkpt lat="40.400247992947698" lon="-3.330461969599128">
        <ele>734.60000000000002</ele>
        <time>1970-01-01T02:54:46Z</time>
      </trkpt>
      <trkpt lat="40.400242963805795" lon="-3.330407990142703">
        <ele>734.79999999999995</ele>
        <time>1970-01-01T02:54:47Z</time>
      </trkpt>
      <trkpt lat="40.400239024311304" lon="-3.330387035384774">
        <ele>734.89999999999998</ele>
        <time>1970-01-01T02:54:48Z</time>
      </trkpt>
      <trkpt lat="40.400235000997782" lon="-3.330344036221504">
        <ele>735.10000000000002</ele>
        <time>1970-01-01T02:54:49Z</time>
      </trkpt>
      <trkpt lat="40.400235000997782" lon="-3.330289972946048">
        <ele>735.29999999999995</ele>
        <time>1970-01-01T02:54:51Z</time>
      </trkpt>
      <trkpt lat="40.400242963805795" lon="-3.330233981832862">
        <ele>735.5</ele>
        <time>1970-01-01T02:54:52Z</time>
      </trkpt>
      <trkpt lat="40.400255033746362" lon="-3.33016399294138">
        <ele>735.89999999999998</ele>
        <time>1970-01-01T02:54:53Z</time>
      </trkpt>
      <trkpt lat="40.400266014039516" lon="-3.330108001828194">
        <ele>736.10000000000002</ele>
        <time>1970-01-01T02:54:55Z</time>
      </trkpt>
      <trkpt lat="40.400280011817813" lon="-3.330044969916344">
        <ele>736.5</ele>
        <time>1970-01-01T02:54:56Z</time>
      </trkpt>
      <trkpt lat="40.400290992110968" lon="-3.329999037086964">
        <ele>736.70000000000005</ele>
        <time>1970-01-01T02:54:57Z</time>
      </trkpt>
      <trkpt lat="40.400304989889264" lon="-3.329947991296649">
        <ele>737.10000000000002</ele>
        <time>1970-01-01T02:54:59Z</time>
      </trkpt>
      <trkpt lat="40.400331979617476" lon="-3.329857969656587">
        <ele>737.70000000000005</ele>
        <time>1970-01-01T02:55:01Z</time>
      </trkpt>
      <trkpt lat="40.400343965739012" lon="-3.329785969108343">
        <ele>738.20000000000005</ele>
        <time>1970-01-01T02:55:02Z</time>
      </trkpt>
      <trkpt lat="40.400358969345689" lon="-3.329730983823538">
        <ele>738.60000000000002</ele>
        <time>1970-01-01T02:55:04Z</time>
      </trkpt>
      <trkpt lat="40.400367015972733" lon="-3.329718997702003">
        <ele>738.70000000000005</ele>
        <time>1970-01-01T02:55:05Z</time>
      </trkpt>
      <trkpt lat="40.400372967123985" lon="-3.329708017408848">
        <ele>738.79999999999995</ele>
        <time>1970-01-01T02:55:06Z</time>
      </trkpt>
      <trkpt lat="40.400379002094269" lon="-3.329694019630551">
        <ele>739</ele>
        <time>1970-01-01T02:55:07Z</time>
      </trkpt>
      <trkpt lat="40.400392999872565" lon="-3.329651020467281">
        <ele>739.39999999999998</ele>
        <time>1970-01-01T02:55:08Z</time>
      </trkpt>
      <trkpt lat="40.400398029014468" lon="-3.32962503656745">
        <ele>739.60000000000002</ele>
        <time>1970-01-01T02:55:10Z</time>
      </trkpt>
      <trkpt lat="40.40040398016572" lon="-3.329599974676967">
        <ele>739.79999999999995</ele>
        <time>1970-01-01T02:55:12Z</time>
      </trkpt>
      <trkpt lat="40.400409009307623" lon="-3.329573990777135">
        <ele>740</ele>
        <time>1970-01-01T02:55:13Z</time>
      </trkpt>
      <trkpt lat="40.400414038449526" lon="-3.329549012705684">
        <ele>740.29999999999995</ele>
        <time>1970-01-01T02:55:14Z</time>
      </trkpt>
      <trkpt lat="40.400423007085919" lon="-3.329502996057272">
        <ele>740.70000000000005</ele>
        <time>1970-01-01T02:55:16Z</time>
      </trkpt>
      <trkpt lat="40.400426024571061" lon="-3.329487992450595">
        <ele>740.89999999999998</ele>
        <time>1970-01-01T02:55:17Z</time>
      </trkpt>
      <trkpt lat="40.400438010692596" lon="-3.329443987458944">
        <ele>741.39999999999998</ele>
        <time>1970-01-01T02:55:18Z</time>
      </trkpt>
      <trkpt lat="40.400442034006119" lon="-3.329425966367126">
        <ele>741.60000000000002</ele>
        <time>1970-01-01T02:55:19Z</time>
      </trkpt>
      <trkpt lat="40.400452008470893" lon="-3.329378021880984">
        <ele>742.10000000000002</ele>
        <time>1970-01-01T02:55:20Z</time>
      </trkpt>
      <trkpt lat="40.400469023734331" lon="-3.329340973868966">
        <ele>742.60000000000002</ele>
        <time>1970-01-01T02:55:22Z</time>
      </trkpt>
      <trkpt lat="40.400475980713964" lon="-3.329325970262289">
        <ele>742.89999999999998</ele>
        <time>1970-01-01T02:55:23Z</time>
      </trkpt>
      <trkpt lat="40.400483021512628" lon="-3.329266961663961">
        <ele>743.60000000000002</ele>
        <time>1970-01-01T02:55:25Z</time>
      </trkpt>
      <trkpt lat="40.400483021512628" lon="-3.329247012734413">
        <ele>743.79999999999995</ele>
        <time>1970-01-01T02:55:26Z</time>
      </trkpt>
      <trkpt lat="40.400482015684247" lon="-3.329227985814214">
        <ele>744.10000000000002</ele>
        <time>1970-01-01T02:55:27Z</time>
      </trkpt>
      <trkpt lat="40.400483021512628" lon="-3.329174006357789">
        <ele>744.79999999999995</ele>
        <time>1970-01-01T02:55:29Z</time>
      </trkpt>
      <trkpt lat="40.400485033169389" lon="-3.32915497943759">
        <ele>745</ele>
        <time>1970-01-01T02:55:30Z</time>
      </trkpt>
      <trkpt lat="40.400487966835499" lon="-3.329121032729745">
        <ele>745.5</ele>
        <time>1970-01-01T02:55:31Z</time>
      </trkpt>
      <trkpt lat="40.400486038997769" lon="-3.329093037173152">
        <ele>745.79999999999995</ele>
        <time>1970-01-01T02:55:33Z</time>
      </trkpt>
      <trkpt lat="40.400482015684247" lon="-3.329064035788178">
        <ele>746.20000000000005</ele>
        <time>1970-01-01T02:55:34Z</time>
      </trkpt>
      <trkpt lat="40.400481009855866" lon="-3.329019024968147">
        <ele>746.79999999999995</ele>
        <time>1970-01-01T02:55:36Z</time>
      </trkpt>
      <trkpt lat="40.400457959622145" lon="-3.328995974734426">
        <ele>747.29999999999995</ele>
        <time>1970-01-01T02:55:37Z</time>
      </trkpt>
      <trkpt lat="40.400447985157371" lon="-3.328979965299368">
        <ele>747.5</ele>
        <time>1970-01-01T02:55:38Z</time>
      </trkpt>
      <trkpt lat="40.400439016520977" lon="-3.3289610221982">
        <ele>747.79999999999995</ele>
        <time>1970-01-01T02:55:39Z</time>
      </trkpt>
      <trkpt lat="40.400419989600778" lon="-3.328929003328085">
        <ele>748.29999999999995</ele>
        <time>1970-01-01T02:55:41Z</time>
      </trkpt>
      <trkpt lat="40.400411020964384" lon="-3.32891701720655">
        <ele>748.39999999999998</ele>
        <time>1970-01-01T02:55:42Z</time>
      </trkpt>
      <trkpt lat="40.400398029014468" lon="-3.328905031085014">
        <ele>748.70000000000005</ele>
        <time>1970-01-01T02:55:43Z</time>
      </trkpt>
      <trkpt lat="40.400377996265888" lon="-3.328893966972828">
        <ele>749</ele>
        <time>1970-01-01T02:55:45Z</time>
      </trkpt>
      <trkpt lat="40.400350000709295" lon="-3.328879969194531">
        <ele>749.39999999999998</ele>
        <time>1970-01-01T02:55:46Z</time>
      </trkpt>
      <trkpt lat="40.400337008759379" lon="-3.32887401804328">
        <ele>749.60000000000002</ele>
        <time>1970-01-01T02:55:47Z</time>
      </trkpt>
      <trkpt lat="40.400303984060884" lon="-3.328859014436603">
        <ele>750</ele>
        <time>1970-01-01T02:55:49Z</time>
      </trkpt>
      <trkpt lat="40.400293003767729" lon="-3.3288539852947">
        <ele>750.20000000000005</ele>
        <time>1970-01-01T02:55:50Z</time>
      </trkpt>
      <trkpt lat="40.400256961584091" lon="-3.328823978081346">
        <ele>750.70000000000005</ele>
        <time>1970-01-01T02:55:52Z</time>
      </trkpt>
      <trkpt lat="40.400246987119317" lon="-3.328816015273333">
        <ele>750.79999999999995</ele>
        <time>1970-01-01T02:55:53Z</time>
      </trkpt>
      <trkpt lat="40.400236006826162" lon="-3.328806962817907">
        <ele>751</ele>
        <time>1970-01-01T02:55:54Z</time>
      </trkpt>
      <trkpt lat="40.40020901709795" lon="-3.328781984746456">
        <ele>751.39999999999998</ele>
        <time>1970-01-01T02:55:56Z</time>
      </trkpt>
      <trkpt lat="40.400198036804795" lon="-3.328774021938443">
        <ele>751.5</ele>
        <time>1970-01-01T02:55:57Z</time>
      </trkpt>
      <trkpt lat="40.40018898434937" lon="-3.328766981139779">
        <ele>751.60000000000002</ele>
        <time>1970-01-01T02:55:58Z</time>
      </trkpt>
      <trkpt lat="40.400172974914312" lon="-3.328759018331766">
        <ele>751.79999999999995</ele>
        <time>1970-01-01T02:55:59Z</time>
      </trkpt>
      <trkpt lat="40.400135004892945" lon="-3.328739991411567">
        <ele>752.20000000000005</ele>
        <time>1970-01-01T02:56:00Z</time>
      </trkpt>
      <trkpt lat="40.400088988244534" lon="-3.328697998076677">
        <ele>752.60000000000002</ele>
        <time>1970-01-01T02:56:01Z</time>
      </trkpt>
      <trkpt lat="40.400051018223166" lon="-3.328658016398549">
        <ele>753</ele>
        <time>1970-01-01T02:56:03Z</time>
      </trkpt>
      <trkpt lat="40.400029979646206" lon="-3.328637983649969">
        <ele>753.20000000000005</ele>
        <time>1970-01-01T02:56:04Z</time>
      </trkpt>
      <trkpt lat="40.399982035160065" lon="-3.328592972829938">
        <ele>753.5</ele>
        <time>1970-01-01T02:56:06Z</time>
      </trkpt>
      <trkpt lat="40.399911040440202" lon="-3.328523989766836">
        <ele>754</ele>
        <time>1970-01-01T02:56:07Z</time>
      </trkpt>
      <trkpt lat="40.399834010750055" lon="-3.328434973955154">
        <ele>754.39999999999998</ele>
        <time>1970-01-01T02:56:08Z</time>
      </trkpt>
      <trkpt lat="40.399788999930024" lon="-3.328383006155491">
        <ele>754.70000000000005</ele>
        <time>1970-01-01T02:56:09Z</time>
      </trkpt>
      <trkpt lat="40.399740971624851" lon="-3.328317040577531">
        <ele>754.89999999999998</ele>
        <time>1970-01-01T02:56:11Z</time>
      </trkpt>
      <trkpt lat="40.399704007431865" lon="-3.328245962038636">
        <ele>755.20000000000005</ele>
        <time>1970-01-01T02:56:12Z</time>
      </trkpt>
      <trkpt lat="40.399687997996807" lon="-3.328222995623946">
        <ele>755.29999999999995</ele>
        <time>1970-01-01T02:56:13Z</time>
      </trkpt>
      <trkpt lat="40.399681963026524" lon="-3.328211009502411">
        <ele>755.29999999999995</ele>
        <time>1970-01-01T02:56:15Z</time>
      </trkpt>
      <trkpt lat="40.399675006046891" lon="-3.328200029209256">
        <ele>755.39999999999998</ele>
        <time>1970-01-01T02:56:16Z</time>
      </trkpt>
      <trkpt lat="40.399655979126692" lon="-3.328170021995902">
        <ele>755.5</ele>
        <time>1970-01-01T02:56:17Z</time>
      </trkpt>
      <trkpt lat="40.399637036025524" lon="-3.328140014782548">
        <ele>755.70000000000005</ele>
        <time>1970-01-01T02:56:18Z</time>
      </trkpt>
      <trkpt lat="40.39960996247828" lon="-3.328093998134136">
        <ele>755.89999999999998</ele>
        <time>1970-01-01T02:56:20Z</time>
      </trkpt>
      <trkpt lat="40.399600993841887" lon="-3.328075977042317">
        <ele>756</ele>
        <time>1970-01-01T02:56:21Z</time>
      </trkpt>
      <trkpt lat="40.399592025205493" lon="-3.328058961778879">
        <ele>756.10000000000002</ele>
        <time>1970-01-01T02:56:22Z</time>
      </trkpt>
      <trkpt lat="40.399570986628532" lon="-3.32801403477788">
        <ele>756.29999999999995</ele>
        <time>1970-01-01T02:56:23Z</time>
      </trkpt>
      <trkpt lat="40.399562017992139" lon="-3.327998025342822">
        <ele>756.29999999999995</ele>
        <time>1970-01-01T02:56:24Z</time>
      </trkpt>
      <trkpt lat="40.399533016607165" lon="-3.327957959845662">
        <ele>756.5</ele>
        <time>1970-01-01T02:56:26Z</time>
      </trkpt>
      <trkpt lat="40.399506026878953" lon="-3.327920995652676">
        <ele>756.70000000000005</ele>
        <time>1970-01-01T02:56:27Z</time>
      </trkpt>
      <trkpt lat="40.399491023272276" lon="-3.327897023409605">
        <ele>756.79999999999995</ele>
        <time>1970-01-01T02:56:28Z</time>
      </trkpt>
      <trkpt lat="40.39947803132236" lon="-3.327871961519122">
        <ele>756.89999999999998</ele>
        <time>1970-01-01T02:56:30Z</time>
      </trkpt>
      <trkpt lat="40.399465961381793" lon="-3.327826028689742">
        <ele>757.10000000000002</ele>
        <time>1970-01-01T02:56:32Z</time>
      </trkpt>
      <trkpt lat="40.399464033544064" lon="-3.327800966799259">
        <ele>757.10000000000002</ele>
        <time>1970-01-01T02:56:33Z</time>
      </trkpt>
      <trkpt lat="40.399455986917019" lon="-3.327742964029312">
        <ele>757.20000000000005</ele>
        <time>1970-01-01T02:56:35Z</time>
      </trkpt>
      <trkpt lat="40.399451041594148" lon="-3.327698037028313">
        <ele>757.29999999999995</ele>
        <time>1970-01-01T02:56:36Z</time>
      </trkpt>
      <trkpt lat="40.399448024109006" lon="-3.327682027593255">
        <ele>757.29999999999995</ele>
        <time>1970-01-01T02:56:37Z</time>
      </trkpt>
      <trkpt lat="40.399433020502329" lon="-3.327612038701773">
        <ele>757.39999999999998</ele>
        <time>1970-01-01T02:56:38Z</time>
      </trkpt>
      <trkpt lat="40.399425979703665" lon="-3.327568033710122">
        <ele>757.5</ele>
        <time>1970-01-01T02:56:40Z</time>
      </trkpt>
      <trkpt lat="40.399408964440227" lon="-3.32750198431313">
        <ele>757.60000000000002</ele>
        <time>1970-01-01T02:56:41Z</time>
      </trkpt>
      <trkpt lat="40.399396978318691" lon="-3.32745797932148">
        <ele>757.60000000000002</ele>
        <time>1970-01-01T02:56:42Z</time>
      </trkpt>
      <trkpt lat="40.399383986368775" lon="-3.32741498015821">
        <ele>757.60000000000002</ele>
        <time>1970-01-01T02:56:44Z</time>
      </trkpt>
      <trkpt lat="40.399373006075621" lon="-3.327368041500449">
        <ele>757.70000000000005</ele>
        <time>1970-01-01T02:56:45Z</time>
      </trkpt>
      <trkpt lat="40.399364959448576" lon="-3.32732998766005">
        <ele>757.70000000000005</ele>
        <time>1970-01-01T02:56:46Z</time>
      </trkpt>
      <trkpt lat="40.399352973327041" lon="-3.327277014032006">
        <ele>757.79999999999995</ele>
        <time>1970-01-01T02:56:48Z</time>
      </trkpt>
      <trkpt lat="40.399339981377125" lon="-3.327222028747201">
        <ele>757.89999999999998</ele>
        <time>1970-01-01T02:56:49Z</time>
      </trkpt>
      <trkpt lat="40.399336041882634" lon="-3.32720099017024">
        <ele>757.89999999999998</ele>
        <time>1970-01-01T02:56:50Z</time>
      </trkpt>
      <trkpt lat="40.399330006912351" lon="-3.327150028198957">
        <ele>758</ele>
        <time>1970-01-01T02:56:52Z</time>
      </trkpt>
      <trkpt lat="40.399325983598828" lon="-3.327107029035687">
        <ele>758.10000000000002</ele>
        <time>1970-01-01T02:56:53Z</time>
      </trkpt>
      <trkpt lat="40.399323971942067" lon="-3.327057994902134">
        <ele>758.29999999999995</ele>
        <time>1970-01-01T02:56:54Z</time>
      </trkpt>
      <trkpt lat="40.399322966113687" lon="-3.327022958546877">
        <ele>758.39999999999998</ele>
        <time>1970-01-01T02:56:55Z</time>
      </trkpt>
      <trkpt lat="40.399323971942067" lon="-3.326979959383607">
        <ele>758.60000000000002</ele>
        <time>1970-01-01T02:56:57Z</time>
      </trkpt>
      <trkpt lat="40.399327995255589" lon="-3.326940983533859">
        <ele>758.79999999999995</ele>
        <time>1970-01-01T02:56:58Z</time>
      </trkpt>
      <trkpt lat="40.399334030225873" lon="-3.326903013512492">
        <ele>759</ele>
        <time>1970-01-01T02:56:59Z</time>
      </trkpt>
      <trkpt lat="40.399337969720364" lon="-3.326858002692461">
        <ele>759.20000000000005</ele>
        <time>1970-01-01T02:57:00Z</time>
      </trkpt>
      <trkpt lat="40.399340987205505" lon="-3.326821038499475">
        <ele>759.5</ele>
        <time>1970-01-01T02:57:01Z</time>
      </trkpt>
      <trkpt lat="40.399328" lon="-3.326697">
        <ele>766.4</ele>
        <time>1970-01-01T00:00:00.000Z</time>
      </trkpt>
      <trkpt lat="40.399332" lon="-3.326655">
        <ele>767.2</ele>
        <time>1970-01-01T00:00:01.000Z</time>
      </trkpt>
      <trkpt lat="40.399336" lon="-3.326612">
        <ele>768.2</ele>
        <time>1970-01-01T00:00:02.000Z</time>
      </trkpt>
      <trkpt lat="40.399339" lon="-3.32657">
        <ele>769.2</ele>
        <time>1970-01-01T00:00:03.000Z</time>
      </trkpt>
      <trkpt lat="40.399343" lon="-3.326528">
        <ele>769.4</ele>
        <time>1970-01-01T00:00:04.000Z</time>
      </trkpt>
      <trkpt lat="40.399347" lon="-3.326485">
        <ele>769</ele>
        <time>1970-01-01T00:00:05.000Z</time>
      </trkpt>
      <trkpt lat="40.399351" lon="-3.326443">
        <ele>769.4</ele>
        <time>1970-01-01T00:00:06.000Z</time>
      </trkpt>
      <trkpt lat="40.399355" lon="-3.326401">
        <ele>769.2</ele>
        <time>1970-01-01T00:00:07.000Z</time>
      </trkpt>
      <trkpt lat="40.399358" lon="-3.326358">
        <ele>769</ele>
        <time>1970-01-01T00:00:08.000Z</time>
      </trkpt>
      <trkpt lat="40.399362" lon="-3.326316">
        <ele>769</ele>
        <time>1970-01-01T00:00:09.000Z</time>
      </trkpt>
      <trkpt lat="40.399366" lon="-3.326274">
        <ele>768.8</ele>
        <time>1970-01-01T00:00:10.000Z</time>
      </trkpt>
      <trkpt lat="40.39937" lon="-3.326232">
        <ele>768.8</ele>
        <time>1970-01-01T00:00:11.000Z</time>
      </trkpt>
      <trkpt lat="40.399373" lon="-3.326189">
        <ele>768.8</ele>
        <time>1970-01-01T00:00:12.000Z</time>
      </trkpt>
      <trkpt lat="40.399377" lon="-3.326147">
        <ele>768.8</ele>
        <time>1970-01-01T00:00:13.000Z</time>
      </trkpt>
      <trkpt lat="40.399381" lon="-3.326105">
        <ele>768.8</ele>
        <time>1970-01-01T00:00:14.000Z</time>
      </trkpt>
      <trkpt lat="40.399385" lon="-3.326062">
        <ele>768.8</ele>
        <time>1970-01-01T00:00:15.000Z</time>
      </trkpt>
      <trkpt lat="40.399389" lon="-3.32602">
        <ele>768.8</ele>
        <time>1970-01-01T00:00:16.000Z</time>
      </trkpt>
      <trkpt lat="40.399392" lon="-3.325978">
        <ele>768.8</ele>
        <time>1970-01-01T00:00:17.000Z</time>
      </trkpt>
      <trkpt lat="40.399396" lon="-3.325935">
        <ele>768.8</ele>
        <time>1970-01-01T00:00:18.000Z</time>
      </trkpt>
      <trkpt lat="40.3994" lon="-3.325893">
        <ele>768.8</ele>
        <time>1970-01-01T00:00:19.000Z</time>
      </trkpt>
      <trkpt lat="40.399447" lon="-3.325909">
        <ele>768.8</ele>
        <time>1970-01-01T00:00:20.000Z</time>
      </trkpt>
      <trkpt lat="40.399482" lon="-3.325908">
        <ele>768.8</ele>
        <time>1970-01-01T00:00:21.000Z</time>
      </trkpt>
      <trkpt lat="40.39949" lon="-3.325909">
        <ele>769</ele>
        <time>1970-01-01T00:00:22.000Z</time>
      </trkpt>
      <trkpt lat="40.399515" lon="-3.325903">
        <ele>769.2</ele>
        <time>1970-01-01T00:00:23.000Z</time>
      </trkpt>
      <trkpt lat="40.399539" lon="-3.325896">
        <ele>769.4</ele>
        <time>1970-01-01T00:00:24.000Z</time>
      </trkpt>
      <trkpt lat="40.399558" lon="-3.325887">
        <ele>769.6</ele>
        <time>1970-01-01T00:00:25.000Z</time>
      </trkpt>
      <trkpt lat="40.399572" lon="-3.325875">
        <ele>770</ele>
        <time>1970-01-01T00:00:26.000Z</time>
      </trkpt>
      <trkpt lat="40.399586" lon="-3.325856">
        <ele>770.2</ele>
        <time>1970-01-01T00:00:27.000Z</time>
      </trkpt>
      <trkpt lat="40.399604" lon="-3.325831">
        <ele>770.4</ele>
        <time>1970-01-01T00:00:28.000Z</time>
      </trkpt>
      <trkpt lat="40.399619" lon="-3.3258">
        <ele>770.4</ele>
        <time>1970-01-01T00:00:29.000Z</time>
      </trkpt>
      <trkpt lat="40.399627" lon="-3.325768">
        <ele>770.4</ele>
        <time>1970-01-01T00:00:30.000Z</time>
      </trkpt>
      <trkpt lat="40.399636" lon="-3.325732">
        <ele>770.6</ele>
        <time>1970-01-01T00:00:31.000Z</time>
      </trkpt>
      <trkpt lat="40.399645" lon="-3.325697">
        <ele>770.8</ele>
        <time>1970-01-01T00:00:32.000Z</time>
      </trkpt>
      <trkpt lat="40.39965" lon="-3.325658">
        <ele>770.8</ele>
        <time>1970-01-01T00:00:33.000Z</time>
      </trkpt>
      <trkpt lat="40.399658" lon="-3.325621">
        <ele>771.2</ele>
        <time>1970-01-01T00:00:34.000Z</time>
      </trkpt>
      <trkpt lat="40.399669" lon="-3.325584">
        <ele>771.2</ele>
        <time>1970-01-01T00:00:35.000Z</time>
      </trkpt>
      <trkpt lat="40.399676" lon="-3.325548">
        <ele>771.4</ele>
        <time>1970-01-01T00:00:36.000Z</time>
      </trkpt>
      <trkpt lat="40.399684" lon="-3.325511">
        <ele>771.6</ele>
        <time>1970-01-01T00:00:37.000Z</time>
      </trkpt>
      <trkpt lat="40.399697" lon="-3.325467">
        <ele>771.8</ele>
        <time>1970-01-01T00:00:38.000Z</time>
      </trkpt>
      <trkpt lat="40.399709" lon="-3.325431">
        <ele>772</ele>
        <time>1970-01-01T00:00:39.000Z</time>
      </trkpt>
      <trkpt lat="40.39972" lon="-3.325397">
        <ele>772.4</ele>
        <time>1970-01-01T00:00:40.000Z</time>
      </trkpt>
      <trkpt lat="40.399728" lon="-3.325366">
        <ele>772.6</ele>
        <time>1970-01-01T00:00:41.000Z</time>
      </trkpt>
      <trkpt lat="40.399732" lon="-3.325342">
        <ele>773</ele>
        <time>1970-01-01T00:00:42.000Z</time>
      </trkpt>
      <trkpt lat="40.399735" lon="-3.325303">
        <ele>773.4</ele>
        <time>1970-01-01T00:00:43.000Z</time>
      </trkpt>
      <trkpt lat="40.399737" lon="-3.325269">
        <ele>773.8</ele>
        <time>1970-01-01T00:00:44.000Z</time>
      </trkpt>
      <trkpt lat="40.399738" lon="-3.325234">
        <ele>774.4</ele>
        <time>1970-01-01T00:00:45.000Z</time>
      </trkpt>
      <trkpt lat="40.399739" lon="-3.325197">
        <ele>774.8</ele>
        <time>1970-01-01T00:00:46.000Z</time>
      </trkpt>
      <trkpt lat="40.39974" lon="-3.325159">
        <ele>775.4</ele>
        <time>1970-01-01T00:00:47.000Z</time>
      </trkpt>
      <trkpt lat="40.399742" lon="-3.325127">
        <ele>775.8</ele>
        <time>1970-01-01T00:00:48.000Z</time>
      </trkpt>
      <trkpt lat="40.399744" lon="-3.325084">
        <ele>776</ele>
        <time>1970-01-01T00:00:49.000Z</time>
      </trkpt>
      <trkpt lat="40.399749" lon="-3.32503">
        <ele>776.2</ele>
        <time>1970-01-01T00:00:50.000Z</time>
      </trkpt>
      <trkpt lat="40.399754" lon="-3.324985">
        <ele>776.2</ele>
        <time>1970-01-01T00:00:51.000Z</time>
      </trkpt>
      <trkpt lat="40.399762" lon="-3.324941">
        <ele>776.4</ele>
        <time>1970-01-01T00:00:52.000Z</time>
      </trkpt>
      <trkpt lat="40.399769" lon="-3.324906">
        <ele>776.8</ele>
        <time>1970-01-01T00:00:53.000Z</time>
      </trkpt>
      <trkpt lat="40.399779" lon="-3.324863">
        <ele>777</ele>
        <time>1970-01-01T00:00:54.000Z</time>
      </trkpt>
      <trkpt lat="40.399795" lon="-3.32481">
        <ele>777.4</ele>
        <time>1970-01-01T00:00:55.000Z</time>
      </trkpt>
      <trkpt lat="40.399809" lon="-3.324766">
        <ele>777.6</ele>
        <time>1970-01-01T00:00:56.000Z</time>
      </trkpt>
      <trkpt lat="40.399824" lon="-3.324723">
        <ele>778.2</ele>
        <time>1970-01-01T00:00:57.000Z</time>
      </trkpt>
      <trkpt lat="40.399834" lon="-3.324686">
        <ele>778.4</ele>
        <time>1970-01-01T00:00:58.000Z</time>
      </trkpt>
      <trkpt lat="40.399847" lon="-3.324641">
        <ele>778.8</ele>
        <time>1970-01-01T00:00:59.000Z</time>
      </trkpt>
      <trkpt lat="40.399863" lon="-3.324588">
        <ele>778.8</ele>
        <time>1970-01-01T00:01:00.000Z</time>
      </trkpt>
      <trkpt lat="40.399876" lon="-3.324543">
        <ele>779</ele>
        <time>1970-01-01T00:01:01.000Z</time>
      </trkpt>
      <trkpt lat="40.39989" lon="-3.3245">
        <ele>779.2</ele>
        <time>1970-01-01T00:01:02.000Z</time>
      </trkpt>
      <trkpt lat="40.3999" lon="-3.324463">
        <ele>779.2</ele>
        <time>1970-01-01T00:01:03.000Z</time>
      </trkpt>
      <trkpt lat="40.399912" lon="-3.324415">
        <ele>779.4</ele>
        <time>1970-01-01T00:01:04.000Z</time>
      </trkpt>
      <trkpt lat="40.399928" lon="-3.324359">
        <ele>779.4</ele>
        <time>1970-01-01T00:01:05.000Z</time>
      </trkpt>
      <trkpt lat="40.399939" lon="-3.324315">
        <ele>779.6</ele>
        <time>1970-01-01T00:01:06.000Z</time>
      </trkpt>
      <trkpt lat="40.399951" lon="-3.324274">
        <ele>779.8</ele>
        <time>1970-01-01T00:01:07.000Z</time>
      </trkpt>
      <trkpt lat="40.399964" lon="-3.324236">
        <ele>780.2</ele>
        <time>1970-01-01T00:01:08.000Z</time>
      </trkpt>
      <trkpt lat="40.399974" lon="-3.324208">
        <ele>780.4</ele>
        <time>1970-01-01T00:01:09.000Z</time>
      </trkpt>
      <trkpt lat="40.399989" lon="-3.324168">
        <ele>780.6</ele>
        <time>1970-01-01T00:01:10.000Z</time>
      </trkpt>
      <trkpt lat="40.4" lon="-3.324132">
        <ele>780.8</ele>
        <time>1970-01-01T00:01:11.000Z</time>
      </trkpt>
      <trkpt lat="40.400014" lon="-3.324093">
        <ele>781</ele>
        <time>1970-01-01T00:01:12.000Z</time>
      </trkpt>
      <trkpt lat="40.400027" lon="-3.32406">
        <ele>781.2</ele>
        <time>1970-01-01T00:01:13.000Z</time>
      </trkpt>
      <trkpt lat="40.400042" lon="-3.324018">
        <ele>781.4</ele>
        <time>1970-01-01T00:01:14.000Z</time>
      </trkpt>
      <trkpt lat="40.400058" lon="-3.323972">
        <ele>781.6</ele>
        <time>1970-01-01T00:01:15.000Z</time>
      </trkpt>
      <trkpt lat="40.400069" lon="-3.323937">
        <ele>781.8</ele>
        <time>1970-01-01T00:01:16.000Z</time>
      </trkpt>
      <trkpt lat="40.400078" lon="-3.323908">
        <ele>782.2</ele>
        <time>1970-01-01T00:01:17.000Z</time>
      </trkpt>
      <trkpt lat="40.400095" lon="-3.323864">
        <ele>782.6</ele>
        <time>1970-01-01T00:01:18.000Z</time>
      </trkpt>
      <trkpt lat="40.400116" lon="-3.323796">
        <ele>782.6</ele>
        <time>1970-01-01T00:01:19.000Z</time>
      </trkpt>
      <trkpt lat="40.400123" lon="-3.323767">
        <ele>782.8</ele>
        <time>1970-01-01T00:01:20.000Z</time>
      </trkpt>
      <trkpt lat="40.400129" lon="-3.323729">
        <ele>783</ele>
        <time>1970-01-01T00:01:21.000Z</time>
      </trkpt>
      <trkpt lat="40.400135" lon="-3.323691">
        <ele>783</ele>
        <time>1970-01-01T00:01:22.000Z</time>
      </trkpt>
      <trkpt lat="40.400145" lon="-3.323653">
        <ele>783.2</ele>
        <time>1970-01-01T00:01:23.000Z</time>
      </trkpt>
      <trkpt lat="40.400157" lon="-3.323613">
        <ele>783.4</ele>
        <time>1970-01-01T00:01:24.000Z</time>
      </trkpt>
      <trkpt lat="40.400167" lon="-3.323571">
        <ele>783.4</ele>
        <time>1970-01-01T00:01:25.000Z</time>
      </trkpt>
      <trkpt lat="40.400174" lon="-3.323527">
        <ele>783.6</ele>
        <time>1970-01-01T00:01:26.000Z</time>
      </trkpt>
      <trkpt lat="40.400181" lon="-3.323475">
        <ele>784</ele>
        <time>1970-01-01T00:01:27.000Z</time>
      </trkpt>
      <trkpt lat="40.400183" lon="-3.323436">
        <ele>784</ele>
        <time>1970-01-01T00:01:28.000Z</time>
      </trkpt>
      <trkpt lat="40.400186" lon="-3.323381">
        <ele>784.2</ele>
        <time>1970-01-01T00:01:29.000Z</time>
      </trkpt>
      <trkpt lat="40.400187" lon="-3.323337">
        <ele>784.4</ele>
        <time>1970-01-01T00:01:30.000Z</time>
      </trkpt>
      <trkpt lat="40.400185" lon="-3.323294">
        <ele>784.4</ele>
        <time>1970-01-01T00:01:31.000Z</time>
      </trkpt>
      <trkpt lat="40.400183" lon="-3.323245">
        <ele>784.6</ele>
        <time>1970-01-01T00:01:32.000Z</time>
      </trkpt>
      <trkpt lat="40.40018" lon="-3.323206">
        <ele>784.6</ele>
        <time>1970-01-01T00:01:33.000Z</time>
      </trkpt>
      <trkpt lat="40.400175" lon="-3.323146">
        <ele>784.8</ele>
        <time>1970-01-01T00:01:34.000Z</time>
      </trkpt>
      <trkpt lat="40.400172" lon="-3.323095">
        <ele>784.8</ele>
        <time>1970-01-01T00:01:35.000Z</time>
      </trkpt>
      <trkpt lat="40.40017" lon="-3.323043">
        <ele>784.8</ele>
        <time>1970-01-01T00:01:36.000Z</time>
      </trkpt>
      <trkpt lat="40.400173" lon="-3.32299">
        <ele>785</ele>
        <time>1970-01-01T00:01:37.000Z</time>
      </trkpt>
      <trkpt lat="40.400179" lon="-3.322946">
        <ele>785</ele>
        <time>1970-01-01T00:01:38.000Z</time>
      </trkpt>
      <trkpt lat="40.400189" lon="-3.322891">
        <ele>785</ele>
        <time>1970-01-01T00:01:39.000Z</time>
      </trkpt>
      <trkpt lat="40.400204" lon="-3.322833">
        <ele>785</ele>
        <time>1970-01-01T00:01:40.000Z</time>
      </trkpt>
      <trkpt lat="40.400221" lon="-3.322788">
        <ele>785.2</ele>
        <time>1970-01-01T00:01:41.000Z</time>
      </trkpt>
      <trkpt lat="40.400235" lon="-3.322747">
        <ele>785.2</ele>
        <time>1970-01-01T00:01:42.000Z</time>
      </trkpt>
      <trkpt lat="40.400252" lon="-3.322706">
        <ele>785.2</ele>
        <time>1970-01-01T00:01:43.000Z</time>
      </trkpt>
      <trkpt lat="40.400267" lon="-3.322665">
        <ele>785.2</ele>
        <time>1970-01-01T00:01:44.000Z</time>
      </trkpt>
      <trkpt lat="40.400282" lon="-3.322622">
        <ele>785.2</ele>
        <time>1970-01-01T00:01:45.000Z</time>
      </trkpt>
      <trkpt lat="40.400295" lon="-3.322578">
        <ele>785.4</ele>
        <time>1970-01-01T00:01:46.000Z</time>
      </trkpt>
      <trkpt lat="40.400303" lon="-3.322536">
        <ele>785.6</ele>
        <time>1970-01-01T00:01:47.000Z</time>
      </trkpt>
      <trkpt lat="40.40031" lon="-3.322495">
        <ele>785.8</ele>
        <time>1970-01-01T00:01:48.000Z</time>
      </trkpt>
      <trkpt lat="40.400311" lon="-3.322463">
        <ele>786.2</ele>
        <time>1970-01-01T00:01:49.000Z</time>
      </trkpt>
      <trkpt lat="40.40031" lon="-3.322413">
        <ele>786.6</ele>
        <time>1970-01-01T00:01:50.000Z</time>
      </trkpt>
      <trkpt lat="40.400307" lon="-3.322377">
        <ele>787.4</ele>
        <time>1970-01-01T00:01:51.000Z</time>
      </trkpt>
      <trkpt lat="40.400302" lon="-3.322338">
        <ele>787.6</ele>
        <time>1970-01-01T00:01:52.000Z</time>
      </trkpt>
      <trkpt lat="40.400296" lon="-3.322305">
        <ele>788.2</ele>
        <time>1970-01-01T00:01:53.000Z</time>
      </trkpt>
      <trkpt lat="40.400288" lon="-3.322264">
        <ele>788.2</ele>
        <time>1970-01-01T00:01:54.000Z</time>
      </trkpt>
      <trkpt lat="40.400278" lon="-3.322223">
        <ele>788.4</ele>
        <time>1970-01-01T00:01:55.000Z</time>
      </trkpt>
      <trkpt lat="40.400262" lon="-3.32218">
        <ele>788.4</ele>
        <time>1970-01-01T00:01:56.000Z</time>
      </trkpt>
      <trkpt lat="40.400245" lon="-3.322149">
        <ele>788.6</ele>
        <time>1970-01-01T00:01:57.000Z</time>
      </trkpt>
      <trkpt lat="40.400222" lon="-3.322118">
        <ele>788.8</ele>
        <time>1970-01-01T00:01:58.000Z</time>
      </trkpt>
      <trkpt lat="40.4002" lon="-3.322094">
        <ele>789</ele>
        <time>1970-01-01T00:01:59.000Z</time>
      </trkpt>
      <trkpt lat="40.400172" lon="-3.322048">
        <ele>789.2</ele>
        <time>1970-01-01T00:02:00.000Z</time>
      </trkpt>
      <trkpt lat="40.400153" lon="-3.321999">
        <ele>789.4</ele>
        <time>1970-01-01T00:02:01.000Z</time>
      </trkpt>
      <trkpt lat="40.400145" lon="-3.32194">
        <ele>789.4</ele>
        <time>1970-01-01T00:02:02.000Z</time>
      </trkpt>
      <trkpt lat="40.400153" lon="-3.321881">
        <ele>789.4</ele>
        <time>1970-01-01T00:02:03.000Z</time>
      </trkpt>
      <trkpt lat="40.400169" lon="-3.321841">
        <ele>789.4</ele>
        <time>1970-01-01T00:02:04.000Z</time>
      </trkpt>
      <trkpt lat="40.400192" lon="-3.321793">
        <ele>789.4</ele>
        <time>1970-01-01T00:02:05.000Z</time>
      </trkpt>
      <trkpt lat="40.400225" lon="-3.321746">
        <ele>789.2</ele>
        <time>1970-01-01T00:02:06.000Z</time>
      </trkpt>
      <trkpt lat="40.400247" lon="-3.321718">
        <ele>789.2</ele>
        <time>1970-01-01T00:02:07.000Z</time>
      </trkpt>
      <trkpt lat="40.400282" lon="-3.321677">
        <ele>789.2</ele>
        <time>1970-01-01T00:02:08.000Z</time>
      </trkpt>
      <trkpt lat="40.400312" lon="-3.321639">
        <ele>789.2</ele>
        <time>1970-01-01T00:02:09.000Z</time>
      </trkpt>
      <trkpt lat="40.400342" lon="-3.321603">
        <ele>789.2</ele>
        <time>1970-01-01T00:02:10.000Z</time>
      </trkpt>
      <trkpt lat="40.400367" lon="-3.321572">
        <ele>789.2</ele>
        <time>1970-01-01T00:02:11.000Z</time>
      </trkpt>
      <trkpt lat="40.400392" lon="-3.321538">
        <ele>789.2</ele>
        <time>1970-01-01T00:02:12.000Z</time>
      </trkpt>
      <trkpt lat="40.400415" lon="-3.321502">
        <ele>789.4</ele>
        <time>1970-01-01T00:02:13.000Z</time>
      </trkpt>
      <trkpt lat="40.400432" lon="-3.321472">
        <ele>789.6</ele>
        <time>1970-01-01T00:02:14.000Z</time>
      </trkpt>
      <trkpt lat="40.400458" lon="-3.321426">
        <ele>789.8</ele>
        <time>1970-01-01T00:02:15.000Z</time>
      </trkpt>
      <trkpt lat="40.400479" lon="-3.321388">
        <ele>790.2</ele>
        <time>1970-01-01T00:02:16.000Z</time>
      </trkpt>
      <trkpt lat="40.400499" lon="-3.321348">
        <ele>790.4</ele>
        <time>1970-01-01T00:02:17.000Z</time>
      </trkpt>
      <trkpt lat="40.400518" lon="-3.32131">
        <ele>790.8</ele>
        <time>1970-01-01T00:02:18.000Z</time>
      </trkpt>
      <trkpt lat="40.400536" lon="-3.321271">
        <ele>791.2</ele>
        <time>1970-01-01T00:02:19.000Z</time>
      </trkpt>
      <trkpt lat="40.400554" lon="-3.321233">
        <ele>791.4</ele>
        <time>1970-01-01T00:02:20.000Z</time>
      </trkpt>
      <trkpt lat="40.400576" lon="-3.321197">
        <ele>791.6</ele>
        <time>1970-01-01T00:02:21.000Z</time>
      </trkpt>
      <trkpt lat="40.400598" lon="-3.32116">
        <ele>791.6</ele>
        <time>1970-01-01T00:02:22.000Z</time>
      </trkpt>
      <trkpt lat="40.400622" lon="-3.321127">
        <ele>791.8</ele>
        <time>1970-01-01T00:02:23.000Z</time>
      </trkpt>
      <trkpt lat="40.400649" lon="-3.321099">
        <ele>792</ele>
        <time>1970-01-01T00:02:24.000Z</time>
      </trkpt>
      <trkpt lat="40.400677" lon="-3.321076">
        <ele>792</ele>
        <time>1970-01-01T00:02:25.000Z</time>
      </trkpt>
      <trkpt lat="40.4007" lon="-3.32106">
        <ele>792.2</ele>
        <time>1970-01-01T00:02:26.000Z</time>
      </trkpt>
      <trkpt lat="40.400728" lon="-3.321038">
        <ele>792.2</ele>
        <time>1970-01-01T00:02:27.000Z</time>
      </trkpt>
      <trkpt lat="40.400753" lon="-3.321008">
        <ele>792.2</ele>
        <time>1970-01-01T00:02:28.000Z</time>
      </trkpt>
      <trkpt lat="40.400771" lon="-3.320973">
        <ele>792.4</ele>
        <time>1970-01-01T00:02:29.000Z</time>
      </trkpt>
      <trkpt lat="40.400784" lon="-3.320938">
        <ele>792.4</ele>
        <time>1970-01-01T00:02:30.000Z</time>
      </trkpt>
      <trkpt lat="40.400795" lon="-3.320903">
        <ele>792.6</ele>
        <time>1970-01-01T00:02:31.000Z</time>
      </trkpt>
      <trkpt lat="40.400805" lon="-3.320864">
        <ele>792.8</ele>
        <time>1970-01-01T00:02:32.000Z</time>
      </trkpt>
      <trkpt lat="40.400811" lon="-3.320824">
        <ele>793.2</ele>
        <time>1970-01-01T00:02:33.000Z</time>
      </trkpt>
      <trkpt lat="40.400817" lon="-3.320782">
        <ele>793</ele>
        <time>1970-01-01T00:02:34.000Z</time>
      </trkpt>
      <trkpt lat="40.40082" lon="-3.320742">
        <ele>793.2</ele>
        <time>1970-01-01T00:02:35.000Z</time>
      </trkpt>
      <trkpt lat="40.400822" lon="-3.320704">
        <ele>793.4</ele>
        <time>1970-01-01T00:02:36.000Z</time>
      </trkpt>
      <trkpt lat="40.400821" lon="-3.320666">
        <ele>793.6</ele>
        <time>1970-01-01T00:02:37.000Z</time>
      </trkpt>
      <trkpt lat="40.400819" lon="-3.320628">
        <ele>793.8</ele>
        <time>1970-01-01T00:02:38.000Z</time>
      </trkpt>
      <trkpt lat="40.400815" lon="-3.320587">
        <ele>794.2</ele>
        <time>1970-01-01T00:02:39.000Z</time>
      </trkpt>
      <trkpt lat="40.400813" lon="-3.320548">
        <ele>794.4</ele>
        <time>1970-01-01T00:02:40.000Z</time>
      </trkpt>
      <trkpt lat="40.400812" lon="-3.320511">
        <ele>794.6</ele>
        <time>1970-01-01T00:02:41.000Z</time>
      </trkpt>
      <trkpt lat="40.40081" lon="-3.320472">
        <ele>794.8</ele>
        <time>1970-01-01T00:02:42.000Z</time>
      </trkpt>
      <trkpt lat="40.400808" lon="-3.320432">
        <ele>795</ele>
        <time>1970-01-01T00:02:43.000Z</time>
      </trkpt>
      <trkpt lat="40.400807" lon="-3.32039">
        <ele>795.4</ele>
        <time>1970-01-01T00:02:44.000Z</time>
      </trkpt>
      <trkpt lat="40.400807" lon="-3.320349">
        <ele>795.4</ele>
        <time>1970-01-01T00:02:45.000Z</time>
      </trkpt>
      <trkpt lat="40.40081" lon="-3.320305">
        <ele>795.6</ele>
        <time>1970-01-01T00:02:46.000Z</time>
      </trkpt>
      <trkpt lat="40.400814" lon="-3.320264">
        <ele>795.8</ele>
        <time>1970-01-01T00:02:47.000Z</time>
      </trkpt>
      <trkpt lat="40.400819" lon="-3.320223">
        <ele>796</ele>
        <time>1970-01-01T00:02:48.000Z</time>
      </trkpt>
      <trkpt lat="40.400823" lon="-3.320183">
        <ele>796.2</ele>
        <time>1970-01-01T00:02:49.000Z</time>
      </trkpt>
      <trkpt lat="40.400827" lon="-3.320136">
        <ele>796.2</ele>
        <time>1970-01-01T00:02:50.000Z</time>
      </trkpt>
      <trkpt lat="40.400824" lon="-3.320108">
        <ele>796.4</ele>
        <time>1970-01-01T00:02:51.000Z</time>
      </trkpt>
      <trkpt lat="40.400814" lon="-3.320073">
        <ele>796.6</ele>
        <time>1970-01-01T00:02:52.000Z</time>
      </trkpt>
      <trkpt lat="40.4008" lon="-3.32004">
        <ele>796.6</ele>
        <time>1970-01-01T00:02:53.000Z</time>
      </trkpt>
      <trkpt lat="40.400783" lon="-3.320011">
        <ele>796.8</ele>
        <time>1970-01-01T00:02:54.000Z</time>
      </trkpt>
      <trkpt lat="40.400762" lon="-3.319981">
        <ele>797</ele>
        <time>1970-01-01T00:02:55.000Z</time>
      </trkpt>
      <trkpt lat="40.400738" lon="-3.319954">
        <ele>797.2</ele>
        <time>1970-01-01T00:02:56.000Z</time>
      </trkpt>
      <trkpt lat="40.400712" lon="-3.31993">
        <ele>797.4</ele>
        <time>1970-01-01T00:02:57.000Z</time>
      </trkpt>
      <trkpt lat="40.400687" lon="-3.319908">
        <ele>797.6</ele>
        <time>1970-01-01T00:02:58.000Z</time>
      </trkpt>
      <trkpt lat="40.400662" lon="-3.319889">
        <ele>797.8</ele>
        <time>1970-01-01T00:02:59.000Z</time>
      </trkpt>
      <trkpt lat="40.400638" lon="-3.319874">
        <ele>798.2</ele>
        <time>1970-01-01T00:03:00.000Z</time>
      </trkpt>
      <trkpt lat="40.400613" lon="-3.319858">
        <ele>798.8</ele>
        <time>1970-01-01T00:03:01.000Z</time>
      </trkpt>
      <trkpt lat="40.400592" lon="-3.319843">
        <ele>799</ele>
        <time>1970-01-01T00:03:02.000Z</time>
      </trkpt>
      <trkpt lat="40.400569" lon="-3.319822">
        <ele>799.6</ele>
        <time>1970-01-01T00:03:03.000Z</time>
      </trkpt>
      <trkpt lat="40.400547" lon="-3.319801">
        <ele>799.8</ele>
        <time>1970-01-01T00:03:04.000Z</time>
      </trkpt>
      <trkpt lat="40.400522" lon="-3.319784">
        <ele>800.4</ele>
        <time>1970-01-01T00:03:05.000Z</time>
      </trkpt>
      <trkpt lat="40.400498" lon="-3.319769">
        <ele>800.6</ele>
        <time>1970-01-01T00:03:06.000Z</time>
      </trkpt>
      <trkpt lat="40.400475" lon="-3.319754">
        <ele>801</ele>
        <time>1970-01-01T00:03:07.000Z</time>
      </trkpt>
      <trkpt lat="40.400452" lon="-3.319741">
        <ele>801.2</ele>
        <time>1970-01-01T00:03:08.000Z</time>
      </trkpt>
      <trkpt lat="40.400431" lon="-3.31973">
        <ele>801.6</ele>
        <time>1970-01-01T00:03:09.000Z</time>
      </trkpt>
      <trkpt lat="40.40041" lon="-3.319719">
        <ele>802</ele>
        <time>1970-01-01T00:03:10.000Z</time>
      </trkpt>
      <trkpt lat="40.400388" lon="-3.319706">
        <ele>802.2</ele>
        <time>1970-01-01T00:03:11.000Z</time>
      </trkpt>
      <trkpt lat="40.400366" lon="-3.319693">
        <ele>802.2</ele>
        <time>1970-01-01T00:03:12.000Z</time>
      </trkpt>
      <trkpt lat="40.400345" lon="-3.31968">
        <ele>802.4</ele>
        <time>1970-01-01T00:03:13.000Z</time>
      </trkpt>
      <trkpt lat="40.400325" lon="-3.319666">
        <ele>803</ele>
        <time>1970-01-01T00:03:14.000Z</time>
      </trkpt>
      <trkpt lat="40.400305" lon="-3.31965">
        <ele>803.4</ele>
        <time>1970-01-01T00:03:15.000Z</time>
      </trkpt>
      <trkpt lat="40.400281" lon="-3.319635">
        <ele>803.6</ele>
        <time>1970-01-01T00:03:16.000Z</time>
      </trkpt>
      <trkpt lat="40.400258" lon="-3.319619">
        <ele>804</ele>
        <time>1970-01-01T00:03:17.000Z</time>
      </trkpt>
      <trkpt lat="40.400239" lon="-3.3196">
        <ele>804.4</ele>
        <time>1970-01-01T00:03:18.000Z</time>
      </trkpt>
      <trkpt lat="40.40022" lon="-3.31958">
        <ele>805</ele>
        <time>1970-01-01T00:03:19.000Z</time>
      </trkpt>
      <trkpt lat="40.400203" lon="-3.319559">
        <ele>805.2</ele>
        <time>1970-01-01T00:03:20.000Z</time>
      </trkpt>
      <trkpt lat="40.40019" lon="-3.319538">
        <ele>805.4</ele>
        <time>1970-01-01T00:03:21.000Z</time>
      </trkpt>
      <trkpt lat="40.400175" lon="-3.319517">
        <ele>805.6</ele>
        <time>1970-01-01T00:03:22.000Z</time>
      </trkpt>
      <trkpt lat="40.400161" lon="-3.319495">
        <ele>805.8</ele>
        <time>1970-01-01T00:03:23.000Z</time>
      </trkpt>
      <trkpt lat="40.400147" lon="-3.319474">
        <ele>805.8</ele>
        <time>1970-01-01T00:03:24.000Z</time>
      </trkpt>
      <trkpt lat="40.400135" lon="-3.319452">
        <ele>806</ele>
        <time>1970-01-01T00:03:25.000Z</time>
      </trkpt>
      <trkpt lat="40.400122" lon="-3.319427">
        <ele>806.4</ele>
        <time>1970-01-01T00:03:26.000Z</time>
      </trkpt>
      <trkpt lat="40.400105" lon="-3.319402">
        <ele>806.4</ele>
        <time>1970-01-01T00:03:27.000Z</time>
      </trkpt>
      <trkpt lat="40.400088" lon="-3.319375">
        <ele>806.8</ele>
        <time>1970-01-01T00:03:28.000Z</time>
      </trkpt>
      <trkpt lat="40.400071" lon="-3.319351">
        <ele>806.8</ele>
        <time>1970-01-01T00:03:29.000Z</time>
      </trkpt>
      <trkpt lat="40.400052" lon="-3.31933">
        <ele>807</ele>
        <time>1970-01-01T00:03:30.000Z</time>
      </trkpt>
      <trkpt lat="40.400035" lon="-3.319311">
        <ele>807.2</ele>
        <time>1970-01-01T00:03:31.000Z</time>
      </trkpt>
      <trkpt lat="40.400018" lon="-3.31929">
        <ele>807.2</ele>
        <time>1970-01-01T00:03:32.000Z</time>
      </trkpt>
      <trkpt lat="40.400001" lon="-3.319271">
        <ele>807.6</ele>
        <time>1970-01-01T00:03:33.000Z</time>
      </trkpt>
      <trkpt lat="40.399985" lon="-3.319249">
        <ele>807.8</ele>
        <time>1970-01-01T00:03:34.000Z</time>
      </trkpt>
      <trkpt lat="40.399972" lon="-3.319223">
        <ele>808</ele>
        <time>1970-01-01T00:03:35.000Z</time>
      </trkpt>
      <trkpt lat="40.399956" lon="-3.319201">
        <ele>808.4</ele>
        <time>1970-01-01T00:03:36.000Z</time>
      </trkpt>
      <trkpt lat="40.399941" lon="-3.319176">
        <ele>808.4</ele>
        <time>1970-01-01T00:03:37.000Z</time>
      </trkpt>
      <trkpt lat="40.399925" lon="-3.319154">
        <ele>808.6</ele>
        <time>1970-01-01T00:03:38.000Z</time>
      </trkpt>
      <trkpt lat="40.399912" lon="-3.319129">
        <ele>808.6</ele>
        <time>1970-01-01T00:03:39.000Z</time>
      </trkpt>
      <trkpt lat="40.399901" lon="-3.319102">
        <ele>808.8</ele>
        <time>1970-01-01T00:03:40.000Z</time>
      </trkpt>
      <trkpt lat="40.399891" lon="-3.319074">
        <ele>809</ele>
        <time>1970-01-01T00:03:41.000Z</time>
      </trkpt>
      <trkpt lat="40.399884" lon="-3.319039">
        <ele>809.2</ele>
        <time>1970-01-01T00:03:42.000Z</time>
      </trkpt>
      <trkpt lat="40.399884" lon="-3.319015">
        <ele>809.6</ele>
        <time>1970-01-01T00:03:43.000Z</time>
      </trkpt>
      <trkpt lat="40.399887" lon="-3.318985">
        <ele>809.6</ele>
        <time>1970-01-01T00:03:44.000Z</time>
      </trkpt>
      <trkpt lat="40.399893" lon="-3.318954">
        <ele>810</ele>
        <time>1970-01-01T00:03:45.000Z</time>
      </trkpt>
      <trkpt lat="40.399902" lon="-3.318922">
        <ele>810</ele>
        <time>1970-01-01T00:03:46.000Z</time>
      </trkpt>
      <trkpt lat="40.399912" lon="-3.318889">
        <ele>810.2</ele>
        <time>1970-01-01T00:03:47.000Z</time>
      </trkpt>
      <trkpt lat="40.399926" lon="-3.318856">
        <ele>810.2</ele>
        <time>1970-01-01T00:03:48.000Z</time>
      </trkpt>
      <trkpt lat="40.399941" lon="-3.318823">
        <ele>810.4</ele>
        <time>1970-01-01T00:03:49.000Z</time>
      </trkpt>
      <trkpt lat="40.399959" lon="-3.318792">
        <ele>810.4</ele>
        <time>1970-01-01T00:03:50.000Z</time>
      </trkpt>
      <trkpt lat="40.39998" lon="-3.318763">
        <ele>810.4</ele>
        <time>1970-01-01T00:03:51.000Z</time>
      </trkpt>
      <trkpt lat="40.400002" lon="-3.318733">
        <ele>810.6</ele>
        <time>1970-01-01T00:03:52.000Z</time>
      </trkpt>
      <trkpt lat="40.400026" lon="-3.318698">
        <ele>810.6</ele>
        <time>1970-01-01T00:03:53.000Z</time>
      </trkpt>
      <trkpt lat="40.400052" lon="-3.31866">
        <ele>810.4</ele>
        <time>1970-01-01T00:03:54.000Z</time>
      </trkpt>
      <trkpt lat="40.400079" lon="-3.318619">
        <ele>810.4</ele>
        <time>1970-01-01T00:03:55.000Z</time>
      </trkpt>
      <trkpt lat="40.400106" lon="-3.318574">
        <ele>810.4</ele>
        <time>1970-01-01T00:03:56.000Z</time>
      </trkpt>
      <trkpt lat="40.400133" lon="-3.318528">
        <ele>810.4</ele>
        <time>1970-01-01T00:03:57.000Z</time>
      </trkpt>
      <trkpt lat="40.40016" lon="-3.318483">
        <ele>810.4</ele>
        <time>1970-01-01T00:03:58.000Z</time>
      </trkpt>
      <trkpt lat="40.400188" lon="-3.318436">
        <ele>810.4</ele>
        <time>1970-01-01T00:03:59.000Z</time>
      </trkpt>
      <trkpt lat="40.400219" lon="-3.318386">
        <ele>810.4</ele>
        <time>1970-01-01T00:04:00.000Z</time>
      </trkpt>
      <trkpt lat="40.400249" lon="-3.318337">
        <ele>810.4</ele>
        <time>1970-01-01T00:04:01.000Z</time>
      </trkpt>
      <trkpt lat="40.400279" lon="-3.318288">
        <ele>810.4</ele>
        <time>1970-01-01T00:04:02.000Z</time>
      </trkpt>
      <trkpt lat="40.40031" lon="-3.318241">
        <ele>810.4</ele>
        <time>1970-01-01T00:04:03.000Z</time>
      </trkpt>
      <trkpt lat="40.400339" lon="-3.318195">
        <ele>810.4</ele>
        <time>1970-01-01T00:04:04.000Z</time>
      </trkpt>
      <trkpt lat="40.400368" lon="-3.318147">
        <ele>810.4</ele>
        <time>1970-01-01T00:04:05.000Z</time>
      </trkpt>
      <trkpt lat="40.400396" lon="-3.318099">
        <ele>810.4</ele>
        <time>1970-01-01T00:04:06.000Z</time>
      </trkpt>
      <trkpt lat="40.400425" lon="-3.318049">
        <ele>810.4</ele>
        <time>1970-01-01T00:04:07.000Z</time>
      </trkpt>
      <trkpt lat="40.400453" lon="-3.317998">
        <ele>810.4</ele>
        <time>1970-01-01T00:04:08.000Z</time>
      </trkpt>
      <trkpt lat="40.40048" lon="-3.317945">
        <ele>810.6</ele>
        <time>1970-01-01T00:04:09.000Z</time>
      </trkpt>
      <trkpt lat="40.400505" lon="-3.317889">
        <ele>810.8</ele>
        <time>1970-01-01T00:04:10.000Z</time>
      </trkpt>
      <trkpt lat="40.40053" lon="-3.317827">
        <ele>811</ele>
        <time>1970-01-01T00:04:11.000Z</time>
      </trkpt>
      <trkpt lat="40.40055" lon="-3.31776">
        <ele>811</ele>
        <time>1970-01-01T00:04:12.000Z</time>
      </trkpt>
      <trkpt lat="40.400565" lon="-3.317687">
        <ele>810.6</ele>
        <time>1970-01-01T00:04:13.000Z</time>
      </trkpt>
      <trkpt lat="40.400576" lon="-3.317611">
        <ele>810.8</ele>
        <time>1970-01-01T00:04:14.000Z</time>
      </trkpt>
      <trkpt lat="40.400584" lon="-3.317536">
        <ele>810.6</ele>
        <time>1970-01-01T00:04:15.000Z</time>
      </trkpt>
      <trkpt lat="40.40058" lon="-3.317467">
        <ele>810.6</ele>
        <time>1970-01-01T00:04:16.000Z</time>
      </trkpt>
      <trkpt lat="40.400563" lon="-3.317403">
        <ele>810.6</ele>
        <time>1970-01-01T00:04:17.000Z</time>
      </trkpt>
      <trkpt lat="40.400533" lon="-3.317354">
        <ele>810.4</ele>
        <time>1970-01-01T00:04:18.000Z</time>
      </trkpt>
      <trkpt lat="40.400497" lon="-3.317315">
        <ele>810.4</ele>
        <time>1970-01-01T00:04:19.000Z</time>
      </trkpt>
      <trkpt lat="40.400458" lon="-3.31728">
        <ele>810.4</ele>
        <time>1970-01-01T00:04:20.000Z</time>
      </trkpt>
      <trkpt lat="40.40042" lon="-3.317249">
        <ele>810.4</ele>
        <time>1970-01-01T00:04:21.000Z</time>
      </trkpt>
      <trkpt lat="40.400383" lon="-3.317219">
        <ele>810.4</ele>
        <time>1970-01-01T00:04:22.000Z</time>
      </trkpt>
      <trkpt lat="40.400348" lon="-3.317189">
        <ele>810.4</ele>
        <time>1970-01-01T00:04:23.000Z</time>
      </trkpt>
      <trkpt lat="40.400316" lon="-3.31716">
        <ele>810.4</ele>
        <time>1970-01-01T00:04:24.000Z</time>
      </trkpt>
      <trkpt lat="40.400286" lon="-3.317133">
        <ele>810.6</ele>
        <time>1970-01-01T00:04:25.000Z</time>
      </trkpt>
      <trkpt lat="40.400257" lon="-3.317105">
        <ele>810.6</ele>
        <time>1970-01-01T00:04:26.000Z</time>
      </trkpt>
      <trkpt lat="40.400227" lon="-3.317079">
        <ele>810.8</ele>
        <time>1970-01-01T00:04:27.000Z</time>
      </trkpt>
      <trkpt lat="40.400197" lon="-3.317053">
        <ele>810.8</ele>
        <time>1970-01-01T00:04:28.000Z</time>
      </trkpt>
      <trkpt lat="40.400167" lon="-3.317028">
        <ele>811</ele>
        <time>1970-01-01T00:04:29.000Z</time>
      </trkpt>
      <trkpt lat="40.40014" lon="-3.317002">
        <ele>811.2</ele>
        <time>1970-01-01T00:04:30.000Z</time>
      </trkpt>
      <trkpt lat="40.400114" lon="-3.316975">
        <ele>811.6</ele>
        <time>1970-01-01T00:04:31.000Z</time>
      </trkpt>
      <trkpt lat="40.400087" lon="-3.316948">
        <ele>811.8</ele>
        <time>1970-01-01T00:04:32.000Z</time>
      </trkpt>
      <trkpt lat="40.400063" lon="-3.316919">
        <ele>812</ele>
        <time>1970-01-01T00:04:33.000Z</time>
      </trkpt>
      <trkpt lat="40.400036" lon="-3.316891">
        <ele>812.4</ele>
        <time>1970-01-01T00:04:34.000Z</time>
      </trkpt>
      <trkpt lat="40.400007" lon="-3.316865">
        <ele>812.8</ele>
        <time>1970-01-01T00:04:35.000Z</time>
      </trkpt>
      <trkpt lat="40.399976" lon="-3.31684">
        <ele>813.2</ele>
        <time>1970-01-01T00:04:36.000Z</time>
      </trkpt>
      <trkpt lat="40.399945" lon="-3.316814">
        <ele>813.4</ele>
        <time>1970-01-01T00:04:37.000Z</time>
      </trkpt>
      <trkpt lat="40.399913" lon="-3.316786">
        <ele>814</ele>
        <time>1970-01-01T00:04:38.000Z</time>
      </trkpt>
      <trkpt lat="40.399882" lon="-3.31676">
        <ele>814.2</ele>
        <time>1970-01-01T00:04:39.000Z</time>
      </trkpt>
      <trkpt lat="40.39985" lon="-3.316732">
        <ele>814.4</ele>
        <time>1970-01-01T00:04:40.000Z</time>
      </trkpt>
      <trkpt lat="40.39982" lon="-3.3167">
        <ele>814.4</ele>
        <time>1970-01-01T00:04:41.000Z</time>
      </trkpt>
      <trkpt lat="40.399788" lon="-3.316668">
        <ele>814.6</ele>
        <time>1970-01-01T00:04:42.000Z</time>
      </trkpt>
      <trkpt lat="40.399758" lon="-3.316639">
        <ele>814.8</ele>
        <time>1970-01-01T00:04:43.000Z</time>
      </trkpt>
      <trkpt lat="40.399726" lon="-3.316613">
        <ele>815</ele>
        <time>1970-01-01T00:04:44.000Z</time>
      </trkpt>
      <trkpt lat="40.399695" lon="-3.316585">
        <ele>815.2</ele>
        <time>1970-01-01T00:04:45.000Z</time>
      </trkpt>
      <trkpt lat="40.399665" lon="-3.316554">
        <ele>815.4</ele>
        <time>1970-01-01T00:04:46.000Z</time>
      </trkpt>
      <trkpt lat="40.399636" lon="-3.316524">
        <ele>815.4</ele>
        <time>1970-01-01T00:04:47.000Z</time>
      </trkpt>
      <trkpt lat="40.399609" lon="-3.316496">
        <ele>815.6</ele>
        <time>1970-01-01T00:04:48.000Z</time>
      </trkpt>
      <trkpt lat="40.399581" lon="-3.316469">
        <ele>815.6</ele>
        <time>1970-01-01T00:04:49.000Z</time>
      </trkpt>
      <trkpt lat="40.399553" lon="-3.316443">
        <ele>815.8</ele>
        <time>1970-01-01T00:04:50.000Z</time>
      </trkpt>
      <trkpt lat="40.399525" lon="-3.316417">
        <ele>816</ele>
        <time>1970-01-01T00:04:51.000Z</time>
      </trkpt>
      <trkpt lat="40.399497" lon="-3.316391">
        <ele>816.4</ele>
        <time>1970-01-01T00:04:52.000Z</time>
      </trkpt>
      <trkpt lat="40.399468" lon="-3.316364">
        <ele>816.8</ele>
        <time>1970-01-01T00:04:53.000Z</time>
      </trkpt>
      <trkpt lat="40.399441" lon="-3.316335">
        <ele>817</ele>
        <time>1970-01-01T00:04:54.000Z</time>
      </trkpt>
      <trkpt lat="40.39941" lon="-3.316308">
        <ele>817.4</ele>
        <time>1970-01-01T00:04:55.000Z</time>
      </trkpt>
      <trkpt lat="40.399383" lon="-3.316278">
        <ele>817.6</ele>
        <time>1970-01-01T00:04:56.000Z</time>
      </trkpt>
      <trkpt lat="40.399352" lon="-3.316249">
        <ele>817.8</ele>
        <time>1970-01-01T00:04:57.000Z</time>
      </trkpt>
      <trkpt lat="40.399322" lon="-3.316222">
        <ele>817.8</ele>
        <time>1970-01-01T00:04:58.000Z</time>
      </trkpt>
      <trkpt lat="40.399292" lon="-3.316194">
        <ele>818</ele>
        <time>1970-01-01T00:04:59.000Z</time>
      </trkpt>
      <trkpt lat="40.399263" lon="-3.316165">
        <ele>818.2</ele>
        <time>1970-01-01T00:05:00.000Z</time>
      </trkpt>
      <trkpt lat="40.399235" lon="-3.316136">
        <ele>818.2</ele>
        <time>1970-01-01T00:05:01.000Z</time>
      </trkpt>
      <trkpt lat="40.399205" lon="-3.316108">
        <ele>818.4</ele>
        <time>1970-01-01T00:05:02.000Z</time>
      </trkpt>
      <trkpt lat="40.399178" lon="-3.316081">
        <ele>818.6</ele>
        <time>1970-01-01T00:05:03.000Z</time>
      </trkpt>
      <trkpt lat="40.399147" lon="-3.316053">
        <ele>818.6</ele>
        <time>1970-01-01T00:05:04.000Z</time>
      </trkpt>
      <trkpt lat="40.399118" lon="-3.316024">
        <ele>818.8</ele>
        <time>1970-01-01T00:05:05.000Z</time>
      </trkpt>
      <trkpt lat="40.399092" lon="-3.315995">
        <ele>818.8</ele>
        <time>1970-01-01T00:05:06.000Z</time>
      </trkpt>
      <trkpt lat="40.399067" lon="-3.31597">
        <ele>819</ele>
        <time>1970-01-01T00:05:07.000Z</time>
      </trkpt>
      <trkpt lat="40.399043" lon="-3.315949">
        <ele>819</ele>
        <time>1970-01-01T00:05:08.000Z</time>
      </trkpt>
      <trkpt lat="40.399021" lon="-3.315929">
        <ele>819</ele>
        <time>1970-01-01T00:05:09.000Z</time>
      </trkpt>
      <trkpt lat="40.399003" lon="-3.315912">
        <ele>819.2</ele>
        <time>1970-01-01T00:05:10.000Z</time>
      </trkpt>
      <trkpt lat="40.398986" lon="-3.315898">
        <ele>819.2</ele>
        <time>1970-01-01T00:05:11.000Z</time>
      </trkpt>
      <trkpt lat="40.398967" lon="-3.315885">
        <ele>819.2</ele>
        <time>1970-01-01T00:05:12.000Z</time>
      </trkpt>
      <trkpt lat="40.398949" lon="-3.315869">
        <ele>819.2</ele>
        <time>1970-01-01T00:05:13.000Z</time>
      </trkpt>
      <trkpt lat="40.398936" lon="-3.315847">
        <ele>819.2</ele>
        <time>1970-01-01T00:05:14.000Z</time>
      </trkpt>
      <trkpt lat="40.398933" lon="-3.315817">
        <ele>819</ele>
        <time>1970-01-01T00:05:15.000Z</time>
      </trkpt>
      <trkpt lat="40.39894" lon="-3.315786">
        <ele>819</ele>
        <time>1970-01-01T00:05:16.000Z</time>
      </trkpt>
      <trkpt lat="40.398954" lon="-3.315756">
        <ele>819</ele>
        <time>1970-01-01T00:05:17.000Z</time>
      </trkpt>
      <trkpt lat="40.398974" lon="-3.315722">
        <ele>819</ele>
        <time>1970-01-01T00:05:18.000Z</time>
      </trkpt>
      <trkpt lat="40.398999" lon="-3.31569">
        <ele>819</ele>
        <time>1970-01-01T00:05:19.000Z</time>
      </trkpt>
      <trkpt lat="40.399026" lon="-3.315658">
        <ele>819</ele>
        <time>1970-01-01T00:05:20.000Z</time>
      </trkpt>
      <trkpt lat="40.399052" lon="-3.315619">
        <ele>818.8</ele>
        <time>1970-01-01T00:05:21.000Z</time>
      </trkpt>
      <trkpt lat="40.399072" lon="-3.315574">
        <ele>818.8</ele>
        <time>1970-01-01T00:05:22.000Z</time>
      </trkpt>
      <trkpt lat="40.399088" lon="-3.315529">
        <ele>818.8</ele>
        <time>1970-01-01T00:05:23.000Z</time>
      </trkpt>
      <trkpt lat="40.399102" lon="-3.315483">
        <ele>818.8</ele>
        <time>1970-01-01T00:05:24.000Z</time>
      </trkpt>
      <trkpt lat="40.399114" lon="-3.315441">
        <ele>818.8</ele>
        <time>1970-01-01T00:05:25.000Z</time>
      </trkpt>
      <trkpt lat="40.399129" lon="-3.315401">
        <ele>818.8</ele>
        <time>1970-01-01T00:05:26.000Z</time>
      </trkpt>
      <trkpt lat="40.399149" lon="-3.315358">
        <ele>818.8</ele>
        <time>1970-01-01T00:05:27.000Z</time>
      </trkpt>
      <trkpt lat="40.399171" lon="-3.315315">
        <ele>818.8</ele>
        <time>1970-01-01T00:05:28.000Z</time>
      </trkpt>
      <trkpt lat="40.399192" lon="-3.315269">
        <ele>818.8</ele>
        <time>1970-01-01T00:05:29.000Z</time>
      </trkpt>
      <trkpt lat="40.399212" lon="-3.315222">
        <ele>818.8</ele>
        <time>1970-01-01T00:05:30.000Z</time>
      </trkpt>
      <trkpt lat="40.399233" lon="-3.315173">
        <ele>818.8</ele>
        <time>1970-01-01T00:05:31.000Z</time>
      </trkpt>
      <trkpt lat="40.399255" lon="-3.315122">
        <ele>818.8</ele>
        <time>1970-01-01T00:05:32.000Z</time>
      </trkpt>
      <trkpt lat="40.399276" lon="-3.315075">
        <ele>818.8</ele>
        <time>1970-01-01T00:05:33.000Z</time>
      </trkpt>
      <trkpt lat="40.399297" lon="-3.315027">
        <ele>818.8</ele>
        <time>1970-01-01T00:05:34.000Z</time>
      </trkpt>
      <trkpt lat="40.399316" lon="-3.31498">
        <ele>819</ele>
        <time>1970-01-01T00:05:35.000Z</time>
      </trkpt>
      <trkpt lat="40.399334" lon="-3.31493">
        <ele>819</ele>
        <time>1970-01-01T00:05:36.000Z</time>
      </trkpt>
      <trkpt lat="40.399353" lon="-3.314878">
        <ele>819</ele>
        <time>1970-01-01T00:05:37.000Z</time>
      </trkpt>
      <trkpt lat="40.399373" lon="-3.314828">
        <ele>819</ele>
        <time>1970-01-01T00:05:38.000Z</time>
      </trkpt>
      <trkpt lat="40.399391" lon="-3.314782">
        <ele>819.2</ele>
        <time>1970-01-01T00:05:39.000Z</time>
      </trkpt>
      <trkpt lat="40.399408" lon="-3.31474">
        <ele>819.4</ele>
        <time>1970-01-01T00:05:40.000Z</time>
      </trkpt>
      <trkpt lat="40.399423" lon="-3.314702">
        <ele>819.6</ele>
        <time>1970-01-01T00:05:41.000Z</time>
      </trkpt>
      <trkpt lat="40.399436" lon="-3.314667">
        <ele>819.8</ele>
        <time>1970-01-01T00:05:42.000Z</time>
      </trkpt>
      <trkpt lat="40.399449" lon="-3.314634">
        <ele>819.8</ele>
        <time>1970-01-01T00:05:43.000Z</time>
      </trkpt>
      <trkpt lat="40.399463" lon="-3.314599">
        <ele>820</ele>
        <time>1970-01-01T00:05:44.000Z</time>
      </trkpt>
      <trkpt lat="40.399477" lon="-3.314564">
        <ele>820</ele>
        <time>1970-01-01T00:05:45.000Z</time>
      </trkpt>
      <trkpt lat="40.399492" lon="-3.31453">
        <ele>820</ele>
        <time>1970-01-01T00:05:46.000Z</time>
      </trkpt>
      <trkpt lat="40.399508" lon="-3.314496">
        <ele>820.2</ele>
        <time>1970-01-01T00:05:47.000Z</time>
      </trkpt>
      <trkpt lat="40.399525" lon="-3.314462">
        <ele>820.2</ele>
        <time>1970-01-01T00:05:48.000Z</time>
      </trkpt>
      <trkpt lat="40.399543" lon="-3.314429">
        <ele>820.4</ele>
        <time>1970-01-01T00:05:49.000Z</time>
      </trkpt>
      <trkpt lat="40.399562" lon="-3.314396">
        <ele>820.6</ele>
        <time>1970-01-01T00:05:50.000Z</time>
      </trkpt>
      <trkpt lat="40.399582" lon="-3.314364">
        <ele>820.8</ele>
        <time>1970-01-01T00:05:51.000Z</time>
      </trkpt>
      <trkpt lat="40.399601" lon="-3.314334">
        <ele>820.8</ele>
        <time>1970-01-01T00:05:52.000Z</time>
      </trkpt>
      <trkpt lat="40.39962" lon="-3.314306">
        <ele>821</ele>
        <time>1970-01-01T00:05:53.000Z</time>
      </trkpt>
      <trkpt lat="40.399639" lon="-3.314278">
        <ele>821</ele>
        <time>1970-01-01T00:05:54.000Z</time>
      </trkpt>
      <trkpt lat="40.399657" lon="-3.314249">
        <ele>821.2</ele>
        <time>1970-01-01T00:05:55.000Z</time>
      </trkpt>
      <trkpt lat="40.399678" lon="-3.314222">
        <ele>821.4</ele>
        <time>1970-01-01T00:05:56.000Z</time>
      </trkpt>
      <trkpt lat="40.399699" lon="-3.314195">
        <ele>821.4</ele>
        <time>1970-01-01T00:05:57.000Z</time>
      </trkpt>
      <trkpt lat="40.399719" lon="-3.314162">
        <ele>821.6</ele>
        <time>1970-01-01T00:05:58.000Z</time>
      </trkpt>
      <trkpt lat="40.399736" lon="-3.314126">
        <ele>821.6</ele>
        <time>1970-01-01T00:05:59.000Z</time>
      </trkpt>
      <trkpt lat="40.399751" lon="-3.314089">
        <ele>821.8</ele>
        <time>1970-01-01T00:06:00.000Z</time>
      </trkpt>
      <trkpt lat="40.399767" lon="-3.314054">
        <ele>821.8</ele>
        <time>1970-01-01T00:06:01.000Z</time>
      </trkpt>
      <trkpt lat="40.399782" lon="-3.314017">
        <ele>821.8</ele>
        <time>1970-01-01T00:06:02.000Z</time>
      </trkpt>
      <trkpt lat="40.399794" lon="-3.313979">
        <ele>822</ele>
        <time>1970-01-01T00:06:03.000Z</time>
      </trkpt>
      <trkpt lat="40.39981" lon="-3.313941">
        <ele>822</ele>
        <time>1970-01-01T00:06:04.000Z</time>
      </trkpt>
      <trkpt lat="40.399826" lon="-3.313902">
        <ele>822</ele>
        <time>1970-01-01T00:06:05.000Z</time>
      </trkpt>
      <trkpt lat="40.399841" lon="-3.313864">
        <ele>822</ele>
        <time>1970-01-01T00:06:06.000Z</time>
      </trkpt>
      <trkpt lat="40.399856" lon="-3.313824">
        <ele>822.2</ele>
        <time>1970-01-01T00:06:07.000Z</time>
      </trkpt>
      <trkpt lat="40.399873" lon="-3.313779">
        <ele>822.2</ele>
        <time>1970-01-01T00:06:08.000Z</time>
      </trkpt>
      <trkpt lat="40.399892" lon="-3.313731">
        <ele>822.4</ele>
        <time>1970-01-01T00:06:09.000Z</time>
      </trkpt>
      <trkpt lat="40.399913" lon="-3.313683">
        <ele>822.4</ele>
        <time>1970-01-01T00:06:10.000Z</time>
      </trkpt>
      <trkpt lat="40.399934" lon="-3.313637">
        <ele>822.4</ele>
        <time>1970-01-01T00:06:11.000Z</time>
      </trkpt>
      <trkpt lat="40.399955" lon="-3.313587">
        <ele>822.6</ele>
        <time>1970-01-01T00:06:12.000Z</time>
      </trkpt>
      <trkpt lat="40.399977" lon="-3.313534">
        <ele>822.6</ele>
        <time>1970-01-01T00:06:13.000Z</time>
      </trkpt>
      <trkpt lat="40.4" lon="-3.313481">
        <ele>822.8</ele>
        <time>1970-01-01T00:06:14.000Z</time>
      </trkpt>
      <trkpt lat="40.400024" lon="-3.313427">
        <ele>822.8</ele>
        <time>1970-01-01T00:06:15.000Z</time>
      </trkpt>
      <trkpt lat="40.400051" lon="-3.313372">
        <ele>822.8</ele>
        <time>1970-01-01T00:06:16.000Z</time>
      </trkpt>
      <trkpt lat="40.40008" lon="-3.313318">
        <ele>823</ele>
        <time>1970-01-01T00:06:17.000Z</time>
      </trkpt>
      <trkpt lat="40.400112" lon="-3.313268">
        <ele>823</ele>
        <time>1970-01-01T00:06:18.000Z</time>
      </trkpt>
      <trkpt lat="40.400146" lon="-3.313218">
        <ele>823.2</ele>
        <time>1970-01-01T00:06:19.000Z</time>
      </trkpt>
      <trkpt lat="40.400177" lon="-3.313163">
        <ele>823.4</ele>
        <time>1970-01-01T00:06:20.000Z</time>
      </trkpt>
      <trkpt lat="40.400202" lon="-3.313103">
        <ele>823.4</ele>
        <time>1970-01-01T00:06:21.000Z</time>
      </trkpt>
      <trkpt lat="40.400226" lon="-3.313042">
        <ele>823.4</ele>
        <time>1970-01-01T00:06:22.000Z</time>
      </trkpt>
      <trkpt lat="40.400249" lon="-3.312983">
        <ele>823.6</ele>
        <time>1970-01-01T00:06:23.000Z</time>
      </trkpt>
      <trkpt lat="40.400274" lon="-3.312926">
        <ele>823.6</ele>
        <time>1970-01-01T00:06:24.000Z</time>
      </trkpt>
      <trkpt lat="40.400296" lon="-3.31287">
        <ele>823.6</ele>
        <time>1970-01-01T00:06:25.000Z</time>
      </trkpt>
      <trkpt lat="40.400318" lon="-3.312813">
        <ele>823.6</ele>
        <time>1970-01-01T00:06:26.000Z</time>
      </trkpt>
      <trkpt lat="40.400339" lon="-3.312755">
        <ele>823.6</ele>
        <time>1970-01-01T00:06:27.000Z</time>
      </trkpt>
      <trkpt lat="40.400357" lon="-3.312695">
        <ele>823.8</ele>
        <time>1970-01-01T00:06:28.000Z</time>
      </trkpt>
      <trkpt lat="40.400372" lon="-3.312635">
        <ele>824</ele>
        <time>1970-01-01T00:06:29.000Z</time>
      </trkpt>
      <trkpt lat="40.400388" lon="-3.312578">
        <ele>824.2</ele>
        <time>1970-01-01T00:06:30.000Z</time>
      </trkpt>
      <trkpt lat="40.400406" lon="-3.312526">
        <ele>824.2</ele>
        <time>1970-01-01T00:06:31.000Z</time>
      </trkpt>
      <trkpt lat="40.400429" lon="-3.312475">
        <ele>824.2</ele>
        <time>1970-01-01T00:06:32.000Z</time>
      </trkpt>
      <trkpt lat="40.400455" lon="-3.312425">
        <ele>824.4</ele>
        <time>1970-01-01T00:06:33.000Z</time>
      </trkpt>
      <trkpt lat="40.400481" lon="-3.312375">
        <ele>824.4</ele>
        <time>1970-01-01T00:06:34.000Z</time>
      </trkpt>
      <trkpt lat="40.400503" lon="-3.312322">
        <ele>824.4</ele>
        <time>1970-01-01T00:06:35.000Z</time>
      </trkpt>
      <trkpt lat="40.400521" lon="-3.31227">
        <ele>824.4</ele>
        <time>1970-01-01T00:06:36.000Z</time>
      </trkpt>
      <trkpt lat="40.400539" lon="-3.312226">
        <ele>824.4</ele>
        <time>1970-01-01T00:06:37.000Z</time>
      </trkpt>
      <trkpt lat="40.400555" lon="-3.312193">
        <ele>824.4</ele>
        <time>1970-01-01T00:06:38.000Z</time>
      </trkpt>
      <trkpt lat="40.400569" lon="-3.312171">
        <ele>824.4</ele>
        <time>1970-01-01T00:06:39.000Z</time>
      </trkpt>
      <trkpt lat="40.400583" lon="-3.312155">
        <ele>824.6</ele>
        <time>1970-01-01T00:06:40.000Z</time>
      </trkpt>
      <trkpt lat="40.400605" lon="-3.312148">
        <ele>824.6</ele>
        <time>1970-01-01T00:06:41.000Z</time>
      </trkpt>
      <trkpt lat="40.400627" lon="-3.312141">
        <ele>824.8</ele>
        <time>1970-01-01T00:06:42.000Z</time>
      </trkpt>
      <trkpt lat="40.400644" lon="-3.312129">
        <ele>824.6</ele>
        <time>1970-01-01T00:06:43.000Z</time>
      </trkpt>
      <trkpt lat="40.400655" lon="-3.312105">
        <ele>824.8</ele>
        <time>1970-01-01T00:06:44.000Z</time>
      </trkpt>
      <trkpt lat="40.400654" lon="-3.312078">
        <ele>824.6</ele>
        <time>1970-01-01T00:06:45.000Z</time>
      </trkpt>
      <trkpt lat="40.400644" lon="-3.312058">
        <ele>824.8</ele>
        <time>1970-01-01T00:06:46.000Z</time>
      </trkpt>
      <trkpt lat="40.400625" lon="-3.312046">
        <ele>824.8</ele>
        <time>1970-01-01T00:06:47.000Z</time>
      </trkpt>
      <trkpt lat="40.400601" lon="-3.31204">
        <ele>824.8</ele>
        <time>1970-01-01T00:06:48.000Z</time>
      </trkpt>
      <trkpt lat="40.400577" lon="-3.312028">
        <ele>824.8</ele>
        <time>1970-01-01T00:06:49.000Z</time>
      </trkpt>
      <trkpt lat="40.400556" lon="-3.312009">
        <ele>824.8</ele>
        <time>1970-01-01T00:06:50.000Z</time>
      </trkpt>
      <trkpt lat="40.400532" lon="-3.311988">
        <ele>824.8</ele>
        <time>1970-01-01T00:06:51.000Z</time>
      </trkpt>
      <trkpt lat="40.400507" lon="-3.311966">
        <ele>824.8</ele>
        <time>1970-01-01T00:06:52.000Z</time>
      </trkpt>
      <trkpt lat="40.400482" lon="-3.311947">
        <ele>824.8</ele>
        <time>1970-01-01T00:06:53.000Z</time>
      </trkpt>
      <trkpt lat="40.40046" lon="-3.311928">
        <ele>825</ele>
        <time>1970-01-01T00:06:54.000Z</time>
      </trkpt>
      <trkpt lat="40.400434" lon="-3.311913">
        <ele>825</ele>
        <time>1970-01-01T00:06:55.000Z</time>
      </trkpt>
      <trkpt lat="40.40041" lon="-3.311897">
        <ele>825.2</ele>
        <time>1970-01-01T00:06:56.000Z</time>
      </trkpt>
      <trkpt lat="40.400389" lon="-3.311879">
        <ele>825.4</ele>
        <time>1970-01-01T00:06:57.000Z</time>
      </trkpt>
      <trkpt lat="40.40037" lon="-3.311863">
        <ele>825.4</ele>
        <time>1970-01-01T00:06:58.000Z</time>
      </trkpt>
      <trkpt lat="40.400354" lon="-3.311847">
        <ele>825.8</ele>
        <time>1970-01-01T00:06:59.000Z</time>
      </trkpt>
      <trkpt lat="40.400338" lon="-3.311829">
        <ele>826</ele>
        <time>1970-01-01T00:07:00.000Z</time>
      </trkpt>
      <trkpt lat="40.400322" lon="-3.311811">
        <ele>826.2</ele>
        <time>1970-01-01T00:07:01.000Z</time>
      </trkpt>
      <trkpt lat="40.400302" lon="-3.311793">
        <ele>826.2</ele>
        <time>1970-01-01T00:07:02.000Z</time>
      </trkpt>
      <trkpt lat="40.400284" lon="-3.311772">
        <ele>826.4</ele>
        <time>1970-01-01T00:07:03.000Z</time>
      </trkpt>
      <trkpt lat="40.400267" lon="-3.31175">
        <ele>826.6</ele>
        <time>1970-01-01T00:07:04.000Z</time>
      </trkpt>
      <trkpt lat="40.400249" lon="-3.311731">
        <ele>826.6</ele>
        <time>1970-01-01T00:07:05.000Z</time>
      </trkpt>
      <trkpt lat="40.400231" lon="-3.311715">
        <ele>826.8</ele>
        <time>1970-01-01T00:07:06.000Z</time>
      </trkpt>
      <trkpt lat="40.400213" lon="-3.311699">
        <ele>826.8</ele>
        <time>1970-01-01T00:07:07.000Z</time>
      </trkpt>
      <trkpt lat="40.400194" lon="-3.311683">
        <ele>826.8</ele>
        <time>1970-01-01T00:07:08.000Z</time>
      </trkpt>
      <trkpt lat="40.400176" lon="-3.311666">
        <ele>827</ele>
        <time>1970-01-01T00:07:09.000Z</time>
      </trkpt>
      <trkpt lat="40.400162" lon="-3.311645">
        <ele>827</ele>
        <time>1970-01-01T00:07:10.000Z</time>
      </trkpt>
      <trkpt lat="40.400145" lon="-3.311625">
        <ele>827</ele>
        <time>1970-01-01T00:07:11.000Z</time>
      </trkpt>
      <trkpt lat="40.400127" lon="-3.311607">
        <ele>827.2</ele>
        <time>1970-01-01T00:07:12.000Z</time>
      </trkpt>
      <trkpt lat="40.400107" lon="-3.311592">
        <ele>827.2</ele>
        <time>1970-01-01T00:07:13.000Z</time>
      </trkpt>
      <trkpt lat="40.400087" lon="-3.311572">
        <ele>827.4</ele>
        <time>1970-01-01T00:07:14.000Z</time>
      </trkpt>
      <trkpt lat="40.400069" lon="-3.311548">
        <ele>827.4</ele>
        <time>1970-01-01T00:07:15.000Z</time>
      </trkpt>
      <trkpt lat="40.40005" lon="-3.311526">
        <ele>827.4</ele>
        <time>1970-01-01T00:07:16.000Z</time>
      </trkpt>
      <trkpt lat="40.400029" lon="-3.311504">
        <ele>827.6</ele>
        <time>1970-01-01T00:07:17.000Z</time>
      </trkpt>
      <trkpt lat="40.400006" lon="-3.311482">
        <ele>827.6</ele>
        <time>1970-01-01T00:07:18.000Z</time>
      </trkpt>
      <trkpt lat="40.399982" lon="-3.311459">
        <ele>828</ele>
        <time>1970-01-01T00:07:19.000Z</time>
      </trkpt>
      <trkpt lat="40.399959" lon="-3.311434">
        <ele>828.2</ele>
        <time>1970-01-01T00:07:20.000Z</time>
      </trkpt>
      <trkpt lat="40.399937" lon="-3.311411">
        <ele>828.2</ele>
        <time>1970-01-01T00:07:21.000Z</time>
      </trkpt>
      <trkpt lat="40.399921" lon="-3.31139">
        <ele>828.4</ele>
        <time>1970-01-01T00:07:22.000Z</time>
      </trkpt>
      <trkpt lat="40.399903" lon="-3.311367">
        <ele>828.6</ele>
        <time>1970-01-01T00:07:23.000Z</time>
      </trkpt>
      <trkpt lat="40.399891" lon="-3.311354">
        <ele>828.6</ele>
        <time>1970-01-01T00:07:24.000Z</time>
      </trkpt>
      <trkpt lat="40.399875" lon="-3.311336">
        <ele>828.8</ele>
        <time>1970-01-01T00:07:25.000Z</time>
      </trkpt>
      <trkpt lat="40.399858" lon="-3.311317">
        <ele>828.8</ele>
        <time>1970-01-01T00:07:26.000Z</time>
      </trkpt>
      <trkpt lat="40.399841" lon="-3.3113">
        <ele>829</ele>
        <time>1970-01-01T00:07:27.000Z</time>
      </trkpt>
      <trkpt lat="40.399823" lon="-3.31128">
        <ele>829</ele>
        <time>1970-01-01T00:07:28.000Z</time>
      </trkpt>
      <trkpt lat="40.399803" lon="-3.311259">
        <ele>829</ele>
        <time>1970-01-01T00:07:29.000Z</time>
      </trkpt>
      <trkpt lat="40.399785" lon="-3.311236">
        <ele>829.2</ele>
        <time>1970-01-01T00:07:30.000Z</time>
      </trkpt>
      <trkpt lat="40.399767" lon="-3.311214">
        <ele>829.2</ele>
        <time>1970-01-01T00:07:31.000Z</time>
      </trkpt>
      <trkpt lat="40.39975" lon="-3.311195">
        <ele>829.2</ele>
        <time>1970-01-01T00:07:32.000Z</time>
      </trkpt>
      <trkpt lat="40.399731" lon="-3.311176">
        <ele>829.4</ele>
        <time>1970-01-01T00:07:33.000Z</time>
      </trkpt>
      <trkpt lat="40.399711" lon="-3.311155">
        <ele>829.6</ele>
        <time>1970-01-01T00:07:34.000Z</time>
      </trkpt>
      <trkpt lat="40.399691" lon="-3.311135">
        <ele>829.8</ele>
        <time>1970-01-01T00:07:35.000Z</time>
      </trkpt>
      <trkpt lat="40.39967" lon="-3.311116">
        <ele>830</ele>
        <time>1970-01-01T00:07:36.000Z</time>
      </trkpt>
      <trkpt lat="40.399651" lon="-3.311096">
        <ele>830</ele>
        <time>1970-01-01T00:07:37.000Z</time>
      </trkpt>
      <trkpt lat="40.399633" lon="-3.311076">
        <ele>830.2</ele>
        <time>1970-01-01T00:07:38.000Z</time>
      </trkpt>
      <trkpt lat="40.399615" lon="-3.311055">
        <ele>830.2</ele>
        <time>1970-01-01T00:07:39.000Z</time>
      </trkpt>
      <trkpt lat="40.399598" lon="-3.311036">
        <ele>830.4</ele>
        <time>1970-01-01T00:07:40.000Z</time>
      </trkpt>
      <trkpt lat="40.39958" lon="-3.311018">
        <ele>830.4</ele>
        <time>1970-01-01T00:07:41.000Z</time>
      </trkpt>
      <trkpt lat="40.399562" lon="-3.311001">
        <ele>830.6</ele>
        <time>1970-01-01T00:07:42.000Z</time>
      </trkpt>
      <trkpt lat="40.399546" lon="-3.310982">
        <ele>830.6</ele>
        <time>1970-01-01T00:07:43.000Z</time>
      </trkpt>
      <trkpt lat="40.399527" lon="-3.310964">
        <ele>830.6</ele>
        <time>1970-01-01T00:07:44.000Z</time>
      </trkpt>
      <trkpt lat="40.39951" lon="-3.310948">
        <ele>830.8</ele>
        <time>1970-01-01T00:07:45.000Z</time>
      </trkpt>
      <trkpt lat="40.399494" lon="-3.31093">
        <ele>831</ele>
        <time>1970-01-01T00:07:46.000Z</time>
      </trkpt>
      <trkpt lat="40.399477" lon="-3.310913">
        <ele>831.2</ele>
        <time>1970-01-01T00:07:47.000Z</time>
      </trkpt>
      <trkpt lat="40.39946" lon="-3.310896">
        <ele>831.4</ele>
        <time>1970-01-01T00:07:48.000Z</time>
      </trkpt>
      <trkpt lat="40.399444" lon="-3.310879">
        <ele>831.4</ele>
        <time>1970-01-01T00:07:49.000Z</time>
      </trkpt>
      <trkpt lat="40.399428" lon="-3.310863">
        <ele>831.6</ele>
        <time>1970-01-01T00:07:50.000Z</time>
      </trkpt>
      <trkpt lat="40.399412" lon="-3.310847">
        <ele>831.8</ele>
        <time>1970-01-01T00:07:51.000Z</time>
      </trkpt>
      <trkpt lat="40.399396" lon="-3.310829">
        <ele>832</ele>
        <time>1970-01-01T00:07:52.000Z</time>
      </trkpt>
      <trkpt lat="40.399377" lon="-3.310811">
        <ele>832.2</ele>
        <time>1970-01-01T00:07:53.000Z</time>
      </trkpt>
      <trkpt lat="40.39936" lon="-3.310793">
        <ele>832.4</ele>
        <time>1970-01-01T00:07:54.000Z</time>
      </trkpt>
      <trkpt lat="40.399341" lon="-3.310772">
        <ele>832.4</ele>
        <time>1970-01-01T00:07:55.000Z</time>
      </trkpt>
      <trkpt lat="40.39932" lon="-3.310748">
        <ele>832.6</ele>
        <time>1970-01-01T00:07:56.000Z</time>
      </trkpt>
      <trkpt lat="40.399299" lon="-3.310724">
        <ele>832.8</ele>
        <time>1970-01-01T00:07:57.000Z</time>
      </trkpt>
      <trkpt lat="40.399277" lon="-3.310699">
        <ele>832.8</ele>
        <time>1970-01-01T00:07:58.000Z</time>
      </trkpt>
      <trkpt lat="40.399257" lon="-3.310672">
        <ele>833</ele>
        <time>1970-01-01T00:07:59.000Z</time>
      </trkpt>
      <trkpt lat="40.399236" lon="-3.310647">
        <ele>833</ele>
        <time>1970-01-01T00:08:00.000Z</time>
      </trkpt>
      <trkpt lat="40.399219" lon="-3.310619">
        <ele>833.4</ele>
        <time>1970-01-01T00:08:01.000Z</time>
      </trkpt>
      <trkpt lat="40.3992" lon="-3.310592">
        <ele>833.6</ele>
        <time>1970-01-01T00:08:02.000Z</time>
      </trkpt>
      <trkpt lat="40.399181" lon="-3.310567">
        <ele>833.6</ele>
        <time>1970-01-01T00:08:03.000Z</time>
      </trkpt>
      <trkpt lat="40.399162" lon="-3.31054">
        <ele>833.8</ele>
        <time>1970-01-01T00:08:04.000Z</time>
      </trkpt>
      <trkpt lat="40.399144" lon="-3.310515">
        <ele>834</ele>
        <time>1970-01-01T00:08:05.000Z</time>
      </trkpt>
      <trkpt lat="40.399124" lon="-3.310491">
        <ele>834.2</ele>
        <time>1970-01-01T00:08:06.000Z</time>
      </trkpt>
      <trkpt lat="40.399102" lon="-3.310467">
        <ele>834.4</ele>
        <time>1970-01-01T00:08:07.000Z</time>
      </trkpt>
      <trkpt lat="40.399079" lon="-3.310443">
        <ele>834.4</ele>
        <time>1970-01-01T00:08:08.000Z</time>
      </trkpt>
      <trkpt lat="40.399056" lon="-3.310417">
        <ele>834.4</ele>
        <time>1970-01-01T00:08:09.000Z</time>
      </trkpt>
      <trkpt lat="40.399033" lon="-3.310392">
        <ele>834.6</ele>
        <time>1970-01-01T00:08:10.000Z</time>
      </trkpt>
      <trkpt lat="40.39901" lon="-3.310365">
        <ele>834.8</ele>
        <time>1970-01-01T00:08:11.000Z</time>
      </trkpt>
      <trkpt lat="40.398987" lon="-3.310337">
        <ele>834.8</ele>
        <time>1970-01-01T00:08:12.000Z</time>
      </trkpt>
      <trkpt lat="40.398966" lon="-3.310307">
        <ele>834.8</ele>
        <time>1970-01-01T00:08:13.000Z</time>
      </trkpt>
      <trkpt lat="40.398947" lon="-3.310277">
        <ele>835</ele>
        <time>1970-01-01T00:08:14.000Z</time>
      </trkpt>
      <trkpt lat="40.398925" lon="-3.310247">
        <ele>835.2</ele>
        <time>1970-01-01T00:08:15.000Z</time>
      </trkpt>
      <trkpt lat="40.398903" lon="-3.310221">
        <ele>835.4</ele>
        <time>1970-01-01T00:08:16.000Z</time>
      </trkpt>
      <trkpt lat="40.398876" lon="-3.310197">
        <ele>835.6</ele>
        <time>1970-01-01T00:08:17.000Z</time>
      </trkpt>
      <trkpt lat="40.398851" lon="-3.310168">
        <ele>835.6</ele>
        <time>1970-01-01T00:08:18.000Z</time>
      </trkpt>
      <trkpt lat="40.398826" lon="-3.310137">
        <ele>835.8</ele>
        <time>1970-01-01T00:08:19.000Z</time>
      </trkpt>
      <trkpt lat="40.3988" lon="-3.310104">
        <ele>835.8</ele>
        <time>1970-01-01T00:08:20.000Z</time>
      </trkpt>
      <trkpt lat="40.398776" lon="-3.310073">
        <ele>836</ele>
        <time>1970-01-01T00:08:21.000Z</time>
      </trkpt>
      <trkpt lat="40.398755" lon="-3.310044">
        <ele>836</ele>
        <time>1970-01-01T00:08:22.000Z</time>
      </trkpt>
      <trkpt lat="40.398736" lon="-3.310014">
        <ele>836</ele>
        <time>1970-01-01T00:08:23.000Z</time>
      </trkpt>
      <trkpt lat="40.39872" lon="-3.309986">
        <ele>836.2</ele>
        <time>1970-01-01T00:08:24.000Z</time>
      </trkpt>
      <trkpt lat="40.398706" lon="-3.309958">
        <ele>836.2</ele>
        <time>1970-01-01T00:08:25.000Z</time>
      </trkpt>
      <trkpt lat="40.398694" lon="-3.309931">
        <ele>836.2</ele>
        <time>1970-01-01T00:08:26.000Z</time>
      </trkpt>
      <trkpt lat="40.398684" lon="-3.309904">
        <ele>836.2</ele>
        <time>1970-01-01T00:08:27.000Z</time>
      </trkpt>
      <trkpt lat="40.39868" lon="-3.309877">
        <ele>836.2</ele>
        <time>1970-01-01T00:08:28.000Z</time>
      </trkpt>
      <trkpt lat="40.398679" lon="-3.309849">
        <ele>836.2</ele>
        <time>1970-01-01T00:08:29.000Z</time>
      </trkpt>
      <trkpt lat="40.398682" lon="-3.309821">
        <ele>836.2</ele>
        <time>1970-01-01T00:08:30.000Z</time>
      </trkpt>
      <trkpt lat="40.398689" lon="-3.309795">
        <ele>836.2</ele>
        <time>1970-01-01T00:08:31.000Z</time>
      </trkpt>
      <trkpt lat="40.398696" lon="-3.309767">
        <ele>836.4</ele>
        <time>1970-01-01T00:08:32.000Z</time>
      </trkpt>
      <trkpt lat="40.398703" lon="-3.309743">
        <ele>836.4</ele>
        <time>1970-01-01T00:08:33.000Z</time>
      </trkpt>
      <trkpt lat="40.398712" lon="-3.309716">
        <ele>836.4</ele>
        <time>1970-01-01T00:08:34.000Z</time>
      </trkpt>
      <trkpt lat="40.398717" lon="-3.309688">
        <ele>836.4</ele>
        <time>1970-01-01T00:08:35.000Z</time>
      </trkpt>
      <trkpt lat="40.398718" lon="-3.309658">
        <ele>836.4</ele>
        <time>1970-01-01T00:08:36.000Z</time>
      </trkpt>
      <trkpt lat="40.398716" lon="-3.309641">
        <ele>836.6</ele>
        <time>1970-01-01T00:08:37.000Z</time>
      </trkpt>
      <trkpt lat="40.398712" lon="-3.30962">
        <ele>836.6</ele>
        <time>1970-01-01T00:08:38.000Z</time>
      </trkpt>
      <trkpt lat="40.398702" lon="-3.309602">
        <ele>836.6</ele>
        <time>1970-01-01T00:08:39.000Z</time>
      </trkpt>
      <trkpt lat="40.398684" lon="-3.309578">
        <ele>836.6</ele>
        <time>1970-01-01T00:08:40.000Z</time>
      </trkpt>
      <trkpt lat="40.398667" lon="-3.309567">
        <ele>836.6</ele>
        <time>1970-01-01T00:08:41.000Z</time>
      </trkpt>
      <trkpt lat="40.39864" lon="-3.309558">
        <ele>836.6</ele>
        <time>1970-01-01T00:08:42.000Z</time>
      </trkpt>
      <trkpt lat="40.39862" lon="-3.309557">
        <ele>836.4</ele>
        <time>1970-01-01T00:08:43.000Z</time>
      </trkpt>
      <trkpt lat="40.398594" lon="-3.309553">
        <ele>836.4</ele>
        <time>1970-01-01T00:08:44.000Z</time>
      </trkpt>
      <trkpt lat="40.398564" lon="-3.309551">
        <ele>836.4</ele>
        <time>1970-01-01T00:08:45.000Z</time>
      </trkpt>
      <trkpt lat="40.398539" lon="-3.309555">
        <ele>836.2</ele>
        <time>1970-01-01T00:08:46.000Z</time>
      </trkpt>
      <trkpt lat="40.39852" lon="-3.309563">
        <ele>836.2</ele>
        <time>1970-01-01T00:08:47.000Z</time>
      </trkpt>
      <trkpt lat="40.398496" lon="-3.309579">
        <ele>835.8</ele>
        <time>1970-01-01T00:08:48.000Z</time>
      </trkpt>
      <trkpt lat="40.398474" lon="-3.309605">
        <ele>836</ele>
        <time>1970-01-01T00:08:49.000Z</time>
      </trkpt>
      <trkpt lat="40.398465" lon="-3.309623">
        <ele>835.8</ele>
        <time>1970-01-01T00:08:50.000Z</time>
      </trkpt>
      <trkpt lat="40.398453" lon="-3.309652">
        <ele>835.8</ele>
        <time>1970-01-01T00:08:51.000Z</time>
      </trkpt>
      <trkpt lat="40.398445" lon="-3.309676">
        <ele>835.8</ele>
        <time>1970-01-01T00:08:52.000Z</time>
      </trkpt>
      <trkpt lat="40.398435" lon="-3.309708">
        <ele>835.6</ele>
        <time>1970-01-01T00:08:53.000Z</time>
      </trkpt>
      <trkpt lat="40.398415" lon="-3.309752">
        <ele>835.6</ele>
        <time>1970-01-01T00:08:54.000Z</time>
      </trkpt>
      <trkpt lat="40.39839" lon="-3.309784">
        <ele>835.6</ele>
        <time>1970-01-01T00:08:55.000Z</time>
      </trkpt>
      <trkpt lat="40.398365" lon="-3.309803">
        <ele>835.6</ele>
        <time>1970-01-01T00:08:56.000Z</time>
      </trkpt>
      <trkpt lat="40.398328" lon="-3.309818">
        <ele>835.6</ele>
        <time>1970-01-01T00:08:57.000Z</time>
      </trkpt>
      <trkpt lat="40.398276" lon="-3.309837">
        <ele>835.6</ele>
        <time>1970-01-01T00:08:58.000Z</time>
      </trkpt>
      <trkpt lat="40.39824" lon="-3.309845">
        <ele>835.6</ele>
        <time>1970-01-01T00:08:59.000Z</time>
      </trkpt>
      <trkpt lat="40.398186" lon="-3.309857">
        <ele>835.4</ele>
        <time>1970-01-01T00:09:00.000Z</time>
      </trkpt>
      <trkpt lat="40.398148" lon="-3.309866">
        <ele>835.4</ele>
        <time>1970-01-01T00:09:01.000Z</time>
      </trkpt>
      <trkpt lat="40.3981" lon="-3.309876">
        <ele>835.2</ele>
        <time>1970-01-01T00:09:02.000Z</time>
      </trkpt>
      <trkpt lat="40.398043" lon="-3.30989">
        <ele>835</ele>
        <time>1970-01-01T00:09:03.000Z</time>
      </trkpt>
      <trkpt lat="40.397997" lon="-3.309907">
        <ele>835</ele>
        <time>1970-01-01T00:09:04.000Z</time>
      </trkpt>
      <trkpt lat="40.397962" lon="-3.309924">
        <ele>834.8</ele>
        <time>1970-01-01T00:09:05.000Z</time>
      </trkpt>
      <trkpt lat="40.39792" lon="-3.309944">
        <ele>834.6</ele>
        <time>1970-01-01T00:09:06.000Z</time>
      </trkpt>
      <trkpt lat="40.397878" lon="-3.309964">
        <ele>834.6</ele>
        <time>1970-01-01T00:09:07.000Z</time>
      </trkpt>
      <trkpt lat="40.397839" lon="-3.309977">
        <ele>834.6</ele>
        <time>1970-01-01T00:09:08.000Z</time>
      </trkpt>
      <trkpt lat="40.397797" lon="-3.309991">
        <ele>834.4</ele>
        <time>1970-01-01T00:09:09.000Z</time>
      </trkpt>
      <trkpt lat="40.397762" lon="-3.310003">
        <ele>834.4</ele>
        <time>1970-01-01T00:09:10.000Z</time>
      </trkpt>
      <trkpt lat="40.397734" lon="-3.310011">
        <ele>834.4</ele>
        <time>1970-01-01T00:09:11.000Z</time>
      </trkpt>
      <trkpt lat="40.397693" lon="-3.31002">
        <ele>834.4</ele>
        <time>1970-01-01T00:09:12.000Z</time>
      </trkpt>
      <trkpt lat="40.397659" lon="-3.310025">
        <ele>834.4</ele>
        <time>1970-01-01T00:09:13.000Z</time>
      </trkpt>
      <trkpt lat="40.397631" lon="-3.310026">
        <ele>834.4</ele>
        <time>1970-01-01T00:09:14.000Z</time>
      </trkpt>
      <trkpt lat="40.397597" lon="-3.31003">
        <ele>834.4</ele>
        <time>1970-01-01T00:09:15.000Z</time>
      </trkpt>
      <trkpt lat="40.397563" lon="-3.310035">
        <ele>834.4</ele>
        <time>1970-01-01T00:09:16.000Z</time>
      </trkpt>
      <trkpt lat="40.397532" lon="-3.310041">
        <ele>834.4</ele>
        <time>1970-01-01T00:09:17.000Z</time>
      </trkpt>
      <trkpt lat="40.397493" lon="-3.310054">
        <ele>834.4</ele>
        <time>1970-01-01T00:09:18.000Z</time>
      </trkpt>
      <trkpt lat="40.397466" lon="-3.310067">
        <ele>834.4</ele>
        <time>1970-01-01T00:09:19.000Z</time>
      </trkpt>
      <trkpt lat="40.397431" lon="-3.310081">
        <ele>834.4</ele>
        <time>1970-01-01T00:09:20.000Z</time>
      </trkpt>
      <trkpt lat="40.397393" lon="-3.310094">
        <ele>834.4</ele>
        <time>1970-01-01T00:09:21.000Z</time>
      </trkpt>
      <trkpt lat="40.397351" lon="-3.310106">
        <ele>834.2</ele>
        <time>1970-01-01T00:09:22.000Z</time>
      </trkpt>
      <trkpt lat="40.397305" lon="-3.310117">
        <ele>834.2</ele>
        <time>1970-01-01T00:09:23.000Z</time>
      </trkpt>
      <trkpt lat="40.397255" lon="-3.310128">
        <ele>834.2</ele>
        <time>1970-01-01T00:09:24.000Z</time>
      </trkpt>
      <trkpt lat="40.397201" lon="-3.310138">
        <ele>834.2</ele>
        <time>1970-01-01T00:09:25.000Z</time>
      </trkpt>
      <trkpt lat="40.397147" lon="-3.310151">
        <ele>834.2</ele>
        <time>1970-01-01T00:09:26.000Z</time>
      </trkpt>
      <trkpt lat="40.397079" lon="-3.310164">
        <ele>834</ele>
        <time>1970-01-01T00:09:27.000Z</time>
      </trkpt>
      <trkpt lat="40.397023" lon="-3.310173">
        <ele>833.6</ele>
        <time>1970-01-01T00:09:28.000Z</time>
      </trkpt>
      <trkpt lat="40.396975" lon="-3.310183">
        <ele>833.4</ele>
        <time>1970-01-01T00:09:29.000Z</time>
      </trkpt>
      <trkpt lat="40.3969" lon="-3.310203">
        <ele>833</ele>
        <time>1970-01-01T00:09:30.000Z</time>
      </trkpt>
      <trkpt lat="40.396849" lon="-3.310222">
        <ele>832.8</ele>
        <time>1970-01-01T00:09:31.000Z</time>
      </trkpt>
      <trkpt lat="40.396785" lon="-3.310242">
        <ele>832.6</ele>
        <time>1970-01-01T00:09:32.000Z</time>
      </trkpt>
      <trkpt lat="40.39672" lon="-3.31026">
        <ele>832.4</ele>
        <time>1970-01-01T00:09:33.000Z</time>
      </trkpt>
      <trkpt lat="40.396639" lon="-3.310287">
        <ele>832</ele>
        <time>1970-01-01T00:09:34.000Z</time>
      </trkpt>
      <trkpt lat="40.396581" lon="-3.310313">
        <ele>831.2</ele>
        <time>1970-01-01T00:09:35.000Z</time>
      </trkpt>
      <trkpt lat="40.396507" lon="-3.310349">
        <ele>831</ele>
        <time>1970-01-01T00:09:36.000Z</time>
      </trkpt>
      <trkpt lat="40.396414" lon="-3.310396">
        <ele>830.4</ele>
        <time>1970-01-01T00:09:37.000Z</time>
      </trkpt>
      <trkpt lat="40.396349" lon="-3.310429">
        <ele>830</ele>
        <time>1970-01-01T00:09:38.000Z</time>
      </trkpt>
      <trkpt lat="40.396268" lon="-3.310471">
        <ele>829</ele>
        <time>1970-01-01T00:09:39.000Z</time>
      </trkpt>
      <trkpt lat="40.396169" lon="-3.310516">
        <ele>828.6</ele>
        <time>1970-01-01T00:09:40.000Z</time>
      </trkpt>
      <trkpt lat="40.3961" lon="-3.310542">
        <ele>827.6</ele>
        <time>1970-01-01T00:09:41.000Z</time>
      </trkpt>
      <trkpt lat="40.39601" lon="-3.310566">
        <ele>826.8</ele>
        <time>1970-01-01T00:09:42.000Z</time>
      </trkpt>
      <trkpt lat="40.39592" lon="-3.310585">
        <ele>826.4</ele>
        <time>1970-01-01T00:09:43.000Z</time>
      </trkpt>
      <trkpt lat="40.395815" lon="-3.310615">
        <ele>825.6</ele>
        <time>1970-01-01T00:09:44.000Z</time>
      </trkpt>
      <trkpt lat="40.395749" lon="-3.310643">
        <ele>825.2</ele>
        <time>1970-01-01T00:09:45.000Z</time>
      </trkpt>
      <trkpt lat="40.39565" lon="-3.310676">
        <ele>824.2</ele>
        <time>1970-01-01T00:09:46.000Z</time>
      </trkpt>
      <trkpt lat="40.395582" lon="-3.310685">
        <ele>823.8</ele>
        <time>1970-01-01T00:09:47.000Z</time>
      </trkpt>
      <trkpt lat="40.3955" lon="-3.310698">
        <ele>822.8</ele>
        <time>1970-01-01T00:09:48.000Z</time>
      </trkpt>
      <trkpt lat="40.395403" lon="-3.310727">
        <ele>821.6</ele>
        <time>1970-01-01T00:09:49.000Z</time>
      </trkpt>
      <trkpt lat="40.395321" lon="-3.310755">
        <ele>821.2</ele>
        <time>1970-01-01T00:09:50.000Z</time>
      </trkpt>
      <trkpt lat="40.395255" lon="-3.310776">
        <ele>820.2</ele>
        <time>1970-01-01T00:09:51.000Z</time>
      </trkpt>
      <trkpt lat="40.395172" lon="-3.310807">
        <ele>819.6</ele>
        <time>1970-01-01T00:09:52.000Z</time>
      </trkpt>
      <trkpt lat="40.395072" lon="-3.310845">
        <ele>818.6</ele>
        <time>1970-01-01T00:09:53.000Z</time>
      </trkpt>
      <trkpt lat="40.394986" lon="-3.310873">
        <ele>818.2</ele>
        <time>1970-01-01T00:09:54.000Z</time>
      </trkpt>
      <trkpt lat="40.394896" lon="-3.310892">
        <ele>817.4</ele>
        <time>1970-01-01T00:09:55.000Z</time>
      </trkpt>
      <trkpt lat="40.394822" lon="-3.3109">
        <ele>816</ele>
        <time>1970-01-01T00:09:56.000Z</time>
      </trkpt>
      <trkpt lat="40.394732" lon="-3.310907">
        <ele>815.6</ele>
        <time>1970-01-01T00:09:57.000Z</time>
      </trkpt>
      <trkpt lat="40.394625" lon="-3.310924">
        <ele>814.8</ele>
        <time>1970-01-01T00:09:58.000Z</time>
      </trkpt>
      <trkpt lat="40.394539" lon="-3.310946">
        <ele>814.6</ele>
        <time>1970-01-01T00:09:59.000Z</time>
      </trkpt>
      <trkpt lat="40.394472" lon="-3.310968">
        <ele>814</ele>
        <time>1970-01-01T00:10:00.000Z</time>
      </trkpt>
      <trkpt lat="40.39439" lon="-3.310997">
        <ele>813.6</ele>
        <time>1970-01-01T00:10:01.000Z</time>
      </trkpt>
      <trkpt lat="40.394298" lon="-3.31103">
        <ele>813</ele>
        <time>1970-01-01T00:10:02.000Z</time>
      </trkpt>
      <trkpt lat="40.394242" lon="-3.311053">
        <ele>812.6</ele>
        <time>1970-01-01T00:10:03.000Z</time>
      </trkpt>
      <trkpt lat="40.394177" lon="-3.31108">
        <ele>812.4</ele>
        <time>1970-01-01T00:10:04.000Z</time>
      </trkpt>
      <trkpt lat="40.394117" lon="-3.311103">
        <ele>812.2</ele>
        <time>1970-01-01T00:10:05.000Z</time>
      </trkpt>
      <trkpt lat="40.394065" lon="-3.311116">
        <ele>812.2</ele>
        <time>1970-01-01T00:10:06.000Z</time>
      </trkpt>
      <trkpt lat="40.394016" lon="-3.311112">
        <ele>812.2</ele>
        <time>1970-01-01T00:10:07.000Z</time>
      </trkpt>
      <trkpt lat="40.393983" lon="-3.311085">
        <ele>812.2</ele>
        <time>1970-01-01T00:10:08.000Z</time>
      </trkpt>
      <trkpt lat="40.39395" lon="-3.311044">
        <ele>812.2</ele>
        <time>1970-01-01T00:10:09.000Z</time>
      </trkpt>
      <trkpt lat="40.393919" lon="-3.311007">
        <ele>812</ele>
        <time>1970-01-01T00:10:10.000Z</time>
      </trkpt>
      <trkpt lat="40.393868" lon="-3.310948">
        <ele>812</ele>
        <time>1970-01-01T00:10:11.000Z</time>
      </trkpt>
      <trkpt lat="40.393827" lon="-3.310903">
        <ele>812</ele>
        <time>1970-01-01T00:10:12.000Z</time>
      </trkpt>
      <trkpt lat="40.393762" lon="-3.31083">
        <ele>812</ele>
        <time>1970-01-01T00:10:13.000Z</time>
      </trkpt>
      <trkpt lat="40.393712" lon="-3.310788">
        <ele>812</ele>
        <time>1970-01-01T00:10:14.000Z</time>
      </trkpt>
      <trkpt lat="40.393642" lon="-3.310741">
        <ele>812</ele>
        <time>1970-01-01T00:10:15.000Z</time>
      </trkpt>
      <trkpt lat="40.393548" lon="-3.310691">
        <ele>811.8</ele>
        <time>1970-01-01T00:10:16.000Z</time>
      </trkpt>
      <trkpt lat="40.393464" lon="-3.310656">
        <ele>811.8</ele>
        <time>1970-01-01T00:10:17.000Z</time>
      </trkpt>
      <trkpt lat="40.393397" lon="-3.310629">
        <ele>811.4</ele>
        <time>1970-01-01T00:10:18.000Z</time>
      </trkpt>
      <trkpt lat="40.393313" lon="-3.310599">
        <ele>810.4</ele>
        <time>1970-01-01T00:10:19.000Z</time>
      </trkpt>
      <trkpt lat="40.39323" lon="-3.310574">
        <ele>809.8</ele>
        <time>1970-01-01T00:10:20.000Z</time>
      </trkpt>
      <trkpt lat="40.393135" lon="-3.310545">
        <ele>809.2</ele>
        <time>1970-01-01T00:10:21.000Z</time>
      </trkpt>
      <trkpt lat="40.393065" lon="-3.310524">
        <ele>808.6</ele>
        <time>1970-01-01T00:10:22.000Z</time>
      </trkpt>
      <trkpt lat="40.393013" lon="-3.310505">
        <ele>808.2</ele>
        <time>1970-01-01T00:10:23.000Z</time>
      </trkpt>
      <trkpt lat="40.392962" lon="-3.310466">
        <ele>807.6</ele>
        <time>1970-01-01T00:10:24.000Z</time>
      </trkpt>
      <trkpt lat="40.392925" lon="-3.310412">
        <ele>807.6</ele>
        <time>1970-01-01T00:10:25.000Z</time>
      </trkpt>
      <trkpt lat="40.392903" lon="-3.310347">
        <ele>807.4</ele>
        <time>1970-01-01T00:10:26.000Z</time>
      </trkpt>
      <trkpt lat="40.392892" lon="-3.310271">
        <ele>807.4</ele>
        <time>1970-01-01T00:10:27.000Z</time>
      </trkpt>
      <trkpt lat="40.392887" lon="-3.310191">
        <ele>807</ele>
        <time>1970-01-01T00:10:28.000Z</time>
      </trkpt>
      <trkpt lat="40.392892" lon="-3.31011">
        <ele>807</ele>
        <time>1970-01-01T00:10:29.000Z</time>
      </trkpt>
      <trkpt lat="40.392906" lon="-3.310029">
        <ele>806.8</ele>
        <time>1970-01-01T00:10:30.000Z</time>
      </trkpt>
      <trkpt lat="40.392928" lon="-3.309946">
        <ele>806.8</ele>
        <time>1970-01-01T00:10:31.000Z</time>
      </trkpt>
      <trkpt lat="40.392957" lon="-3.309869">
        <ele>806.8</ele>
        <time>1970-01-01T00:10:32.000Z</time>
      </trkpt>
      <trkpt lat="40.392993" lon="-3.309801">
        <ele>806.8</ele>
        <time>1970-01-01T00:10:33.000Z</time>
      </trkpt>
      <trkpt lat="40.393025" lon="-3.309738">
        <ele>806.8</ele>
        <time>1970-01-01T00:10:34.000Z</time>
      </trkpt>
      <trkpt lat="40.393043" lon="-3.309678">
        <ele>806.8</ele>
        <time>1970-01-01T00:10:35.000Z</time>
      </trkpt>
      <trkpt lat="40.393041" lon="-3.309619">
        <ele>807</ele>
        <time>1970-01-01T00:10:36.000Z</time>
      </trkpt>
      <trkpt lat="40.393024" lon="-3.309569">
        <ele>807</ele>
        <time>1970-01-01T00:10:37.000Z</time>
      </trkpt>
      <trkpt lat="40.392999" lon="-3.309522">
        <ele>807</ele>
        <time>1970-01-01T00:10:38.000Z</time>
      </trkpt>
      <trkpt lat="40.392973" lon="-3.309473">
        <ele>807</ele>
        <time>1970-01-01T00:10:39.000Z</time>
      </trkpt>
      <trkpt lat="40.392953" lon="-3.309423">
        <ele>807.2</ele>
        <time>1970-01-01T00:10:40.000Z</time>
      </trkpt>
      <trkpt lat="40.392937" lon="-3.309368">
        <ele>807.2</ele>
        <time>1970-01-01T00:10:41.000Z</time>
      </trkpt>
      <trkpt lat="40.392921" lon="-3.309313">
        <ele>807.2</ele>
        <time>1970-01-01T00:10:42.000Z</time>
      </trkpt>
      <trkpt lat="40.392902" lon="-3.309254">
        <ele>807.4</ele>
        <time>1970-01-01T00:10:43.000Z</time>
      </trkpt>
      <trkpt lat="40.392884" lon="-3.309195">
        <ele>808</ele>
        <time>1970-01-01T00:10:44.000Z</time>
      </trkpt>
      <trkpt lat="40.39286" lon="-3.309128">
        <ele>808.2</ele>
        <time>1970-01-01T00:10:45.000Z</time>
      </trkpt>
      <trkpt lat="40.392842" lon="-3.309085">
        <ele>808.6</ele>
        <time>1970-01-01T00:10:46.000Z</time>
      </trkpt>
      <trkpt lat="40.39282" lon="-3.309025">
        <ele>809</ele>
        <time>1970-01-01T00:10:47.000Z</time>
      </trkpt>
      <trkpt lat="40.392796" lon="-3.308967">
        <ele>809.2</ele>
        <time>1970-01-01T00:10:48.000Z</time>
      </trkpt>
      <trkpt lat="40.392772" lon="-3.308908">
        <ele>809.6</ele>
        <time>1970-01-01T00:10:49.000Z</time>
      </trkpt>
      <trkpt lat="40.392748" lon="-3.308849">
        <ele>809.8</ele>
        <time>1970-01-01T00:10:50.000Z</time>
      </trkpt>
      <trkpt lat="40.392723" lon="-3.308791">
        <ele>809.8</ele>
        <time>1970-01-01T00:10:51.000Z</time>
      </trkpt>
      <trkpt lat="40.392698" lon="-3.308737">
        <ele>810</ele>
        <time>1970-01-01T00:10:52.000Z</time>
      </trkpt>
      <trkpt lat="40.392669" lon="-3.308681">
        <ele>810</ele>
        <time>1970-01-01T00:10:53.000Z</time>
      </trkpt>
      <trkpt lat="40.392641" lon="-3.308623">
        <ele>810.4</ele>
        <time>1970-01-01T00:10:54.000Z</time>
      </trkpt>
      <trkpt lat="40.392614" lon="-3.308561">
        <ele>810.6</ele>
        <time>1970-01-01T00:10:55.000Z</time>
      </trkpt>
      <trkpt lat="40.392586" lon="-3.308498">
        <ele>810.8</ele>
        <time>1970-01-01T00:10:56.000Z</time>
      </trkpt>
      <trkpt lat="40.392559" lon="-3.30843">
        <ele>810.8</ele>
        <time>1970-01-01T00:10:57.000Z</time>
      </trkpt>
      <trkpt lat="40.392532" lon="-3.308363">
        <ele>811</ele>
        <time>1970-01-01T00:10:58.000Z</time>
      </trkpt>
      <trkpt lat="40.392502" lon="-3.308299">
        <ele>811</ele>
        <time>1970-01-01T00:10:59.000Z</time>
      </trkpt>
      <trkpt lat="40.392471" lon="-3.308239">
        <ele>811.2</ele>
        <time>1970-01-01T00:11:00.000Z</time>
      </trkpt>
      <trkpt lat="40.392437" lon="-3.308186">
        <ele>811</ele>
        <time>1970-01-01T00:11:01.000Z</time>
      </trkpt>
      <trkpt lat="40.392404" lon="-3.308137">
        <ele>811</ele>
        <time>1970-01-01T00:11:02.000Z</time>
      </trkpt>
      <trkpt lat="40.392371" lon="-3.308089">
        <ele>811</ele>
        <time>1970-01-01T00:11:03.000Z</time>
      </trkpt>
      <trkpt lat="40.392341" lon="-3.308039">
        <ele>811</ele>
        <time>1970-01-01T00:11:04.000Z</time>
      </trkpt>
      <trkpt lat="40.392315" lon="-3.30798">
        <ele>811</ele>
        <time>1970-01-01T00:11:05.000Z</time>
      </trkpt>
      <trkpt lat="40.392288" lon="-3.307925">
        <ele>811</ele>
        <time>1970-01-01T00:11:06.000Z</time>
      </trkpt>
      <trkpt lat="40.392261" lon="-3.307869">
        <ele>811</ele>
        <time>1970-01-01T00:11:07.000Z</time>
      </trkpt>
      <trkpt lat="40.392232" lon="-3.307818">
        <ele>811</ele>
        <time>1970-01-01T00:11:08.000Z</time>
      </trkpt>
      <trkpt lat="40.392206" lon="-3.307769">
        <ele>811</ele>
        <time>1970-01-01T00:11:09.000Z</time>
      </trkpt>
      <trkpt lat="40.392181" lon="-3.307722">
        <ele>811</ele>
        <time>1970-01-01T00:11:10.000Z</time>
      </trkpt>
      <trkpt lat="40.392159" lon="-3.307675">
        <ele>811</ele>
        <time>1970-01-01T00:11:11.000Z</time>
      </trkpt>
      <trkpt lat="40.392142" lon="-3.307632">
        <ele>811</ele>
        <time>1970-01-01T00:11:12.000Z</time>
      </trkpt>
      <trkpt lat="40.392133" lon="-3.307591">
        <ele>811.2</ele>
        <time>1970-01-01T00:11:13.000Z</time>
      </trkpt>
      <trkpt lat="40.392137" lon="-3.30755">
        <ele>811.2</ele>
        <time>1970-01-01T00:11:14.000Z</time>
      </trkpt>
      <trkpt lat="40.39215" lon="-3.307508">
        <ele>811.2</ele>
        <time>1970-01-01T00:11:15.000Z</time>
      </trkpt>
      <trkpt lat="40.392171" lon="-3.307464">
        <ele>811.2</ele>
        <time>1970-01-01T00:11:16.000Z</time>
      </trkpt>
      <trkpt lat="40.392198" lon="-3.307418">
        <ele>811.2</ele>
        <time>1970-01-01T00:11:17.000Z</time>
      </trkpt>
      <trkpt lat="40.392227" lon="-3.307364">
        <ele>811.2</ele>
        <time>1970-01-01T00:11:18.000Z</time>
      </trkpt>
      <trkpt lat="40.392258" lon="-3.307308">
        <ele>811.2</ele>
        <time>1970-01-01T00:11:19.000Z</time>
      </trkpt>
      <trkpt lat="40.392289" lon="-3.307252">
        <ele>811.4</ele>
        <time>1970-01-01T00:11:20.000Z</time>
      </trkpt>
      <trkpt lat="40.392322" lon="-3.307198">
        <ele>811.4</ele>
        <time>1970-01-01T00:11:21.000Z</time>
      </trkpt>
      <trkpt lat="40.392353" lon="-3.307149">
        <ele>811.4</ele>
        <time>1970-01-01T00:11:22.000Z</time>
      </trkpt>
      <trkpt lat="40.392381" lon="-3.307103">
        <ele>811.2</ele>
        <time>1970-01-01T00:11:23.000Z</time>
      </trkpt>
      <trkpt lat="40.392408" lon="-3.307056">
        <ele>811.2</ele>
        <time>1970-01-01T00:11:24.000Z</time>
      </trkpt>
      <trkpt lat="40.392434" lon="-3.307007">
        <ele>811.2</ele>
        <time>1970-01-01T00:11:25.000Z</time>
      </trkpt>
      <trkpt lat="40.392462" lon="-3.306956">
        <ele>811.2</ele>
        <time>1970-01-01T00:11:26.000Z</time>
      </trkpt>
      <trkpt lat="40.39249" lon="-3.306906">
        <ele>811</ele>
        <time>1970-01-01T00:11:27.000Z</time>
      </trkpt>
      <trkpt lat="40.392518" lon="-3.306855">
        <ele>811</ele>
        <time>1970-01-01T00:11:28.000Z</time>
      </trkpt>
      <trkpt lat="40.392547" lon="-3.306805">
        <ele>810.8</ele>
        <time>1970-01-01T00:11:29.000Z</time>
      </trkpt>
      <trkpt lat="40.392578" lon="-3.306755">
        <ele>810.8</ele>
        <time>1970-01-01T00:11:30.000Z</time>
      </trkpt>
      <trkpt lat="40.392609" lon="-3.306709">
        <ele>810.6</ele>
        <time>1970-01-01T00:11:31.000Z</time>
      </trkpt>
      <trkpt lat="40.392643" lon="-3.306667">
        <ele>810.6</ele>
        <time>1970-01-01T00:11:32.000Z</time>
      </trkpt>
      <trkpt lat="40.392675" lon="-3.306628">
        <ele>810.6</ele>
        <time>1970-01-01T00:11:33.000Z</time>
      </trkpt>
      <trkpt lat="40.392707" lon="-3.306589">
        <ele>810.6</ele>
        <time>1970-01-01T00:11:34.000Z</time>
      </trkpt>
      <trkpt lat="40.392739" lon="-3.306553">
        <ele>810.6</ele>
        <time>1970-01-01T00:11:35.000Z</time>
      </trkpt>
      <trkpt lat="40.392769" lon="-3.306515">
        <ele>810.8</ele>
        <time>1970-01-01T00:11:36.000Z</time>
      </trkpt>
      <trkpt lat="40.392788" lon="-3.306472">
        <ele>810.8</ele>
        <time>1970-01-01T00:11:37.000Z</time>
      </trkpt>
      <trkpt lat="40.392789" lon="-3.306423">
        <ele>810.8</ele>
        <time>1970-01-01T00:11:38.000Z</time>
      </trkpt>
      <trkpt lat="40.392772" lon="-3.306377">
        <ele>810.8</ele>
        <time>1970-01-01T00:11:39.000Z</time>
      </trkpt>
      <trkpt lat="40.392745" lon="-3.306335">
        <ele>811</ele>
        <time>1970-01-01T00:11:40.000Z</time>
      </trkpt>
      <trkpt lat="40.392713" lon="-3.306291">
        <ele>811</ele>
        <time>1970-01-01T00:11:41.000Z</time>
      </trkpt>
      <trkpt lat="40.392681" lon="-3.306242">
        <ele>811</ele>
        <time>1970-01-01T00:11:42.000Z</time>
      </trkpt>
      <trkpt lat="40.39265" lon="-3.306189">
        <ele>811.2</ele>
        <time>1970-01-01T00:11:43.000Z</time>
      </trkpt>
      <trkpt lat="40.392621" lon="-3.306131">
        <ele>811.2</ele>
        <time>1970-01-01T00:11:44.000Z</time>
      </trkpt>
      <trkpt lat="40.392593" lon="-3.306074">
        <ele>811.4</ele>
        <time>1970-01-01T00:11:45.000Z</time>
      </trkpt>
      <trkpt lat="40.392569" lon="-3.306018">
        <ele>811.4</ele>
        <time>1970-01-01T00:11:46.000Z</time>
      </trkpt>
      <trkpt lat="40.392543" lon="-3.305964">
        <ele>811.8</ele>
        <time>1970-01-01T00:11:47.000Z</time>
      </trkpt>
      <trkpt lat="40.39252" lon="-3.305911">
        <ele>811.8</ele>
        <time>1970-01-01T00:11:48.000Z</time>
      </trkpt>
      <trkpt lat="40.392498" lon="-3.305858">
        <ele>812.2</ele>
        <time>1970-01-01T00:11:49.000Z</time>
      </trkpt>
      <trkpt lat="40.392477" lon="-3.305806">
        <ele>812</ele>
        <time>1970-01-01T00:11:50.000Z</time>
      </trkpt>
      <trkpt lat="40.392455" lon="-3.305753">
        <ele>812.2</ele>
        <time>1970-01-01T00:11:51.000Z</time>
      </trkpt>
      <trkpt lat="40.392433" lon="-3.3057">
        <ele>812.4</ele>
        <time>1970-01-01T00:11:52.000Z</time>
      </trkpt>
      <trkpt lat="40.392412" lon="-3.305647">
        <ele>812.6</ele>
        <time>1970-01-01T00:11:53.000Z</time>
      </trkpt>
      <trkpt lat="40.392391" lon="-3.305594">
        <ele>812.8</ele>
        <time>1970-01-01T00:11:54.000Z</time>
      </trkpt>
      <trkpt lat="40.39237" lon="-3.305542">
        <ele>812.8</ele>
        <time>1970-01-01T00:11:55.000Z</time>
      </trkpt>
      <trkpt lat="40.392344" lon="-3.305494">
        <ele>813</ele>
        <time>1970-01-01T00:11:56.000Z</time>
      </trkpt>
      <trkpt lat="40.392313" lon="-3.305455">
        <ele>813.2</ele>
        <time>1970-01-01T00:11:57.000Z</time>
      </trkpt>
      <trkpt lat="40.392278" lon="-3.305419">
        <ele>813.4</ele>
        <time>1970-01-01T00:11:58.000Z</time>
      </trkpt>
      <trkpt lat="40.392243" lon="-3.30539">
        <ele>813.8</ele>
        <time>1970-01-01T00:11:59.000Z</time>
      </trkpt>
      <trkpt lat="40.392205" lon="-3.30536">
        <ele>814</ele>
        <time>1970-01-01T00:12:00.000Z</time>
      </trkpt>
      <trkpt lat="40.39217" lon="-3.305331">
        <ele>814.4</ele>
        <time>1970-01-01T00:12:01.000Z</time>
      </trkpt>
      <trkpt lat="40.392136" lon="-3.305298">
        <ele>814.6</ele>
        <time>1970-01-01T00:12:02.000Z</time>
      </trkpt>
      <trkpt lat="40.392106" lon="-3.305259">
        <ele>814.8</ele>
        <time>1970-01-01T00:12:03.000Z</time>
      </trkpt>
      <trkpt lat="40.392084" lon="-3.305213">
        <ele>815</ele>
        <time>1970-01-01T00:12:04.000Z</time>
      </trkpt>
      <trkpt lat="40.392073" lon="-3.305162">
        <ele>815</ele>
        <time>1970-01-01T00:12:05.000Z</time>
      </trkpt>
      <trkpt lat="40.392071" lon="-3.305108">
        <ele>815.2</ele>
        <time>1970-01-01T00:12:06.000Z</time>
      </trkpt>
      <trkpt lat="40.392071" lon="-3.305057">
        <ele>815.4</ele>
        <time>1970-01-01T00:12:07.000Z</time>
      </trkpt>
      <trkpt lat="40.392064" lon="-3.305004">
        <ele>815.8</ele>
        <time>1970-01-01T00:12:08.000Z</time>
      </trkpt>
      <trkpt lat="40.392052" lon="-3.304952">
        <ele>816</ele>
        <time>1970-01-01T00:12:09.000Z</time>
      </trkpt>
      <trkpt lat="40.392033" lon="-3.304901">
        <ele>816.4</ele>
        <time>1970-01-01T00:12:10.000Z</time>
      </trkpt>
      <trkpt lat="40.39201" lon="-3.304853">
        <ele>816.6</ele>
        <time>1970-01-01T00:12:11.000Z</time>
      </trkpt>
      <trkpt lat="40.391994" lon="-3.304796">
        <ele>816.6</ele>
        <time>1970-01-01T00:12:12.000Z</time>
      </trkpt>
      <trkpt lat="40.391979" lon="-3.304739">
        <ele>816.8</ele>
        <time>1970-01-01T00:12:13.000Z</time>
      </trkpt>
      <trkpt lat="40.391958" lon="-3.304685">
        <ele>817</ele>
        <time>1970-01-01T00:12:14.000Z</time>
      </trkpt>
      <trkpt lat="40.391926" lon="-3.304642">
        <ele>817.2</ele>
        <time>1970-01-01T00:12:15.000Z</time>
      </trkpt>
      <trkpt lat="40.391887" lon="-3.304609">
        <ele>817.2</ele>
        <time>1970-01-01T00:12:16.000Z</time>
      </trkpt>
      <trkpt lat="40.391846" lon="-3.304583">
        <ele>817.2</ele>
        <time>1970-01-01T00:12:17.000Z</time>
      </trkpt>
      <trkpt lat="40.391802" lon="-3.304559">
        <ele>817.4</ele>
        <time>1970-01-01T00:12:18.000Z</time>
      </trkpt>
      <trkpt lat="40.391758" lon="-3.304536">
        <ele>817.4</ele>
        <time>1970-01-01T00:12:19.000Z</time>
      </trkpt>
      <trkpt lat="40.391713" lon="-3.304514">
        <ele>817.4</ele>
        <time>1970-01-01T00:12:20.000Z</time>
      </trkpt>
      <trkpt lat="40.391668" lon="-3.30449">
        <ele>817.4</ele>
        <time>1970-01-01T00:12:21.000Z</time>
      </trkpt>
      <trkpt lat="40.391624" lon="-3.304466">
        <ele>817.4</ele>
        <time>1970-01-01T00:12:22.000Z</time>
      </trkpt>
      <trkpt lat="40.39158" lon="-3.304442">
        <ele>817.6</ele>
        <time>1970-01-01T00:12:23.000Z</time>
      </trkpt>
      <trkpt lat="40.391542" lon="-3.304411">
        <ele>817.6</ele>
        <time>1970-01-01T00:12:24.000Z</time>
      </trkpt>
      <trkpt lat="40.391514" lon="-3.304368">
        <ele>817.8</ele>
        <time>1970-01-01T00:12:25.000Z</time>
      </trkpt>
      <trkpt lat="40.391502" lon="-3.304317">
        <ele>817.8</ele>
        <time>1970-01-01T00:12:26.000Z</time>
      </trkpt>
      <trkpt lat="40.391502" lon="-3.304259">
        <ele>818</ele>
        <time>1970-01-01T00:12:27.000Z</time>
      </trkpt>
      <trkpt lat="40.391504" lon="-3.304198">
        <ele>818</ele>
        <time>1970-01-01T00:12:28.000Z</time>
      </trkpt>
      <trkpt lat="40.391499" lon="-3.304142">
        <ele>818.2</ele>
        <time>1970-01-01T00:12:29.000Z</time>
      </trkpt>
      <trkpt lat="40.39149" lon="-3.304085">
        <ele>818.4</ele>
        <time>1970-01-01T00:12:30.000Z</time>
      </trkpt>
      <trkpt lat="40.391478" lon="-3.304025">
        <ele>818.6</ele>
        <time>1970-01-01T00:12:31.000Z</time>
      </trkpt>
      <trkpt lat="40.391462" lon="-3.303966">
        <ele>818.8</ele>
        <time>1970-01-01T00:12:32.000Z</time>
      </trkpt>
      <trkpt lat="40.391443" lon="-3.303912">
        <ele>819</ele>
        <time>1970-01-01T00:12:33.000Z</time>
      </trkpt>
      <trkpt lat="40.391421" lon="-3.303858">
        <ele>819.2</ele>
        <time>1970-01-01T00:12:34.000Z</time>
      </trkpt>
      <trkpt lat="40.391403" lon="-3.303806">
        <ele>819.4</ele>
        <time>1970-01-01T00:12:35.000Z</time>
      </trkpt>
      <trkpt lat="40.391383" lon="-3.303763">
        <ele>820</ele>
        <time>1970-01-01T00:12:36.000Z</time>
      </trkpt>
      <trkpt lat="40.391367" lon="-3.303715">
        <ele>820</ele>
        <time>1970-01-01T00:12:37.000Z</time>
      </trkpt>
      <trkpt lat="40.39136" lon="-3.303665">
        <ele>820.8</ele>
        <time>1970-01-01T00:12:38.000Z</time>
      </trkpt>
      <trkpt lat="40.391362" lon="-3.303613">
        <ele>821.4</ele>
        <time>1970-01-01T00:12:39.000Z</time>
      </trkpt>
      <trkpt lat="40.391372" lon="-3.303558">
        <ele>821.6</ele>
        <time>1970-01-01T00:12:40.000Z</time>
      </trkpt>
      <trkpt lat="40.391386" lon="-3.303498">
        <ele>822</ele>
        <time>1970-01-01T00:12:41.000Z</time>
      </trkpt>
      <trkpt lat="40.391401" lon="-3.303434">
        <ele>822</ele>
        <time>1970-01-01T00:12:42.000Z</time>
      </trkpt>
      <trkpt lat="40.391412" lon="-3.303367">
        <ele>822.2</ele>
        <time>1970-01-01T00:12:43.000Z</time>
      </trkpt>
      <trkpt lat="40.39142" lon="-3.303299">
        <ele>822.2</ele>
        <time>1970-01-01T00:12:44.000Z</time>
      </trkpt>
      <trkpt lat="40.391427" lon="-3.303227">
        <ele>822.2</ele>
        <time>1970-01-01T00:12:45.000Z</time>
      </trkpt>
      <trkpt lat="40.39143" lon="-3.303155">
        <ele>822.2</ele>
        <time>1970-01-01T00:12:46.000Z</time>
      </trkpt>
      <trkpt lat="40.391432" lon="-3.303087">
        <ele>822.2</ele>
        <time>1970-01-01T00:12:47.000Z</time>
      </trkpt>
      <trkpt lat="40.391436" lon="-3.303021">
        <ele>822.2</ele>
        <time>1970-01-01T00:12:48.000Z</time>
      </trkpt>
      <trkpt lat="40.391442" lon="-3.302951">
        <ele>822.2</ele>
        <time>1970-01-01T00:12:49.000Z</time>
      </trkpt>
      <trkpt lat="40.391454" lon="-3.302881">
        <ele>822.2</ele>
        <time>1970-01-01T00:12:50.000Z</time>
      </trkpt>
      <trkpt lat="40.39147" lon="-3.302809">
        <ele>822.2</ele>
        <time>1970-01-01T00:12:51.000Z</time>
      </trkpt>
      <trkpt lat="40.391491" lon="-3.302736">
        <ele>822.4</ele>
        <time>1970-01-01T00:12:52.000Z</time>
      </trkpt>
      <trkpt lat="40.391512" lon="-3.302661">
        <ele>822.4</ele>
        <time>1970-01-01T00:12:53.000Z</time>
      </trkpt>
      <trkpt lat="40.391528" lon="-3.30259">
        <ele>822.4</ele>
        <time>1970-01-01T00:12:54.000Z</time>
      </trkpt>
      <trkpt lat="40.391545" lon="-3.302517">
        <ele>822.6</ele>
        <time>1970-01-01T00:12:55.000Z</time>
      </trkpt>
      <trkpt lat="40.391562" lon="-3.302443">
        <ele>822.6</ele>
        <time>1970-01-01T00:12:56.000Z</time>
      </trkpt>
      <trkpt lat="40.391579" lon="-3.30237">
        <ele>822.6</ele>
        <time>1970-01-01T00:12:57.000Z</time>
      </trkpt>
      <trkpt lat="40.391594" lon="-3.302299">
        <ele>822.6</ele>
        <time>1970-01-01T00:12:58.000Z</time>
      </trkpt>
      <trkpt lat="40.391608" lon="-3.302229">
        <ele>822.6</ele>
        <time>1970-01-01T00:12:59.000Z</time>
      </trkpt>
      <trkpt lat="40.391623" lon="-3.302159">
        <ele>822.8</ele>
        <time>1970-01-01T00:13:00.000Z</time>
      </trkpt>
      <trkpt lat="40.391638" lon="-3.302087">
        <ele>822.8</ele>
        <time>1970-01-01T00:13:01.000Z</time>
      </trkpt>
      <trkpt lat="40.39165" lon="-3.302016">
        <ele>822.8</ele>
        <time>1970-01-01T00:13:02.000Z</time>
      </trkpt>
      <trkpt lat="40.391664" lon="-3.301947">
        <ele>822.8</ele>
        <time>1970-01-01T00:13:03.000Z</time>
      </trkpt>
      <trkpt lat="40.391677" lon="-3.301883">
        <ele>823</ele>
        <time>1970-01-01T00:13:04.000Z</time>
      </trkpt>
      <trkpt lat="40.39169" lon="-3.301819">
        <ele>823.2</ele>
        <time>1970-01-01T00:13:05.000Z</time>
      </trkpt>
      <trkpt lat="40.391701" lon="-3.301764">
        <ele>823.4</ele>
        <time>1970-01-01T00:13:06.000Z</time>
      </trkpt>
      <trkpt lat="40.39171" lon="-3.301705">
        <ele>823.6</ele>
        <time>1970-01-01T00:13:07.000Z</time>
      </trkpt>
      <trkpt lat="40.391718" lon="-3.301643">
        <ele>823.8</ele>
        <time>1970-01-01T00:13:08.000Z</time>
      </trkpt>
      <trkpt lat="40.391728" lon="-3.30158">
        <ele>824.2</ele>
        <time>1970-01-01T00:13:09.000Z</time>
      </trkpt>
      <trkpt lat="40.391739" lon="-3.301515">
        <ele>824.2</ele>
        <time>1970-01-01T00:13:10.000Z</time>
      </trkpt>
      <trkpt lat="40.391752" lon="-3.301448">
        <ele>824.4</ele>
        <time>1970-01-01T00:13:11.000Z</time>
      </trkpt>
      <trkpt lat="40.391766" lon="-3.301381">
        <ele>824.4</ele>
        <time>1970-01-01T00:13:12.000Z</time>
      </trkpt>
      <trkpt lat="40.391782" lon="-3.301318">
        <ele>824.4</ele>
        <time>1970-01-01T00:13:13.000Z</time>
      </trkpt>
      <trkpt lat="40.391798" lon="-3.301257">
        <ele>824.4</ele>
        <time>1970-01-01T00:13:14.000Z</time>
      </trkpt>
      <trkpt lat="40.391814" lon="-3.301201">
        <ele>824.4</ele>
        <time>1970-01-01T00:13:15.000Z</time>
      </trkpt>
      <trkpt lat="40.391826" lon="-3.301148">
        <ele>824.4</ele>
        <time>1970-01-01T00:13:16.000Z</time>
      </trkpt>
      <trkpt lat="40.391831" lon="-3.301102">
        <ele>824.4</ele>
        <time>1970-01-01T00:13:17.000Z</time>
      </trkpt>
      <trkpt lat="40.391825" lon="-3.301061">
        <ele>824.4</ele>
        <time>1970-01-01T00:13:18.000Z</time>
      </trkpt>
      <trkpt lat="40.391808" lon="-3.301032">
        <ele>824.4</ele>
        <time>1970-01-01T00:13:19.000Z</time>
      </trkpt>
      <trkpt lat="40.391784" lon="-3.301018">
        <ele>824.4</ele>
        <time>1970-01-01T00:13:20.000Z</time>
      </trkpt>
      <trkpt lat="40.391756" lon="-3.301015">
        <ele>824.4</ele>
        <time>1970-01-01T00:13:21.000Z</time>
      </trkpt>
      <trkpt lat="40.391727" lon="-3.301015">
        <ele>824.6</ele>
        <time>1970-01-01T00:13:22.000Z</time>
      </trkpt>
      <trkpt lat="40.3917" lon="-3.301012">
        <ele>824.4</ele>
        <time>1970-01-01T00:13:23.000Z</time>
      </trkpt>
      <trkpt lat="40.391674" lon="-3.301011">
        <ele>824.4</ele>
        <time>1970-01-01T00:13:24.000Z</time>
      </trkpt>
      <trkpt lat="40.391649" lon="-3.301009">
        <ele>824.4</ele>
        <time>1970-01-01T00:13:25.000Z</time>
      </trkpt>
      <trkpt lat="40.391623" lon="-3.301005">
        <ele>824.4</ele>
        <time>1970-01-01T00:13:26.000Z</time>
      </trkpt>
      <trkpt lat="40.391596" lon="-3.301005">
        <ele>824.4</ele>
        <time>1970-01-01T00:13:27.000Z</time>
      </trkpt>
      <trkpt lat="40.391568" lon="-3.301006">
        <ele>824.6</ele>
        <time>1970-01-01T00:13:28.000Z</time>
      </trkpt>
      <trkpt lat="40.391537" lon="-3.301005">
        <ele>824.6</ele>
        <time>1970-01-01T00:13:29.000Z</time>
      </trkpt>
      <trkpt lat="40.391503" lon="-3.301004">
        <ele>824.6</ele>
        <time>1970-01-01T00:13:30.000Z</time>
      </trkpt>
      <trkpt lat="40.391467" lon="-3.301003">
        <ele>824.6</ele>
        <time>1970-01-01T00:13:31.000Z</time>
      </trkpt>
      <trkpt lat="40.391431" lon="-3.301002">
        <ele>824.6</ele>
        <time>1970-01-01T00:13:32.000Z</time>
      </trkpt>
      <trkpt lat="40.391397" lon="-3.301001">
        <ele>824.6</ele>
        <time>1970-01-01T00:13:33.000Z</time>
      </trkpt>
      <trkpt lat="40.391363" lon="-3.300998">
        <ele>824.8</ele>
        <time>1970-01-01T00:13:34.000Z</time>
      </trkpt>
      <trkpt lat="40.391331" lon="-3.300995">
        <ele>825</ele>
        <time>1970-01-01T00:13:35.000Z</time>
      </trkpt>
      <trkpt lat="40.391301" lon="-3.300992">
        <ele>825.2</ele>
        <time>1970-01-01T00:13:36.000Z</time>
      </trkpt>
      <trkpt lat="40.391273" lon="-3.300989">
        <ele>825.4</ele>
        <time>1970-01-01T00:13:37.000Z</time>
      </trkpt>
      <trkpt lat="40.391244" lon="-3.300986">
        <ele>825.4</ele>
        <time>1970-01-01T00:13:38.000Z</time>
      </trkpt>
      <trkpt lat="40.391218" lon="-3.300985">
        <ele>825.6</ele>
        <time>1970-01-01T00:13:39.000Z</time>
      </trkpt>
      <trkpt lat="40.391191" lon="-3.300984">
        <ele>825.6</ele>
        <time>1970-01-01T00:13:40.000Z</time>
      </trkpt>
      <trkpt lat="40.391163" lon="-3.300983">
        <ele>825.8</ele>
        <time>1970-01-01T00:13:41.000Z</time>
      </trkpt>
      <trkpt lat="40.391133" lon="-3.300984">
        <ele>825.8</ele>
        <time>1970-01-01T00:13:42.000Z</time>
      </trkpt>
      <trkpt lat="40.391101" lon="-3.300986">
        <ele>826</ele>
        <time>1970-01-01T00:13:43.000Z</time>
      </trkpt>
      <trkpt lat="40.391068" lon="-3.300987">
        <ele>826</ele>
        <time>1970-01-01T00:13:44.000Z</time>
      </trkpt>
      <trkpt lat="40.391034" lon="-3.300985">
        <ele>826</ele>
        <time>1970-01-01T00:13:45.000Z</time>
      </trkpt>
      <trkpt lat="40.390996" lon="-3.300983">
        <ele>826.2</ele>
        <time>1970-01-01T00:13:46.000Z</time>
      </trkpt>
      <trkpt lat="40.390955" lon="-3.30098">
        <ele>826.4</ele>
        <time>1970-01-01T00:13:47.000Z</time>
      </trkpt>
      <trkpt lat="40.390911" lon="-3.300977">
        <ele>826.4</ele>
        <time>1970-01-01T00:13:48.000Z</time>
      </trkpt>
      <trkpt lat="40.390868" lon="-3.300975">
        <ele>827</ele>
        <time>1970-01-01T00:13:49.000Z</time>
      </trkpt>
      <trkpt lat="40.390824" lon="-3.300971">
        <ele>827</ele>
        <time>1970-01-01T00:13:50.000Z</time>
      </trkpt>
      <trkpt lat="40.390778" lon="-3.300968">
        <ele>827.2</ele>
        <time>1970-01-01T00:13:51.000Z</time>
      </trkpt>
      <trkpt lat="40.390734" lon="-3.300966">
        <ele>827.2</ele>
        <time>1970-01-01T00:13:52.000Z</time>
      </trkpt>
      <trkpt lat="40.390691" lon="-3.300962">
        <ele>827.2</ele>
        <time>1970-01-01T00:13:53.000Z</time>
      </trkpt>
      <trkpt lat="40.390646" lon="-3.300961">
        <ele>827.2</ele>
        <time>1970-01-01T00:13:54.000Z</time>
      </trkpt>
      <trkpt lat="40.390601" lon="-3.30096">
        <ele>827.6</ele>
        <time>1970-01-01T00:13:55.000Z</time>
      </trkpt>
      <trkpt lat="40.390557" lon="-3.300958">
        <ele>828</ele>
        <time>1970-01-01T00:13:56.000Z</time>
      </trkpt>
      <trkpt lat="40.390513" lon="-3.300955">
        <ele>828</ele>
        <time>1970-01-01T00:13:57.000Z</time>
      </trkpt>
      <trkpt lat="40.39047" lon="-3.300951">
        <ele>828.4</ele>
        <time>1970-01-01T00:13:58.000Z</time>
      </trkpt>
      <trkpt lat="40.390427" lon="-3.300952">
        <ele>828.4</ele>
        <time>1970-01-01T00:13:59.000Z</time>
      </trkpt>
      <trkpt lat="40.390386" lon="-3.300953">
        <ele>828.6</ele>
        <time>1970-01-01T00:14:00.000Z</time>
      </trkpt>
      <trkpt lat="40.390343" lon="-3.300955">
        <ele>828.8</ele>
        <time>1970-01-01T00:14:01.000Z</time>
      </trkpt>
      <trkpt lat="40.3903" lon="-3.300958">
        <ele>828.8</ele>
        <time>1970-01-01T00:14:02.000Z</time>
      </trkpt>
      <trkpt lat="40.390259" lon="-3.300962">
        <ele>829</ele>
        <time>1970-01-01T00:14:03.000Z</time>
      </trkpt>
      <trkpt lat="40.390215" lon="-3.300963">
        <ele>829.2</ele>
        <time>1970-01-01T00:14:04.000Z</time>
      </trkpt>
      <trkpt lat="40.390172" lon="-3.300965">
        <ele>829.6</ele>
        <time>1970-01-01T00:14:05.000Z</time>
      </trkpt>
      <trkpt lat="40.390128" lon="-3.300968">
        <ele>829.6</ele>
        <time>1970-01-01T00:14:06.000Z</time>
      </trkpt>
      <trkpt lat="40.390083" lon="-3.300973">
        <ele>830</ele>
        <time>1970-01-01T00:14:07.000Z</time>
      </trkpt>
      <trkpt lat="40.390038" lon="-3.300979">
        <ele>830</ele>
        <time>1970-01-01T00:14:08.000Z</time>
      </trkpt>
      <trkpt lat="40.389992" lon="-3.300987">
        <ele>830.2</ele>
        <time>1970-01-01T00:14:09.000Z</time>
      </trkpt>
      <trkpt lat="40.389945" lon="-3.300997">
        <ele>830.4</ele>
        <time>1970-01-01T00:14:10.000Z</time>
      </trkpt>
      <trkpt lat="40.389899" lon="-3.301008">
        <ele>830.8</ele>
        <time>1970-01-01T00:14:11.000Z</time>
      </trkpt>
      <trkpt lat="40.389854" lon="-3.301021">
        <ele>831.2</ele>
        <time>1970-01-01T00:14:12.000Z</time>
      </trkpt>
      <trkpt lat="40.389807" lon="-3.301035">
        <ele>831.4</ele>
        <time>1970-01-01T00:14:13.000Z</time>
      </trkpt>
      <trkpt lat="40.38976" lon="-3.301052">
        <ele>831.6</ele>
        <time>1970-01-01T00:14:14.000Z</time>
      </trkpt>
      <trkpt lat="40.389712" lon="-3.30107">
        <ele>831.8</ele>
        <time>1970-01-01T00:14:15.000Z</time>
      </trkpt>
      <trkpt lat="40.389664" lon="-3.301089">
        <ele>832</ele>
        <time>1970-01-01T00:14:16.000Z</time>
      </trkpt>
      <trkpt lat="40.389613" lon="-3.30111">
        <ele>832</ele>
        <time>1970-01-01T00:14:17.000Z</time>
      </trkpt>
      <trkpt lat="40.389559" lon="-3.301132">
        <ele>832</ele>
        <time>1970-01-01T00:14:18.000Z</time>
      </trkpt>
      <trkpt lat="40.389505" lon="-3.301159">
        <ele>832.2</ele>
        <time>1970-01-01T00:14:19.000Z</time>
      </trkpt>
      <trkpt lat="40.38945" lon="-3.30119">
        <ele>832.2</ele>
        <time>1970-01-01T00:14:20.000Z</time>
      </trkpt>
      <trkpt lat="40.389393" lon="-3.301222">
        <ele>832.2</ele>
        <time>1970-01-01T00:14:21.000Z</time>
      </trkpt>
      <trkpt lat="40.389335" lon="-3.301254">
        <ele>832.2</ele>
        <time>1970-01-01T00:14:22.000Z</time>
      </trkpt>
      <trkpt lat="40.389273" lon="-3.301286">
        <ele>832.2</ele>
        <time>1970-01-01T00:14:23.000Z</time>
      </trkpt>
      <trkpt lat="40.38921" lon="-3.301318">
        <ele>832.2</ele>
        <time>1970-01-01T00:14:24.000Z</time>
      </trkpt>
      <trkpt lat="40.389143" lon="-3.301352">
        <ele>832.2</ele>
        <time>1970-01-01T00:14:25.000Z</time>
      </trkpt>
      <trkpt lat="40.389074" lon="-3.301388">
        <ele>832</ele>
        <time>1970-01-01T00:14:26.000Z</time>
      </trkpt>
      <trkpt lat="40.389005" lon="-3.301423">
        <ele>832</ele>
        <time>1970-01-01T00:14:27.000Z</time>
      </trkpt>
      <trkpt lat="40.388934" lon="-3.301457">
        <ele>832</ele>
        <time>1970-01-01T00:14:28.000Z</time>
      </trkpt>
      <trkpt lat="40.388862" lon="-3.301492">
        <ele>831.8</ele>
        <time>1970-01-01T00:14:29.000Z</time>
      </trkpt>
      <trkpt lat="40.388792" lon="-3.301528">
        <ele>831.6</ele>
        <time>1970-01-01T00:14:30.000Z</time>
      </trkpt>
      <trkpt lat="40.388721" lon="-3.301565">
        <ele>831.4</ele>
        <time>1970-01-01T00:14:31.000Z</time>
      </trkpt>
      <trkpt lat="40.388649" lon="-3.301602">
        <ele>831.4</ele>
        <time>1970-01-01T00:14:32.000Z</time>
      </trkpt>
      <trkpt lat="40.388575" lon="-3.301639">
        <ele>831</ele>
        <time>1970-01-01T00:14:33.000Z</time>
      </trkpt>
      <trkpt lat="40.388499" lon="-3.301678">
        <ele>830.8</ele>
        <time>1970-01-01T00:14:34.000Z</time>
      </trkpt>
      <trkpt lat="40.388422" lon="-3.301717">
        <ele>830.6</ele>
        <time>1970-01-01T00:14:35.000Z</time>
      </trkpt>
      <trkpt lat="40.388346" lon="-3.301756">
        <ele>830.6</ele>
        <time>1970-01-01T00:14:36.000Z</time>
      </trkpt>
      <trkpt lat="40.388269" lon="-3.301794">
        <ele>830.4</ele>
        <time>1970-01-01T00:14:37.000Z</time>
      </trkpt>
      <trkpt lat="40.388194" lon="-3.301831">
        <ele>830.2</ele>
        <time>1970-01-01T00:14:38.000Z</time>
      </trkpt>
      <trkpt lat="40.388119" lon="-3.301866">
        <ele>830</ele>
        <time>1970-01-01T00:14:39.000Z</time>
      </trkpt>
      <trkpt lat="40.388046" lon="-3.301901">
        <ele>829.8</ele>
        <time>1970-01-01T00:14:40.000Z</time>
      </trkpt>
      <trkpt lat="40.387972" lon="-3.30194">
        <ele>829.8</ele>
        <time>1970-01-01T00:14:41.000Z</time>
      </trkpt>
      <trkpt lat="40.387898" lon="-3.30198">
        <ele>829.6</ele>
        <time>1970-01-01T00:14:42.000Z</time>
      </trkpt>
      <trkpt lat="40.387825" lon="-3.302015">
        <ele>829.4</ele>
        <time>1970-01-01T00:14:43.000Z</time>
      </trkpt>
      <trkpt lat="40.387754" lon="-3.302052">
        <ele>829.2</ele>
        <time>1970-01-01T00:14:44.000Z</time>
      </trkpt>
      <trkpt lat="40.387684" lon="-3.302088">
        <ele>829</ele>
        <time>1970-01-01T00:14:45.000Z</time>
      </trkpt>
      <trkpt lat="40.387617" lon="-3.302123">
        <ele>828.8</ele>
        <time>1970-01-01T00:14:46.000Z</time>
      </trkpt>
      <trkpt lat="40.387549" lon="-3.302159">
        <ele>828.6</ele>
        <time>1970-01-01T00:14:47.000Z</time>
      </trkpt>
      <trkpt lat="40.387483" lon="-3.302194">
        <ele>828.6</ele>
        <time>1970-01-01T00:14:48.000Z</time>
      </trkpt>
      <trkpt lat="40.387418" lon="-3.302228">
        <ele>828.2</ele>
        <time>1970-01-01T00:14:49.000Z</time>
      </trkpt>
      <trkpt lat="40.387355" lon="-3.302263">
        <ele>828.2</ele>
        <time>1970-01-01T00:14:50.000Z</time>
      </trkpt>
      <trkpt lat="40.387295" lon="-3.302297">
        <ele>828</ele>
        <time>1970-01-01T00:14:51.000Z</time>
      </trkpt>
      <trkpt lat="40.387235" lon="-3.302331">
        <ele>828</ele>
        <time>1970-01-01T00:14:52.000Z</time>
      </trkpt>
      <trkpt lat="40.387175" lon="-3.302362">
        <ele>827.8</ele>
        <time>1970-01-01T00:14:53.000Z</time>
      </trkpt>
      <trkpt lat="40.387118" lon="-3.302393">
        <ele>827.6</ele>
        <time>1970-01-01T00:14:54.000Z</time>
      </trkpt>
      <trkpt lat="40.38706" lon="-3.302423">
        <ele>827.6</ele>
        <time>1970-01-01T00:14:55.000Z</time>
      </trkpt>
      <trkpt lat="40.387005" lon="-3.302452">
        <ele>827.4</ele>
        <time>1970-01-01T00:14:56.000Z</time>
      </trkpt>
      <trkpt lat="40.386949" lon="-3.302482">
        <ele>827.2</ele>
        <time>1970-01-01T00:14:57.000Z</time>
      </trkpt>
      <trkpt lat="40.386894" lon="-3.302516">
        <ele>827</ele>
        <time>1970-01-01T00:14:58.000Z</time>
      </trkpt>
      <trkpt lat="40.386841" lon="-3.302552">
        <ele>826.8</ele>
        <time>1970-01-01T00:14:59.000Z</time>
      </trkpt>
      <trkpt lat="40.386789" lon="-3.302591">
        <ele>826.8</ele>
        <time>1970-01-01T00:15:00.000Z</time>
      </trkpt>
      <trkpt lat="40.38674" lon="-3.302635">
        <ele>826.4</ele>
        <time>1970-01-01T00:15:01.000Z</time>
      </trkpt>
      <trkpt lat="40.386695" lon="-3.302686">
        <ele>826.2</ele>
        <time>1970-01-01T00:15:02.000Z</time>
      </trkpt>
      <trkpt lat="40.386657" lon="-3.302747">
        <ele>826.2</ele>
        <time>1970-01-01T00:15:03.000Z</time>
      </trkpt>
      <trkpt lat="40.386624" lon="-3.302815">
        <ele>826.2</ele>
        <time>1970-01-01T00:15:04.000Z</time>
      </trkpt>
      <trkpt lat="40.386595" lon="-3.302889">
        <ele>826</ele>
        <time>1970-01-01T00:15:05.000Z</time>
      </trkpt>
      <trkpt lat="40.386567" lon="-3.302966">
        <ele>825.8</ele>
        <time>1970-01-01T00:15:06.000Z</time>
      </trkpt>
      <trkpt lat="40.386539" lon="-3.303043">
        <ele>825.8</ele>
        <time>1970-01-01T00:15:07.000Z</time>
      </trkpt>
      <trkpt lat="40.386514" lon="-3.303119">
        <ele>825.8</ele>
        <time>1970-01-01T00:15:08.000Z</time>
      </trkpt>
      <trkpt lat="40.386488" lon="-3.30319">
        <ele>825.6</ele>
        <time>1970-01-01T00:15:09.000Z</time>
      </trkpt>
      <trkpt lat="40.386463" lon="-3.303264">
        <ele>825.6</ele>
        <time>1970-01-01T00:15:10.000Z</time>
      </trkpt>
      <trkpt lat="40.386437" lon="-3.303341">
        <ele>825.6</ele>
        <time>1970-01-01T00:15:11.000Z</time>
      </trkpt>
      <trkpt lat="40.386412" lon="-3.303418">
        <ele>825.4</ele>
        <time>1970-01-01T00:15:12.000Z</time>
      </trkpt>
      <trkpt lat="40.386387" lon="-3.303496">
        <ele>825.4</ele>
        <time>1970-01-01T00:15:13.000Z</time>
      </trkpt>
      <trkpt lat="40.386362" lon="-3.303575">
        <ele>825.4</ele>
        <time>1970-01-01T00:15:14.000Z</time>
      </trkpt>
      <trkpt lat="40.38634" lon="-3.303654">
        <ele>825.2</ele>
        <time>1970-01-01T00:15:15.000Z</time>
      </trkpt>
      <trkpt lat="40.386317" lon="-3.303732">
        <ele>825.2</ele>
        <time>1970-01-01T00:15:16.000Z</time>
      </trkpt>
      <trkpt lat="40.386294" lon="-3.303813">
        <ele>825.2</ele>
        <time>1970-01-01T00:15:17.000Z</time>
      </trkpt>
      <trkpt lat="40.386272" lon="-3.303892">
        <ele>825</ele>
        <time>1970-01-01T00:15:18.000Z</time>
      </trkpt>
      <trkpt lat="40.38625" lon="-3.303973">
        <ele>824.8</ele>
        <time>1970-01-01T00:15:19.000Z</time>
      </trkpt>
      <trkpt lat="40.386227" lon="-3.304055">
        <ele>824.8</ele>
        <time>1970-01-01T00:15:20.000Z</time>
      </trkpt>
      <trkpt lat="40.386204" lon="-3.304136">
        <ele>824.6</ele>
        <time>1970-01-01T00:15:21.000Z</time>
      </trkpt>
      <trkpt lat="40.386179" lon="-3.304216">
        <ele>824.6</ele>
        <time>1970-01-01T00:15:22.000Z</time>
      </trkpt>
      <trkpt lat="40.386158" lon="-3.304294">
        <ele>824.4</ele>
        <time>1970-01-01T00:15:23.000Z</time>
      </trkpt>
      <trkpt lat="40.386133" lon="-3.304374">
        <ele>824.4</ele>
        <time>1970-01-01T00:15:24.000Z</time>
      </trkpt>
      <trkpt lat="40.386108" lon="-3.304454">
        <ele>824.2</ele>
        <time>1970-01-01T00:15:25.000Z</time>
      </trkpt>
      <trkpt lat="40.38608" lon="-3.304537">
        <ele>824</ele>
        <time>1970-01-01T00:15:26.000Z</time>
      </trkpt>
      <trkpt lat="40.386054" lon="-3.304626">
        <ele>824</ele>
        <time>1970-01-01T00:15:27.000Z</time>
      </trkpt>
      <trkpt lat="40.386028" lon="-3.304718">
        <ele>823.8</ele>
        <time>1970-01-01T00:15:28.000Z</time>
      </trkpt>
      <trkpt lat="40.386002" lon="-3.304811">
        <ele>823.6</ele>
        <time>1970-01-01T00:15:29.000Z</time>
      </trkpt>
      <trkpt lat="40.385977" lon="-3.304907">
        <ele>823.4</ele>
        <time>1970-01-01T00:15:30.000Z</time>
      </trkpt>
      <trkpt lat="40.385952" lon="-3.305">
        <ele>823.2</ele>
        <time>1970-01-01T00:15:31.000Z</time>
      </trkpt>
      <trkpt lat="40.385928" lon="-3.305087">
        <ele>823.2</ele>
        <time>1970-01-01T00:15:32.000Z</time>
      </trkpt>
      <trkpt lat="40.385906" lon="-3.305167">
        <ele>823</ele>
        <time>1970-01-01T00:15:33.000Z</time>
      </trkpt>
      <trkpt lat="40.385882" lon="-3.305243">
        <ele>822.8</ele>
        <time>1970-01-01T00:15:34.000Z</time>
      </trkpt>
      <trkpt lat="40.385858" lon="-3.305319">
        <ele>822.8</ele>
        <time>1970-01-01T00:15:35.000Z</time>
      </trkpt>
      <trkpt lat="40.385835" lon="-3.305393">
        <ele>822.8</ele>
        <time>1970-01-01T00:15:36.000Z</time>
      </trkpt>
      <trkpt lat="40.385812" lon="-3.305466">
        <ele>822.8</ele>
        <time>1970-01-01T00:15:37.000Z</time>
      </trkpt>
      <trkpt lat="40.385784" lon="-3.305538">
        <ele>822.8</ele>
        <time>1970-01-01T00:15:38.000Z</time>
      </trkpt>
      <trkpt lat="40.385753" lon="-3.30561">
        <ele>822.8</ele>
        <time>1970-01-01T00:15:39.000Z</time>
      </trkpt>
      <trkpt lat="40.385723" lon="-3.30568">
        <ele>822.8</ele>
        <time>1970-01-01T00:15:40.000Z</time>
      </trkpt>
      <trkpt lat="40.385688" lon="-3.305749">
        <ele>822.8</ele>
        <time>1970-01-01T00:15:41.000Z</time>
      </trkpt>
      <trkpt lat="40.385652" lon="-3.305819">
        <ele>823</ele>
        <time>1970-01-01T00:15:42.000Z</time>
      </trkpt>
      <trkpt lat="40.385614" lon="-3.305889">
        <ele>823.2</ele>
        <time>1970-01-01T00:15:43.000Z</time>
      </trkpt>
      <trkpt lat="40.385572" lon="-3.305963">
        <ele>823.2</ele>
        <time>1970-01-01T00:15:44.000Z</time>
      </trkpt>
      <trkpt lat="40.385529" lon="-3.306038">
        <ele>823.2</ele>
        <time>1970-01-01T00:15:45.000Z</time>
      </trkpt>
      <trkpt lat="40.385497" lon="-3.306092">
        <ele>823.2</ele>
        <time>1970-01-01T00:15:46.000Z</time>
      </trkpt>
      <trkpt lat="40.385465" lon="-3.306146">
        <ele>823.2</ele>
        <time>1970-01-01T00:15:47.000Z</time>
      </trkpt>
      <trkpt lat="40.385401" lon="-3.306253">
        <ele>823.2</ele>
        <time>1970-01-01T00:15:48.000Z</time>
      </trkpt>
      <trkpt lat="40.38536" lon="-3.306319">
        <ele>823.2</ele>
        <time>1970-01-01T00:15:49.000Z</time>
      </trkpt>
      <trkpt lat="40.385318" lon="-3.306386">
        <ele>823.2</ele>
        <time>1970-01-01T00:15:50.000Z</time>
      </trkpt>
      <trkpt lat="40.385277" lon="-3.306453">
        <ele>823.2</ele>
        <time>1970-01-01T00:15:51.000Z</time>
      </trkpt>
      <trkpt lat="40.385238" lon="-3.306518">
        <ele>823.2</ele>
        <time>1970-01-01T00:15:52.000Z</time>
      </trkpt>
      <trkpt lat="40.3852" lon="-3.306585">
        <ele>823.2</ele>
        <time>1970-01-01T00:15:53.000Z</time>
      </trkpt>
      <trkpt lat="40.385162" lon="-3.306653">
        <ele>823.2</ele>
        <time>1970-01-01T00:15:54.000Z</time>
      </trkpt>
      <trkpt lat="40.385122" lon="-3.306719">
        <ele>823</ele>
        <time>1970-01-01T00:15:55.000Z</time>
      </trkpt>
      <trkpt lat="40.385079" lon="-3.306785">
        <ele>823</ele>
        <time>1970-01-01T00:15:56.000Z</time>
      </trkpt>
      <trkpt lat="40.385035" lon="-3.306849">
        <ele>823</ele>
        <time>1970-01-01T00:15:57.000Z</time>
      </trkpt>
      <trkpt lat="40.384988" lon="-3.30691">
        <ele>823</ele>
        <time>1970-01-01T00:15:58.000Z</time>
      </trkpt>
      <trkpt lat="40.38494" lon="-3.306968">
        <ele>823</ele>
        <time>1970-01-01T00:15:59.000Z</time>
      </trkpt>
      <trkpt lat="40.384894" lon="-3.307025">
        <ele>823</ele>
        <time>1970-01-01T00:16:00.000Z</time>
      </trkpt>
      <trkpt lat="40.384846" lon="-3.307081">
        <ele>823</ele>
        <time>1970-01-01T00:16:01.000Z</time>
      </trkpt>
      <trkpt lat="40.3848" lon="-3.307135">
        <ele>823</ele>
        <time>1970-01-01T00:16:02.000Z</time>
      </trkpt>
      <trkpt lat="40.384752" lon="-3.307187">
        <ele>823.2</ele>
        <time>1970-01-01T00:16:03.000Z</time>
      </trkpt>
      <trkpt lat="40.384703" lon="-3.307238">
        <ele>823.2</ele>
        <time>1970-01-01T00:16:04.000Z</time>
      </trkpt>
      <trkpt lat="40.384654" lon="-3.307286">
        <ele>823.4</ele>
        <time>1970-01-01T00:16:05.000Z</time>
      </trkpt>
      <trkpt lat="40.384605" lon="-3.307331">
        <ele>823.4</ele>
        <time>1970-01-01T00:16:06.000Z</time>
      </trkpt>
      <trkpt lat="40.384551" lon="-3.307375">
        <ele>823.4</ele>
        <time>1970-01-01T00:16:07.000Z</time>
      </trkpt>
      <trkpt lat="40.384499" lon="-3.307416">
        <ele>823.6</ele>
        <time>1970-01-01T00:16:08.000Z</time>
      </trkpt>
      <trkpt lat="40.384445" lon="-3.307448">
        <ele>823.6</ele>
        <time>1970-01-01T00:16:09.000Z</time>
      </trkpt>
      <trkpt lat="40.384386" lon="-3.307482">
        <ele>823.6</ele>
        <time>1970-01-01T00:16:10.000Z</time>
      </trkpt>
      <trkpt lat="40.384329" lon="-3.307517">
        <ele>823.6</ele>
        <time>1970-01-01T00:16:11.000Z</time>
      </trkpt>
      <trkpt lat="40.384271" lon="-3.307548">
        <ele>823.8</ele>
        <time>1970-01-01T00:16:12.000Z</time>
      </trkpt>
      <trkpt lat="40.384211" lon="-3.307578">
        <ele>823.8</ele>
        <time>1970-01-01T00:16:13.000Z</time>
      </trkpt>
      <trkpt lat="40.384152" lon="-3.307606">
        <ele>823.8</ele>
        <time>1970-01-01T00:16:14.000Z</time>
      </trkpt>
      <trkpt lat="40.384094" lon="-3.307632">
        <ele>824</ele>
        <time>1970-01-01T00:16:15.000Z</time>
      </trkpt>
      <trkpt lat="40.384035" lon="-3.307654">
        <ele>824.2</ele>
        <time>1970-01-01T00:16:16.000Z</time>
      </trkpt>
      <trkpt lat="40.383977" lon="-3.307676">
        <ele>824.4</ele>
        <time>1970-01-01T00:16:17.000Z</time>
      </trkpt>
      <trkpt lat="40.38392" lon="-3.307699">
        <ele>824.4</ele>
        <time>1970-01-01T00:16:18.000Z</time>
      </trkpt>
      <trkpt lat="40.383864" lon="-3.307724">
        <ele>824.6</ele>
        <time>1970-01-01T00:16:19.000Z</time>
      </trkpt>
      <trkpt lat="40.383809" lon="-3.307748">
        <ele>824.6</ele>
        <time>1970-01-01T00:16:20.000Z</time>
      </trkpt>
      <trkpt lat="40.383752" lon="-3.307772">
        <ele>824.8</ele>
        <time>1970-01-01T00:16:21.000Z</time>
      </trkpt>
      <trkpt lat="40.383695" lon="-3.307793">
        <ele>825</ele>
        <time>1970-01-01T00:16:22.000Z</time>
      </trkpt>
      <trkpt lat="40.383638" lon="-3.307816">
        <ele>825</ele>
        <time>1970-01-01T00:16:23.000Z</time>
      </trkpt>
      <trkpt lat="40.383583" lon="-3.307839">
        <ele>825</ele>
        <time>1970-01-01T00:16:24.000Z</time>
      </trkpt>
      <trkpt lat="40.383526" lon="-3.307861">
        <ele>825.2</ele>
        <time>1970-01-01T00:16:25.000Z</time>
      </trkpt>
      <trkpt lat="40.383466" lon="-3.307886">
        <ele>825.4</ele>
        <time>1970-01-01T00:16:26.000Z</time>
      </trkpt>
      <trkpt lat="40.383406" lon="-3.307911">
        <ele>825.6</ele>
        <time>1970-01-01T00:16:27.000Z</time>
      </trkpt>
      <trkpt lat="40.383349" lon="-3.307932">
        <ele>825.8</ele>
        <time>1970-01-01T00:16:28.000Z</time>
      </trkpt>
      <trkpt lat="40.383291" lon="-3.307958">
        <ele>826</ele>
        <time>1970-01-01T00:16:29.000Z</time>
      </trkpt>
      <trkpt lat="40.383233" lon="-3.307982">
        <ele>826.2</ele>
        <time>1970-01-01T00:16:30.000Z</time>
      </trkpt>
      <trkpt lat="40.383175" lon="-3.308006">
        <ele>826.4</ele>
        <time>1970-01-01T00:16:31.000Z</time>
      </trkpt>
      <trkpt lat="40.38312" lon="-3.308026">
        <ele>826.4</ele>
        <time>1970-01-01T00:16:32.000Z</time>
      </trkpt>
      <trkpt lat="40.383063" lon="-3.30805">
        <ele>826.6</ele>
        <time>1970-01-01T00:16:33.000Z</time>
      </trkpt>
      <trkpt lat="40.383008" lon="-3.308077">
        <ele>826.6</ele>
        <time>1970-01-01T00:16:34.000Z</time>
      </trkpt>
      <trkpt lat="40.382951" lon="-3.308106">
        <ele>826.8</ele>
        <time>1970-01-01T00:16:35.000Z</time>
      </trkpt>
      <trkpt lat="40.382893" lon="-3.308139">
        <ele>827.2</ele>
        <time>1970-01-01T00:16:36.000Z</time>
      </trkpt>
      <trkpt lat="40.382835" lon="-3.30817">
        <ele>827.4</ele>
        <time>1970-01-01T00:16:37.000Z</time>
      </trkpt>
      <trkpt lat="40.382776" lon="-3.308203">
        <ele>827.6</ele>
        <time>1970-01-01T00:16:38.000Z</time>
      </trkpt>
      <trkpt lat="40.382717" lon="-3.308235">
        <ele>827.8</ele>
        <time>1970-01-01T00:16:39.000Z</time>
      </trkpt>
      <trkpt lat="40.382656" lon="-3.308267">
        <ele>828</ele>
        <time>1970-01-01T00:16:40.000Z</time>
      </trkpt>
      <trkpt lat="40.382595" lon="-3.308298">
        <ele>828</ele>
        <time>1970-01-01T00:16:41.000Z</time>
      </trkpt>
      <trkpt lat="40.382536" lon="-3.308333">
        <ele>828.2</ele>
        <time>1970-01-01T00:16:42.000Z</time>
      </trkpt>
      <trkpt lat="40.382477" lon="-3.308371">
        <ele>828.2</ele>
        <time>1970-01-01T00:16:43.000Z</time>
      </trkpt>
      <trkpt lat="40.38242" lon="-3.308409">
        <ele>828.2</ele>
        <time>1970-01-01T00:16:44.000Z</time>
      </trkpt>
      <trkpt lat="40.382362" lon="-3.308449">
        <ele>828.4</ele>
        <time>1970-01-01T00:16:45.000Z</time>
      </trkpt>
      <trkpt lat="40.382305" lon="-3.308491">
        <ele>828.6</ele>
        <time>1970-01-01T00:16:46.000Z</time>
      </trkpt>
      <trkpt lat="40.38225" lon="-3.308534">
        <ele>828.8</ele>
        <time>1970-01-01T00:16:47.000Z</time>
      </trkpt>
      <trkpt lat="40.382195" lon="-3.30858">
        <ele>829.2</ele>
        <time>1970-01-01T00:16:48.000Z</time>
      </trkpt>
      <trkpt lat="40.382142" lon="-3.308629">
        <ele>829.4</ele>
        <time>1970-01-01T00:16:49.000Z</time>
      </trkpt>
      <trkpt lat="40.382087" lon="-3.308681">
        <ele>829.6</ele>
        <time>1970-01-01T00:16:50.000Z</time>
      </trkpt>
      <trkpt lat="40.382034" lon="-3.308735">
        <ele>829.6</ele>
        <time>1970-01-01T00:16:51.000Z</time>
      </trkpt>
      <trkpt lat="40.381981" lon="-3.308792">
        <ele>829.8</ele>
        <time>1970-01-01T00:16:52.000Z</time>
      </trkpt>
      <trkpt lat="40.381929" lon="-3.308851">
        <ele>829.8</ele>
        <time>1970-01-01T00:16:53.000Z</time>
      </trkpt>
      <trkpt lat="40.38188" lon="-3.308912">
        <ele>829.8</ele>
        <time>1970-01-01T00:16:54.000Z</time>
      </trkpt>
      <trkpt lat="40.381833" lon="-3.308976">
        <ele>829.8</ele>
        <time>1970-01-01T00:16:55.000Z</time>
      </trkpt>
      <trkpt lat="40.381788" lon="-3.309042">
        <ele>829.8</ele>
        <time>1970-01-01T00:16:56.000Z</time>
      </trkpt>
      <trkpt lat="40.38175" lon="-3.309097">
        <ele>829.8</ele>
        <time>1970-01-01T00:16:57.000Z</time>
      </trkpt>
      <trkpt lat="40.381693" lon="-3.309183">
        <ele>829.8</ele>
        <time>1970-01-01T00:16:58.000Z</time>
      </trkpt>
      <trkpt lat="40.381647" lon="-3.309257">
        <ele>829.8</ele>
        <time>1970-01-01T00:16:59.000Z</time>
      </trkpt>
      <trkpt lat="40.3816" lon="-3.309334">
        <ele>829.8</ele>
        <time>1970-01-01T00:17:00.000Z</time>
      </trkpt>
      <trkpt lat="40.381552" lon="-3.309412">
        <ele>829.8</ele>
        <time>1970-01-01T00:17:01.000Z</time>
      </trkpt>
      <trkpt lat="40.381506" lon="-3.309495">
        <ele>829.6</ele>
        <time>1970-01-01T00:17:02.000Z</time>
      </trkpt>
      <trkpt lat="40.381459" lon="-3.30958">
        <ele>829.6</ele>
        <time>1970-01-01T00:17:03.000Z</time>
      </trkpt>
      <trkpt lat="40.381411" lon="-3.309663">
        <ele>829.4</ele>
        <time>1970-01-01T00:17:04.000Z</time>
      </trkpt>
      <trkpt lat="40.381361" lon="-3.309744">
        <ele>829.4</ele>
        <time>1970-01-01T00:17:05.000Z</time>
      </trkpt>
      <trkpt lat="40.381311" lon="-3.309821">
        <ele>829.2</ele>
        <time>1970-01-01T00:17:06.000Z</time>
      </trkpt>
      <trkpt lat="40.38126" lon="-3.309898">
        <ele>829</ele>
        <time>1970-01-01T00:17:07.000Z</time>
      </trkpt>
      <trkpt lat="40.381211" lon="-3.309971">
        <ele>829</ele>
        <time>1970-01-01T00:17:08.000Z</time>
      </trkpt>
      <trkpt lat="40.381156" lon="-3.310041">
        <ele>828.8</ele>
        <time>1970-01-01T00:17:09.000Z</time>
      </trkpt>
      <trkpt lat="40.381098" lon="-3.310102">
        <ele>828.6</ele>
        <time>1970-01-01T00:17:10.000Z</time>
      </trkpt>
      <trkpt lat="40.381038" lon="-3.310161">
        <ele>828.4</ele>
        <time>1970-01-01T00:17:11.000Z</time>
      </trkpt>
      <trkpt lat="40.380977" lon="-3.310217">
        <ele>828.4</ele>
        <time>1970-01-01T00:17:12.000Z</time>
      </trkpt>
      <trkpt lat="40.380916" lon="-3.310273">
        <ele>828.4</ele>
        <time>1970-01-01T00:17:13.000Z</time>
      </trkpt>
      <trkpt lat="40.380858" lon="-3.310331">
        <ele>828.4</ele>
        <time>1970-01-01T00:17:14.000Z</time>
      </trkpt>
      <trkpt lat="40.380803" lon="-3.31039">
        <ele>828.4</ele>
        <time>1970-01-01T00:17:15.000Z</time>
      </trkpt>
      <trkpt lat="40.380752" lon="-3.310453">
        <ele>828.4</ele>
        <time>1970-01-01T00:17:16.000Z</time>
      </trkpt>
      <trkpt lat="40.380703" lon="-3.31052">
        <ele>828.4</ele>
        <time>1970-01-01T00:17:17.000Z</time>
      </trkpt>
      <trkpt lat="40.380657" lon="-3.310588">
        <ele>828.6</ele>
        <time>1970-01-01T00:17:18.000Z</time>
      </trkpt>
      <trkpt lat="40.380614" lon="-3.31066">
        <ele>828.8</ele>
        <time>1970-01-01T00:17:19.000Z</time>
      </trkpt>
      <trkpt lat="40.38057" lon="-3.310733">
        <ele>829</ele>
        <time>1970-01-01T00:17:20.000Z</time>
      </trkpt>
      <trkpt lat="40.380528" lon="-3.31081">
        <ele>829</ele>
        <time>1970-01-01T00:17:21.000Z</time>
      </trkpt>
      <trkpt lat="40.380489" lon="-3.310884">
        <ele>829</ele>
        <time>1970-01-01T00:17:22.000Z</time>
      </trkpt>
      <trkpt lat="40.38045" lon="-3.310965">
        <ele>829.2</ele>
        <time>1970-01-01T00:17:23.000Z</time>
      </trkpt>
      <trkpt lat="40.380409" lon="-3.311046">
        <ele>829.2</ele>
        <time>1970-01-01T00:17:24.000Z</time>
      </trkpt>
      <trkpt lat="40.380371" lon="-3.311126">
        <ele>829.4</ele>
        <time>1970-01-01T00:17:25.000Z</time>
      </trkpt>
      <trkpt lat="40.380334" lon="-3.311205">
        <ele>829.6</ele>
        <time>1970-01-01T00:17:26.000Z</time>
      </trkpt>
      <trkpt lat="40.380306" lon="-3.311267">
        <ele>829.6</ele>
        <time>1970-01-01T00:17:27.000Z</time>
      </trkpt>
      <trkpt lat="40.380265" lon="-3.311356">
        <ele>829.8</ele>
        <time>1970-01-01T00:17:28.000Z</time>
      </trkpt>
      <trkpt lat="40.380231" lon="-3.311428">
        <ele>830</ele>
        <time>1970-01-01T00:17:29.000Z</time>
      </trkpt>
      <trkpt lat="40.380196" lon="-3.311496">
        <ele>830.4</ele>
        <time>1970-01-01T00:17:30.000Z</time>
      </trkpt>
      <trkpt lat="40.380161" lon="-3.311558">
        <ele>830.6</ele>
        <time>1970-01-01T00:17:31.000Z</time>
      </trkpt>
      <trkpt lat="40.380127" lon="-3.311611">
        <ele>830.8</ele>
        <time>1970-01-01T00:17:32.000Z</time>
      </trkpt>
      <trkpt lat="40.380091" lon="-3.311665">
        <ele>831</ele>
        <time>1970-01-01T00:17:33.000Z</time>
      </trkpt>
      <trkpt lat="40.380051" lon="-3.311722">
        <ele>831.4</ele>
        <time>1970-01-01T00:17:34.000Z</time>
      </trkpt>
      <trkpt lat="40.380006" lon="-3.311783">
        <ele>831.4</ele>
        <time>1970-01-01T00:17:35.000Z</time>
      </trkpt>
      <trkpt lat="40.379956" lon="-3.311847">
        <ele>831.6</ele>
        <time>1970-01-01T00:17:36.000Z</time>
      </trkpt>
      <trkpt lat="40.379902" lon="-3.311915">
        <ele>831.6</ele>
        <time>1970-01-01T00:17:37.000Z</time>
      </trkpt>
      <trkpt lat="40.379845" lon="-3.311983">
        <ele>831.6</ele>
        <time>1970-01-01T00:17:38.000Z</time>
      </trkpt>
      <trkpt lat="40.379783" lon="-3.312051">
        <ele>831.8</ele>
        <time>1970-01-01T00:17:39.000Z</time>
      </trkpt>
      <trkpt lat="40.379723" lon="-3.312116">
        <ele>831.8</ele>
        <time>1970-01-01T00:17:40.000Z</time>
      </trkpt>
      <trkpt lat="40.379664" lon="-3.31218">
        <ele>831.6</ele>
        <time>1970-01-01T00:17:41.000Z</time>
      </trkpt>
      <trkpt lat="40.379611" lon="-3.312242">
        <ele>831.6</ele>
        <time>1970-01-01T00:17:42.000Z</time>
      </trkpt>
      <trkpt lat="40.379559" lon="-3.312306">
        <ele>831.2</ele>
        <time>1970-01-01T00:17:43.000Z</time>
      </trkpt>
      <trkpt lat="40.379511" lon="-3.312367">
        <ele>831</ele>
        <time>1970-01-01T00:17:44.000Z</time>
      </trkpt>
      <trkpt lat="40.379463" lon="-3.312427">
        <ele>830.8</ele>
        <time>1970-01-01T00:17:45.000Z</time>
      </trkpt>
      <trkpt lat="40.379417" lon="-3.312485">
        <ele>830.8</ele>
        <time>1970-01-01T00:17:46.000Z</time>
      </trkpt>
      <trkpt lat="40.379381" lon="-3.31253">
        <ele>830.8</ele>
        <time>1970-01-01T00:17:47.000Z</time>
      </trkpt>
      <trkpt lat="40.379331" lon="-3.312595">
        <ele>830.6</ele>
        <time>1970-01-01T00:17:48.000Z</time>
      </trkpt>
      <trkpt lat="40.379288" lon="-3.312647">
        <ele>830.6</ele>
        <time>1970-01-01T00:17:49.000Z</time>
      </trkpt>
      <trkpt lat="40.379245" lon="-3.312698">
        <ele>830.8</ele>
        <time>1970-01-01T00:17:50.000Z</time>
      </trkpt>
      <trkpt lat="40.379204" lon="-3.312748">
        <ele>831</ele>
        <time>1970-01-01T00:17:51.000Z</time>
      </trkpt>
      <trkpt lat="40.379162" lon="-3.312802">
        <ele>831</ele>
        <time>1970-01-01T00:17:52.000Z</time>
      </trkpt>
      <trkpt lat="40.37912" lon="-3.312855">
        <ele>831.2</ele>
        <time>1970-01-01T00:17:53.000Z</time>
      </trkpt>
      <trkpt lat="40.379078" lon="-3.312907">
        <ele>831.2</ele>
        <time>1970-01-01T00:17:54.000Z</time>
      </trkpt>
      <trkpt lat="40.379036" lon="-3.312958">
        <ele>831.4</ele>
        <time>1970-01-01T00:17:55.000Z</time>
      </trkpt>
      <trkpt lat="40.378993" lon="-3.313007">
        <ele>831.6</ele>
        <time>1970-01-01T00:17:56.000Z</time>
      </trkpt>
      <trkpt lat="40.37895" lon="-3.313056">
        <ele>831.8</ele>
        <time>1970-01-01T00:17:57.000Z</time>
      </trkpt>
      <trkpt lat="40.37891" lon="-3.313104">
        <ele>832</ele>
        <time>1970-01-01T00:17:58.000Z</time>
      </trkpt>
      <trkpt lat="40.378868" lon="-3.313154">
        <ele>832.2</ele>
        <time>1970-01-01T00:17:59.000Z</time>
      </trkpt>
      <trkpt lat="40.378827" lon="-3.313205">
        <ele>832.4</ele>
        <time>1970-01-01T00:18:00.000Z</time>
      </trkpt>
      <trkpt lat="40.378787" lon="-3.313253">
        <ele>832.6</ele>
        <time>1970-01-01T00:18:01.000Z</time>
      </trkpt>
      <trkpt lat="40.378748" lon="-3.313295">
        <ele>833</ele>
        <time>1970-01-01T00:18:02.000Z</time>
      </trkpt>
      <trkpt lat="40.378711" lon="-3.313334">
        <ele>833.2</ele>
        <time>1970-01-01T00:18:03.000Z</time>
      </trkpt>
      <trkpt lat="40.378678" lon="-3.313373">
        <ele>833.4</ele>
        <time>1970-01-01T00:18:04.000Z</time>
      </trkpt>
      <trkpt lat="40.378644" lon="-3.313411">
        <ele>833.6</ele>
        <time>1970-01-01T00:18:05.000Z</time>
      </trkpt>
      <trkpt lat="40.378611" lon="-3.313447">
        <ele>833.8</ele>
        <time>1970-01-01T00:18:06.000Z</time>
      </trkpt>
      <trkpt lat="40.378581" lon="-3.313482">
        <ele>834</ele>
        <time>1970-01-01T00:18:07.000Z</time>
      </trkpt>
      <trkpt lat="40.378552" lon="-3.313516">
        <ele>834</ele>
        <time>1970-01-01T00:18:08.000Z</time>
      </trkpt>
      <trkpt lat="40.378522" lon="-3.313548">
        <ele>834.2</ele>
        <time>1970-01-01T00:18:09.000Z</time>
      </trkpt>
      <trkpt lat="40.378492" lon="-3.313582">
        <ele>834.2</ele>
        <time>1970-01-01T00:18:10.000Z</time>
      </trkpt>
      <trkpt lat="40.378462" lon="-3.313611">
        <ele>834.4</ele>
        <time>1970-01-01T00:18:11.000Z</time>
      </trkpt>
      <trkpt lat="40.378431" lon="-3.313636">
        <ele>834.6</ele>
        <time>1970-01-01T00:18:12.000Z</time>
      </trkpt>
      <trkpt lat="40.378405" lon="-3.313657">
        <ele>834.6</ele>
        <time>1970-01-01T00:18:13.000Z</time>
      </trkpt>
      <trkpt lat="40.378368" lon="-3.313694">
        <ele>834.8</ele>
        <time>1970-01-01T00:18:14.000Z</time>
      </trkpt>
      <trkpt lat="40.378336" lon="-3.313727">
        <ele>834.8</ele>
        <time>1970-01-01T00:18:15.000Z</time>
      </trkpt>
      <trkpt lat="40.378303" lon="-3.313761">
        <ele>834.8</ele>
        <time>1970-01-01T00:18:16.000Z</time>
      </trkpt>
      <trkpt lat="40.378268" lon="-3.313792">
        <ele>835</ele>
        <time>1970-01-01T00:18:17.000Z</time>
      </trkpt>
      <trkpt lat="40.37823" lon="-3.313824">
        <ele>835</ele>
        <time>1970-01-01T00:18:18.000Z</time>
      </trkpt>
      <trkpt lat="40.378192" lon="-3.313858">
        <ele>835</ele>
        <time>1970-01-01T00:18:19.000Z</time>
      </trkpt>
      <trkpt lat="40.378153" lon="-3.313895">
        <ele>835</ele>
        <time>1970-01-01T00:18:20.000Z</time>
      </trkpt>
      <trkpt lat="40.378114" lon="-3.313934">
        <ele>835</ele>
        <time>1970-01-01T00:18:21.000Z</time>
      </trkpt>
      <trkpt lat="40.37807" lon="-3.31397">
        <ele>835</ele>
        <time>1970-01-01T00:18:22.000Z</time>
      </trkpt>
      <trkpt lat="40.378026" lon="-3.314009">
        <ele>835.2</ele>
        <time>1970-01-01T00:18:23.000Z</time>
      </trkpt>
      <trkpt lat="40.377982" lon="-3.314049">
        <ele>835.2</ele>
        <time>1970-01-01T00:18:24.000Z</time>
      </trkpt>
      <trkpt lat="40.377937" lon="-3.31409">
        <ele>835</ele>
        <time>1970-01-01T00:18:25.000Z</time>
      </trkpt>
      <trkpt lat="40.377891" lon="-3.314133">
        <ele>835</ele>
        <time>1970-01-01T00:18:26.000Z</time>
      </trkpt>
      <trkpt lat="40.377844" lon="-3.314176">
        <ele>835</ele>
        <time>1970-01-01T00:18:27.000Z</time>
      </trkpt>
      <trkpt lat="40.377796" lon="-3.314219">
        <ele>835</ele>
        <time>1970-01-01T00:18:28.000Z</time>
      </trkpt>
      <trkpt lat="40.377749" lon="-3.314261">
        <ele>834.8</ele>
        <time>1970-01-01T00:18:29.000Z</time>
      </trkpt>
      <trkpt lat="40.377702" lon="-3.314302">
        <ele>834.6</ele>
        <time>1970-01-01T00:18:30.000Z</time>
      </trkpt>
      <trkpt lat="40.377657" lon="-3.314342">
        <ele>834.6</ele>
        <time>1970-01-01T00:18:31.000Z</time>
      </trkpt>
      <trkpt lat="40.377612" lon="-3.314382">
        <ele>834.4</ele>
        <time>1970-01-01T00:18:32.000Z</time>
      </trkpt>
      <trkpt lat="40.377566" lon="-3.314424">
        <ele>834.2</ele>
        <time>1970-01-01T00:18:33.000Z</time>
      </trkpt>
      <trkpt lat="40.377519" lon="-3.314468">
        <ele>834.2</ele>
        <time>1970-01-01T00:18:34.000Z</time>
      </trkpt>
      <trkpt lat="40.377471" lon="-3.314512">
        <ele>833.8</ele>
        <time>1970-01-01T00:18:35.000Z</time>
      </trkpt>
      <trkpt lat="40.377431" lon="-3.314547">
        <ele>833.8</ele>
        <time>1970-01-01T00:18:36.000Z</time>
      </trkpt>
      <trkpt lat="40.377379" lon="-3.314592">
        <ele>833.6</ele>
        <time>1970-01-01T00:18:37.000Z</time>
      </trkpt>
      <trkpt lat="40.377314" lon="-3.314647">
        <ele>833.6</ele>
        <time>1970-01-01T00:18:38.000Z</time>
      </trkpt>
      <trkpt lat="40.377261" lon="-3.314695">
        <ele>833.4</ele>
        <time>1970-01-01T00:18:39.000Z</time>
      </trkpt>
      <trkpt lat="40.377207" lon="-3.314746">
        <ele>833.4</ele>
        <time>1970-01-01T00:18:40.000Z</time>
      </trkpt>
      <trkpt lat="40.377165" lon="-3.314787">
        <ele>833.4</ele>
        <time>1970-01-01T00:18:41.000Z</time>
      </trkpt>
      <trkpt lat="40.377112" lon="-3.314839">
        <ele>833.2</ele>
        <time>1970-01-01T00:18:42.000Z</time>
      </trkpt>
      <trkpt lat="40.377045" lon="-3.314899">
        <ele>833.2</ele>
        <time>1970-01-01T00:18:43.000Z</time>
      </trkpt>
      <trkpt lat="40.37699" lon="-3.31495">
        <ele>833</ele>
        <time>1970-01-01T00:18:44.000Z</time>
      </trkpt>
      <trkpt lat="40.37693" lon="-3.315002">
        <ele>832.8</ele>
        <time>1970-01-01T00:18:45.000Z</time>
      </trkpt>
      <trkpt lat="40.37687" lon="-3.315048">
        <ele>832.6</ele>
        <time>1970-01-01T00:18:46.000Z</time>
      </trkpt>
      <trkpt lat="40.376811" lon="-3.315094">
        <ele>832.6</ele>
        <time>1970-01-01T00:18:47.000Z</time>
      </trkpt>
      <trkpt lat="40.376751" lon="-3.31514">
        <ele>832.4</ele>
        <time>1970-01-01T00:18:48.000Z</time>
      </trkpt>
      <trkpt lat="40.376689" lon="-3.315186">
        <ele>832.2</ele>
        <time>1970-01-01T00:18:49.000Z</time>
      </trkpt>
      <trkpt lat="40.376627" lon="-3.31523">
        <ele>832.2</ele>
        <time>1970-01-01T00:18:50.000Z</time>
      </trkpt>
      <trkpt lat="40.376566" lon="-3.315275">
        <ele>832</ele>
        <time>1970-01-01T00:18:51.000Z</time>
      </trkpt>
      <trkpt lat="40.376505" lon="-3.315319">
        <ele>831.8</ele>
        <time>1970-01-01T00:18:52.000Z</time>
      </trkpt>
      <trkpt lat="40.376443" lon="-3.315364">
        <ele>831.8</ele>
        <time>1970-01-01T00:18:53.000Z</time>
      </trkpt>
      <trkpt lat="40.376381" lon="-3.315408">
        <ele>831.6</ele>
        <time>1970-01-01T00:18:54.000Z</time>
      </trkpt>
      <trkpt lat="40.376316" lon="-3.315451">
        <ele>831.6</ele>
        <time>1970-01-01T00:18:55.000Z</time>
      </trkpt>
      <trkpt lat="40.376251" lon="-3.315493">
        <ele>831.4</ele>
        <time>1970-01-01T00:18:56.000Z</time>
      </trkpt>
      <trkpt lat="40.376187" lon="-3.315534">
        <ele>831.4</ele>
        <time>1970-01-01T00:18:57.000Z</time>
      </trkpt>
      <trkpt lat="40.376124" lon="-3.315579">
        <ele>831.4</ele>
        <time>1970-01-01T00:18:58.000Z</time>
      </trkpt>
      <trkpt lat="40.376062" lon="-3.315629">
        <ele>831.2</ele>
        <time>1970-01-01T00:18:59.000Z</time>
      </trkpt>
      <trkpt lat="40.376002" lon="-3.315686">
        <ele>831.2</ele>
        <time>1970-01-01T00:19:00.000Z</time>
      </trkpt>
      <trkpt lat="40.375948" lon="-3.315748">
        <ele>831</ele>
        <time>1970-01-01T00:19:01.000Z</time>
      </trkpt>
      <trkpt lat="40.375901" lon="-3.315823">
        <ele>831</ele>
        <time>1970-01-01T00:19:02.000Z</time>
      </trkpt>
      <trkpt lat="40.375869" lon="-3.315909">
        <ele>831</ele>
        <time>1970-01-01T00:19:03.000Z</time>
      </trkpt>
      <trkpt lat="40.37585" lon="-3.316">
        <ele>831</ele>
        <time>1970-01-01T00:19:04.000Z</time>
      </trkpt>
      <trkpt lat="40.37584" lon="-3.316095">
        <ele>831</ele>
        <time>1970-01-01T00:19:05.000Z</time>
      </trkpt>
      <trkpt lat="40.375833" lon="-3.316189">
        <ele>831</ele>
        <time>1970-01-01T00:19:06.000Z</time>
      </trkpt>
      <trkpt lat="40.375828" lon="-3.316282">
        <ele>831</ele>
        <time>1970-01-01T00:19:07.000Z</time>
      </trkpt>
      <trkpt lat="40.375822" lon="-3.316378">
        <ele>831</ele>
        <time>1970-01-01T00:19:08.000Z</time>
      </trkpt>
      <trkpt lat="40.375812" lon="-3.316469">
        <ele>831</ele>
        <time>1970-01-01T00:19:09.000Z</time>
      </trkpt>
      <trkpt lat="40.375796" lon="-3.316558">
        <ele>831</ele>
        <time>1970-01-01T00:19:10.000Z</time>
      </trkpt>
      <trkpt lat="40.375771" lon="-3.316642">
        <ele>831</ele>
        <time>1970-01-01T00:19:11.000Z</time>
      </trkpt>
      <trkpt lat="40.375732" lon="-3.316719">
        <ele>831</ele>
        <time>1970-01-01T00:19:12.000Z</time>
      </trkpt>
      <trkpt lat="40.375687" lon="-3.316786">
        <ele>831</ele>
        <time>1970-01-01T00:19:13.000Z</time>
      </trkpt>
      <trkpt lat="40.375634" lon="-3.316844">
        <ele>831</ele>
        <time>1970-01-01T00:19:14.000Z</time>
      </trkpt>
      <trkpt lat="40.375579" lon="-3.316895">
        <ele>831</ele>
        <time>1970-01-01T00:19:15.000Z</time>
      </trkpt>
      <trkpt lat="40.375519" lon="-3.316942">
        <ele>831</ele>
        <time>1970-01-01T00:19:16.000Z</time>
      </trkpt>
      <trkpt lat="40.375459" lon="-3.316986">
        <ele>831</ele>
        <time>1970-01-01T00:19:17.000Z</time>
      </trkpt>
      <trkpt lat="40.375397" lon="-3.317031">
        <ele>831</ele>
        <time>1970-01-01T00:19:18.000Z</time>
      </trkpt>
      <trkpt lat="40.375334" lon="-3.317077">
        <ele>830.8</ele>
        <time>1970-01-01T00:19:19.000Z</time>
      </trkpt>
      <trkpt lat="40.375269" lon="-3.31712">
        <ele>830.8</ele>
        <time>1970-01-01T00:19:20.000Z</time>
      </trkpt>
      <trkpt lat="40.375203" lon="-3.317163">
        <ele>830.6</ele>
        <time>1970-01-01T00:19:21.000Z</time>
      </trkpt>
      <trkpt lat="40.375137" lon="-3.317207">
        <ele>830.6</ele>
        <time>1970-01-01T00:19:22.000Z</time>
      </trkpt>
      <trkpt lat="40.375072" lon="-3.317251">
        <ele>830.4</ele>
        <time>1970-01-01T00:19:23.000Z</time>
      </trkpt>
      <trkpt lat="40.375006" lon="-3.317295">
        <ele>830.2</ele>
        <time>1970-01-01T00:19:24.000Z</time>
      </trkpt>
      <trkpt lat="40.374941" lon="-3.317336">
        <ele>830.2</ele>
        <time>1970-01-01T00:19:25.000Z</time>
      </trkpt>
      <trkpt lat="40.374875" lon="-3.317376">
        <ele>830.2</ele>
        <time>1970-01-01T00:19:26.000Z</time>
      </trkpt>
      <trkpt lat="40.374809" lon="-3.317416">
        <ele>830.2</ele>
        <time>1970-01-01T00:19:27.000Z</time>
      </trkpt>
      <trkpt lat="40.374743" lon="-3.317456">
        <ele>830.2</ele>
        <time>1970-01-01T00:19:28.000Z</time>
      </trkpt>
      <trkpt lat="40.374677" lon="-3.317494">
        <ele>830.2</ele>
        <time>1970-01-01T00:19:29.000Z</time>
      </trkpt>
      <trkpt lat="40.374612" lon="-3.317535">
        <ele>830.2</ele>
        <time>1970-01-01T00:19:30.000Z</time>
      </trkpt>
      <trkpt lat="40.374547" lon="-3.317575">
        <ele>830</ele>
        <time>1970-01-01T00:19:31.000Z</time>
      </trkpt>
      <trkpt lat="40.374482" lon="-3.317615">
        <ele>830</ele>
        <time>1970-01-01T00:19:32.000Z</time>
      </trkpt>
      <trkpt lat="40.374417" lon="-3.317653">
        <ele>830</ele>
        <time>1970-01-01T00:19:33.000Z</time>
      </trkpt>
      <trkpt lat="40.374352" lon="-3.317692">
        <ele>829.8</ele>
        <time>1970-01-01T00:19:34.000Z</time>
      </trkpt>
      <trkpt lat="40.37429" lon="-3.317732">
        <ele>830</ele>
        <time>1970-01-01T00:19:35.000Z</time>
      </trkpt>
      <trkpt lat="40.374228" lon="-3.317774">
        <ele>829.8</ele>
        <time>1970-01-01T00:19:36.000Z</time>
      </trkpt>
      <trkpt lat="40.374166" lon="-3.317815">
        <ele>829.8</ele>
        <time>1970-01-01T00:19:37.000Z</time>
      </trkpt>
      <trkpt lat="40.374105" lon="-3.317855">
        <ele>829.8</ele>
        <time>1970-01-01T00:19:38.000Z</time>
      </trkpt>
      <trkpt lat="40.374044" lon="-3.317895">
        <ele>829.6</ele>
        <time>1970-01-01T00:19:39.000Z</time>
      </trkpt>
      <trkpt lat="40.373984" lon="-3.317932">
        <ele>829.4</ele>
        <time>1970-01-01T00:19:40.000Z</time>
      </trkpt>
      <trkpt lat="40.373925" lon="-3.317969">
        <ele>829.6</ele>
        <time>1970-01-01T00:19:41.000Z</time>
      </trkpt>
      <trkpt lat="40.373865" lon="-3.318007">
        <ele>829.4</ele>
        <time>1970-01-01T00:19:42.000Z</time>
      </trkpt>
      <trkpt lat="40.373806" lon="-3.318042">
        <ele>829.4</ele>
        <time>1970-01-01T00:19:43.000Z</time>
      </trkpt>
      <trkpt lat="40.373748" lon="-3.318081">
        <ele>829.2</ele>
        <time>1970-01-01T00:19:44.000Z</time>
      </trkpt>
      <trkpt lat="40.373693" lon="-3.318121">
        <ele>829.2</ele>
        <time>1970-01-01T00:19:45.000Z</time>
      </trkpt>
      <trkpt lat="40.373635" lon="-3.318164">
        <ele>829.2</ele>
        <time>1970-01-01T00:19:46.000Z</time>
      </trkpt>
      <trkpt lat="40.373578" lon="-3.318204">
        <ele>829</ele>
        <time>1970-01-01T00:19:47.000Z</time>
      </trkpt>
      <trkpt lat="40.37352" lon="-3.318239">
        <ele>829</ele>
        <time>1970-01-01T00:19:48.000Z</time>
      </trkpt>
      <trkpt lat="40.373461" lon="-3.318271">
        <ele>829</ele>
        <time>1970-01-01T00:19:49.000Z</time>
      </trkpt>
      <trkpt lat="40.373402" lon="-3.318299">
        <ele>829</ele>
        <time>1970-01-01T00:19:50.000Z</time>
      </trkpt>
      <trkpt lat="40.373341" lon="-3.318324">
        <ele>828.8</ele>
        <time>1970-01-01T00:19:51.000Z</time>
      </trkpt>
      <trkpt lat="40.373278" lon="-3.318345">
        <ele>828.8</ele>
        <time>1970-01-01T00:19:52.000Z</time>
      </trkpt>
      <trkpt lat="40.373214" lon="-3.31836">
        <ele>828.8</ele>
        <time>1970-01-01T00:19:53.000Z</time>
      </trkpt>
      <trkpt lat="40.373152" lon="-3.318369">
        <ele>829</ele>
        <time>1970-01-01T00:19:54.000Z</time>
      </trkpt>
      <trkpt lat="40.373091" lon="-3.318376">
        <ele>829</ele>
        <time>1970-01-01T00:19:55.000Z</time>
      </trkpt>
      <trkpt lat="40.373031" lon="-3.318383">
        <ele>829</ele>
        <time>1970-01-01T00:19:56.000Z</time>
      </trkpt>
      <trkpt lat="40.372968" lon="-3.318389">
        <ele>829.2</ele>
        <time>1970-01-01T00:19:57.000Z</time>
      </trkpt>
      <trkpt lat="40.372906" lon="-3.318395">
        <ele>829.2</ele>
        <time>1970-01-01T00:19:58.000Z</time>
      </trkpt>
      <trkpt lat="40.372844" lon="-3.318401">
        <ele>829.2</ele>
        <time>1970-01-01T00:19:59.000Z</time>
      </trkpt>
      <trkpt lat="40.372781" lon="-3.318406">
        <ele>829.2</ele>
        <time>1970-01-01T00:20:00.000Z</time>
      </trkpt>
      <trkpt lat="40.372719" lon="-3.318411">
        <ele>829.4</ele>
        <time>1970-01-01T00:20:01.000Z</time>
      </trkpt>
      <trkpt lat="40.372657" lon="-3.318417">
        <ele>829.4</ele>
        <time>1970-01-01T00:20:02.000Z</time>
      </trkpt>
      <trkpt lat="40.372595" lon="-3.318425">
        <ele>829.4</ele>
        <time>1970-01-01T00:20:03.000Z</time>
      </trkpt>
      <trkpt lat="40.372531" lon="-3.318433">
        <ele>829.4</ele>
        <time>1970-01-01T00:20:04.000Z</time>
      </trkpt>
      <trkpt lat="40.372468" lon="-3.318445">
        <ele>829.4</ele>
        <time>1970-01-01T00:20:05.000Z</time>
      </trkpt>
      <trkpt lat="40.372405" lon="-3.318455">
        <ele>829.6</ele>
        <time>1970-01-01T00:20:06.000Z</time>
      </trkpt>
      <trkpt lat="40.372341" lon="-3.318462">
        <ele>829.6</ele>
        <time>1970-01-01T00:20:07.000Z</time>
      </trkpt>
      <trkpt lat="40.372277" lon="-3.318471">
        <ele>829.6</ele>
        <time>1970-01-01T00:20:08.000Z</time>
      </trkpt>
      <trkpt lat="40.372213" lon="-3.31848">
        <ele>829.6</ele>
        <time>1970-01-01T00:20:09.000Z</time>
      </trkpt>
      <trkpt lat="40.372147" lon="-3.318492">
        <ele>829.8</ele>
        <time>1970-01-01T00:20:10.000Z</time>
      </trkpt>
      <trkpt lat="40.372082" lon="-3.318501">
        <ele>829.8</ele>
        <time>1970-01-01T00:20:11.000Z</time>
      </trkpt>
      <trkpt lat="40.372018" lon="-3.31851">
        <ele>829.8</ele>
        <time>1970-01-01T00:20:12.000Z</time>
      </trkpt>
      <trkpt lat="40.371953" lon="-3.318521">
        <ele>829.6</ele>
        <time>1970-01-01T00:20:13.000Z</time>
      </trkpt>
      <trkpt lat="40.371891" lon="-3.31853">
        <ele>829.6</ele>
        <time>1970-01-01T00:20:14.000Z</time>
      </trkpt>
      <trkpt lat="40.371829" lon="-3.318539">
        <ele>829.6</ele>
        <time>1970-01-01T00:20:15.000Z</time>
      </trkpt>
      <trkpt lat="40.371766" lon="-3.31855">
        <ele>829.6</ele>
        <time>1970-01-01T00:20:16.000Z</time>
      </trkpt>
      <trkpt lat="40.371706" lon="-3.318565">
        <ele>829.6</ele>
        <time>1970-01-01T00:20:17.000Z</time>
      </trkpt>
      <trkpt lat="40.371649" lon="-3.318588">
        <ele>829.6</ele>
        <time>1970-01-01T00:20:18.000Z</time>
      </trkpt>
      <trkpt lat="40.371596" lon="-3.318617">
        <ele>829.6</ele>
        <time>1970-01-01T00:20:19.000Z</time>
      </trkpt>
      <trkpt lat="40.371547" lon="-3.318657">
        <ele>829.4</ele>
        <time>1970-01-01T00:20:20.000Z</time>
      </trkpt>
      <trkpt lat="40.371508" lon="-3.318709">
        <ele>829.4</ele>
        <time>1970-01-01T00:20:21.000Z</time>
      </trkpt>
      <trkpt lat="40.371482" lon="-3.318766">
        <ele>829.4</ele>
        <time>1970-01-01T00:20:22.000Z</time>
      </trkpt>
      <trkpt lat="40.371461" lon="-3.318826">
        <ele>829.4</ele>
        <time>1970-01-01T00:20:23.000Z</time>
      </trkpt>
      <trkpt lat="40.371435" lon="-3.318883">
        <ele>829.4</ele>
        <time>1970-01-01T00:20:24.000Z</time>
      </trkpt>
      <trkpt lat="40.371401" lon="-3.318936">
        <ele>829.4</ele>
        <time>1970-01-01T00:20:25.000Z</time>
      </trkpt>
      <trkpt lat="40.371364" lon="-3.318986">
        <ele>829.2</ele>
        <time>1970-01-01T00:20:26.000Z</time>
      </trkpt>
      <trkpt lat="40.371327" lon="-3.319035">
        <ele>829.2</ele>
        <time>1970-01-01T00:20:27.000Z</time>
      </trkpt>
      <trkpt lat="40.371293" lon="-3.319087">
        <ele>829.2</ele>
        <time>1970-01-01T00:20:28.000Z</time>
      </trkpt>
      <trkpt lat="40.371263" lon="-3.319144">
        <ele>829.2</ele>
        <time>1970-01-01T00:20:29.000Z</time>
      </trkpt>
      <trkpt lat="40.371234" lon="-3.319204">
        <ele>829.2</ele>
        <time>1970-01-01T00:20:30.000Z</time>
      </trkpt>
      <trkpt lat="40.371205" lon="-3.319265">
        <ele>829.2</ele>
        <time>1970-01-01T00:20:31.000Z</time>
      </trkpt>
      <trkpt lat="40.371173" lon="-3.319323">
        <ele>829.2</ele>
        <time>1970-01-01T00:20:32.000Z</time>
      </trkpt>
      <trkpt lat="40.371139" lon="-3.319378">
        <ele>829</ele>
        <time>1970-01-01T00:20:33.000Z</time>
      </trkpt>
      <trkpt lat="40.371105" lon="-3.319428">
        <ele>829</ele>
        <time>1970-01-01T00:20:34.000Z</time>
      </trkpt>
      <trkpt lat="40.371076" lon="-3.319471">
        <ele>829</ele>
        <time>1970-01-01T00:20:35.000Z</time>
      </trkpt>
      <trkpt lat="40.371049" lon="-3.319508">
        <ele>828.4</ele>
        <time>1970-01-01T00:20:36.000Z</time>
      </trkpt>
      <trkpt lat="40.371026" lon="-3.319541">
        <ele>828.4</ele>
        <time>1970-01-01T00:20:37.000Z</time>
      </trkpt>
      <trkpt lat="40.371006" lon="-3.319571">
        <ele>828.2</ele>
        <time>1970-01-01T00:20:38.000Z</time>
      </trkpt>
      <trkpt lat="40.370984" lon="-3.319602">
        <ele>828</ele>
        <time>1970-01-01T00:20:39.000Z</time>
      </trkpt>
      <trkpt lat="40.37096" lon="-3.319637">
        <ele>828</ele>
        <time>1970-01-01T00:20:40.000Z</time>
      </trkpt>
      <trkpt lat="40.370935" lon="-3.319672">
        <ele>827.8</ele>
        <time>1970-01-01T00:20:41.000Z</time>
      </trkpt>
      <trkpt lat="40.37091" lon="-3.319705">
        <ele>827.6</ele>
        <time>1970-01-01T00:20:42.000Z</time>
      </trkpt>
      <trkpt lat="40.370883" lon="-3.31974">
        <ele>827.4</ele>
        <time>1970-01-01T00:20:43.000Z</time>
      </trkpt>
      <trkpt lat="40.370853" lon="-3.319778">
        <ele>827.4</ele>
        <time>1970-01-01T00:20:44.000Z</time>
      </trkpt>
      <trkpt lat="40.370821" lon="-3.319816">
        <ele>827.2</ele>
        <time>1970-01-01T00:20:45.000Z</time>
      </trkpt>
      <trkpt lat="40.370788" lon="-3.319856">
        <ele>827.2</ele>
        <time>1970-01-01T00:20:46.000Z</time>
      </trkpt>
      <trkpt lat="40.370751" lon="-3.319894">
        <ele>827.2</ele>
        <time>1970-01-01T00:20:47.000Z</time>
      </trkpt>
      <trkpt lat="40.370712" lon="-3.31993">
        <ele>827.2</ele>
        <time>1970-01-01T00:20:48.000Z</time>
      </trkpt>
      <trkpt lat="40.370672" lon="-3.319963">
        <ele>827</ele>
        <time>1970-01-01T00:20:49.000Z</time>
      </trkpt>
      <trkpt lat="40.370632" lon="-3.319994">
        <ele>827</ele>
        <time>1970-01-01T00:20:50.000Z</time>
      </trkpt>
      <trkpt lat="40.370594" lon="-3.320021">
        <ele>826.8</ele>
        <time>1970-01-01T00:20:51.000Z</time>
      </trkpt>
      <trkpt lat="40.370554" lon="-3.320048">
        <ele>826.6</ele>
        <time>1970-01-01T00:20:52.000Z</time>
      </trkpt>
      <trkpt lat="40.370515" lon="-3.320081">
        <ele>826.4</ele>
        <time>1970-01-01T00:20:53.000Z</time>
      </trkpt>
      <trkpt lat="40.370476" lon="-3.320117">
        <ele>826.2</ele>
        <time>1970-01-01T00:20:54.000Z</time>
      </trkpt>
      <trkpt lat="40.370439" lon="-3.320155">
        <ele>826.2</ele>
        <time>1970-01-01T00:20:55.000Z</time>
      </trkpt>
      <trkpt lat="40.370404" lon="-3.320194">
        <ele>826.2</ele>
        <time>1970-01-01T00:20:56.000Z</time>
      </trkpt>
      <trkpt lat="40.370368" lon="-3.32023">
        <ele>826</ele>
        <time>1970-01-01T00:20:57.000Z</time>
      </trkpt>
      <trkpt lat="40.370332" lon="-3.320266">
        <ele>826</ele>
        <time>1970-01-01T00:20:58.000Z</time>
      </trkpt>
      <trkpt lat="40.370297" lon="-3.3203">
        <ele>825.8</ele>
        <time>1970-01-01T00:20:59.000Z</time>
      </trkpt>
      <trkpt lat="40.370262" lon="-3.32033">
        <ele>825.8</ele>
        <time>1970-01-01T00:21:00.000Z</time>
      </trkpt>
      <trkpt lat="40.370226" lon="-3.32036">
        <ele>825.6</ele>
        <time>1970-01-01T00:21:01.000Z</time>
      </trkpt>
      <trkpt lat="40.370189" lon="-3.320391">
        <ele>825.4</ele>
        <time>1970-01-01T00:21:02.000Z</time>
      </trkpt>
      <trkpt lat="40.370149" lon="-3.320425">
        <ele>825.2</ele>
        <time>1970-01-01T00:21:03.000Z</time>
      </trkpt>
      <trkpt lat="40.370105" lon="-3.320458">
        <ele>824.8</ele>
        <time>1970-01-01T00:21:04.000Z</time>
      </trkpt>
      <trkpt lat="40.370058" lon="-3.320483">
        <ele>824.8</ele>
        <time>1970-01-01T00:21:05.000Z</time>
      </trkpt>
      <trkpt lat="40.370009" lon="-3.320505">
        <ele>824.6</ele>
        <time>1970-01-01T00:21:06.000Z</time>
      </trkpt>
      <trkpt lat="40.369961" lon="-3.320517">
        <ele>824.6</ele>
        <time>1970-01-01T00:21:07.000Z</time>
      </trkpt>
      <trkpt lat="40.369914" lon="-3.320525">
        <ele>824.4</ele>
        <time>1970-01-01T00:21:08.000Z</time>
      </trkpt>
      <trkpt lat="40.369867" lon="-3.320539">
        <ele>824.4</ele>
        <time>1970-01-01T00:21:09.000Z</time>
      </trkpt>
      <trkpt lat="40.369826" lon="-3.32055">
        <ele>824.2</ele>
        <time>1970-01-01T00:21:10.000Z</time>
      </trkpt>
      <trkpt lat="40.369788" lon="-3.320558">
        <ele>824</ele>
        <time>1970-01-01T00:21:11.000Z</time>
      </trkpt>
      <trkpt lat="40.369753" lon="-3.320564">
        <ele>824</ele>
        <time>1970-01-01T00:21:12.000Z</time>
      </trkpt>
      <trkpt lat="40.369721" lon="-3.320571">
        <ele>823.8</ele>
        <time>1970-01-01T00:21:13.000Z</time>
      </trkpt>
      <trkpt lat="40.369688" lon="-3.320578">
        <ele>823.8</ele>
        <time>1970-01-01T00:21:14.000Z</time>
      </trkpt>
      <trkpt lat="40.369653" lon="-3.320584">
        <ele>823.6</ele>
        <time>1970-01-01T00:21:15.000Z</time>
      </trkpt>
      <trkpt lat="40.369615" lon="-3.320584">
        <ele>823.6</ele>
        <time>1970-01-01T00:21:16.000Z</time>
      </trkpt>
      <trkpt lat="40.369579" lon="-3.320584">
        <ele>823.6</ele>
        <time>1970-01-01T00:21:17.000Z</time>
      </trkpt>
      <trkpt lat="40.369544" lon="-3.320585">
        <ele>823.6</ele>
        <time>1970-01-01T00:21:18.000Z</time>
      </trkpt>
      <trkpt lat="40.36951" lon="-3.320587">
        <ele>823.6</ele>
        <time>1970-01-01T00:21:19.000Z</time>
      </trkpt>
      <trkpt lat="40.369474" lon="-3.320594">
        <ele>823.6</ele>
        <time>1970-01-01T00:21:20.000Z</time>
      </trkpt>
      <trkpt lat="40.369435" lon="-3.320607">
        <ele>823.6</ele>
        <time>1970-01-01T00:21:21.000Z</time>
      </trkpt>
      <trkpt lat="40.369397" lon="-3.320621">
        <ele>823.6</ele>
        <time>1970-01-01T00:21:22.000Z</time>
      </trkpt>
      <trkpt lat="40.369357" lon="-3.320639">
        <ele>823.6</ele>
        <time>1970-01-01T00:21:23.000Z</time>
      </trkpt>
      <trkpt lat="40.369314" lon="-3.320656">
        <ele>823.6</ele>
        <time>1970-01-01T00:21:24.000Z</time>
      </trkpt>
      <trkpt lat="40.369269" lon="-3.32067">
        <ele>823.6</ele>
        <time>1970-01-01T00:21:25.000Z</time>
      </trkpt>
      <trkpt lat="40.369221" lon="-3.320681">
        <ele>823.6</ele>
        <time>1970-01-01T00:21:26.000Z</time>
      </trkpt>
      <trkpt lat="40.369171" lon="-3.320687">
        <ele>823.4</ele>
        <time>1970-01-01T00:21:27.000Z</time>
      </trkpt>
      <trkpt lat="40.36912" lon="-3.320687">
        <ele>823.2</ele>
        <time>1970-01-01T00:21:28.000Z</time>
      </trkpt>
      <trkpt lat="40.36907" lon="-3.320683">
        <ele>823</ele>
        <time>1970-01-01T00:21:29.000Z</time>
      </trkpt>
      <trkpt lat="40.369019" lon="-3.320678">
        <ele>822.8</ele>
        <time>1970-01-01T00:21:30.000Z</time>
      </trkpt>
      <trkpt lat="40.368968" lon="-3.320675">
        <ele>822.2</ele>
        <time>1970-01-01T00:21:31.000Z</time>
      </trkpt>
      <trkpt lat="40.368918" lon="-3.320672">
        <ele>821.8</ele>
        <time>1970-01-01T00:21:32.000Z</time>
      </trkpt>
      <trkpt lat="40.368867" lon="-3.320674">
        <ele>821.6</ele>
        <time>1970-01-01T00:21:33.000Z</time>
      </trkpt>
      <trkpt lat="40.368819" lon="-3.320685">
        <ele>821.4</ele>
        <time>1970-01-01T00:21:34.000Z</time>
      </trkpt>
      <trkpt lat="40.368772" lon="-3.320708">
        <ele>821.4</ele>
        <time>1970-01-01T00:21:35.000Z</time>
      </trkpt>
      <trkpt lat="40.368724" lon="-3.320737">
        <ele>821.2</ele>
        <time>1970-01-01T00:21:36.000Z</time>
      </trkpt>
      <trkpt lat="40.368674" lon="-3.320767">
        <ele>821</ele>
        <time>1970-01-01T00:21:37.000Z</time>
      </trkpt>
      <trkpt lat="40.368619" lon="-3.320801">
        <ele>820.8</ele>
        <time>1970-01-01T00:21:38.000Z</time>
      </trkpt>
      <trkpt lat="40.368566" lon="-3.320832">
        <ele>820.8</ele>
        <time>1970-01-01T00:21:39.000Z</time>
      </trkpt>
      <trkpt lat="40.368516" lon="-3.320862">
        <ele>820.4</ele>
        <time>1970-01-01T00:21:40.000Z</time>
      </trkpt>
      <trkpt lat="40.368465" lon="-3.320889">
        <ele>820.2</ele>
        <time>1970-01-01T00:21:41.000Z</time>
      </trkpt>
      <trkpt lat="40.368414" lon="-3.320914">
        <ele>820</ele>
        <time>1970-01-01T00:21:42.000Z</time>
      </trkpt>
      <trkpt lat="40.368363" lon="-3.32094">
        <ele>819.6</ele>
        <time>1970-01-01T00:21:43.000Z</time>
      </trkpt>
      <trkpt lat="40.368315" lon="-3.320965">
        <ele>819.6</ele>
        <time>1970-01-01T00:21:44.000Z</time>
      </trkpt>
      <trkpt lat="40.36827" lon="-3.320989">
        <ele>819</ele>
        <time>1970-01-01T00:21:45.000Z</time>
      </trkpt>
      <trkpt lat="40.368224" lon="-3.32102">
        <ele>818.8</ele>
        <time>1970-01-01T00:21:46.000Z</time>
      </trkpt>
      <trkpt lat="40.368179" lon="-3.321057">
        <ele>818.4</ele>
        <time>1970-01-01T00:21:47.000Z</time>
      </trkpt>
      <trkpt lat="40.368134" lon="-3.321095">
        <ele>818</ele>
        <time>1970-01-01T00:21:48.000Z</time>
      </trkpt>
      <trkpt lat="40.36809" lon="-3.32113">
        <ele>817.8</ele>
        <time>1970-01-01T00:21:49.000Z</time>
      </trkpt>
      <trkpt lat="40.368049" lon="-3.321161">
        <ele>817.2</ele>
        <time>1970-01-01T00:21:50.000Z</time>
      </trkpt>
      <trkpt lat="40.36801" lon="-3.321194">
        <ele>817</ele>
        <time>1970-01-01T00:21:51.000Z</time>
      </trkpt>
      <trkpt lat="40.367971" lon="-3.321228">
        <ele>816.8</ele>
        <time>1970-01-01T00:21:52.000Z</time>
      </trkpt>
      <trkpt lat="40.367928" lon="-3.321265">
        <ele>816.8</ele>
        <time>1970-01-01T00:21:53.000Z</time>
      </trkpt>
      <trkpt lat="40.367882" lon="-3.321304">
        <ele>816.4</ele>
        <time>1970-01-01T00:21:54.000Z</time>
      </trkpt>
      <trkpt lat="40.367836" lon="-3.321344">
        <ele>816.2</ele>
        <time>1970-01-01T00:21:55.000Z</time>
      </trkpt>
      <trkpt lat="40.367789" lon="-3.321384">
        <ele>816.2</ele>
        <time>1970-01-01T00:21:56.000Z</time>
      </trkpt>
      <trkpt lat="40.367741" lon="-3.321425">
        <ele>815.8</ele>
        <time>1970-01-01T00:21:57.000Z</time>
      </trkpt>
      <trkpt lat="40.367689" lon="-3.321464">
        <ele>815.8</ele>
        <time>1970-01-01T00:21:58.000Z</time>
      </trkpt>
      <trkpt lat="40.367638" lon="-3.321504">
        <ele>815.6</ele>
        <time>1970-01-01T00:21:59.000Z</time>
      </trkpt>
      <trkpt lat="40.367588" lon="-3.321541">
        <ele>815.4</ele>
        <time>1970-01-01T00:22:00.000Z</time>
      </trkpt>
      <trkpt lat="40.367538" lon="-3.321577">
        <ele>815</ele>
        <time>1970-01-01T00:22:01.000Z</time>
      </trkpt>
      <trkpt lat="40.367486" lon="-3.321616">
        <ele>814.4</ele>
        <time>1970-01-01T00:22:02.000Z</time>
      </trkpt>
      <trkpt lat="40.367436" lon="-3.321654">
        <ele>814.2</ele>
        <time>1970-01-01T00:22:03.000Z</time>
      </trkpt>
      <trkpt lat="40.367388" lon="-3.321693">
        <ele>814</ele>
        <time>1970-01-01T00:22:04.000Z</time>
      </trkpt>
      <trkpt lat="40.367341" lon="-3.321735">
        <ele>813.8</ele>
        <time>1970-01-01T00:22:05.000Z</time>
      </trkpt>
      <trkpt lat="40.367294" lon="-3.321776">
        <ele>813.4</ele>
        <time>1970-01-01T00:22:06.000Z</time>
      </trkpt>
      <trkpt lat="40.367246" lon="-3.321817">
        <ele>813.2</ele>
        <time>1970-01-01T00:22:07.000Z</time>
      </trkpt>
      <trkpt lat="40.367202" lon="-3.321858">
        <ele>813</ele>
        <time>1970-01-01T00:22:08.000Z</time>
      </trkpt>
      <trkpt lat="40.367154" lon="-3.321905">
        <ele>812.6</ele>
        <time>1970-01-01T00:22:09.000Z</time>
      </trkpt>
      <trkpt lat="40.36711" lon="-3.321953">
        <ele>812.2</ele>
        <time>1970-01-01T00:22:10.000Z</time>
      </trkpt>
      <trkpt lat="40.367065" lon="-3.322001">
        <ele>811.8</ele>
        <time>1970-01-01T00:22:11.000Z</time>
      </trkpt>
      <trkpt lat="40.367015" lon="-3.32205">
        <ele>811.6</ele>
        <time>1970-01-01T00:22:12.000Z</time>
      </trkpt>
      <trkpt lat="40.366962" lon="-3.322097">
        <ele>811.4</ele>
        <time>1970-01-01T00:22:13.000Z</time>
      </trkpt>
      <trkpt lat="40.366904" lon="-3.322135">
        <ele>811.4</ele>
        <time>1970-01-01T00:22:14.000Z</time>
      </trkpt>
      <trkpt lat="40.366843" lon="-3.32216">
        <ele>810.8</ele>
        <time>1970-01-01T00:22:15.000Z</time>
      </trkpt>
      <trkpt lat="40.366781" lon="-3.322174">
        <ele>810.2</ele>
        <time>1970-01-01T00:22:16.000Z</time>
      </trkpt>
      <trkpt lat="40.36672" lon="-3.322181">
        <ele>809.8</ele>
        <time>1970-01-01T00:22:17.000Z</time>
      </trkpt>
      <trkpt lat="40.366664" lon="-3.322179">
        <ele>809.4</ele>
        <time>1970-01-01T00:22:18.000Z</time>
      </trkpt>
      <trkpt lat="40.366611" lon="-3.322173">
        <ele>809.2</ele>
        <time>1970-01-01T00:22:19.000Z</time>
      </trkpt>
      <trkpt lat="40.36656" lon="-3.322172">
        <ele>808.8</ele>
        <time>1970-01-01T00:22:20.000Z</time>
      </trkpt>
      <trkpt lat="40.366514" lon="-3.322178">
        <ele>808.8</ele>
        <time>1970-01-01T00:22:21.000Z</time>
      </trkpt>
      <trkpt lat="40.366466" lon="-3.322185">
        <ele>808.6</ele>
        <time>1970-01-01T00:22:22.000Z</time>
      </trkpt>
      <trkpt lat="40.366417" lon="-3.322189">
        <ele>808.4</ele>
        <time>1970-01-01T00:22:23.000Z</time>
      </trkpt>
      <trkpt lat="40.366367" lon="-3.322191">
        <ele>808.4</ele>
        <time>1970-01-01T00:22:24.000Z</time>
      </trkpt>
      <trkpt lat="40.366319" lon="-3.322187">
        <ele>808.4</ele>
        <time>1970-01-01T00:22:25.000Z</time>
      </trkpt>
      <trkpt lat="40.366274" lon="-3.322178">
        <ele>808.6</ele>
        <time>1970-01-01T00:22:26.000Z</time>
      </trkpt>
      <trkpt lat="40.366234" lon="-3.322171">
        <ele>808.8</ele>
        <time>1970-01-01T00:22:27.000Z</time>
      </trkpt>
      <trkpt lat="40.366199" lon="-3.322161">
        <ele>809</ele>
        <time>1970-01-01T00:22:28.000Z</time>
      </trkpt>
      <trkpt lat="40.366167" lon="-3.322151">
        <ele>809.2</ele>
        <time>1970-01-01T00:22:29.000Z</time>
      </trkpt>
      <trkpt lat="40.366135" lon="-3.322143">
        <ele>809.4</ele>
        <time>1970-01-01T00:22:30.000Z</time>
      </trkpt>
      <trkpt lat="40.366103" lon="-3.322139">
        <ele>809.4</ele>
        <time>1970-01-01T00:22:31.000Z</time>
      </trkpt>
      <trkpt lat="40.366071" lon="-3.322146">
        <ele>809.4</ele>
        <time>1970-01-01T00:22:32.000Z</time>
      </trkpt>
      <trkpt lat="40.366039" lon="-3.322157">
        <ele>809.4</ele>
        <time>1970-01-01T00:22:33.000Z</time>
      </trkpt>
      <trkpt lat="40.366007" lon="-3.322168">
        <ele>809.6</ele>
        <time>1970-01-01T00:22:34.000Z</time>
      </trkpt>
      <trkpt lat="40.365974" lon="-3.322177">
        <ele>809.6</ele>
        <time>1970-01-01T00:22:35.000Z</time>
      </trkpt>
      <trkpt lat="40.365943" lon="-3.322183">
        <ele>809.6</ele>
        <time>1970-01-01T00:22:36.000Z</time>
      </trkpt>
      <trkpt lat="40.365913" lon="-3.322183">
        <ele>809.6</ele>
        <time>1970-01-01T00:22:37.000Z</time>
      </trkpt>
      <trkpt lat="40.365884" lon="-3.322185">
        <ele>809.6</ele>
        <time>1970-01-01T00:22:38.000Z</time>
      </trkpt>
      <trkpt lat="40.365854" lon="-3.322192">
        <ele>809.6</ele>
        <time>1970-01-01T00:22:39.000Z</time>
      </trkpt>
      <trkpt lat="40.365819" lon="-3.322197">
        <ele>809.6</ele>
        <time>1970-01-01T00:22:40.000Z</time>
      </trkpt>
      <trkpt lat="40.365782" lon="-3.322203">
        <ele>809.4</ele>
        <time>1970-01-01T00:22:41.000Z</time>
      </trkpt>
      <trkpt lat="40.36575" lon="-3.322205">
        <ele>809.4</ele>
        <time>1970-01-01T00:22:42.000Z</time>
      </trkpt>
      <trkpt lat="40.365731" lon="-3.322185">
        <ele>809.2</ele>
        <time>1970-01-01T00:22:43.000Z</time>
      </trkpt>
      <trkpt lat="40.365716" lon="-3.322145">
        <ele>809.2</ele>
        <time>1970-01-01T00:22:44.000Z</time>
      </trkpt>
      <trkpt lat="40.365706" lon="-3.3221">
        <ele>809</ele>
        <time>1970-01-01T00:22:45.000Z</time>
      </trkpt>
      <trkpt lat="40.365699" lon="-3.322053">
        <ele>808.8</ele>
        <time>1970-01-01T00:22:46.000Z</time>
      </trkpt>
      <trkpt lat="40.365694" lon="-3.322009">
        <ele>808.6</ele>
        <time>1970-01-01T00:22:47.000Z</time>
      </trkpt>
      <trkpt lat="40.365687" lon="-3.321965">
        <ele>808.2</ele>
        <time>1970-01-01T00:22:48.000Z</time>
      </trkpt>
      <trkpt lat="40.365682" lon="-3.321922">
        <ele>808</ele>
        <time>1970-01-01T00:22:49.000Z</time>
      </trkpt>
      <trkpt lat="40.365676" lon="-3.321886">
        <ele>807.8</ele>
        <time>1970-01-01T00:22:50.000Z</time>
      </trkpt>
      <trkpt lat="40.36567" lon="-3.321861">
        <ele>807.6</ele>
        <time>1970-01-01T00:22:51.000Z</time>
      </trkpt>
      <trkpt lat="40.365663" lon="-3.321837">
        <ele>807.6</ele>
        <time>1970-01-01T00:22:52.000Z</time>
      </trkpt>
      <trkpt lat="40.365658" lon="-3.321809">
        <ele>807.6</ele>
        <time>1970-01-01T00:22:53.000Z</time>
      </trkpt>
      <trkpt lat="40.36565" lon="-3.321777">
        <ele>807.4</ele>
        <time>1970-01-01T00:22:54.000Z</time>
      </trkpt>
      <trkpt lat="40.365641" lon="-3.32174">
        <ele>807.2</ele>
        <time>1970-01-01T00:22:55.000Z</time>
      </trkpt>
      <trkpt lat="40.36563" lon="-3.321697">
        <ele>807.2</ele>
        <time>1970-01-01T00:22:56.000Z</time>
      </trkpt>
      <trkpt lat="40.36562" lon="-3.321648">
        <ele>806.8</ele>
        <time>1970-01-01T00:22:57.000Z</time>
      </trkpt>
      <trkpt lat="40.365605" lon="-3.321597">
        <ele>806.6</ele>
        <time>1970-01-01T00:22:58.000Z</time>
      </trkpt>
      <trkpt lat="40.365578" lon="-3.32155">
        <ele>806.4</ele>
        <time>1970-01-01T00:22:59.000Z</time>
      </trkpt>
      <trkpt lat="40.365546" lon="-3.321501">
        <ele>806.4</ele>
        <time>1970-01-01T00:23:00.000Z</time>
      </trkpt>
      <trkpt lat="40.365511" lon="-3.321447">
        <ele>806.2</ele>
        <time>1970-01-01T00:23:01.000Z</time>
      </trkpt>
      <trkpt lat="40.365485" lon="-3.321387">
        <ele>806</ele>
        <time>1970-01-01T00:23:02.000Z</time>
      </trkpt>
      <trkpt lat="40.365465" lon="-3.321331">
        <ele>805.4</ele>
        <time>1970-01-01T00:23:03.000Z</time>
      </trkpt>
      <trkpt lat="40.365454" lon="-3.321282">
        <ele>804.8</ele>
        <time>1970-01-01T00:23:04.000Z</time>
      </trkpt>
      <trkpt lat="40.365446" lon="-3.321251">
        <ele>804.2</ele>
        <time>1970-01-01T00:23:05.000Z</time>
      </trkpt>
      <trkpt lat="40.365443" lon="-3.321241">
        <ele>804.2</ele>
        <time>1970-01-01T00:23:06.000Z</time>
      </trkpt>
      <trkpt lat="40.365442" lon="-3.321239">
        <ele>803.8</ele>
        <time>1970-01-01T00:23:07.000Z</time>
      </trkpt>
      <trkpt lat="40.365441" lon="-3.321231">
        <ele>803.6</ele>
        <time>1970-01-01T00:23:08.000Z</time>
      </trkpt>
      <trkpt lat="40.365439" lon="-3.321224">
        <ele>803.6</ele>
        <time>1970-01-01T00:23:09.000Z</time>
      </trkpt>
      <trkpt lat="40.365439" lon="-3.321219">
        <ele>803.4</ele>
        <time>1970-01-01T00:23:10.000Z</time>
      </trkpt>
      <trkpt lat="40.365439" lon="-3.321219">
        <ele>803.4</ele>
        <time>1970-01-01T00:23:11.000Z</time>
      </trkpt>
      <trkpt lat="40.365437" lon="-3.321218">
        <ele>803.4</ele>
        <time>1970-01-01T00:23:12.000Z</time>
      </trkpt>
      <trkpt lat="40.365433" lon="-3.321214">
        <ele>803.4</ele>
        <time>1970-01-01T00:23:13.000Z</time>
      </trkpt>
      <trkpt lat="40.365423" lon="-3.321215">
        <ele>803.4</ele>
        <time>1970-01-01T00:23:14.000Z</time>
      </trkpt>
      <trkpt lat="40.365406" lon="-3.32122">
        <ele>803.4</ele>
        <time>1970-01-01T00:23:15.000Z</time>
      </trkpt>
      <trkpt lat="40.365381" lon="-3.321224">
        <ele>803.2</ele>
        <time>1970-01-01T00:23:16.000Z</time>
      </trkpt>
      <trkpt lat="40.36535" lon="-3.321235">
        <ele>803.2</ele>
        <time>1970-01-01T00:23:17.000Z</time>
      </trkpt>
      <trkpt lat="40.36532" lon="-3.321251">
        <ele>803.2</ele>
        <time>1970-01-01T00:23:18.000Z</time>
      </trkpt>
      <trkpt lat="40.36529" lon="-3.321276">
        <ele>803.2</ele>
        <time>1970-01-01T00:23:19.000Z</time>
      </trkpt>
      <trkpt lat="40.365261" lon="-3.321311">
        <ele>803.2</ele>
        <time>1970-01-01T00:23:20.000Z</time>
      </trkpt>
      <trkpt lat="40.365242" lon="-3.321357">
        <ele>803.2</ele>
        <time>1970-01-01T00:23:21.000Z</time>
      </trkpt>
      <trkpt lat="40.365231" lon="-3.321406">
        <ele>803</ele>
        <time>1970-01-01T00:23:22.000Z</time>
      </trkpt>
      <trkpt lat="40.365226" lon="-3.321452">
        <ele>803</ele>
        <time>1970-01-01T00:23:23.000Z</time>
      </trkpt>
      <trkpt lat="40.365216" lon="-3.321494">
        <ele>802.8</ele>
        <time>1970-01-01T00:23:24.000Z</time>
      </trkpt>
      <trkpt lat="40.365201" lon="-3.321533">
        <ele>802.6</ele>
        <time>1970-01-01T00:23:25.000Z</time>
      </trkpt>
      <trkpt lat="40.365182" lon="-3.321566">
        <ele>802.6</ele>
        <time>1970-01-01T00:23:26.000Z</time>
      </trkpt>
      <trkpt lat="40.365164" lon="-3.321598">
        <ele>802.6</ele>
        <time>1970-01-01T00:23:27.000Z</time>
      </trkpt>
      <trkpt lat="40.365147" lon="-3.321628">
        <ele>802.4</ele>
        <time>1970-01-01T00:23:28.000Z</time>
      </trkpt>
      <trkpt lat="40.365129" lon="-3.321654">
        <ele>802.4</ele>
        <time>1970-01-01T00:23:29.000Z</time>
      </trkpt>
      <trkpt lat="40.365106" lon="-3.321682">
        <ele>802.4</ele>
        <time>1970-01-01T00:23:30.000Z</time>
      </trkpt>
      <trkpt lat="40.365084" lon="-3.321711">
        <ele>802.4</ele>
        <time>1970-01-01T00:23:31.000Z</time>
      </trkpt>
      <trkpt lat="40.365064" lon="-3.32174">
        <ele>802.4</ele>
        <time>1970-01-01T00:23:32.000Z</time>
      </trkpt>
      <trkpt lat="40.365044" lon="-3.321764">
        <ele>802.4</ele>
        <time>1970-01-01T00:23:33.000Z</time>
      </trkpt>
      <trkpt lat="40.365022" lon="-3.321788">
        <ele>802.2</ele>
        <time>1970-01-01T00:23:34.000Z</time>
      </trkpt>
      <trkpt lat="40.365004" lon="-3.321811">
        <ele>802.4</ele>
        <time>1970-01-01T00:23:35.000Z</time>
      </trkpt>
      <trkpt lat="40.364989" lon="-3.32183">
        <ele>802.4</ele>
        <time>1970-01-01T00:23:36.000Z</time>
      </trkpt>
      <trkpt lat="40.364976" lon="-3.321845">
        <ele>802.4</ele>
        <time>1970-01-01T00:23:37.000Z</time>
      </trkpt>
      <trkpt lat="40.364961" lon="-3.321861">
        <ele>802.4</ele>
        <time>1970-01-01T00:23:38.000Z</time>
      </trkpt>
      <trkpt lat="40.364953" lon="-3.321872">
        <ele>802.6</ele>
        <time>1970-01-01T00:23:39.000Z</time>
      </trkpt>
      <trkpt lat="40.36495" lon="-3.321876">
        <ele>802.4</ele>
        <time>1970-01-01T00:23:40.000Z</time>
      </trkpt>
      <trkpt lat="40.36495" lon="-3.321876">
        <ele>802.2</ele>
        <time>1970-01-01T00:23:41.000Z</time>
      </trkpt>
      <trkpt lat="40.36495" lon="-3.321876">
        <ele>802.2</ele>
        <time>1970-01-01T00:23:42.000Z</time>
      </trkpt>
      <trkpt lat="40.364982" lon="-3.321836">
        <ele>805.4</ele>
        <time>1970-01-01T00:30:39.000Z</time>
      </trkpt>
      <trkpt lat="40.364998" lon="-3.321817">
        <ele>801.8</ele>
        <time>1970-01-01T00:30:40.000Z</time>
      </trkpt>
      <trkpt lat="40.365009" lon="-3.321798">
        <ele>801.8</ele>
        <time>1970-01-01T00:30:41.000Z</time>
      </trkpt>
      <trkpt lat="40.36502" lon="-3.321776">
        <ele>801.8</ele>
        <time>1970-01-01T00:30:42.000Z</time>
      </trkpt>
      <trkpt lat="40.365034" lon="-3.321753">
        <ele>801.8</ele>
        <time>1970-01-01T00:30:43.000Z</time>
      </trkpt>
      <trkpt lat="40.365047" lon="-3.32173">
        <ele>801.8</ele>
        <time>1970-01-01T00:30:44.000Z</time>
      </trkpt>
      <trkpt lat="40.365066" lon="-3.321706">
        <ele>801.8</ele>
        <time>1970-01-01T00:30:45.000Z</time>
      </trkpt>
      <trkpt lat="40.365081" lon="-3.321686">
        <ele>802</ele>
        <time>1970-01-01T00:30:46.000Z</time>
      </trkpt>
      <trkpt lat="40.365097" lon="-3.321671">
        <ele>802</ele>
        <time>1970-01-01T00:30:47.000Z</time>
      </trkpt>
      <trkpt lat="40.365112" lon="-3.321656">
        <ele>802</ele>
        <time>1970-01-01T00:30:48.000Z</time>
      </trkpt>
      <trkpt lat="40.365122" lon="-3.321638">
        <ele>802</ele>
        <time>1970-01-01T00:30:49.000Z</time>
      </trkpt>
      <trkpt lat="40.365133" lon="-3.321616">
        <ele>802</ele>
        <time>1970-01-01T00:30:50.000Z</time>
      </trkpt>
      <trkpt lat="40.365147" lon="-3.321598">
        <ele>802.2</ele>
        <time>1970-01-01T00:30:51.000Z</time>
      </trkpt>
      <trkpt lat="40.365161" lon="-3.321582">
        <ele>802.2</ele>
        <time>1970-01-01T00:30:52.000Z</time>
      </trkpt>
      <trkpt lat="40.365176" lon="-3.321563">
        <ele>802.2</ele>
        <time>1970-01-01T00:30:53.000Z</time>
      </trkpt>
      <trkpt lat="40.365194" lon="-3.321534">
        <ele>802.2</ele>
        <time>1970-01-01T00:30:54.000Z</time>
      </trkpt>
      <trkpt lat="40.365208" lon="-3.3215">
        <ele>802.2</ele>
        <time>1970-01-01T00:30:55.000Z</time>
      </trkpt>
      <trkpt lat="40.365211" lon="-3.321465">
        <ele>802.2</ele>
        <time>1970-01-01T00:30:56.000Z</time>
      </trkpt>
      <trkpt lat="40.365201" lon="-3.321439">
        <ele>802.2</ele>
        <time>1970-01-01T00:30:57.000Z</time>
      </trkpt>
      <trkpt lat="40.365177" lon="-3.321418">
        <ele>802.2</ele>
        <time>1970-01-01T00:30:58.000Z</time>
      </trkpt>
      <trkpt lat="40.365148" lon="-3.321401">
        <ele>802.2</ele>
        <time>1970-01-01T00:30:59.000Z</time>
      </trkpt>
      <trkpt lat="40.365114" lon="-3.32139">
        <ele>802.2</ele>
        <time>1970-01-01T00:31:00.000Z</time>
      </trkpt>
      <trkpt lat="40.365079" lon="-3.32138">
        <ele>802.2</ele>
        <time>1970-01-01T00:31:01.000Z</time>
      </trkpt>
      <trkpt lat="40.365043" lon="-3.321373">
        <ele>802.2</ele>
        <time>1970-01-01T00:31:02.000Z</time>
      </trkpt>
      <trkpt lat="40.365002" lon="-3.321363">
        <ele>802.2</ele>
        <time>1970-01-01T00:31:03.000Z</time>
      </trkpt>
      <trkpt lat="40.364974" lon="-3.32136">
        <ele>802.2</ele>
        <time>1970-01-01T00:31:04.000Z</time>
      </trkpt>
      <trkpt lat="40.364939" lon="-3.321362">
        <ele>802.2</ele>
        <time>1970-01-01T00:31:05.000Z</time>
      </trkpt>
      <trkpt lat="40.364899" lon="-3.321365">
        <ele>802.2</ele>
        <time>1970-01-01T00:31:06.000Z</time>
      </trkpt>
      <trkpt lat="40.364861" lon="-3.321371">
        <ele>802.2</ele>
        <time>1970-01-01T00:31:07.000Z</time>
      </trkpt>
      <trkpt lat="40.364821" lon="-3.321376">
        <ele>802.2</ele>
        <time>1970-01-01T00:31:08.000Z</time>
      </trkpt>
      <trkpt lat="40.364782" lon="-3.321381">
        <ele>802.2</ele>
        <time>1970-01-01T00:31:09.000Z</time>
      </trkpt>
      <trkpt lat="40.364742" lon="-3.321381">
        <ele>802.2</ele>
        <time>1970-01-01T00:31:10.000Z</time>
      </trkpt>
      <trkpt lat="40.364705" lon="-3.321376">
        <ele>802.4</ele>
        <time>1970-01-01T00:31:11.000Z</time>
      </trkpt>
      <trkpt lat="40.364671" lon="-3.321368">
        <ele>802.4</ele>
        <time>1970-01-01T00:31:12.000Z</time>
      </trkpt>
      <trkpt lat="40.364637" lon="-3.321356">
        <ele>802.4</ele>
        <time>1970-01-01T00:31:13.000Z</time>
      </trkpt>
      <trkpt lat="40.364602" lon="-3.321347">
        <ele>802.4</ele>
        <time>1970-01-01T00:31:14.000Z</time>
      </trkpt>
      <trkpt lat="40.364567" lon="-3.321339">
        <ele>802.4</ele>
        <time>1970-01-01T00:31:15.000Z</time>
      </trkpt>
      <trkpt lat="40.364529" lon="-3.321331">
        <ele>802.4</ele>
        <time>1970-01-01T00:31:16.000Z</time>
      </trkpt>
      <trkpt lat="40.364493" lon="-3.321324">
        <ele>802.4</ele>
        <time>1970-01-01T00:31:17.000Z</time>
      </trkpt>
      <trkpt lat="40.364458" lon="-3.321318">
        <ele>802.4</ele>
        <time>1970-01-01T00:31:18.000Z</time>
      </trkpt>
      <trkpt lat="40.364422" lon="-3.321311">
        <ele>802.4</ele>
        <time>1970-01-01T00:31:19.000Z</time>
      </trkpt>
      <trkpt lat="40.364387" lon="-3.321311">
        <ele>802.4</ele>
        <time>1970-01-01T00:31:20.000Z</time>
      </trkpt>
      <trkpt lat="40.364354" lon="-3.321315">
        <ele>802.6</ele>
        <time>1970-01-01T00:31:21.000Z</time>
      </trkpt>
      <trkpt lat="40.364325" lon="-3.321319">
        <ele>802.6</ele>
        <time>1970-01-01T00:31:22.000Z</time>
      </trkpt>
      <trkpt lat="40.364296" lon="-3.321318">
        <ele>802.6</ele>
        <time>1970-01-01T00:31:23.000Z</time>
      </trkpt>
      <trkpt lat="40.364261" lon="-3.321318">
        <ele>802.8</ele>
        <time>1970-01-01T00:31:24.000Z</time>
      </trkpt>
      <trkpt lat="40.364224" lon="-3.321318">
        <ele>802.8</ele>
        <time>1970-01-01T00:31:25.000Z</time>
      </trkpt>
      <trkpt lat="40.364187" lon="-3.321317">
        <ele>803</ele>
        <time>1970-01-01T00:31:26.000Z</time>
      </trkpt>
      <trkpt lat="40.364148" lon="-3.321314">
        <ele>803.2</ele>
        <time>1970-01-01T00:31:27.000Z</time>
      </trkpt>
      <trkpt lat="40.364109" lon="-3.321311">
        <ele>803.4</ele>
        <time>1970-01-01T00:31:28.000Z</time>
      </trkpt>
      <trkpt lat="40.364072" lon="-3.321308">
        <ele>803.6</ele>
        <time>1970-01-01T00:31:29.000Z</time>
      </trkpt>
      <trkpt lat="40.364035" lon="-3.321305">
        <ele>803.6</ele>
        <time>1970-01-01T00:31:30.000Z</time>
      </trkpt>
      <trkpt lat="40.363998" lon="-3.321305">
        <ele>803.8</ele>
        <time>1970-01-01T00:31:31.000Z</time>
      </trkpt>
      <trkpt lat="40.363962" lon="-3.32131">
        <ele>803.8</ele>
        <time>1970-01-01T00:31:32.000Z</time>
      </trkpt>
      <trkpt lat="40.363925" lon="-3.321315">
        <ele>804</ele>
        <time>1970-01-01T00:31:33.000Z</time>
      </trkpt>
      <trkpt lat="40.36389" lon="-3.321322">
        <ele>804</ele>
        <time>1970-01-01T00:31:34.000Z</time>
      </trkpt>
      <trkpt lat="40.363855" lon="-3.321332">
        <ele>804</ele>
        <time>1970-01-01T00:31:35.000Z</time>
      </trkpt>
      <trkpt lat="40.36382" lon="-3.321343">
        <ele>804.2</ele>
        <time>1970-01-01T00:31:36.000Z</time>
      </trkpt>
      <trkpt lat="40.363787" lon="-3.321353">
        <ele>804.2</ele>
        <time>1970-01-01T00:31:37.000Z</time>
      </trkpt>
      <trkpt lat="40.363754" lon="-3.321364">
        <ele>804.4</ele>
        <time>1970-01-01T00:31:38.000Z</time>
      </trkpt>
      <trkpt lat="40.363721" lon="-3.321374">
        <ele>804.4</ele>
        <time>1970-01-01T00:31:39.000Z</time>
      </trkpt>
      <trkpt lat="40.363689" lon="-3.321385">
        <ele>804.8</ele>
        <time>1970-01-01T00:31:40.000Z</time>
      </trkpt>
      <trkpt lat="40.363653" lon="-3.321399">
        <ele>805</ele>
        <time>1970-01-01T00:31:41.000Z</time>
      </trkpt>
      <trkpt lat="40.363619" lon="-3.321414">
        <ele>805.2</ele>
        <time>1970-01-01T00:31:42.000Z</time>
      </trkpt>
      <trkpt lat="40.363586" lon="-3.321428">
        <ele>805.6</ele>
        <time>1970-01-01T00:31:43.000Z</time>
      </trkpt>
      <trkpt lat="40.363553" lon="-3.32144">
        <ele>805.6</ele>
        <time>1970-01-01T00:31:44.000Z</time>
      </trkpt>
      <trkpt lat="40.363519" lon="-3.321452">
        <ele>806</ele>
        <time>1970-01-01T00:31:45.000Z</time>
      </trkpt>
      <trkpt lat="40.363481" lon="-3.321468">
        <ele>806.2</ele>
        <time>1970-01-01T00:31:46.000Z</time>
      </trkpt>
      <trkpt lat="40.363445" lon="-3.321485">
        <ele>806.4</ele>
        <time>1970-01-01T00:31:47.000Z</time>
      </trkpt>
      <trkpt lat="40.363408" lon="-3.321502">
        <ele>806.6</ele>
        <time>1970-01-01T00:31:48.000Z</time>
      </trkpt>
      <trkpt lat="40.363373" lon="-3.32152">
        <ele>806.8</ele>
        <time>1970-01-01T00:31:49.000Z</time>
      </trkpt>
      <trkpt lat="40.363337" lon="-3.321535">
        <ele>807</ele>
        <time>1970-01-01T00:31:50.000Z</time>
      </trkpt>
      <trkpt lat="40.363302" lon="-3.321549">
        <ele>807</ele>
        <time>1970-01-01T00:31:51.000Z</time>
      </trkpt>
      <trkpt lat="40.363266" lon="-3.321565">
        <ele>807.2</ele>
        <time>1970-01-01T00:31:52.000Z</time>
      </trkpt>
      <trkpt lat="40.363231" lon="-3.321579">
        <ele>807.2</ele>
        <time>1970-01-01T00:31:53.000Z</time>
      </trkpt>
      <trkpt lat="40.363196" lon="-3.321596">
        <ele>807.4</ele>
        <time>1970-01-01T00:31:54.000Z</time>
      </trkpt>
      <trkpt lat="40.363159" lon="-3.32161">
        <ele>807.4</ele>
        <time>1970-01-01T00:31:55.000Z</time>
      </trkpt>
      <trkpt lat="40.363124" lon="-3.321624">
        <ele>807.6</ele>
        <time>1970-01-01T00:31:56.000Z</time>
      </trkpt>
      <trkpt lat="40.363087" lon="-3.321641">
        <ele>808</ele>
        <time>1970-01-01T00:31:57.000Z</time>
      </trkpt>
      <trkpt lat="40.363052" lon="-3.321655">
        <ele>808.2</ele>
        <time>1970-01-01T00:31:58.000Z</time>
      </trkpt>
      <trkpt lat="40.363015" lon="-3.32167">
        <ele>808.4</ele>
        <time>1970-01-01T00:31:59.000Z</time>
      </trkpt>
      <trkpt lat="40.362978" lon="-3.321685">
        <ele>808.6</ele>
        <time>1970-01-01T00:32:00.000Z</time>
      </trkpt>
      <trkpt lat="40.362942" lon="-3.3217">
        <ele>808.8</ele>
        <time>1970-01-01T00:32:01.000Z</time>
      </trkpt>
      <trkpt lat="40.362906" lon="-3.321715">
        <ele>809</ele>
        <time>1970-01-01T00:32:02.000Z</time>
      </trkpt>
      <trkpt lat="40.362869" lon="-3.32173">
        <ele>809.2</ele>
        <time>1970-01-01T00:32:03.000Z</time>
      </trkpt>
      <trkpt lat="40.362832" lon="-3.321745">
        <ele>809.6</ele>
        <time>1970-01-01T00:32:04.000Z</time>
      </trkpt>
      <trkpt lat="40.362794" lon="-3.321756">
        <ele>809.6</ele>
        <time>1970-01-01T00:32:05.000Z</time>
      </trkpt>
      <trkpt lat="40.362755" lon="-3.321772">
        <ele>810</ele>
        <time>1970-01-01T00:32:06.000Z</time>
      </trkpt>
      <trkpt lat="40.362717" lon="-3.321787">
        <ele>810.2</ele>
        <time>1970-01-01T00:32:07.000Z</time>
      </trkpt>
      <trkpt lat="40.36268" lon="-3.321801">
        <ele>810.4</ele>
        <time>1970-01-01T00:32:08.000Z</time>
      </trkpt>
      <trkpt lat="40.362637" lon="-3.321816">
        <ele>810.4</ele>
        <time>1970-01-01T00:32:09.000Z</time>
      </trkpt>
      <trkpt lat="40.362612" lon="-3.321829">
        <ele>810.8</ele>
        <time>1970-01-01T00:32:10.000Z</time>
      </trkpt>
      <trkpt lat="40.362587" lon="-3.321852">
        <ele>811</ele>
        <time>1970-01-01T00:32:11.000Z</time>
      </trkpt>
      <trkpt lat="40.362567" lon="-3.32188">
        <ele>811.2</ele>
        <time>1970-01-01T00:32:12.000Z</time>
      </trkpt>
      <trkpt lat="40.362555" lon="-3.321914">
        <ele>812</ele>
        <time>1970-01-01T00:32:13.000Z</time>
      </trkpt>
      <trkpt lat="40.362557" lon="-3.321951">
        <ele>812.2</ele>
        <time>1970-01-01T00:32:14.000Z</time>
      </trkpt>
      <trkpt lat="40.362568" lon="-3.321988">
        <ele>812.2</ele>
        <time>1970-01-01T00:32:15.000Z</time>
      </trkpt>
      <trkpt lat="40.362579" lon="-3.322026">
        <ele>812.4</ele>
        <time>1970-01-01T00:32:16.000Z</time>
      </trkpt>
      <trkpt lat="40.362591" lon="-3.322067">
        <ele>812.6</ele>
        <time>1970-01-01T00:32:17.000Z</time>
      </trkpt>
      <trkpt lat="40.362601" lon="-3.322108">
        <ele>812.6</ele>
        <time>1970-01-01T00:32:18.000Z</time>
      </trkpt>
      <trkpt lat="40.362611" lon="-3.32215">
        <ele>812.8</ele>
        <time>1970-01-01T00:32:19.000Z</time>
      </trkpt>
      <trkpt lat="40.362619" lon="-3.322194">
        <ele>812.8</ele>
        <time>1970-01-01T00:32:20.000Z</time>
      </trkpt>
      <trkpt lat="40.362625" lon="-3.32224">
        <ele>813</ele>
        <time>1970-01-01T00:32:21.000Z</time>
      </trkpt>
      <trkpt lat="40.362631" lon="-3.322285">
        <ele>813</ele>
        <time>1970-01-01T00:32:22.000Z</time>
      </trkpt>
      <trkpt lat="40.362636" lon="-3.322332">
        <ele>813.2</ele>
        <time>1970-01-01T00:32:23.000Z</time>
      </trkpt>
      <trkpt lat="40.36264" lon="-3.322383">
        <ele>813.2</ele>
        <time>1970-01-01T00:32:24.000Z</time>
      </trkpt>
      <trkpt lat="40.362636" lon="-3.322437">
        <ele>813.4</ele>
        <time>1970-01-01T00:32:25.000Z</time>
      </trkpt>
      <trkpt lat="40.362621" lon="-3.322487">
        <ele>813.6</ele>
        <time>1970-01-01T00:32:26.000Z</time>
      </trkpt>
      <trkpt lat="40.362597" lon="-3.322531">
        <ele>813.8</ele>
        <time>1970-01-01T00:32:27.000Z</time>
      </trkpt>
      <trkpt lat="40.362566" lon="-3.322567">
        <ele>813.8</ele>
        <time>1970-01-01T00:32:28.000Z</time>
      </trkpt>
      <trkpt lat="40.36253" lon="-3.322598">
        <ele>813.8</ele>
        <time>1970-01-01T00:32:29.000Z</time>
      </trkpt>
      <trkpt lat="40.362494" lon="-3.322628">
        <ele>813.6</ele>
        <time>1970-01-01T00:32:30.000Z</time>
      </trkpt>
      <trkpt lat="40.362463" lon="-3.322666">
        <ele>813.4</ele>
        <time>1970-01-01T00:32:31.000Z</time>
      </trkpt>
      <trkpt lat="40.362445" lon="-3.322717">
        <ele>813.4</ele>
        <time>1970-01-01T00:32:32.000Z</time>
      </trkpt>
      <trkpt lat="40.362433" lon="-3.322778">
        <ele>813.2</ele>
        <time>1970-01-01T00:32:33.000Z</time>
      </trkpt>
      <trkpt lat="40.362416" lon="-3.32284">
        <ele>813.2</ele>
        <time>1970-01-01T00:32:34.000Z</time>
      </trkpt>
      <trkpt lat="40.362391" lon="-3.322896">
        <ele>813</ele>
        <time>1970-01-01T00:32:35.000Z</time>
      </trkpt>
      <trkpt lat="40.362359" lon="-3.322944">
        <ele>813</ele>
        <time>1970-01-01T00:32:36.000Z</time>
      </trkpt>
      <trkpt lat="40.362323" lon="-3.322987">
        <ele>813</ele>
        <time>1970-01-01T00:32:37.000Z</time>
      </trkpt>
      <trkpt lat="40.362284" lon="-3.323029">
        <ele>812.6</ele>
        <time>1970-01-01T00:32:38.000Z</time>
      </trkpt>
      <trkpt lat="40.362243" lon="-3.323067">
        <ele>812.4</ele>
        <time>1970-01-01T00:32:39.000Z</time>
      </trkpt>
      <trkpt lat="40.362201" lon="-3.323104">
        <ele>812.4</ele>
        <time>1970-01-01T00:32:40.000Z</time>
      </trkpt>
      <trkpt lat="40.36216" lon="-3.323142">
        <ele>812.2</ele>
        <time>1970-01-01T00:32:41.000Z</time>
      </trkpt>
      <trkpt lat="40.362122" lon="-3.323181">
        <ele>812.2</ele>
        <time>1970-01-01T00:32:42.000Z</time>
      </trkpt>
      <trkpt lat="40.362085" lon="-3.323223">
        <ele>811.6</ele>
        <time>1970-01-01T00:32:43.000Z</time>
      </trkpt>
      <trkpt lat="40.362052" lon="-3.32327">
        <ele>811.6</ele>
        <time>1970-01-01T00:32:44.000Z</time>
      </trkpt>
      <trkpt lat="40.36202" lon="-3.323319">
        <ele>811.2</ele>
        <time>1970-01-01T00:32:45.000Z</time>
      </trkpt>
      <trkpt lat="40.361986" lon="-3.323367">
        <ele>811</ele>
        <time>1970-01-01T00:32:46.000Z</time>
      </trkpt>
      <trkpt lat="40.36195" lon="-3.323415">
        <ele>811</ele>
        <time>1970-01-01T00:32:47.000Z</time>
      </trkpt>
      <trkpt lat="40.36191" lon="-3.323461">
        <ele>810.8</ele>
        <time>1970-01-01T00:32:48.000Z</time>
      </trkpt>
      <trkpt lat="40.361865" lon="-3.323502">
        <ele>810.8</ele>
        <time>1970-01-01T00:32:49.000Z</time>
      </trkpt>
      <trkpt lat="40.361816" lon="-3.323533">
        <ele>810.6</ele>
        <time>1970-01-01T00:32:50.000Z</time>
      </trkpt>
      <trkpt lat="40.361765" lon="-3.323557">
        <ele>810.6</ele>
        <time>1970-01-01T00:32:51.000Z</time>
      </trkpt>
      <trkpt lat="40.361713" lon="-3.323578">
        <ele>810.6</ele>
        <time>1970-01-01T00:32:52.000Z</time>
      </trkpt>
      <trkpt lat="40.361664" lon="-3.323602">
        <ele>810.4</ele>
        <time>1970-01-01T00:32:53.000Z</time>
      </trkpt>
      <trkpt lat="40.361618" lon="-3.323632">
        <ele>810.4</ele>
        <time>1970-01-01T00:32:54.000Z</time>
      </trkpt>
      <trkpt lat="40.361576" lon="-3.323666">
        <ele>810.2</ele>
        <time>1970-01-01T00:32:55.000Z</time>
      </trkpt>
      <trkpt lat="40.361539" lon="-3.323708">
        <ele>810.2</ele>
        <time>1970-01-01T00:32:56.000Z</time>
      </trkpt>
      <trkpt lat="40.361503" lon="-3.323754">
        <ele>810.2</ele>
        <time>1970-01-01T00:32:57.000Z</time>
      </trkpt>
      <trkpt lat="40.361466" lon="-3.323801">
        <ele>810.2</ele>
        <time>1970-01-01T00:32:58.000Z</time>
      </trkpt>
      <trkpt lat="40.361428" lon="-3.323848">
        <ele>810.2</ele>
        <time>1970-01-01T00:32:59.000Z</time>
      </trkpt>
      <trkpt lat="40.361391" lon="-3.323896">
        <ele>810</ele>
        <time>1970-01-01T00:33:00.000Z</time>
      </trkpt>
      <trkpt lat="40.361354" lon="-3.323946">
        <ele>810</ele>
        <time>1970-01-01T00:33:01.000Z</time>
      </trkpt>
      <trkpt lat="40.361318" lon="-3.323999">
        <ele>810</ele>
        <time>1970-01-01T00:33:02.000Z</time>
      </trkpt>
      <trkpt lat="40.361281" lon="-3.324056">
        <ele>810</ele>
        <time>1970-01-01T00:33:03.000Z</time>
      </trkpt>
      <trkpt lat="40.361243" lon="-3.324114">
        <ele>810</ele>
        <time>1970-01-01T00:33:04.000Z</time>
      </trkpt>
      <trkpt lat="40.361205" lon="-3.324174">
        <ele>810</ele>
        <time>1970-01-01T00:33:05.000Z</time>
      </trkpt>
      <trkpt lat="40.361168" lon="-3.324232">
        <ele>810</ele>
        <time>1970-01-01T00:33:06.000Z</time>
      </trkpt>
      <trkpt lat="40.361133" lon="-3.324291">
        <ele>810</ele>
        <time>1970-01-01T00:33:07.000Z</time>
      </trkpt>
      <trkpt lat="40.361099" lon="-3.32435">
        <ele>809.8</ele>
        <time>1970-01-01T00:33:08.000Z</time>
      </trkpt>
      <trkpt lat="40.361065" lon="-3.32441">
        <ele>809.8</ele>
        <time>1970-01-01T00:33:09.000Z</time>
      </trkpt>
      <trkpt lat="40.361033" lon="-3.324471">
        <ele>809.8</ele>
        <time>1970-01-01T00:33:10.000Z</time>
      </trkpt>
      <trkpt lat="40.361003" lon="-3.324534">
        <ele>809.6</ele>
        <time>1970-01-01T00:33:11.000Z</time>
      </trkpt>
      <trkpt lat="40.360973" lon="-3.324595">
        <ele>809.6</ele>
        <time>1970-01-01T00:33:12.000Z</time>
      </trkpt>
      <trkpt lat="40.36094" lon="-3.324656">
        <ele>809.4</ele>
        <time>1970-01-01T00:33:13.000Z</time>
      </trkpt>
      <trkpt lat="40.360907" lon="-3.324716">
        <ele>809.2</ele>
        <time>1970-01-01T00:33:14.000Z</time>
      </trkpt>
      <trkpt lat="40.360873" lon="-3.324774">
        <ele>808.8</ele>
        <time>1970-01-01T00:33:15.000Z</time>
      </trkpt>
      <trkpt lat="40.360839" lon="-3.324836">
        <ele>808.6</ele>
        <time>1970-01-01T00:33:16.000Z</time>
      </trkpt>
      <trkpt lat="40.360808" lon="-3.3249">
        <ele>808.6</ele>
        <time>1970-01-01T00:33:17.000Z</time>
      </trkpt>
      <trkpt lat="40.360776" lon="-3.324963">
        <ele>808.4</ele>
        <time>1970-01-01T00:33:18.000Z</time>
      </trkpt>
      <trkpt lat="40.360744" lon="-3.325023">
        <ele>808.2</ele>
        <time>1970-01-01T00:33:19.000Z</time>
      </trkpt>
      <trkpt lat="40.36071" lon="-3.325076">
        <ele>808.2</ele>
        <time>1970-01-01T00:33:20.000Z</time>
      </trkpt>
      <trkpt lat="40.360675" lon="-3.325129">
        <ele>808.2</ele>
        <time>1970-01-01T00:33:21.000Z</time>
      </trkpt>
      <trkpt lat="40.360638" lon="-3.325179">
        <ele>808</ele>
        <time>1970-01-01T00:33:22.000Z</time>
      </trkpt>
      <trkpt lat="40.360602" lon="-3.325227">
        <ele>807.8</ele>
        <time>1970-01-01T00:33:23.000Z</time>
      </trkpt>
      <trkpt lat="40.360567" lon="-3.325275">
        <ele>807.6</ele>
        <time>1970-01-01T00:33:24.000Z</time>
      </trkpt>
      <trkpt lat="40.360533" lon="-3.325322">
        <ele>807.4</ele>
        <time>1970-01-01T00:33:25.000Z</time>
      </trkpt>
      <trkpt lat="40.360492" lon="-3.325369">
        <ele>807.2</ele>
        <time>1970-01-01T00:33:26.000Z</time>
      </trkpt>
      <trkpt lat="40.360455" lon="-3.325414">
        <ele>807.2</ele>
        <time>1970-01-01T00:33:27.000Z</time>
      </trkpt>
      <trkpt lat="40.360415" lon="-3.325459">
        <ele>807.2</ele>
        <time>1970-01-01T00:33:28.000Z</time>
      </trkpt>
      <trkpt lat="40.360376" lon="-3.325504">
        <ele>807</ele>
        <time>1970-01-01T00:33:29.000Z</time>
      </trkpt>
      <trkpt lat="40.360336" lon="-3.325551">
        <ele>807.2</ele>
        <time>1970-01-01T00:33:30.000Z</time>
      </trkpt>
      <trkpt lat="40.360295" lon="-3.325598">
        <ele>807.2</ele>
        <time>1970-01-01T00:33:31.000Z</time>
      </trkpt>
      <trkpt lat="40.360253" lon="-3.325648">
        <ele>807.2</ele>
        <time>1970-01-01T00:33:32.000Z</time>
      </trkpt>
      <trkpt lat="40.36021" lon="-3.325698">
        <ele>807.2</ele>
        <time>1970-01-01T00:33:33.000Z</time>
      </trkpt>
      <trkpt lat="40.360167" lon="-3.325748">
        <ele>807.2</ele>
        <time>1970-01-01T00:33:34.000Z</time>
      </trkpt>
      <trkpt lat="40.360126" lon="-3.325799">
        <ele>807.2</ele>
        <time>1970-01-01T00:33:35.000Z</time>
      </trkpt>
      <trkpt lat="40.360084" lon="-3.325847">
        <ele>807</ele>
        <time>1970-01-01T00:33:36.000Z</time>
      </trkpt>
      <trkpt lat="40.360044" lon="-3.325893">
        <ele>807</ele>
        <time>1970-01-01T00:33:37.000Z</time>
      </trkpt>
      <trkpt lat="40.360006" lon="-3.32594">
        <ele>806.8</ele>
        <time>1970-01-01T00:33:38.000Z</time>
      </trkpt>
      <trkpt lat="40.359966" lon="-3.325985">
        <ele>806.6</ele>
        <time>1970-01-01T00:33:39.000Z</time>
      </trkpt>
      <trkpt lat="40.359927" lon="-3.326028">
        <ele>806.6</ele>
        <time>1970-01-01T00:33:40.000Z</time>
      </trkpt>
      <trkpt lat="40.359886" lon="-3.326071">
        <ele>806.6</ele>
        <time>1970-01-01T00:33:41.000Z</time>
      </trkpt>
      <trkpt lat="40.359842" lon="-3.326112">
        <ele>806.6</ele>
        <time>1970-01-01T00:33:42.000Z</time>
      </trkpt>
      <trkpt lat="40.359786" lon="-3.326161">
        <ele>806.4</ele>
        <time>1970-01-01T00:33:43.000Z</time>
      </trkpt>
      <trkpt lat="40.35975" lon="-3.326196">
        <ele>806.4</ele>
        <time>1970-01-01T00:33:44.000Z</time>
      </trkpt>
      <trkpt lat="40.359703" lon="-3.32624">
        <ele>806.4</ele>
        <time>1970-01-01T00:33:45.000Z</time>
      </trkpt>
      <trkpt lat="40.359655" lon="-3.32628">
        <ele>806.4</ele>
        <time>1970-01-01T00:33:46.000Z</time>
      </trkpt>
      <trkpt lat="40.359607" lon="-3.32632">
        <ele>806.4</ele>
        <time>1970-01-01T00:33:47.000Z</time>
      </trkpt>
      <trkpt lat="40.359558" lon="-3.326359">
        <ele>806.4</ele>
        <time>1970-01-01T00:33:48.000Z</time>
      </trkpt>
      <trkpt lat="40.359511" lon="-3.326399">
        <ele>806.4</ele>
        <time>1970-01-01T00:33:49.000Z</time>
      </trkpt>
      <trkpt lat="40.359465" lon="-3.326439">
        <ele>806.2</ele>
        <time>1970-01-01T00:33:50.000Z</time>
      </trkpt>
      <trkpt lat="40.35942" lon="-3.326479">
        <ele>806.2</ele>
        <time>1970-01-01T00:33:51.000Z</time>
      </trkpt>
      <trkpt lat="40.359378" lon="-3.326519">
        <ele>806</ele>
        <time>1970-01-01T00:33:52.000Z</time>
      </trkpt>
      <trkpt lat="40.359337" lon="-3.326557">
        <ele>806</ele>
        <time>1970-01-01T00:33:53.000Z</time>
      </trkpt>
      <trkpt lat="40.359294" lon="-3.326593">
        <ele>806</ele>
        <time>1970-01-01T00:33:54.000Z</time>
      </trkpt>
      <trkpt lat="40.359253" lon="-3.326631">
        <ele>806</ele>
        <time>1970-01-01T00:33:55.000Z</time>
      </trkpt>
      <trkpt lat="40.359208" lon="-3.32667">
        <ele>805.8</ele>
        <time>1970-01-01T00:33:56.000Z</time>
      </trkpt>
      <trkpt lat="40.359164" lon="-3.326712">
        <ele>805.6</ele>
        <time>1970-01-01T00:33:57.000Z</time>
      </trkpt>
      <trkpt lat="40.359116" lon="-3.326759">
        <ele>805.4</ele>
        <time>1970-01-01T00:33:58.000Z</time>
      </trkpt>
      <trkpt lat="40.359072" lon="-3.326817">
        <ele>805.4</ele>
        <time>1970-01-01T00:33:59.000Z</time>
      </trkpt>
      <trkpt lat="40.359025" lon="-3.326883">
        <ele>805.2</ele>
        <time>1970-01-01T00:34:00.000Z</time>
      </trkpt>
      <trkpt lat="40.358986" lon="-3.326948">
        <ele>805</ele>
        <time>1970-01-01T00:34:01.000Z</time>
      </trkpt>
      <trkpt lat="40.358947" lon="-3.327017">
        <ele>804.8</ele>
        <time>1970-01-01T00:34:02.000Z</time>
      </trkpt>
      <trkpt lat="40.358911" lon="-3.327088">
        <ele>804.6</ele>
        <time>1970-01-01T00:34:03.000Z</time>
      </trkpt>
      <trkpt lat="40.358873" lon="-3.327153">
        <ele>804.2</ele>
        <time>1970-01-01T00:34:04.000Z</time>
      </trkpt>
      <trkpt lat="40.358836" lon="-3.327214">
        <ele>803.8</ele>
        <time>1970-01-01T00:34:05.000Z</time>
      </trkpt>
      <trkpt lat="40.358798" lon="-3.327271">
        <ele>803.6</ele>
        <time>1970-01-01T00:34:06.000Z</time>
      </trkpt>
      <trkpt lat="40.358759" lon="-3.327322">
        <ele>803.2</ele>
        <time>1970-01-01T00:34:07.000Z</time>
      </trkpt>
      <trkpt lat="40.358714" lon="-3.327361">
        <ele>803</ele>
        <time>1970-01-01T00:34:08.000Z</time>
      </trkpt>
      <trkpt lat="40.358661" lon="-3.327399">
        <ele>802.8</ele>
        <time>1970-01-01T00:34:09.000Z</time>
      </trkpt>
      <trkpt lat="40.358607" lon="-3.327434">
        <ele>802.6</ele>
        <time>1970-01-01T00:34:10.000Z</time>
      </trkpt>
      <trkpt lat="40.358552" lon="-3.327466">
        <ele>802.6</ele>
        <time>1970-01-01T00:34:11.000Z</time>
      </trkpt>
      <trkpt lat="40.358498" lon="-3.327493">
        <ele>802.2</ele>
        <time>1970-01-01T00:34:12.000Z</time>
      </trkpt>
      <trkpt lat="40.358445" lon="-3.327512">
        <ele>802.2</ele>
        <time>1970-01-01T00:34:13.000Z</time>
      </trkpt>
      <trkpt lat="40.358389" lon="-3.327527">
        <ele>802</ele>
        <time>1970-01-01T00:34:14.000Z</time>
      </trkpt>
      <trkpt lat="40.358332" lon="-3.327536">
        <ele>801.8</ele>
        <time>1970-01-01T00:34:15.000Z</time>
      </trkpt>
      <trkpt lat="40.358276" lon="-3.327546">
        <ele>801.8</ele>
        <time>1970-01-01T00:34:16.000Z</time>
      </trkpt>
      <trkpt lat="40.358221" lon="-3.327563">
        <ele>801.8</ele>
        <time>1970-01-01T00:34:17.000Z</time>
      </trkpt>
      <trkpt lat="40.358167" lon="-3.327586">
        <ele>801.6</ele>
        <time>1970-01-01T00:34:18.000Z</time>
      </trkpt>
      <trkpt lat="40.358116" lon="-3.327615">
        <ele>801.4</ele>
        <time>1970-01-01T00:34:19.000Z</time>
      </trkpt>
      <trkpt lat="40.358069" lon="-3.327652">
        <ele>801.4</ele>
        <time>1970-01-01T00:34:20.000Z</time>
      </trkpt>
      <trkpt lat="40.358022" lon="-3.32769">
        <ele>801</ele>
        <time>1970-01-01T00:34:21.000Z</time>
      </trkpt>
      <trkpt lat="40.357978" lon="-3.327722">
        <ele>800.8</ele>
        <time>1970-01-01T00:34:22.000Z</time>
      </trkpt>
      <trkpt lat="40.357933" lon="-3.32775">
        <ele>800.4</ele>
        <time>1970-01-01T00:34:23.000Z</time>
      </trkpt>
      <trkpt lat="40.357888" lon="-3.327777">
        <ele>800.4</ele>
        <time>1970-01-01T00:34:24.000Z</time>
      </trkpt>
      <trkpt lat="40.35784" lon="-3.327803">
        <ele>799.8</ele>
        <time>1970-01-01T00:34:25.000Z</time>
      </trkpt>
      <trkpt lat="40.357792" lon="-3.327829">
        <ele>799.6</ele>
        <time>1970-01-01T00:34:26.000Z</time>
      </trkpt>
      <trkpt lat="40.357745" lon="-3.327857">
        <ele>799.4</ele>
        <time>1970-01-01T00:34:27.000Z</time>
      </trkpt>
      <trkpt lat="40.357699" lon="-3.327884">
        <ele>799</ele>
        <time>1970-01-01T00:34:28.000Z</time>
      </trkpt>
      <trkpt lat="40.357651" lon="-3.327914">
        <ele>799</ele>
        <time>1970-01-01T00:34:29.000Z</time>
      </trkpt>
      <trkpt lat="40.357601" lon="-3.327953">
        <ele>798.6</ele>
        <time>1970-01-01T00:34:30.000Z</time>
      </trkpt>
      <trkpt lat="40.357551" lon="-3.328">
        <ele>798.2</ele>
        <time>1970-01-01T00:34:31.000Z</time>
      </trkpt>
      <trkpt lat="40.357499" lon="-3.328053">
        <ele>797.6</ele>
        <time>1970-01-01T00:34:32.000Z</time>
      </trkpt>
      <trkpt lat="40.357445" lon="-3.328103">
        <ele>797.6</ele>
        <time>1970-01-01T00:34:33.000Z</time>
      </trkpt>
      <trkpt lat="40.357388" lon="-3.328148">
        <ele>797.2</ele>
        <time>1970-01-01T00:34:34.000Z</time>
      </trkpt>
      <trkpt lat="40.35733" lon="-3.328191">
        <ele>797</ele>
        <time>1970-01-01T00:34:35.000Z</time>
      </trkpt>
      <trkpt lat="40.357272" lon="-3.328229">
        <ele>797</ele>
        <time>1970-01-01T00:34:36.000Z</time>
      </trkpt>
      <trkpt lat="40.357216" lon="-3.328264">
        <ele>797</ele>
        <time>1970-01-01T00:34:37.000Z</time>
      </trkpt>
      <trkpt lat="40.357157" lon="-3.328297">
        <ele>796.8</ele>
        <time>1970-01-01T00:34:38.000Z</time>
      </trkpt>
      <trkpt lat="40.357096" lon="-3.328326">
        <ele>796.8</ele>
        <time>1970-01-01T00:34:39.000Z</time>
      </trkpt>
      <trkpt lat="40.357037" lon="-3.328355">
        <ele>796.8</ele>
        <time>1970-01-01T00:34:40.000Z</time>
      </trkpt>
      <trkpt lat="40.356975" lon="-3.328386">
        <ele>796.8</ele>
        <time>1970-01-01T00:34:41.000Z</time>
      </trkpt>
      <trkpt lat="40.356917" lon="-3.328417">
        <ele>796.8</ele>
        <time>1970-01-01T00:34:42.000Z</time>
      </trkpt>
      <trkpt lat="40.356862" lon="-3.328449">
        <ele>796.8</ele>
        <time>1970-01-01T00:34:43.000Z</time>
      </trkpt>
      <trkpt lat="40.356807" lon="-3.328483">
        <ele>796.8</ele>
        <time>1970-01-01T00:34:44.000Z</time>
      </trkpt>
      <trkpt lat="40.356755" lon="-3.328522">
        <ele>796.8</ele>
        <time>1970-01-01T00:34:45.000Z</time>
      </trkpt>
      <trkpt lat="40.356706" lon="-3.328561">
        <ele>797</ele>
        <time>1970-01-01T00:34:46.000Z</time>
      </trkpt>
      <trkpt lat="40.356656" lon="-3.328602">
        <ele>797</ele>
        <time>1970-01-01T00:34:47.000Z</time>
      </trkpt>
      <trkpt lat="40.356615" lon="-3.32863">
        <ele>797</ele>
        <time>1970-01-01T00:34:48.000Z</time>
      </trkpt>
      <trkpt lat="40.356552" lon="-3.328667">
        <ele>797.4</ele>
        <time>1970-01-01T00:34:49.000Z</time>
      </trkpt>
      <trkpt lat="40.356497" lon="-3.328701">
        <ele>797.4</ele>
        <time>1970-01-01T00:34:50.000Z</time>
      </trkpt>
      <trkpt lat="40.356444" lon="-3.328735">
        <ele>797.6</ele>
        <time>1970-01-01T00:34:51.000Z</time>
      </trkpt>
      <trkpt lat="40.356391" lon="-3.328769">
        <ele>797.6</ele>
        <time>1970-01-01T00:34:52.000Z</time>
      </trkpt>
      <trkpt lat="40.356338" lon="-3.328805">
        <ele>797.8</ele>
        <time>1970-01-01T00:34:53.000Z</time>
      </trkpt>
      <trkpt lat="40.356284" lon="-3.328851">
        <ele>797.8</ele>
        <time>1970-01-01T00:34:54.000Z</time>
      </trkpt>
      <trkpt lat="40.356229" lon="-3.328902">
        <ele>797.8</ele>
        <time>1970-01-01T00:34:55.000Z</time>
      </trkpt>
      <trkpt lat="40.356175" lon="-3.328954">
        <ele>797.8</ele>
        <time>1970-01-01T00:34:56.000Z</time>
      </trkpt>
      <trkpt lat="40.35612" lon="-3.329009">
        <ele>797.8</ele>
        <time>1970-01-01T00:34:57.000Z</time>
      </trkpt>
      <trkpt lat="40.356063" lon="-3.329064">
        <ele>797.8</ele>
        <time>1970-01-01T00:34:58.000Z</time>
      </trkpt>
      <trkpt lat="40.356005" lon="-3.329115">
        <ele>797.8</ele>
        <time>1970-01-01T00:34:59.000Z</time>
      </trkpt>
      <trkpt lat="40.355948" lon="-3.329162">
        <ele>797.8</ele>
        <time>1970-01-01T00:35:00.000Z</time>
      </trkpt>
      <trkpt lat="40.355889" lon="-3.329201">
        <ele>797.8</ele>
        <time>1970-01-01T00:35:01.000Z</time>
      </trkpt>
      <trkpt lat="40.355834" lon="-3.329237">
        <ele>797.8</ele>
        <time>1970-01-01T00:35:02.000Z</time>
      </trkpt>
      <trkpt lat="40.355782" lon="-3.329271">
        <ele>797.8</ele>
        <time>1970-01-01T00:35:03.000Z</time>
      </trkpt>
      <trkpt lat="40.355735" lon="-3.329301">
        <ele>797.8</ele>
        <time>1970-01-01T00:35:04.000Z</time>
      </trkpt>
      <trkpt lat="40.355691" lon="-3.329329">
        <ele>797.6</ele>
        <time>1970-01-01T00:35:05.000Z</time>
      </trkpt>
      <trkpt lat="40.355651" lon="-3.329357">
        <ele>797.4</ele>
        <time>1970-01-01T00:35:06.000Z</time>
      </trkpt>
      <trkpt lat="40.355611" lon="-3.32939">
        <ele>797</ele>
        <time>1970-01-01T00:35:07.000Z</time>
      </trkpt>
      <trkpt lat="40.35557" lon="-3.329423">
        <ele>797</ele>
        <time>1970-01-01T00:35:08.000Z</time>
      </trkpt>
      <trkpt lat="40.355531" lon="-3.329459">
        <ele>796.8</ele>
        <time>1970-01-01T00:35:09.000Z</time>
      </trkpt>
      <trkpt lat="40.35549" lon="-3.329496">
        <ele>796.6</ele>
        <time>1970-01-01T00:35:10.000Z</time>
      </trkpt>
      <trkpt lat="40.355447" lon="-3.329535">
        <ele>796.4</ele>
        <time>1970-01-01T00:35:11.000Z</time>
      </trkpt>
      <trkpt lat="40.355397" lon="-3.329574">
        <ele>796.4</ele>
        <time>1970-01-01T00:35:12.000Z</time>
      </trkpt>
      <trkpt lat="40.355348" lon="-3.329611">
        <ele>796.4</ele>
        <time>1970-01-01T00:35:13.000Z</time>
      </trkpt>
      <trkpt lat="40.355297" lon="-3.329649">
        <ele>796.2</ele>
        <time>1970-01-01T00:35:14.000Z</time>
      </trkpt>
      <trkpt lat="40.355245" lon="-3.329686">
        <ele>796.2</ele>
        <time>1970-01-01T00:35:15.000Z</time>
      </trkpt>
      <trkpt lat="40.355191" lon="-3.329724">
        <ele>796</ele>
        <time>1970-01-01T00:35:16.000Z</time>
      </trkpt>
      <trkpt lat="40.355138" lon="-3.329767">
        <ele>795.8</ele>
        <time>1970-01-01T00:35:17.000Z</time>
      </trkpt>
      <trkpt lat="40.355087" lon="-3.329806">
        <ele>795.8</ele>
        <time>1970-01-01T00:35:18.000Z</time>
      </trkpt>
      <trkpt lat="40.355038" lon="-3.329844">
        <ele>795.4</ele>
        <time>1970-01-01T00:35:19.000Z</time>
      </trkpt>
      <trkpt lat="40.354987" lon="-3.329881">
        <ele>795.2</ele>
        <time>1970-01-01T00:35:20.000Z</time>
      </trkpt>
      <trkpt lat="40.354932" lon="-3.329914">
        <ele>794.6</ele>
        <time>1970-01-01T00:35:21.000Z</time>
      </trkpt>
      <trkpt lat="40.354875" lon="-3.329943">
        <ele>794.4</ele>
        <time>1970-01-01T00:35:22.000Z</time>
      </trkpt>
      <trkpt lat="40.354819" lon="-3.329973">
        <ele>794.2</ele>
        <time>1970-01-01T00:35:23.000Z</time>
      </trkpt>
      <trkpt lat="40.354762" lon="-3.330009">
        <ele>793.6</ele>
        <time>1970-01-01T00:35:24.000Z</time>
      </trkpt>
      <trkpt lat="40.354706" lon="-3.330049">
        <ele>793.4</ele>
        <time>1970-01-01T00:35:25.000Z</time>
      </trkpt>
      <trkpt lat="40.35465" lon="-3.330093">
        <ele>793.2</ele>
        <time>1970-01-01T00:35:26.000Z</time>
      </trkpt>
      <trkpt lat="40.354595" lon="-3.330137">
        <ele>793.2</ele>
        <time>1970-01-01T00:35:27.000Z</time>
      </trkpt>
      <trkpt lat="40.354538" lon="-3.33018">
        <ele>793.2</ele>
        <time>1970-01-01T00:35:28.000Z</time>
      </trkpt>
      <trkpt lat="40.354483" lon="-3.330223">
        <ele>793</ele>
        <time>1970-01-01T00:35:29.000Z</time>
      </trkpt>
      <trkpt lat="40.354432" lon="-3.33026">
        <ele>793</ele>
        <time>1970-01-01T00:35:30.000Z</time>
      </trkpt>
      <trkpt lat="40.354382" lon="-3.330288">
        <ele>793</ele>
        <time>1970-01-01T00:35:31.000Z</time>
      </trkpt>
      <trkpt lat="40.354332" lon="-3.330317">
        <ele>793</ele>
        <time>1970-01-01T00:35:32.000Z</time>
      </trkpt>
      <trkpt lat="40.354284" lon="-3.330352">
        <ele>793.2</ele>
        <time>1970-01-01T00:35:33.000Z</time>
      </trkpt>
      <trkpt lat="40.354237" lon="-3.330392">
        <ele>793.2</ele>
        <time>1970-01-01T00:35:34.000Z</time>
      </trkpt>
      <trkpt lat="40.354188" lon="-3.330433">
        <ele>793.6</ele>
        <time>1970-01-01T00:35:35.000Z</time>
      </trkpt>
      <trkpt lat="40.354135" lon="-3.330475">
        <ele>793.8</ele>
        <time>1970-01-01T00:35:36.000Z</time>
      </trkpt>
      <trkpt lat="40.354079" lon="-3.330516">
        <ele>793.8</ele>
        <time>1970-01-01T00:35:37.000Z</time>
      </trkpt>
      <trkpt lat="40.354022" lon="-3.330556">
        <ele>794</ele>
        <time>1970-01-01T00:35:38.000Z</time>
      </trkpt>
      <trkpt lat="40.353963" lon="-3.330599">
        <ele>794</ele>
        <time>1970-01-01T00:35:39.000Z</time>
      </trkpt>
      <trkpt lat="40.353903" lon="-3.330643">
        <ele>794</ele>
        <time>1970-01-01T00:35:40.000Z</time>
      </trkpt>
      <trkpt lat="40.353837" lon="-3.330681">
        <ele>794.2</ele>
        <time>1970-01-01T00:35:41.000Z</time>
      </trkpt>
      <trkpt lat="40.353775" lon="-3.330716">
        <ele>794.2</ele>
        <time>1970-01-01T00:35:42.000Z</time>
      </trkpt>
      <trkpt lat="40.353716" lon="-3.330753">
        <ele>794.2</ele>
        <time>1970-01-01T00:35:43.000Z</time>
      </trkpt>
      <trkpt lat="40.35366" lon="-3.33079">
        <ele>794.4</ele>
        <time>1970-01-01T00:35:44.000Z</time>
      </trkpt>
      <trkpt lat="40.353604" lon="-3.330827">
        <ele>794.6</ele>
        <time>1970-01-01T00:35:45.000Z</time>
      </trkpt>
      <trkpt lat="40.35355" lon="-3.330864">
        <ele>794.8</ele>
        <time>1970-01-01T00:35:46.000Z</time>
      </trkpt>
      <trkpt lat="40.353495" lon="-3.330906">
        <ele>795</ele>
        <time>1970-01-01T00:35:47.000Z</time>
      </trkpt>
      <trkpt lat="40.35344" lon="-3.330947">
        <ele>795</ele>
        <time>1970-01-01T00:35:48.000Z</time>
      </trkpt>
      <trkpt lat="40.353384" lon="-3.330989">
        <ele>795.4</ele>
        <time>1970-01-01T00:35:49.000Z</time>
      </trkpt>
      <trkpt lat="40.353326" lon="-3.331029">
        <ele>795.4</ele>
        <time>1970-01-01T00:35:50.000Z</time>
      </trkpt>
      <trkpt lat="40.353279" lon="-3.331063">
        <ele>795.4</ele>
        <time>1970-01-01T00:35:51.000Z</time>
      </trkpt>
      <trkpt lat="40.353216" lon="-3.33112">
        <ele>795.4</ele>
        <time>1970-01-01T00:35:52.000Z</time>
      </trkpt>
      <trkpt lat="40.353166" lon="-3.331166">
        <ele>795.4</ele>
        <time>1970-01-01T00:35:53.000Z</time>
      </trkpt>
      <trkpt lat="40.353112" lon="-3.331213">
        <ele>795.2</ele>
        <time>1970-01-01T00:35:54.000Z</time>
      </trkpt>
      <trkpt lat="40.353057" lon="-3.331264">
        <ele>795</ele>
        <time>1970-01-01T00:35:55.000Z</time>
      </trkpt>
      <trkpt lat="40.353003" lon="-3.331316">
        <ele>794.8</ele>
        <time>1970-01-01T00:35:56.000Z</time>
      </trkpt>
      <trkpt lat="40.35295" lon="-3.331366">
        <ele>794.8</ele>
        <time>1970-01-01T00:35:57.000Z</time>
      </trkpt>
      <trkpt lat="40.3529" lon="-3.331414">
        <ele>794.4</ele>
        <time>1970-01-01T00:35:58.000Z</time>
      </trkpt>
      <trkpt lat="40.352852" lon="-3.33146">
        <ele>794.4</ele>
        <time>1970-01-01T00:35:59.000Z</time>
      </trkpt>
      <trkpt lat="40.352805" lon="-3.331501">
        <ele>794.2</ele>
        <time>1970-01-01T00:36:00.000Z</time>
      </trkpt>
      <trkpt lat="40.352756" lon="-3.33155">
        <ele>794</ele>
        <time>1970-01-01T00:36:01.000Z</time>
      </trkpt>
      <trkpt lat="40.35271" lon="-3.3316">
        <ele>794</ele>
        <time>1970-01-01T00:36:02.000Z</time>
      </trkpt>
      <trkpt lat="40.352664" lon="-3.33165">
        <ele>794</ele>
        <time>1970-01-01T00:36:03.000Z</time>
      </trkpt>
      <trkpt lat="40.352618" lon="-3.331704">
        <ele>794</ele>
        <time>1970-01-01T00:36:04.000Z</time>
      </trkpt>
      <trkpt lat="40.352572" lon="-3.331755">
        <ele>794</ele>
        <time>1970-01-01T00:36:05.000Z</time>
      </trkpt>
      <trkpt lat="40.352523" lon="-3.331804">
        <ele>794</ele>
        <time>1970-01-01T00:36:06.000Z</time>
      </trkpt>
      <trkpt lat="40.352478" lon="-3.331855">
        <ele>794</ele>
        <time>1970-01-01T00:36:07.000Z</time>
      </trkpt>
      <trkpt lat="40.352436" lon="-3.331907">
        <ele>794</ele>
        <time>1970-01-01T00:36:08.000Z</time>
      </trkpt>
      <trkpt lat="40.352395" lon="-3.33196">
        <ele>794</ele>
        <time>1970-01-01T00:36:09.000Z</time>
      </trkpt>
      <trkpt lat="40.352356" lon="-3.332017">
        <ele>793.6</ele>
        <time>1970-01-01T00:36:10.000Z</time>
      </trkpt>
      <trkpt lat="40.352316" lon="-3.332076">
        <ele>793.4</ele>
        <time>1970-01-01T00:36:11.000Z</time>
      </trkpt>
      <trkpt lat="40.352274" lon="-3.332134">
        <ele>793.4</ele>
        <time>1970-01-01T00:36:12.000Z</time>
      </trkpt>
      <trkpt lat="40.352233" lon="-3.332193">
        <ele>793.2</ele>
        <time>1970-01-01T00:36:13.000Z</time>
      </trkpt>
      <trkpt lat="40.352191" lon="-3.332254">
        <ele>793</ele>
        <time>1970-01-01T00:36:14.000Z</time>
      </trkpt>
      <trkpt lat="40.352145" lon="-3.332315">
        <ele>792.8</ele>
        <time>1970-01-01T00:36:15.000Z</time>
      </trkpt>
      <trkpt lat="40.352101" lon="-3.332379">
        <ele>792.6</ele>
        <time>1970-01-01T00:36:16.000Z</time>
      </trkpt>
      <trkpt lat="40.352057" lon="-3.332441">
        <ele>792.4</ele>
        <time>1970-01-01T00:36:17.000Z</time>
      </trkpt>
      <trkpt lat="40.352009" lon="-3.332501">
        <ele>792.2</ele>
        <time>1970-01-01T00:36:18.000Z</time>
      </trkpt>
      <trkpt lat="40.351961" lon="-3.332562">
        <ele>792</ele>
        <time>1970-01-01T00:36:19.000Z</time>
      </trkpt>
      <trkpt lat="40.351915" lon="-3.332624">
        <ele>792</ele>
        <time>1970-01-01T00:36:20.000Z</time>
      </trkpt>
      <trkpt lat="40.351873" lon="-3.332683">
        <ele>791.8</ele>
        <time>1970-01-01T00:36:21.000Z</time>
      </trkpt>
      <trkpt lat="40.351831" lon="-3.332732">
        <ele>791.6</ele>
        <time>1970-01-01T00:36:22.000Z</time>
      </trkpt>
      <trkpt lat="40.351787" lon="-3.332778">
        <ele>791.4</ele>
        <time>1970-01-01T00:36:23.000Z</time>
      </trkpt>
      <trkpt lat="40.351742" lon="-3.332825">
        <ele>791.4</ele>
        <time>1970-01-01T00:36:24.000Z</time>
      </trkpt>
      <trkpt lat="40.351698" lon="-3.332874">
        <ele>791.2</ele>
        <time>1970-01-01T00:36:25.000Z</time>
      </trkpt>
      <trkpt lat="40.351649" lon="-3.332929">
        <ele>791.2</ele>
        <time>1970-01-01T00:36:26.000Z</time>
      </trkpt>
      <trkpt lat="40.3516" lon="-3.332986">
        <ele>791</ele>
        <time>1970-01-01T00:36:27.000Z</time>
      </trkpt>
      <trkpt lat="40.35155" lon="-3.333046">
        <ele>791</ele>
        <time>1970-01-01T00:36:28.000Z</time>
      </trkpt>
      <trkpt lat="40.351504" lon="-3.333111">
        <ele>790.8</ele>
        <time>1970-01-01T00:36:29.000Z</time>
      </trkpt>
      <trkpt lat="40.351463" lon="-3.333179">
        <ele>790.8</ele>
        <time>1970-01-01T00:36:30.000Z</time>
      </trkpt>
      <trkpt lat="40.351421" lon="-3.333244">
        <ele>790.6</ele>
        <time>1970-01-01T00:36:31.000Z</time>
      </trkpt>
      <trkpt lat="40.351381" lon="-3.33331">
        <ele>790.6</ele>
        <time>1970-01-01T00:36:32.000Z</time>
      </trkpt>
      <trkpt lat="40.351344" lon="-3.333373">
        <ele>790.6</ele>
        <time>1970-01-01T00:36:33.000Z</time>
      </trkpt>
      <trkpt lat="40.351302" lon="-3.333433">
        <ele>790.6</ele>
        <time>1970-01-01T00:36:34.000Z</time>
      </trkpt>
      <trkpt lat="40.351256" lon="-3.333499">
        <ele>790.6</ele>
        <time>1970-01-01T00:36:35.000Z</time>
      </trkpt>
      <trkpt lat="40.35121" lon="-3.333565">
        <ele>790.6</ele>
        <time>1970-01-01T00:36:36.000Z</time>
      </trkpt>
      <trkpt lat="40.351166" lon="-3.333629">
        <ele>790.6</ele>
        <time>1970-01-01T00:36:37.000Z</time>
      </trkpt>
      <trkpt lat="40.351118" lon="-3.333692">
        <ele>790.6</ele>
        <time>1970-01-01T00:36:38.000Z</time>
      </trkpt>
      <trkpt lat="40.351068" lon="-3.333755">
        <ele>790.6</ele>
        <time>1970-01-01T00:36:39.000Z</time>
      </trkpt>
      <trkpt lat="40.351015" lon="-3.333817">
        <ele>790.6</ele>
        <time>1970-01-01T00:36:40.000Z</time>
      </trkpt>
      <trkpt lat="40.35096" lon="-3.333878">
        <ele>790.6</ele>
        <time>1970-01-01T00:36:41.000Z</time>
      </trkpt>
      <trkpt lat="40.350902" lon="-3.333939">
        <ele>790.6</ele>
        <time>1970-01-01T00:36:42.000Z</time>
      </trkpt>
      <trkpt lat="40.350843" lon="-3.334">
        <ele>790.4</ele>
        <time>1970-01-01T00:36:43.000Z</time>
      </trkpt>
      <trkpt lat="40.350784" lon="-3.334062">
        <ele>790.2</ele>
        <time>1970-01-01T00:36:44.000Z</time>
      </trkpt>
      <trkpt lat="40.350723" lon="-3.334124">
        <ele>790.2</ele>
        <time>1970-01-01T00:36:45.000Z</time>
      </trkpt>
      <trkpt lat="40.350661" lon="-3.334185">
        <ele>790</ele>
        <time>1970-01-01T00:36:46.000Z</time>
      </trkpt>
      <trkpt lat="40.350613" lon="-3.334233">
        <ele>790</ele>
        <time>1970-01-01T00:36:47.000Z</time>
      </trkpt>
      <trkpt lat="40.350542" lon="-3.334303">
        <ele>790</ele>
        <time>1970-01-01T00:36:48.000Z</time>
      </trkpt>
      <trkpt lat="40.350484" lon="-3.334365">
        <ele>790.2</ele>
        <time>1970-01-01T00:36:49.000Z</time>
      </trkpt>
      <trkpt lat="40.350426" lon="-3.334429">
        <ele>790.4</ele>
        <time>1970-01-01T00:36:50.000Z</time>
      </trkpt>
      <trkpt lat="40.350369" lon="-3.334492">
        <ele>790.4</ele>
        <time>1970-01-01T00:36:51.000Z</time>
      </trkpt>
      <trkpt lat="40.350313" lon="-3.334556">
        <ele>790.4</ele>
        <time>1970-01-01T00:36:52.000Z</time>
      </trkpt>
      <trkpt lat="40.350257" lon="-3.33462">
        <ele>790.4</ele>
        <time>1970-01-01T00:36:53.000Z</time>
      </trkpt>
      <trkpt lat="40.350203" lon="-3.334686">
        <ele>790.6</ele>
        <time>1970-01-01T00:36:54.000Z</time>
      </trkpt>
      <trkpt lat="40.350152" lon="-3.334755">
        <ele>790.8</ele>
        <time>1970-01-01T00:36:55.000Z</time>
      </trkpt>
      <trkpt lat="40.350104" lon="-3.334822">
        <ele>791</ele>
        <time>1970-01-01T00:36:56.000Z</time>
      </trkpt>
      <trkpt lat="40.350061" lon="-3.334891">
        <ele>791.2</ele>
        <time>1970-01-01T00:36:57.000Z</time>
      </trkpt>
      <trkpt lat="40.350024" lon="-3.334961">
        <ele>791.6</ele>
        <time>1970-01-01T00:36:58.000Z</time>
      </trkpt>
      <trkpt lat="40.349989" lon="-3.33503">
        <ele>791.8</ele>
        <time>1970-01-01T00:36:59.000Z</time>
      </trkpt>
      <trkpt lat="40.349959" lon="-3.3351">
        <ele>791.8</ele>
        <time>1970-01-01T00:37:00.000Z</time>
      </trkpt>
      <trkpt lat="40.349925" lon="-3.335167">
        <ele>792</ele>
        <time>1970-01-01T00:37:01.000Z</time>
      </trkpt>
      <trkpt lat="40.349889" lon="-3.33523">
        <ele>792</ele>
        <time>1970-01-01T00:37:02.000Z</time>
      </trkpt>
      <trkpt lat="40.349852" lon="-3.33529">
        <ele>792</ele>
        <time>1970-01-01T00:37:03.000Z</time>
      </trkpt>
      <trkpt lat="40.349812" lon="-3.335349">
        <ele>792</ele>
        <time>1970-01-01T00:37:04.000Z</time>
      </trkpt>
      <trkpt lat="40.349765" lon="-3.335419">
        <ele>792.2</ele>
        <time>1970-01-01T00:37:05.000Z</time>
      </trkpt>
      <trkpt lat="40.349736" lon="-3.335467">
        <ele>792.4</ele>
        <time>1970-01-01T00:37:06.000Z</time>
      </trkpt>
      <trkpt lat="40.3497" lon="-3.335528">
        <ele>792.4</ele>
        <time>1970-01-01T00:37:07.000Z</time>
      </trkpt>
      <trkpt lat="40.349666" lon="-3.335585">
        <ele>792.2</ele>
        <time>1970-01-01T00:37:08.000Z</time>
      </trkpt>
      <trkpt lat="40.349633" lon="-3.33564">
        <ele>792.2</ele>
        <time>1970-01-01T00:37:09.000Z</time>
      </trkpt>
      <trkpt lat="40.349601" lon="-3.335696">
        <ele>792.2</ele>
        <time>1970-01-01T00:37:10.000Z</time>
      </trkpt>
      <trkpt lat="40.34957" lon="-3.335751">
        <ele>792.2</ele>
        <time>1970-01-01T00:37:11.000Z</time>
      </trkpt>
      <trkpt lat="40.34954" lon="-3.335804">
        <ele>792.2</ele>
        <time>1970-01-01T00:37:12.000Z</time>
      </trkpt>
      <trkpt lat="40.349507" lon="-3.335859">
        <ele>792.2</ele>
        <time>1970-01-01T00:37:13.000Z</time>
      </trkpt>
      <trkpt lat="40.349475" lon="-3.335913">
        <ele>792.4</ele>
        <time>1970-01-01T00:37:14.000Z</time>
      </trkpt>
      <trkpt lat="40.349444" lon="-3.335966">
        <ele>792.4</ele>
        <time>1970-01-01T00:37:15.000Z</time>
      </trkpt>
      <trkpt lat="40.349412" lon="-3.336019">
        <ele>792.4</ele>
        <time>1970-01-01T00:37:16.000Z</time>
      </trkpt>
      <trkpt lat="40.349384" lon="-3.336069">
        <ele>792.4</ele>
        <time>1970-01-01T00:37:17.000Z</time>
      </trkpt>
      <trkpt lat="40.349355" lon="-3.336121">
        <ele>792.6</ele>
        <time>1970-01-01T00:37:18.000Z</time>
      </trkpt>
      <trkpt lat="40.349325" lon="-3.336173">
        <ele>792.6</ele>
        <time>1970-01-01T00:37:19.000Z</time>
      </trkpt>
      <trkpt lat="40.349294" lon="-3.336226">
        <ele>792.6</ele>
        <time>1970-01-01T00:37:20.000Z</time>
      </trkpt>
      <trkpt lat="40.349263" lon="-3.336279">
        <ele>792.6</ele>
        <time>1970-01-01T00:37:21.000Z</time>
      </trkpt>
      <trkpt lat="40.349233" lon="-3.336331">
        <ele>792.8</ele>
        <time>1970-01-01T00:37:22.000Z</time>
      </trkpt>
      <trkpt lat="40.349203" lon="-3.336382">
        <ele>792.8</ele>
        <time>1970-01-01T00:37:23.000Z</time>
      </trkpt>
      <trkpt lat="40.349179" lon="-3.336434">
        <ele>793</ele>
        <time>1970-01-01T00:37:24.000Z</time>
      </trkpt>
      <trkpt lat="40.349157" lon="-3.336494">
        <ele>793</ele>
        <time>1970-01-01T00:37:25.000Z</time>
      </trkpt>
      <trkpt lat="40.349133" lon="-3.336557">
        <ele>793.2</ele>
        <time>1970-01-01T00:37:26.000Z</time>
      </trkpt>
      <trkpt lat="40.34911" lon="-3.336621">
        <ele>793.2</ele>
        <time>1970-01-01T00:37:27.000Z</time>
      </trkpt>
      <trkpt lat="40.349091" lon="-3.336685">
        <ele>793.2</ele>
        <time>1970-01-01T00:37:28.000Z</time>
      </trkpt>
      <trkpt lat="40.349073" lon="-3.336749">
        <ele>793.2</ele>
        <time>1970-01-01T00:37:29.000Z</time>
      </trkpt>
      <trkpt lat="40.349056" lon="-3.336812">
        <ele>793.2</ele>
        <time>1970-01-01T00:37:30.000Z</time>
      </trkpt>
      <trkpt lat="40.349039" lon="-3.336875">
        <ele>793.2</ele>
        <time>1970-01-01T00:37:31.000Z</time>
      </trkpt>
      <trkpt lat="40.349021" lon="-3.336938">
        <ele>793.2</ele>
        <time>1970-01-01T00:37:32.000Z</time>
      </trkpt>
      <trkpt lat="40.349006" lon="-3.337001">
        <ele>793</ele>
        <time>1970-01-01T00:37:33.000Z</time>
      </trkpt>
      <trkpt lat="40.348991" lon="-3.337063">
        <ele>793</ele>
        <time>1970-01-01T00:37:34.000Z</time>
      </trkpt>
      <trkpt lat="40.348974" lon="-3.337128">
        <ele>792.8</ele>
        <time>1970-01-01T00:37:35.000Z</time>
      </trkpt>
      <trkpt lat="40.348957" lon="-3.337195">
        <ele>792.6</ele>
        <time>1970-01-01T00:37:36.000Z</time>
      </trkpt>
      <trkpt lat="40.34894" lon="-3.337262">
        <ele>792.6</ele>
        <time>1970-01-01T00:37:37.000Z</time>
      </trkpt>
      <trkpt lat="40.348923" lon="-3.337333">
        <ele>792.6</ele>
        <time>1970-01-01T00:37:38.000Z</time>
      </trkpt>
      <trkpt lat="40.348907" lon="-3.337406">
        <ele>792.4</ele>
        <time>1970-01-01T00:37:39.000Z</time>
      </trkpt>
      <trkpt lat="40.348887" lon="-3.337482">
        <ele>792.4</ele>
        <time>1970-01-01T00:37:40.000Z</time>
      </trkpt>
      <trkpt lat="40.348868" lon="-3.337558">
        <ele>792.4</ele>
        <time>1970-01-01T00:37:41.000Z</time>
      </trkpt>
      <trkpt lat="40.348848" lon="-3.337637">
        <ele>792.2</ele>
        <time>1970-01-01T00:37:42.000Z</time>
      </trkpt>
      <trkpt lat="40.348829" lon="-3.337714">
        <ele>792</ele>
        <time>1970-01-01T00:37:43.000Z</time>
      </trkpt>
      <trkpt lat="40.348812" lon="-3.33779">
        <ele>792</ele>
        <time>1970-01-01T00:37:44.000Z</time>
      </trkpt>
      <trkpt lat="40.348797" lon="-3.337866">
        <ele>792</ele>
        <time>1970-01-01T00:37:45.000Z</time>
      </trkpt>
      <trkpt lat="40.348783" lon="-3.337943">
        <ele>791.8</ele>
        <time>1970-01-01T00:37:46.000Z</time>
      </trkpt>
      <trkpt lat="40.348771" lon="-3.338021">
        <ele>791.6</ele>
        <time>1970-01-01T00:37:47.000Z</time>
      </trkpt>
      <trkpt lat="40.348757" lon="-3.338098">
        <ele>791.4</ele>
        <time>1970-01-01T00:37:48.000Z</time>
      </trkpt>
      <trkpt lat="40.34874" lon="-3.338176">
        <ele>791.4</ele>
        <time>1970-01-01T00:37:49.000Z</time>
      </trkpt>
      <trkpt lat="40.348722" lon="-3.338255">
        <ele>791</ele>
        <time>1970-01-01T00:37:50.000Z</time>
      </trkpt>
      <trkpt lat="40.348705" lon="-3.338338">
        <ele>791</ele>
        <time>1970-01-01T00:37:51.000Z</time>
      </trkpt>
      <trkpt lat="40.348692" lon="-3.338423">
        <ele>790.8</ele>
        <time>1970-01-01T00:37:52.000Z</time>
      </trkpt>
      <trkpt lat="40.34868" lon="-3.33851">
        <ele>790.8</ele>
        <time>1970-01-01T00:37:53.000Z</time>
      </trkpt>
      <trkpt lat="40.348668" lon="-3.338596">
        <ele>790.8</ele>
        <time>1970-01-01T00:37:54.000Z</time>
      </trkpt>
      <trkpt lat="40.348653" lon="-3.338684">
        <ele>790.8</ele>
        <time>1970-01-01T00:37:55.000Z</time>
      </trkpt>
      <trkpt lat="40.348639" lon="-3.338771">
        <ele>790.8</ele>
        <time>1970-01-01T00:37:56.000Z</time>
      </trkpt>
      <trkpt lat="40.348623" lon="-3.338858">
        <ele>790.6</ele>
        <time>1970-01-01T00:37:57.000Z</time>
      </trkpt>
      <trkpt lat="40.348607" lon="-3.338944">
        <ele>790.6</ele>
        <time>1970-01-01T00:37:58.000Z</time>
      </trkpt>
      <trkpt lat="40.348589" lon="-3.339031">
        <ele>790.6</ele>
        <time>1970-01-01T00:37:59.000Z</time>
      </trkpt>
      <trkpt lat="40.348572" lon="-3.339117">
        <ele>790.6</ele>
        <time>1970-01-01T00:38:00.000Z</time>
      </trkpt>
      <trkpt lat="40.348554" lon="-3.339204">
        <ele>790.6</ele>
        <time>1970-01-01T00:38:01.000Z</time>
      </trkpt>
      <trkpt lat="40.348535" lon="-3.339292">
        <ele>790.6</ele>
        <time>1970-01-01T00:38:02.000Z</time>
      </trkpt>
      <trkpt lat="40.348514" lon="-3.33938">
        <ele>790.6</ele>
        <time>1970-01-01T00:38:03.000Z</time>
      </trkpt>
      <trkpt lat="40.348494" lon="-3.339467">
        <ele>790.4</ele>
        <time>1970-01-01T00:38:04.000Z</time>
      </trkpt>
      <trkpt lat="40.348476" lon="-3.339555">
        <ele>790.4</ele>
        <time>1970-01-01T00:38:05.000Z</time>
      </trkpt>
      <trkpt lat="40.348458" lon="-3.339642">
        <ele>790.2</ele>
        <time>1970-01-01T00:38:06.000Z</time>
      </trkpt>
      <trkpt lat="40.348436" lon="-3.33973">
        <ele>790</ele>
        <time>1970-01-01T00:38:07.000Z</time>
      </trkpt>
      <trkpt lat="40.348414" lon="-3.339817">
        <ele>790</ele>
        <time>1970-01-01T00:38:08.000Z</time>
      </trkpt>
      <trkpt lat="40.348396" lon="-3.339907">
        <ele>790</ele>
        <time>1970-01-01T00:38:09.000Z</time>
      </trkpt>
      <trkpt lat="40.348383" lon="-3.339997">
        <ele>790</ele>
        <time>1970-01-01T00:38:10.000Z</time>
      </trkpt>
      <trkpt lat="40.348372" lon="-3.340088">
        <ele>789.8</ele>
        <time>1970-01-01T00:38:11.000Z</time>
      </trkpt>
      <trkpt lat="40.34836" lon="-3.340177">
        <ele>789.8</ele>
        <time>1970-01-01T00:38:12.000Z</time>
      </trkpt>
      <trkpt lat="40.348349" lon="-3.340266">
        <ele>789.8</ele>
        <time>1970-01-01T00:38:13.000Z</time>
      </trkpt>
      <trkpt lat="40.348339" lon="-3.340355">
        <ele>789.8</ele>
        <time>1970-01-01T00:38:14.000Z</time>
      </trkpt>
      <trkpt lat="40.348327" lon="-3.340446">
        <ele>789.8</ele>
        <time>1970-01-01T00:38:15.000Z</time>
      </trkpt>
      <trkpt lat="40.348319" lon="-3.340538">
        <ele>789.8</ele>
        <time>1970-01-01T00:38:16.000Z</time>
      </trkpt>
      <trkpt lat="40.348311" lon="-3.340631">
        <ele>789.8</ele>
        <time>1970-01-01T00:38:17.000Z</time>
      </trkpt>
      <trkpt lat="40.348304" lon="-3.340724">
        <ele>790</ele>
        <time>1970-01-01T00:38:18.000Z</time>
      </trkpt>
      <trkpt lat="40.348298" lon="-3.340817">
        <ele>790</ele>
        <time>1970-01-01T00:38:19.000Z</time>
      </trkpt>
      <trkpt lat="40.348291" lon="-3.340908">
        <ele>789.8</ele>
        <time>1970-01-01T00:38:20.000Z</time>
      </trkpt>
      <trkpt lat="40.348283" lon="-3.340999">
        <ele>789.8</ele>
        <time>1970-01-01T00:38:21.000Z</time>
      </trkpt>
      <trkpt lat="40.348274" lon="-3.341091">
        <ele>789.8</ele>
        <time>1970-01-01T00:38:22.000Z</time>
      </trkpt>
      <trkpt lat="40.348265" lon="-3.341185">
        <ele>789.8</ele>
        <time>1970-01-01T00:38:23.000Z</time>
      </trkpt>
      <trkpt lat="40.348255" lon="-3.341277">
        <ele>790</ele>
        <time>1970-01-01T00:38:24.000Z</time>
      </trkpt>
      <trkpt lat="40.348245" lon="-3.341368">
        <ele>789.8</ele>
        <time>1970-01-01T00:38:25.000Z</time>
      </trkpt>
      <trkpt lat="40.348236" lon="-3.341459">
        <ele>789.8</ele>
        <time>1970-01-01T00:38:26.000Z</time>
      </trkpt>
      <trkpt lat="40.348227" lon="-3.341551">
        <ele>789.6</ele>
        <time>1970-01-01T00:38:27.000Z</time>
      </trkpt>
      <trkpt lat="40.34822" lon="-3.341642">
        <ele>789.6</ele>
        <time>1970-01-01T00:38:28.000Z</time>
      </trkpt>
      <trkpt lat="40.34821" lon="-3.341736">
        <ele>789.6</ele>
        <time>1970-01-01T00:38:29.000Z</time>
      </trkpt>
      <trkpt lat="40.348201" lon="-3.341828">
        <ele>789.6</ele>
        <time>1970-01-01T00:38:30.000Z</time>
      </trkpt>
      <trkpt lat="40.348191" lon="-3.341923">
        <ele>789.6</ele>
        <time>1970-01-01T00:38:31.000Z</time>
      </trkpt>
      <trkpt lat="40.348181" lon="-3.342017">
        <ele>789.6</ele>
        <time>1970-01-01T00:38:32.000Z</time>
      </trkpt>
      <trkpt lat="40.348173" lon="-3.34211">
        <ele>789.6</ele>
        <time>1970-01-01T00:38:33.000Z</time>
      </trkpt>
      <trkpt lat="40.348163" lon="-3.342206">
        <ele>789.6</ele>
        <time>1970-01-01T00:38:34.000Z</time>
      </trkpt>
      <trkpt lat="40.348156" lon="-3.3423">
        <ele>789.8</ele>
        <time>1970-01-01T00:38:35.000Z</time>
      </trkpt>
      <trkpt lat="40.348151" lon="-3.342395">
        <ele>789.6</ele>
        <time>1970-01-01T00:38:36.000Z</time>
      </trkpt>
      <trkpt lat="40.348147" lon="-3.342489">
        <ele>789.6</ele>
        <time>1970-01-01T00:38:37.000Z</time>
      </trkpt>
      <trkpt lat="40.348144" lon="-3.342579">
        <ele>789.6</ele>
        <time>1970-01-01T00:38:38.000Z</time>
      </trkpt>
      <trkpt lat="40.348135" lon="-3.342669">
        <ele>789.8</ele>
        <time>1970-01-01T00:38:39.000Z</time>
      </trkpt>
      <trkpt lat="40.348129" lon="-3.342759">
        <ele>789.8</ele>
        <time>1970-01-01T00:38:40.000Z</time>
      </trkpt>
      <trkpt lat="40.348127" lon="-3.342847">
        <ele>789.8</ele>
        <time>1970-01-01T00:38:41.000Z</time>
      </trkpt>
      <trkpt lat="40.348126" lon="-3.342936">
        <ele>789.6</ele>
        <time>1970-01-01T00:38:42.000Z</time>
      </trkpt>
      <trkpt lat="40.348123" lon="-3.343027">
        <ele>789.2</ele>
        <time>1970-01-01T00:38:43.000Z</time>
      </trkpt>
      <trkpt lat="40.348118" lon="-3.343118">
        <ele>789.2</ele>
        <time>1970-01-01T00:38:44.000Z</time>
      </trkpt>
      <trkpt lat="40.34811" lon="-3.343211">
        <ele>789</ele>
        <time>1970-01-01T00:38:45.000Z</time>
      </trkpt>
      <trkpt lat="40.3481" lon="-3.343304">
        <ele>789</ele>
        <time>1970-01-01T00:38:46.000Z</time>
      </trkpt>
      <trkpt lat="40.348086" lon="-3.343397">
        <ele>789</ele>
        <time>1970-01-01T00:38:47.000Z</time>
      </trkpt>
      <trkpt lat="40.348071" lon="-3.343488">
        <ele>788.8</ele>
        <time>1970-01-01T00:38:48.000Z</time>
      </trkpt>
      <trkpt lat="40.348054" lon="-3.343576">
        <ele>788.8</ele>
        <time>1970-01-01T00:38:49.000Z</time>
      </trkpt>
      <trkpt lat="40.348036" lon="-3.343663">
        <ele>788.6</ele>
        <time>1970-01-01T00:38:50.000Z</time>
      </trkpt>
      <trkpt lat="40.348018" lon="-3.343747">
        <ele>788.6</ele>
        <time>1970-01-01T00:38:51.000Z</time>
      </trkpt>
      <trkpt lat="40.347999" lon="-3.343828">
        <ele>788.6</ele>
        <time>1970-01-01T00:38:52.000Z</time>
      </trkpt>
      <trkpt lat="40.34798" lon="-3.343908">
        <ele>788.6</ele>
        <time>1970-01-01T00:38:53.000Z</time>
      </trkpt>
      <trkpt lat="40.347962" lon="-3.343989">
        <ele>788.6</ele>
        <time>1970-01-01T00:38:54.000Z</time>
      </trkpt>
      <trkpt lat="40.347944" lon="-3.344067">
        <ele>788.4</ele>
        <time>1970-01-01T00:38:55.000Z</time>
      </trkpt>
      <trkpt lat="40.347927" lon="-3.344138">
        <ele>788.4</ele>
        <time>1970-01-01T00:38:56.000Z</time>
      </trkpt>
      <trkpt lat="40.347911" lon="-3.344201">
        <ele>788.4</ele>
        <time>1970-01-01T00:38:57.000Z</time>
      </trkpt>
      <trkpt lat="40.347896" lon="-3.344266">
        <ele>788.2</ele>
        <time>1970-01-01T00:38:58.000Z</time>
      </trkpt>
      <trkpt lat="40.34788" lon="-3.344331">
        <ele>788.2</ele>
        <time>1970-01-01T00:38:59.000Z</time>
      </trkpt>
      <trkpt lat="40.347864" lon="-3.344396">
        <ele>788</ele>
        <time>1970-01-01T00:39:00.000Z</time>
      </trkpt>
      <trkpt lat="40.347847" lon="-3.344464">
        <ele>788</ele>
        <time>1970-01-01T00:39:01.000Z</time>
      </trkpt>
      <trkpt lat="40.347829" lon="-3.344532">
        <ele>788</ele>
        <time>1970-01-01T00:39:02.000Z</time>
      </trkpt>
      <trkpt lat="40.347811" lon="-3.3446">
        <ele>787.8</ele>
        <time>1970-01-01T00:39:03.000Z</time>
      </trkpt>
      <trkpt lat="40.347794" lon="-3.344669">
        <ele>787.8</ele>
        <time>1970-01-01T00:39:04.000Z</time>
      </trkpt>
      <trkpt lat="40.347776" lon="-3.344738">
        <ele>787.8</ele>
        <time>1970-01-01T00:39:05.000Z</time>
      </trkpt>
      <trkpt lat="40.34776" lon="-3.344806">
        <ele>787.6</ele>
        <time>1970-01-01T00:39:06.000Z</time>
      </trkpt>
      <trkpt lat="40.347744" lon="-3.344874">
        <ele>787.6</ele>
        <time>1970-01-01T00:39:07.000Z</time>
      </trkpt>
      <trkpt lat="40.347729" lon="-3.344939">
        <ele>787.6</ele>
        <time>1970-01-01T00:39:08.000Z</time>
      </trkpt>
      <trkpt lat="40.347712" lon="-3.345002">
        <ele>787.6</ele>
        <time>1970-01-01T00:39:09.000Z</time>
      </trkpt>
      <trkpt lat="40.347696" lon="-3.345067">
        <ele>787.6</ele>
        <time>1970-01-01T00:39:10.000Z</time>
      </trkpt>
      <trkpt lat="40.347682" lon="-3.345132">
        <ele>787.6</ele>
        <time>1970-01-01T00:39:11.000Z</time>
      </trkpt>
      <trkpt lat="40.34767" lon="-3.345197">
        <ele>787.6</ele>
        <time>1970-01-01T00:39:12.000Z</time>
      </trkpt>
      <trkpt lat="40.347656" lon="-3.345261">
        <ele>787.4</ele>
        <time>1970-01-01T00:39:13.000Z</time>
      </trkpt>
      <trkpt lat="40.347643" lon="-3.345323">
        <ele>787.2</ele>
        <time>1970-01-01T00:39:14.000Z</time>
      </trkpt>
      <trkpt lat="40.34763" lon="-3.345382">
        <ele>787.2</ele>
        <time>1970-01-01T00:39:15.000Z</time>
      </trkpt>
      <trkpt lat="40.347617" lon="-3.34544">
        <ele>787</ele>
        <time>1970-01-01T00:39:16.000Z</time>
      </trkpt>
      <trkpt lat="40.347603" lon="-3.345496">
        <ele>787</ele>
        <time>1970-01-01T00:39:17.000Z</time>
      </trkpt>
      <trkpt lat="40.347592" lon="-3.345547">
        <ele>787</ele>
        <time>1970-01-01T00:39:18.000Z</time>
      </trkpt>
      <trkpt lat="40.34758" lon="-3.345594">
        <ele>787</ele>
        <time>1970-01-01T00:39:19.000Z</time>
      </trkpt>
      <trkpt lat="40.347569" lon="-3.345641">
        <ele>787</ele>
        <time>1970-01-01T00:39:20.000Z</time>
      </trkpt>
      <trkpt lat="40.347557" lon="-3.345687">
        <ele>787</ele>
        <time>1970-01-01T00:39:21.000Z</time>
      </trkpt>
      <trkpt lat="40.347544" lon="-3.345732">
        <ele>787</ele>
        <time>1970-01-01T00:39:22.000Z</time>
      </trkpt>
      <trkpt lat="40.347532" lon="-3.345775">
        <ele>787</ele>
        <time>1970-01-01T00:39:23.000Z</time>
      </trkpt>
      <trkpt lat="40.347521" lon="-3.345815">
        <ele>787</ele>
        <time>1970-01-01T00:39:24.000Z</time>
      </trkpt>
      <trkpt lat="40.347511" lon="-3.345853">
        <ele>787</ele>
        <time>1970-01-01T00:39:25.000Z</time>
      </trkpt>
      <trkpt lat="40.347502" lon="-3.345894">
        <ele>787</ele>
        <time>1970-01-01T00:39:26.000Z</time>
      </trkpt>
      <trkpt lat="40.347491" lon="-3.345934">
        <ele>787</ele>
        <time>1970-01-01T00:39:27.000Z</time>
      </trkpt>
      <trkpt lat="40.347479" lon="-3.345975">
        <ele>787</ele>
        <time>1970-01-01T00:39:28.000Z</time>
      </trkpt>
      <trkpt lat="40.347467" lon="-3.346017">
        <ele>787</ele>
        <time>1970-01-01T00:39:29.000Z</time>
      </trkpt>
      <trkpt lat="40.347454" lon="-3.346063">
        <ele>786.8</ele>
        <time>1970-01-01T00:39:30.000Z</time>
      </trkpt>
      <trkpt lat="40.347439" lon="-3.346111">
        <ele>786.8</ele>
        <time>1970-01-01T00:39:31.000Z</time>
      </trkpt>
      <trkpt lat="40.347423" lon="-3.34616">
        <ele>786.8</ele>
        <time>1970-01-01T00:39:32.000Z</time>
      </trkpt>
      <trkpt lat="40.347408" lon="-3.346209">
        <ele>786.6</ele>
        <time>1970-01-01T00:39:33.000Z</time>
      </trkpt>
      <trkpt lat="40.347395" lon="-3.346255">
        <ele>786.6</ele>
        <time>1970-01-01T00:39:34.000Z</time>
      </trkpt>
      <trkpt lat="40.347379" lon="-3.346301">
        <ele>786.6</ele>
        <time>1970-01-01T00:39:35.000Z</time>
      </trkpt>
      <trkpt lat="40.347361" lon="-3.346346">
        <ele>786.4</ele>
        <time>1970-01-01T00:39:36.000Z</time>
      </trkpt>
      <trkpt lat="40.34734" lon="-3.346395">
        <ele>786.2</ele>
        <time>1970-01-01T00:39:37.000Z</time>
      </trkpt>
      <trkpt lat="40.347313" lon="-3.346445">
        <ele>786.2</ele>
        <time>1970-01-01T00:39:38.000Z</time>
      </trkpt>
      <trkpt lat="40.347283" lon="-3.346498">
        <ele>786.2</ele>
        <time>1970-01-01T00:39:39.000Z</time>
      </trkpt>
      <trkpt lat="40.347253" lon="-3.346557">
        <ele>786.2</ele>
        <time>1970-01-01T00:39:40.000Z</time>
      </trkpt>
      <trkpt lat="40.347223" lon="-3.346621">
        <ele>786.2</ele>
        <time>1970-01-01T00:39:41.000Z</time>
      </trkpt>
      <trkpt lat="40.347192" lon="-3.346686">
        <ele>786.2</ele>
        <time>1970-01-01T00:39:42.000Z</time>
      </trkpt>
      <trkpt lat="40.347159" lon="-3.346753">
        <ele>786.2</ele>
        <time>1970-01-01T00:39:43.000Z</time>
      </trkpt>
      <trkpt lat="40.347125" lon="-3.346825">
        <ele>786</ele>
        <time>1970-01-01T00:39:44.000Z</time>
      </trkpt>
      <trkpt lat="40.347091" lon="-3.346899">
        <ele>786</ele>
        <time>1970-01-01T00:39:45.000Z</time>
      </trkpt>
      <trkpt lat="40.347053" lon="-3.346973">
        <ele>786</ele>
        <time>1970-01-01T00:39:46.000Z</time>
      </trkpt>
      <trkpt lat="40.347014" lon="-3.347045">
        <ele>786</ele>
        <time>1970-01-01T00:39:47.000Z</time>
      </trkpt>
      <trkpt lat="40.346976" lon="-3.347118">
        <ele>785.8</ele>
        <time>1970-01-01T00:39:48.000Z</time>
      </trkpt>
      <trkpt lat="40.346938" lon="-3.347188">
        <ele>785.8</ele>
        <time>1970-01-01T00:39:49.000Z</time>
      </trkpt>
      <trkpt lat="40.3469" lon="-3.347253">
        <ele>785.8</ele>
        <time>1970-01-01T00:39:50.000Z</time>
      </trkpt>
      <trkpt lat="40.346863" lon="-3.347313">
        <ele>785.8</ele>
        <time>1970-01-01T00:39:51.000Z</time>
      </trkpt>
      <trkpt lat="40.346827" lon="-3.347367">
        <ele>785.6</ele>
        <time>1970-01-01T00:39:52.000Z</time>
      </trkpt>
      <trkpt lat="40.346792" lon="-3.347417">
        <ele>785.6</ele>
        <time>1970-01-01T00:39:53.000Z</time>
      </trkpt>
      <trkpt lat="40.346759" lon="-3.347467">
        <ele>785.6</ele>
        <time>1970-01-01T00:39:54.000Z</time>
      </trkpt>
      <trkpt lat="40.346723" lon="-3.347516">
        <ele>785.4</ele>
        <time>1970-01-01T00:39:55.000Z</time>
      </trkpt>
      <trkpt lat="40.346687" lon="-3.347565">
        <ele>785.4</ele>
        <time>1970-01-01T00:39:56.000Z</time>
      </trkpt>
      <trkpt lat="40.346645" lon="-3.347622">
        <ele>785.4</ele>
        <time>1970-01-01T00:39:57.000Z</time>
      </trkpt>
      <trkpt lat="40.346617" lon="-3.347662">
        <ele>785.2</ele>
        <time>1970-01-01T00:39:58.000Z</time>
      </trkpt>
      <trkpt lat="40.346584" lon="-3.347711">
        <ele>785.2</ele>
        <time>1970-01-01T00:39:59.000Z</time>
      </trkpt>
      <trkpt lat="40.34655" lon="-3.34776">
        <ele>785.2</ele>
        <time>1970-01-01T00:40:00.000Z</time>
      </trkpt>
      <trkpt lat="40.346512" lon="-3.34781">
        <ele>785.2</ele>
        <time>1970-01-01T00:40:01.000Z</time>
      </trkpt>
      <trkpt lat="40.346473" lon="-3.347862">
        <ele>785.2</ele>
        <time>1970-01-01T00:40:02.000Z</time>
      </trkpt>
      <trkpt lat="40.346434" lon="-3.347915">
        <ele>785.2</ele>
        <time>1970-01-01T00:40:03.000Z</time>
      </trkpt>
      <trkpt lat="40.346397" lon="-3.347968">
        <ele>785</ele>
        <time>1970-01-01T00:40:04.000Z</time>
      </trkpt>
      <trkpt lat="40.346361" lon="-3.348022">
        <ele>785</ele>
        <time>1970-01-01T00:40:05.000Z</time>
      </trkpt>
      <trkpt lat="40.346323" lon="-3.348075">
        <ele>784.8</ele>
        <time>1970-01-01T00:40:06.000Z</time>
      </trkpt>
      <trkpt lat="40.346288" lon="-3.348126">
        <ele>784.8</ele>
        <time>1970-01-01T00:40:07.000Z</time>
      </trkpt>
      <trkpt lat="40.346253" lon="-3.348177">
        <ele>784.6</ele>
        <time>1970-01-01T00:40:08.000Z</time>
      </trkpt>
      <trkpt lat="40.346216" lon="-3.348229">
        <ele>784.4</ele>
        <time>1970-01-01T00:40:09.000Z</time>
      </trkpt>
      <trkpt lat="40.346181" lon="-3.348282">
        <ele>784.4</ele>
        <time>1970-01-01T00:40:10.000Z</time>
      </trkpt>
      <trkpt lat="40.346141" lon="-3.348336">
        <ele>784.2</ele>
        <time>1970-01-01T00:40:11.000Z</time>
      </trkpt>
      <trkpt lat="40.346101" lon="-3.348391">
        <ele>784.2</ele>
        <time>1970-01-01T00:40:12.000Z</time>
      </trkpt>
      <trkpt lat="40.346062" lon="-3.348448">
        <ele>784</ele>
        <time>1970-01-01T00:40:13.000Z</time>
      </trkpt>
      <trkpt lat="40.346025" lon="-3.348505">
        <ele>784</ele>
        <time>1970-01-01T00:40:14.000Z</time>
      </trkpt>
      <trkpt lat="40.345988" lon="-3.348562">
        <ele>784</ele>
        <time>1970-01-01T00:40:15.000Z</time>
      </trkpt>
      <trkpt lat="40.345949" lon="-3.348617">
        <ele>783.8</ele>
        <time>1970-01-01T00:40:16.000Z</time>
      </trkpt>
      <trkpt lat="40.345912" lon="-3.348672">
        <ele>783.8</ele>
        <time>1970-01-01T00:40:17.000Z</time>
      </trkpt>
      <trkpt lat="40.345874" lon="-3.348726">
        <ele>783.8</ele>
        <time>1970-01-01T00:40:18.000Z</time>
      </trkpt>
      <trkpt lat="40.345837" lon="-3.348781">
        <ele>783.8</ele>
        <time>1970-01-01T00:40:19.000Z</time>
      </trkpt>
      <trkpt lat="40.345799" lon="-3.348835">
        <ele>783.6</ele>
        <time>1970-01-01T00:40:20.000Z</time>
      </trkpt>
      <trkpt lat="40.345761" lon="-3.348888">
        <ele>783.6</ele>
        <time>1970-01-01T00:40:21.000Z</time>
      </trkpt>
      <trkpt lat="40.345726" lon="-3.348941">
        <ele>783.6</ele>
        <time>1970-01-01T00:40:22.000Z</time>
      </trkpt>
      <trkpt lat="40.345689" lon="-3.348992">
        <ele>783.6</ele>
        <time>1970-01-01T00:40:23.000Z</time>
      </trkpt>
      <trkpt lat="40.345649" lon="-3.349043">
        <ele>783.4</ele>
        <time>1970-01-01T00:40:24.000Z</time>
      </trkpt>
      <trkpt lat="40.345609" lon="-3.349099">
        <ele>783.4</ele>
        <time>1970-01-01T00:40:25.000Z</time>
      </trkpt>
      <trkpt lat="40.345567" lon="-3.349155">
        <ele>783.4</ele>
        <time>1970-01-01T00:40:26.000Z</time>
      </trkpt>
      <trkpt lat="40.345527" lon="-3.349212">
        <ele>783.4</ele>
        <time>1970-01-01T00:40:27.000Z</time>
      </trkpt>
      <trkpt lat="40.345488" lon="-3.349271">
        <ele>783.2</ele>
        <time>1970-01-01T00:40:28.000Z</time>
      </trkpt>
      <trkpt lat="40.345449" lon="-3.349332">
        <ele>783.2</ele>
        <time>1970-01-01T00:40:29.000Z</time>
      </trkpt>
      <trkpt lat="40.345412" lon="-3.349395">
        <ele>783.2</ele>
        <time>1970-01-01T00:40:30.000Z</time>
      </trkpt>
      <trkpt lat="40.345376" lon="-3.34946">
        <ele>783.2</ele>
        <time>1970-01-01T00:40:31.000Z</time>
      </trkpt>
      <trkpt lat="40.345341" lon="-3.349526">
        <ele>783.2</ele>
        <time>1970-01-01T00:40:32.000Z</time>
      </trkpt>
      <trkpt lat="40.345314" lon="-3.34959">
        <ele>783.2</ele>
        <time>1970-01-01T00:40:33.000Z</time>
      </trkpt>
      <trkpt lat="40.345286" lon="-3.349651">
        <ele>783</ele>
        <time>1970-01-01T00:40:34.000Z</time>
      </trkpt>
      <trkpt lat="40.345253" lon="-3.349713">
        <ele>783</ele>
        <time>1970-01-01T00:40:35.000Z</time>
      </trkpt>
      <trkpt lat="40.345219" lon="-3.349777">
        <ele>782.8</ele>
        <time>1970-01-01T00:40:36.000Z</time>
      </trkpt>
      <trkpt lat="40.345186" lon="-3.34984">
        <ele>782.8</ele>
        <time>1970-01-01T00:40:37.000Z</time>
      </trkpt>
      <trkpt lat="40.345152" lon="-3.349896">
        <ele>782.8</ele>
        <time>1970-01-01T00:40:38.000Z</time>
      </trkpt>
      <trkpt lat="40.345116" lon="-3.349953">
        <ele>782.8</ele>
        <time>1970-01-01T00:40:39.000Z</time>
      </trkpt>
      <trkpt lat="40.345083" lon="-3.350012">
        <ele>782.8</ele>
        <time>1970-01-01T00:40:40.000Z</time>
      </trkpt>
      <trkpt lat="40.345049" lon="-3.350071">
        <ele>782.8</ele>
        <time>1970-01-01T00:40:41.000Z</time>
      </trkpt>
      <trkpt lat="40.345011" lon="-3.350128">
        <ele>782.8</ele>
        <time>1970-01-01T00:40:42.000Z</time>
      </trkpt>
      <trkpt lat="40.344978" lon="-3.350182">
        <ele>783</ele>
        <time>1970-01-01T00:40:43.000Z</time>
      </trkpt>
      <trkpt lat="40.344944" lon="-3.350237">
        <ele>783.2</ele>
        <time>1970-01-01T00:40:44.000Z</time>
      </trkpt>
      <trkpt lat="40.344912" lon="-3.350294">
        <ele>783.2</ele>
        <time>1970-01-01T00:40:45.000Z</time>
      </trkpt>
      <trkpt lat="40.34488" lon="-3.350352">
        <ele>783.2</ele>
        <time>1970-01-01T00:40:46.000Z</time>
      </trkpt>
      <trkpt lat="40.34485" lon="-3.350411">
        <ele>783.2</ele>
        <time>1970-01-01T00:40:47.000Z</time>
      </trkpt>
      <trkpt lat="40.344821" lon="-3.350471">
        <ele>783.2</ele>
        <time>1970-01-01T00:40:48.000Z</time>
      </trkpt>
      <trkpt lat="40.344793" lon="-3.350537">
        <ele>783.2</ele>
        <time>1970-01-01T00:40:49.000Z</time>
      </trkpt>
      <trkpt lat="40.344766" lon="-3.350605">
        <ele>783.2</ele>
        <time>1970-01-01T00:40:50.000Z</time>
      </trkpt>
      <trkpt lat="40.34474" lon="-3.350675">
        <ele>783.2</ele>
        <time>1970-01-01T00:40:51.000Z</time>
      </trkpt>
      <trkpt lat="40.344716" lon="-3.350746">
        <ele>783.2</ele>
        <time>1970-01-01T00:40:52.000Z</time>
      </trkpt>
      <trkpt lat="40.344698" lon="-3.350816">
        <ele>783.2</ele>
        <time>1970-01-01T00:40:53.000Z</time>
      </trkpt>
      <trkpt lat="40.344681" lon="-3.35089">
        <ele>783.2</ele>
        <time>1970-01-01T00:40:54.000Z</time>
      </trkpt>
      <trkpt lat="40.344666" lon="-3.350961">
        <ele>783.2</ele>
        <time>1970-01-01T00:40:55.000Z</time>
      </trkpt>
      <trkpt lat="40.34465" lon="-3.351032">
        <ele>783.2</ele>
        <time>1970-01-01T00:40:56.000Z</time>
      </trkpt>
      <trkpt lat="40.344635" lon="-3.351102">
        <ele>783.4</ele>
        <time>1970-01-01T00:40:57.000Z</time>
      </trkpt>
      <trkpt lat="40.34462" lon="-3.351171">
        <ele>783.4</ele>
        <time>1970-01-01T00:40:58.000Z</time>
      </trkpt>
      <trkpt lat="40.344608" lon="-3.35124">
        <ele>783.4</ele>
        <time>1970-01-01T00:40:59.000Z</time>
      </trkpt>
      <trkpt lat="40.3446" lon="-3.351307">
        <ele>783.6</ele>
        <time>1970-01-01T00:41:00.000Z</time>
      </trkpt>
      <trkpt lat="40.344595" lon="-3.351373">
        <ele>783.8</ele>
        <time>1970-01-01T00:41:01.000Z</time>
      </trkpt>
      <trkpt lat="40.344589" lon="-3.351442">
        <ele>783.8</ele>
        <time>1970-01-01T00:41:02.000Z</time>
      </trkpt>
      <trkpt lat="40.34459" lon="-3.351512">
        <ele>783.8</ele>
        <time>1970-01-01T00:41:03.000Z</time>
      </trkpt>
      <trkpt lat="40.344594" lon="-3.351581">
        <ele>784</ele>
        <time>1970-01-01T00:41:04.000Z</time>
      </trkpt>
      <trkpt lat="40.344598" lon="-3.351652">
        <ele>784.2</ele>
        <time>1970-01-01T00:41:05.000Z</time>
      </trkpt>
      <trkpt lat="40.344604" lon="-3.351725">
        <ele>784.2</ele>
        <time>1970-01-01T00:41:06.000Z</time>
      </trkpt>
      <trkpt lat="40.344611" lon="-3.3518">
        <ele>784.4</ele>
        <time>1970-01-01T00:41:07.000Z</time>
      </trkpt>
      <trkpt lat="40.344617" lon="-3.351873">
        <ele>784.4</ele>
        <time>1970-01-01T00:41:08.000Z</time>
      </trkpt>
      <trkpt lat="40.344627" lon="-3.351942">
        <ele>784.6</ele>
        <time>1970-01-01T00:41:09.000Z</time>
      </trkpt>
      <trkpt lat="40.344636" lon="-3.352012">
        <ele>784.6</ele>
        <time>1970-01-01T00:41:10.000Z</time>
      </trkpt>
      <trkpt lat="40.344645" lon="-3.352079">
        <ele>784.8</ele>
        <time>1970-01-01T00:41:11.000Z</time>
      </trkpt>
      <trkpt lat="40.344653" lon="-3.352147">
        <ele>785</ele>
        <time>1970-01-01T00:41:12.000Z</time>
      </trkpt>
      <trkpt lat="40.344653" lon="-3.352219">
        <ele>785.2</ele>
        <time>1970-01-01T00:41:13.000Z</time>
      </trkpt>
      <trkpt lat="40.344653" lon="-3.352293">
        <ele>785.4</ele>
        <time>1970-01-01T00:41:14.000Z</time>
      </trkpt>
      <trkpt lat="40.344655" lon="-3.352369">
        <ele>785.6</ele>
        <time>1970-01-01T00:41:15.000Z</time>
      </trkpt>
      <trkpt lat="40.344654" lon="-3.352445">
        <ele>785.8</ele>
        <time>1970-01-01T00:41:16.000Z</time>
      </trkpt>
      <trkpt lat="40.344649" lon="-3.352522">
        <ele>785.8</ele>
        <time>1970-01-01T00:41:17.000Z</time>
      </trkpt>
      <trkpt lat="40.344641" lon="-3.352599">
        <ele>786</ele>
        <time>1970-01-01T00:41:18.000Z</time>
      </trkpt>
      <trkpt lat="40.344629" lon="-3.352681">
        <ele>786</ele>
        <time>1970-01-01T00:41:19.000Z</time>
      </trkpt>
      <trkpt lat="40.344617" lon="-3.352761">
        <ele>786.2</ele>
        <time>1970-01-01T00:41:20.000Z</time>
      </trkpt>
      <trkpt lat="40.344604" lon="-3.352845">
        <ele>786.2</ele>
        <time>1970-01-01T00:41:21.000Z</time>
      </trkpt>
      <trkpt lat="40.344595" lon="-3.352928">
        <ele>786.2</ele>
        <time>1970-01-01T00:41:22.000Z</time>
      </trkpt>
      <trkpt lat="40.344584" lon="-3.353011">
        <ele>786.2</ele>
        <time>1970-01-01T00:41:23.000Z</time>
      </trkpt>
      <trkpt lat="40.344573" lon="-3.353091">
        <ele>786.4</ele>
        <time>1970-01-01T00:41:24.000Z</time>
      </trkpt>
      <trkpt lat="40.344563" lon="-3.353167">
        <ele>786.4</ele>
        <time>1970-01-01T00:41:25.000Z</time>
      </trkpt>
      <trkpt lat="40.344549" lon="-3.353242">
        <ele>786.4</ele>
        <time>1970-01-01T00:41:26.000Z</time>
      </trkpt>
      <trkpt lat="40.344535" lon="-3.353313">
        <ele>786.6</ele>
        <time>1970-01-01T00:41:27.000Z</time>
      </trkpt>
      <trkpt lat="40.344521" lon="-3.353384">
        <ele>786.6</ele>
        <time>1970-01-01T00:41:28.000Z</time>
      </trkpt>
      <trkpt lat="40.344506" lon="-3.353456">
        <ele>786.8</ele>
        <time>1970-01-01T00:41:29.000Z</time>
      </trkpt>
      <trkpt lat="40.344491" lon="-3.353529">
        <ele>786.8</ele>
        <time>1970-01-01T00:41:30.000Z</time>
      </trkpt>
      <trkpt lat="40.344474" lon="-3.3536">
        <ele>786.8</ele>
        <time>1970-01-01T00:41:31.000Z</time>
      </trkpt>
      <trkpt lat="40.344455" lon="-3.353671">
        <ele>787</ele>
        <time>1970-01-01T00:41:32.000Z</time>
      </trkpt>
      <trkpt lat="40.344435" lon="-3.353743">
        <ele>787.2</ele>
        <time>1970-01-01T00:41:33.000Z</time>
      </trkpt>
      <trkpt lat="40.344417" lon="-3.35381">
        <ele>787.2</ele>
        <time>1970-01-01T00:41:34.000Z</time>
      </trkpt>
      <trkpt lat="40.344396" lon="-3.353875">
        <ele>787.2</ele>
        <time>1970-01-01T00:41:35.000Z</time>
      </trkpt>
      <trkpt lat="40.344376" lon="-3.35394">
        <ele>787.2</ele>
        <time>1970-01-01T00:41:36.000Z</time>
      </trkpt>
      <trkpt lat="40.344355" lon="-3.354007">
        <ele>787.2</ele>
        <time>1970-01-01T00:41:37.000Z</time>
      </trkpt>
      <trkpt lat="40.344333" lon="-3.354074">
        <ele>787.2</ele>
        <time>1970-01-01T00:41:38.000Z</time>
      </trkpt>
      <trkpt lat="40.344313" lon="-3.354137">
        <ele>787.4</ele>
        <time>1970-01-01T00:41:39.000Z</time>
      </trkpt>
      <trkpt lat="40.344295" lon="-3.354201">
        <ele>787.4</ele>
        <time>1970-01-01T00:41:40.000Z</time>
      </trkpt>
      <trkpt lat="40.344277" lon="-3.354268">
        <ele>787.4</ele>
        <time>1970-01-01T00:41:41.000Z</time>
      </trkpt>
      <trkpt lat="40.344261" lon="-3.354335">
        <ele>787.4</ele>
        <time>1970-01-01T00:41:42.000Z</time>
      </trkpt>
      <trkpt lat="40.344245" lon="-3.354403">
        <ele>787.4</ele>
        <time>1970-01-01T00:41:43.000Z</time>
      </trkpt>
      <trkpt lat="40.344232" lon="-3.354473">
        <ele>787.6</ele>
        <time>1970-01-01T00:41:44.000Z</time>
      </trkpt>
      <trkpt lat="40.344219" lon="-3.354544">
        <ele>787.6</ele>
        <time>1970-01-01T00:41:45.000Z</time>
      </trkpt>
      <trkpt lat="40.344205" lon="-3.35462">
        <ele>787.8</ele>
        <time>1970-01-01T00:41:46.000Z</time>
      </trkpt>
      <trkpt lat="40.344197" lon="-3.354694">
        <ele>787.8</ele>
        <time>1970-01-01T00:41:47.000Z</time>
      </trkpt>
      <trkpt lat="40.344189" lon="-3.354769">
        <ele>788</ele>
        <time>1970-01-01T00:41:48.000Z</time>
      </trkpt>
      <trkpt lat="40.344182" lon="-3.354842">
        <ele>788</ele>
        <time>1970-01-01T00:41:49.000Z</time>
      </trkpt>
      <trkpt lat="40.344179" lon="-3.354916">
        <ele>788</ele>
        <time>1970-01-01T00:41:50.000Z</time>
      </trkpt>
      <trkpt lat="40.344178" lon="-3.354988">
        <ele>788.2</ele>
        <time>1970-01-01T00:41:51.000Z</time>
      </trkpt>
      <trkpt lat="40.344179" lon="-3.355061">
        <ele>788.2</ele>
        <time>1970-01-01T00:41:52.000Z</time>
      </trkpt>
      <trkpt lat="40.344186" lon="-3.355132">
        <ele>788.4</ele>
        <time>1970-01-01T00:41:53.000Z</time>
      </trkpt>
      <trkpt lat="40.344197" lon="-3.355203">
        <ele>788.4</ele>
        <time>1970-01-01T00:41:54.000Z</time>
      </trkpt>
      <trkpt lat="40.344213" lon="-3.355272">
        <ele>788.6</ele>
        <time>1970-01-01T00:41:55.000Z</time>
      </trkpt>
      <trkpt lat="40.344233" lon="-3.355339">
        <ele>788.6</ele>
        <time>1970-01-01T00:41:56.000Z</time>
      </trkpt>
      <trkpt lat="40.344256" lon="-3.355407">
        <ele>788.8</ele>
        <time>1970-01-01T00:41:57.000Z</time>
      </trkpt>
      <trkpt lat="40.344277" lon="-3.355476">
        <ele>789</ele>
        <time>1970-01-01T00:41:58.000Z</time>
      </trkpt>
      <trkpt lat="40.344297" lon="-3.355544">
        <ele>789</ele>
        <time>1970-01-01T00:41:59.000Z</time>
      </trkpt>
      <trkpt lat="40.344315" lon="-3.355611">
        <ele>789.2</ele>
        <time>1970-01-01T00:42:00.000Z</time>
      </trkpt>
      <trkpt lat="40.34433" lon="-3.355682">
        <ele>789.2</ele>
        <time>1970-01-01T00:42:01.000Z</time>
      </trkpt>
      <trkpt lat="40.344342" lon="-3.355754">
        <ele>789.2</ele>
        <time>1970-01-01T00:42:02.000Z</time>
      </trkpt>
      <trkpt lat="40.344351" lon="-3.355827">
        <ele>789.4</ele>
        <time>1970-01-01T00:42:03.000Z</time>
      </trkpt>
      <trkpt lat="40.344357" lon="-3.355899">
        <ele>789.4</ele>
        <time>1970-01-01T00:42:04.000Z</time>
      </trkpt>
      <trkpt lat="40.344362" lon="-3.355971">
        <ele>789.6</ele>
        <time>1970-01-01T00:42:05.000Z</time>
      </trkpt>
      <trkpt lat="40.344367" lon="-3.356041">
        <ele>789.6</ele>
        <time>1970-01-01T00:42:06.000Z</time>
      </trkpt>
      <trkpt lat="40.344371" lon="-3.356109">
        <ele>789.6</ele>
        <time>1970-01-01T00:42:07.000Z</time>
      </trkpt>
      <trkpt lat="40.344373" lon="-3.356176">
        <ele>789.8</ele>
        <time>1970-01-01T00:42:08.000Z</time>
      </trkpt>
      <trkpt lat="40.344374" lon="-3.35624">
        <ele>789.8</ele>
        <time>1970-01-01T00:42:09.000Z</time>
      </trkpt>
      <trkpt lat="40.344375" lon="-3.356302">
        <ele>789.8</ele>
        <time>1970-01-01T00:42:10.000Z</time>
      </trkpt>
      <trkpt lat="40.344372" lon="-3.356363">
        <ele>790</ele>
        <time>1970-01-01T00:42:11.000Z</time>
      </trkpt>
      <trkpt lat="40.344363" lon="-3.35642">
        <ele>790</ele>
        <time>1970-01-01T00:42:12.000Z</time>
      </trkpt>
      <trkpt lat="40.344354" lon="-3.356476">
        <ele>790</ele>
        <time>1970-01-01T00:42:13.000Z</time>
      </trkpt>
      <trkpt lat="40.344347" lon="-3.356537">
        <ele>790.6</ele>
        <time>1970-01-01T00:42:14.000Z</time>
      </trkpt>
      <trkpt lat="40.344339" lon="-3.3566">
        <ele>790.8</ele>
        <time>1970-01-01T00:42:15.000Z</time>
      </trkpt>
      <trkpt lat="40.344326" lon="-3.356667">
        <ele>791</ele>
        <time>1970-01-01T00:42:16.000Z</time>
      </trkpt>
      <trkpt lat="40.344317" lon="-3.356734">
        <ele>791</ele>
        <time>1970-01-01T00:42:17.000Z</time>
      </trkpt>
      <trkpt lat="40.344309" lon="-3.356805">
        <ele>791.2</ele>
        <time>1970-01-01T00:42:18.000Z</time>
      </trkpt>
      <trkpt lat="40.344302" lon="-3.356878">
        <ele>791.2</ele>
        <time>1970-01-01T00:42:19.000Z</time>
      </trkpt>
      <trkpt lat="40.344294" lon="-3.356954">
        <ele>791.2</ele>
        <time>1970-01-01T00:42:20.000Z</time>
      </trkpt>
      <trkpt lat="40.344284" lon="-3.357033">
        <ele>791.4</ele>
        <time>1970-01-01T00:42:21.000Z</time>
      </trkpt>
      <trkpt lat="40.344272" lon="-3.357112">
        <ele>791.4</ele>
        <time>1970-01-01T00:42:22.000Z</time>
      </trkpt>
      <trkpt lat="40.344265" lon="-3.357191">
        <ele>791.4</ele>
        <time>1970-01-01T00:42:23.000Z</time>
      </trkpt>
      <trkpt lat="40.344263" lon="-3.35727">
        <ele>791.4</ele>
        <time>1970-01-01T00:42:24.000Z</time>
      </trkpt>
      <trkpt lat="40.344263" lon="-3.357352">
        <ele>791.4</ele>
        <time>1970-01-01T00:42:25.000Z</time>
      </trkpt>
      <trkpt lat="40.344265" lon="-3.357437">
        <ele>791.6</ele>
        <time>1970-01-01T00:42:26.000Z</time>
      </trkpt>
      <trkpt lat="40.344266" lon="-3.357521">
        <ele>791.6</ele>
        <time>1970-01-01T00:42:27.000Z</time>
      </trkpt>
      <trkpt lat="40.344268" lon="-3.357603">
        <ele>791.6</ele>
        <time>1970-01-01T00:42:28.000Z</time>
      </trkpt>
      <trkpt lat="40.344272" lon="-3.357687">
        <ele>791.6</ele>
        <time>1970-01-01T00:42:29.000Z</time>
      </trkpt>
      <trkpt lat="40.344275" lon="-3.35775">
        <ele>791.6</ele>
        <time>1970-01-01T00:42:30.000Z</time>
      </trkpt>
      <trkpt lat="40.344277" lon="-3.357813">
        <ele>791.6</ele>
        <time>1970-01-01T00:42:31.000Z</time>
      </trkpt>
      <trkpt lat="40.344282" lon="-3.35794">
        <ele>791.6</ele>
        <time>1970-01-01T00:42:32.000Z</time>
      </trkpt>
      <trkpt lat="40.344284" lon="-3.358026">
        <ele>791.6</ele>
        <time>1970-01-01T00:42:33.000Z</time>
      </trkpt>
      <trkpt lat="40.344289" lon="-3.358112">
        <ele>791.6</ele>
        <time>1970-01-01T00:42:34.000Z</time>
      </trkpt>
      <trkpt lat="40.344296" lon="-3.358198">
        <ele>791.6</ele>
        <time>1970-01-01T00:42:35.000Z</time>
      </trkpt>
      <trkpt lat="40.344301" lon="-3.358283">
        <ele>791.4</ele>
        <time>1970-01-01T00:42:36.000Z</time>
      </trkpt>
      <trkpt lat="40.344305" lon="-3.358368">
        <ele>791.4</ele>
        <time>1970-01-01T00:42:37.000Z</time>
      </trkpt>
      <trkpt lat="40.344305" lon="-3.358454">
        <ele>791.4</ele>
        <time>1970-01-01T00:42:38.000Z</time>
      </trkpt>
      <trkpt lat="40.344306" lon="-3.358535">
        <ele>791.4</ele>
        <time>1970-01-01T00:42:39.000Z</time>
      </trkpt>
      <trkpt lat="40.344305" lon="-3.358614">
        <ele>791.4</ele>
        <time>1970-01-01T00:42:40.000Z</time>
      </trkpt>
      <trkpt lat="40.344304" lon="-3.358692">
        <ele>791.4</ele>
        <time>1970-01-01T00:42:41.000Z</time>
      </trkpt>
      <trkpt lat="40.344305" lon="-3.358767">
        <ele>791.4</ele>
        <time>1970-01-01T00:42:42.000Z</time>
      </trkpt>
      <trkpt lat="40.344308" lon="-3.358843">
        <ele>791.4</ele>
        <time>1970-01-01T00:42:43.000Z</time>
      </trkpt>
      <trkpt lat="40.344309" lon="-3.358918">
        <ele>791.4</ele>
        <time>1970-01-01T00:42:44.000Z</time>
      </trkpt>
      <trkpt lat="40.344309" lon="-3.358998">
        <ele>791.4</ele>
        <time>1970-01-01T00:42:45.000Z</time>
      </trkpt>
      <trkpt lat="40.344309" lon="-3.359079">
        <ele>791.4</ele>
        <time>1970-01-01T00:42:46.000Z</time>
      </trkpt>
      <trkpt lat="40.344305" lon="-3.359163">
        <ele>791.4</ele>
        <time>1970-01-01T00:42:47.000Z</time>
      </trkpt>
      <trkpt lat="40.344299" lon="-3.359247">
        <ele>791.2</ele>
        <time>1970-01-01T00:42:48.000Z</time>
      </trkpt>
      <trkpt lat="40.344293" lon="-3.359329">
        <ele>791.2</ele>
        <time>1970-01-01T00:42:49.000Z</time>
      </trkpt>
      <trkpt lat="40.344293" lon="-3.359409">
        <ele>791.2</ele>
        <time>1970-01-01T00:42:50.000Z</time>
      </trkpt>
      <trkpt lat="40.344289" lon="-3.359492">
        <ele>791.2</ele>
        <time>1970-01-01T00:42:51.000Z</time>
      </trkpt>
      <trkpt lat="40.344286" lon="-3.359575">
        <ele>791.2</ele>
        <time>1970-01-01T00:42:52.000Z</time>
      </trkpt>
      <trkpt lat="40.34428" lon="-3.359657">
        <ele>791.2</ele>
        <time>1970-01-01T00:42:53.000Z</time>
      </trkpt>
      <trkpt lat="40.344275" lon="-3.359736">
        <ele>791.2</ele>
        <time>1970-01-01T00:42:54.000Z</time>
      </trkpt>
      <trkpt lat="40.344267" lon="-3.359814">
        <ele>791.2</ele>
        <time>1970-01-01T00:42:55.000Z</time>
      </trkpt>
      <trkpt lat="40.344259" lon="-3.359892">
        <ele>791.2</ele>
        <time>1970-01-01T00:42:56.000Z</time>
      </trkpt>
      <trkpt lat="40.344249" lon="-3.359966">
        <ele>791.2</ele>
        <time>1970-01-01T00:42:57.000Z</time>
      </trkpt>
      <trkpt lat="40.344234" lon="-3.360043">
        <ele>791.2</ele>
        <time>1970-01-01T00:42:58.000Z</time>
      </trkpt>
      <trkpt lat="40.344214" lon="-3.360119">
        <ele>791.2</ele>
        <time>1970-01-01T00:42:59.000Z</time>
      </trkpt>
      <trkpt lat="40.344198" lon="-3.360189">
        <ele>791.4</ele>
        <time>1970-01-01T00:43:00.000Z</time>
      </trkpt>
      <trkpt lat="40.344187" lon="-3.360251">
        <ele>791.4</ele>
        <time>1970-01-01T00:43:01.000Z</time>
      </trkpt>
      <trkpt lat="40.344174" lon="-3.360309">
        <ele>791.6</ele>
        <time>1970-01-01T00:43:02.000Z</time>
      </trkpt>
      <trkpt lat="40.344162" lon="-3.360363">
        <ele>791.6</ele>
        <time>1970-01-01T00:43:03.000Z</time>
      </trkpt>
      <trkpt lat="40.344147" lon="-3.360415">
        <ele>791.6</ele>
        <time>1970-01-01T00:43:04.000Z</time>
      </trkpt>
      <trkpt lat="40.344132" lon="-3.360467">
        <ele>791.6</ele>
        <time>1970-01-01T00:43:05.000Z</time>
      </trkpt>
      <trkpt lat="40.344116" lon="-3.360518">
        <ele>791.6</ele>
        <time>1970-01-01T00:43:06.000Z</time>
      </trkpt>
      <trkpt lat="40.344098" lon="-3.360568">
        <ele>791.6</ele>
        <time>1970-01-01T00:43:07.000Z</time>
      </trkpt>
      <trkpt lat="40.344079" lon="-3.360621">
        <ele>791.6</ele>
        <time>1970-01-01T00:43:08.000Z</time>
      </trkpt>
      <trkpt lat="40.344062" lon="-3.360678">
        <ele>791.8</ele>
        <time>1970-01-01T00:43:09.000Z</time>
      </trkpt>
      <trkpt lat="40.344045" lon="-3.360736">
        <ele>791.8</ele>
        <time>1970-01-01T00:43:10.000Z</time>
      </trkpt>
      <trkpt lat="40.344026" lon="-3.360797">
        <ele>791.8</ele>
        <time>1970-01-01T00:43:11.000Z</time>
      </trkpt>
      <trkpt lat="40.344009" lon="-3.360858">
        <ele>792</ele>
        <time>1970-01-01T00:43:12.000Z</time>
      </trkpt>
      <trkpt lat="40.34399" lon="-3.360923">
        <ele>792</ele>
        <time>1970-01-01T00:43:13.000Z</time>
      </trkpt>
      <trkpt lat="40.343973" lon="-3.360992">
        <ele>792.2</ele>
        <time>1970-01-01T00:43:14.000Z</time>
      </trkpt>
      <trkpt lat="40.343958" lon="-3.361064">
        <ele>792.2</ele>
        <time>1970-01-01T00:43:15.000Z</time>
      </trkpt>
      <trkpt lat="40.343946" lon="-3.361137">
        <ele>792.2</ele>
        <time>1970-01-01T00:43:16.000Z</time>
      </trkpt>
      <trkpt lat="40.343937" lon="-3.361213">
        <ele>792.2</ele>
        <time>1970-01-01T00:43:17.000Z</time>
      </trkpt>
      <trkpt lat="40.343929" lon="-3.361292">
        <ele>792.6</ele>
        <time>1970-01-01T00:43:18.000Z</time>
      </trkpt>
      <trkpt lat="40.343921" lon="-3.361374">
        <ele>792.6</ele>
        <time>1970-01-01T00:43:19.000Z</time>
      </trkpt>
      <trkpt lat="40.343914" lon="-3.361457">
        <ele>792.8</ele>
        <time>1970-01-01T00:43:20.000Z</time>
      </trkpt>
      <trkpt lat="40.343907" lon="-3.361539">
        <ele>792.8</ele>
        <time>1970-01-01T00:43:21.000Z</time>
      </trkpt>
      <trkpt lat="40.343902" lon="-3.361616">
        <ele>792.8</ele>
        <time>1970-01-01T00:43:22.000Z</time>
      </trkpt>
      <trkpt lat="40.343895" lon="-3.361697">
        <ele>792.8</ele>
        <time>1970-01-01T00:43:23.000Z</time>
      </trkpt>
      <trkpt lat="40.343887" lon="-3.361779">
        <ele>792.8</ele>
        <time>1970-01-01T00:43:24.000Z</time>
      </trkpt>
      <trkpt lat="40.34388" lon="-3.361858">
        <ele>792.8</ele>
        <time>1970-01-01T00:43:25.000Z</time>
      </trkpt>
      <trkpt lat="40.343875" lon="-3.36194">
        <ele>792.8</ele>
        <time>1970-01-01T00:43:26.000Z</time>
      </trkpt>
      <trkpt lat="40.343868" lon="-3.362024">
        <ele>792.8</ele>
        <time>1970-01-01T00:43:27.000Z</time>
      </trkpt>
      <trkpt lat="40.343859" lon="-3.362107">
        <ele>792.6</ele>
        <time>1970-01-01T00:43:28.000Z</time>
      </trkpt>
      <trkpt lat="40.343852" lon="-3.362186">
        <ele>792.6</ele>
        <time>1970-01-01T00:43:29.000Z</time>
      </trkpt>
      <trkpt lat="40.343844" lon="-3.362268">
        <ele>792.2</ele>
        <time>1970-01-01T00:43:30.000Z</time>
      </trkpt>
      <trkpt lat="40.343836" lon="-3.362351">
        <ele>792.2</ele>
        <time>1970-01-01T00:43:31.000Z</time>
      </trkpt>
      <trkpt lat="40.343831" lon="-3.362437">
        <ele>792</ele>
        <time>1970-01-01T00:43:32.000Z</time>
      </trkpt>
      <trkpt lat="40.343829" lon="-3.362525">
        <ele>792</ele>
        <time>1970-01-01T00:43:33.000Z</time>
      </trkpt>
      <trkpt lat="40.343826" lon="-3.362615">
        <ele>791.8</ele>
        <time>1970-01-01T00:43:34.000Z</time>
      </trkpt>
      <trkpt lat="40.343825" lon="-3.362704">
        <ele>791.8</ele>
        <time>1970-01-01T00:43:35.000Z</time>
      </trkpt>
      <trkpt lat="40.343826" lon="-3.362796">
        <ele>791.8</ele>
        <time>1970-01-01T00:43:36.000Z</time>
      </trkpt>
      <trkpt lat="40.343828" lon="-3.362889">
        <ele>791.8</ele>
        <time>1970-01-01T00:43:37.000Z</time>
      </trkpt>
      <trkpt lat="40.343831" lon="-3.362979">
        <ele>791.8</ele>
        <time>1970-01-01T00:43:38.000Z</time>
      </trkpt>
      <trkpt lat="40.343831" lon="-3.363069">
        <ele>791.6</ele>
        <time>1970-01-01T00:43:39.000Z</time>
      </trkpt>
      <trkpt lat="40.343828" lon="-3.36316">
        <ele>791.6</ele>
        <time>1970-01-01T00:43:40.000Z</time>
      </trkpt>
      <trkpt lat="40.343826" lon="-3.363251">
        <ele>791.4</ele>
        <time>1970-01-01T00:43:41.000Z</time>
      </trkpt>
      <trkpt lat="40.343825" lon="-3.363341">
        <ele>791.4</ele>
        <time>1970-01-01T00:43:42.000Z</time>
      </trkpt>
      <trkpt lat="40.343824" lon="-3.363433">
        <ele>791.4</ele>
        <time>1970-01-01T00:43:43.000Z</time>
      </trkpt>
      <trkpt lat="40.343822" lon="-3.363528">
        <ele>791.4</ele>
        <time>1970-01-01T00:43:44.000Z</time>
      </trkpt>
      <trkpt lat="40.34382" lon="-3.363622">
        <ele>791.2</ele>
        <time>1970-01-01T00:43:45.000Z</time>
      </trkpt>
      <trkpt lat="40.343816" lon="-3.363717">
        <ele>790.8</ele>
        <time>1970-01-01T00:43:46.000Z</time>
      </trkpt>
      <trkpt lat="40.343813" lon="-3.363811">
        <ele>790.4</ele>
        <time>1970-01-01T00:43:47.000Z</time>
      </trkpt>
      <trkpt lat="40.343812" lon="-3.363908">
        <ele>790.4</ele>
        <time>1970-01-01T00:43:48.000Z</time>
      </trkpt>
      <trkpt lat="40.343808" lon="-3.364007">
        <ele>790</ele>
        <time>1970-01-01T00:43:49.000Z</time>
      </trkpt>
      <trkpt lat="40.343799" lon="-3.364106">
        <ele>789.8</ele>
        <time>1970-01-01T00:43:50.000Z</time>
      </trkpt>
      <trkpt lat="40.343803" lon="-3.364194">
        <ele>789.4</ele>
        <time>1970-01-01T00:43:51.000Z</time>
      </trkpt>
      <trkpt lat="40.343811" lon="-3.364281">
        <ele>789.2</ele>
        <time>1970-01-01T00:43:52.000Z</time>
      </trkpt>
      <trkpt lat="40.34382" lon="-3.364364">
        <ele>788.8</ele>
        <time>1970-01-01T00:43:53.000Z</time>
      </trkpt>
      <trkpt lat="40.343825" lon="-3.364446">
        <ele>788.6</ele>
        <time>1970-01-01T00:43:54.000Z</time>
      </trkpt>
      <trkpt lat="40.343831" lon="-3.364533">
        <ele>788.2</ele>
        <time>1970-01-01T00:43:55.000Z</time>
      </trkpt>
      <trkpt lat="40.343839" lon="-3.364622">
        <ele>788.2</ele>
        <time>1970-01-01T00:43:56.000Z</time>
      </trkpt>
      <trkpt lat="40.343845" lon="-3.364712">
        <ele>788</ele>
        <time>1970-01-01T00:43:57.000Z</time>
      </trkpt>
      <trkpt lat="40.34384" lon="-3.364809">
        <ele>787.6</ele>
        <time>1970-01-01T00:43:58.000Z</time>
      </trkpt>
      <trkpt lat="40.343825" lon="-3.364908">
        <ele>787.6</ele>
        <time>1970-01-01T00:43:59.000Z</time>
      </trkpt>
      <trkpt lat="40.343805" lon="-3.365008">
        <ele>787.2</ele>
        <time>1970-01-01T00:44:00.000Z</time>
      </trkpt>
      <trkpt lat="40.343781" lon="-3.365109">
        <ele>787.2</ele>
        <time>1970-01-01T00:44:01.000Z</time>
      </trkpt>
      <trkpt lat="40.343751" lon="-3.36521">
        <ele>786.8</ele>
        <time>1970-01-01T00:44:02.000Z</time>
      </trkpt>
      <trkpt lat="40.343715" lon="-3.365312">
        <ele>785.6</ele>
        <time>1970-01-01T00:44:03.000Z</time>
      </trkpt>
      <trkpt lat="40.343675" lon="-3.365416">
        <ele>785</ele>
        <time>1970-01-01T00:44:04.000Z</time>
      </trkpt>
      <trkpt lat="40.343636" lon="-3.365524">
        <ele>784</ele>
        <time>1970-01-01T00:44:05.000Z</time>
      </trkpt>
      <trkpt lat="40.343599" lon="-3.365634">
        <ele>783.8</ele>
        <time>1970-01-01T00:44:06.000Z</time>
      </trkpt>
      <trkpt lat="40.343564" lon="-3.365745">
        <ele>783</ele>
        <time>1970-01-01T00:44:07.000Z</time>
      </trkpt>
      <trkpt lat="40.343531" lon="-3.365855">
        <ele>782.6</ele>
        <time>1970-01-01T00:44:08.000Z</time>
      </trkpt>
      <trkpt lat="40.3435" lon="-3.365965">
        <ele>782</ele>
        <time>1970-01-01T00:44:09.000Z</time>
      </trkpt>
      <trkpt lat="40.343471" lon="-3.366074">
        <ele>781.2</ele>
        <time>1970-01-01T00:44:10.000Z</time>
      </trkpt>
      <trkpt lat="40.343445" lon="-3.366182">
        <ele>781</ele>
        <time>1970-01-01T00:44:11.000Z</time>
      </trkpt>
      <trkpt lat="40.343427" lon="-3.366289">
        <ele>780</ele>
        <time>1970-01-01T00:44:12.000Z</time>
      </trkpt>
      <trkpt lat="40.34341" lon="-3.366395">
        <ele>779.6</ele>
        <time>1970-01-01T00:44:13.000Z</time>
      </trkpt>
      <trkpt lat="40.343392" lon="-3.366501">
        <ele>779.2</ele>
        <time>1970-01-01T00:44:14.000Z</time>
      </trkpt>
      <trkpt lat="40.343374" lon="-3.366607">
        <ele>779</ele>
        <time>1970-01-01T00:44:15.000Z</time>
      </trkpt>
      <trkpt lat="40.343357" lon="-3.366713">
        <ele>778.6</ele>
        <time>1970-01-01T00:44:16.000Z</time>
      </trkpt>
      <trkpt lat="40.34334" lon="-3.366815">
        <ele>778.4</ele>
        <time>1970-01-01T00:44:17.000Z</time>
      </trkpt>
      <trkpt lat="40.343321" lon="-3.366909">
        <ele>778.2</ele>
        <time>1970-01-01T00:44:18.000Z</time>
      </trkpt>
      <trkpt lat="40.343295" lon="-3.366996">
        <ele>778</ele>
        <time>1970-01-01T00:44:19.000Z</time>
      </trkpt>
      <trkpt lat="40.343263" lon="-3.367079">
        <ele>777.8</ele>
        <time>1970-01-01T00:44:20.000Z</time>
      </trkpt>
      <trkpt lat="40.343224" lon="-3.367156">
        <ele>777.4</ele>
        <time>1970-01-01T00:44:21.000Z</time>
      </trkpt>
      <trkpt lat="40.343194" lon="-3.367216">
        <ele>777.2</ele>
        <time>1970-01-01T00:44:22.000Z</time>
      </trkpt>
      <trkpt lat="40.343156" lon="-3.367309">
        <ele>776.8</ele>
        <time>1970-01-01T00:44:23.000Z</time>
      </trkpt>
      <trkpt lat="40.343139" lon="-3.367388">
        <ele>776.4</ele>
        <time>1970-01-01T00:44:24.000Z</time>
      </trkpt>
      <trkpt lat="40.343127" lon="-3.367466">
        <ele>776.4</ele>
        <time>1970-01-01T00:44:25.000Z</time>
      </trkpt>
      <trkpt lat="40.34311" lon="-3.367543">
        <ele>776.2</ele>
        <time>1970-01-01T00:44:26.000Z</time>
      </trkpt>
      <trkpt lat="40.343087" lon="-3.367615">
        <ele>776.2</ele>
        <time>1970-01-01T00:44:27.000Z</time>
      </trkpt>
      <trkpt lat="40.343057" lon="-3.367681">
        <ele>776.2</ele>
        <time>1970-01-01T00:44:28.000Z</time>
      </trkpt>
      <trkpt lat="40.343025" lon="-3.367742">
        <ele>776</ele>
        <time>1970-01-01T00:44:29.000Z</time>
      </trkpt>
      <trkpt lat="40.342992" lon="-3.367805">
        <ele>776</ele>
        <time>1970-01-01T00:44:30.000Z</time>
      </trkpt>
      <trkpt lat="40.342956" lon="-3.367872">
        <ele>776</ele>
        <time>1970-01-01T00:44:31.000Z</time>
      </trkpt>
      <trkpt lat="40.342913" lon="-3.367939">
        <ele>775.8</ele>
        <time>1970-01-01T00:44:32.000Z</time>
      </trkpt>
      <trkpt lat="40.342865" lon="-3.368012">
        <ele>775.6</ele>
        <time>1970-01-01T00:44:33.000Z</time>
      </trkpt>
      <trkpt lat="40.342816" lon="-3.36809">
        <ele>775.6</ele>
        <time>1970-01-01T00:44:34.000Z</time>
      </trkpt>
      <trkpt lat="40.342766" lon="-3.368171">
        <ele>775.4</ele>
        <time>1970-01-01T00:44:35.000Z</time>
      </trkpt>
      <trkpt lat="40.342715" lon="-3.368257">
        <ele>775.2</ele>
        <time>1970-01-01T00:44:36.000Z</time>
      </trkpt>
      <trkpt lat="40.342663" lon="-3.36835">
        <ele>775</ele>
        <time>1970-01-01T00:44:37.000Z</time>
      </trkpt>
      <trkpt lat="40.342609" lon="-3.368445">
        <ele>774.8</ele>
        <time>1970-01-01T00:44:38.000Z</time>
      </trkpt>
      <trkpt lat="40.342555" lon="-3.368538">
        <ele>774.2</ele>
        <time>1970-01-01T00:44:39.000Z</time>
      </trkpt>
      <trkpt lat="40.342502" lon="-3.368628">
        <ele>773.8</ele>
        <time>1970-01-01T00:44:40.000Z</time>
      </trkpt>
      <trkpt lat="40.342448" lon="-3.368716">
        <ele>773.2</ele>
        <time>1970-01-01T00:44:41.000Z</time>
      </trkpt>
      <trkpt lat="40.342394" lon="-3.368806">
        <ele>772.6</ele>
        <time>1970-01-01T00:44:42.000Z</time>
      </trkpt>
      <trkpt lat="40.342342" lon="-3.368897">
        <ele>772</ele>
        <time>1970-01-01T00:44:43.000Z</time>
      </trkpt>
      <trkpt lat="40.342299" lon="-3.36897">
        <ele>771.2</ele>
        <time>1970-01-01T00:44:44.000Z</time>
      </trkpt>
      <trkpt lat="40.342231" lon="-3.369077">
        <ele>771</ele>
        <time>1970-01-01T00:44:45.000Z</time>
      </trkpt>
      <trkpt lat="40.342173" lon="-3.36916">
        <ele>770.4</ele>
        <time>1970-01-01T00:44:46.000Z</time>
      </trkpt>
      <trkpt lat="40.342117" lon="-3.36924">
        <ele>770</ele>
        <time>1970-01-01T00:44:47.000Z</time>
      </trkpt>
      <trkpt lat="40.342061" lon="-3.369316">
        <ele>769.8</ele>
        <time>1970-01-01T00:44:48.000Z</time>
      </trkpt>
      <trkpt lat="40.342005" lon="-3.369388">
        <ele>769.4</ele>
        <time>1970-01-01T00:44:49.000Z</time>
      </trkpt>
      <trkpt lat="40.341946" lon="-3.369453">
        <ele>769.2</ele>
        <time>1970-01-01T00:44:50.000Z</time>
      </trkpt>
      <trkpt lat="40.341885" lon="-3.369506">
        <ele>768.6</ele>
        <time>1970-01-01T00:44:51.000Z</time>
      </trkpt>
      <trkpt lat="40.341818" lon="-3.369544">
        <ele>768.4</ele>
        <time>1970-01-01T00:44:52.000Z</time>
      </trkpt>
      <trkpt lat="40.341749" lon="-3.369572">
        <ele>768</ele>
        <time>1970-01-01T00:44:53.000Z</time>
      </trkpt>
      <trkpt lat="40.34168" lon="-3.369599">
        <ele>767.6</ele>
        <time>1970-01-01T00:44:54.000Z</time>
      </trkpt>
      <trkpt lat="40.341611" lon="-3.369624">
        <ele>767.2</ele>
        <time>1970-01-01T00:44:55.000Z</time>
      </trkpt>
      <trkpt lat="40.341542" lon="-3.369646">
        <ele>767</ele>
        <time>1970-01-01T00:44:56.000Z</time>
      </trkpt>
      <trkpt lat="40.341475" lon="-3.369668">
        <ele>767</ele>
        <time>1970-01-01T00:44:57.000Z</time>
      </trkpt>
      <trkpt lat="40.34141" lon="-3.369693">
        <ele>766.8</ele>
        <time>1970-01-01T00:44:58.000Z</time>
      </trkpt>
      <trkpt lat="40.34135" lon="-3.36972">
        <ele>766.6</ele>
        <time>1970-01-01T00:44:59.000Z</time>
      </trkpt>
      <trkpt lat="40.341294" lon="-3.36975">
        <ele>766.6</ele>
        <time>1970-01-01T00:45:00.000Z</time>
      </trkpt>
      <trkpt lat="40.341238" lon="-3.369784">
        <ele>766.4</ele>
        <time>1970-01-01T00:45:01.000Z</time>
      </trkpt>
      <trkpt lat="40.341183" lon="-3.369825">
        <ele>766.4</ele>
        <time>1970-01-01T00:45:02.000Z</time>
      </trkpt>
      <trkpt lat="40.341126" lon="-3.369876">
        <ele>766.2</ele>
        <time>1970-01-01T00:45:03.000Z</time>
      </trkpt>
      <trkpt lat="40.341069" lon="-3.369937">
        <ele>766.2</ele>
        <time>1970-01-01T00:45:04.000Z</time>
      </trkpt>
      <trkpt lat="40.341015" lon="-3.370004">
        <ele>766</ele>
        <time>1970-01-01T00:45:05.000Z</time>
      </trkpt>
      <trkpt lat="40.340962" lon="-3.370075">
        <ele>765.8</ele>
        <time>1970-01-01T00:45:06.000Z</time>
      </trkpt>
      <trkpt lat="40.340912" lon="-3.370152">
        <ele>765.4</ele>
        <time>1970-01-01T00:45:07.000Z</time>
      </trkpt>
      <trkpt lat="40.340867" lon="-3.370234">
        <ele>765.2</ele>
        <time>1970-01-01T00:45:08.000Z</time>
      </trkpt>
      <trkpt lat="40.340835" lon="-3.370311">
        <ele>764.8</ele>
        <time>1970-01-01T00:45:09.000Z</time>
      </trkpt>
      <trkpt lat="40.340808" lon="-3.370426">
        <ele>764.4</ele>
        <time>1970-01-01T00:45:10.000Z</time>
      </trkpt>
      <trkpt lat="40.340799" lon="-3.370528">
        <ele>764.2</ele>
        <time>1970-01-01T00:45:11.000Z</time>
      </trkpt>
      <trkpt lat="40.340791" lon="-3.370632">
        <ele>763.8</ele>
        <time>1970-01-01T00:45:12.000Z</time>
      </trkpt>
      <trkpt lat="40.340785" lon="-3.370737">
        <ele>763.4</ele>
        <time>1970-01-01T00:45:13.000Z</time>
      </trkpt>
      <trkpt lat="40.340776" lon="-3.370843">
        <ele>763.2</ele>
        <time>1970-01-01T00:45:14.000Z</time>
      </trkpt>
      <trkpt lat="40.340761" lon="-3.370949">
        <ele>762.8</ele>
        <time>1970-01-01T00:45:15.000Z</time>
      </trkpt>
      <trkpt lat="40.340741" lon="-3.371055">
        <ele>762.6</ele>
        <time>1970-01-01T00:45:16.000Z</time>
      </trkpt>
      <trkpt lat="40.340722" lon="-3.371158">
        <ele>762.4</ele>
        <time>1970-01-01T00:45:17.000Z</time>
      </trkpt>
      <trkpt lat="40.340706" lon="-3.371262">
        <ele>762.2</ele>
        <time>1970-01-01T00:45:18.000Z</time>
      </trkpt>
      <trkpt lat="40.340696" lon="-3.371367">
        <ele>761.6</ele>
        <time>1970-01-01T00:45:19.000Z</time>
      </trkpt>
      <trkpt lat="40.340693" lon="-3.371473">
        <ele>761.4</ele>
        <time>1970-01-01T00:45:20.000Z</time>
      </trkpt>
      <trkpt lat="40.340688" lon="-3.371579">
        <ele>761</ele>
        <time>1970-01-01T00:45:21.000Z</time>
      </trkpt>
      <trkpt lat="40.340681" lon="-3.371682">
        <ele>760.8</ele>
        <time>1970-01-01T00:45:22.000Z</time>
      </trkpt>
      <trkpt lat="40.340674" lon="-3.371782">
        <ele>760.6</ele>
        <time>1970-01-01T00:45:23.000Z</time>
      </trkpt>
      <trkpt lat="40.340667" lon="-3.371884">
        <ele>760.4</ele>
        <time>1970-01-01T00:45:24.000Z</time>
      </trkpt>
      <trkpt lat="40.34066" lon="-3.371986">
        <ele>760.4</ele>
        <time>1970-01-01T00:45:25.000Z</time>
      </trkpt>
      <trkpt lat="40.340652" lon="-3.372083">
        <ele>760</ele>
        <time>1970-01-01T00:45:26.000Z</time>
      </trkpt>
      <trkpt lat="40.340645" lon="-3.372177">
        <ele>760</ele>
        <time>1970-01-01T00:45:27.000Z</time>
      </trkpt>
      <trkpt lat="40.34064" lon="-3.372268">
        <ele>759.8</ele>
        <time>1970-01-01T00:45:28.000Z</time>
      </trkpt>
      <trkpt lat="40.340637" lon="-3.37236">
        <ele>759.8</ele>
        <time>1970-01-01T00:45:29.000Z</time>
      </trkpt>
      <trkpt lat="40.340635" lon="-3.37245">
        <ele>759.4</ele>
        <time>1970-01-01T00:45:30.000Z</time>
      </trkpt>
      <trkpt lat="40.340633" lon="-3.372538">
        <ele>759</ele>
        <time>1970-01-01T00:45:31.000Z</time>
      </trkpt>
      <trkpt lat="40.34063" lon="-3.372625">
        <ele>758.8</ele>
        <time>1970-01-01T00:45:32.000Z</time>
      </trkpt>
      <trkpt lat="40.340629" lon="-3.372708">
        <ele>758.6</ele>
        <time>1970-01-01T00:45:33.000Z</time>
      </trkpt>
      <trkpt lat="40.340628" lon="-3.372792">
        <ele>758.4</ele>
        <time>1970-01-01T00:45:34.000Z</time>
      </trkpt>
      <trkpt lat="40.34063" lon="-3.372879">
        <ele>758.2</ele>
        <time>1970-01-01T00:45:35.000Z</time>
      </trkpt>
      <trkpt lat="40.340629" lon="-3.372965">
        <ele>758</ele>
        <time>1970-01-01T00:45:36.000Z</time>
      </trkpt>
      <trkpt lat="40.340629" lon="-3.373053">
        <ele>757.8</ele>
        <time>1970-01-01T00:45:37.000Z</time>
      </trkpt>
      <trkpt lat="40.34063" lon="-3.37314">
        <ele>757.8</ele>
        <time>1970-01-01T00:45:38.000Z</time>
      </trkpt>
      <trkpt lat="40.34063" lon="-3.373226">
        <ele>757.8</ele>
        <time>1970-01-01T00:45:39.000Z</time>
      </trkpt>
      <trkpt lat="40.340624" lon="-3.373313">
        <ele>757.8</ele>
        <time>1970-01-01T00:45:40.000Z</time>
      </trkpt>
      <trkpt lat="40.340614" lon="-3.373395">
        <ele>757.8</ele>
        <time>1970-01-01T00:45:41.000Z</time>
      </trkpt>
      <trkpt lat="40.340605" lon="-3.37347">
        <ele>757.6</ele>
        <time>1970-01-01T00:45:42.000Z</time>
      </trkpt>
      <trkpt lat="40.340597" lon="-3.373538">
        <ele>757.4</ele>
        <time>1970-01-01T00:45:43.000Z</time>
      </trkpt>
      <trkpt lat="40.340589" lon="-3.373602">
        <ele>757.4</ele>
        <time>1970-01-01T00:45:44.000Z</time>
      </trkpt>
      <trkpt lat="40.34058" lon="-3.373666">
        <ele>757.4</ele>
        <time>1970-01-01T00:45:45.000Z</time>
      </trkpt>
      <trkpt lat="40.340576" lon="-3.373724">
        <ele>757.2</ele>
        <time>1970-01-01T00:45:46.000Z</time>
      </trkpt>
      <trkpt lat="40.340567" lon="-3.373787">
        <ele>757.2</ele>
        <time>1970-01-01T00:45:47.000Z</time>
      </trkpt>
      <trkpt lat="40.340559" lon="-3.373851">
        <ele>757.2</ele>
        <time>1970-01-01T00:45:48.000Z</time>
      </trkpt>
      <trkpt lat="40.340549" lon="-3.373915">
        <ele>757</ele>
        <time>1970-01-01T00:45:49.000Z</time>
      </trkpt>
      <trkpt lat="40.34054" lon="-3.373974">
        <ele>757</ele>
        <time>1970-01-01T00:45:50.000Z</time>
      </trkpt>
      <trkpt lat="40.340526" lon="-3.374036">
        <ele>756.8</ele>
        <time>1970-01-01T00:45:51.000Z</time>
      </trkpt>
      <trkpt lat="40.340514" lon="-3.374098">
        <ele>756.8</ele>
        <time>1970-01-01T00:45:52.000Z</time>
      </trkpt>
      <trkpt lat="40.340501" lon="-3.374154">
        <ele>756.8</ele>
        <time>1970-01-01T00:45:53.000Z</time>
      </trkpt>
      <trkpt lat="40.340484" lon="-3.374208">
        <ele>756.8</ele>
        <time>1970-01-01T00:45:54.000Z</time>
      </trkpt>
      <trkpt lat="40.340468" lon="-3.374262">
        <ele>756.8</ele>
        <time>1970-01-01T00:45:55.000Z</time>
      </trkpt>
      <trkpt lat="40.340452" lon="-3.374315">
        <ele>756.8</ele>
        <time>1970-01-01T00:45:56.000Z</time>
      </trkpt>
      <trkpt lat="40.340439" lon="-3.374363">
        <ele>756.8</ele>
        <time>1970-01-01T00:45:57.000Z</time>
      </trkpt>
      <trkpt lat="40.340427" lon="-3.374413">
        <ele>756.8</ele>
        <time>1970-01-01T00:45:58.000Z</time>
      </trkpt>
      <trkpt lat="40.340413" lon="-3.374463">
        <ele>757</ele>
        <time>1970-01-01T00:45:59.000Z</time>
      </trkpt>
      <trkpt lat="40.340391" lon="-3.374516">
        <ele>757</ele>
        <time>1970-01-01T00:46:00.000Z</time>
      </trkpt>
      <trkpt lat="40.340375" lon="-3.374572">
        <ele>757.2</ele>
        <time>1970-01-01T00:46:01.000Z</time>
      </trkpt>
      <trkpt lat="40.340361" lon="-3.374626">
        <ele>757.2</ele>
        <time>1970-01-01T00:46:02.000Z</time>
      </trkpt>
      <trkpt lat="40.340347" lon="-3.374682">
        <ele>757.4</ele>
        <time>1970-01-01T00:46:03.000Z</time>
      </trkpt>
      <trkpt lat="40.34033" lon="-3.374736">
        <ele>757.4</ele>
        <time>1970-01-01T00:46:04.000Z</time>
      </trkpt>
      <trkpt lat="40.340313" lon="-3.374789">
        <ele>757.6</ele>
        <time>1970-01-01T00:46:05.000Z</time>
      </trkpt>
      <trkpt lat="40.340296" lon="-3.374841">
        <ele>757.8</ele>
        <time>1970-01-01T00:46:06.000Z</time>
      </trkpt>
      <trkpt lat="40.340278" lon="-3.374892">
        <ele>758</ele>
        <time>1970-01-01T00:46:07.000Z</time>
      </trkpt>
      <trkpt lat="40.340259" lon="-3.374941">
        <ele>758</ele>
        <time>1970-01-01T00:46:08.000Z</time>
      </trkpt>
      <trkpt lat="40.34024" lon="-3.37499">
        <ele>758.2</ele>
        <time>1970-01-01T00:46:09.000Z</time>
      </trkpt>
      <trkpt lat="40.340222" lon="-3.375041">
        <ele>758.4</ele>
        <time>1970-01-01T00:46:10.000Z</time>
      </trkpt>
      <trkpt lat="40.340204" lon="-3.375094">
        <ele>758.4</ele>
        <time>1970-01-01T00:46:11.000Z</time>
      </trkpt>
      <trkpt lat="40.340187" lon="-3.375148">
        <ele>758.6</ele>
        <time>1970-01-01T00:46:12.000Z</time>
      </trkpt>
      <trkpt lat="40.340167" lon="-3.375202">
        <ele>758.8</ele>
        <time>1970-01-01T00:46:13.000Z</time>
      </trkpt>
      <trkpt lat="40.34015" lon="-3.375256">
        <ele>759</ele>
        <time>1970-01-01T00:46:14.000Z</time>
      </trkpt>
      <trkpt lat="40.340136" lon="-3.375312">
        <ele>759.2</ele>
        <time>1970-01-01T00:46:15.000Z</time>
      </trkpt>
      <trkpt lat="40.340123" lon="-3.375368">
        <ele>759.4</ele>
        <time>1970-01-01T00:46:16.000Z</time>
      </trkpt>
      <trkpt lat="40.340109" lon="-3.375422">
        <ele>759.6</ele>
        <time>1970-01-01T00:46:17.000Z</time>
      </trkpt>
      <trkpt lat="40.340096" lon="-3.375478">
        <ele>759.8</ele>
        <time>1970-01-01T00:46:18.000Z</time>
      </trkpt>
      <trkpt lat="40.34008" lon="-3.375529">
        <ele>760</ele>
        <time>1970-01-01T00:46:19.000Z</time>
      </trkpt>
      <trkpt lat="40.340065" lon="-3.375582">
        <ele>760.4</ele>
        <time>1970-01-01T00:46:20.000Z</time>
      </trkpt>
      <trkpt lat="40.340049" lon="-3.375632">
        <ele>760.6</ele>
        <time>1970-01-01T00:46:21.000Z</time>
      </trkpt>
      <trkpt lat="40.340031" lon="-3.375681">
        <ele>760.8</ele>
        <time>1970-01-01T00:46:22.000Z</time>
      </trkpt>
      <trkpt lat="40.340014" lon="-3.375729">
        <ele>761</ele>
        <time>1970-01-01T00:46:23.000Z</time>
      </trkpt>
      <trkpt lat="40.339998" lon="-3.375779">
        <ele>761.2</ele>
        <time>1970-01-01T00:46:24.000Z</time>
      </trkpt>
      <trkpt lat="40.33999" lon="-3.375829">
        <ele>761.2</ele>
        <time>1970-01-01T00:46:25.000Z</time>
      </trkpt>
      <trkpt lat="40.339985" lon="-3.375881">
        <ele>761.6</ele>
        <time>1970-01-01T00:46:26.000Z</time>
      </trkpt>
      <trkpt lat="40.339986" lon="-3.375934">
        <ele>761.8</ele>
        <time>1970-01-01T00:46:27.000Z</time>
      </trkpt>
      <trkpt lat="40.33999" lon="-3.375988">
        <ele>762.2</ele>
        <time>1970-01-01T00:46:28.000Z</time>
      </trkpt>
      <trkpt lat="40.339995" lon="-3.376042">
        <ele>762.4</ele>
        <time>1970-01-01T00:46:29.000Z</time>
      </trkpt>
      <trkpt lat="40.339999" lon="-3.376098">
        <ele>762.6</ele>
        <time>1970-01-01T00:46:30.000Z</time>
      </trkpt>
      <trkpt lat="40.340002" lon="-3.37615">
        <ele>763.4</ele>
        <time>1970-01-01T00:46:31.000Z</time>
      </trkpt>
      <trkpt lat="40.340005" lon="-3.376203">
        <ele>763.4</ele>
        <time>1970-01-01T00:46:32.000Z</time>
      </trkpt>
      <trkpt lat="40.340009" lon="-3.376257">
        <ele>764</ele>
        <time>1970-01-01T00:46:33.000Z</time>
      </trkpt>
      <trkpt lat="40.340014" lon="-3.376315">
        <ele>764.2</ele>
        <time>1970-01-01T00:46:34.000Z</time>
      </trkpt>
      <trkpt lat="40.340019" lon="-3.376369">
        <ele>764.4</ele>
        <time>1970-01-01T00:46:35.000Z</time>
      </trkpt>
      <trkpt lat="40.340025" lon="-3.376422">
        <ele>764.6</ele>
        <time>1970-01-01T00:46:36.000Z</time>
      </trkpt>
      <trkpt lat="40.340029" lon="-3.376474">
        <ele>764.6</ele>
        <time>1970-01-01T00:46:37.000Z</time>
      </trkpt>
      <trkpt lat="40.340032" lon="-3.376525">
        <ele>765</ele>
        <time>1970-01-01T00:46:38.000Z</time>
      </trkpt>
      <trkpt lat="40.340034" lon="-3.376574">
        <ele>765</ele>
        <time>1970-01-01T00:46:39.000Z</time>
      </trkpt>
      <trkpt lat="40.340032" lon="-3.376625">
        <ele>765.4</ele>
        <time>1970-01-01T00:46:40.000Z</time>
      </trkpt>
      <trkpt lat="40.340026" lon="-3.376681">
        <ele>765.6</ele>
        <time>1970-01-01T00:46:41.000Z</time>
      </trkpt>
      <trkpt lat="40.340022" lon="-3.376736">
        <ele>766.2</ele>
        <time>1970-01-01T00:46:42.000Z</time>
      </trkpt>
      <trkpt lat="40.340022" lon="-3.376789">
        <ele>766.4</ele>
        <time>1970-01-01T00:46:43.000Z</time>
      </trkpt>
      <trkpt lat="40.340024" lon="-3.376843">
        <ele>767</ele>
        <time>1970-01-01T00:46:44.000Z</time>
      </trkpt>
      <trkpt lat="40.340026" lon="-3.376897">
        <ele>767.4</ele>
        <time>1970-01-01T00:46:45.000Z</time>
      </trkpt>
      <trkpt lat="40.340026" lon="-3.37695">
        <ele>767.4</ele>
        <time>1970-01-01T00:46:46.000Z</time>
      </trkpt>
      <trkpt lat="40.340022" lon="-3.377006">
        <ele>767.6</ele>
        <time>1970-01-01T00:46:47.000Z</time>
      </trkpt>
      <trkpt lat="40.34002" lon="-3.37706">
        <ele>767.8</ele>
        <time>1970-01-01T00:46:48.000Z</time>
      </trkpt>
      <trkpt lat="40.340018" lon="-3.377115">
        <ele>767.8</ele>
        <time>1970-01-01T00:46:49.000Z</time>
      </trkpt>
      <trkpt lat="40.340016" lon="-3.37717">
        <ele>767.8</ele>
        <time>1970-01-01T00:46:50.000Z</time>
      </trkpt>
      <trkpt lat="40.340014" lon="-3.377224">
        <ele>768</ele>
        <time>1970-01-01T00:46:51.000Z</time>
      </trkpt>
      <trkpt lat="40.340011" lon="-3.377279">
        <ele>768.2</ele>
        <time>1970-01-01T00:46:52.000Z</time>
      </trkpt>
      <trkpt lat="40.340009" lon="-3.377335">
        <ele>768.4</ele>
        <time>1970-01-01T00:46:53.000Z</time>
      </trkpt>
      <trkpt lat="40.340005" lon="-3.377393">
        <ele>768.4</ele>
        <time>1970-01-01T00:46:54.000Z</time>
      </trkpt>
      <trkpt lat="40.339998" lon="-3.377454">
        <ele>768.4</ele>
        <time>1970-01-01T00:46:55.000Z</time>
      </trkpt>
      <trkpt lat="40.339991" lon="-3.377515">
        <ele>768.4</ele>
        <time>1970-01-01T00:46:56.000Z</time>
      </trkpt>
      <trkpt lat="40.339983" lon="-3.377574">
        <ele>768.4</ele>
        <time>1970-01-01T00:46:57.000Z</time>
      </trkpt>
      <trkpt lat="40.339971" lon="-3.377634">
        <ele>768.4</ele>
        <time>1970-01-01T00:46:58.000Z</time>
      </trkpt>
      <trkpt lat="40.339956" lon="-3.377694">
        <ele>768.4</ele>
        <time>1970-01-01T00:46:59.000Z</time>
      </trkpt>
      <trkpt lat="40.339938" lon="-3.377751">
        <ele>768.4</ele>
        <time>1970-01-01T00:47:00.000Z</time>
      </trkpt>
      <trkpt lat="40.339918" lon="-3.377807">
        <ele>768.2</ele>
        <time>1970-01-01T00:47:01.000Z</time>
      </trkpt>
      <trkpt lat="40.339894" lon="-3.377863">
        <ele>768.2</ele>
        <time>1970-01-01T00:47:02.000Z</time>
      </trkpt>
      <trkpt lat="40.339871" lon="-3.377916">
        <ele>768.2</ele>
        <time>1970-01-01T00:47:03.000Z</time>
      </trkpt>
      <trkpt lat="40.33985" lon="-3.377965">
        <ele>768</ele>
        <time>1970-01-01T00:47:04.000Z</time>
      </trkpt>
      <trkpt lat="40.339831" lon="-3.378012">
        <ele>768</ele>
        <time>1970-01-01T00:47:05.000Z</time>
      </trkpt>
      <trkpt lat="40.339811" lon="-3.378055">
        <ele>768</ele>
        <time>1970-01-01T00:47:06.000Z</time>
      </trkpt>
      <trkpt lat="40.33979" lon="-3.378098">
        <ele>768</ele>
        <time>1970-01-01T00:47:07.000Z</time>
      </trkpt>
      <trkpt lat="40.33977" lon="-3.378141">
        <ele>768</ele>
        <time>1970-01-01T00:47:08.000Z</time>
      </trkpt>
      <trkpt lat="40.339745" lon="-3.378183">
        <ele>768</ele>
        <time>1970-01-01T00:47:09.000Z</time>
      </trkpt>
      <trkpt lat="40.339717" lon="-3.378222">
        <ele>768</ele>
        <time>1970-01-01T00:47:10.000Z</time>
      </trkpt>
      <trkpt lat="40.339684" lon="-3.378257">
        <ele>768</ele>
        <time>1970-01-01T00:47:11.000Z</time>
      </trkpt>
      <trkpt lat="40.33965" lon="-3.378287">
        <ele>768</ele>
        <time>1970-01-01T00:47:12.000Z</time>
      </trkpt>
      <trkpt lat="40.339607" lon="-3.378312">
        <ele>768</ele>
        <time>1970-01-01T00:47:13.000Z</time>
      </trkpt>
      <trkpt lat="40.339565" lon="-3.378336">
        <ele>768</ele>
        <time>1970-01-01T00:47:14.000Z</time>
      </trkpt>
      <trkpt lat="40.339526" lon="-3.378359">
        <ele>768</ele>
        <time>1970-01-01T00:47:15.000Z</time>
      </trkpt>
      <trkpt lat="40.339488" lon="-3.378382">
        <ele>768</ele>
        <time>1970-01-01T00:47:16.000Z</time>
      </trkpt>
      <trkpt lat="40.33945" lon="-3.378406">
        <ele>768.2</ele>
        <time>1970-01-01T00:47:17.000Z</time>
      </trkpt>
      <trkpt lat="40.339414" lon="-3.378428">
        <ele>768.2</ele>
        <time>1970-01-01T00:47:18.000Z</time>
      </trkpt>
      <trkpt lat="40.339379" lon="-3.378449">
        <ele>768.4</ele>
        <time>1970-01-01T00:47:19.000Z</time>
      </trkpt>
      <trkpt lat="40.339344" lon="-3.37847">
        <ele>768.4</ele>
        <time>1970-01-01T00:47:20.000Z</time>
      </trkpt>
      <trkpt lat="40.339306" lon="-3.37849">
        <ele>768.8</ele>
        <time>1970-01-01T00:47:21.000Z</time>
      </trkpt>
      <trkpt lat="40.33927" lon="-3.378511">
        <ele>769.2</ele>
        <time>1970-01-01T00:47:22.000Z</time>
      </trkpt>
      <trkpt lat="40.339236" lon="-3.378533">
        <ele>769.4</ele>
        <time>1970-01-01T00:47:23.000Z</time>
      </trkpt>
      <trkpt lat="40.339204" lon="-3.378559">
        <ele>769.6</ele>
        <time>1970-01-01T00:47:24.000Z</time>
      </trkpt>
      <trkpt lat="40.339172" lon="-3.37859">
        <ele>769.6</ele>
        <time>1970-01-01T00:47:25.000Z</time>
      </trkpt>
      <trkpt lat="40.339138" lon="-3.37862">
        <ele>769.8</ele>
        <time>1970-01-01T00:47:26.000Z</time>
      </trkpt>
      <trkpt lat="40.339101" lon="-3.378651">
        <ele>769.8</ele>
        <time>1970-01-01T00:47:27.000Z</time>
      </trkpt>
      <trkpt lat="40.339062" lon="-3.378685">
        <ele>770</ele>
        <time>1970-01-01T00:47:28.000Z</time>
      </trkpt>
      <trkpt lat="40.339031" lon="-3.378712">
        <ele>770</ele>
        <time>1970-01-01T00:47:29.000Z</time>
      </trkpt>
      <trkpt lat="40.338996" lon="-3.378747">
        <ele>770.2</ele>
        <time>1970-01-01T00:47:30.000Z</time>
      </trkpt>
      <trkpt lat="40.338958" lon="-3.378791">
        <ele>770.4</ele>
        <time>1970-01-01T00:47:31.000Z</time>
      </trkpt>
      <trkpt lat="40.338929" lon="-3.378834">
        <ele>770.4</ele>
        <time>1970-01-01T00:47:32.000Z</time>
      </trkpt>
      <trkpt lat="40.338904" lon="-3.378882">
        <ele>770.4</ele>
        <time>1970-01-01T00:47:33.000Z</time>
      </trkpt>
      <trkpt lat="40.338878" lon="-3.37893">
        <ele>770.6</ele>
        <time>1970-01-01T00:47:34.000Z</time>
      </trkpt>
      <trkpt lat="40.338853" lon="-3.378978">
        <ele>770.6</ele>
        <time>1970-01-01T00:47:35.000Z</time>
      </trkpt>
      <trkpt lat="40.338827" lon="-3.379034">
        <ele>770.8</ele>
        <time>1970-01-01T00:47:36.000Z</time>
      </trkpt>
      <trkpt lat="40.338807" lon="-3.379089">
        <ele>770.8</ele>
        <time>1970-01-01T00:47:37.000Z</time>
      </trkpt>
      <trkpt lat="40.338789" lon="-3.379143">
        <ele>771</ele>
        <time>1970-01-01T00:47:38.000Z</time>
      </trkpt>
      <trkpt lat="40.338772" lon="-3.3792">
        <ele>771</ele>
        <time>1970-01-01T00:47:39.000Z</time>
      </trkpt>
      <trkpt lat="40.338755" lon="-3.379258">
        <ele>771.2</ele>
        <time>1970-01-01T00:47:40.000Z</time>
      </trkpt>
      <trkpt lat="40.33874" lon="-3.379315">
        <ele>771.4</ele>
        <time>1970-01-01T00:47:41.000Z</time>
      </trkpt>
      <trkpt lat="40.338728" lon="-3.37937">
        <ele>771.6</ele>
        <time>1970-01-01T00:47:42.000Z</time>
      </trkpt>
      <trkpt lat="40.338715" lon="-3.379426">
        <ele>771.6</ele>
        <time>1970-01-01T00:47:43.000Z</time>
      </trkpt>
      <trkpt lat="40.338701" lon="-3.379482">
        <ele>771.6</ele>
        <time>1970-01-01T00:47:44.000Z</time>
      </trkpt>
      <trkpt lat="40.338689" lon="-3.379537">
        <ele>772</ele>
        <time>1970-01-01T00:47:45.000Z</time>
      </trkpt>
      <trkpt lat="40.338674" lon="-3.379588">
        <ele>772</ele>
        <time>1970-01-01T00:47:46.000Z</time>
      </trkpt>
      <trkpt lat="40.338656" lon="-3.379641">
        <ele>772.4</ele>
        <time>1970-01-01T00:47:47.000Z</time>
      </trkpt>
      <trkpt lat="40.338638" lon="-3.379695">
        <ele>772.4</ele>
        <time>1970-01-01T00:47:48.000Z</time>
      </trkpt>
      <trkpt lat="40.338621" lon="-3.379747">
        <ele>772.6</ele>
        <time>1970-01-01T00:47:49.000Z</time>
      </trkpt>
      <trkpt lat="40.338603" lon="-3.379797">
        <ele>772.8</ele>
        <time>1970-01-01T00:47:50.000Z</time>
      </trkpt>
      <trkpt lat="40.338586" lon="-3.379841">
        <ele>773</ele>
        <time>1970-01-01T00:47:51.000Z</time>
      </trkpt>
      <trkpt lat="40.338568" lon="-3.379882">
        <ele>773.2</ele>
        <time>1970-01-01T00:47:52.000Z</time>
      </trkpt>
      <trkpt lat="40.338545" lon="-3.379933">
        <ele>773.2</ele>
        <time>1970-01-01T00:47:53.000Z</time>
      </trkpt>
      <trkpt lat="40.33852" lon="-3.379985">
        <ele>773.2</ele>
        <time>1970-01-01T00:47:54.000Z</time>
      </trkpt>
      <trkpt lat="40.338491" lon="-3.380033">
        <ele>773.2</ele>
        <time>1970-01-01T00:47:55.000Z</time>
      </trkpt>
      <trkpt lat="40.338458" lon="-3.380086">
        <ele>773.2</ele>
        <time>1970-01-01T00:47:56.000Z</time>
      </trkpt>
      <trkpt lat="40.33842" lon="-3.380141">
        <ele>773.2</ele>
        <time>1970-01-01T00:47:57.000Z</time>
      </trkpt>
      <trkpt lat="40.338374" lon="-3.380195">
        <ele>773.2</ele>
        <time>1970-01-01T00:47:58.000Z</time>
      </trkpt>
      <trkpt lat="40.338327" lon="-3.380249">
        <ele>773.2</ele>
        <time>1970-01-01T00:47:59.000Z</time>
      </trkpt>
      <trkpt lat="40.33828" lon="-3.380307">
        <ele>773</ele>
        <time>1970-01-01T00:48:00.000Z</time>
      </trkpt>
      <trkpt lat="40.338227" lon="-3.380362">
        <ele>772.8</ele>
        <time>1970-01-01T00:48:01.000Z</time>
      </trkpt>
      <trkpt lat="40.338174" lon="-3.380414">
        <ele>772.6</ele>
        <time>1970-01-01T00:48:02.000Z</time>
      </trkpt>
      <trkpt lat="40.338122" lon="-3.380466">
        <ele>772.2</ele>
        <time>1970-01-01T00:48:03.000Z</time>
      </trkpt>
      <trkpt lat="40.338088" lon="-3.38053">
        <ele>772</ele>
        <time>1970-01-01T00:48:04.000Z</time>
      </trkpt>
      <trkpt lat="40.338081" lon="-3.380627">
        <ele>771.8</ele>
        <time>1970-01-01T00:48:05.000Z</time>
      </trkpt>
      <trkpt lat="40.338091" lon="-3.380738">
        <ele>771.6</ele>
        <time>1970-01-01T00:48:06.000Z</time>
      </trkpt>
      <trkpt lat="40.338107" lon="-3.380845">
        <ele>771</ele>
        <time>1970-01-01T00:48:07.000Z</time>
      </trkpt>
      <trkpt lat="40.338129" lon="-3.380955">
        <ele>770.6</ele>
        <time>1970-01-01T00:48:08.000Z</time>
      </trkpt>
      <trkpt lat="40.338157" lon="-3.381065">
        <ele>770.4</ele>
        <time>1970-01-01T00:48:09.000Z</time>
      </trkpt>
      <trkpt lat="40.338189" lon="-3.381175">
        <ele>770</ele>
        <time>1970-01-01T00:48:10.000Z</time>
      </trkpt>
      <trkpt lat="40.338217" lon="-3.381289">
        <ele>769.6</ele>
        <time>1970-01-01T00:48:11.000Z</time>
      </trkpt>
      <trkpt lat="40.338242" lon="-3.381398">
        <ele>769</ele>
        <time>1970-01-01T00:48:12.000Z</time>
      </trkpt>
      <trkpt lat="40.338262" lon="-3.381497">
        <ele>768.2</ele>
        <time>1970-01-01T00:48:13.000Z</time>
      </trkpt>
      <trkpt lat="40.338276" lon="-3.381587">
        <ele>767</ele>
        <time>1970-01-01T00:48:14.000Z</time>
      </trkpt>
      <trkpt lat="40.33828" lon="-3.381676">
        <ele>766.6</ele>
        <time>1970-01-01T00:48:15.000Z</time>
      </trkpt>
      <trkpt lat="40.338267" lon="-3.381756">
        <ele>766.4</ele>
        <time>1970-01-01T00:48:16.000Z</time>
      </trkpt>
      <trkpt lat="40.338245" lon="-3.381818">
        <ele>766</ele>
        <time>1970-01-01T00:48:17.000Z</time>
      </trkpt>
      <trkpt lat="40.33823" lon="-3.381876">
        <ele>766</ele>
        <time>1970-01-01T00:48:18.000Z</time>
      </trkpt>
      <trkpt lat="40.338215" lon="-3.381939">
        <ele>765.8</ele>
        <time>1970-01-01T00:48:19.000Z</time>
      </trkpt>
      <trkpt lat="40.338205" lon="-3.382001">
        <ele>765.8</ele>
        <time>1970-01-01T00:48:20.000Z</time>
      </trkpt>
      <trkpt lat="40.3382" lon="-3.38206">
        <ele>765.8</ele>
        <time>1970-01-01T00:48:21.000Z</time>
      </trkpt>
      <trkpt lat="40.338195" lon="-3.382108">
        <ele>765.8</ele>
        <time>1970-01-01T00:48:22.000Z</time>
      </trkpt>
      <trkpt lat="40.338189" lon="-3.382155">
        <ele>765.8</ele>
        <time>1970-01-01T00:48:23.000Z</time>
      </trkpt>
      <trkpt lat="40.338186" lon="-3.382191">
        <ele>765.8</ele>
        <time>1970-01-01T00:48:24.000Z</time>
      </trkpt>
      <trkpt lat="40.338179" lon="-3.382227">
        <ele>765.8</ele>
        <time>1970-01-01T00:48:25.000Z</time>
      </trkpt>
      <trkpt lat="40.338182" lon="-3.382257">
        <ele>766</ele>
        <time>1970-01-01T00:48:26.000Z</time>
      </trkpt>
      <trkpt lat="40.338184" lon="-3.382279">
        <ele>766</ele>
        <time>1970-01-01T00:48:27.000Z</time>
      </trkpt>
      <trkpt lat="40.338174" lon="-3.382291">
        <ele>766.2</ele>
        <time>1970-01-01T00:48:28.000Z</time>
      </trkpt>
      <trkpt lat="40.338154" lon="-3.382294">
        <ele>766.4</ele>
        <time>1970-01-01T00:48:29.000Z</time>
      </trkpt>
      <trkpt lat="40.338133" lon="-3.382286">
        <ele>766.4</ele>
        <time>1970-01-01T00:48:30.000Z</time>
      </trkpt>
      <trkpt lat="40.338108" lon="-3.382268">
        <ele>766.6</ele>
        <time>1970-01-01T00:48:31.000Z</time>
      </trkpt>
      <trkpt lat="40.338078" lon="-3.382243">
        <ele>766.6</ele>
        <time>1970-01-01T00:48:32.000Z</time>
      </trkpt>
      <trkpt lat="40.338042" lon="-3.382216">
        <ele>766.8</ele>
        <time>1970-01-01T00:48:33.000Z</time>
      </trkpt>
      <trkpt lat="40.338007" lon="-3.382188">
        <ele>766.8</ele>
        <time>1970-01-01T00:48:34.000Z</time>
      </trkpt>
      <trkpt lat="40.337974" lon="-3.382162">
        <ele>767</ele>
        <time>1970-01-01T00:48:35.000Z</time>
      </trkpt>
      <trkpt lat="40.337935" lon="-3.382137">
        <ele>767</ele>
        <time>1970-01-01T00:48:36.000Z</time>
      </trkpt>
      <trkpt lat="40.337898" lon="-3.382112">
        <ele>767.2</ele>
        <time>1970-01-01T00:48:37.000Z</time>
      </trkpt>
      <trkpt lat="40.337865" lon="-3.382087">
        <ele>767.2</ele>
        <time>1970-01-01T00:48:38.000Z</time>
      </trkpt>
      <trkpt lat="40.337834" lon="-3.382062">
        <ele>767.4</ele>
        <time>1970-01-01T00:48:39.000Z</time>
      </trkpt>
      <trkpt lat="40.3378" lon="-3.382046">
        <ele>767.4</ele>
        <time>1970-01-01T00:48:40.000Z</time>
      </trkpt>
      <trkpt lat="40.337761" lon="-3.382047">
        <ele>767.6</ele>
        <time>1970-01-01T00:48:41.000Z</time>
      </trkpt>
      <trkpt lat="40.337707" lon="-3.382047">
        <ele>767.6</ele>
        <time>1970-01-01T00:48:42.000Z</time>
      </trkpt>
      <trkpt lat="40.337668" lon="-3.382044">
        <ele>767.8</ele>
        <time>1970-01-01T00:48:43.000Z</time>
      </trkpt>
      <trkpt lat="40.337627" lon="-3.382038">
        <ele>768</ele>
        <time>1970-01-01T00:48:44.000Z</time>
      </trkpt>
      <trkpt lat="40.337586" lon="-3.382036">
        <ele>768</ele>
        <time>1970-01-01T00:48:45.000Z</time>
      </trkpt>
      <trkpt lat="40.337548" lon="-3.382031">
        <ele>768.2</ele>
        <time>1970-01-01T00:48:46.000Z</time>
      </trkpt>
      <trkpt lat="40.337509" lon="-3.382033">
        <ele>768.4</ele>
        <time>1970-01-01T00:48:47.000Z</time>
      </trkpt>
      <trkpt lat="40.337467" lon="-3.382028">
        <ele>768.6</ele>
        <time>1970-01-01T00:48:48.000Z</time>
      </trkpt>
      <trkpt lat="40.337428" lon="-3.382022">
        <ele>768.8</ele>
        <time>1970-01-01T00:48:49.000Z</time>
      </trkpt>
      <trkpt lat="40.337391" lon="-3.382015">
        <ele>768.8</ele>
        <time>1970-01-01T00:48:50.000Z</time>
      </trkpt>
      <trkpt lat="40.337356" lon="-3.382007">
        <ele>769</ele>
        <time>1970-01-01T00:48:51.000Z</time>
      </trkpt>
      <trkpt lat="40.33732" lon="-3.381996">
        <ele>769.2</ele>
        <time>1970-01-01T00:48:52.000Z</time>
      </trkpt>
      <trkpt lat="40.337282" lon="-3.381991">
        <ele>769.2</ele>
        <time>1970-01-01T00:48:53.000Z</time>
      </trkpt>
      <trkpt lat="40.337246" lon="-3.381983">
        <ele>769.4</ele>
        <time>1970-01-01T00:48:54.000Z</time>
      </trkpt>
      <trkpt lat="40.33721" lon="-3.381974">
        <ele>769.6</ele>
        <time>1970-01-01T00:48:55.000Z</time>
      </trkpt>
      <trkpt lat="40.337176" lon="-3.381964">
        <ele>769.8</ele>
        <time>1970-01-01T00:48:56.000Z</time>
      </trkpt>
      <trkpt lat="40.337144" lon="-3.381945">
        <ele>769.8</ele>
        <time>1970-01-01T00:48:57.000Z</time>
      </trkpt>
      <trkpt lat="40.337111" lon="-3.381919">
        <ele>770</ele>
        <time>1970-01-01T00:48:58.000Z</time>
      </trkpt>
      <trkpt lat="40.337077" lon="-3.381891">
        <ele>770.2</ele>
        <time>1970-01-01T00:48:59.000Z</time>
      </trkpt>
      <trkpt lat="40.337043" lon="-3.381857">
        <ele>770.4</ele>
        <time>1970-01-01T00:49:00.000Z</time>
      </trkpt>
      <trkpt lat="40.337011" lon="-3.381824">
        <ele>770.8</ele>
        <time>1970-01-01T00:49:01.000Z</time>
      </trkpt>
      <trkpt lat="40.336986" lon="-3.381789">
        <ele>771</ele>
        <time>1970-01-01T00:49:02.000Z</time>
      </trkpt>
      <trkpt lat="40.336967" lon="-3.381763">
        <ele>771.2</ele>
        <time>1970-01-01T00:49:03.000Z</time>
      </trkpt>
      <trkpt lat="40.336944" lon="-3.38173">
        <ele>771.4</ele>
        <time>1970-01-01T00:49:04.000Z</time>
      </trkpt>
      <trkpt lat="40.33692" lon="-3.381684">
        <ele>771.6</ele>
        <time>1970-01-01T00:49:05.000Z</time>
      </trkpt>
      <trkpt lat="40.3369" lon="-3.381645">
        <ele>772</ele>
        <time>1970-01-01T00:49:06.000Z</time>
      </trkpt>
      <trkpt lat="40.336881" lon="-3.381614">
        <ele>772</ele>
        <time>1970-01-01T00:49:07.000Z</time>
      </trkpt>
      <trkpt lat="40.336863" lon="-3.381591">
        <ele>772.4</ele>
        <time>1970-01-01T00:49:08.000Z</time>
      </trkpt>
      <trkpt lat="40.336849" lon="-3.381574">
        <ele>772.6</ele>
        <time>1970-01-01T00:49:09.000Z</time>
      </trkpt>
      <trkpt lat="40.336836" lon="-3.38156">
        <ele>773</ele>
        <time>1970-01-01T00:49:10.000Z</time>
      </trkpt>
      <trkpt lat="40.336828" lon="-3.381543">
        <ele>773.2</ele>
        <time>1970-01-01T00:49:11.000Z</time>
      </trkpt>
      <trkpt lat="40.336822" lon="-3.381525">
        <ele>773.4</ele>
        <time>1970-01-01T00:49:12.000Z</time>
      </trkpt>
      <trkpt lat="40.336814" lon="-3.381507">
        <ele>773.6</ele>
        <time>1970-01-01T00:49:13.000Z</time>
      </trkpt>
      <trkpt lat="40.336805" lon="-3.381491">
        <ele>773.6</ele>
        <time>1970-01-01T00:49:14.000Z</time>
      </trkpt>
      <trkpt lat="40.336791" lon="-3.381479">
        <ele>773.8</ele>
        <time>1970-01-01T00:49:15.000Z</time>
      </trkpt>
      <trkpt lat="40.336772" lon="-3.381468">
        <ele>774</ele>
        <time>1970-01-01T00:49:16.000Z</time>
      </trkpt>
      <trkpt lat="40.336751" lon="-3.38145">
        <ele>774</ele>
        <time>1970-01-01T00:49:17.000Z</time>
      </trkpt>
      <trkpt lat="40.336735" lon="-3.381426">
        <ele>774</ele>
        <time>1970-01-01T00:49:18.000Z</time>
      </trkpt>
      <trkpt lat="40.336724" lon="-3.381399">
        <ele>774.2</ele>
        <time>1970-01-01T00:49:19.000Z</time>
      </trkpt>
      <trkpt lat="40.336715" lon="-3.381374">
        <ele>774.2</ele>
        <time>1970-01-01T00:49:20.000Z</time>
      </trkpt>
      <trkpt lat="40.336702" lon="-3.381347">
        <ele>774.2</ele>
        <time>1970-01-01T00:49:21.000Z</time>
      </trkpt>
      <trkpt lat="40.336687" lon="-3.381325">
        <ele>774.6</ele>
        <time>1970-01-01T00:49:22.000Z</time>
      </trkpt>
      <trkpt lat="40.336673" lon="-3.381298">
        <ele>774.6</ele>
        <time>1970-01-01T00:49:23.000Z</time>
      </trkpt>
      <trkpt lat="40.336657" lon="-3.381273">
        <ele>774.8</ele>
        <time>1970-01-01T00:49:24.000Z</time>
      </trkpt>
      <trkpt lat="40.336644" lon="-3.381248">
        <ele>775</ele>
        <time>1970-01-01T00:49:25.000Z</time>
      </trkpt>
      <trkpt lat="40.336631" lon="-3.381225">
        <ele>775.2</ele>
        <time>1970-01-01T00:49:26.000Z</time>
      </trkpt>
      <trkpt lat="40.336619" lon="-3.381201">
        <ele>775.6</ele>
        <time>1970-01-01T00:49:27.000Z</time>
      </trkpt>
      <trkpt lat="40.336604" lon="-3.38118">
        <ele>775.8</ele>
        <time>1970-01-01T00:49:28.000Z</time>
      </trkpt>
      <trkpt lat="40.336591" lon="-3.381158">
        <ele>776.2</ele>
        <time>1970-01-01T00:49:29.000Z</time>
      </trkpt>
      <trkpt lat="40.336577" lon="-3.381137">
        <ele>776.4</ele>
        <time>1970-01-01T00:49:30.000Z</time>
      </trkpt>
      <trkpt lat="40.336564" lon="-3.381116">
        <ele>777</ele>
        <time>1970-01-01T00:49:31.000Z</time>
      </trkpt>
      <trkpt lat="40.33655" lon="-3.381092">
        <ele>777</ele>
        <time>1970-01-01T00:49:32.000Z</time>
      </trkpt>
      <trkpt lat="40.336535" lon="-3.381065">
        <ele>777.4</ele>
        <time>1970-01-01T00:49:33.000Z</time>
      </trkpt>
      <trkpt lat="40.336521" lon="-3.381038">
        <ele>777.6</ele>
        <time>1970-01-01T00:49:34.000Z</time>
      </trkpt>
      <trkpt lat="40.336507" lon="-3.38101">
        <ele>777.8</ele>
        <time>1970-01-01T00:49:35.000Z</time>
      </trkpt>
      <trkpt lat="40.336494" lon="-3.380983">
        <ele>778</ele>
        <time>1970-01-01T00:49:36.000Z</time>
      </trkpt>
      <trkpt lat="40.336481" lon="-3.380958">
        <ele>778.4</ele>
        <time>1970-01-01T00:49:37.000Z</time>
      </trkpt>
      <trkpt lat="40.33647" lon="-3.38093">
        <ele>778.8</ele>
        <time>1970-01-01T00:49:38.000Z</time>
      </trkpt>
      <trkpt lat="40.336459" lon="-3.380905">
        <ele>778.8</ele>
        <time>1970-01-01T00:49:39.000Z</time>
      </trkpt>
      <trkpt lat="40.336448" lon="-3.380879">
        <ele>779.2</ele>
        <time>1970-01-01T00:49:40.000Z</time>
      </trkpt>
      <trkpt lat="40.336436" lon="-3.380856">
        <ele>779.4</ele>
        <time>1970-01-01T00:49:41.000Z</time>
      </trkpt>
      <trkpt lat="40.336427" lon="-3.380835">
        <ele>779.8</ele>
        <time>1970-01-01T00:49:42.000Z</time>
      </trkpt>
      <trkpt lat="40.336415" lon="-3.380815">
        <ele>780.2</ele>
        <time>1970-01-01T00:49:43.000Z</time>
      </trkpt>
      <trkpt lat="40.336404" lon="-3.38079">
        <ele>780.6</ele>
        <time>1970-01-01T00:49:44.000Z</time>
      </trkpt>
      <trkpt lat="40.336391" lon="-3.380763">
        <ele>781</ele>
        <time>1970-01-01T00:49:45.000Z</time>
      </trkpt>
      <trkpt lat="40.336378" lon="-3.380738">
        <ele>781</ele>
        <time>1970-01-01T00:49:46.000Z</time>
      </trkpt>
      <trkpt lat="40.336366" lon="-3.380714">
        <ele>781.4</ele>
        <time>1970-01-01T00:49:47.000Z</time>
      </trkpt>
      <trkpt lat="40.336354" lon="-3.380689">
        <ele>781.6</ele>
        <time>1970-01-01T00:49:48.000Z</time>
      </trkpt>
      <trkpt lat="40.336343" lon="-3.380665">
        <ele>781.8</ele>
        <time>1970-01-01T00:49:49.000Z</time>
      </trkpt>
      <trkpt lat="40.336335" lon="-3.380638">
        <ele>782</ele>
        <time>1970-01-01T00:49:50.000Z</time>
      </trkpt>
      <trkpt lat="40.336325" lon="-3.380612">
        <ele>782.4</ele>
        <time>1970-01-01T00:49:51.000Z</time>
      </trkpt>
      <trkpt lat="40.336314" lon="-3.380589">
        <ele>783</ele>
        <time>1970-01-01T00:49:52.000Z</time>
      </trkpt>
      <trkpt lat="40.336303" lon="-3.380569">
        <ele>783.2</ele>
        <time>1970-01-01T00:49:53.000Z</time>
      </trkpt>
      <trkpt lat="40.336293" lon="-3.380549">
        <ele>783.6</ele>
        <time>1970-01-01T00:49:54.000Z</time>
      </trkpt>
      <trkpt lat="40.336284" lon="-3.380527">
        <ele>784</ele>
        <time>1970-01-01T00:49:55.000Z</time>
      </trkpt>
      <trkpt lat="40.336279" lon="-3.380504">
        <ele>784.4</ele>
        <time>1970-01-01T00:49:56.000Z</time>
      </trkpt>
      <trkpt lat="40.336278" lon="-3.380479">
        <ele>784.6</ele>
        <time>1970-01-01T00:49:57.000Z</time>
      </trkpt>
      <trkpt lat="40.33628" lon="-3.380456">
        <ele>785.2</ele>
        <time>1970-01-01T00:49:58.000Z</time>
      </trkpt>
      <trkpt lat="40.336285" lon="-3.380434">
        <ele>785.4</ele>
        <time>1970-01-01T00:49:59.000Z</time>
      </trkpt>
      <trkpt lat="40.336288" lon="-3.380411">
        <ele>785.6</ele>
        <time>1970-01-01T00:50:00.000Z</time>
      </trkpt>
      <trkpt lat="40.336284" lon="-3.380386">
        <ele>786</ele>
        <time>1970-01-01T00:50:01.000Z</time>
      </trkpt>
      <trkpt lat="40.336276" lon="-3.380364">
        <ele>786.4</ele>
        <time>1970-01-01T00:50:02.000Z</time>
      </trkpt>
      <trkpt lat="40.336268" lon="-3.380341">
        <ele>786.6</ele>
        <time>1970-01-01T00:50:03.000Z</time>
      </trkpt>
      <trkpt lat="40.33626" lon="-3.38032">
        <ele>786.6</ele>
        <time>1970-01-01T00:50:04.000Z</time>
      </trkpt>
      <trkpt lat="40.336253" lon="-3.380306">
        <ele>786.8</ele>
        <time>1970-01-01T00:50:05.000Z</time>
      </trkpt>
      <trkpt lat="40.336241" lon="-3.380284">
        <ele>787</ele>
        <time>1970-01-01T00:50:06.000Z</time>
      </trkpt>
      <trkpt lat="40.336232" lon="-3.380271">
        <ele>787</ele>
        <time>1970-01-01T00:50:07.000Z</time>
      </trkpt>
      <trkpt lat="40.336227" lon="-3.380266">
        <ele>787.4</ele>
        <time>1970-01-01T00:50:08.000Z</time>
      </trkpt>
      <trkpt lat="40.336224" lon="-3.380267">
        <ele>787.4</ele>
        <time>1970-01-01T00:50:09.000Z</time>
      </trkpt>
      <trkpt lat="40.336225" lon="-3.380263">
        <ele>787.6</ele>
        <time>1970-01-01T00:50:10.000Z</time>
      </trkpt>
      <trkpt lat="40.336226" lon="-3.380257">
        <ele>787.8</ele>
        <time>1970-01-01T00:50:11.000Z</time>
      </trkpt>
      <trkpt lat="40.336226" lon="-3.380257">
        <ele>788</ele>
        <time>1970-01-01T00:50:12.000Z</time>
      </trkpt>
      <trkpt lat="40.336262" lon="-3.380257">
        <ele>788.8</ele>
        <time>1970-01-01T00:50:32.000Z</time>
      </trkpt>
      <trkpt lat="40.336272" lon="-3.380244">
        <ele>788.8</ele>
        <time>1970-01-01T00:50:33.000Z</time>
      </trkpt>
      <trkpt lat="40.336281" lon="-3.380233">
        <ele>788.8</ele>
        <time>1970-01-01T00:50:34.000Z</time>
      </trkpt>
      <trkpt lat="40.336291" lon="-3.380218">
        <ele>788.8</ele>
        <time>1970-01-01T00:50:35.000Z</time>
      </trkpt>
      <trkpt lat="40.336298" lon="-3.380203">
        <ele>788.8</ele>
        <time>1970-01-01T00:50:36.000Z</time>
      </trkpt>
      <trkpt lat="40.336304" lon="-3.38019">
        <ele>788.8</ele>
        <time>1970-01-01T00:50:37.000Z</time>
      </trkpt>
      <trkpt lat="40.33631" lon="-3.380178">
        <ele>788.8</ele>
        <time>1970-01-01T00:50:38.000Z</time>
      </trkpt>
      <trkpt lat="40.336311" lon="-3.380169">
        <ele>788.8</ele>
        <time>1970-01-01T00:50:39.000Z</time>
      </trkpt>
      <trkpt lat="40.336313" lon="-3.380157">
        <ele>788.8</ele>
        <time>1970-01-01T00:50:40.000Z</time>
      </trkpt>
      <trkpt lat="40.33631" lon="-3.380149">
        <ele>788.8</ele>
        <time>1970-01-01T00:50:41.000Z</time>
      </trkpt>
      <trkpt lat="40.336307" lon="-3.380143">
        <ele>788.8</ele>
        <time>1970-01-01T00:50:42.000Z</time>
      </trkpt>
      <trkpt lat="40.336307" lon="-3.380143">
        <ele>788.8</ele>
        <time>1970-01-01T00:50:43.000Z</time>
      </trkpt>
      <trkpt lat="40.336307" lon="-3.380143">
        <ele>788.8</ele>
        <time>1970-01-01T00:50:44.000Z</time>
      </trkpt>
      <trkpt lat="40.336312" lon="-3.380229">
        <ele>789.6</ele>
        <time>1970-01-01T00:58:46.000Z</time>
      </trkpt>
      <trkpt lat="40.33631" lon="-3.380268">
        <ele>789.4</ele>
        <time>1970-01-01T00:58:47.000Z</time>
      </trkpt>
      <trkpt lat="40.336305" lon="-3.380311">
        <ele>789.4</ele>
        <time>1970-01-01T00:58:48.000Z</time>
      </trkpt>
      <trkpt lat="40.336297" lon="-3.380353">
        <ele>789.4</ele>
        <time>1970-01-01T00:58:49.000Z</time>
      </trkpt>
      <trkpt lat="40.336277" lon="-3.380388">
        <ele>789.2</ele>
        <time>1970-01-01T00:58:50.000Z</time>
      </trkpt>
      <trkpt lat="40.336252" lon="-3.380403">
        <ele>789.2</ele>
        <time>1970-01-01T00:58:51.000Z</time>
      </trkpt>
      <trkpt lat="40.336229" lon="-3.380401">
        <ele>789</ele>
        <time>1970-01-01T00:58:52.000Z</time>
      </trkpt>
      <trkpt lat="40.336209" lon="-3.380388">
        <ele>789</ele>
        <time>1970-01-01T00:58:53.000Z</time>
      </trkpt>
      <trkpt lat="40.336191" lon="-3.380373">
        <ele>788.8</ele>
        <time>1970-01-01T00:58:54.000Z</time>
      </trkpt>
      <trkpt lat="40.336175" lon="-3.380355">
        <ele>788.8</ele>
        <time>1970-01-01T00:58:55.000Z</time>
      </trkpt>
      <trkpt lat="40.336159" lon="-3.380335">
        <ele>788.8</ele>
        <time>1970-01-01T00:58:56.000Z</time>
      </trkpt>
      <trkpt lat="40.336143" lon="-3.380314">
        <ele>788.8</ele>
        <time>1970-01-01T00:58:57.000Z</time>
      </trkpt>
      <trkpt lat="40.336123" lon="-3.38029">
        <ele>788.8</ele>
        <time>1970-01-01T00:58:58.000Z</time>
      </trkpt>
      <trkpt lat="40.336108" lon="-3.380267">
        <ele>788.8</ele>
        <time>1970-01-01T00:58:59.000Z</time>
      </trkpt>
      <trkpt lat="40.336098" lon="-3.380249">
        <ele>788.8</ele>
        <time>1970-01-01T00:59:00.000Z</time>
      </trkpt>
      <trkpt lat="40.33609" lon="-3.38023">
        <ele>789</ele>
        <time>1970-01-01T00:59:01.000Z</time>
      </trkpt>
      <trkpt lat="40.336086" lon="-3.380209">
        <ele>789.2</ele>
        <time>1970-01-01T00:59:02.000Z</time>
      </trkpt>
      <trkpt lat="40.336084" lon="-3.380192">
        <ele>789.6</ele>
        <time>1970-01-01T00:59:03.000Z</time>
      </trkpt>
      <trkpt lat="40.33608" lon="-3.380174">
        <ele>790.2</ele>
        <time>1970-01-01T00:59:04.000Z</time>
      </trkpt>
      <trkpt lat="40.336074" lon="-3.380156">
        <ele>790.4</ele>
        <time>1970-01-01T00:59:05.000Z</time>
      </trkpt>
      <trkpt lat="40.336068" lon="-3.380139">
        <ele>790.6</ele>
        <time>1970-01-01T00:59:06.000Z</time>
      </trkpt>
      <trkpt lat="40.336062" lon="-3.380123">
        <ele>790.8</ele>
        <time>1970-01-01T00:59:07.000Z</time>
      </trkpt>
      <trkpt lat="40.336054" lon="-3.380105">
        <ele>790.8</ele>
        <time>1970-01-01T00:59:08.000Z</time>
      </trkpt>
      <trkpt lat="40.336044" lon="-3.380084">
        <ele>791.2</ele>
        <time>1970-01-01T00:59:09.000Z</time>
      </trkpt>
      <trkpt lat="40.336034" lon="-3.38007">
        <ele>791.4</ele>
        <time>1970-01-01T00:59:10.000Z</time>
      </trkpt>
      <trkpt lat="40.336029" lon="-3.38006">
        <ele>791.6</ele>
        <time>1970-01-01T00:59:11.000Z</time>
      </trkpt>
      <trkpt lat="40.336026" lon="-3.380051">
        <ele>791.6</ele>
        <time>1970-01-01T00:59:12.000Z</time>
      </trkpt>
      <trkpt lat="40.336023" lon="-3.380037">
        <ele>792</ele>
        <time>1970-01-01T00:59:13.000Z</time>
      </trkpt>
      <trkpt lat="40.33602" lon="-3.380019">
        <ele>792.2</ele>
        <time>1970-01-01T00:59:14.000Z</time>
      </trkpt>
      <trkpt lat="40.336012" lon="-3.380002">
        <ele>792.2</ele>
        <time>1970-01-01T00:59:15.000Z</time>
      </trkpt>
      <trkpt lat="40.335995" lon="-3.379987">
        <ele>792.2</ele>
        <time>1970-01-01T00:59:16.000Z</time>
      </trkpt>
      <trkpt lat="40.335974" lon="-3.379977">
        <ele>792.4</ele>
        <time>1970-01-01T00:59:17.000Z</time>
      </trkpt>
      <trkpt lat="40.335952" lon="-3.379988">
        <ele>792.4</ele>
        <time>1970-01-01T00:59:18.000Z</time>
      </trkpt>
      <trkpt lat="40.335927" lon="-3.380018">
        <ele>792.4</ele>
        <time>1970-01-01T00:59:19.000Z</time>
      </trkpt>
      <trkpt lat="40.335903" lon="-3.380049">
        <ele>792.4</ele>
        <time>1970-01-01T00:59:20.000Z</time>
      </trkpt>
      <trkpt lat="40.335878" lon="-3.380083">
        <ele>792.4</ele>
        <time>1970-01-01T00:59:21.000Z</time>
      </trkpt>
      <trkpt lat="40.335857" lon="-3.380117">
        <ele>792.4</ele>
        <time>1970-01-01T00:59:22.000Z</time>
      </trkpt>
      <trkpt lat="40.335841" lon="-3.380147">
        <ele>792.4</ele>
        <time>1970-01-01T00:59:23.000Z</time>
      </trkpt>
      <trkpt lat="40.335827" lon="-3.380176">
        <ele>792.4</ele>
        <time>1970-01-01T00:59:24.000Z</time>
      </trkpt>
      <trkpt lat="40.33581" lon="-3.380206">
        <ele>792.2</ele>
        <time>1970-01-01T00:59:25.000Z</time>
      </trkpt>
      <trkpt lat="40.335796" lon="-3.380236">
        <ele>792.2</ele>
        <time>1970-01-01T00:59:26.000Z</time>
      </trkpt>
      <trkpt lat="40.335784" lon="-3.380266">
        <ele>792</ele>
        <time>1970-01-01T00:59:27.000Z</time>
      </trkpt>
      <trkpt lat="40.335771" lon="-3.380297">
        <ele>791.8</ele>
        <time>1970-01-01T00:59:28.000Z</time>
      </trkpt>
      <trkpt lat="40.335757" lon="-3.380331">
        <ele>791.6</ele>
        <time>1970-01-01T00:59:29.000Z</time>
      </trkpt>
      <trkpt lat="40.335743" lon="-3.380367">
        <ele>791.6</ele>
        <time>1970-01-01T00:59:30.000Z</time>
      </trkpt>
      <trkpt lat="40.335728" lon="-3.380405">
        <ele>791.6</ele>
        <time>1970-01-01T00:59:31.000Z</time>
      </trkpt>
      <trkpt lat="40.335719" lon="-3.380445">
        <ele>791.4</ele>
        <time>1970-01-01T00:59:32.000Z</time>
      </trkpt>
      <trkpt lat="40.335712" lon="-3.380487">
        <ele>791.4</ele>
        <time>1970-01-01T00:59:33.000Z</time>
      </trkpt>
      <trkpt lat="40.335709" lon="-3.380527">
        <ele>791.4</ele>
        <time>1970-01-01T00:59:34.000Z</time>
      </trkpt>
      <trkpt lat="40.33571" lon="-3.380567">
        <ele>791.4</ele>
        <time>1970-01-01T00:59:35.000Z</time>
      </trkpt>
      <trkpt lat="40.33571" lon="-3.380609">
        <ele>791.2</ele>
        <time>1970-01-01T00:59:36.000Z</time>
      </trkpt>
      <trkpt lat="40.33571" lon="-3.380651">
        <ele>791.2</ele>
        <time>1970-01-01T00:59:37.000Z</time>
      </trkpt>
      <trkpt lat="40.33571" lon="-3.380697">
        <ele>791.2</ele>
        <time>1970-01-01T00:59:38.000Z</time>
      </trkpt>
      <trkpt lat="40.335709" lon="-3.380746">
        <ele>791.2</ele>
        <time>1970-01-01T00:59:39.000Z</time>
      </trkpt>
      <trkpt lat="40.335703" lon="-3.380795">
        <ele>791</ele>
        <time>1970-01-01T00:59:40.000Z</time>
      </trkpt>
      <trkpt lat="40.33569" lon="-3.380843">
        <ele>791</ele>
        <time>1970-01-01T00:59:41.000Z</time>
      </trkpt>
      <trkpt lat="40.33568" lon="-3.380888">
        <ele>791</ele>
        <time>1970-01-01T00:59:42.000Z</time>
      </trkpt>
      <trkpt lat="40.33567" lon="-3.380932">
        <ele>791</ele>
        <time>1970-01-01T00:59:43.000Z</time>
      </trkpt>
      <trkpt lat="40.335654" lon="-3.380973">
        <ele>791</ele>
        <time>1970-01-01T00:59:44.000Z</time>
      </trkpt>
      <trkpt lat="40.33563" lon="-3.381011">
        <ele>790.8</ele>
        <time>1970-01-01T00:59:45.000Z</time>
      </trkpt>
      <trkpt lat="40.335606" lon="-3.381051">
        <ele>790.8</ele>
        <time>1970-01-01T00:59:46.000Z</time>
      </trkpt>
      <trkpt lat="40.335582" lon="-3.381094">
        <ele>790.6</ele>
        <time>1970-01-01T00:59:47.000Z</time>
      </trkpt>
      <trkpt lat="40.335557" lon="-3.381138">
        <ele>790.6</ele>
        <time>1970-01-01T00:59:48.000Z</time>
      </trkpt>
      <trkpt lat="40.335526" lon="-3.381173">
        <ele>790.6</ele>
        <time>1970-01-01T00:59:49.000Z</time>
      </trkpt>
      <trkpt lat="40.335485" lon="-3.381197">
        <ele>790.6</ele>
        <time>1970-01-01T00:59:50.000Z</time>
      </trkpt>
      <trkpt lat="40.335443" lon="-3.381212">
        <ele>790.6</ele>
        <time>1970-01-01T00:59:51.000Z</time>
      </trkpt>
      <trkpt lat="40.335398" lon="-3.381228">
        <ele>790.4</ele>
        <time>1970-01-01T00:59:52.000Z</time>
      </trkpt>
      <trkpt lat="40.335354" lon="-3.381243">
        <ele>790.4</ele>
        <time>1970-01-01T00:59:53.000Z</time>
      </trkpt>
      <trkpt lat="40.335316" lon="-3.381257">
        <ele>790.4</ele>
        <time>1970-01-01T00:59:54.000Z</time>
      </trkpt>
      <trkpt lat="40.335286" lon="-3.381267">
        <ele>790.4</ele>
        <time>1970-01-01T00:59:55.000Z</time>
      </trkpt>
      <trkpt lat="40.335265" lon="-3.381274">
        <ele>790.2</ele>
        <time>1970-01-01T00:59:56.000Z</time>
      </trkpt>
      <trkpt lat="40.335247" lon="-3.381281">
        <ele>790.2</ele>
        <time>1970-01-01T00:59:57.000Z</time>
      </trkpt>
      <trkpt lat="40.335233" lon="-3.381288">
        <ele>790.2</ele>
        <time>1970-01-01T00:59:58.000Z</time>
      </trkpt>
      <trkpt lat="40.335225" lon="-3.381293">
        <ele>790</ele>
        <time>1970-01-01T00:59:59.000Z</time>
      </trkpt>
      <trkpt lat="40.335219" lon="-3.381294">
        <ele>790</ele>
        <time>1970-01-01T01:00:00.000Z</time>
      </trkpt>
      <trkpt lat="40.335215" lon="-3.381295">
        <ele>790</ele>
        <time>1970-01-01T01:00:01.000Z</time>
      </trkpt>
      <trkpt lat="40.335213" lon="-3.381298">
        <ele>790</ele>
        <time>1970-01-01T01:00:02.000Z</time>
      </trkpt>
      <trkpt lat="40.3352" lon="-3.381304">
        <ele>790</ele>
        <time>1970-01-01T01:00:03.000Z</time>
      </trkpt>
      <trkpt lat="40.335179" lon="-3.381313">
        <ele>790</ele>
        <time>1970-01-01T01:00:04.000Z</time>
      </trkpt>
      <trkpt lat="40.335152" lon="-3.381325">
        <ele>790</ele>
        <time>1970-01-01T01:00:05.000Z</time>
      </trkpt>
      <trkpt lat="40.335123" lon="-3.381333">
        <ele>790</ele>
        <time>1970-01-01T01:00:06.000Z</time>
      </trkpt>
      <trkpt lat="40.335103" lon="-3.381336">
        <ele>790</ele>
        <time>1970-01-01T01:00:07.000Z</time>
      </trkpt>
      <trkpt lat="40.335072" lon="-3.381343">
        <ele>790</ele>
        <time>1970-01-01T01:00:08.000Z</time>
      </trkpt>
      <trkpt lat="40.335036" lon="-3.381354">
        <ele>790</ele>
        <time>1970-01-01T01:00:09.000Z</time>
      </trkpt>
      <trkpt lat="40.334989" lon="-3.381364">
        <ele>790</ele>
        <time>1970-01-01T01:00:10.000Z</time>
      </trkpt>
      <trkpt lat="40.334946" lon="-3.381379">
        <ele>790</ele>
        <time>1970-01-01T01:00:11.000Z</time>
      </trkpt>
      <trkpt lat="40.334907" lon="-3.381399">
        <ele>790</ele>
        <time>1970-01-01T01:00:12.000Z</time>
      </trkpt>
      <trkpt lat="40.334856" lon="-3.381432">
        <ele>790</ele>
        <time>1970-01-01T01:00:13.000Z</time>
      </trkpt>
      <trkpt lat="40.334802" lon="-3.381465">
        <ele>790</ele>
        <time>1970-01-01T01:00:14.000Z</time>
      </trkpt>
      <trkpt lat="40.334734" lon="-3.381499">
        <ele>790</ele>
        <time>1970-01-01T01:00:15.000Z</time>
      </trkpt>
      <trkpt lat="40.334676" lon="-3.381524">
        <ele>790</ele>
        <time>1970-01-01T01:00:16.000Z</time>
      </trkpt>
      <trkpt lat="40.334628" lon="-3.381544">
        <ele>790</ele>
        <time>1970-01-01T01:00:17.000Z</time>
      </trkpt>
      <trkpt lat="40.334568" lon="-3.381568">
        <ele>789.8</ele>
        <time>1970-01-01T01:00:18.000Z</time>
      </trkpt>
      <trkpt lat="40.334509" lon="-3.381594">
        <ele>789.8</ele>
        <time>1970-01-01T01:00:19.000Z</time>
      </trkpt>
      <trkpt lat="40.334442" lon="-3.381626">
        <ele>789.8</ele>
        <time>1970-01-01T01:00:20.000Z</time>
      </trkpt>
      <trkpt lat="40.334385" lon="-3.381654">
        <ele>789.8</ele>
        <time>1970-01-01T01:00:21.000Z</time>
      </trkpt>
      <trkpt lat="40.33434" lon="-3.381675">
        <ele>789.6</ele>
        <time>1970-01-01T01:00:22.000Z</time>
      </trkpt>
      <trkpt lat="40.334287" lon="-3.381701">
        <ele>789.4</ele>
        <time>1970-01-01T01:00:23.000Z</time>
      </trkpt>
      <trkpt lat="40.334232" lon="-3.381728">
        <ele>789.4</ele>
        <time>1970-01-01T01:00:24.000Z</time>
      </trkpt>
      <trkpt lat="40.334169" lon="-3.381764">
        <ele>789.2</ele>
        <time>1970-01-01T01:00:25.000Z</time>
      </trkpt>
      <trkpt lat="40.334115" lon="-3.381792">
        <ele>789.2</ele>
        <time>1970-01-01T01:00:26.000Z</time>
      </trkpt>
      <trkpt lat="40.334074" lon="-3.381813">
        <ele>789</ele>
        <time>1970-01-01T01:00:27.000Z</time>
      </trkpt>
      <trkpt lat="40.334019" lon="-3.381835">
        <ele>789</ele>
        <time>1970-01-01T01:00:28.000Z</time>
      </trkpt>
      <trkpt lat="40.33396" lon="-3.381857">
        <ele>788.8</ele>
        <time>1970-01-01T01:00:29.000Z</time>
      </trkpt>
      <trkpt lat="40.333885" lon="-3.38188">
        <ele>788.8</ele>
        <time>1970-01-01T01:00:30.000Z</time>
      </trkpt>
      <trkpt lat="40.333821" lon="-3.381898">
        <ele>788.6</ele>
        <time>1970-01-01T01:00:31.000Z</time>
      </trkpt>
      <trkpt lat="40.333769" lon="-3.381911">
        <ele>788.6</ele>
        <time>1970-01-01T01:00:32.000Z</time>
      </trkpt>
      <trkpt lat="40.333705" lon="-3.381929">
        <ele>788.6</ele>
        <time>1970-01-01T01:00:33.000Z</time>
      </trkpt>
      <trkpt lat="40.333642" lon="-3.381949">
        <ele>788.4</ele>
        <time>1970-01-01T01:00:34.000Z</time>
      </trkpt>
      <trkpt lat="40.333565" lon="-3.381972">
        <ele>788.4</ele>
        <time>1970-01-01T01:00:35.000Z</time>
      </trkpt>
      <trkpt lat="40.333503" lon="-3.381992">
        <ele>788.2</ele>
        <time>1970-01-01T01:00:36.000Z</time>
      </trkpt>
      <trkpt lat="40.333454" lon="-3.382008">
        <ele>788.2</ele>
        <time>1970-01-01T01:00:37.000Z</time>
      </trkpt>
      <trkpt lat="40.333391" lon="-3.382028">
        <ele>787.6</ele>
        <time>1970-01-01T01:00:38.000Z</time>
      </trkpt>
      <trkpt lat="40.333327" lon="-3.382048">
        <ele>787.2</ele>
        <time>1970-01-01T01:00:39.000Z</time>
      </trkpt>
      <trkpt lat="40.333252" lon="-3.382073">
        <ele>786.8</ele>
        <time>1970-01-01T01:00:40.000Z</time>
      </trkpt>
      <trkpt lat="40.333189" lon="-3.382095">
        <ele>786.8</ele>
        <time>1970-01-01T01:00:41.000Z</time>
      </trkpt>
      <trkpt lat="40.333138" lon="-3.382113">
        <ele>786.6</ele>
        <time>1970-01-01T01:00:42.000Z</time>
      </trkpt>
      <trkpt lat="40.333074" lon="-3.382135">
        <ele>786.4</ele>
        <time>1970-01-01T01:00:43.000Z</time>
      </trkpt>
      <trkpt lat="40.333008" lon="-3.382155">
        <ele>786.4</ele>
        <time>1970-01-01T01:00:44.000Z</time>
      </trkpt>
      <trkpt lat="40.332926" lon="-3.382179">
        <ele>786.2</ele>
        <time>1970-01-01T01:00:45.000Z</time>
      </trkpt>
      <trkpt lat="40.33287" lon="-3.382195">
        <ele>786.2</ele>
        <time>1970-01-01T01:00:46.000Z</time>
      </trkpt>
      <trkpt lat="40.332798" lon="-3.382215">
        <ele>786.2</ele>
        <time>1970-01-01T01:00:47.000Z</time>
      </trkpt>
      <trkpt lat="40.332727" lon="-3.382239">
        <ele>786</ele>
        <time>1970-01-01T01:00:48.000Z</time>
      </trkpt>
      <trkpt lat="40.332655" lon="-3.382264">
        <ele>786</ele>
        <time>1970-01-01T01:00:49.000Z</time>
      </trkpt>
      <trkpt lat="40.332574" lon="-3.3823">
        <ele>785.8</ele>
        <time>1970-01-01T01:00:50.000Z</time>
      </trkpt>
      <trkpt lat="40.332511" lon="-3.382333">
        <ele>785.6</ele>
        <time>1970-01-01T01:00:51.000Z</time>
      </trkpt>
      <trkpt lat="40.332448" lon="-3.382367">
        <ele>785.2</ele>
        <time>1970-01-01T01:00:52.000Z</time>
      </trkpt>
      <trkpt lat="40.332385" lon="-3.382401">
        <ele>785</ele>
        <time>1970-01-01T01:00:53.000Z</time>
      </trkpt>
      <trkpt lat="40.33232" lon="-3.382436">
        <ele>785</ele>
        <time>1970-01-01T01:00:54.000Z</time>
      </trkpt>
      <trkpt lat="40.332255" lon="-3.38247">
        <ele>785</ele>
        <time>1970-01-01T01:00:55.000Z</time>
      </trkpt>
      <trkpt lat="40.332189" lon="-3.382506">
        <ele>785</ele>
        <time>1970-01-01T01:00:56.000Z</time>
      </trkpt>
      <trkpt lat="40.332121" lon="-3.38254">
        <ele>784.8</ele>
        <time>1970-01-01T01:00:57.000Z</time>
      </trkpt>
      <trkpt lat="40.332055" lon="-3.382573">
        <ele>784.6</ele>
        <time>1970-01-01T01:00:58.000Z</time>
      </trkpt>
      <trkpt lat="40.331989" lon="-3.382604">
        <ele>784.2</ele>
        <time>1970-01-01T01:00:59.000Z</time>
      </trkpt>
      <trkpt lat="40.331924" lon="-3.382633">
        <ele>784</ele>
        <time>1970-01-01T01:01:00.000Z</time>
      </trkpt>
      <trkpt lat="40.331859" lon="-3.382661">
        <ele>783.8</ele>
        <time>1970-01-01T01:01:01.000Z</time>
      </trkpt>
      <trkpt lat="40.331792" lon="-3.382689">
        <ele>783.6</ele>
        <time>1970-01-01T01:01:02.000Z</time>
      </trkpt>
      <trkpt lat="40.331723" lon="-3.382718">
        <ele>783.6</ele>
        <time>1970-01-01T01:01:03.000Z</time>
      </trkpt>
      <trkpt lat="40.331656" lon="-3.382742">
        <ele>783.6</ele>
        <time>1970-01-01T01:01:04.000Z</time>
      </trkpt>
      <trkpt lat="40.331591" lon="-3.382764">
        <ele>783.4</ele>
        <time>1970-01-01T01:01:05.000Z</time>
      </trkpt>
      <trkpt lat="40.331526" lon="-3.382785">
        <ele>783.2</ele>
        <time>1970-01-01T01:01:06.000Z</time>
      </trkpt>
      <trkpt lat="40.33146" lon="-3.382806">
        <ele>783.2</ele>
        <time>1970-01-01T01:01:07.000Z</time>
      </trkpt>
      <trkpt lat="40.33139" lon="-3.382825">
        <ele>783</ele>
        <time>1970-01-01T01:01:08.000Z</time>
      </trkpt>
      <trkpt lat="40.33132" lon="-3.382841">
        <ele>783</ele>
        <time>1970-01-01T01:01:09.000Z</time>
      </trkpt>
      <trkpt lat="40.331253" lon="-3.382853">
        <ele>782.8</ele>
        <time>1970-01-01T01:01:10.000Z</time>
      </trkpt>
      <trkpt lat="40.331186" lon="-3.382859">
        <ele>782.6</ele>
        <time>1970-01-01T01:01:11.000Z</time>
      </trkpt>
      <trkpt lat="40.331118" lon="-3.382863">
        <ele>782.6</ele>
        <time>1970-01-01T01:01:12.000Z</time>
      </trkpt>
      <trkpt lat="40.331052" lon="-3.382865">
        <ele>782.4</ele>
        <time>1970-01-01T01:01:13.000Z</time>
      </trkpt>
      <trkpt lat="40.330985" lon="-3.382869">
        <ele>782.4</ele>
        <time>1970-01-01T01:01:14.000Z</time>
      </trkpt>
      <trkpt lat="40.330919" lon="-3.382875">
        <ele>782.2</ele>
        <time>1970-01-01T01:01:15.000Z</time>
      </trkpt>
      <trkpt lat="40.330854" lon="-3.382886">
        <ele>782.2</ele>
        <time>1970-01-01T01:01:16.000Z</time>
      </trkpt>
      <trkpt lat="40.330788" lon="-3.3829">
        <ele>782.2</ele>
        <time>1970-01-01T01:01:17.000Z</time>
      </trkpt>
      <trkpt lat="40.330723" lon="-3.382913">
        <ele>782.2</ele>
        <time>1970-01-01T01:01:18.000Z</time>
      </trkpt>
      <trkpt lat="40.330657" lon="-3.382926">
        <ele>782.2</ele>
        <time>1970-01-01T01:01:19.000Z</time>
      </trkpt>
      <trkpt lat="40.330593" lon="-3.382941">
        <ele>782.2</ele>
        <time>1970-01-01T01:01:20.000Z</time>
      </trkpt>
      <trkpt lat="40.330528" lon="-3.382955">
        <ele>782.2</ele>
        <time>1970-01-01T01:01:21.000Z</time>
      </trkpt>
      <trkpt lat="40.330461" lon="-3.382971">
        <ele>782.2</ele>
        <time>1970-01-01T01:01:22.000Z</time>
      </trkpt>
      <trkpt lat="40.33039" lon="-3.382993">
        <ele>782.2</ele>
        <time>1970-01-01T01:01:23.000Z</time>
      </trkpt>
      <trkpt lat="40.330321" lon="-3.383016">
        <ele>782.2</ele>
        <time>1970-01-01T01:01:24.000Z</time>
      </trkpt>
      <trkpt lat="40.330252" lon="-3.383042">
        <ele>782.2</ele>
        <time>1970-01-01T01:01:25.000Z</time>
      </trkpt>
      <trkpt lat="40.330183" lon="-3.383067">
        <ele>782.2</ele>
        <time>1970-01-01T01:01:26.000Z</time>
      </trkpt>
      <trkpt lat="40.330115" lon="-3.383092">
        <ele>782.2</ele>
        <time>1970-01-01T01:01:27.000Z</time>
      </trkpt>
      <trkpt lat="40.330047" lon="-3.383115">
        <ele>782.2</ele>
        <time>1970-01-01T01:01:28.000Z</time>
      </trkpt>
      <trkpt lat="40.329979" lon="-3.383139">
        <ele>782.2</ele>
        <time>1970-01-01T01:01:29.000Z</time>
      </trkpt>
      <trkpt lat="40.329912" lon="-3.383165">
        <ele>782.2</ele>
        <time>1970-01-01T01:01:30.000Z</time>
      </trkpt>
      <trkpt lat="40.329844" lon="-3.383188">
        <ele>782.2</ele>
        <time>1970-01-01T01:01:31.000Z</time>
      </trkpt>
      <trkpt lat="40.329776" lon="-3.38321">
        <ele>782.2</ele>
        <time>1970-01-01T01:01:32.000Z</time>
      </trkpt>
      <trkpt lat="40.329708" lon="-3.383232">
        <ele>782</ele>
        <time>1970-01-01T01:01:33.000Z</time>
      </trkpt>
      <trkpt lat="40.329641" lon="-3.383252">
        <ele>782</ele>
        <time>1970-01-01T01:01:34.000Z</time>
      </trkpt>
      <trkpt lat="40.329575" lon="-3.383273">
        <ele>782</ele>
        <time>1970-01-01T01:01:35.000Z</time>
      </trkpt>
      <trkpt lat="40.329511" lon="-3.38329">
        <ele>781.8</ele>
        <time>1970-01-01T01:01:36.000Z</time>
      </trkpt>
      <trkpt lat="40.329446" lon="-3.383305">
        <ele>781.8</ele>
        <time>1970-01-01T01:01:37.000Z</time>
      </trkpt>
      <trkpt lat="40.329376" lon="-3.383319">
        <ele>781.6</ele>
        <time>1970-01-01T01:01:38.000Z</time>
      </trkpt>
      <trkpt lat="40.329306" lon="-3.383336">
        <ele>781.6</ele>
        <time>1970-01-01T01:01:39.000Z</time>
      </trkpt>
      <trkpt lat="40.329237" lon="-3.383353">
        <ele>781.6</ele>
        <time>1970-01-01T01:01:40.000Z</time>
      </trkpt>
      <trkpt lat="40.329168" lon="-3.383372">
        <ele>781.6</ele>
        <time>1970-01-01T01:01:41.000Z</time>
      </trkpt>
      <trkpt lat="40.329099" lon="-3.383393">
        <ele>781.4</ele>
        <time>1970-01-01T01:01:42.000Z</time>
      </trkpt>
      <trkpt lat="40.329029" lon="-3.383418">
        <ele>781.4</ele>
        <time>1970-01-01T01:01:43.000Z</time>
      </trkpt>
      <trkpt lat="40.328958" lon="-3.383445">
        <ele>781.4</ele>
        <time>1970-01-01T01:01:44.000Z</time>
      </trkpt>
      <trkpt lat="40.328887" lon="-3.383475">
        <ele>781.2</ele>
        <time>1970-01-01T01:01:45.000Z</time>
      </trkpt>
      <trkpt lat="40.328814" lon="-3.383508">
        <ele>781.2</ele>
        <time>1970-01-01T01:01:46.000Z</time>
      </trkpt>
      <trkpt lat="40.328742" lon="-3.383543">
        <ele>781.2</ele>
        <time>1970-01-01T01:01:47.000Z</time>
      </trkpt>
      <trkpt lat="40.328668" lon="-3.383578">
        <ele>781</ele>
        <time>1970-01-01T01:01:48.000Z</time>
      </trkpt>
      <trkpt lat="40.328595" lon="-3.383617">
        <ele>780.8</ele>
        <time>1970-01-01T01:01:49.000Z</time>
      </trkpt>
      <trkpt lat="40.328524" lon="-3.383658">
        <ele>780.6</ele>
        <time>1970-01-01T01:01:50.000Z</time>
      </trkpt>
      <trkpt lat="40.328453" lon="-3.383701">
        <ele>780.4</ele>
        <time>1970-01-01T01:01:51.000Z</time>
      </trkpt>
      <trkpt lat="40.328382" lon="-3.383746">
        <ele>780.2</ele>
        <time>1970-01-01T01:01:52.000Z</time>
      </trkpt>
      <trkpt lat="40.328311" lon="-3.383791">
        <ele>780.2</ele>
        <time>1970-01-01T01:01:53.000Z</time>
      </trkpt>
      <trkpt lat="40.328241" lon="-3.383837">
        <ele>780</ele>
        <time>1970-01-01T01:01:54.000Z</time>
      </trkpt>
      <trkpt lat="40.328172" lon="-3.383883">
        <ele>780</ele>
        <time>1970-01-01T01:01:55.000Z</time>
      </trkpt>
      <trkpt lat="40.328102" lon="-3.383927">
        <ele>780</ele>
        <time>1970-01-01T01:01:56.000Z</time>
      </trkpt>
      <trkpt lat="40.328034" lon="-3.383971">
        <ele>779.8</ele>
        <time>1970-01-01T01:01:57.000Z</time>
      </trkpt>
      <trkpt lat="40.327969" lon="-3.384018">
        <ele>779.6</ele>
        <time>1970-01-01T01:01:58.000Z</time>
      </trkpt>
      <trkpt lat="40.327905" lon="-3.384063">
        <ele>779.6</ele>
        <time>1970-01-01T01:01:59.000Z</time>
      </trkpt>
      <trkpt lat="40.327839" lon="-3.384107">
        <ele>779.4</ele>
        <time>1970-01-01T01:02:00.000Z</time>
      </trkpt>
      <trkpt lat="40.327772" lon="-3.384151">
        <ele>779.2</ele>
        <time>1970-01-01T01:02:01.000Z</time>
      </trkpt>
      <trkpt lat="40.327705" lon="-3.384195">
        <ele>779.2</ele>
        <time>1970-01-01T01:02:02.000Z</time>
      </trkpt>
      <trkpt lat="40.327635" lon="-3.38424">
        <ele>778.8</ele>
        <time>1970-01-01T01:02:03.000Z</time>
      </trkpt>
      <trkpt lat="40.327565" lon="-3.384285">
        <ele>778.4</ele>
        <time>1970-01-01T01:02:04.000Z</time>
      </trkpt>
      <trkpt lat="40.327494" lon="-3.384331">
        <ele>778.2</ele>
        <time>1970-01-01T01:02:05.000Z</time>
      </trkpt>
      <trkpt lat="40.327421" lon="-3.384378">
        <ele>778</ele>
        <time>1970-01-01T01:02:06.000Z</time>
      </trkpt>
      <trkpt lat="40.327346" lon="-3.384424">
        <ele>777.8</ele>
        <time>1970-01-01T01:02:07.000Z</time>
      </trkpt>
      <trkpt lat="40.32727" lon="-3.384466">
        <ele>777.6</ele>
        <time>1970-01-01T01:02:08.000Z</time>
      </trkpt>
      <trkpt lat="40.327195" lon="-3.384509">
        <ele>777.4</ele>
        <time>1970-01-01T01:02:09.000Z</time>
      </trkpt>
      <trkpt lat="40.327121" lon="-3.384551">
        <ele>777.2</ele>
        <time>1970-01-01T01:02:10.000Z</time>
      </trkpt>
      <trkpt lat="40.327047" lon="-3.384593">
        <ele>777</ele>
        <time>1970-01-01T01:02:11.000Z</time>
      </trkpt>
      <trkpt lat="40.326974" lon="-3.384634">
        <ele>776.8</ele>
        <time>1970-01-01T01:02:12.000Z</time>
      </trkpt>
      <trkpt lat="40.326903" lon="-3.384676">
        <ele>776.6</ele>
        <time>1970-01-01T01:02:13.000Z</time>
      </trkpt>
      <trkpt lat="40.326835" lon="-3.384716">
        <ele>776.6</ele>
        <time>1970-01-01T01:02:14.000Z</time>
      </trkpt>
      <trkpt lat="40.326764" lon="-3.384755">
        <ele>776.6</ele>
        <time>1970-01-01T01:02:15.000Z</time>
      </trkpt>
      <trkpt lat="40.326694" lon="-3.384797">
        <ele>776.4</ele>
        <time>1970-01-01T01:02:16.000Z</time>
      </trkpt>
      <trkpt lat="40.326621" lon="-3.38484">
        <ele>776</ele>
        <time>1970-01-01T01:02:17.000Z</time>
      </trkpt>
      <trkpt lat="40.326548" lon="-3.384885">
        <ele>775.8</ele>
        <time>1970-01-01T01:02:18.000Z</time>
      </trkpt>
      <trkpt lat="40.326475" lon="-3.384929">
        <ele>775.6</ele>
        <time>1970-01-01T01:02:19.000Z</time>
      </trkpt>
      <trkpt lat="40.326403" lon="-3.384971">
        <ele>775.2</ele>
        <time>1970-01-01T01:02:20.000Z</time>
      </trkpt>
      <trkpt lat="40.326332" lon="-3.385011">
        <ele>775.2</ele>
        <time>1970-01-01T01:02:21.000Z</time>
      </trkpt>
      <trkpt lat="40.326261" lon="-3.385054">
        <ele>775</ele>
        <time>1970-01-01T01:02:22.000Z</time>
      </trkpt>
      <trkpt lat="40.32619" lon="-3.385099">
        <ele>775</ele>
        <time>1970-01-01T01:02:23.000Z</time>
      </trkpt>
      <trkpt lat="40.326121" lon="-3.385147">
        <ele>774.8</ele>
        <time>1970-01-01T01:02:24.000Z</time>
      </trkpt>
      <trkpt lat="40.326052" lon="-3.385195">
        <ele>774.8</ele>
        <time>1970-01-01T01:02:25.000Z</time>
      </trkpt>
      <trkpt lat="40.325984" lon="-3.385244">
        <ele>774.8</ele>
        <time>1970-01-01T01:02:26.000Z</time>
      </trkpt>
      <trkpt lat="40.325915" lon="-3.385295">
        <ele>774.6</ele>
        <time>1970-01-01T01:02:27.000Z</time>
      </trkpt>
      <trkpt lat="40.325848" lon="-3.385342">
        <ele>774.6</ele>
        <time>1970-01-01T01:02:28.000Z</time>
      </trkpt>
      <trkpt lat="40.325783" lon="-3.385388">
        <ele>774.6</ele>
        <time>1970-01-01T01:02:29.000Z</time>
      </trkpt>
      <trkpt lat="40.325719" lon="-3.385435">
        <ele>774.6</ele>
        <time>1970-01-01T01:02:30.000Z</time>
      </trkpt>
      <trkpt lat="40.325657" lon="-3.385481">
        <ele>774.8</ele>
        <time>1970-01-01T01:02:31.000Z</time>
      </trkpt>
      <trkpt lat="40.325594" lon="-3.385526">
        <ele>774.8</ele>
        <time>1970-01-01T01:02:32.000Z</time>
      </trkpt>
      <trkpt lat="40.325531" lon="-3.385571">
        <ele>774.8</ele>
        <time>1970-01-01T01:02:33.000Z</time>
      </trkpt>
      <trkpt lat="40.325466" lon="-3.385617">
        <ele>774.8</ele>
        <time>1970-01-01T01:02:34.000Z</time>
      </trkpt>
      <trkpt lat="40.325402" lon="-3.385664">
        <ele>774.8</ele>
        <time>1970-01-01T01:02:35.000Z</time>
      </trkpt>
      <trkpt lat="40.325338" lon="-3.385711">
        <ele>774.8</ele>
        <time>1970-01-01T01:02:36.000Z</time>
      </trkpt>
      <trkpt lat="40.325273" lon="-3.385758">
        <ele>774.8</ele>
        <time>1970-01-01T01:02:37.000Z</time>
      </trkpt>
      <trkpt lat="40.325209" lon="-3.385805">
        <ele>774.8</ele>
        <time>1970-01-01T01:02:38.000Z</time>
      </trkpt>
      <trkpt lat="40.325144" lon="-3.385854">
        <ele>774.6</ele>
        <time>1970-01-01T01:02:39.000Z</time>
      </trkpt>
      <trkpt lat="40.32508" lon="-3.385903">
        <ele>774.6</ele>
        <time>1970-01-01T01:02:40.000Z</time>
      </trkpt>
      <trkpt lat="40.325019" lon="-3.385953">
        <ele>774.4</ele>
        <time>1970-01-01T01:02:41.000Z</time>
      </trkpt>
      <trkpt lat="40.324957" lon="-3.386008">
        <ele>774.4</ele>
        <time>1970-01-01T01:02:42.000Z</time>
      </trkpt>
      <trkpt lat="40.324897" lon="-3.386065">
        <ele>774.2</ele>
        <time>1970-01-01T01:02:43.000Z</time>
      </trkpt>
      <trkpt lat="40.324839" lon="-3.386119">
        <ele>774.2</ele>
        <time>1970-01-01T01:02:44.000Z</time>
      </trkpt>
      <trkpt lat="40.324782" lon="-3.386173">
        <ele>774.2</ele>
        <time>1970-01-01T01:02:45.000Z</time>
      </trkpt>
      <trkpt lat="40.324727" lon="-3.386226">
        <ele>774</ele>
        <time>1970-01-01T01:02:46.000Z</time>
      </trkpt>
      <trkpt lat="40.324673" lon="-3.386278">
        <ele>774</ele>
        <time>1970-01-01T01:02:47.000Z</time>
      </trkpt>
      <trkpt lat="40.324621" lon="-3.386334">
        <ele>774</ele>
        <time>1970-01-01T01:02:48.000Z</time>
      </trkpt>
      <trkpt lat="40.324572" lon="-3.386395">
        <ele>774</ele>
        <time>1970-01-01T01:02:49.000Z</time>
      </trkpt>
      <trkpt lat="40.324525" lon="-3.386463">
        <ele>774</ele>
        <time>1970-01-01T01:02:50.000Z</time>
      </trkpt>
      <trkpt lat="40.324476" lon="-3.386537">
        <ele>773.8</ele>
        <time>1970-01-01T01:02:51.000Z</time>
      </trkpt>
      <trkpt lat="40.324425" lon="-3.386608">
        <ele>773.8</ele>
        <time>1970-01-01T01:02:52.000Z</time>
      </trkpt>
      <trkpt lat="40.324374" lon="-3.386677">
        <ele>773.6</ele>
        <time>1970-01-01T01:02:53.000Z</time>
      </trkpt>
      <trkpt lat="40.324321" lon="-3.386744">
        <ele>773.6</ele>
        <time>1970-01-01T01:02:54.000Z</time>
      </trkpt>
      <trkpt lat="40.32427" lon="-3.38681">
        <ele>773.4</ele>
        <time>1970-01-01T01:02:55.000Z</time>
      </trkpt>
      <trkpt lat="40.324222" lon="-3.386878">
        <ele>773.4</ele>
        <time>1970-01-01T01:02:56.000Z</time>
      </trkpt>
      <trkpt lat="40.324172" lon="-3.386948">
        <ele>773.4</ele>
        <time>1970-01-01T01:02:57.000Z</time>
      </trkpt>
      <trkpt lat="40.324121" lon="-3.387017">
        <ele>773.4</ele>
        <time>1970-01-01T01:02:58.000Z</time>
      </trkpt>
      <trkpt lat="40.32407" lon="-3.387086">
        <ele>773.2</ele>
        <time>1970-01-01T01:02:59.000Z</time>
      </trkpt>
      <trkpt lat="40.324018" lon="-3.387155">
        <ele>773.2</ele>
        <time>1970-01-01T01:03:00.000Z</time>
      </trkpt>
      <trkpt lat="40.323965" lon="-3.387221">
        <ele>773</ele>
        <time>1970-01-01T01:03:01.000Z</time>
      </trkpt>
      <trkpt lat="40.323908" lon="-3.387287">
        <ele>773</ele>
        <time>1970-01-01T01:03:02.000Z</time>
      </trkpt>
      <trkpt lat="40.32385" lon="-3.387349">
        <ele>773</ele>
        <time>1970-01-01T01:03:03.000Z</time>
      </trkpt>
      <trkpt lat="40.32379" lon="-3.387409">
        <ele>773</ele>
        <time>1970-01-01T01:03:04.000Z</time>
      </trkpt>
      <trkpt lat="40.323727" lon="-3.387467">
        <ele>772.8</ele>
        <time>1970-01-01T01:03:05.000Z</time>
      </trkpt>
      <trkpt lat="40.323662" lon="-3.387524">
        <ele>772.8</ele>
        <time>1970-01-01T01:03:06.000Z</time>
      </trkpt>
      <trkpt lat="40.323598" lon="-3.387576">
        <ele>772.8</ele>
        <time>1970-01-01T01:03:07.000Z</time>
      </trkpt>
      <trkpt lat="40.323532" lon="-3.387629">
        <ele>772.6</ele>
        <time>1970-01-01T01:03:08.000Z</time>
      </trkpt>
      <trkpt lat="40.323468" lon="-3.387682">
        <ele>772.6</ele>
        <time>1970-01-01T01:03:09.000Z</time>
      </trkpt>
      <trkpt lat="40.323405" lon="-3.387734">
        <ele>772.4</ele>
        <time>1970-01-01T01:03:10.000Z</time>
      </trkpt>
      <trkpt lat="40.323342" lon="-3.387786">
        <ele>772.2</ele>
        <time>1970-01-01T01:03:11.000Z</time>
      </trkpt>
      <trkpt lat="40.323279" lon="-3.387835">
        <ele>772.2</ele>
        <time>1970-01-01T01:03:12.000Z</time>
      </trkpt>
      <trkpt lat="40.323216" lon="-3.387883">
        <ele>772.2</ele>
        <time>1970-01-01T01:03:13.000Z</time>
      </trkpt>
      <trkpt lat="40.323153" lon="-3.387935">
        <ele>772.2</ele>
        <time>1970-01-01T01:03:14.000Z</time>
      </trkpt>
      <trkpt lat="40.32309" lon="-3.387985">
        <ele>772.4</ele>
        <time>1970-01-01T01:03:15.000Z</time>
      </trkpt>
      <trkpt lat="40.323029" lon="-3.388033">
        <ele>772.4</ele>
        <time>1970-01-01T01:03:16.000Z</time>
      </trkpt>
      <trkpt lat="40.322965" lon="-3.38808">
        <ele>772.6</ele>
        <time>1970-01-01T01:03:17.000Z</time>
      </trkpt>
      <trkpt lat="40.322902" lon="-3.388129">
        <ele>772.6</ele>
        <time>1970-01-01T01:03:18.000Z</time>
      </trkpt>
      <trkpt lat="40.322839" lon="-3.388176">
        <ele>772.6</ele>
        <time>1970-01-01T01:03:19.000Z</time>
      </trkpt>
      <trkpt lat="40.322775" lon="-3.388224">
        <ele>772.6</ele>
        <time>1970-01-01T01:03:20.000Z</time>
      </trkpt>
      <trkpt lat="40.322709" lon="-3.388268">
        <ele>772.6</ele>
        <time>1970-01-01T01:03:21.000Z</time>
      </trkpt>
      <trkpt lat="40.322642" lon="-3.388308">
        <ele>773</ele>
        <time>1970-01-01T01:03:22.000Z</time>
      </trkpt>
      <trkpt lat="40.322574" lon="-3.388349">
        <ele>773</ele>
        <time>1970-01-01T01:03:23.000Z</time>
      </trkpt>
      <trkpt lat="40.322505" lon="-3.388389">
        <ele>773</ele>
        <time>1970-01-01T01:03:24.000Z</time>
      </trkpt>
      <trkpt lat="40.322436" lon="-3.38843">
        <ele>773</ele>
        <time>1970-01-01T01:03:25.000Z</time>
      </trkpt>
      <trkpt lat="40.322368" lon="-3.388469">
        <ele>773</ele>
        <time>1970-01-01T01:03:26.000Z</time>
      </trkpt>
      <trkpt lat="40.322299" lon="-3.388508">
        <ele>773</ele>
        <time>1970-01-01T01:03:27.000Z</time>
      </trkpt>
      <trkpt lat="40.322232" lon="-3.388545">
        <ele>773</ele>
        <time>1970-01-01T01:03:28.000Z</time>
      </trkpt>
      <trkpt lat="40.322164" lon="-3.388584">
        <ele>773</ele>
        <time>1970-01-01T01:03:29.000Z</time>
      </trkpt>
      <trkpt lat="40.322097" lon="-3.388624">
        <ele>773</ele>
        <time>1970-01-01T01:03:30.000Z</time>
      </trkpt>
      <trkpt lat="40.322032" lon="-3.388667">
        <ele>773</ele>
        <time>1970-01-01T01:03:31.000Z</time>
      </trkpt>
      <trkpt lat="40.321967" lon="-3.388712">
        <ele>773</ele>
        <time>1970-01-01T01:03:32.000Z</time>
      </trkpt>
      <trkpt lat="40.321904" lon="-3.388758">
        <ele>773</ele>
        <time>1970-01-01T01:03:33.000Z</time>
      </trkpt>
      <trkpt lat="40.321841" lon="-3.388806">
        <ele>773</ele>
        <time>1970-01-01T01:03:34.000Z</time>
      </trkpt>
      <trkpt lat="40.32178" lon="-3.388851">
        <ele>773</ele>
        <time>1970-01-01T01:03:35.000Z</time>
      </trkpt>
      <trkpt lat="40.321718" lon="-3.388896">
        <ele>773</ele>
        <time>1970-01-01T01:03:36.000Z</time>
      </trkpt>
      <trkpt lat="40.321655" lon="-3.388942">
        <ele>773</ele>
        <time>1970-01-01T01:03:37.000Z</time>
      </trkpt>
      <trkpt lat="40.321592" lon="-3.38899">
        <ele>773</ele>
        <time>1970-01-01T01:03:38.000Z</time>
      </trkpt>
      <trkpt lat="40.321531" lon="-3.389037">
        <ele>773</ele>
        <time>1970-01-01T01:03:39.000Z</time>
      </trkpt>
      <trkpt lat="40.321468" lon="-3.389084">
        <ele>773</ele>
        <time>1970-01-01T01:03:40.000Z</time>
      </trkpt>
      <trkpt lat="40.321405" lon="-3.389132">
        <ele>773</ele>
        <time>1970-01-01T01:03:41.000Z</time>
      </trkpt>
      <trkpt lat="40.321341" lon="-3.389177">
        <ele>773</ele>
        <time>1970-01-01T01:03:42.000Z</time>
      </trkpt>
      <trkpt lat="40.321277" lon="-3.389223">
        <ele>773</ele>
        <time>1970-01-01T01:03:43.000Z</time>
      </trkpt>
      <trkpt lat="40.321211" lon="-3.38927">
        <ele>773</ele>
        <time>1970-01-01T01:03:44.000Z</time>
      </trkpt>
      <trkpt lat="40.321146" lon="-3.389317">
        <ele>773</ele>
        <time>1970-01-01T01:03:45.000Z</time>
      </trkpt>
      <trkpt lat="40.321081" lon="-3.389363">
        <ele>773</ele>
        <time>1970-01-01T01:03:46.000Z</time>
      </trkpt>
      <trkpt lat="40.321015" lon="-3.38941">
        <ele>773</ele>
        <time>1970-01-01T01:03:47.000Z</time>
      </trkpt>
      <trkpt lat="40.320948" lon="-3.389458">
        <ele>772.6</ele>
        <time>1970-01-01T01:03:48.000Z</time>
      </trkpt>
      <trkpt lat="40.320882" lon="-3.389507">
        <ele>772.6</ele>
        <time>1970-01-01T01:03:49.000Z</time>
      </trkpt>
      <trkpt lat="40.320814" lon="-3.389554">
        <ele>772.4</ele>
        <time>1970-01-01T01:03:50.000Z</time>
      </trkpt>
      <trkpt lat="40.320745" lon="-3.389601">
        <ele>772.4</ele>
        <time>1970-01-01T01:03:51.000Z</time>
      </trkpt>
      <trkpt lat="40.320677" lon="-3.38965">
        <ele>772.4</ele>
        <time>1970-01-01T01:03:52.000Z</time>
      </trkpt>
      <trkpt lat="40.320609" lon="-3.389701">
        <ele>772.2</ele>
        <time>1970-01-01T01:03:53.000Z</time>
      </trkpt>
      <trkpt lat="40.320543" lon="-3.389753">
        <ele>772.2</ele>
        <time>1970-01-01T01:03:54.000Z</time>
      </trkpt>
      <trkpt lat="40.320475" lon="-3.389805">
        <ele>772</ele>
        <time>1970-01-01T01:03:55.000Z</time>
      </trkpt>
      <trkpt lat="40.320408" lon="-3.389859">
        <ele>772</ele>
        <time>1970-01-01T01:03:56.000Z</time>
      </trkpt>
      <trkpt lat="40.320342" lon="-3.389914">
        <ele>771.8</ele>
        <time>1970-01-01T01:03:57.000Z</time>
      </trkpt>
      <trkpt lat="40.320279" lon="-3.389969">
        <ele>771.8</ele>
        <time>1970-01-01T01:03:58.000Z</time>
      </trkpt>
      <trkpt lat="40.320216" lon="-3.390026">
        <ele>771.6</ele>
        <time>1970-01-01T01:03:59.000Z</time>
      </trkpt>
      <trkpt lat="40.320154" lon="-3.390085">
        <ele>771.6</ele>
        <time>1970-01-01T01:04:00.000Z</time>
      </trkpt>
      <trkpt lat="40.320094" lon="-3.390146">
        <ele>771.6</ele>
        <time>1970-01-01T01:04:01.000Z</time>
      </trkpt>
      <trkpt lat="40.320037" lon="-3.390214">
        <ele>771.6</ele>
        <time>1970-01-01T01:04:02.000Z</time>
      </trkpt>
      <trkpt lat="40.319983" lon="-3.390284">
        <ele>771.6</ele>
        <time>1970-01-01T01:04:03.000Z</time>
      </trkpt>
      <trkpt lat="40.319928" lon="-3.390358">
        <ele>771.6</ele>
        <time>1970-01-01T01:04:04.000Z</time>
      </trkpt>
      <trkpt lat="40.319876" lon="-3.390431">
        <ele>771.6</ele>
        <time>1970-01-01T01:04:05.000Z</time>
      </trkpt>
      <trkpt lat="40.319826" lon="-3.390506">
        <ele>771.4</ele>
        <time>1970-01-01T01:04:06.000Z</time>
      </trkpt>
      <trkpt lat="40.319774" lon="-3.390583">
        <ele>771.4</ele>
        <time>1970-01-01T01:04:07.000Z</time>
      </trkpt>
      <trkpt lat="40.319718" lon="-3.390656">
        <ele>771.4</ele>
        <time>1970-01-01T01:04:08.000Z</time>
      </trkpt>
      <trkpt lat="40.31966" lon="-3.390722">
        <ele>771.2</ele>
        <time>1970-01-01T01:04:09.000Z</time>
      </trkpt>
      <trkpt lat="40.319599" lon="-3.390784">
        <ele>771.4</ele>
        <time>1970-01-01T01:04:10.000Z</time>
      </trkpt>
      <trkpt lat="40.31955" lon="-3.390831">
        <ele>771.2</ele>
        <time>1970-01-01T01:04:11.000Z</time>
      </trkpt>
      <trkpt lat="40.319475" lon="-3.390901">
        <ele>771.2</ele>
        <time>1970-01-01T01:04:12.000Z</time>
      </trkpt>
      <trkpt lat="40.319413" lon="-3.390952">
        <ele>771.2</ele>
        <time>1970-01-01T01:04:13.000Z</time>
      </trkpt>
      <trkpt lat="40.319348" lon="-3.391">
        <ele>771.4</ele>
        <time>1970-01-01T01:04:14.000Z</time>
      </trkpt>
      <trkpt lat="40.319296" lon="-3.391038">
        <ele>771.4</ele>
        <time>1970-01-01T01:04:15.000Z</time>
      </trkpt>
      <trkpt lat="40.319231" lon="-3.391083">
        <ele>771.6</ele>
        <time>1970-01-01T01:04:16.000Z</time>
      </trkpt>
      <trkpt lat="40.319152" lon="-3.391136">
        <ele>771.6</ele>
        <time>1970-01-01T01:04:17.000Z</time>
      </trkpt>
      <trkpt lat="40.319086" lon="-3.391177">
        <ele>771.8</ele>
        <time>1970-01-01T01:04:18.000Z</time>
      </trkpt>
      <trkpt lat="40.319021" lon="-3.391218">
        <ele>771.8</ele>
        <time>1970-01-01T01:04:19.000Z</time>
      </trkpt>
      <trkpt lat="40.318968" lon="-3.391251">
        <ele>772</ele>
        <time>1970-01-01T01:04:20.000Z</time>
      </trkpt>
      <trkpt lat="40.318887" lon="-3.3913">
        <ele>772.2</ele>
        <time>1970-01-01T01:04:21.000Z</time>
      </trkpt>
      <trkpt lat="40.31882" lon="-3.391336">
        <ele>772.4</ele>
        <time>1970-01-01T01:04:22.000Z</time>
      </trkpt>
      <trkpt lat="40.318753" lon="-3.391372">
        <ele>772.4</ele>
        <time>1970-01-01T01:04:23.000Z</time>
      </trkpt>
      <trkpt lat="40.318686" lon="-3.391409">
        <ele>772.6</ele>
        <time>1970-01-01T01:04:24.000Z</time>
      </trkpt>
      <trkpt lat="40.31862" lon="-3.391447">
        <ele>772.6</ele>
        <time>1970-01-01T01:04:25.000Z</time>
      </trkpt>
      <trkpt lat="40.318557" lon="-3.391482">
        <ele>772.8</ele>
        <time>1970-01-01T01:04:26.000Z</time>
      </trkpt>
      <trkpt lat="40.318495" lon="-3.391517">
        <ele>773</ele>
        <time>1970-01-01T01:04:27.000Z</time>
      </trkpt>
      <trkpt lat="40.318431" lon="-3.39155">
        <ele>773.2</ele>
        <time>1970-01-01T01:04:28.000Z</time>
      </trkpt>
      <trkpt lat="40.318369" lon="-3.391582">
        <ele>773.2</ele>
        <time>1970-01-01T01:04:29.000Z</time>
      </trkpt>
      <trkpt lat="40.318306" lon="-3.391615">
        <ele>773.4</ele>
        <time>1970-01-01T01:04:30.000Z</time>
      </trkpt>
      <trkpt lat="40.318244" lon="-3.39165">
        <ele>773.6</ele>
        <time>1970-01-01T01:04:31.000Z</time>
      </trkpt>
      <trkpt lat="40.31818" lon="-3.391684">
        <ele>773.6</ele>
        <time>1970-01-01T01:04:32.000Z</time>
      </trkpt>
      <trkpt lat="40.318114" lon="-3.391719">
        <ele>773.8</ele>
        <time>1970-01-01T01:04:33.000Z</time>
      </trkpt>
      <trkpt lat="40.318046" lon="-3.391756">
        <ele>773.8</ele>
        <time>1970-01-01T01:04:34.000Z</time>
      </trkpt>
      <trkpt lat="40.317977" lon="-3.391793">
        <ele>773.8</ele>
        <time>1970-01-01T01:04:35.000Z</time>
      </trkpt>
      <trkpt lat="40.317906" lon="-3.391826">
        <ele>774</ele>
        <time>1970-01-01T01:04:36.000Z</time>
      </trkpt>
      <trkpt lat="40.317834" lon="-3.391857">
        <ele>774</ele>
        <time>1970-01-01T01:04:37.000Z</time>
      </trkpt>
      <trkpt lat="40.317775" lon="-3.391882">
        <ele>774</ele>
        <time>1970-01-01T01:04:38.000Z</time>
      </trkpt>
      <trkpt lat="40.317702" lon="-3.391909">
        <ele>774</ele>
        <time>1970-01-01T01:04:39.000Z</time>
      </trkpt>
      <trkpt lat="40.317626" lon="-3.39193">
        <ele>774</ele>
        <time>1970-01-01T01:04:40.000Z</time>
      </trkpt>
      <trkpt lat="40.317534" lon="-3.391946">
        <ele>774</ele>
        <time>1970-01-01T01:04:41.000Z</time>
      </trkpt>
      <trkpt lat="40.317457" lon="-3.391951">
        <ele>774</ele>
        <time>1970-01-01T01:04:42.000Z</time>
      </trkpt>
      <trkpt lat="40.317395" lon="-3.391955">
        <ele>774</ele>
        <time>1970-01-01T01:04:43.000Z</time>
      </trkpt>
      <trkpt lat="40.317334" lon="-3.391956">
        <ele>774</ele>
        <time>1970-01-01T01:04:44.000Z</time>
      </trkpt>
      <trkpt lat="40.317272" lon="-3.391957">
        <ele>773.8</ele>
        <time>1970-01-01T01:04:45.000Z</time>
      </trkpt>
      <trkpt lat="40.317148" lon="-3.391958">
        <ele>773.6</ele>
        <time>1970-01-01T01:04:46.000Z</time>
      </trkpt>
      <trkpt lat="40.317069" lon="-3.391952">
        <ele>773.6</ele>
        <time>1970-01-01T01:04:47.000Z</time>
      </trkpt>
      <trkpt lat="40.317005" lon="-3.391944">
        <ele>773.4</ele>
        <time>1970-01-01T01:04:48.000Z</time>
      </trkpt>
      <trkpt lat="40.316925" lon="-3.391931">
        <ele>773.4</ele>
        <time>1970-01-01T01:04:49.000Z</time>
      </trkpt>
      <trkpt lat="40.316844" lon="-3.391914">
        <ele>773.2</ele>
        <time>1970-01-01T01:04:50.000Z</time>
      </trkpt>
      <trkpt lat="40.316748" lon="-3.391886">
        <ele>772.8</ele>
        <time>1970-01-01T01:04:51.000Z</time>
      </trkpt>
      <trkpt lat="40.316669" lon="-3.391862">
        <ele>772.6</ele>
        <time>1970-01-01T01:04:52.000Z</time>
      </trkpt>
      <trkpt lat="40.31659" lon="-3.391841">
        <ele>772.2</ele>
        <time>1970-01-01T01:04:53.000Z</time>
      </trkpt>
      <trkpt lat="40.316512" lon="-3.391822">
        <ele>771.8</ele>
        <time>1970-01-01T01:04:54.000Z</time>
      </trkpt>
      <trkpt lat="40.316432" lon="-3.391809">
        <ele>771.4</ele>
        <time>1970-01-01T01:04:55.000Z</time>
      </trkpt>
      <trkpt lat="40.316352" lon="-3.391802">
        <ele>771.2</ele>
        <time>1970-01-01T01:04:56.000Z</time>
      </trkpt>
      <trkpt lat="40.316271" lon="-3.391799">
        <ele>771</ele>
        <time>1970-01-01T01:04:57.000Z</time>
      </trkpt>
      <trkpt lat="40.316192" lon="-3.391794">
        <ele>770.8</ele>
        <time>1970-01-01T01:04:58.000Z</time>
      </trkpt>
      <trkpt lat="40.316114" lon="-3.391791">
        <ele>770.8</ele>
        <time>1970-01-01T01:04:59.000Z</time>
      </trkpt>
      <trkpt lat="40.316037" lon="-3.39179">
        <ele>770.6</ele>
        <time>1970-01-01T01:05:00.000Z</time>
      </trkpt>
      <trkpt lat="40.315959" lon="-3.391791">
        <ele>770.4</ele>
        <time>1970-01-01T01:05:01.000Z</time>
      </trkpt>
      <trkpt lat="40.315882" lon="-3.391798">
        <ele>770.4</ele>
        <time>1970-01-01T01:05:02.000Z</time>
      </trkpt>
      <trkpt lat="40.315805" lon="-3.391809">
        <ele>770.2</ele>
        <time>1970-01-01T01:05:03.000Z</time>
      </trkpt>
      <trkpt lat="40.315728" lon="-3.391827">
        <ele>770.2</ele>
        <time>1970-01-01T01:05:04.000Z</time>
      </trkpt>
      <trkpt lat="40.315649" lon="-3.391855">
        <ele>770</ele>
        <time>1970-01-01T01:05:05.000Z</time>
      </trkpt>
      <trkpt lat="40.315568" lon="-3.391892">
        <ele>770</ele>
        <time>1970-01-01T01:05:06.000Z</time>
      </trkpt>
      <trkpt lat="40.315489" lon="-3.391941">
        <ele>769.6</ele>
        <time>1970-01-01T01:05:07.000Z</time>
      </trkpt>
      <trkpt lat="40.315415" lon="-3.392">
        <ele>769.4</ele>
        <time>1970-01-01T01:05:08.000Z</time>
      </trkpt>
      <trkpt lat="40.315339" lon="-3.392063">
        <ele>768.8</ele>
        <time>1970-01-01T01:05:09.000Z</time>
      </trkpt>
      <trkpt lat="40.31526" lon="-3.392127">
        <ele>768.6</ele>
        <time>1970-01-01T01:05:10.000Z</time>
      </trkpt>
      <trkpt lat="40.315176" lon="-3.392189">
        <ele>768.2</ele>
        <time>1970-01-01T01:05:11.000Z</time>
      </trkpt>
      <trkpt lat="40.315096" lon="-3.392252">
        <ele>767.8</ele>
        <time>1970-01-01T01:05:12.000Z</time>
      </trkpt>
      <trkpt lat="40.315022" lon="-3.392318">
        <ele>767.6</ele>
        <time>1970-01-01T01:05:13.000Z</time>
      </trkpt>
      <trkpt lat="40.314958" lon="-3.392391">
        <ele>767.2</ele>
        <time>1970-01-01T01:05:14.000Z</time>
      </trkpt>
      <trkpt lat="40.314898" lon="-3.392479">
        <ele>766.8</ele>
        <time>1970-01-01T01:05:15.000Z</time>
      </trkpt>
      <trkpt lat="40.31484" lon="-3.392571">
        <ele>766.4</ele>
        <time>1970-01-01T01:05:16.000Z</time>
      </trkpt>
      <trkpt lat="40.314781" lon="-3.392664">
        <ele>766</ele>
        <time>1970-01-01T01:05:17.000Z</time>
      </trkpt>
      <trkpt lat="40.314724" lon="-3.392756">
        <ele>765.2</ele>
        <time>1970-01-01T01:05:18.000Z</time>
      </trkpt>
      <trkpt lat="40.314667" lon="-3.392848">
        <ele>764.6</ele>
        <time>1970-01-01T01:05:19.000Z</time>
      </trkpt>
      <trkpt lat="40.31461" lon="-3.392939">
        <ele>764.4</ele>
        <time>1970-01-01T01:05:20.000Z</time>
      </trkpt>
      <trkpt lat="40.314555" lon="-3.393029">
        <ele>764.2</ele>
        <time>1970-01-01T01:05:21.000Z</time>
      </trkpt>
      <trkpt lat="40.3145" lon="-3.393118">
        <ele>764.2</ele>
        <time>1970-01-01T01:05:22.000Z</time>
      </trkpt>
      <trkpt lat="40.314448" lon="-3.393205">
        <ele>764</ele>
        <time>1970-01-01T01:05:23.000Z</time>
      </trkpt>
      <trkpt lat="40.314397" lon="-3.393288">
        <ele>764</ele>
        <time>1970-01-01T01:05:24.000Z</time>
      </trkpt>
      <trkpt lat="40.314344" lon="-3.393364">
        <ele>764</ele>
        <time>1970-01-01T01:05:25.000Z</time>
      </trkpt>
      <trkpt lat="40.314295" lon="-3.393441">
        <ele>764</ele>
        <time>1970-01-01T01:05:26.000Z</time>
      </trkpt>
      <trkpt lat="40.314255" lon="-3.393521">
        <ele>763.8</ele>
        <time>1970-01-01T01:05:27.000Z</time>
      </trkpt>
      <trkpt lat="40.314229" lon="-3.393609">
        <ele>763.8</ele>
        <time>1970-01-01T01:05:28.000Z</time>
      </trkpt>
      <trkpt lat="40.31421" lon="-3.393699">
        <ele>763.8</ele>
        <time>1970-01-01T01:05:29.000Z</time>
      </trkpt>
      <trkpt lat="40.314188" lon="-3.393792">
        <ele>763.8</ele>
        <time>1970-01-01T01:05:30.000Z</time>
      </trkpt>
      <trkpt lat="40.314164" lon="-3.393887">
        <ele>763.8</ele>
        <time>1970-01-01T01:05:31.000Z</time>
      </trkpt>
      <trkpt lat="40.314138" lon="-3.393983">
        <ele>763.6</ele>
        <time>1970-01-01T01:05:32.000Z</time>
      </trkpt>
      <trkpt lat="40.314106" lon="-3.394077">
        <ele>763.6</ele>
        <time>1970-01-01T01:05:33.000Z</time>
      </trkpt>
      <trkpt lat="40.314066" lon="-3.394168">
        <ele>763.4</ele>
        <time>1970-01-01T01:05:34.000Z</time>
      </trkpt>
      <trkpt lat="40.314021" lon="-3.394257">
        <ele>763</ele>
        <time>1970-01-01T01:05:35.000Z</time>
      </trkpt>
      <trkpt lat="40.313977" lon="-3.394349">
        <ele>762.8</ele>
        <time>1970-01-01T01:05:36.000Z</time>
      </trkpt>
      <trkpt lat="40.313942" lon="-3.394445">
        <ele>762.4</ele>
        <time>1970-01-01T01:05:37.000Z</time>
      </trkpt>
      <trkpt lat="40.313918" lon="-3.394549">
        <ele>762</ele>
        <time>1970-01-01T01:05:38.000Z</time>
      </trkpt>
      <trkpt lat="40.313908" lon="-3.394659">
        <ele>761.4</ele>
        <time>1970-01-01T01:05:39.000Z</time>
      </trkpt>
      <trkpt lat="40.313901" lon="-3.39477">
        <ele>760.6</ele>
        <time>1970-01-01T01:05:40.000Z</time>
      </trkpt>
      <trkpt lat="40.31389" lon="-3.39487">
        <ele>759.6</ele>
        <time>1970-01-01T01:05:41.000Z</time>
      </trkpt>
      <trkpt lat="40.313869" lon="-3.394959">
        <ele>758.2</ele>
        <time>1970-01-01T01:05:42.000Z</time>
      </trkpt>
      <trkpt lat="40.313837" lon="-3.395044">
        <ele>757.6</ele>
        <time>1970-01-01T01:05:43.000Z</time>
      </trkpt>
      <trkpt lat="40.313799" lon="-3.395129">
        <ele>756.4</ele>
        <time>1970-01-01T01:05:44.000Z</time>
      </trkpt>
      <trkpt lat="40.313766" lon="-3.395217">
        <ele>756</ele>
        <time>1970-01-01T01:05:45.000Z</time>
      </trkpt>
      <trkpt lat="40.313737" lon="-3.395312">
        <ele>755.4</ele>
        <time>1970-01-01T01:05:46.000Z</time>
      </trkpt>
      <trkpt lat="40.313705" lon="-3.395409">
        <ele>755.2</ele>
        <time>1970-01-01T01:05:47.000Z</time>
      </trkpt>
      <trkpt lat="40.31367" lon="-3.395505">
        <ele>754</ele>
        <time>1970-01-01T01:05:48.000Z</time>
      </trkpt>
      <trkpt lat="40.313639" lon="-3.395576">
        <ele>753.6</ele>
        <time>1970-01-01T01:05:49.000Z</time>
      </trkpt>
      <trkpt lat="40.313581" lon="-3.395677">
        <ele>753.2</ele>
        <time>1970-01-01T01:05:50.000Z</time>
      </trkpt>
      <trkpt lat="40.313523" lon="-3.395758">
        <ele>752.8</ele>
        <time>1970-01-01T01:05:51.000Z</time>
      </trkpt>
      <trkpt lat="40.31347" lon="-3.39582">
        <ele>752.6</ele>
        <time>1970-01-01T01:05:52.000Z</time>
      </trkpt>
      <trkpt lat="40.313401" lon="-3.395896">
        <ele>751.6</ele>
        <time>1970-01-01T01:05:53.000Z</time>
      </trkpt>
      <trkpt lat="40.313334" lon="-3.395997">
        <ele>750.8</ele>
        <time>1970-01-01T01:05:54.000Z</time>
      </trkpt>
      <trkpt lat="40.3133" lon="-3.396095">
        <ele>749.8</ele>
        <time>1970-01-01T01:05:55.000Z</time>
      </trkpt>
      <trkpt lat="40.313273" lon="-3.3962">
        <ele>749</ele>
        <time>1970-01-01T01:05:56.000Z</time>
      </trkpt>
      <trkpt lat="40.31325" lon="-3.396304">
        <ele>748.6</ele>
        <time>1970-01-01T01:05:57.000Z</time>
      </trkpt>
      <trkpt lat="40.313233" lon="-3.396383">
        <ele>747.8</ele>
        <time>1970-01-01T01:05:58.000Z</time>
      </trkpt>
      <trkpt lat="40.313211" lon="-3.396479">
        <ele>747.4</ele>
        <time>1970-01-01T01:05:59.000Z</time>
      </trkpt>
      <trkpt lat="40.313182" lon="-3.396591">
        <ele>747</ele>
        <time>1970-01-01T01:06:00.000Z</time>
      </trkpt>
      <trkpt lat="40.313155" lon="-3.396689">
        <ele>746.6</ele>
        <time>1970-01-01T01:06:01.000Z</time>
      </trkpt>
      <trkpt lat="40.313129" lon="-3.39679">
        <ele>745.8</ele>
        <time>1970-01-01T01:06:02.000Z</time>
      </trkpt>
      <trkpt lat="40.313101" lon="-3.396891">
        <ele>745.4</ele>
        <time>1970-01-01T01:06:03.000Z</time>
      </trkpt>
      <trkpt lat="40.31307" lon="-3.396989">
        <ele>745</ele>
        <time>1970-01-01T01:06:04.000Z</time>
      </trkpt>
      <trkpt lat="40.313035" lon="-3.397082">
        <ele>744.4</ele>
        <time>1970-01-01T01:06:05.000Z</time>
      </trkpt>
      <trkpt lat="40.312999" lon="-3.397167">
        <ele>744.2</ele>
        <time>1970-01-01T01:06:06.000Z</time>
      </trkpt>
      <trkpt lat="40.312968" lon="-3.397244">
        <ele>743</ele>
        <time>1970-01-01T01:06:07.000Z</time>
      </trkpt>
      <trkpt lat="40.312943" lon="-3.397321">
        <ele>742.8</ele>
        <time>1970-01-01T01:06:08.000Z</time>
      </trkpt>
      <trkpt lat="40.312919" lon="-3.397396">
        <ele>742.4</ele>
        <time>1970-01-01T01:06:09.000Z</time>
      </trkpt>
      <trkpt lat="40.312896" lon="-3.397467">
        <ele>742</ele>
        <time>1970-01-01T01:06:10.000Z</time>
      </trkpt>
      <trkpt lat="40.312881" lon="-3.397525">
        <ele>742</ele>
        <time>1970-01-01T01:06:11.000Z</time>
      </trkpt>
      <trkpt lat="40.31287" lon="-3.397577">
        <ele>741.8</ele>
        <time>1970-01-01T01:06:12.000Z</time>
      </trkpt>
      <trkpt lat="40.312862" lon="-3.397632">
        <ele>741.6</ele>
        <time>1970-01-01T01:06:13.000Z</time>
      </trkpt>
      <trkpt lat="40.312853" lon="-3.39769">
        <ele>741.4</ele>
        <time>1970-01-01T01:06:14.000Z</time>
      </trkpt>
      <trkpt lat="40.312841" lon="-3.397747">
        <ele>741.4</ele>
        <time>1970-01-01T01:06:15.000Z</time>
      </trkpt>
      <trkpt lat="40.312828" lon="-3.397805">
        <ele>741.2</ele>
        <time>1970-01-01T01:06:16.000Z</time>
      </trkpt>
      <trkpt lat="40.312819" lon="-3.397864">
        <ele>741</ele>
        <time>1970-01-01T01:06:17.000Z</time>
      </trkpt>
      <trkpt lat="40.312805" lon="-3.397922">
        <ele>741</ele>
        <time>1970-01-01T01:06:18.000Z</time>
      </trkpt>
      <trkpt lat="40.312795" lon="-3.397972">
        <ele>740.8</ele>
        <time>1970-01-01T01:06:19.000Z</time>
      </trkpt>
      <trkpt lat="40.31279" lon="-3.39802">
        <ele>740.8</ele>
        <time>1970-01-01T01:06:20.000Z</time>
      </trkpt>
      <trkpt lat="40.312791" lon="-3.398061">
        <ele>740.6</ele>
        <time>1970-01-01T01:06:21.000Z</time>
      </trkpt>
      <trkpt lat="40.312786" lon="-3.398096">
        <ele>740.6</ele>
        <time>1970-01-01T01:06:22.000Z</time>
      </trkpt>
      <trkpt lat="40.312781" lon="-3.398132">
        <ele>740.6</ele>
        <time>1970-01-01T01:06:23.000Z</time>
      </trkpt>
      <trkpt lat="40.312777" lon="-3.39817">
        <ele>740.6</ele>
        <time>1970-01-01T01:06:24.000Z</time>
      </trkpt>
      <trkpt lat="40.312769" lon="-3.398208">
        <ele>740.4</ele>
        <time>1970-01-01T01:06:25.000Z</time>
      </trkpt>
      <trkpt lat="40.312754" lon="-3.398245">
        <ele>740.4</ele>
        <time>1970-01-01T01:06:26.000Z</time>
      </trkpt>
      <trkpt lat="40.312739" lon="-3.398284">
        <ele>740.2</ele>
        <time>1970-01-01T01:06:27.000Z</time>
      </trkpt>
      <trkpt lat="40.312715" lon="-3.398324">
        <ele>740.2</ele>
        <time>1970-01-01T01:06:28.000Z</time>
      </trkpt>
      <trkpt lat="40.312684" lon="-3.398346">
        <ele>740.2</ele>
        <time>1970-01-01T01:06:29.000Z</time>
      </trkpt>
      <trkpt lat="40.312656" lon="-3.398351">
        <ele>740</ele>
        <time>1970-01-01T01:06:30.000Z</time>
      </trkpt>
      <trkpt lat="40.312618" lon="-3.398346">
        <ele>739.2</ele>
        <time>1970-01-01T01:06:31.000Z</time>
      </trkpt>
      <trkpt lat="40.312594" lon="-3.39834">
        <ele>739</ele>
        <time>1970-01-01T01:06:32.000Z</time>
      </trkpt>
      <trkpt lat="40.312567" lon="-3.398334">
        <ele>738.4</ele>
        <time>1970-01-01T01:06:33.000Z</time>
      </trkpt>
      <trkpt lat="40.31254" lon="-3.398334">
        <ele>738.2</ele>
        <time>1970-01-01T01:06:34.000Z</time>
      </trkpt>
      <trkpt lat="40.312512" lon="-3.39834">
        <ele>738</ele>
        <time>1970-01-01T01:06:35.000Z</time>
      </trkpt>
      <trkpt lat="40.312475" lon="-3.398338">
        <ele>737.8</ele>
        <time>1970-01-01T01:06:36.000Z</time>
      </trkpt>
      <trkpt lat="40.312436" lon="-3.398325">
        <ele>737.4</ele>
        <time>1970-01-01T01:06:37.000Z</time>
      </trkpt>
      <trkpt lat="40.312402" lon="-3.398311">
        <ele>736.8</ele>
        <time>1970-01-01T01:06:38.000Z</time>
      </trkpt>
      <trkpt lat="40.31237" lon="-3.398296">
        <ele>736</ele>
        <time>1970-01-01T01:06:39.000Z</time>
      </trkpt>
      <trkpt lat="40.312343" lon="-3.398279">
        <ele>734.6</ele>
        <time>1970-01-01T01:06:40.000Z</time>
      </trkpt>
      <trkpt lat="40.312313" lon="-3.398263">
        <ele>734</ele>
        <time>1970-01-01T01:06:41.000Z</time>
      </trkpt>
      <trkpt lat="40.31228" lon="-3.398247">
        <ele>733.4</ele>
        <time>1970-01-01T01:06:42.000Z</time>
      </trkpt>
      <trkpt lat="40.312246" lon="-3.398232">
        <ele>733</ele>
        <time>1970-01-01T01:06:43.000Z</time>
      </trkpt>
      <trkpt lat="40.31221" lon="-3.398216">
        <ele>731.8</ele>
        <time>1970-01-01T01:06:44.000Z</time>
      </trkpt>
      <trkpt lat="40.312175" lon="-3.398194">
        <ele>731.4</ele>
        <time>1970-01-01T01:06:45.000Z</time>
      </trkpt>
      <trkpt lat="40.312141" lon="-3.398172">
        <ele>730.8</ele>
        <time>1970-01-01T01:06:46.000Z</time>
      </trkpt>
      <trkpt lat="40.31211" lon="-3.39816">
        <ele>730</ele>
        <time>1970-01-01T01:06:47.000Z</time>
      </trkpt>
      <trkpt lat="40.31206" lon="-3.398149">
        <ele>729.6</ele>
        <time>1970-01-01T01:06:48.000Z</time>
      </trkpt>
      <trkpt lat="40.312017" lon="-3.398146">
        <ele>728.2</ele>
        <time>1970-01-01T01:06:49.000Z</time>
      </trkpt>
      <trkpt lat="40.311972" lon="-3.398149">
        <ele>727.8</ele>
        <time>1970-01-01T01:06:50.000Z</time>
      </trkpt>
      <trkpt lat="40.31192" lon="-3.39816">
        <ele>726.6</ele>
        <time>1970-01-01T01:06:51.000Z</time>
      </trkpt>
      <trkpt lat="40.311862" lon="-3.398175">
        <ele>726.2</ele>
        <time>1970-01-01T01:06:52.000Z</time>
      </trkpt>
      <trkpt lat="40.311799" lon="-3.398189">
        <ele>725.6</ele>
        <time>1970-01-01T01:06:53.000Z</time>
      </trkpt>
      <trkpt lat="40.311737" lon="-3.398202">
        <ele>725</ele>
        <time>1970-01-01T01:06:54.000Z</time>
      </trkpt>
      <trkpt lat="40.311682" lon="-3.398209">
        <ele>724</ele>
        <time>1970-01-01T01:06:55.000Z</time>
      </trkpt>
      <trkpt lat="40.311633" lon="-3.398222">
        <ele>723</ele>
        <time>1970-01-01T01:06:56.000Z</time>
      </trkpt>
      <trkpt lat="40.311581" lon="-3.398245">
        <ele>722.6</ele>
        <time>1970-01-01T01:06:57.000Z</time>
      </trkpt>
      <trkpt lat="40.311526" lon="-3.398264">
        <ele>721.8</ele>
        <time>1970-01-01T01:06:58.000Z</time>
      </trkpt>
      <trkpt lat="40.311465" lon="-3.398272">
        <ele>721.2</ele>
        <time>1970-01-01T01:06:59.000Z</time>
      </trkpt>
      <trkpt lat="40.311401" lon="-3.39827">
        <ele>720.2</ele>
        <time>1970-01-01T01:07:00.000Z</time>
      </trkpt>
      <trkpt lat="40.311338" lon="-3.398258">
        <ele>719.4</ele>
        <time>1970-01-01T01:07:01.000Z</time>
      </trkpt>
      <trkpt lat="40.311285" lon="-3.398245">
        <ele>719</ele>
        <time>1970-01-01T01:07:02.000Z</time>
      </trkpt>
      <trkpt lat="40.311246" lon="-3.398238">
        <ele>718.4</ele>
        <time>1970-01-01T01:07:03.000Z</time>
      </trkpt>
      <trkpt lat="40.311204" lon="-3.398235">
        <ele>718</ele>
        <time>1970-01-01T01:07:04.000Z</time>
      </trkpt>
      <trkpt lat="40.311165" lon="-3.398235">
        <ele>716.6</ele>
        <time>1970-01-01T01:07:05.000Z</time>
      </trkpt>
      <trkpt lat="40.311114" lon="-3.398238">
        <ele>716</ele>
        <time>1970-01-01T01:07:06.000Z</time>
      </trkpt>
      <trkpt lat="40.311082" lon="-3.398244">
        <ele>715.4</ele>
        <time>1970-01-01T01:07:07.000Z</time>
      </trkpt>
      <trkpt lat="40.311047" lon="-3.398253">
        <ele>714.8</ele>
        <time>1970-01-01T01:07:08.000Z</time>
      </trkpt>
      <trkpt lat="40.311009" lon="-3.398272">
        <ele>714.4</ele>
        <time>1970-01-01T01:07:09.000Z</time>
      </trkpt>
      <trkpt lat="40.310983" lon="-3.398287">
        <ele>713.4</ele>
        <time>1970-01-01T01:07:10.000Z</time>
      </trkpt>
      <trkpt lat="40.31095" lon="-3.398282">
        <ele>713</ele>
        <time>1970-01-01T01:07:11.000Z</time>
      </trkpt>
      <trkpt lat="40.310913" lon="-3.398259">
        <ele>711.6</ele>
        <time>1970-01-01T01:07:12.000Z</time>
      </trkpt>
      <trkpt lat="40.31088" lon="-3.398228">
        <ele>711.2</ele>
        <time>1970-01-01T01:07:13.000Z</time>
      </trkpt>
      <trkpt lat="40.310855" lon="-3.398201">
        <ele>710.4</ele>
        <time>1970-01-01T01:07:14.000Z</time>
      </trkpt>
      <trkpt lat="40.310836" lon="-3.398182">
        <ele>709.4</ele>
        <time>1970-01-01T01:07:15.000Z</time>
      </trkpt>
      <trkpt lat="40.310823" lon="-3.398166">
        <ele>708.8</ele>
        <time>1970-01-01T01:07:16.000Z</time>
      </trkpt>
      <trkpt lat="40.310814" lon="-3.398154">
        <ele>708.4</ele>
        <time>1970-01-01T01:07:17.000Z</time>
      </trkpt>
      <trkpt lat="40.310806" lon="-3.39814">
        <ele>708.2</ele>
        <time>1970-01-01T01:07:18.000Z</time>
      </trkpt>
      <trkpt lat="40.310799" lon="-3.398124">
        <ele>708</ele>
        <time>1970-01-01T01:07:19.000Z</time>
      </trkpt>
      <trkpt lat="40.310789" lon="-3.398105">
        <ele>707.8</ele>
        <time>1970-01-01T01:07:20.000Z</time>
      </trkpt>
      <trkpt lat="40.310782" lon="-3.398087">
        <ele>707.8</ele>
        <time>1970-01-01T01:07:21.000Z</time>
      </trkpt>
      <trkpt lat="40.310776" lon="-3.398075">
        <ele>707.8</ele>
        <time>1970-01-01T01:07:22.000Z</time>
      </trkpt>
      <trkpt lat="40.310769" lon="-3.398063">
        <ele>707.8</ele>
        <time>1970-01-01T01:07:23.000Z</time>
      </trkpt>
      <trkpt lat="40.31076" lon="-3.398051">
        <ele>708</ele>
        <time>1970-01-01T01:07:24.000Z</time>
      </trkpt>
      <trkpt lat="40.310746" lon="-3.398035">
        <ele>708</ele>
        <time>1970-01-01T01:07:25.000Z</time>
      </trkpt>
      <trkpt lat="40.310732" lon="-3.398018">
        <ele>708.4</ele>
        <time>1970-01-01T01:07:26.000Z</time>
      </trkpt>
      <trkpt lat="40.31072" lon="-3.398006">
        <ele>708.6</ele>
        <time>1970-01-01T01:07:27.000Z</time>
      </trkpt>
      <trkpt lat="40.310696" lon="-3.397985">
        <ele>708.6</ele>
        <time>1970-01-01T01:07:28.000Z</time>
      </trkpt>
      <trkpt lat="40.31067" lon="-3.397964">
        <ele>708.6</ele>
        <time>1970-01-01T01:07:29.000Z</time>
      </trkpt>
      <trkpt lat="40.310641" lon="-3.397939">
        <ele>708.8</ele>
        <time>1970-01-01T01:07:30.000Z</time>
      </trkpt>
      <trkpt lat="40.310611" lon="-3.397919">
        <ele>708.8</ele>
        <time>1970-01-01T01:07:31.000Z</time>
      </trkpt>
      <trkpt lat="40.310583" lon="-3.397905">
        <ele>709</ele>
        <time>1970-01-01T01:07:32.000Z</time>
      </trkpt>
      <trkpt lat="40.310556" lon="-3.397899">
        <ele>709.2</ele>
        <time>1970-01-01T01:07:33.000Z</time>
      </trkpt>
      <trkpt lat="40.31054" lon="-3.397905">
        <ele>709.2</ele>
        <time>1970-01-01T01:07:34.000Z</time>
      </trkpt>
      <trkpt lat="40.310522" lon="-3.397925">
        <ele>709.8</ele>
        <time>1970-01-01T01:07:35.000Z</time>
      </trkpt>
      <trkpt lat="40.310512" lon="-3.39795">
        <ele>710</ele>
        <time>1970-01-01T01:07:36.000Z</time>
      </trkpt>
      <trkpt lat="40.310505" lon="-3.39798">
        <ele>710</ele>
        <time>1970-01-01T01:07:37.000Z</time>
      </trkpt>
      <trkpt lat="40.3105" lon="-3.398004">
        <ele>710.4</ele>
        <time>1970-01-01T01:07:38.000Z</time>
      </trkpt>
      <trkpt lat="40.310493" lon="-3.398035">
        <ele>710.6</ele>
        <time>1970-01-01T01:07:39.000Z</time>
      </trkpt>
      <trkpt lat="40.310486" lon="-3.398068">
        <ele>710.8</ele>
        <time>1970-01-01T01:07:40.000Z</time>
      </trkpt>
      <trkpt lat="40.310475" lon="-3.398097">
        <ele>710.8</ele>
        <time>1970-01-01T01:07:41.000Z</time>
      </trkpt>
      <trkpt lat="40.310464" lon="-3.398127">
        <ele>710.8</ele>
        <time>1970-01-01T01:07:42.000Z</time>
      </trkpt>
      <trkpt lat="40.310455" lon="-3.398153">
        <ele>710.8</ele>
        <time>1970-01-01T01:07:43.000Z</time>
      </trkpt>
      <trkpt lat="40.310444" lon="-3.398185">
        <ele>710.6</ele>
        <time>1970-01-01T01:07:44.000Z</time>
      </trkpt>
      <trkpt lat="40.310427" lon="-3.398223">
        <ele>710.6</ele>
        <time>1970-01-01T01:07:45.000Z</time>
      </trkpt>
      <trkpt lat="40.310414" lon="-3.398257">
        <ele>710.6</ele>
        <time>1970-01-01T01:07:46.000Z</time>
      </trkpt>
      <trkpt lat="40.310402" lon="-3.39829">
        <ele>710.4</ele>
        <time>1970-01-01T01:07:47.000Z</time>
      </trkpt>
      <trkpt lat="40.310394" lon="-3.398312">
        <ele>710.2</ele>
        <time>1970-01-01T01:07:48.000Z</time>
      </trkpt>
      <trkpt lat="40.310384" lon="-3.398334">
        <ele>710</ele>
        <time>1970-01-01T01:07:49.000Z</time>
      </trkpt>
      <trkpt lat="40.310375" lon="-3.398356">
        <ele>709.6</ele>
        <time>1970-01-01T01:07:50.000Z</time>
      </trkpt>
      <trkpt lat="40.310369" lon="-3.398374">
        <ele>709.4</ele>
        <time>1970-01-01T01:07:51.000Z</time>
      </trkpt>
      <trkpt lat="40.310358" lon="-3.398394">
        <ele>709.2</ele>
        <time>1970-01-01T01:07:52.000Z</time>
      </trkpt>
      <trkpt lat="40.310346" lon="-3.398419">
        <ele>709</ele>
        <time>1970-01-01T01:07:53.000Z</time>
      </trkpt>
      <trkpt lat="40.310336" lon="-3.398441">
        <ele>708.6</ele>
        <time>1970-01-01T01:07:54.000Z</time>
      </trkpt>
      <trkpt lat="40.310326" lon="-3.39846">
        <ele>708.6</ele>
        <time>1970-01-01T01:07:55.000Z</time>
      </trkpt>
      <trkpt lat="40.31032" lon="-3.39848">
        <ele>708.4</ele>
        <time>1970-01-01T01:07:56.000Z</time>
      </trkpt>
      <trkpt lat="40.310313" lon="-3.398499">
        <ele>708.2</ele>
        <time>1970-01-01T01:07:57.000Z</time>
      </trkpt>
      <trkpt lat="40.310302" lon="-3.398525">
        <ele>708</ele>
        <time>1970-01-01T01:07:58.000Z</time>
      </trkpt>
      <trkpt lat="40.31029" lon="-3.398553">
        <ele>707.8</ele>
        <time>1970-01-01T01:07:59.000Z</time>
      </trkpt>
      <trkpt lat="40.310278" lon="-3.39858">
        <ele>707.6</ele>
        <time>1970-01-01T01:08:00.000Z</time>
      </trkpt>
      <trkpt lat="40.310269" lon="-3.398605">
        <ele>707.6</ele>
        <time>1970-01-01T01:08:01.000Z</time>
      </trkpt>
      <trkpt lat="40.310259" lon="-3.39863">
        <ele>707.4</ele>
        <time>1970-01-01T01:08:02.000Z</time>
      </trkpt>
      <trkpt lat="40.310248" lon="-3.398656">
        <ele>707.4</ele>
        <time>1970-01-01T01:08:03.000Z</time>
      </trkpt>
      <trkpt lat="40.310236" lon="-3.39868">
        <ele>707.2</ele>
        <time>1970-01-01T01:08:04.000Z</time>
      </trkpt>
      <trkpt lat="40.310222" lon="-3.398707">
        <ele>707.2</ele>
        <time>1970-01-01T01:08:05.000Z</time>
      </trkpt>
      <trkpt lat="40.310206" lon="-3.398736">
        <ele>706.8</ele>
        <time>1970-01-01T01:08:06.000Z</time>
      </trkpt>
      <trkpt lat="40.310192" lon="-3.398766">
        <ele>706.8</ele>
        <time>1970-01-01T01:08:07.000Z</time>
      </trkpt>
      <trkpt lat="40.310181" lon="-3.398794">
        <ele>706.4</ele>
        <time>1970-01-01T01:08:08.000Z</time>
      </trkpt>
      <trkpt lat="40.310169" lon="-3.398826">
        <ele>706.2</ele>
        <time>1970-01-01T01:08:09.000Z</time>
      </trkpt>
      <trkpt lat="40.310157" lon="-3.398861">
        <ele>705.8</ele>
        <time>1970-01-01T01:08:10.000Z</time>
      </trkpt>
      <trkpt lat="40.310149" lon="-3.398897">
        <ele>705.6</ele>
        <time>1970-01-01T01:08:11.000Z</time>
      </trkpt>
      <trkpt lat="40.310144" lon="-3.398928">
        <ele>705.4</ele>
        <time>1970-01-01T01:08:12.000Z</time>
      </trkpt>
      <trkpt lat="40.31014" lon="-3.398964">
        <ele>705</ele>
        <time>1970-01-01T01:08:13.000Z</time>
      </trkpt>
      <trkpt lat="40.310133" lon="-3.399003">
        <ele>704.8</ele>
        <time>1970-01-01T01:08:14.000Z</time>
      </trkpt>
      <trkpt lat="40.310129" lon="-3.399042">
        <ele>704.6</ele>
        <time>1970-01-01T01:08:15.000Z</time>
      </trkpt>
      <trkpt lat="40.310126" lon="-3.39908">
        <ele>704.6</ele>
        <time>1970-01-01T01:08:16.000Z</time>
      </trkpt>
      <trkpt lat="40.310123" lon="-3.399119">
        <ele>704.4</ele>
        <time>1970-01-01T01:08:17.000Z</time>
      </trkpt>
      <trkpt lat="40.310121" lon="-3.399159">
        <ele>704.2</ele>
        <time>1970-01-01T01:08:18.000Z</time>
      </trkpt>
      <trkpt lat="40.31012" lon="-3.399203">
        <ele>704</ele>
        <time>1970-01-01T01:08:19.000Z</time>
      </trkpt>
      <trkpt lat="40.310118" lon="-3.399246">
        <ele>704</ele>
        <time>1970-01-01T01:08:20.000Z</time>
      </trkpt>
      <trkpt lat="40.310115" lon="-3.399291">
        <ele>703.8</ele>
        <time>1970-01-01T01:08:21.000Z</time>
      </trkpt>
      <trkpt lat="40.310114" lon="-3.399337">
        <ele>703.6</ele>
        <time>1970-01-01T01:08:22.000Z</time>
      </trkpt>
      <trkpt lat="40.310108" lon="-3.399384">
        <ele>703.6</ele>
        <time>1970-01-01T01:08:23.000Z</time>
      </trkpt>
      <trkpt lat="40.310098" lon="-3.399429">
        <ele>703.4</ele>
        <time>1970-01-01T01:08:24.000Z</time>
      </trkpt>
      <trkpt lat="40.31009" lon="-3.399474">
        <ele>703</ele>
        <time>1970-01-01T01:08:25.000Z</time>
      </trkpt>
      <trkpt lat="40.310081" lon="-3.399523">
        <ele>702.8</ele>
        <time>1970-01-01T01:08:26.000Z</time>
      </trkpt>
      <trkpt lat="40.310071" lon="-3.399574">
        <ele>702.4</ele>
        <time>1970-01-01T01:08:27.000Z</time>
      </trkpt>
      <trkpt lat="40.310058" lon="-3.399626">
        <ele>702.2</ele>
        <time>1970-01-01T01:08:28.000Z</time>
      </trkpt>
      <trkpt lat="40.310043" lon="-3.39968">
        <ele>701.8</ele>
        <time>1970-01-01T01:08:29.000Z</time>
      </trkpt>
      <trkpt lat="40.310026" lon="-3.399732">
        <ele>701.6</ele>
        <time>1970-01-01T01:08:30.000Z</time>
      </trkpt>
      <trkpt lat="40.310008" lon="-3.399777">
        <ele>701.2</ele>
        <time>1970-01-01T01:08:31.000Z</time>
      </trkpt>
      <trkpt lat="40.309987" lon="-3.399815">
        <ele>700.8</ele>
        <time>1970-01-01T01:08:32.000Z</time>
      </trkpt>
      <trkpt lat="40.309964" lon="-3.399848">
        <ele>700.6</ele>
        <time>1970-01-01T01:08:33.000Z</time>
      </trkpt>
      <trkpt lat="40.309937" lon="-3.399881">
        <ele>700.2</ele>
        <time>1970-01-01T01:08:34.000Z</time>
      </trkpt>
      <trkpt lat="40.309908" lon="-3.39991">
        <ele>700</ele>
        <time>1970-01-01T01:08:35.000Z</time>
      </trkpt>
      <trkpt lat="40.30987" lon="-3.399933">
        <ele>699.8</ele>
        <time>1970-01-01T01:08:36.000Z</time>
      </trkpt>
      <trkpt lat="40.309836" lon="-3.399947">
        <ele>699.8</ele>
        <time>1970-01-01T01:08:37.000Z</time>
      </trkpt>
      <trkpt lat="40.309803" lon="-3.399959">
        <ele>699.6</ele>
        <time>1970-01-01T01:08:38.000Z</time>
      </trkpt>
      <trkpt lat="40.30977" lon="-3.399971">
        <ele>699.4</ele>
        <time>1970-01-01T01:08:39.000Z</time>
      </trkpt>
      <trkpt lat="40.309741" lon="-3.399992">
        <ele>699.4</ele>
        <time>1970-01-01T01:08:40.000Z</time>
      </trkpt>
      <trkpt lat="40.309721" lon="-3.400025">
        <ele>699.2</ele>
        <time>1970-01-01T01:08:41.000Z</time>
      </trkpt>
      <trkpt lat="40.309704" lon="-3.400067">
        <ele>699.2</ele>
        <time>1970-01-01T01:08:42.000Z</time>
      </trkpt>
      <trkpt lat="40.309685" lon="-3.400104">
        <ele>699.2</ele>
        <time>1970-01-01T01:08:43.000Z</time>
      </trkpt>
      <trkpt lat="40.309664" lon="-3.400138">
        <ele>699.2</ele>
        <time>1970-01-01T01:08:44.000Z</time>
      </trkpt>
      <trkpt lat="40.309642" lon="-3.40017">
        <ele>699.2</ele>
        <time>1970-01-01T01:08:45.000Z</time>
      </trkpt>
      <trkpt lat="40.309617" lon="-3.400204">
        <ele>699.2</ele>
        <time>1970-01-01T01:08:46.000Z</time>
      </trkpt>
      <trkpt lat="40.30959" lon="-3.400241">
        <ele>699.2</ele>
        <time>1970-01-01T01:08:47.000Z</time>
      </trkpt>
      <trkpt lat="40.309563" lon="-3.400282">
        <ele>699.4</ele>
        <time>1970-01-01T01:08:48.000Z</time>
      </trkpt>
      <trkpt lat="40.309532" lon="-3.400324">
        <ele>699.4</ele>
        <time>1970-01-01T01:08:49.000Z</time>
      </trkpt>
      <trkpt lat="40.309504" lon="-3.400365">
        <ele>699.4</ele>
        <time>1970-01-01T01:08:50.000Z</time>
      </trkpt>
      <trkpt lat="40.309479" lon="-3.400406">
        <ele>699.2</ele>
        <time>1970-01-01T01:08:51.000Z</time>
      </trkpt>
      <trkpt lat="40.309452" lon="-3.400448">
        <ele>699.2</ele>
        <time>1970-01-01T01:08:52.000Z</time>
      </trkpt>
      <trkpt lat="40.309425" lon="-3.40049">
        <ele>699.2</ele>
        <time>1970-01-01T01:08:53.000Z</time>
      </trkpt>
      <trkpt lat="40.309399" lon="-3.400534">
        <ele>699.4</ele>
        <time>1970-01-01T01:08:54.000Z</time>
      </trkpt>
      <trkpt lat="40.309376" lon="-3.400577">
        <ele>699.4</ele>
        <time>1970-01-01T01:08:55.000Z</time>
      </trkpt>
      <trkpt lat="40.309352" lon="-3.400625">
        <ele>699.6</ele>
        <time>1970-01-01T01:08:56.000Z</time>
      </trkpt>
      <trkpt lat="40.309329" lon="-3.400675">
        <ele>699.6</ele>
        <time>1970-01-01T01:08:57.000Z</time>
      </trkpt>
      <trkpt lat="40.309309" lon="-3.400729">
        <ele>699.6</ele>
        <time>1970-01-01T01:08:58.000Z</time>
      </trkpt>
      <trkpt lat="40.309293" lon="-3.400782">
        <ele>699.4</ele>
        <time>1970-01-01T01:08:59.000Z</time>
      </trkpt>
      <trkpt lat="40.309278" lon="-3.400834">
        <ele>699.2</ele>
        <time>1970-01-01T01:09:00.000Z</time>
      </trkpt>
      <trkpt lat="40.30926" lon="-3.400887">
        <ele>699.2</ele>
        <time>1970-01-01T01:09:01.000Z</time>
      </trkpt>
      <trkpt lat="40.309238" lon="-3.400943">
        <ele>699.2</ele>
        <time>1970-01-01T01:09:02.000Z</time>
      </trkpt>
      <trkpt lat="40.309214" lon="-3.400994">
        <ele>699.2</ele>
        <time>1970-01-01T01:09:03.000Z</time>
      </trkpt>
      <trkpt lat="40.309188" lon="-3.401046">
        <ele>699.4</ele>
        <time>1970-01-01T01:09:04.000Z</time>
      </trkpt>
      <trkpt lat="40.309161" lon="-3.401099">
        <ele>699.4</ele>
        <time>1970-01-01T01:09:05.000Z</time>
      </trkpt>
      <trkpt lat="40.309134" lon="-3.401154">
        <ele>699.2</ele>
        <time>1970-01-01T01:09:06.000Z</time>
      </trkpt>
      <trkpt lat="40.309108" lon="-3.401208">
        <ele>699.2</ele>
        <time>1970-01-01T01:09:07.000Z</time>
      </trkpt>
      <trkpt lat="40.309084" lon="-3.401265">
        <ele>699</ele>
        <time>1970-01-01T01:09:08.000Z</time>
      </trkpt>
      <trkpt lat="40.309061" lon="-3.401328">
        <ele>698.8</ele>
        <time>1970-01-01T01:09:09.000Z</time>
      </trkpt>
      <trkpt lat="40.309038" lon="-3.401393">
        <ele>698.6</ele>
        <time>1970-01-01T01:09:10.000Z</time>
      </trkpt>
      <trkpt lat="40.309013" lon="-3.401459">
        <ele>698.4</ele>
        <time>1970-01-01T01:09:11.000Z</time>
      </trkpt>
      <trkpt lat="40.30899" lon="-3.401527">
        <ele>698.2</ele>
        <time>1970-01-01T01:09:12.000Z</time>
      </trkpt>
      <trkpt lat="40.308968" lon="-3.401596">
        <ele>698</ele>
        <time>1970-01-01T01:09:13.000Z</time>
      </trkpt>
      <trkpt lat="40.308945" lon="-3.401666">
        <ele>697.6</ele>
        <time>1970-01-01T01:09:14.000Z</time>
      </trkpt>
      <trkpt lat="40.308922" lon="-3.401735">
        <ele>697.6</ele>
        <time>1970-01-01T01:09:15.000Z</time>
      </trkpt>
      <trkpt lat="40.308901" lon="-3.401804">
        <ele>697.2</ele>
        <time>1970-01-01T01:09:16.000Z</time>
      </trkpt>
      <trkpt lat="40.308876" lon="-3.401873">
        <ele>697</ele>
        <time>1970-01-01T01:09:17.000Z</time>
      </trkpt>
      <trkpt lat="40.308854" lon="-3.40194">
        <ele>696.8</ele>
        <time>1970-01-01T01:09:18.000Z</time>
      </trkpt>
      <trkpt lat="40.308834" lon="-3.402006">
        <ele>696.8</ele>
        <time>1970-01-01T01:09:19.000Z</time>
      </trkpt>
      <trkpt lat="40.308814" lon="-3.40207">
        <ele>696.6</ele>
        <time>1970-01-01T01:09:20.000Z</time>
      </trkpt>
      <trkpt lat="40.308796" lon="-3.402134">
        <ele>696.4</ele>
        <time>1970-01-01T01:09:21.000Z</time>
      </trkpt>
      <trkpt lat="40.308781" lon="-3.402201">
        <ele>696.2</ele>
        <time>1970-01-01T01:09:22.000Z</time>
      </trkpt>
      <trkpt lat="40.308766" lon="-3.402269">
        <ele>696</ele>
        <time>1970-01-01T01:09:23.000Z</time>
      </trkpt>
      <trkpt lat="40.30875" lon="-3.402337">
        <ele>696</ele>
        <time>1970-01-01T01:09:24.000Z</time>
      </trkpt>
      <trkpt lat="40.308736" lon="-3.402411">
        <ele>696</ele>
        <time>1970-01-01T01:09:25.000Z</time>
      </trkpt>
      <trkpt lat="40.308723" lon="-3.402493">
        <ele>695.8</ele>
        <time>1970-01-01T01:09:26.000Z</time>
      </trkpt>
      <trkpt lat="40.30871" lon="-3.402577">
        <ele>695.4</ele>
        <time>1970-01-01T01:09:27.000Z</time>
      </trkpt>
      <trkpt lat="40.308698" lon="-3.40266">
        <ele>695</ele>
        <time>1970-01-01T01:09:28.000Z</time>
      </trkpt>
      <trkpt lat="40.308685" lon="-3.402737">
        <ele>694.8</ele>
        <time>1970-01-01T01:09:29.000Z</time>
      </trkpt>
      <trkpt lat="40.308674" lon="-3.402812">
        <ele>694.6</ele>
        <time>1970-01-01T01:09:30.000Z</time>
      </trkpt>
      <trkpt lat="40.308661" lon="-3.40288">
        <ele>694.4</ele>
        <time>1970-01-01T01:09:31.000Z</time>
      </trkpt>
      <trkpt lat="40.308643" lon="-3.402945">
        <ele>694</ele>
        <time>1970-01-01T01:09:32.000Z</time>
      </trkpt>
      <trkpt lat="40.308622" lon="-3.403011">
        <ele>693.8</ele>
        <time>1970-01-01T01:09:33.000Z</time>
      </trkpt>
      <trkpt lat="40.308598" lon="-3.403074">
        <ele>693</ele>
        <time>1970-01-01T01:09:34.000Z</time>
      </trkpt>
      <trkpt lat="40.308574" lon="-3.403135">
        <ele>692</ele>
        <time>1970-01-01T01:09:35.000Z</time>
      </trkpt>
      <trkpt lat="40.308557" lon="-3.403198">
        <ele>691.4</ele>
        <time>1970-01-01T01:09:36.000Z</time>
      </trkpt>
      <trkpt lat="40.308545" lon="-3.403257">
        <ele>690.8</ele>
        <time>1970-01-01T01:09:37.000Z</time>
      </trkpt>
      <trkpt lat="40.308537" lon="-3.403315">
        <ele>690.6</ele>
        <time>1970-01-01T01:09:38.000Z</time>
      </trkpt>
      <trkpt lat="40.308531" lon="-3.403364">
        <ele>690.2</ele>
        <time>1970-01-01T01:09:39.000Z</time>
      </trkpt>
      <trkpt lat="40.308526" lon="-3.403406">
        <ele>690</ele>
        <time>1970-01-01T01:09:40.000Z</time>
      </trkpt>
      <trkpt lat="40.308521" lon="-3.403446">
        <ele>689.4</ele>
        <time>1970-01-01T01:09:41.000Z</time>
      </trkpt>
      <trkpt lat="40.308516" lon="-3.403485">
        <ele>689.2</ele>
        <time>1970-01-01T01:09:42.000Z</time>
      </trkpt>
      <trkpt lat="40.308519" lon="-3.403525">
        <ele>689</ele>
        <time>1970-01-01T01:09:43.000Z</time>
      </trkpt>
      <trkpt lat="40.308537" lon="-3.403567">
        <ele>688.4</ele>
        <time>1970-01-01T01:09:44.000Z</time>
      </trkpt>
      <trkpt lat="40.308558" lon="-3.403618">
        <ele>687.8</ele>
        <time>1970-01-01T01:09:45.000Z</time>
      </trkpt>
      <trkpt lat="40.308578" lon="-3.403672">
        <ele>687</ele>
        <time>1970-01-01T01:09:46.000Z</time>
      </trkpt>
      <trkpt lat="40.308598" lon="-3.40373">
        <ele>686.6</ele>
        <time>1970-01-01T01:09:47.000Z</time>
      </trkpt>
      <trkpt lat="40.308615" lon="-3.403787">
        <ele>686</ele>
        <time>1970-01-01T01:09:48.000Z</time>
      </trkpt>
      <trkpt lat="40.308628" lon="-3.403842">
        <ele>685.4</ele>
        <time>1970-01-01T01:09:49.000Z</time>
      </trkpt>
      <trkpt lat="40.308639" lon="-3.403893">
        <ele>685</ele>
        <time>1970-01-01T01:09:50.000Z</time>
      </trkpt>
      <trkpt lat="40.308647" lon="-3.403947">
        <ele>684.6</ele>
        <time>1970-01-01T01:09:51.000Z</time>
      </trkpt>
      <trkpt lat="40.308653" lon="-3.403999">
        <ele>684</ele>
        <time>1970-01-01T01:09:52.000Z</time>
      </trkpt>
      <trkpt lat="40.30866" lon="-3.404046">
        <ele>683</ele>
        <time>1970-01-01T01:09:53.000Z</time>
      </trkpt>
      <trkpt lat="40.308666" lon="-3.404083">
        <ele>682.6</ele>
        <time>1970-01-01T01:09:54.000Z</time>
      </trkpt>
      <trkpt lat="40.30867" lon="-3.404113">
        <ele>682</ele>
        <time>1970-01-01T01:09:55.000Z</time>
      </trkpt>
      <trkpt lat="40.308671" lon="-3.404142">
        <ele>681</ele>
        <time>1970-01-01T01:09:56.000Z</time>
      </trkpt>
      <trkpt lat="40.308667" lon="-3.404171">
        <ele>680.6</ele>
        <time>1970-01-01T01:09:57.000Z</time>
      </trkpt>
      <trkpt lat="40.308659" lon="-3.404194">
        <ele>680</ele>
        <time>1970-01-01T01:09:58.000Z</time>
      </trkpt>
      <trkpt lat="40.308645" lon="-3.40421">
        <ele>679.8</ele>
        <time>1970-01-01T01:09:59.000Z</time>
      </trkpt>
      <trkpt lat="40.308631" lon="-3.404211">
        <ele>679.2</ele>
        <time>1970-01-01T01:10:00.000Z</time>
      </trkpt>
      <trkpt lat="40.308619" lon="-3.404201">
        <ele>679</ele>
        <time>1970-01-01T01:10:01.000Z</time>
      </trkpt>
      <trkpt lat="40.308612" lon="-3.404182">
        <ele>678.4</ele>
        <time>1970-01-01T01:10:02.000Z</time>
      </trkpt>
      <trkpt lat="40.308604" lon="-3.404163">
        <ele>678.2</ele>
        <time>1970-01-01T01:10:03.000Z</time>
      </trkpt>
      <trkpt lat="40.308589" lon="-3.404132">
        <ele>678</ele>
        <time>1970-01-01T01:10:04.000Z</time>
      </trkpt>
      <trkpt lat="40.308569" lon="-3.404113">
        <ele>677.8</ele>
        <time>1970-01-01T01:10:05.000Z</time>
      </trkpt>
      <trkpt lat="40.308549" lon="-3.404094">
        <ele>677.8</ele>
        <time>1970-01-01T01:10:06.000Z</time>
      </trkpt>
      <trkpt lat="40.308532" lon="-3.404077">
        <ele>677.6</ele>
        <time>1970-01-01T01:10:07.000Z</time>
      </trkpt>
      <trkpt lat="40.308508" lon="-3.404055">
        <ele>677.6</ele>
        <time>1970-01-01T01:10:08.000Z</time>
      </trkpt>
      <trkpt lat="40.308477" lon="-3.404023">
        <ele>677.6</ele>
        <time>1970-01-01T01:10:09.000Z</time>
      </trkpt>
      <trkpt lat="40.308449" lon="-3.403992">
        <ele>677.4</ele>
        <time>1970-01-01T01:10:10.000Z</time>
      </trkpt>
      <trkpt lat="40.30842" lon="-3.403961">
        <ele>677.4</ele>
        <time>1970-01-01T01:10:11.000Z</time>
      </trkpt>
      <trkpt lat="40.308391" lon="-3.403929">
        <ele>677.4</ele>
        <time>1970-01-01T01:10:12.000Z</time>
      </trkpt>
      <trkpt lat="40.308366" lon="-3.403898">
        <ele>677.4</ele>
        <time>1970-01-01T01:10:13.000Z</time>
      </trkpt>
      <trkpt lat="40.308341" lon="-3.403872">
        <ele>677.4</ele>
        <time>1970-01-01T01:10:14.000Z</time>
      </trkpt>
      <trkpt lat="40.308315" lon="-3.403846">
        <ele>677.4</ele>
        <time>1970-01-01T01:10:15.000Z</time>
      </trkpt>
      <trkpt lat="40.308288" lon="-3.403819">
        <ele>677.4</ele>
        <time>1970-01-01T01:10:16.000Z</time>
      </trkpt>
      <trkpt lat="40.308259" lon="-3.403793">
        <ele>677.4</ele>
        <time>1970-01-01T01:10:17.000Z</time>
      </trkpt>
      <trkpt lat="40.308229" lon="-3.403765">
        <ele>677.4</ele>
        <time>1970-01-01T01:10:18.000Z</time>
      </trkpt>
      <trkpt lat="40.308197" lon="-3.403731">
        <ele>677.6</ele>
        <time>1970-01-01T01:10:19.000Z</time>
      </trkpt>
      <trkpt lat="40.308162" lon="-3.403694">
        <ele>677.6</ele>
        <time>1970-01-01T01:10:20.000Z</time>
      </trkpt>
      <trkpt lat="40.308125" lon="-3.403657">
        <ele>677.6</ele>
        <time>1970-01-01T01:10:21.000Z</time>
      </trkpt>
      <trkpt lat="40.308091" lon="-3.403622">
        <ele>677.6</ele>
        <time>1970-01-01T01:10:22.000Z</time>
      </trkpt>
      <trkpt lat="40.308058" lon="-3.403588">
        <ele>677.8</ele>
        <time>1970-01-01T01:10:23.000Z</time>
      </trkpt>
      <trkpt lat="40.30803" lon="-3.403551">
        <ele>677.8</ele>
        <time>1970-01-01T01:10:24.000Z</time>
      </trkpt>
      <trkpt lat="40.308007" lon="-3.40351">
        <ele>677.8</ele>
        <time>1970-01-01T01:10:25.000Z</time>
      </trkpt>
      <trkpt lat="40.307995" lon="-3.403464">
        <ele>678</ele>
        <time>1970-01-01T01:10:26.000Z</time>
      </trkpt>
      <trkpt lat="40.307987" lon="-3.403426">
        <ele>678.2</ele>
        <time>1970-01-01T01:10:27.000Z</time>
      </trkpt>
      <trkpt lat="40.307963" lon="-3.403379">
        <ele>678.4</ele>
        <time>1970-01-01T01:10:28.000Z</time>
      </trkpt>
      <trkpt lat="40.307938" lon="-3.403353">
        <ele>678.4</ele>
        <time>1970-01-01T01:10:29.000Z</time>
      </trkpt>
      <trkpt lat="40.307923" lon="-3.403329">
        <ele>678.4</ele>
        <time>1970-01-01T01:10:30.000Z</time>
      </trkpt>
      <trkpt lat="40.307909" lon="-3.403282">
        <ele>678.6</ele>
        <time>1970-01-01T01:10:31.000Z</time>
      </trkpt>
      <trkpt lat="40.307904" lon="-3.403235">
        <ele>678.6</ele>
        <time>1970-01-01T01:10:32.000Z</time>
      </trkpt>
      <trkpt lat="40.307903" lon="-3.403183">
        <ele>678.6</ele>
        <time>1970-01-01T01:10:33.000Z</time>
      </trkpt>
      <trkpt lat="40.3079" lon="-3.403132">
        <ele>678.6</ele>
        <time>1970-01-01T01:10:34.000Z</time>
      </trkpt>
      <trkpt lat="40.307899" lon="-3.403083">
        <ele>678.8</ele>
        <time>1970-01-01T01:10:35.000Z</time>
      </trkpt>
      <trkpt lat="40.307905" lon="-3.403038">
        <ele>679</ele>
        <time>1970-01-01T01:10:36.000Z</time>
      </trkpt>
      <trkpt lat="40.307916" lon="-3.402997">
        <ele>679.2</ele>
        <time>1970-01-01T01:10:37.000Z</time>
      </trkpt>
      <trkpt lat="40.307931" lon="-3.402955">
        <ele>679.4</ele>
        <time>1970-01-01T01:10:38.000Z</time>
      </trkpt>
      <trkpt lat="40.307945" lon="-3.402915">
        <ele>679.6</ele>
        <time>1970-01-01T01:10:39.000Z</time>
      </trkpt>
      <trkpt lat="40.307949" lon="-3.402879">
        <ele>679.8</ele>
        <time>1970-01-01T01:10:40.000Z</time>
      </trkpt>
      <trkpt lat="40.30794" lon="-3.402848">
        <ele>680</ele>
        <time>1970-01-01T01:10:41.000Z</time>
      </trkpt>
      <trkpt lat="40.307924" lon="-3.402821">
        <ele>680.2</ele>
        <time>1970-01-01T01:10:42.000Z</time>
      </trkpt>
      <trkpt lat="40.307916" lon="-3.40279">
        <ele>680.4</ele>
        <time>1970-01-01T01:10:43.000Z</time>
      </trkpt>
      <trkpt lat="40.30792" lon="-3.402759">
        <ele>680.8</ele>
        <time>1970-01-01T01:10:44.000Z</time>
      </trkpt>
      <trkpt lat="40.307929" lon="-3.402729">
        <ele>680.8</ele>
        <time>1970-01-01T01:10:45.000Z</time>
      </trkpt>
      <trkpt lat="40.307943" lon="-3.402698">
        <ele>681</ele>
        <time>1970-01-01T01:10:46.000Z</time>
      </trkpt>
      <trkpt lat="40.307962" lon="-3.402669">
        <ele>681</ele>
        <time>1970-01-01T01:10:47.000Z</time>
      </trkpt>
      <trkpt lat="40.307982" lon="-3.402647">
        <ele>681</ele>
        <time>1970-01-01T01:10:48.000Z</time>
      </trkpt>
      <trkpt lat="40.308" lon="-3.402625">
        <ele>681</ele>
        <time>1970-01-01T01:10:49.000Z</time>
      </trkpt>
      <trkpt lat="40.30801" lon="-3.402596">
        <ele>681</ele>
        <time>1970-01-01T01:10:50.000Z</time>
      </trkpt>
      <trkpt lat="40.308016" lon="-3.402568">
        <ele>681</ele>
        <time>1970-01-01T01:10:51.000Z</time>
      </trkpt>
      <trkpt lat="40.308024" lon="-3.402542">
        <ele>681</ele>
        <time>1970-01-01T01:10:52.000Z</time>
      </trkpt>
      <trkpt lat="40.308033" lon="-3.402516">
        <ele>681</ele>
        <time>1970-01-01T01:10:53.000Z</time>
      </trkpt>
      <trkpt lat="40.308043" lon="-3.402487">
        <ele>681</ele>
        <time>1970-01-01T01:10:54.000Z</time>
      </trkpt>
      <trkpt lat="40.308051" lon="-3.402453">
        <ele>681</ele>
        <time>1970-01-01T01:10:55.000Z</time>
      </trkpt>
      <trkpt lat="40.308061" lon="-3.402419">
        <ele>681</ele>
        <time>1970-01-01T01:10:56.000Z</time>
      </trkpt>
      <trkpt lat="40.308071" lon="-3.402387">
        <ele>681</ele>
        <time>1970-01-01T01:10:57.000Z</time>
      </trkpt>
      <trkpt lat="40.308084" lon="-3.402354">
        <ele>681</ele>
        <time>1970-01-01T01:10:58.000Z</time>
      </trkpt>
      <trkpt lat="40.308095" lon="-3.402316">
        <ele>681</ele>
        <time>1970-01-01T01:10:59.000Z</time>
      </trkpt>
      <trkpt lat="40.308102" lon="-3.402277">
        <ele>681</ele>
        <time>1970-01-01T01:11:00.000Z</time>
      </trkpt>
      <trkpt lat="40.308106" lon="-3.402244">
        <ele>681</ele>
        <time>1970-01-01T01:11:01.000Z</time>
      </trkpt>
      <trkpt lat="40.308103" lon="-3.402213">
        <ele>681</ele>
        <time>1970-01-01T01:11:02.000Z</time>
      </trkpt>
      <trkpt lat="40.308096" lon="-3.402179">
        <ele>681</ele>
        <time>1970-01-01T01:11:03.000Z</time>
      </trkpt>
      <trkpt lat="40.308085" lon="-3.402145">
        <ele>681</ele>
        <time>1970-01-01T01:11:04.000Z</time>
      </trkpt>
      <trkpt lat="40.308078" lon="-3.402111">
        <ele>681</ele>
        <time>1970-01-01T01:11:05.000Z</time>
      </trkpt>
      <trkpt lat="40.308075" lon="-3.402082">
        <ele>681</ele>
        <time>1970-01-01T01:11:06.000Z</time>
      </trkpt>
      <trkpt lat="40.308073" lon="-3.402056">
        <ele>681</ele>
        <time>1970-01-01T01:11:07.000Z</time>
      </trkpt>
      <trkpt lat="40.308078" lon="-3.402036">
        <ele>681</ele>
        <time>1970-01-01T01:11:08.000Z</time>
      </trkpt>
      <trkpt lat="40.308086" lon="-3.402016">
        <ele>681</ele>
        <time>1970-01-01T01:11:09.000Z</time>
      </trkpt>
      <trkpt lat="40.308094" lon="-3.401992">
        <ele>681</ele>
        <time>1970-01-01T01:11:10.000Z</time>
      </trkpt>
      <trkpt lat="40.3081" lon="-3.40196">
        <ele>681</ele>
        <time>1970-01-01T01:11:11.000Z</time>
      </trkpt>
      <trkpt lat="40.308094" lon="-3.401918">
        <ele>680.8</ele>
        <time>1970-01-01T01:11:12.000Z</time>
      </trkpt>
      <trkpt lat="40.308074" lon="-3.401884">
        <ele>680.8</ele>
        <time>1970-01-01T01:11:13.000Z</time>
      </trkpt>
      <trkpt lat="40.308049" lon="-3.40185">
        <ele>680.8</ele>
        <time>1970-01-01T01:11:14.000Z</time>
      </trkpt>
      <trkpt lat="40.308024" lon="-3.401818">
        <ele>680.8</ele>
        <time>1970-01-01T01:11:15.000Z</time>
      </trkpt>
      <trkpt lat="40.307994" lon="-3.401792">
        <ele>680.8</ele>
        <time>1970-01-01T01:11:16.000Z</time>
      </trkpt>
      <trkpt lat="40.307967" lon="-3.401771">
        <ele>680.8</ele>
        <time>1970-01-01T01:11:17.000Z</time>
      </trkpt>
      <trkpt lat="40.307947" lon="-3.401748">
        <ele>680.8</ele>
        <time>1970-01-01T01:11:18.000Z</time>
      </trkpt>
      <trkpt lat="40.307925" lon="-3.401725">
        <ele>680.8</ele>
        <time>1970-01-01T01:11:19.000Z</time>
      </trkpt>
      <trkpt lat="40.307905" lon="-3.401699">
        <ele>680.8</ele>
        <time>1970-01-01T01:11:20.000Z</time>
      </trkpt>
      <trkpt lat="40.307884" lon="-3.401674">
        <ele>680.8</ele>
        <time>1970-01-01T01:11:21.000Z</time>
      </trkpt>
      <trkpt lat="40.30786" lon="-3.401647">
        <ele>681</ele>
        <time>1970-01-01T01:11:22.000Z</time>
      </trkpt>
      <trkpt lat="40.307831" lon="-3.401624">
        <ele>681</ele>
        <time>1970-01-01T01:11:23.000Z</time>
      </trkpt>
      <trkpt lat="40.3078" lon="-3.401605">
        <ele>681</ele>
        <time>1970-01-01T01:11:24.000Z</time>
      </trkpt>
      <trkpt lat="40.307768" lon="-3.401587">
        <ele>681.2</ele>
        <time>1970-01-01T01:11:25.000Z</time>
      </trkpt>
      <trkpt lat="40.307735" lon="-3.401572">
        <ele>681.2</ele>
        <time>1970-01-01T01:11:26.000Z</time>
      </trkpt>
      <trkpt lat="40.307701" lon="-3.401556">
        <ele>681.4</ele>
        <time>1970-01-01T01:11:27.000Z</time>
      </trkpt>
      <trkpt lat="40.307664" lon="-3.401538">
        <ele>681.4</ele>
        <time>1970-01-01T01:11:28.000Z</time>
      </trkpt>
      <trkpt lat="40.307624" lon="-3.401523">
        <ele>681.6</ele>
        <time>1970-01-01T01:11:29.000Z</time>
      </trkpt>
      <trkpt lat="40.307583" lon="-3.401514">
        <ele>681.6</ele>
        <time>1970-01-01T01:11:30.000Z</time>
      </trkpt>
      <trkpt lat="40.307542" lon="-3.401508">
        <ele>681.8</ele>
        <time>1970-01-01T01:11:31.000Z</time>
      </trkpt>
      <trkpt lat="40.307506" lon="-3.401508">
        <ele>681.8</ele>
        <time>1970-01-01T01:11:32.000Z</time>
      </trkpt>
      <trkpt lat="40.307463" lon="-3.401509">
        <ele>681.8</ele>
        <time>1970-01-01T01:11:33.000Z</time>
      </trkpt>
      <trkpt lat="40.307414" lon="-3.401504">
        <ele>682</ele>
        <time>1970-01-01T01:11:34.000Z</time>
      </trkpt>
      <trkpt lat="40.307376" lon="-3.401487">
        <ele>682</ele>
        <time>1970-01-01T01:11:35.000Z</time>
      </trkpt>
      <trkpt lat="40.307341" lon="-3.401463">
        <ele>682</ele>
        <time>1970-01-01T01:11:36.000Z</time>
      </trkpt>
      <trkpt lat="40.307309" lon="-3.40143">
        <ele>682.2</ele>
        <time>1970-01-01T01:11:37.000Z</time>
      </trkpt>
      <trkpt lat="40.307285" lon="-3.40139">
        <ele>682.4</ele>
        <time>1970-01-01T01:11:38.000Z</time>
      </trkpt>
      <trkpt lat="40.307268" lon="-3.401343">
        <ele>682.4</ele>
        <time>1970-01-01T01:11:39.000Z</time>
      </trkpt>
      <trkpt lat="40.30725" lon="-3.401302">
        <ele>682.6</ele>
        <time>1970-01-01T01:11:40.000Z</time>
      </trkpt>
      <trkpt lat="40.307227" lon="-3.401276">
        <ele>682.8</ele>
        <time>1970-01-01T01:11:41.000Z</time>
      </trkpt>
      <trkpt lat="40.307199" lon="-3.401256">
        <ele>682.8</ele>
        <time>1970-01-01T01:11:42.000Z</time>
      </trkpt>
      <trkpt lat="40.307176" lon="-3.40124">
        <ele>683</ele>
        <time>1970-01-01T01:11:43.000Z</time>
      </trkpt>
      <trkpt lat="40.307134" lon="-3.401221">
        <ele>683</ele>
        <time>1970-01-01T01:11:44.000Z</time>
      </trkpt>
      <trkpt lat="40.307099" lon="-3.401204">
        <ele>683.2</ele>
        <time>1970-01-01T01:11:45.000Z</time>
      </trkpt>
      <trkpt lat="40.307065" lon="-3.401191">
        <ele>683.2</ele>
        <time>1970-01-01T01:11:46.000Z</time>
      </trkpt>
      <trkpt lat="40.30704" lon="-3.401183">
        <ele>683.2</ele>
        <time>1970-01-01T01:11:47.000Z</time>
      </trkpt>
      <trkpt lat="40.307012" lon="-3.401167">
        <ele>683.4</ele>
        <time>1970-01-01T01:11:48.000Z</time>
      </trkpt>
      <trkpt lat="40.30698" lon="-3.401144">
        <ele>683.6</ele>
        <time>1970-01-01T01:11:49.000Z</time>
      </trkpt>
      <trkpt lat="40.306955" lon="-3.401126">
        <ele>683.8</ele>
        <time>1970-01-01T01:11:50.000Z</time>
      </trkpt>
      <trkpt lat="40.30693" lon="-3.401109">
        <ele>684</ele>
        <time>1970-01-01T01:11:51.000Z</time>
      </trkpt>
      <trkpt lat="40.306908" lon="-3.401095">
        <ele>684.2</ele>
        <time>1970-01-01T01:11:52.000Z</time>
      </trkpt>
      <trkpt lat="40.306873" lon="-3.401073">
        <ele>684.4</ele>
        <time>1970-01-01T01:11:53.000Z</time>
      </trkpt>
      <trkpt lat="40.306841" lon="-3.401053">
        <ele>684.6</ele>
        <time>1970-01-01T01:11:54.000Z</time>
      </trkpt>
      <trkpt lat="40.306811" lon="-3.401031">
        <ele>684.8</ele>
        <time>1970-01-01T01:11:55.000Z</time>
      </trkpt>
      <trkpt lat="40.306785" lon="-3.401">
        <ele>685</ele>
        <time>1970-01-01T01:11:56.000Z</time>
      </trkpt>
      <trkpt lat="40.306757" lon="-3.400966">
        <ele>685.2</ele>
        <time>1970-01-01T01:11:57.000Z</time>
      </trkpt>
      <trkpt lat="40.306729" lon="-3.400929">
        <ele>685.4</ele>
        <time>1970-01-01T01:11:58.000Z</time>
      </trkpt>
      <trkpt lat="40.306704" lon="-3.400892">
        <ele>685.6</ele>
        <time>1970-01-01T01:11:59.000Z</time>
      </trkpt>
      <trkpt lat="40.306683" lon="-3.400853">
        <ele>685.8</ele>
        <time>1970-01-01T01:12:00.000Z</time>
      </trkpt>
      <trkpt lat="40.306665" lon="-3.400815">
        <ele>685.8</ele>
        <time>1970-01-01T01:12:01.000Z</time>
      </trkpt>
      <trkpt lat="40.306645" lon="-3.400774">
        <ele>686</ele>
        <time>1970-01-01T01:12:02.000Z</time>
      </trkpt>
      <trkpt lat="40.306625" lon="-3.400732">
        <ele>686.2</ele>
        <time>1970-01-01T01:12:03.000Z</time>
      </trkpt>
      <trkpt lat="40.306608" lon="-3.400684">
        <ele>686.2</ele>
        <time>1970-01-01T01:12:04.000Z</time>
      </trkpt>
      <trkpt lat="40.306592" lon="-3.40063">
        <ele>686.4</ele>
        <time>1970-01-01T01:12:05.000Z</time>
      </trkpt>
      <trkpt lat="40.306579" lon="-3.400571">
        <ele>686.4</ele>
        <time>1970-01-01T01:12:06.000Z</time>
      </trkpt>
      <trkpt lat="40.306571" lon="-3.400511">
        <ele>686.4</ele>
        <time>1970-01-01T01:12:07.000Z</time>
      </trkpt>
      <trkpt lat="40.306571" lon="-3.400454">
        <ele>686.6</ele>
        <time>1970-01-01T01:12:08.000Z</time>
      </trkpt>
      <trkpt lat="40.306575" lon="-3.400397">
        <ele>686.8</ele>
        <time>1970-01-01T01:12:09.000Z</time>
      </trkpt>
      <trkpt lat="40.306576" lon="-3.40034">
        <ele>686.8</ele>
        <time>1970-01-01T01:12:10.000Z</time>
      </trkpt>
      <trkpt lat="40.306572" lon="-3.400283">
        <ele>686.8</ele>
        <time>1970-01-01T01:12:11.000Z</time>
      </trkpt>
      <trkpt lat="40.306568" lon="-3.400224">
        <ele>686.8</ele>
        <time>1970-01-01T01:12:12.000Z</time>
      </trkpt>
      <trkpt lat="40.306566" lon="-3.400165">
        <ele>686.8</ele>
        <time>1970-01-01T01:12:13.000Z</time>
      </trkpt>
      <trkpt lat="40.306565" lon="-3.400105">
        <ele>687</ele>
        <time>1970-01-01T01:12:14.000Z</time>
      </trkpt>
      <trkpt lat="40.306567" lon="-3.400045">
        <ele>687</ele>
        <time>1970-01-01T01:12:15.000Z</time>
      </trkpt>
      <trkpt lat="40.306566" lon="-3.399987">
        <ele>687.2</ele>
        <time>1970-01-01T01:12:16.000Z</time>
      </trkpt>
      <trkpt lat="40.306559" lon="-3.399932">
        <ele>687.2</ele>
        <time>1970-01-01T01:12:17.000Z</time>
      </trkpt>
      <trkpt lat="40.306545" lon="-3.39988">
        <ele>687.4</ele>
        <time>1970-01-01T01:12:18.000Z</time>
      </trkpt>
      <trkpt lat="40.306525" lon="-3.399829">
        <ele>687.4</ele>
        <time>1970-01-01T01:12:19.000Z</time>
      </trkpt>
      <trkpt lat="40.306502" lon="-3.399778">
        <ele>687.6</ele>
        <time>1970-01-01T01:12:20.000Z</time>
      </trkpt>
      <trkpt lat="40.306473" lon="-3.399727">
        <ele>687.8</ele>
        <time>1970-01-01T01:12:21.000Z</time>
      </trkpt>
      <trkpt lat="40.30644" lon="-3.399676">
        <ele>688</ele>
        <time>1970-01-01T01:12:22.000Z</time>
      </trkpt>
      <trkpt lat="40.306409" lon="-3.399624">
        <ele>688.2</ele>
        <time>1970-01-01T01:12:23.000Z</time>
      </trkpt>
      <trkpt lat="40.306383" lon="-3.399568">
        <ele>688.2</ele>
        <time>1970-01-01T01:12:24.000Z</time>
      </trkpt>
      <trkpt lat="40.306359" lon="-3.399511">
        <ele>688.4</ele>
        <time>1970-01-01T01:12:25.000Z</time>
      </trkpt>
      <trkpt lat="40.306337" lon="-3.399452">
        <ele>688.4</ele>
        <time>1970-01-01T01:12:26.000Z</time>
      </trkpt>
      <trkpt lat="40.306319" lon="-3.399391">
        <ele>688.6</ele>
        <time>1970-01-01T01:12:27.000Z</time>
      </trkpt>
      <trkpt lat="40.306305" lon="-3.399326">
        <ele>688.8</ele>
        <time>1970-01-01T01:12:28.000Z</time>
      </trkpt>
      <trkpt lat="40.306294" lon="-3.39926">
        <ele>689</ele>
        <time>1970-01-01T01:12:29.000Z</time>
      </trkpt>
      <trkpt lat="40.306284" lon="-3.399194">
        <ele>689</ele>
        <time>1970-01-01T01:12:30.000Z</time>
      </trkpt>
      <trkpt lat="40.306276" lon="-3.399128">
        <ele>689.2</ele>
        <time>1970-01-01T01:12:31.000Z</time>
      </trkpt>
      <trkpt lat="40.306274" lon="-3.399062">
        <ele>689.4</ele>
        <time>1970-01-01T01:12:32.000Z</time>
      </trkpt>
      <trkpt lat="40.30627" lon="-3.398997">
        <ele>689.4</ele>
        <time>1970-01-01T01:12:33.000Z</time>
      </trkpt>
      <trkpt lat="40.306269" lon="-3.39893">
        <ele>689.4</ele>
        <time>1970-01-01T01:12:34.000Z</time>
      </trkpt>
      <trkpt lat="40.306271" lon="-3.398863">
        <ele>689.6</ele>
        <time>1970-01-01T01:12:35.000Z</time>
      </trkpt>
      <trkpt lat="40.306278" lon="-3.398799">
        <ele>689.6</ele>
        <time>1970-01-01T01:12:36.000Z</time>
      </trkpt>
      <trkpt lat="40.30629" lon="-3.398736">
        <ele>689.8</ele>
        <time>1970-01-01T01:12:37.000Z</time>
      </trkpt>
      <trkpt lat="40.306303" lon="-3.398676">
        <ele>690</ele>
        <time>1970-01-01T01:12:38.000Z</time>
      </trkpt>
      <trkpt lat="40.306308" lon="-3.398618">
        <ele>690.2</ele>
        <time>1970-01-01T01:12:39.000Z</time>
      </trkpt>
      <trkpt lat="40.30631" lon="-3.398558">
        <ele>690.4</ele>
        <time>1970-01-01T01:12:40.000Z</time>
      </trkpt>
      <trkpt lat="40.306315" lon="-3.398499">
        <ele>690.6</ele>
        <time>1970-01-01T01:12:41.000Z</time>
      </trkpt>
      <trkpt lat="40.306323" lon="-3.398442">
        <ele>690.6</ele>
        <time>1970-01-01T01:12:42.000Z</time>
      </trkpt>
      <trkpt lat="40.306326" lon="-3.398386">
        <ele>690.8</ele>
        <time>1970-01-01T01:12:43.000Z</time>
      </trkpt>
      <trkpt lat="40.306322" lon="-3.398338">
        <ele>691.2</ele>
        <time>1970-01-01T01:12:44.000Z</time>
      </trkpt>
      <trkpt lat="40.306315" lon="-3.398266">
        <ele>691.2</ele>
        <time>1970-01-01T01:12:45.000Z</time>
      </trkpt>
      <trkpt lat="40.30631" lon="-3.398205">
        <ele>691.4</ele>
        <time>1970-01-01T01:12:46.000Z</time>
      </trkpt>
      <trkpt lat="40.306299" lon="-3.398146">
        <ele>691.6</ele>
        <time>1970-01-01T01:12:47.000Z</time>
      </trkpt>
      <trkpt lat="40.306283" lon="-3.398098">
        <ele>691.6</ele>
        <time>1970-01-01T01:12:48.000Z</time>
      </trkpt>
      <trkpt lat="40.306259" lon="-3.398032">
        <ele>691.6</ele>
        <time>1970-01-01T01:12:49.000Z</time>
      </trkpt>
      <trkpt lat="40.306239" lon="-3.397984">
        <ele>691.8</ele>
        <time>1970-01-01T01:12:50.000Z</time>
      </trkpt>
      <trkpt lat="40.306219" lon="-3.397936">
        <ele>691.8</ele>
        <time>1970-01-01T01:12:51.000Z</time>
      </trkpt>
      <trkpt lat="40.306197" lon="-3.397898">
        <ele>692</ele>
        <time>1970-01-01T01:12:52.000Z</time>
      </trkpt>
      <trkpt lat="40.306182" lon="-3.397872">
        <ele>692.6</ele>
        <time>1970-01-01T01:12:53.000Z</time>
      </trkpt>
      <trkpt lat="40.306166" lon="-3.397846">
        <ele>692.6</ele>
        <time>1970-01-01T01:12:54.000Z</time>
      </trkpt>
      <trkpt lat="40.306154" lon="-3.397827">
        <ele>693</ele>
        <time>1970-01-01T01:12:55.000Z</time>
      </trkpt>
      <trkpt lat="40.306142" lon="-3.397818">
        <ele>693.2</ele>
        <time>1970-01-01T01:12:56.000Z</time>
      </trkpt>
      <trkpt lat="40.306129" lon="-3.397817">
        <ele>693.2</ele>
        <time>1970-01-01T01:12:57.000Z</time>
      </trkpt>
      <trkpt lat="40.306113" lon="-3.397825">
        <ele>693.4</ele>
        <time>1970-01-01T01:12:58.000Z</time>
      </trkpt>
      <trkpt lat="40.306104" lon="-3.397837">
        <ele>693.4</ele>
        <time>1970-01-01T01:12:59.000Z</time>
      </trkpt>
      <trkpt lat="40.306092" lon="-3.39786">
        <ele>693.4</ele>
        <time>1970-01-01T01:13:00.000Z</time>
      </trkpt>
      <trkpt lat="40.306085" lon="-3.397877">
        <ele>693.4</ele>
        <time>1970-01-01T01:13:01.000Z</time>
      </trkpt>
      <trkpt lat="40.306076" lon="-3.397896">
        <ele>693.4</ele>
        <time>1970-01-01T01:13:02.000Z</time>
      </trkpt>
      <trkpt lat="40.306076" lon="-3.397896">
        <ele>693.4</ele>
        <time>1970-01-01T01:13:03.000Z</time>
      </trkpt>
      <trkpt lat="40.306058" lon="-3.397924">
        <ele>693.6</ele>
        <time>1970-01-01T01:13:04.000Z</time>
      </trkpt>
      <trkpt lat="40.30605" lon="-3.39793">
        <ele>693.6</ele>
        <time>1970-01-01T01:13:05.000Z</time>
      </trkpt>
      <trkpt lat="40.30605" lon="-3.397933">
        <ele>693.6</ele>
        <time>1970-01-01T01:13:06.000Z</time>
      </trkpt>
      <trkpt lat="40.306047" lon="-3.397942">
        <ele>693.6</ele>
        <time>1970-01-01T01:13:07.000Z</time>
      </trkpt>
      <trkpt lat="40.306046" lon="-3.397944">
        <ele>693.6</ele>
        <time>1970-01-01T01:13:08.000Z</time>
      </trkpt>
      <trkpt lat="40.306046" lon="-3.397944">
        <ele>693.6</ele>
        <time>1970-01-01T01:13:09.000Z</time>
      </trkpt>
      <trkpt lat="40.306046" lon="-3.397944">
        <ele>693.6</ele>
        <time>1970-01-01T01:13:10.000Z</time>
      </trkpt>
      <trkpt lat="40.30602" lon="-3.397957">
        <ele>693.8</ele>
        <time>1970-01-01T01:13:59.000Z</time>
      </trkpt>
      <trkpt lat="40.306002" lon="-3.397969">
        <ele>693.6</ele>
        <time>1970-01-01T01:14:00.000Z</time>
      </trkpt>
      <trkpt lat="40.305979" lon="-3.397986">
        <ele>693.6</ele>
        <time>1970-01-01T01:14:01.000Z</time>
      </trkpt>
      <trkpt lat="40.305958" lon="-3.398">
        <ele>693.8</ele>
        <time>1970-01-01T01:14:02.000Z</time>
      </trkpt>
      <trkpt lat="40.305933" lon="-3.398015">
        <ele>693.8</ele>
        <time>1970-01-01T01:14:03.000Z</time>
      </trkpt>
      <trkpt lat="40.305916" lon="-3.398027">
        <ele>693.8</ele>
        <time>1970-01-01T01:14:04.000Z</time>
      </trkpt>
      <trkpt lat="40.305897" lon="-3.398037">
        <ele>693.8</ele>
        <time>1970-01-01T01:14:05.000Z</time>
      </trkpt>
      <trkpt lat="40.305878" lon="-3.398046">
        <ele>693.8</ele>
        <time>1970-01-01T01:14:06.000Z</time>
      </trkpt>
      <trkpt lat="40.305852" lon="-3.398053">
        <ele>693.8</ele>
        <time>1970-01-01T01:14:07.000Z</time>
      </trkpt>
      <trkpt lat="40.305822" lon="-3.398059">
        <ele>693.8</ele>
        <time>1970-01-01T01:14:08.000Z</time>
      </trkpt>
      <trkpt lat="40.305798" lon="-3.398068">
        <ele>693.8</ele>
        <time>1970-01-01T01:14:09.000Z</time>
      </trkpt>
      <trkpt lat="40.305772" lon="-3.398073">
        <ele>693.8</ele>
        <time>1970-01-01T01:14:10.000Z</time>
      </trkpt>
      <trkpt lat="40.30575" lon="-3.398076">
        <ele>693.8</ele>
        <time>1970-01-01T01:14:11.000Z</time>
      </trkpt>
      <trkpt lat="40.305722" lon="-3.39808">
        <ele>693.8</ele>
        <time>1970-01-01T01:14:12.000Z</time>
      </trkpt>
      <trkpt lat="40.305696" lon="-3.398079">
        <ele>693.8</ele>
        <time>1970-01-01T01:14:13.000Z</time>
      </trkpt>
      <trkpt lat="40.305671" lon="-3.398078">
        <ele>693.8</ele>
        <time>1970-01-01T01:14:14.000Z</time>
      </trkpt>
      <trkpt lat="40.305639" lon="-3.398082">
        <ele>693.8</ele>
        <time>1970-01-01T01:14:15.000Z</time>
      </trkpt>
      <trkpt lat="40.305616" lon="-3.398084">
        <ele>694.2</ele>
        <time>1970-01-01T01:14:16.000Z</time>
      </trkpt>
      <trkpt lat="40.305584" lon="-3.398089">
        <ele>694.4</ele>
        <time>1970-01-01T01:14:17.000Z</time>
      </trkpt>
      <trkpt lat="40.305546" lon="-3.398095">
        <ele>694.4</ele>
        <time>1970-01-01T01:14:18.000Z</time>
      </trkpt>
      <trkpt lat="40.305497" lon="-3.398105">
        <ele>694.6</ele>
        <time>1970-01-01T01:14:19.000Z</time>
      </trkpt>
      <trkpt lat="40.305454" lon="-3.398113">
        <ele>694.6</ele>
        <time>1970-01-01T01:14:20.000Z</time>
      </trkpt>
      <trkpt lat="40.305414" lon="-3.398122">
        <ele>694.8</ele>
        <time>1970-01-01T01:14:21.000Z</time>
      </trkpt>
      <trkpt lat="40.305385" lon="-3.398129">
        <ele>695</ele>
        <time>1970-01-01T01:14:22.000Z</time>
      </trkpt>
      <trkpt lat="40.305351" lon="-3.398137">
        <ele>695.2</ele>
        <time>1970-01-01T01:14:23.000Z</time>
      </trkpt>
      <trkpt lat="40.305315" lon="-3.398145">
        <ele>695.8</ele>
        <time>1970-01-01T01:14:24.000Z</time>
      </trkpt>
      <trkpt lat="40.305289" lon="-3.398152">
        <ele>696</ele>
        <time>1970-01-01T01:14:25.000Z</time>
      </trkpt>
      <trkpt lat="40.305262" lon="-3.398161">
        <ele>696.2</ele>
        <time>1970-01-01T01:14:26.000Z</time>
      </trkpt>
      <trkpt lat="40.305237" lon="-3.398169">
        <ele>696.4</ele>
        <time>1970-01-01T01:14:27.000Z</time>
      </trkpt>
      <trkpt lat="40.3052" lon="-3.398179">
        <ele>696.4</ele>
        <time>1970-01-01T01:14:28.000Z</time>
      </trkpt>
      <trkpt lat="40.305151" lon="-3.398193">
        <ele>696.4</ele>
        <time>1970-01-01T01:14:29.000Z</time>
      </trkpt>
      <trkpt lat="40.305102" lon="-3.398205">
        <ele>696.4</ele>
        <time>1970-01-01T01:14:30.000Z</time>
      </trkpt>
      <trkpt lat="40.305061" lon="-3.398218">
        <ele>696.4</ele>
        <time>1970-01-01T01:14:31.000Z</time>
      </trkpt>
      <trkpt lat="40.305004" lon="-3.398236">
        <ele>696.4</ele>
        <time>1970-01-01T01:14:32.000Z</time>
      </trkpt>
      <trkpt lat="40.304944" lon="-3.398255">
        <ele>696.2</ele>
        <time>1970-01-01T01:14:33.000Z</time>
      </trkpt>
      <trkpt lat="40.304885" lon="-3.398279">
        <ele>696.2</ele>
        <time>1970-01-01T01:14:34.000Z</time>
      </trkpt>
      <trkpt lat="40.304828" lon="-3.398308">
        <ele>695.8</ele>
        <time>1970-01-01T01:14:35.000Z</time>
      </trkpt>
      <trkpt lat="40.304799" lon="-3.398324">
        <ele>695.4</ele>
        <time>1970-01-01T01:14:36.000Z</time>
      </trkpt>
      <trkpt lat="40.304766" lon="-3.398344">
        <ele>695</ele>
        <time>1970-01-01T01:14:37.000Z</time>
      </trkpt>
      <trkpt lat="40.304732" lon="-3.398363">
        <ele>694.4</ele>
        <time>1970-01-01T01:14:38.000Z</time>
      </trkpt>
      <trkpt lat="40.304695" lon="-3.398379">
        <ele>694.2</ele>
        <time>1970-01-01T01:14:39.000Z</time>
      </trkpt>
      <trkpt lat="40.304644" lon="-3.398399">
        <ele>693.8</ele>
        <time>1970-01-01T01:14:40.000Z</time>
      </trkpt>
      <trkpt lat="40.304597" lon="-3.398419">
        <ele>693.8</ele>
        <time>1970-01-01T01:14:41.000Z</time>
      </trkpt>
      <trkpt lat="40.304563" lon="-3.398437">
        <ele>693.4</ele>
        <time>1970-01-01T01:14:42.000Z</time>
      </trkpt>
      <trkpt lat="40.304522" lon="-3.398461">
        <ele>693.4</ele>
        <time>1970-01-01T01:14:43.000Z</time>
      </trkpt>
      <trkpt lat="40.304483" lon="-3.398475">
        <ele>692.4</ele>
        <time>1970-01-01T01:14:44.000Z</time>
      </trkpt>
      <trkpt lat="40.304434" lon="-3.398484">
        <ele>691.8</ele>
        <time>1970-01-01T01:14:45.000Z</time>
      </trkpt>
      <trkpt lat="40.304392" lon="-3.398492">
        <ele>691.4</ele>
        <time>1970-01-01T01:14:46.000Z</time>
      </trkpt>
      <trkpt lat="40.304351" lon="-3.398505">
        <ele>690.8</ele>
        <time>1970-01-01T01:14:47.000Z</time>
      </trkpt>
      <trkpt lat="40.304315" lon="-3.398525">
        <ele>690.4</ele>
        <time>1970-01-01T01:14:48.000Z</time>
      </trkpt>
      <trkpt lat="40.304279" lon="-3.398545">
        <ele>690.2</ele>
        <time>1970-01-01T01:14:49.000Z</time>
      </trkpt>
      <trkpt lat="40.304245" lon="-3.398583">
        <ele>690</ele>
        <time>1970-01-01T01:14:50.000Z</time>
      </trkpt>
      <trkpt lat="40.304211" lon="-3.39862">
        <ele>689.8</ele>
        <time>1970-01-01T01:14:51.000Z</time>
      </trkpt>
      <trkpt lat="40.304173" lon="-3.398657">
        <ele>689.6</ele>
        <time>1970-01-01T01:14:52.000Z</time>
      </trkpt>
      <trkpt lat="40.304132" lon="-3.398691">
        <ele>689</ele>
        <time>1970-01-01T01:14:53.000Z</time>
      </trkpt>
      <trkpt lat="40.304088" lon="-3.39871">
        <ele>687.6</ele>
        <time>1970-01-01T01:14:54.000Z</time>
      </trkpt>
      <trkpt lat="40.304042" lon="-3.398709">
        <ele>687.4</ele>
        <time>1970-01-01T01:14:55.000Z</time>
      </trkpt>
      <trkpt lat="40.303991" lon="-3.398698">
        <ele>686.6</ele>
        <time>1970-01-01T01:14:56.000Z</time>
      </trkpt>
      <trkpt lat="40.303924" lon="-3.398698">
        <ele>686.4</ele>
        <time>1970-01-01T01:14:57.000Z</time>
      </trkpt>
      <trkpt lat="40.303879" lon="-3.398714">
        <ele>685.6</ele>
        <time>1970-01-01T01:14:58.000Z</time>
      </trkpt>
      <trkpt lat="40.303845" lon="-3.398742">
        <ele>685</ele>
        <time>1970-01-01T01:14:59.000Z</time>
      </trkpt>
      <trkpt lat="40.30381" lon="-3.39877">
        <ele>684.4</ele>
        <time>1970-01-01T01:15:00.000Z</time>
      </trkpt>
      <trkpt lat="40.30374" lon="-3.398825">
        <ele>684</ele>
        <time>1970-01-01T01:15:01.000Z</time>
      </trkpt>
      <trkpt lat="40.303704" lon="-3.398871">
        <ele>683.8</ele>
        <time>1970-01-01T01:15:02.000Z</time>
      </trkpt>
      <trkpt lat="40.303674" lon="-3.398905">
        <ele>683.2</ele>
        <time>1970-01-01T01:15:03.000Z</time>
      </trkpt>
      <trkpt lat="40.303644" lon="-3.398938">
        <ele>683</ele>
        <time>1970-01-01T01:15:04.000Z</time>
      </trkpt>
      <trkpt lat="40.303584" lon="-3.399005">
        <ele>682.4</ele>
        <time>1970-01-01T01:15:05.000Z</time>
      </trkpt>
      <trkpt lat="40.303546" lon="-3.399021">
        <ele>681.8</ele>
        <time>1970-01-01T01:15:06.000Z</time>
      </trkpt>
      <trkpt lat="40.303507" lon="-3.399037">
        <ele>681.6</ele>
        <time>1970-01-01T01:15:07.000Z</time>
      </trkpt>
      <trkpt lat="40.303429" lon="-3.399068">
        <ele>681</ele>
        <time>1970-01-01T01:15:08.000Z</time>
      </trkpt>
      <trkpt lat="40.303381" lon="-3.399087">
        <ele>680.6</ele>
        <time>1970-01-01T01:15:09.000Z</time>
      </trkpt>
      <trkpt lat="40.30333" lon="-3.399109">
        <ele>680.2</ele>
        <time>1970-01-01T01:15:10.000Z</time>
      </trkpt>
      <trkpt lat="40.303277" lon="-3.399135">
        <ele>680</ele>
        <time>1970-01-01T01:15:11.000Z</time>
      </trkpt>
      <trkpt lat="40.303222" lon="-3.399166">
        <ele>679.8</ele>
        <time>1970-01-01T01:15:12.000Z</time>
      </trkpt>
      <trkpt lat="40.303163" lon="-3.399209">
        <ele>679.6</ele>
        <time>1970-01-01T01:15:13.000Z</time>
      </trkpt>
      <trkpt lat="40.303105" lon="-3.399265">
        <ele>679.2</ele>
        <time>1970-01-01T01:15:14.000Z</time>
      </trkpt>
      <trkpt lat="40.303051" lon="-3.399332">
        <ele>678</ele>
        <time>1970-01-01T01:15:15.000Z</time>
      </trkpt>
      <trkpt lat="40.302999" lon="-3.399407">
        <ele>677.8</ele>
        <time>1970-01-01T01:15:16.000Z</time>
      </trkpt>
      <trkpt lat="40.302949" lon="-3.399491">
        <ele>677.2</ele>
        <time>1970-01-01T01:15:17.000Z</time>
      </trkpt>
      <trkpt lat="40.302898" lon="-3.399572">
        <ele>677</ele>
        <time>1970-01-01T01:15:18.000Z</time>
      </trkpt>
      <trkpt lat="40.302837" lon="-3.399646">
        <ele>676.6</ele>
        <time>1970-01-01T01:15:19.000Z</time>
      </trkpt>
      <trkpt lat="40.302783" lon="-3.399692">
        <ele>676.2</ele>
        <time>1970-01-01T01:15:20.000Z</time>
      </trkpt>
      <trkpt lat="40.302728" lon="-3.399737">
        <ele>676</ele>
        <time>1970-01-01T01:15:21.000Z</time>
      </trkpt>
      <trkpt lat="40.302619" lon="-3.399828">
        <ele>675.4</ele>
        <time>1970-01-01T01:15:22.000Z</time>
      </trkpt>
      <trkpt lat="40.302549" lon="-3.399887">
        <ele>675.2</ele>
        <time>1970-01-01T01:15:23.000Z</time>
      </trkpt>
      <trkpt lat="40.302501" lon="-3.399933">
        <ele>674.8</ele>
        <time>1970-01-01T01:15:24.000Z</time>
      </trkpt>
      <trkpt lat="40.302452" lon="-3.399979">
        <ele>674.6</ele>
        <time>1970-01-01T01:15:25.000Z</time>
      </trkpt>
      <trkpt lat="40.302355" lon="-3.400071">
        <ele>674.2</ele>
        <time>1970-01-01T01:15:26.000Z</time>
      </trkpt>
      <trkpt lat="40.302278" lon="-3.400124">
        <ele>673.4</ele>
        <time>1970-01-01T01:15:27.000Z</time>
      </trkpt>
      <trkpt lat="40.302222" lon="-3.400149">
        <ele>672.6</ele>
        <time>1970-01-01T01:15:28.000Z</time>
      </trkpt>
      <trkpt lat="40.302168" lon="-3.400169">
        <ele>671.4</ele>
        <time>1970-01-01T01:15:29.000Z</time>
      </trkpt>
      <trkpt lat="40.30211" lon="-3.400182">
        <ele>671.2</ele>
        <time>1970-01-01T01:15:30.000Z</time>
      </trkpt>
      <trkpt lat="40.302056" lon="-3.400196">
        <ele>670.4</ele>
        <time>1970-01-01T01:15:31.000Z</time>
      </trkpt>
      <trkpt lat="40.302003" lon="-3.400222">
        <ele>670</ele>
        <time>1970-01-01T01:15:32.000Z</time>
      </trkpt>
      <trkpt lat="40.301949" lon="-3.400258">
        <ele>669.6</ele>
        <time>1970-01-01T01:15:33.000Z</time>
      </trkpt>
      <trkpt lat="40.301894" lon="-3.400298">
        <ele>669.2</ele>
        <time>1970-01-01T01:15:34.000Z</time>
      </trkpt>
      <trkpt lat="40.301835" lon="-3.400331">
        <ele>668.8</ele>
        <time>1970-01-01T01:15:35.000Z</time>
      </trkpt>
      <trkpt lat="40.301769" lon="-3.400352">
        <ele>667.8</ele>
        <time>1970-01-01T01:15:36.000Z</time>
      </trkpt>
      <trkpt lat="40.301707" lon="-3.400372">
        <ele>667.4</ele>
        <time>1970-01-01T01:15:37.000Z</time>
      </trkpt>
      <trkpt lat="40.301655" lon="-3.400398">
        <ele>667</ele>
        <time>1970-01-01T01:15:38.000Z</time>
      </trkpt>
      <trkpt lat="40.301608" lon="-3.400433">
        <ele>666.6</ele>
        <time>1970-01-01T01:15:39.000Z</time>
      </trkpt>
      <trkpt lat="40.301563" lon="-3.400471">
        <ele>666.4</ele>
        <time>1970-01-01T01:15:40.000Z</time>
      </trkpt>
      <trkpt lat="40.301519" lon="-3.400507">
        <ele>665.8</ele>
        <time>1970-01-01T01:15:41.000Z</time>
      </trkpt>
      <trkpt lat="40.301473" lon="-3.400539">
        <ele>665.6</ele>
        <time>1970-01-01T01:15:42.000Z</time>
      </trkpt>
      <trkpt lat="40.301427" lon="-3.400567">
        <ele>665.4</ele>
        <time>1970-01-01T01:15:43.000Z</time>
      </trkpt>
      <trkpt lat="40.301383" lon="-3.400588">
        <ele>665.2</ele>
        <time>1970-01-01T01:15:44.000Z</time>
      </trkpt>
      <trkpt lat="40.301342" lon="-3.400599">
        <ele>664.8</ele>
        <time>1970-01-01T01:15:45.000Z</time>
      </trkpt>
      <trkpt lat="40.301303" lon="-3.400605">
        <ele>664.6</ele>
        <time>1970-01-01T01:15:46.000Z</time>
      </trkpt>
      <trkpt lat="40.301266" lon="-3.400613">
        <ele>664</ele>
        <time>1970-01-01T01:15:47.000Z</time>
      </trkpt>
      <trkpt lat="40.301232" lon="-3.400623">
        <ele>663.4</ele>
        <time>1970-01-01T01:15:48.000Z</time>
      </trkpt>
      <trkpt lat="40.301199" lon="-3.400629">
        <ele>663.4</ele>
        <time>1970-01-01T01:15:49.000Z</time>
      </trkpt>
      <trkpt lat="40.301165" lon="-3.400625">
        <ele>663</ele>
        <time>1970-01-01T01:15:50.000Z</time>
      </trkpt>
      <trkpt lat="40.30113" lon="-3.400614">
        <ele>662.8</ele>
        <time>1970-01-01T01:15:51.000Z</time>
      </trkpt>
      <trkpt lat="40.301094" lon="-3.400605">
        <ele>662.6</ele>
        <time>1970-01-01T01:15:52.000Z</time>
      </trkpt>
      <trkpt lat="40.301056" lon="-3.400591">
        <ele>662.4</ele>
        <time>1970-01-01T01:15:53.000Z</time>
      </trkpt>
      <trkpt lat="40.301022" lon="-3.400576">
        <ele>662.4</ele>
        <time>1970-01-01T01:15:54.000Z</time>
      </trkpt>
      <trkpt lat="40.300986" lon="-3.400567">
        <ele>662.4</ele>
        <time>1970-01-01T01:15:55.000Z</time>
      </trkpt>
      <trkpt lat="40.300951" lon="-3.400558">
        <ele>662.4</ele>
        <time>1970-01-01T01:15:56.000Z</time>
      </trkpt>
      <trkpt lat="40.300916" lon="-3.400546">
        <ele>662.4</ele>
        <time>1970-01-01T01:15:57.000Z</time>
      </trkpt>
      <trkpt lat="40.300883" lon="-3.400538">
        <ele>662.4</ele>
        <time>1970-01-01T01:15:58.000Z</time>
      </trkpt>
      <trkpt lat="40.300852" lon="-3.400539">
        <ele>662.4</ele>
        <time>1970-01-01T01:15:59.000Z</time>
      </trkpt>
      <trkpt lat="40.300825" lon="-3.40055">
        <ele>662.4</ele>
        <time>1970-01-01T01:16:00.000Z</time>
      </trkpt>
      <trkpt lat="40.300796" lon="-3.400563">
        <ele>662.2</ele>
        <time>1970-01-01T01:16:01.000Z</time>
      </trkpt>
      <trkpt lat="40.300765" lon="-3.400581">
        <ele>662.2</ele>
        <time>1970-01-01T01:16:02.000Z</time>
      </trkpt>
      <trkpt lat="40.300735" lon="-3.400601">
        <ele>662.4</ele>
        <time>1970-01-01T01:16:03.000Z</time>
      </trkpt>
      <trkpt lat="40.300705" lon="-3.400617">
        <ele>662.4</ele>
        <time>1970-01-01T01:16:04.000Z</time>
      </trkpt>
      <trkpt lat="40.300673" lon="-3.400635">
        <ele>662.4</ele>
        <time>1970-01-01T01:16:05.000Z</time>
      </trkpt>
      <trkpt lat="40.30064" lon="-3.400655">
        <ele>662.2</ele>
        <time>1970-01-01T01:16:06.000Z</time>
      </trkpt>
      <trkpt lat="40.300608" lon="-3.400681">
        <ele>662.2</ele>
        <time>1970-01-01T01:16:07.000Z</time>
      </trkpt>
      <trkpt lat="40.300574" lon="-3.400714">
        <ele>662.2</ele>
        <time>1970-01-01T01:16:08.000Z</time>
      </trkpt>
      <trkpt lat="40.300538" lon="-3.400745">
        <ele>662.2</ele>
        <time>1970-01-01T01:16:09.000Z</time>
      </trkpt>
      <trkpt lat="40.300499" lon="-3.400771">
        <ele>662.2</ele>
        <time>1970-01-01T01:16:10.000Z</time>
      </trkpt>
      <trkpt lat="40.300463" lon="-3.400789">
        <ele>662.2</ele>
        <time>1970-01-01T01:16:11.000Z</time>
      </trkpt>
      <trkpt lat="40.300433" lon="-3.400793">
        <ele>662.2</ele>
        <time>1970-01-01T01:16:12.000Z</time>
      </trkpt>
      <trkpt lat="40.300409" lon="-3.400786">
        <ele>662.2</ele>
        <time>1970-01-01T01:16:13.000Z</time>
      </trkpt>
      <trkpt lat="40.30039" lon="-3.400772">
        <ele>662.2</ele>
        <time>1970-01-01T01:16:14.000Z</time>
      </trkpt>
      <trkpt lat="40.30038" lon="-3.400761">
        <ele>662.2</ele>
        <time>1970-01-01T01:16:15.000Z</time>
      </trkpt>
      <trkpt lat="40.300365" lon="-3.400745">
        <ele>662.4</ele>
        <time>1970-01-01T01:16:16.000Z</time>
      </trkpt>
      <trkpt lat="40.300347" lon="-3.400723">
        <ele>662.6</ele>
        <time>1970-01-01T01:16:17.000Z</time>
      </trkpt>
      <trkpt lat="40.300334" lon="-3.400701">
        <ele>662.6</ele>
        <time>1970-01-01T01:16:18.000Z</time>
      </trkpt>
      <trkpt lat="40.300321" lon="-3.40068">
        <ele>662.6</ele>
        <time>1970-01-01T01:16:19.000Z</time>
      </trkpt>
      <trkpt lat="40.300306" lon="-3.400657">
        <ele>662.6</ele>
        <time>1970-01-01T01:16:20.000Z</time>
      </trkpt>
      <trkpt lat="40.300289" lon="-3.400636">
        <ele>662.6</ele>
        <time>1970-01-01T01:16:21.000Z</time>
      </trkpt>
      <trkpt lat="40.300269" lon="-3.400609">
        <ele>662.8</ele>
        <time>1970-01-01T01:16:22.000Z</time>
      </trkpt>
      <trkpt lat="40.300256" lon="-3.400591">
        <ele>662.8</ele>
        <time>1970-01-01T01:16:23.000Z</time>
      </trkpt>
      <trkpt lat="40.300243" lon="-3.400566">
        <ele>662.8</ele>
        <time>1970-01-01T01:16:24.000Z</time>
      </trkpt>
      <trkpt lat="40.300228" lon="-3.400545">
        <ele>663</ele>
        <time>1970-01-01T01:16:25.000Z</time>
      </trkpt>
      <trkpt lat="40.300213" lon="-3.400523">
        <ele>663</ele>
        <time>1970-01-01T01:16:26.000Z</time>
      </trkpt>
      <trkpt lat="40.300194" lon="-3.400495">
        <ele>663.2</ele>
        <time>1970-01-01T01:16:27.000Z</time>
      </trkpt>
      <trkpt lat="40.300178" lon="-3.400474">
        <ele>663.2</ele>
        <time>1970-01-01T01:16:28.000Z</time>
      </trkpt>
      <trkpt lat="40.300162" lon="-3.400453">
        <ele>663.2</ele>
        <time>1970-01-01T01:16:29.000Z</time>
      </trkpt>
      <trkpt lat="40.30015" lon="-3.400437">
        <ele>663.2</ele>
        <time>1970-01-01T01:16:30.000Z</time>
      </trkpt>
      <trkpt lat="40.300134" lon="-3.400418">
        <ele>663.4</ele>
        <time>1970-01-01T01:16:31.000Z</time>
      </trkpt>
      <trkpt lat="40.300117" lon="-3.400398">
        <ele>663.4</ele>
        <time>1970-01-01T01:16:32.000Z</time>
      </trkpt>
      <trkpt lat="40.300106" lon="-3.400382">
        <ele>663.4</ele>
        <time>1970-01-01T01:16:33.000Z</time>
      </trkpt>
      <trkpt lat="40.300094" lon="-3.400366">
        <ele>663.6</ele>
        <time>1970-01-01T01:16:34.000Z</time>
      </trkpt>
      <trkpt lat="40.300082" lon="-3.400352">
        <ele>663.6</ele>
        <time>1970-01-01T01:16:35.000Z</time>
      </trkpt>
      <trkpt lat="40.300071" lon="-3.400343">
        <ele>663.6</ele>
        <time>1970-01-01T01:16:36.000Z</time>
      </trkpt>
      <trkpt lat="40.300053" lon="-3.400325">
        <ele>663.8</ele>
        <time>1970-01-01T01:16:37.000Z</time>
      </trkpt>
      <trkpt lat="40.30004" lon="-3.400311">
        <ele>663.8</ele>
        <time>1970-01-01T01:16:38.000Z</time>
      </trkpt>
      <trkpt lat="40.300024" lon="-3.400293">
        <ele>663.8</ele>
        <time>1970-01-01T01:16:39.000Z</time>
      </trkpt>
      <trkpt lat="40.300006" lon="-3.400274">
        <ele>663.8</ele>
        <time>1970-01-01T01:16:40.000Z</time>
      </trkpt>
      <trkpt lat="40.29999" lon="-3.400261">
        <ele>664</ele>
        <time>1970-01-01T01:16:41.000Z</time>
      </trkpt>
      <trkpt lat="40.299978" lon="-3.400249">
        <ele>664</ele>
        <time>1970-01-01T01:16:42.000Z</time>
      </trkpt>
      <trkpt lat="40.299973" lon="-3.400244">
        <ele>664</ele>
        <time>1970-01-01T01:16:43.000Z</time>
      </trkpt>
      <trkpt lat="40.299973" lon="-3.400244">
        <ele>664</ele>
        <time>1970-01-01T01:16:44.000Z</time>
      </trkpt>
      <trkpt lat="40.299973" lon="-3.400244">
        <ele>664</ele>
        <time>1970-01-01T01:16:45.000Z</time>
      </trkpt>
      <trkpt lat="40.299942" lon="-3.400183">
        <ele>665.2</ele>
        <time>1970-01-01T01:17:03.000Z</time>
      </trkpt>
      <trkpt lat="40.299926" lon="-3.400159">
        <ele>665.2</ele>
        <time>1970-01-01T01:17:04.000Z</time>
      </trkpt>
      <trkpt lat="40.299907" lon="-3.400132">
        <ele>665.2</ele>
        <time>1970-01-01T01:17:05.000Z</time>
      </trkpt>
      <trkpt lat="40.299889" lon="-3.400104">
        <ele>665.2</ele>
        <time>1970-01-01T01:17:06.000Z</time>
      </trkpt>
      <trkpt lat="40.299871" lon="-3.400076">
        <ele>665.4</ele>
        <time>1970-01-01T01:17:07.000Z</time>
      </trkpt>
      <trkpt lat="40.299852" lon="-3.400047">
        <ele>665.4</ele>
        <time>1970-01-01T01:17:08.000Z</time>
      </trkpt>
      <trkpt lat="40.299832" lon="-3.400017">
        <ele>665.4</ele>
        <time>1970-01-01T01:17:09.000Z</time>
      </trkpt>
      <trkpt lat="40.299811" lon="-3.399987">
        <ele>665.4</ele>
        <time>1970-01-01T01:17:10.000Z</time>
      </trkpt>
      <trkpt lat="40.29979" lon="-3.399955">
        <ele>665.4</ele>
        <time>1970-01-01T01:17:11.000Z</time>
      </trkpt>
      <trkpt lat="40.299765" lon="-3.399924">
        <ele>665.6</ele>
        <time>1970-01-01T01:17:12.000Z</time>
      </trkpt>
      <trkpt lat="40.299741" lon="-3.399896">
        <ele>665.6</ele>
        <time>1970-01-01T01:17:13.000Z</time>
      </trkpt>
      <trkpt lat="40.299717" lon="-3.399869">
        <ele>665.8</ele>
        <time>1970-01-01T01:17:14.000Z</time>
      </trkpt>
      <trkpt lat="40.299691" lon="-3.399841">
        <ele>665.8</ele>
        <time>1970-01-01T01:17:15.000Z</time>
      </trkpt>
      <trkpt lat="40.299662" lon="-3.399813">
        <ele>665.8</ele>
        <time>1970-01-01T01:17:16.000Z</time>
      </trkpt>
      <trkpt lat="40.299632" lon="-3.39979">
        <ele>666</ele>
        <time>1970-01-01T01:17:17.000Z</time>
      </trkpt>
      <trkpt lat="40.299605" lon="-3.399771">
        <ele>666</ele>
        <time>1970-01-01T01:17:18.000Z</time>
      </trkpt>
      <trkpt lat="40.299578" lon="-3.399755">
        <ele>666.2</ele>
        <time>1970-01-01T01:17:19.000Z</time>
      </trkpt>
      <trkpt lat="40.299549" lon="-3.399735">
        <ele>666.2</ele>
        <time>1970-01-01T01:17:20.000Z</time>
      </trkpt>
      <trkpt lat="40.299518" lon="-3.399709">
        <ele>666.2</ele>
        <time>1970-01-01T01:17:21.000Z</time>
      </trkpt>
      <trkpt lat="40.299484" lon="-3.399684">
        <ele>666.2</ele>
        <time>1970-01-01T01:17:22.000Z</time>
      </trkpt>
      <trkpt lat="40.299448" lon="-3.399662">
        <ele>666.4</ele>
        <time>1970-01-01T01:17:23.000Z</time>
      </trkpt>
      <trkpt lat="40.299416" lon="-3.399638">
        <ele>666.8</ele>
        <time>1970-01-01T01:17:24.000Z</time>
      </trkpt>
      <trkpt lat="40.299381" lon="-3.399615">
        <ele>666.8</ele>
        <time>1970-01-01T01:17:25.000Z</time>
      </trkpt>
      <trkpt lat="40.299343" lon="-3.399593">
        <ele>667</ele>
        <time>1970-01-01T01:17:26.000Z</time>
      </trkpt>
      <trkpt lat="40.299305" lon="-3.399568">
        <ele>667.2</ele>
        <time>1970-01-01T01:17:27.000Z</time>
      </trkpt>
      <trkpt lat="40.299268" lon="-3.399549">
        <ele>667.4</ele>
        <time>1970-01-01T01:17:28.000Z</time>
      </trkpt>
      <trkpt lat="40.299229" lon="-3.399533">
        <ele>667.4</ele>
        <time>1970-01-01T01:17:29.000Z</time>
      </trkpt>
      <trkpt lat="40.299189" lon="-3.399519">
        <ele>667.6</ele>
        <time>1970-01-01T01:17:30.000Z</time>
      </trkpt>
      <trkpt lat="40.299145" lon="-3.399511">
        <ele>667.6</ele>
        <time>1970-01-01T01:17:31.000Z</time>
      </trkpt>
      <trkpt lat="40.299102" lon="-3.399505">
        <ele>667.6</ele>
        <time>1970-01-01T01:17:32.000Z</time>
      </trkpt>
      <trkpt lat="40.299055" lon="-3.399499">
        <ele>667.6</ele>
        <time>1970-01-01T01:17:33.000Z</time>
      </trkpt>
      <trkpt lat="40.299003" lon="-3.399492">
        <ele>667.6</ele>
        <time>1970-01-01T01:17:34.000Z</time>
      </trkpt>
      <trkpt lat="40.298962" lon="-3.399488">
        <ele>667.6</ele>
        <time>1970-01-01T01:17:35.000Z</time>
      </trkpt>
      <trkpt lat="40.29891" lon="-3.399485">
        <ele>667.8</ele>
        <time>1970-01-01T01:17:36.000Z</time>
      </trkpt>
      <trkpt lat="40.298855" lon="-3.399479">
        <ele>668</ele>
        <time>1970-01-01T01:17:37.000Z</time>
      </trkpt>
      <trkpt lat="40.298798" lon="-3.399471">
        <ele>668.2</ele>
        <time>1970-01-01T01:17:38.000Z</time>
      </trkpt>
      <trkpt lat="40.29873" lon="-3.399454">
        <ele>668.2</ele>
        <time>1970-01-01T01:17:39.000Z</time>
      </trkpt>
      <trkpt lat="40.29867" lon="-3.399434">
        <ele>668.2</ele>
        <time>1970-01-01T01:17:40.000Z</time>
      </trkpt>
      <trkpt lat="40.298612" lon="-3.399414">
        <ele>668.2</ele>
        <time>1970-01-01T01:17:41.000Z</time>
      </trkpt>
      <trkpt lat="40.298552" lon="-3.399392">
        <ele>668.2</ele>
        <time>1970-01-01T01:17:42.000Z</time>
      </trkpt>
      <trkpt lat="40.298495" lon="-3.399371">
        <ele>668.4</ele>
        <time>1970-01-01T01:17:43.000Z</time>
      </trkpt>
      <trkpt lat="40.298437" lon="-3.39935">
        <ele>668.4</ele>
        <time>1970-01-01T01:17:44.000Z</time>
      </trkpt>
      <trkpt lat="40.298378" lon="-3.399326">
        <ele>668.4</ele>
        <time>1970-01-01T01:17:45.000Z</time>
      </trkpt>
      <trkpt lat="40.298322" lon="-3.399298">
        <ele>668.4</ele>
        <time>1970-01-01T01:17:46.000Z</time>
      </trkpt>
      <trkpt lat="40.298269" lon="-3.399268">
        <ele>668.4</ele>
        <time>1970-01-01T01:17:47.000Z</time>
      </trkpt>
      <trkpt lat="40.298219" lon="-3.399239">
        <ele>668.4</ele>
        <time>1970-01-01T01:17:48.000Z</time>
      </trkpt>
      <trkpt lat="40.29817" lon="-3.399215">
        <ele>668.4</ele>
        <time>1970-01-01T01:17:49.000Z</time>
      </trkpt>
      <trkpt lat="40.298122" lon="-3.399197">
        <ele>668.6</ele>
        <time>1970-01-01T01:17:50.000Z</time>
      </trkpt>
      <trkpt lat="40.298074" lon="-3.39918">
        <ele>668.6</ele>
        <time>1970-01-01T01:17:51.000Z</time>
      </trkpt>
      <trkpt lat="40.298029" lon="-3.399166">
        <ele>668.6</ele>
        <time>1970-01-01T01:17:52.000Z</time>
      </trkpt>
      <trkpt lat="40.297986" lon="-3.399153">
        <ele>668.6</ele>
        <time>1970-01-01T01:17:53.000Z</time>
      </trkpt>
      <trkpt lat="40.297942" lon="-3.399144">
        <ele>669</ele>
        <time>1970-01-01T01:17:54.000Z</time>
      </trkpt>
      <trkpt lat="40.2979" lon="-3.399143">
        <ele>669.2</ele>
        <time>1970-01-01T01:17:55.000Z</time>
      </trkpt>
      <trkpt lat="40.297857" lon="-3.399144">
        <ele>669.4</ele>
        <time>1970-01-01T01:17:56.000Z</time>
      </trkpt>
      <trkpt lat="40.297814" lon="-3.39914">
        <ele>669.4</ele>
        <time>1970-01-01T01:17:57.000Z</time>
      </trkpt>
      <trkpt lat="40.297773" lon="-3.39913">
        <ele>669.4</ele>
        <time>1970-01-01T01:17:58.000Z</time>
      </trkpt>
      <trkpt lat="40.297731" lon="-3.399116">
        <ele>669.4</ele>
        <time>1970-01-01T01:17:59.000Z</time>
      </trkpt>
      <trkpt lat="40.297711" lon="-3.399106">
        <ele>669.6</ele>
        <time>1970-01-01T01:18:00.000Z</time>
      </trkpt>
      <trkpt lat="40.29769" lon="-3.399096">
        <ele>669.8</ele>
        <time>1970-01-01T01:18:01.000Z</time>
      </trkpt>
      <trkpt lat="40.297621" lon="-3.399042">
        <ele>669.8</ele>
        <time>1970-01-01T01:18:02.000Z</time>
      </trkpt>
      <trkpt lat="40.297582" lon="-3.399009">
        <ele>670</ele>
        <time>1970-01-01T01:18:03.000Z</time>
      </trkpt>
      <trkpt lat="40.297547" lon="-3.398971">
        <ele>670.2</ele>
        <time>1970-01-01T01:18:04.000Z</time>
      </trkpt>
      <trkpt lat="40.297505" lon="-3.398922">
        <ele>670.4</ele>
        <time>1970-01-01T01:18:05.000Z</time>
      </trkpt>
      <trkpt lat="40.297478" lon="-3.398887">
        <ele>670.6</ele>
        <time>1970-01-01T01:18:06.000Z</time>
      </trkpt>
      <trkpt lat="40.297451" lon="-3.398839">
        <ele>670.6</ele>
        <time>1970-01-01T01:18:07.000Z</time>
      </trkpt>
      <trkpt lat="40.297424" lon="-3.398791">
        <ele>670.8</ele>
        <time>1970-01-01T01:18:08.000Z</time>
      </trkpt>
      <trkpt lat="40.297396" lon="-3.398741">
        <ele>671</ele>
        <time>1970-01-01T01:18:09.000Z</time>
      </trkpt>
      <trkpt lat="40.297366" lon="-3.398689">
        <ele>671</ele>
        <time>1970-01-01T01:18:10.000Z</time>
      </trkpt>
      <trkpt lat="40.297336" lon="-3.398638">
        <ele>671.2</ele>
        <time>1970-01-01T01:18:11.000Z</time>
      </trkpt>
      <trkpt lat="40.297306" lon="-3.398587">
        <ele>671.2</ele>
        <time>1970-01-01T01:18:12.000Z</time>
      </trkpt>
      <trkpt lat="40.297276" lon="-3.398536">
        <ele>671.2</ele>
        <time>1970-01-01T01:18:13.000Z</time>
      </trkpt>
      <trkpt lat="40.29724" lon="-3.398471">
        <ele>671.2</ele>
        <time>1970-01-01T01:18:14.000Z</time>
      </trkpt>
      <trkpt lat="40.297213" lon="-3.398423">
        <ele>671.2</ele>
        <time>1970-01-01T01:18:15.000Z</time>
      </trkpt>
      <trkpt lat="40.297186" lon="-3.398376">
        <ele>671.4</ele>
        <time>1970-01-01T01:18:16.000Z</time>
      </trkpt>
      <trkpt lat="40.297154" lon="-3.398326">
        <ele>671.4</ele>
        <time>1970-01-01T01:18:17.000Z</time>
      </trkpt>
      <trkpt lat="40.297122" lon="-3.398281">
        <ele>671.6</ele>
        <time>1970-01-01T01:18:18.000Z</time>
      </trkpt>
      <trkpt lat="40.297089" lon="-3.398238">
        <ele>671.6</ele>
        <time>1970-01-01T01:18:19.000Z</time>
      </trkpt>
      <trkpt lat="40.297057" lon="-3.398197">
        <ele>671.8</ele>
        <time>1970-01-01T01:18:20.000Z</time>
      </trkpt>
      <trkpt lat="40.297026" lon="-3.398158">
        <ele>671.8</ele>
        <time>1970-01-01T01:18:21.000Z</time>
      </trkpt>
      <trkpt lat="40.296994" lon="-3.398119">
        <ele>671.8</ele>
        <time>1970-01-01T01:18:22.000Z</time>
      </trkpt>
      <trkpt lat="40.296963" lon="-3.398078">
        <ele>671.8</ele>
        <time>1970-01-01T01:18:23.000Z</time>
      </trkpt>
      <trkpt lat="40.296932" lon="-3.398035">
        <ele>671.8</ele>
        <time>1970-01-01T01:18:24.000Z</time>
      </trkpt>
      <trkpt lat="40.296899" lon="-3.397992">
        <ele>672</ele>
        <time>1970-01-01T01:18:25.000Z</time>
      </trkpt>
      <trkpt lat="40.296861" lon="-3.397942">
        <ele>672.2</ele>
        <time>1970-01-01T01:18:26.000Z</time>
      </trkpt>
      <trkpt lat="40.296833" lon="-3.397905">
        <ele>672.2</ele>
        <time>1970-01-01T01:18:27.000Z</time>
      </trkpt>
      <trkpt lat="40.296805" lon="-3.397868">
        <ele>672.2</ele>
        <time>1970-01-01T01:18:28.000Z</time>
      </trkpt>
      <trkpt lat="40.296776" lon="-3.397832">
        <ele>672.4</ele>
        <time>1970-01-01T01:18:29.000Z</time>
      </trkpt>
      <trkpt lat="40.296741" lon="-3.397792">
        <ele>672.4</ele>
        <time>1970-01-01T01:18:30.000Z</time>
      </trkpt>
      <trkpt lat="40.296721" lon="-3.397766">
        <ele>672.4</ele>
        <time>1970-01-01T01:18:31.000Z</time>
      </trkpt>
      <trkpt lat="40.296697" lon="-3.397731">
        <ele>672.4</ele>
        <time>1970-01-01T01:18:32.000Z</time>
      </trkpt>
      <trkpt lat="40.296673" lon="-3.397695">
        <ele>672.4</ele>
        <time>1970-01-01T01:18:33.000Z</time>
      </trkpt>
      <trkpt lat="40.296645" lon="-3.397662">
        <ele>672.8</ele>
        <time>1970-01-01T01:18:34.000Z</time>
      </trkpt>
      <trkpt lat="40.296617" lon="-3.397637">
        <ele>673</ele>
        <time>1970-01-01T01:18:35.000Z</time>
      </trkpt>
      <trkpt lat="40.296591" lon="-3.397613">
        <ele>673</ele>
        <time>1970-01-01T01:18:36.000Z</time>
      </trkpt>
      <trkpt lat="40.296575" lon="-3.397594">
        <ele>673.2</ele>
        <time>1970-01-01T01:18:37.000Z</time>
      </trkpt>
      <trkpt lat="40.296558" lon="-3.397577">
        <ele>673.2</ele>
        <time>1970-01-01T01:18:38.000Z</time>
      </trkpt>
      <trkpt lat="40.296541" lon="-3.397561">
        <ele>673.4</ele>
        <time>1970-01-01T01:18:39.000Z</time>
      </trkpt>
      <trkpt lat="40.296522" lon="-3.397543">
        <ele>673.4</ele>
        <time>1970-01-01T01:18:40.000Z</time>
      </trkpt>
      <trkpt lat="40.296495" lon="-3.397526">
        <ele>673.6</ele>
        <time>1970-01-01T01:18:41.000Z</time>
      </trkpt>
      <trkpt lat="40.296464" lon="-3.39751">
        <ele>673.8</ele>
        <time>1970-01-01T01:18:42.000Z</time>
      </trkpt>
      <trkpt lat="40.296433" lon="-3.397494">
        <ele>673.8</ele>
        <time>1970-01-01T01:18:43.000Z</time>
      </trkpt>
      <trkpt lat="40.296399" lon="-3.397481">
        <ele>674</ele>
        <time>1970-01-01T01:18:44.000Z</time>
      </trkpt>
      <trkpt lat="40.296366" lon="-3.397472">
        <ele>674.2</ele>
        <time>1970-01-01T01:18:45.000Z</time>
      </trkpt>
      <trkpt lat="40.296334" lon="-3.397462">
        <ele>674.6</ele>
        <time>1970-01-01T01:18:46.000Z</time>
      </trkpt>
      <trkpt lat="40.296306" lon="-3.397454">
        <ele>674.8</ele>
        <time>1970-01-01T01:18:47.000Z</time>
      </trkpt>
      <trkpt lat="40.296284" lon="-3.397451">
        <ele>675</ele>
        <time>1970-01-01T01:18:48.000Z</time>
      </trkpt>
      <trkpt lat="40.296264" lon="-3.39745">
        <ele>675</ele>
        <time>1970-01-01T01:18:49.000Z</time>
      </trkpt>
      <trkpt lat="40.296243" lon="-3.397452">
        <ele>675.2</ele>
        <time>1970-01-01T01:18:50.000Z</time>
      </trkpt>
      <trkpt lat="40.296219" lon="-3.397458">
        <ele>675.4</ele>
        <time>1970-01-01T01:18:51.000Z</time>
      </trkpt>
      <trkpt lat="40.296192" lon="-3.397459">
        <ele>675.4</ele>
        <time>1970-01-01T01:18:52.000Z</time>
      </trkpt>
      <trkpt lat="40.296175" lon="-3.397451">
        <ele>675.6</ele>
        <time>1970-01-01T01:18:53.000Z</time>
      </trkpt>
      <trkpt lat="40.296147" lon="-3.397435">
        <ele>675.8</ele>
        <time>1970-01-01T01:18:54.000Z</time>
      </trkpt>
      <trkpt lat="40.296124" lon="-3.397417">
        <ele>676.2</ele>
        <time>1970-01-01T01:18:55.000Z</time>
      </trkpt>
      <trkpt lat="40.296105" lon="-3.397394">
        <ele>676.2</ele>
        <time>1970-01-01T01:18:56.000Z</time>
      </trkpt>
      <trkpt lat="40.296087" lon="-3.397369">
        <ele>676.6</ele>
        <time>1970-01-01T01:18:57.000Z</time>
      </trkpt>
      <trkpt lat="40.296072" lon="-3.397344">
        <ele>676.6</ele>
        <time>1970-01-01T01:18:58.000Z</time>
      </trkpt>
      <trkpt lat="40.296059" lon="-3.397325">
        <ele>676.8</ele>
        <time>1970-01-01T01:18:59.000Z</time>
      </trkpt>
      <trkpt lat="40.296036" lon="-3.397306">
        <ele>677</ele>
        <time>1970-01-01T01:19:00.000Z</time>
      </trkpt>
      <trkpt lat="40.296017" lon="-3.397292">
        <ele>677</ele>
        <time>1970-01-01T01:19:01.000Z</time>
      </trkpt>
      <trkpt lat="40.295998" lon="-3.397281">
        <ele>677.2</ele>
        <time>1970-01-01T01:19:02.000Z</time>
      </trkpt>
      <trkpt lat="40.29598" lon="-3.397274">
        <ele>677.4</ele>
        <time>1970-01-01T01:19:03.000Z</time>
      </trkpt>
      <trkpt lat="40.295961" lon="-3.397268">
        <ele>677.6</ele>
        <time>1970-01-01T01:19:04.000Z</time>
      </trkpt>
      <trkpt lat="40.295942" lon="-3.397264">
        <ele>678</ele>
        <time>1970-01-01T01:19:05.000Z</time>
      </trkpt>
      <trkpt lat="40.295926" lon="-3.397264">
        <ele>678.4</ele>
        <time>1970-01-01T01:19:06.000Z</time>
      </trkpt>
      <trkpt lat="40.295912" lon="-3.397266">
        <ele>678.8</ele>
        <time>1970-01-01T01:19:07.000Z</time>
      </trkpt>
      <trkpt lat="40.295897" lon="-3.397264">
        <ele>678.8</ele>
        <time>1970-01-01T01:19:08.000Z</time>
      </trkpt>
      <trkpt lat="40.295881" lon="-3.397268">
        <ele>679</ele>
        <time>1970-01-01T01:19:09.000Z</time>
      </trkpt>
      <trkpt lat="40.295867" lon="-3.397271">
        <ele>679.2</ele>
        <time>1970-01-01T01:19:10.000Z</time>
      </trkpt>
      <trkpt lat="40.295852" lon="-3.397274">
        <ele>679.4</ele>
        <time>1970-01-01T01:19:11.000Z</time>
      </trkpt>
      <trkpt lat="40.295837" lon="-3.397278">
        <ele>679.6</ele>
        <time>1970-01-01T01:19:12.000Z</time>
      </trkpt>
      <trkpt lat="40.295821" lon="-3.397278">
        <ele>680</ele>
        <time>1970-01-01T01:19:13.000Z</time>
      </trkpt>
      <trkpt lat="40.295805" lon="-3.397277">
        <ele>680.2</ele>
        <time>1970-01-01T01:19:14.000Z</time>
      </trkpt>
      <trkpt lat="40.295788" lon="-3.397274">
        <ele>680.6</ele>
        <time>1970-01-01T01:19:15.000Z</time>
      </trkpt>
      <trkpt lat="40.29577" lon="-3.39727">
        <ele>681.2</ele>
        <time>1970-01-01T01:19:16.000Z</time>
      </trkpt>
      <trkpt lat="40.29575" lon="-3.397266">
        <ele>681.4</ele>
        <time>1970-01-01T01:19:17.000Z</time>
      </trkpt>
      <trkpt lat="40.295732" lon="-3.397263">
        <ele>681.6</ele>
        <time>1970-01-01T01:19:18.000Z</time>
      </trkpt>
      <trkpt lat="40.295716" lon="-3.397258">
        <ele>681.8</ele>
        <time>1970-01-01T01:19:19.000Z</time>
      </trkpt>
      <trkpt lat="40.295701" lon="-3.397252">
        <ele>681.8</ele>
        <time>1970-01-01T01:19:20.000Z</time>
      </trkpt>
      <trkpt lat="40.295687" lon="-3.397245">
        <ele>682</ele>
        <time>1970-01-01T01:19:21.000Z</time>
      </trkpt>
      <trkpt lat="40.295677" lon="-3.397238">
        <ele>682.2</ele>
        <time>1970-01-01T01:19:22.000Z</time>
      </trkpt>
      <trkpt lat="40.295663" lon="-3.397233">
        <ele>682.8</ele>
        <time>1970-01-01T01:19:23.000Z</time>
      </trkpt>
      <trkpt lat="40.295654" lon="-3.397227">
        <ele>683</ele>
        <time>1970-01-01T01:19:24.000Z</time>
      </trkpt>
      <trkpt lat="40.295641" lon="-3.397215">
        <ele>683.4</ele>
        <time>1970-01-01T01:19:25.000Z</time>
      </trkpt>
      <trkpt lat="40.295627" lon="-3.397205">
        <ele>683.6</ele>
        <time>1970-01-01T01:19:26.000Z</time>
      </trkpt>
      <trkpt lat="40.295613" lon="-3.397194">
        <ele>683.8</ele>
        <time>1970-01-01T01:19:27.000Z</time>
      </trkpt>
      <trkpt lat="40.295591" lon="-3.39718">
        <ele>684</ele>
        <time>1970-01-01T01:19:28.000Z</time>
      </trkpt>
      <trkpt lat="40.295569" lon="-3.39717">
        <ele>684</ele>
        <time>1970-01-01T01:19:29.000Z</time>
      </trkpt>
      <trkpt lat="40.295548" lon="-3.397161">
        <ele>684.2</ele>
        <time>1970-01-01T01:19:30.000Z</time>
      </trkpt>
      <trkpt lat="40.295531" lon="-3.397156">
        <ele>684.4</ele>
        <time>1970-01-01T01:19:31.000Z</time>
      </trkpt>
      <trkpt lat="40.295531" lon="-3.397156">
        <ele>684.6</ele>
        <time>1970-01-01T01:19:32.000Z</time>
      </trkpt>
      <trkpt lat="40.295497" lon="-3.397158">
        <ele>684.8</ele>
        <time>1970-01-01T01:19:33.000Z</time>
      </trkpt>
      <trkpt lat="40.295497" lon="-3.397158">
        <ele>684.8</ele>
        <time>1970-01-01T01:19:34.000Z</time>
      </trkpt>
      <trkpt lat="40.295481" lon="-3.397161">
        <ele>685</ele>
        <time>1970-01-01T01:19:35.000Z</time>
      </trkpt>
      <trkpt lat="40.295443" lon="-3.397173">
        <ele>685</ele>
        <time>1970-01-01T01:19:36.000Z</time>
      </trkpt>
      <trkpt lat="40.295443" lon="-3.397173">
        <ele>685</ele>
        <time>1970-01-01T01:19:37.000Z</time>
      </trkpt>
      <trkpt lat="40.295422" lon="-3.397178">
        <ele>685.2</ele>
        <time>1970-01-01T01:19:38.000Z</time>
      </trkpt>
      <trkpt lat="40.295383" lon="-3.397189">
        <ele>685.2</ele>
        <time>1970-01-01T01:19:39.000Z</time>
      </trkpt>
      <trkpt lat="40.295364" lon="-3.397194">
        <ele>685.2</ele>
        <time>1970-01-01T01:19:40.000Z</time>
      </trkpt>
      <trkpt lat="40.295346" lon="-3.397202">
        <ele>685.2</ele>
        <time>1970-01-01T01:19:41.000Z</time>
      </trkpt>
      <trkpt lat="40.295326" lon="-3.397209">
        <ele>685.4</ele>
        <time>1970-01-01T01:19:42.000Z</time>
      </trkpt>
      <trkpt lat="40.295305" lon="-3.397216">
        <ele>685.4</ele>
        <time>1970-01-01T01:19:43.000Z</time>
      </trkpt>
      <trkpt lat="40.295286" lon="-3.397223">
        <ele>685.6</ele>
        <time>1970-01-01T01:19:44.000Z</time>
      </trkpt>
      <trkpt lat="40.295266" lon="-3.397232">
        <ele>685.8</ele>
        <time>1970-01-01T01:19:45.000Z</time>
      </trkpt>
      <trkpt lat="40.29525" lon="-3.397243">
        <ele>686</ele>
        <time>1970-01-01T01:19:46.000Z</time>
      </trkpt>
      <trkpt lat="40.295235" lon="-3.397252">
        <ele>686.2</ele>
        <time>1970-01-01T01:19:47.000Z</time>
      </trkpt>
      <trkpt lat="40.29522" lon="-3.397262">
        <ele>686.4</ele>
        <time>1970-01-01T01:19:48.000Z</time>
      </trkpt>
      <trkpt lat="40.295203" lon="-3.397267">
        <ele>686.8</ele>
        <time>1970-01-01T01:19:49.000Z</time>
      </trkpt>
      <trkpt lat="40.29518" lon="-3.397276">
        <ele>687</ele>
        <time>1970-01-01T01:19:50.000Z</time>
      </trkpt>
      <trkpt lat="40.295159" lon="-3.397283">
        <ele>687</ele>
        <time>1970-01-01T01:19:51.000Z</time>
      </trkpt>
      <trkpt lat="40.295138" lon="-3.39729">
        <ele>687</ele>
        <time>1970-01-01T01:19:52.000Z</time>
      </trkpt>
      <trkpt lat="40.295138" lon="-3.39729">
        <ele>687.4</ele>
        <time>1970-01-01T01:19:53.000Z</time>
      </trkpt>
      <trkpt lat="40.295117" lon="-3.397298">
        <ele>687.6</ele>
        <time>1970-01-01T01:19:54.000Z</time>
      </trkpt>
      <trkpt lat="40.29508" lon="-3.397314">
        <ele>687.6</ele>
        <time>1970-01-01T01:19:55.000Z</time>
      </trkpt>
      <trkpt lat="40.295059" lon="-3.397326">
        <ele>687.8</ele>
        <time>1970-01-01T01:19:56.000Z</time>
      </trkpt>
      <trkpt lat="40.295037" lon="-3.397338">
        <ele>688</ele>
        <time>1970-01-01T01:19:57.000Z</time>
      </trkpt>
      <trkpt lat="40.295037" lon="-3.397338">
        <ele>688.2</ele>
        <time>1970-01-01T01:19:58.000Z</time>
      </trkpt>
      <trkpt lat="40.295018" lon="-3.39735">
        <ele>688.6</ele>
        <time>1970-01-01T01:19:59.000Z</time>
      </trkpt>
      <trkpt lat="40.294979" lon="-3.39736">
        <ele>689</ele>
        <time>1970-01-01T01:20:00.000Z</time>
      </trkpt>
      <trkpt lat="40.294961" lon="-3.397366">
        <ele>689.4</ele>
        <time>1970-01-01T01:20:01.000Z</time>
      </trkpt>
      <trkpt lat="40.294942" lon="-3.397372">
        <ele>689.4</ele>
        <time>1970-01-01T01:20:02.000Z</time>
      </trkpt>
      <trkpt lat="40.294922" lon="-3.397374">
        <ele>689.6</ele>
        <time>1970-01-01T01:20:03.000Z</time>
      </trkpt>
      <trkpt lat="40.294897" lon="-3.397375">
        <ele>689.8</ele>
        <time>1970-01-01T01:20:04.000Z</time>
      </trkpt>
      <trkpt lat="40.294875" lon="-3.397375">
        <ele>690</ele>
        <time>1970-01-01T01:20:05.000Z</time>
      </trkpt>
      <trkpt lat="40.294855" lon="-3.397372">
        <ele>690</ele>
        <time>1970-01-01T01:20:06.000Z</time>
      </trkpt>
      <trkpt lat="40.294836" lon="-3.397369">
        <ele>690.2</ele>
        <time>1970-01-01T01:20:07.000Z</time>
      </trkpt>
      <trkpt lat="40.294817" lon="-3.397366">
        <ele>690.4</ele>
        <time>1970-01-01T01:20:08.000Z</time>
      </trkpt>
      <trkpt lat="40.294798" lon="-3.397364">
        <ele>690.6</ele>
        <time>1970-01-01T01:20:09.000Z</time>
      </trkpt>
      <trkpt lat="40.294777" lon="-3.397363">
        <ele>690.8</ele>
        <time>1970-01-01T01:20:10.000Z</time>
      </trkpt>
      <trkpt lat="40.294757" lon="-3.397359">
        <ele>690.8</ele>
        <time>1970-01-01T01:20:11.000Z</time>
      </trkpt>
      <trkpt lat="40.294738" lon="-3.397357">
        <ele>691</ele>
        <time>1970-01-01T01:20:12.000Z</time>
      </trkpt>
      <trkpt lat="40.29472" lon="-3.397356">
        <ele>691</ele>
        <time>1970-01-01T01:20:13.000Z</time>
      </trkpt>
      <trkpt lat="40.2947" lon="-3.397352">
        <ele>691.2</ele>
        <time>1970-01-01T01:20:14.000Z</time>
      </trkpt>
      <trkpt lat="40.294679" lon="-3.397351">
        <ele>691.4</ele>
        <time>1970-01-01T01:20:15.000Z</time>
      </trkpt>
      <trkpt lat="40.294659" lon="-3.39735">
        <ele>691.4</ele>
        <time>1970-01-01T01:20:16.000Z</time>
      </trkpt>
      <trkpt lat="40.294638" lon="-3.39735">
        <ele>691.4</ele>
        <time>1970-01-01T01:20:17.000Z</time>
      </trkpt>
      <trkpt lat="40.294619" lon="-3.397353">
        <ele>691.6</ele>
        <time>1970-01-01T01:20:18.000Z</time>
      </trkpt>
      <trkpt lat="40.294598" lon="-3.397357">
        <ele>691.6</ele>
        <time>1970-01-01T01:20:19.000Z</time>
      </trkpt>
      <trkpt lat="40.294581" lon="-3.397361">
        <ele>691.8</ele>
        <time>1970-01-01T01:20:20.000Z</time>
      </trkpt>
      <trkpt lat="40.294556" lon="-3.397366">
        <ele>691.8</ele>
        <time>1970-01-01T01:20:21.000Z</time>
      </trkpt>
      <trkpt lat="40.294532" lon="-3.39737">
        <ele>692</ele>
        <time>1970-01-01T01:20:22.000Z</time>
      </trkpt>
      <trkpt lat="40.294509" lon="-3.397374">
        <ele>692</ele>
        <time>1970-01-01T01:20:23.000Z</time>
      </trkpt>
      <trkpt lat="40.29449" lon="-3.397376">
        <ele>692</ele>
        <time>1970-01-01T01:20:24.000Z</time>
      </trkpt>
      <trkpt lat="40.294463" lon="-3.397378">
        <ele>692</ele>
        <time>1970-01-01T01:20:25.000Z</time>
      </trkpt>
      <trkpt lat="40.29444" lon="-3.397378">
        <ele>692</ele>
        <time>1970-01-01T01:20:26.000Z</time>
      </trkpt>
      <trkpt lat="40.294416" lon="-3.397378">
        <ele>692.2</ele>
        <time>1970-01-01T01:20:27.000Z</time>
      </trkpt>
      <trkpt lat="40.294391" lon="-3.397379">
        <ele>692.2</ele>
        <time>1970-01-01T01:20:28.000Z</time>
      </trkpt>
      <trkpt lat="40.294367" lon="-3.397381">
        <ele>692.4</ele>
        <time>1970-01-01T01:20:29.000Z</time>
      </trkpt>
      <trkpt lat="40.294342" lon="-3.397383">
        <ele>692.4</ele>
        <time>1970-01-01T01:20:30.000Z</time>
      </trkpt>
      <trkpt lat="40.294317" lon="-3.397383">
        <ele>692.6</ele>
        <time>1970-01-01T01:20:31.000Z</time>
      </trkpt>
      <trkpt lat="40.294293" lon="-3.397384">
        <ele>692.6</ele>
        <time>1970-01-01T01:20:32.000Z</time>
      </trkpt>
      <trkpt lat="40.294268" lon="-3.397388">
        <ele>693</ele>
        <time>1970-01-01T01:20:33.000Z</time>
      </trkpt>
      <trkpt lat="40.294245" lon="-3.39739">
        <ele>693.4</ele>
        <time>1970-01-01T01:20:34.000Z</time>
      </trkpt>
      <trkpt lat="40.294224" lon="-3.397389">
        <ele>693.6</ele>
        <time>1970-01-01T01:20:35.000Z</time>
      </trkpt>
      <trkpt lat="40.294202" lon="-3.397389">
        <ele>693.8</ele>
        <time>1970-01-01T01:20:36.000Z</time>
      </trkpt>
      <trkpt lat="40.294181" lon="-3.397389">
        <ele>693.8</ele>
        <time>1970-01-01T01:20:37.000Z</time>
      </trkpt>
      <trkpt lat="40.294162" lon="-3.397383">
        <ele>694</ele>
        <time>1970-01-01T01:20:38.000Z</time>
      </trkpt>
      <trkpt lat="40.294136" lon="-3.397373">
        <ele>694.2</ele>
        <time>1970-01-01T01:20:39.000Z</time>
      </trkpt>
      <trkpt lat="40.294101" lon="-3.397357">
        <ele>694.2</ele>
        <time>1970-01-01T01:20:40.000Z</time>
      </trkpt>
      <trkpt lat="40.294067" lon="-3.397339">
        <ele>694.4</ele>
        <time>1970-01-01T01:20:41.000Z</time>
      </trkpt>
      <trkpt lat="40.294009" lon="-3.397311">
        <ele>694.4</ele>
        <time>1970-01-01T01:20:42.000Z</time>
      </trkpt>
      <trkpt lat="40.293948" lon="-3.397294">
        <ele>694.4</ele>
        <time>1970-01-01T01:20:43.000Z</time>
      </trkpt>
      <trkpt lat="40.293879" lon="-3.397288">
        <ele>694.4</ele>
        <time>1970-01-01T01:20:44.000Z</time>
      </trkpt>
      <trkpt lat="40.293815" lon="-3.397289">
        <ele>694.2</ele>
        <time>1970-01-01T01:20:45.000Z</time>
      </trkpt>
      <trkpt lat="40.293759" lon="-3.397289">
        <ele>694</ele>
        <time>1970-01-01T01:20:46.000Z</time>
      </trkpt>
      <trkpt lat="40.29371" lon="-3.397281">
        <ele>693.6</ele>
        <time>1970-01-01T01:20:47.000Z</time>
      </trkpt>
      <trkpt lat="40.293668" lon="-3.397261">
        <ele>693.4</ele>
        <time>1970-01-01T01:20:48.000Z</time>
      </trkpt>
      <trkpt lat="40.293635" lon="-3.397233">
        <ele>693.2</ele>
        <time>1970-01-01T01:20:49.000Z</time>
      </trkpt>
      <trkpt lat="40.293612" lon="-3.397202">
        <ele>693.2</ele>
        <time>1970-01-01T01:20:50.000Z</time>
      </trkpt>
      <trkpt lat="40.293591" lon="-3.397178">
        <ele>693.2</ele>
        <time>1970-01-01T01:20:51.000Z</time>
      </trkpt>
      <trkpt lat="40.293573" lon="-3.397163">
        <ele>693.2</ele>
        <time>1970-01-01T01:20:52.000Z</time>
      </trkpt>
      <trkpt lat="40.293549" lon="-3.397146">
        <ele>693.2</ele>
        <time>1970-01-01T01:20:53.000Z</time>
      </trkpt>
      <trkpt lat="40.293525" lon="-3.39713">
        <ele>693.2</ele>
        <time>1970-01-01T01:20:54.000Z</time>
      </trkpt>
      <trkpt lat="40.293504" lon="-3.397115">
        <ele>693.2</ele>
        <time>1970-01-01T01:20:55.000Z</time>
      </trkpt>
      <trkpt lat="40.293488" lon="-3.397098">
        <ele>693.4</ele>
        <time>1970-01-01T01:20:56.000Z</time>
      </trkpt>
      <trkpt lat="40.293472" lon="-3.397082">
        <ele>693.4</ele>
        <time>1970-01-01T01:20:57.000Z</time>
      </trkpt>
      <trkpt lat="40.293455" lon="-3.397067">
        <ele>693.4</ele>
        <time>1970-01-01T01:20:58.000Z</time>
      </trkpt>
      <trkpt lat="40.293429" lon="-3.397051">
        <ele>693.4</ele>
        <time>1970-01-01T01:20:59.000Z</time>
      </trkpt>
      <trkpt lat="40.293409" lon="-3.397045">
        <ele>693.6</ele>
        <time>1970-01-01T01:21:00.000Z</time>
      </trkpt>
      <trkpt lat="40.293388" lon="-3.397035">
        <ele>693.6</ele>
        <time>1970-01-01T01:21:01.000Z</time>
      </trkpt>
      <trkpt lat="40.293366" lon="-3.397026">
        <ele>693.6</ele>
        <time>1970-01-01T01:21:02.000Z</time>
      </trkpt>
      <trkpt lat="40.293347" lon="-3.397016">
        <ele>693.8</ele>
        <time>1970-01-01T01:21:03.000Z</time>
      </trkpt>
      <trkpt lat="40.293323" lon="-3.397003">
        <ele>693.8</ele>
        <time>1970-01-01T01:21:04.000Z</time>
      </trkpt>
      <trkpt lat="40.293301" lon="-3.396994">
        <ele>693.8</ele>
        <time>1970-01-01T01:21:05.000Z</time>
      </trkpt>
      <trkpt lat="40.293284" lon="-3.39699">
        <ele>693.8</ele>
        <time>1970-01-01T01:21:06.000Z</time>
      </trkpt>
      <trkpt lat="40.293267" lon="-3.396985">
        <ele>693.8</ele>
        <time>1970-01-01T01:21:07.000Z</time>
      </trkpt>
      <trkpt lat="40.293257" lon="-3.39698">
        <ele>693.8</ele>
        <time>1970-01-01T01:21:08.000Z</time>
      </trkpt>
      <trkpt lat="40.29324" lon="-3.396968">
        <ele>694</ele>
        <time>1970-01-01T01:21:09.000Z</time>
      </trkpt>
      <trkpt lat="40.293212" lon="-3.396959">
        <ele>694</ele>
        <time>1970-01-01T01:21:10.000Z</time>
      </trkpt>
      <trkpt lat="40.293191" lon="-3.396958">
        <ele>694</ele>
        <time>1970-01-01T01:21:11.000Z</time>
      </trkpt>
      <trkpt lat="40.29317" lon="-3.396956">
        <ele>694</ele>
        <time>1970-01-01T01:21:12.000Z</time>
      </trkpt>
      <trkpt lat="40.293149" lon="-3.396954">
        <ele>694.2</ele>
        <time>1970-01-01T01:21:13.000Z</time>
      </trkpt>
      <trkpt lat="40.293128" lon="-3.396952">
        <ele>694.2</ele>
        <time>1970-01-01T01:21:14.000Z</time>
      </trkpt>
      <trkpt lat="40.293108" lon="-3.396951">
        <ele>694.2</ele>
        <time>1970-01-01T01:21:15.000Z</time>
      </trkpt>
      <trkpt lat="40.293087" lon="-3.396949">
        <ele>694.2</ele>
        <time>1970-01-01T01:21:16.000Z</time>
      </trkpt>
      <trkpt lat="40.293066" lon="-3.396947">
        <ele>694.2</ele>
        <time>1970-01-01T01:21:17.000Z</time>
      </trkpt>
      <trkpt lat="40.293045" lon="-3.396945">
        <ele>695.2</ele>
        <time>1970-01-01T01:21:38.000Z</time>
      </trkpt>
      <trkpt lat="40.293024" lon="-3.396944">
        <ele>695.2</ele>
        <time>1970-01-01T01:21:39.000Z</time>
      </trkpt>
      <trkpt lat="40.293003" lon="-3.396942">
        <ele>695.2</ele>
        <time>1970-01-01T01:21:40.000Z</time>
      </trkpt>
      <trkpt lat="40.292981" lon="-3.39694">
        <ele>695.2</ele>
        <time>1970-01-01T01:21:41.000Z</time>
      </trkpt>
      <trkpt lat="40.29296" lon="-3.396946">
        <ele>695.2</ele>
        <time>1970-01-01T01:21:42.000Z</time>
      </trkpt>
      <trkpt lat="40.292946" lon="-3.396958">
        <ele>695.2</ele>
        <time>1970-01-01T01:21:43.000Z</time>
      </trkpt>
      <trkpt lat="40.292926" lon="-3.396969">
        <ele>695.4</ele>
        <time>1970-01-01T01:21:44.000Z</time>
      </trkpt>
      <trkpt lat="40.292907" lon="-3.396977">
        <ele>695.4</ele>
        <time>1970-01-01T01:21:45.000Z</time>
      </trkpt>
      <trkpt lat="40.292886" lon="-3.396979">
        <ele>695.6</ele>
        <time>1970-01-01T01:21:46.000Z</time>
      </trkpt>
      <trkpt lat="40.292867" lon="-3.396983">
        <ele>695.8</ele>
        <time>1970-01-01T01:21:47.000Z</time>
      </trkpt>
      <trkpt lat="40.292848" lon="-3.396988">
        <ele>695.8</ele>
        <time>1970-01-01T01:21:48.000Z</time>
      </trkpt>
      <trkpt lat="40.292829" lon="-3.396995">
        <ele>696</ele>
        <time>1970-01-01T01:21:49.000Z</time>
      </trkpt>
      <trkpt lat="40.292808" lon="-3.397003">
        <ele>696</ele>
        <time>1970-01-01T01:21:50.000Z</time>
      </trkpt>
      <trkpt lat="40.292788" lon="-3.397007">
        <ele>696.2</ele>
        <time>1970-01-01T01:21:51.000Z</time>
      </trkpt>
      <trkpt lat="40.292768" lon="-3.397011">
        <ele>696.2</ele>
        <time>1970-01-01T01:21:52.000Z</time>
      </trkpt>
      <trkpt lat="40.292755" lon="-3.397013">
        <ele>696.4</ele>
        <time>1970-01-01T01:21:53.000Z</time>
      </trkpt>
      <trkpt lat="40.29274" lon="-3.397016">
        <ele>696.4</ele>
        <time>1970-01-01T01:21:54.000Z</time>
      </trkpt>
      <trkpt lat="40.292726" lon="-3.397021">
        <ele>696.6</ele>
        <time>1970-01-01T01:21:55.000Z</time>
      </trkpt>
      <trkpt lat="40.292726" lon="-3.397021">
        <ele>696.8</ele>
        <time>1970-01-01T01:21:56.000Z</time>
      </trkpt>
      <trkpt lat="40.292697" lon="-3.397037">
        <ele>697</ele>
        <time>1970-01-01T01:21:57.000Z</time>
      </trkpt>
      <trkpt lat="40.292697" lon="-3.397037">
        <ele>697.4</ele>
        <time>1970-01-01T01:21:58.000Z</time>
      </trkpt>
      <trkpt lat="40.292665" lon="-3.397054">
        <ele>697.6</ele>
        <time>1970-01-01T01:21:59.000Z</time>
      </trkpt>
      <trkpt lat="40.292651" lon="-3.397061">
        <ele>697.8</ele>
        <time>1970-01-01T01:22:00.000Z</time>
      </trkpt>
      <trkpt lat="40.292636" lon="-3.397069">
        <ele>698</ele>
        <time>1970-01-01T01:22:01.000Z</time>
      </trkpt>
      <trkpt lat="40.292621" lon="-3.39708">
        <ele>698</ele>
        <time>1970-01-01T01:22:02.000Z</time>
      </trkpt>
      <trkpt lat="40.292621" lon="-3.39708">
        <ele>698.2</ele>
        <time>1970-01-01T01:22:03.000Z</time>
      </trkpt>
      <trkpt lat="40.292604" lon="-3.397092">
        <ele>698.2</ele>
        <time>1970-01-01T01:22:04.000Z</time>
      </trkpt>
      <trkpt lat="40.292572" lon="-3.39711">
        <ele>698.2</ele>
        <time>1970-01-01T01:22:05.000Z</time>
      </trkpt>
      <trkpt lat="40.292555" lon="-3.397124">
        <ele>698.2</ele>
        <time>1970-01-01T01:22:06.000Z</time>
      </trkpt>
      <trkpt lat="40.29254" lon="-3.397142">
        <ele>698.4</ele>
        <time>1970-01-01T01:22:07.000Z</time>
      </trkpt>
      <trkpt lat="40.292526" lon="-3.397159">
        <ele>698.4</ele>
        <time>1970-01-01T01:22:08.000Z</time>
      </trkpt>
      <trkpt lat="40.292517" lon="-3.397177">
        <ele>698.4</ele>
        <time>1970-01-01T01:22:09.000Z</time>
      </trkpt>
      <trkpt lat="40.292517" lon="-3.397177">
        <ele>698.4</ele>
        <time>1970-01-01T01:22:10.000Z</time>
      </trkpt>
      <trkpt lat="40.292498" lon="-3.397208">
        <ele>698.6</ele>
        <time>1970-01-01T01:22:11.000Z</time>
      </trkpt>
      <trkpt lat="40.29249" lon="-3.397222">
        <ele>698.8</ele>
        <time>1970-01-01T01:22:12.000Z</time>
      </trkpt>
      <trkpt lat="40.292481" lon="-3.397235">
        <ele>698.8</ele>
        <time>1970-01-01T01:22:13.000Z</time>
      </trkpt>
      <trkpt lat="40.292468" lon="-3.39725">
        <ele>698.8</ele>
        <time>1970-01-01T01:22:14.000Z</time>
      </trkpt>
      <trkpt lat="40.292468" lon="-3.39725">
        <ele>699</ele>
        <time>1970-01-01T01:22:15.000Z</time>
      </trkpt>
      <trkpt lat="40.292458" lon="-3.397264">
        <ele>699</ele>
        <time>1970-01-01T01:22:16.000Z</time>
      </trkpt>
      <trkpt lat="40.292436" lon="-3.397297">
        <ele>699</ele>
        <time>1970-01-01T01:22:17.000Z</time>
      </trkpt>
      <trkpt lat="40.292424" lon="-3.397318">
        <ele>699.2</ele>
        <time>1970-01-01T01:22:18.000Z</time>
      </trkpt>
      <trkpt lat="40.292413" lon="-3.39734">
        <ele>699.2</ele>
        <time>1970-01-01T01:22:19.000Z</time>
      </trkpt>
      <trkpt lat="40.292402" lon="-3.39736">
        <ele>699.2</ele>
        <time>1970-01-01T01:22:20.000Z</time>
      </trkpt>
      <trkpt lat="40.292393" lon="-3.397379">
        <ele>699.4</ele>
        <time>1970-01-01T01:22:21.000Z</time>
      </trkpt>
      <trkpt lat="40.292381" lon="-3.397396">
        <ele>699.4</ele>
        <time>1970-01-01T01:22:22.000Z</time>
      </trkpt>
      <trkpt lat="40.292368" lon="-3.397414">
        <ele>699.4</ele>
        <time>1970-01-01T01:22:23.000Z</time>
      </trkpt>
      <trkpt lat="40.292355" lon="-3.397432">
        <ele>699.6</ele>
        <time>1970-01-01T01:22:24.000Z</time>
      </trkpt>
      <trkpt lat="40.292345" lon="-3.397451">
        <ele>699.6</ele>
        <time>1970-01-01T01:22:25.000Z</time>
      </trkpt>
      <trkpt lat="40.292334" lon="-3.397462">
        <ele>699.6</ele>
        <time>1970-01-01T01:22:26.000Z</time>
      </trkpt>
      <trkpt lat="40.292322" lon="-3.397472">
        <ele>699.6</ele>
        <time>1970-01-01T01:22:27.000Z</time>
      </trkpt>
      <trkpt lat="40.292306" lon="-3.397482">
        <ele>699.8</ele>
        <time>1970-01-01T01:22:28.000Z</time>
      </trkpt>
      <trkpt lat="40.292293" lon="-3.397495">
        <ele>699.8</ele>
        <time>1970-01-01T01:22:29.000Z</time>
      </trkpt>
      <trkpt lat="40.292277" lon="-3.397512">
        <ele>700</ele>
        <time>1970-01-01T01:22:30.000Z</time>
      </trkpt>
      <trkpt lat="40.292262" lon="-3.397527">
        <ele>700</ele>
        <time>1970-01-01T01:22:31.000Z</time>
      </trkpt>
      <trkpt lat="40.292243" lon="-3.397534">
        <ele>700.2</ele>
        <time>1970-01-01T01:22:32.000Z</time>
      </trkpt>
      <trkpt lat="40.292225" lon="-3.397535">
        <ele>700.4</ele>
        <time>1970-01-01T01:22:33.000Z</time>
      </trkpt>
      <trkpt lat="40.292208" lon="-3.397536">
        <ele>700.6</ele>
        <time>1970-01-01T01:22:34.000Z</time>
      </trkpt>
      <trkpt lat="40.292189" lon="-3.397542">
        <ele>700.6</ele>
        <time>1970-01-01T01:22:35.000Z</time>
      </trkpt>
      <trkpt lat="40.292184" lon="-3.397543">
        <ele>700.6</ele>
        <time>1970-01-01T01:22:36.000Z</time>
      </trkpt>
      <trkpt lat="40.292182" lon="-3.397543">
        <ele>700.6</ele>
        <time>1970-01-01T01:22:37.000Z</time>
      </trkpt>
      <trkpt lat="40.292172" lon="-3.397543">
        <ele>700.8</ele>
        <time>1970-01-01T01:22:38.000Z</time>
      </trkpt>
      <trkpt lat="40.292157" lon="-3.397544">
        <ele>700.8</ele>
        <time>1970-01-01T01:22:39.000Z</time>
      </trkpt>
      <trkpt lat="40.292145" lon="-3.397548">
        <ele>700.8</ele>
        <time>1970-01-01T01:22:40.000Z</time>
      </trkpt>
      <trkpt lat="40.292134" lon="-3.397547">
        <ele>700.8</ele>
        <time>1970-01-01T01:22:41.000Z</time>
      </trkpt>
      <trkpt lat="40.292124" lon="-3.397541">
        <ele>700.8</ele>
        <time>1970-01-01T01:22:42.000Z</time>
      </trkpt>
      <trkpt lat="40.292108" lon="-3.397532">
        <ele>700.8</ele>
        <time>1970-01-01T01:22:43.000Z</time>
      </trkpt>
      <trkpt lat="40.292085" lon="-3.397528">
        <ele>701</ele>
        <time>1970-01-01T01:22:44.000Z</time>
      </trkpt>
      <trkpt lat="40.292068" lon="-3.397528">
        <ele>701</ele>
        <time>1970-01-01T01:22:45.000Z</time>
      </trkpt>
      <trkpt lat="40.292051" lon="-3.397532">
        <ele>701.2</ele>
        <time>1970-01-01T01:22:46.000Z</time>
      </trkpt>
      <trkpt lat="40.292038" lon="-3.397536">
        <ele>701.2</ele>
        <time>1970-01-01T01:22:47.000Z</time>
      </trkpt>
      <trkpt lat="40.292025" lon="-3.397547">
        <ele>701.4</ele>
        <time>1970-01-01T01:22:48.000Z</time>
      </trkpt>
      <trkpt lat="40.292013" lon="-3.397561">
        <ele>701.4</ele>
        <time>1970-01-01T01:22:49.000Z</time>
      </trkpt>
      <trkpt lat="40.291998" lon="-3.39758">
        <ele>701.6</ele>
        <time>1970-01-01T01:22:50.000Z</time>
      </trkpt>
      <trkpt lat="40.291989" lon="-3.397591">
        <ele>701.6</ele>
        <time>1970-01-01T01:22:51.000Z</time>
      </trkpt>
      <trkpt lat="40.291977" lon="-3.397602">
        <ele>701.6</ele>
        <time>1970-01-01T01:22:52.000Z</time>
      </trkpt>
      <trkpt lat="40.291968" lon="-3.397614">
        <ele>701.6</ele>
        <time>1970-01-01T01:22:53.000Z</time>
      </trkpt>
      <trkpt lat="40.291959" lon="-3.397626">
        <ele>701.8</ele>
        <time>1970-01-01T01:22:54.000Z</time>
      </trkpt>
      <trkpt lat="40.291947" lon="-3.397636">
        <ele>701.8</ele>
        <time>1970-01-01T01:22:55.000Z</time>
      </trkpt>
      <trkpt lat="40.291931" lon="-3.397648">
        <ele>701.8</ele>
        <time>1970-01-01T01:22:56.000Z</time>
      </trkpt>
      <trkpt lat="40.29192" lon="-3.397654">
        <ele>702</ele>
        <time>1970-01-01T01:22:57.000Z</time>
      </trkpt>
      <trkpt lat="40.291905" lon="-3.397658">
        <ele>702</ele>
        <time>1970-01-01T01:22:58.000Z</time>
      </trkpt>
      <trkpt lat="40.291893" lon="-3.397663">
        <ele>702</ele>
        <time>1970-01-01T01:22:59.000Z</time>
      </trkpt>
      <trkpt lat="40.29188" lon="-3.397667">
        <ele>702</ele>
        <time>1970-01-01T01:23:00.000Z</time>
      </trkpt>
      <trkpt lat="40.291866" lon="-3.397673">
        <ele>702.2</ele>
        <time>1970-01-01T01:23:01.000Z</time>
      </trkpt>
      <trkpt lat="40.291852" lon="-3.397677">
        <ele>702.4</ele>
        <time>1970-01-01T01:23:02.000Z</time>
      </trkpt>
      <trkpt lat="40.291839" lon="-3.39768">
        <ele>702.4</ele>
        <time>1970-01-01T01:23:03.000Z</time>
      </trkpt>
      <trkpt lat="40.291825" lon="-3.397682">
        <ele>702.6</ele>
        <time>1970-01-01T01:23:04.000Z</time>
      </trkpt>
      <trkpt lat="40.291825" lon="-3.397682">
        <ele>702.8</ele>
        <time>1970-01-01T01:23:05.000Z</time>
      </trkpt>
      <trkpt lat="40.291796" lon="-3.397684">
        <ele>703</ele>
        <time>1970-01-01T01:23:06.000Z</time>
      </trkpt>
      <trkpt lat="40.291796" lon="-3.397684">
        <ele>703</ele>
        <time>1970-01-01T01:23:07.000Z</time>
      </trkpt>
      <trkpt lat="40.291766" lon="-3.397685">
        <ele>703.2</ele>
        <time>1970-01-01T01:23:08.000Z</time>
      </trkpt>
      <trkpt lat="40.291752" lon="-3.397689">
        <ele>703.4</ele>
        <time>1970-01-01T01:23:09.000Z</time>
      </trkpt>
      <trkpt lat="40.291745" lon="-3.397691">
        <ele>703.4</ele>
        <time>1970-01-01T01:23:10.000Z</time>
      </trkpt>
      <trkpt lat="40.291745" lon="-3.397691">
        <ele>703.4</ele>
        <time>1970-01-01T01:23:11.000Z</time>
      </trkpt>
      <trkpt lat="40.291745" lon="-3.397691">
        <ele>703.4</ele>
        <time>1970-01-01T01:23:12.000Z</time>
      </trkpt>
      <trkpt lat="40.291706" lon="-3.397698">
        <ele>704.2</ele>
        <time>1970-01-01T01:23:32.000Z</time>
      </trkpt>
      <trkpt lat="40.291684" lon="-3.397701">
        <ele>704.2</ele>
        <time>1970-01-01T01:23:33.000Z</time>
      </trkpt>
      <trkpt lat="40.291662" lon="-3.397701">
        <ele>704.4</ele>
        <time>1970-01-01T01:23:34.000Z</time>
      </trkpt>
      <trkpt lat="40.291642" lon="-3.397702">
        <ele>704.4</ele>
        <time>1970-01-01T01:23:35.000Z</time>
      </trkpt>
      <trkpt lat="40.291622" lon="-3.397702">
        <ele>704.4</ele>
        <time>1970-01-01T01:23:36.000Z</time>
      </trkpt>
      <trkpt lat="40.291603" lon="-3.397705">
        <ele>704.6</ele>
        <time>1970-01-01T01:23:37.000Z</time>
      </trkpt>
      <trkpt lat="40.291577" lon="-3.397708">
        <ele>704.6</ele>
        <time>1970-01-01T01:23:38.000Z</time>
      </trkpt>
      <trkpt lat="40.291577" lon="-3.397708">
        <ele>704.8</ele>
        <time>1970-01-01T01:23:39.000Z</time>
      </trkpt>
      <trkpt lat="40.291559" lon="-3.397709">
        <ele>704.8</ele>
        <time>1970-01-01T01:23:40.000Z</time>
      </trkpt>
      <trkpt lat="40.291527" lon="-3.397719">
        <ele>705</ele>
        <time>1970-01-01T01:23:41.000Z</time>
      </trkpt>
      <trkpt lat="40.291527" lon="-3.397719">
        <ele>705.2</ele>
        <time>1970-01-01T01:23:42.000Z</time>
      </trkpt>
      <trkpt lat="40.291498" lon="-3.397736">
        <ele>705.2</ele>
        <time>1970-01-01T01:23:43.000Z</time>
      </trkpt>
      <trkpt lat="40.291498" lon="-3.397736">
        <ele>705.6</ele>
        <time>1970-01-01T01:23:44.000Z</time>
      </trkpt>
      <trkpt lat="40.291462" lon="-3.397746">
        <ele>705.6</ele>
        <time>1970-01-01T01:23:45.000Z</time>
      </trkpt>
      <trkpt lat="40.291442" lon="-3.397751">
        <ele>705.8</ele>
        <time>1970-01-01T01:23:46.000Z</time>
      </trkpt>
      <trkpt lat="40.291426" lon="-3.397761">
        <ele>706</ele>
        <time>1970-01-01T01:23:47.000Z</time>
      </trkpt>
      <trkpt lat="40.291412" lon="-3.397768">
        <ele>706.2</ele>
        <time>1970-01-01T01:23:48.000Z</time>
      </trkpt>
      <trkpt lat="40.291412" lon="-3.397768">
        <ele>706.4</ele>
        <time>1970-01-01T01:23:49.000Z</time>
      </trkpt>
      <trkpt lat="40.291386" lon="-3.39777">
        <ele>706.4</ele>
        <time>1970-01-01T01:23:50.000Z</time>
      </trkpt>
      <trkpt lat="40.291374" lon="-3.397771">
        <ele>706.6</ele>
        <time>1970-01-01T01:23:51.000Z</time>
      </trkpt>
      <trkpt lat="40.291356" lon="-3.397776">
        <ele>706.8</ele>
        <time>1970-01-01T01:23:52.000Z</time>
      </trkpt>
      <trkpt lat="40.291338" lon="-3.397788">
        <ele>707.2</ele>
        <time>1970-01-01T01:23:53.000Z</time>
      </trkpt>
      <trkpt lat="40.29132" lon="-3.397802">
        <ele>707.2</ele>
        <time>1970-01-01T01:23:54.000Z</time>
      </trkpt>
      <trkpt lat="40.291313" lon="-3.397816">
        <ele>707.4</ele>
        <time>1970-01-01T01:23:55.000Z</time>
      </trkpt>
      <trkpt lat="40.291302" lon="-3.397831">
        <ele>707.8</ele>
        <time>1970-01-01T01:23:56.000Z</time>
      </trkpt>
      <trkpt lat="40.291291" lon="-3.397839">
        <ele>708</ele>
        <time>1970-01-01T01:23:57.000Z</time>
      </trkpt>
      <trkpt lat="40.291278" lon="-3.397846">
        <ele>708.2</ele>
        <time>1970-01-01T01:23:58.000Z</time>
      </trkpt>
      <trkpt lat="40.291266" lon="-3.397851">
        <ele>708.4</ele>
        <time>1970-01-01T01:23:59.000Z</time>
      </trkpt>
      <trkpt lat="40.291266" lon="-3.397851">
        <ele>708.4</ele>
        <time>1970-01-01T01:24:00.000Z</time>
      </trkpt>
      <trkpt lat="40.291253" lon="-3.397869">
        <ele>708.8</ele>
        <time>1970-01-01T01:24:01.000Z</time>
      </trkpt>
      <trkpt lat="40.291248" lon="-3.397879">
        <ele>709</ele>
        <time>1970-01-01T01:24:02.000Z</time>
      </trkpt>
      <trkpt lat="40.291245" lon="-3.397893">
        <ele>709.2</ele>
        <time>1970-01-01T01:24:03.000Z</time>
      </trkpt>
      <trkpt lat="40.291244" lon="-3.397914">
        <ele>709.2</ele>
        <time>1970-01-01T01:24:04.000Z</time>
      </trkpt>
      <trkpt lat="40.291238" lon="-3.397934">
        <ele>709.4</ele>
        <time>1970-01-01T01:24:05.000Z</time>
      </trkpt>
      <trkpt lat="40.291238" lon="-3.397934">
        <ele>709.4</ele>
        <time>1970-01-01T01:24:06.000Z</time>
      </trkpt>
      <trkpt lat="40.291229" lon="-3.397965">
        <ele>709.6</ele>
        <time>1970-01-01T01:24:07.000Z</time>
      </trkpt>
      <trkpt lat="40.291218" lon="-3.397975">
        <ele>709.6</ele>
        <time>1970-01-01T01:24:08.000Z</time>
      </trkpt>
      <trkpt lat="40.291201" lon="-3.397979">
        <ele>709.6</ele>
        <time>1970-01-01T01:24:09.000Z</time>
      </trkpt>
      <trkpt lat="40.29118" lon="-3.397979">
        <ele>710</ele>
        <time>1970-01-01T01:24:10.000Z</time>
      </trkpt>
      <trkpt lat="40.291158" lon="-3.397975">
        <ele>710.2</ele>
        <time>1970-01-01T01:24:11.000Z</time>
      </trkpt>
      <trkpt lat="40.291134" lon="-3.397971">
        <ele>710.4</ele>
        <time>1970-01-01T01:24:12.000Z</time>
      </trkpt>
      <trkpt lat="40.291111" lon="-3.39797">
        <ele>710.6</ele>
        <time>1970-01-01T01:24:13.000Z</time>
      </trkpt>
      <trkpt lat="40.291092" lon="-3.397975">
        <ele>710.6</ele>
        <time>1970-01-01T01:24:14.000Z</time>
      </trkpt>
      <trkpt lat="40.291092" lon="-3.397975">
        <ele>710.8</ele>
        <time>1970-01-01T01:24:15.000Z</time>
      </trkpt>
      <trkpt lat="40.291065" lon="-3.397997">
        <ele>710.8</ele>
        <time>1970-01-01T01:24:16.000Z</time>
      </trkpt>
      <trkpt lat="40.291057" lon="-3.398007">
        <ele>710.8</ele>
        <time>1970-01-01T01:24:17.000Z</time>
      </trkpt>
      <trkpt lat="40.291053" lon="-3.398016">
        <ele>710.8</ele>
        <time>1970-01-01T01:24:18.000Z</time>
      </trkpt>
      <trkpt lat="40.291051" lon="-3.398029">
        <ele>710.8</ele>
        <time>1970-01-01T01:24:19.000Z</time>
      </trkpt>
      <trkpt lat="40.291053" lon="-3.398042">
        <ele>710.8</ele>
        <time>1970-01-01T01:24:20.000Z</time>
      </trkpt>
      <trkpt lat="40.291053" lon="-3.398042">
        <ele>711</ele>
        <time>1970-01-01T01:24:21.000Z</time>
      </trkpt>
      <trkpt lat="40.291061" lon="-3.398084">
        <ele>711.2</ele>
        <time>1970-01-01T01:24:22.000Z</time>
      </trkpt>
      <trkpt lat="40.291061" lon="-3.398084">
        <ele>711.2</ele>
        <time>1970-01-01T01:24:23.000Z</time>
      </trkpt>
      <trkpt lat="40.29107" lon="-3.398112">
        <ele>711.2</ele>
        <time>1970-01-01T01:24:24.000Z</time>
      </trkpt>
      <trkpt lat="40.29108" lon="-3.39817">
        <ele>711.4</ele>
        <time>1970-01-01T01:24:25.000Z</time>
      </trkpt>
      <trkpt lat="40.291083" lon="-3.398197">
        <ele>711.4</ele>
        <time>1970-01-01T01:24:26.000Z</time>
      </trkpt>
      <trkpt lat="40.291085" lon="-3.398224">
        <ele>711.6</ele>
        <time>1970-01-01T01:24:27.000Z</time>
      </trkpt>
      <trkpt lat="40.291082" lon="-3.398248">
        <ele>711.8</ele>
        <time>1970-01-01T01:24:28.000Z</time>
      </trkpt>
      <trkpt lat="40.291074" lon="-3.398308">
        <ele>712.2</ele>
        <time>1970-01-01T01:24:29.000Z</time>
      </trkpt>
      <trkpt lat="40.291071" lon="-3.398347">
        <ele>712.2</ele>
        <time>1970-01-01T01:24:30.000Z</time>
      </trkpt>
      <trkpt lat="40.291067" lon="-3.398386">
        <ele>712.4</ele>
        <time>1970-01-01T01:24:31.000Z</time>
      </trkpt>
      <trkpt lat="40.291064" lon="-3.398425">
        <ele>712.6</ele>
        <time>1970-01-01T01:24:32.000Z</time>
      </trkpt>
      <trkpt lat="40.29106" lon="-3.398464">
        <ele>713.2</ele>
        <time>1970-01-01T01:24:33.000Z</time>
      </trkpt>
      <trkpt lat="40.291056" lon="-3.398503">
        <ele>713.8</ele>
        <time>1970-01-01T01:24:34.000Z</time>
      </trkpt>
      <trkpt lat="40.291053" lon="-3.398542">
        <ele>718.8</ele>
        <time>1970-01-01T01:25:32.000Z</time>
      </trkpt>
      <trkpt lat="40.291049" lon="-3.398581">
        <ele>718.8</ele>
        <time>1970-01-01T01:25:33.000Z</time>
      </trkpt>
      <trkpt lat="40.291028" lon="-3.398629">
        <ele>718.6</ele>
        <time>1970-01-01T01:25:34.000Z</time>
      </trkpt>
      <trkpt lat="40.291007" lon="-3.398671">
        <ele>718.6</ele>
        <time>1970-01-01T01:25:35.000Z</time>
      </trkpt>
      <trkpt lat="40.290988" lon="-3.398703">
        <ele>718.6</ele>
        <time>1970-01-01T01:25:36.000Z</time>
      </trkpt>
      <trkpt lat="40.290968" lon="-3.39873">
        <ele>718</ele>
        <time>1970-01-01T01:25:37.000Z</time>
      </trkpt>
      <trkpt lat="40.290946" lon="-3.39875">
        <ele>718</ele>
        <time>1970-01-01T01:25:38.000Z</time>
      </trkpt>
      <trkpt lat="40.290921" lon="-3.398767">
        <ele>717.8</ele>
        <time>1970-01-01T01:25:39.000Z</time>
      </trkpt>
      <trkpt lat="40.290899" lon="-3.398785">
        <ele>717.6</ele>
        <time>1970-01-01T01:25:40.000Z</time>
      </trkpt>
      <trkpt lat="40.290874" lon="-3.398805">
        <ele>717.6</ele>
        <time>1970-01-01T01:25:41.000Z</time>
      </trkpt>
      <trkpt lat="40.290848" lon="-3.398824">
        <ele>717.6</ele>
        <time>1970-01-01T01:25:42.000Z</time>
      </trkpt>
      <trkpt lat="40.290818" lon="-3.398846">
        <ele>717.6</ele>
        <time>1970-01-01T01:25:43.000Z</time>
      </trkpt>
      <trkpt lat="40.290785" lon="-3.398868">
        <ele>717.8</ele>
        <time>1970-01-01T01:25:44.000Z</time>
      </trkpt>
      <trkpt lat="40.29075" lon="-3.398889">
        <ele>717.8</ele>
        <time>1970-01-01T01:25:45.000Z</time>
      </trkpt>
      <trkpt lat="40.290715" lon="-3.398912">
        <ele>718</ele>
        <time>1970-01-01T01:25:46.000Z</time>
      </trkpt>
      <trkpt lat="40.290682" lon="-3.398933">
        <ele>718.2</ele>
        <time>1970-01-01T01:25:47.000Z</time>
      </trkpt>
      <trkpt lat="40.290647" lon="-3.398952">
        <ele>718.2</ele>
        <time>1970-01-01T01:25:48.000Z</time>
      </trkpt>
      <trkpt lat="40.290612" lon="-3.398966">
        <ele>718.4</ele>
        <time>1970-01-01T01:25:49.000Z</time>
      </trkpt>
      <trkpt lat="40.290577" lon="-3.398977">
        <ele>718.6</ele>
        <time>1970-01-01T01:25:50.000Z</time>
      </trkpt>
      <trkpt lat="40.290544" lon="-3.398988">
        <ele>718.6</ele>
        <time>1970-01-01T01:25:51.000Z</time>
      </trkpt>
      <trkpt lat="40.290521" lon="-3.398997">
        <ele>718.8</ele>
        <time>1970-01-01T01:25:52.000Z</time>
      </trkpt>
      <trkpt lat="40.290496" lon="-3.399007">
        <ele>718.8</ele>
        <time>1970-01-01T01:25:53.000Z</time>
      </trkpt>
      <trkpt lat="40.290471" lon="-3.399013">
        <ele>718.8</ele>
        <time>1970-01-01T01:25:54.000Z</time>
      </trkpt>
      <trkpt lat="40.290448" lon="-3.399014">
        <ele>718.8</ele>
        <time>1970-01-01T01:25:55.000Z</time>
      </trkpt>
      <trkpt lat="40.290426" lon="-3.399013">
        <ele>719</ele>
        <time>1970-01-01T01:25:56.000Z</time>
      </trkpt>
      <trkpt lat="40.290404" lon="-3.399014">
        <ele>719</ele>
        <time>1970-01-01T01:25:57.000Z</time>
      </trkpt>
      <trkpt lat="40.290382" lon="-3.399014">
        <ele>719.2</ele>
        <time>1970-01-01T01:25:58.000Z</time>
      </trkpt>
      <trkpt lat="40.290358" lon="-3.399014">
        <ele>719.2</ele>
        <time>1970-01-01T01:25:59.000Z</time>
      </trkpt>
      <trkpt lat="40.290335" lon="-3.399015">
        <ele>719</ele>
        <time>1970-01-01T01:26:00.000Z</time>
      </trkpt>
      <trkpt lat="40.290309" lon="-3.399017">
        <ele>719.4</ele>
        <time>1970-01-01T01:26:01.000Z</time>
      </trkpt>
      <trkpt lat="40.290289" lon="-3.399019">
        <ele>719.4</ele>
        <time>1970-01-01T01:26:02.000Z</time>
      </trkpt>
      <trkpt lat="40.290268" lon="-3.399018">
        <ele>719.6</ele>
        <time>1970-01-01T01:26:03.000Z</time>
      </trkpt>
      <trkpt lat="40.290246" lon="-3.399014">
        <ele>719.6</ele>
        <time>1970-01-01T01:26:04.000Z</time>
      </trkpt>
      <trkpt lat="40.290221" lon="-3.399008">
        <ele>719.8</ele>
        <time>1970-01-01T01:26:05.000Z</time>
      </trkpt>
      <trkpt lat="40.290197" lon="-3.399003">
        <ele>720</ele>
        <time>1970-01-01T01:26:06.000Z</time>
      </trkpt>
      <trkpt lat="40.290172" lon="-3.398997">
        <ele>720</ele>
        <time>1970-01-01T01:26:07.000Z</time>
      </trkpt>
      <trkpt lat="40.290146" lon="-3.398991">
        <ele>720.4</ele>
        <time>1970-01-01T01:26:08.000Z</time>
      </trkpt>
      <trkpt lat="40.290119" lon="-3.398987">
        <ele>720.6</ele>
        <time>1970-01-01T01:26:09.000Z</time>
      </trkpt>
      <trkpt lat="40.290093" lon="-3.398984">
        <ele>720.8</ele>
        <time>1970-01-01T01:26:10.000Z</time>
      </trkpt>
      <trkpt lat="40.290068" lon="-3.398981">
        <ele>721</ele>
        <time>1970-01-01T01:26:11.000Z</time>
      </trkpt>
      <trkpt lat="40.290043" lon="-3.398983">
        <ele>721.2</ele>
        <time>1970-01-01T01:26:12.000Z</time>
      </trkpt>
      <trkpt lat="40.290018" lon="-3.398984">
        <ele>721.4</ele>
        <time>1970-01-01T01:26:13.000Z</time>
      </trkpt>
      <trkpt lat="40.289991" lon="-3.398988">
        <ele>721.6</ele>
        <time>1970-01-01T01:26:14.000Z</time>
      </trkpt>
      <trkpt lat="40.289964" lon="-3.398994">
        <ele>721.8</ele>
        <time>1970-01-01T01:26:15.000Z</time>
      </trkpt>
      <trkpt lat="40.289936" lon="-3.399001">
        <ele>722</ele>
        <time>1970-01-01T01:26:16.000Z</time>
      </trkpt>
      <trkpt lat="40.28991" lon="-3.399011">
        <ele>722.2</ele>
        <time>1970-01-01T01:26:17.000Z</time>
      </trkpt>
      <trkpt lat="40.289883" lon="-3.399024">
        <ele>722.2</ele>
        <time>1970-01-01T01:26:18.000Z</time>
      </trkpt>
      <trkpt lat="40.28986" lon="-3.39904">
        <ele>722.4</ele>
        <time>1970-01-01T01:26:19.000Z</time>
      </trkpt>
      <trkpt lat="40.289837" lon="-3.399054">
        <ele>722.6</ele>
        <time>1970-01-01T01:26:20.000Z</time>
      </trkpt>
      <trkpt lat="40.289813" lon="-3.399065">
        <ele>722.8</ele>
        <time>1970-01-01T01:26:21.000Z</time>
      </trkpt>
      <trkpt lat="40.28979" lon="-3.399077">
        <ele>723.2</ele>
        <time>1970-01-01T01:26:22.000Z</time>
      </trkpt>
      <trkpt lat="40.289769" lon="-3.399088">
        <ele>723.4</ele>
        <time>1970-01-01T01:26:23.000Z</time>
      </trkpt>
      <trkpt lat="40.289748" lon="-3.399102">
        <ele>723.8</ele>
        <time>1970-01-01T01:26:24.000Z</time>
      </trkpt>
      <trkpt lat="40.28973" lon="-3.399113">
        <ele>724</ele>
        <time>1970-01-01T01:26:25.000Z</time>
      </trkpt>
      <trkpt lat="40.289713" lon="-3.399121">
        <ele>724.4</ele>
        <time>1970-01-01T01:26:26.000Z</time>
      </trkpt>
      <trkpt lat="40.289697" lon="-3.399132">
        <ele>724.6</ele>
        <time>1970-01-01T01:26:27.000Z</time>
      </trkpt>
      <trkpt lat="40.28968" lon="-3.399141">
        <ele>724.8</ele>
        <time>1970-01-01T01:26:28.000Z</time>
      </trkpt>
      <trkpt lat="40.289662" lon="-3.399149">
        <ele>725</ele>
        <time>1970-01-01T01:26:29.000Z</time>
      </trkpt>
      <trkpt lat="40.289644" lon="-3.399158">
        <ele>725</ele>
        <time>1970-01-01T01:26:30.000Z</time>
      </trkpt>
      <trkpt lat="40.289627" lon="-3.39917">
        <ele>725</ele>
        <time>1970-01-01T01:26:31.000Z</time>
      </trkpt>
      <trkpt lat="40.289611" lon="-3.39918">
        <ele>725.2</ele>
        <time>1970-01-01T01:26:32.000Z</time>
      </trkpt>
      <trkpt lat="40.289594" lon="-3.399187">
        <ele>725.4</ele>
        <time>1970-01-01T01:26:33.000Z</time>
      </trkpt>
      <trkpt lat="40.289579" lon="-3.399196">
        <ele>725.6</ele>
        <time>1970-01-01T01:26:34.000Z</time>
      </trkpt>
      <trkpt lat="40.289565" lon="-3.399205">
        <ele>725.6</ele>
        <time>1970-01-01T01:26:35.000Z</time>
      </trkpt>
      <trkpt lat="40.28955" lon="-3.399213">
        <ele>725.8</ele>
        <time>1970-01-01T01:26:36.000Z</time>
      </trkpt>
      <trkpt lat="40.289534" lon="-3.39922">
        <ele>725.8</ele>
        <time>1970-01-01T01:26:37.000Z</time>
      </trkpt>
      <trkpt lat="40.289519" lon="-3.399228">
        <ele>726</ele>
        <time>1970-01-01T01:26:38.000Z</time>
      </trkpt>
      <trkpt lat="40.289505" lon="-3.399236">
        <ele>726</ele>
        <time>1970-01-01T01:26:39.000Z</time>
      </trkpt>
      <trkpt lat="40.289489" lon="-3.399245">
        <ele>726</ele>
        <time>1970-01-01T01:26:40.000Z</time>
      </trkpt>
      <trkpt lat="40.289471" lon="-3.399254">
        <ele>726.2</ele>
        <time>1970-01-01T01:26:41.000Z</time>
      </trkpt>
      <trkpt lat="40.289453" lon="-3.399263">
        <ele>726.2</ele>
        <time>1970-01-01T01:26:42.000Z</time>
      </trkpt>
      <trkpt lat="40.289436" lon="-3.399275">
        <ele>726.4</ele>
        <time>1970-01-01T01:26:43.000Z</time>
      </trkpt>
      <trkpt lat="40.289421" lon="-3.399288">
        <ele>726.4</ele>
        <time>1970-01-01T01:26:44.000Z</time>
      </trkpt>
      <trkpt lat="40.289407" lon="-3.3993">
        <ele>726.4</ele>
        <time>1970-01-01T01:26:45.000Z</time>
      </trkpt>
      <trkpt lat="40.289393" lon="-3.399312">
        <ele>726.8</ele>
        <time>1970-01-01T01:26:46.000Z</time>
      </trkpt>
      <trkpt lat="40.289379" lon="-3.39933">
        <ele>726.8</ele>
        <time>1970-01-01T01:26:47.000Z</time>
      </trkpt>
      <trkpt lat="40.289364" lon="-3.39935">
        <ele>727</ele>
        <time>1970-01-01T01:26:48.000Z</time>
      </trkpt>
      <trkpt lat="40.289348" lon="-3.399369">
        <ele>727.2</ele>
        <time>1970-01-01T01:26:49.000Z</time>
      </trkpt>
      <trkpt lat="40.289332" lon="-3.399388">
        <ele>727.4</ele>
        <time>1970-01-01T01:26:50.000Z</time>
      </trkpt>
      <trkpt lat="40.28932" lon="-3.399405">
        <ele>727.4</ele>
        <time>1970-01-01T01:26:51.000Z</time>
      </trkpt>
      <trkpt lat="40.289306" lon="-3.399423">
        <ele>727.6</ele>
        <time>1970-01-01T01:26:52.000Z</time>
      </trkpt>
      <trkpt lat="40.289291" lon="-3.39944">
        <ele>727.6</ele>
        <time>1970-01-01T01:26:53.000Z</time>
      </trkpt>
      <trkpt lat="40.289277" lon="-3.399461">
        <ele>727.8</ele>
        <time>1970-01-01T01:26:54.000Z</time>
      </trkpt>
      <trkpt lat="40.28926" lon="-3.399484">
        <ele>728</ele>
        <time>1970-01-01T01:26:55.000Z</time>
      </trkpt>
      <trkpt lat="40.289242" lon="-3.399505">
        <ele>728</ele>
        <time>1970-01-01T01:26:56.000Z</time>
      </trkpt>
      <trkpt lat="40.289221" lon="-3.399521">
        <ele>728.2</ele>
        <time>1970-01-01T01:26:57.000Z</time>
      </trkpt>
      <trkpt lat="40.289199" lon="-3.399535">
        <ele>728.2</ele>
        <time>1970-01-01T01:26:58.000Z</time>
      </trkpt>
      <trkpt lat="40.289178" lon="-3.399548">
        <ele>728.4</ele>
        <time>1970-01-01T01:26:59.000Z</time>
      </trkpt>
      <trkpt lat="40.289157" lon="-3.39956">
        <ele>728.4</ele>
        <time>1970-01-01T01:27:00.000Z</time>
      </trkpt>
      <trkpt lat="40.289136" lon="-3.39957">
        <ele>728.6</ele>
        <time>1970-01-01T01:27:01.000Z</time>
      </trkpt>
      <trkpt lat="40.289114" lon="-3.399576">
        <ele>728.6</ele>
        <time>1970-01-01T01:27:02.000Z</time>
      </trkpt>
      <trkpt lat="40.289091" lon="-3.399578">
        <ele>728.8</ele>
        <time>1970-01-01T01:27:03.000Z</time>
      </trkpt>
      <trkpt lat="40.289069" lon="-3.399578">
        <ele>728.8</ele>
        <time>1970-01-01T01:27:04.000Z</time>
      </trkpt>
      <trkpt lat="40.289047" lon="-3.399582">
        <ele>729</ele>
        <time>1970-01-01T01:27:05.000Z</time>
      </trkpt>
      <trkpt lat="40.289027" lon="-3.399586">
        <ele>729.2</ele>
        <time>1970-01-01T01:27:06.000Z</time>
      </trkpt>
      <trkpt lat="40.289005" lon="-3.399587">
        <ele>729.6</ele>
        <time>1970-01-01T01:27:07.000Z</time>
      </trkpt>
      <trkpt lat="40.288983" lon="-3.399588">
        <ele>729.8</ele>
        <time>1970-01-01T01:27:08.000Z</time>
      </trkpt>
      <trkpt lat="40.288961" lon="-3.399591">
        <ele>730</ele>
        <time>1970-01-01T01:27:09.000Z</time>
      </trkpt>
      <trkpt lat="40.288942" lon="-3.399596">
        <ele>730.2</ele>
        <time>1970-01-01T01:27:10.000Z</time>
      </trkpt>
      <trkpt lat="40.288922" lon="-3.399602">
        <ele>730.4</ele>
        <time>1970-01-01T01:27:11.000Z</time>
      </trkpt>
      <trkpt lat="40.2889" lon="-3.399605">
        <ele>730.6</ele>
        <time>1970-01-01T01:27:12.000Z</time>
      </trkpt>
      <trkpt lat="40.288878" lon="-3.399608">
        <ele>730.8</ele>
        <time>1970-01-01T01:27:13.000Z</time>
      </trkpt>
      <trkpt lat="40.288856" lon="-3.399613">
        <ele>731</ele>
        <time>1970-01-01T01:27:14.000Z</time>
      </trkpt>
      <trkpt lat="40.288836" lon="-3.399618">
        <ele>731.2</ele>
        <time>1970-01-01T01:27:15.000Z</time>
      </trkpt>
      <trkpt lat="40.288814" lon="-3.399625">
        <ele>731.4</ele>
        <time>1970-01-01T01:27:16.000Z</time>
      </trkpt>
      <trkpt lat="40.288795" lon="-3.399633">
        <ele>731.6</ele>
        <time>1970-01-01T01:27:17.000Z</time>
      </trkpt>
      <trkpt lat="40.288775" lon="-3.399644">
        <ele>731.6</ele>
        <time>1970-01-01T01:27:18.000Z</time>
      </trkpt>
      <trkpt lat="40.288756" lon="-3.39966">
        <ele>731.8</ele>
        <time>1970-01-01T01:27:19.000Z</time>
      </trkpt>
      <trkpt lat="40.288738" lon="-3.399676">
        <ele>731.8</ele>
        <time>1970-01-01T01:27:20.000Z</time>
      </trkpt>
      <trkpt lat="40.288719" lon="-3.399689">
        <ele>732</ele>
        <time>1970-01-01T01:27:21.000Z</time>
      </trkpt>
      <trkpt lat="40.288699" lon="-3.399703">
        <ele>732.2</ele>
        <time>1970-01-01T01:27:22.000Z</time>
      </trkpt>
      <trkpt lat="40.288681" lon="-3.399719">
        <ele>732.4</ele>
        <time>1970-01-01T01:27:23.000Z</time>
      </trkpt>
      <trkpt lat="40.288664" lon="-3.399736">
        <ele>732.6</ele>
        <time>1970-01-01T01:27:24.000Z</time>
      </trkpt>
      <trkpt lat="40.288648" lon="-3.399754">
        <ele>732.8</ele>
        <time>1970-01-01T01:27:25.000Z</time>
      </trkpt>
      <trkpt lat="40.288631" lon="-3.399772">
        <ele>733</ele>
        <time>1970-01-01T01:27:26.000Z</time>
      </trkpt>
      <trkpt lat="40.288616" lon="-3.399791">
        <ele>733</ele>
        <time>1970-01-01T01:27:27.000Z</time>
      </trkpt>
      <trkpt lat="40.288603" lon="-3.399811">
        <ele>733.2</ele>
        <time>1970-01-01T01:27:28.000Z</time>
      </trkpt>
      <trkpt lat="40.288589" lon="-3.39983">
        <ele>733.4</ele>
        <time>1970-01-01T01:27:29.000Z</time>
      </trkpt>
      <trkpt lat="40.288576" lon="-3.399849">
        <ele>733.6</ele>
        <time>1970-01-01T01:27:30.000Z</time>
      </trkpt>
      <trkpt lat="40.288564" lon="-3.399869">
        <ele>733.6</ele>
        <time>1970-01-01T01:27:31.000Z</time>
      </trkpt>
      <trkpt lat="40.288552" lon="-3.399891">
        <ele>733.8</ele>
        <time>1970-01-01T01:27:32.000Z</time>
      </trkpt>
      <trkpt lat="40.28854" lon="-3.399915">
        <ele>734</ele>
        <time>1970-01-01T01:27:33.000Z</time>
      </trkpt>
      <trkpt lat="40.288523" lon="-3.399936">
        <ele>734</ele>
        <time>1970-01-01T01:27:34.000Z</time>
      </trkpt>
      <trkpt lat="40.288512" lon="-3.399955">
        <ele>734.2</ele>
        <time>1970-01-01T01:27:35.000Z</time>
      </trkpt>
      <trkpt lat="40.288497" lon="-3.399987">
        <ele>734.4</ele>
        <time>1970-01-01T01:27:36.000Z</time>
      </trkpt>
      <trkpt lat="40.288487" lon="-3.400019">
        <ele>734.4</ele>
        <time>1970-01-01T01:27:37.000Z</time>
      </trkpt>
      <trkpt lat="40.288479" lon="-3.400051">
        <ele>734.6</ele>
        <time>1970-01-01T01:27:38.000Z</time>
      </trkpt>
      <trkpt lat="40.288471" lon="-3.400079">
        <ele>734.6</ele>
        <time>1970-01-01T01:27:39.000Z</time>
      </trkpt>
      <trkpt lat="40.288458" lon="-3.40011">
        <ele>734.8</ele>
        <time>1970-01-01T01:27:40.000Z</time>
      </trkpt>
      <trkpt lat="40.288445" lon="-3.400141">
        <ele>734.8</ele>
        <time>1970-01-01T01:27:41.000Z</time>
      </trkpt>
      <trkpt lat="40.288435" lon="-3.400172">
        <ele>734.8</ele>
        <time>1970-01-01T01:27:42.000Z</time>
      </trkpt>
      <trkpt lat="40.288427" lon="-3.400202">
        <ele>735</ele>
        <time>1970-01-01T01:27:43.000Z</time>
      </trkpt>
      <trkpt lat="40.288418" lon="-3.400231">
        <ele>735</ele>
        <time>1970-01-01T01:27:44.000Z</time>
      </trkpt>
      <trkpt lat="40.288407" lon="-3.400254">
        <ele>735.2</ele>
        <time>1970-01-01T01:27:45.000Z</time>
      </trkpt>
      <trkpt lat="40.288394" lon="-3.400275">
        <ele>735.2</ele>
        <time>1970-01-01T01:27:46.000Z</time>
      </trkpt>
      <trkpt lat="40.288374" lon="-3.400293">
        <ele>735.4</ele>
        <time>1970-01-01T01:27:47.000Z</time>
      </trkpt>
      <trkpt lat="40.288354" lon="-3.40031">
        <ele>735.4</ele>
        <time>1970-01-01T01:27:48.000Z</time>
      </trkpt>
      <trkpt lat="40.288334" lon="-3.400324">
        <ele>735.6</ele>
        <time>1970-01-01T01:27:49.000Z</time>
      </trkpt>
      <trkpt lat="40.288311" lon="-3.400334">
        <ele>735.6</ele>
        <time>1970-01-01T01:27:50.000Z</time>
      </trkpt>
      <trkpt lat="40.288288" lon="-3.400343">
        <ele>735.8</ele>
        <time>1970-01-01T01:27:51.000Z</time>
      </trkpt>
      <trkpt lat="40.288263" lon="-3.40035">
        <ele>735.8</ele>
        <time>1970-01-01T01:27:52.000Z</time>
      </trkpt>
      <trkpt lat="40.288239" lon="-3.400358">
        <ele>736</ele>
        <time>1970-01-01T01:27:53.000Z</time>
      </trkpt>
      <trkpt lat="40.288213" lon="-3.400366">
        <ele>736.4</ele>
        <time>1970-01-01T01:27:54.000Z</time>
      </trkpt>
      <trkpt lat="40.28819" lon="-3.400372">
        <ele>736.4</ele>
        <time>1970-01-01T01:27:55.000Z</time>
      </trkpt>
      <trkpt lat="40.288168" lon="-3.40038">
        <ele>736.6</ele>
        <time>1970-01-01T01:27:56.000Z</time>
      </trkpt>
      <trkpt lat="40.288144" lon="-3.400386">
        <ele>736.8</ele>
        <time>1970-01-01T01:27:57.000Z</time>
      </trkpt>
      <trkpt lat="40.288122" lon="-3.40039">
        <ele>737</ele>
        <time>1970-01-01T01:27:58.000Z</time>
      </trkpt>
      <trkpt lat="40.288099" lon="-3.400395">
        <ele>737.2</ele>
        <time>1970-01-01T01:27:59.000Z</time>
      </trkpt>
      <trkpt lat="40.288079" lon="-3.400399">
        <ele>737.6</ele>
        <time>1970-01-01T01:28:00.000Z</time>
      </trkpt>
      <trkpt lat="40.288059" lon="-3.400405">
        <ele>738</ele>
        <time>1970-01-01T01:28:01.000Z</time>
      </trkpt>
      <trkpt lat="40.288038" lon="-3.40041">
        <ele>738.2</ele>
        <time>1970-01-01T01:28:02.000Z</time>
      </trkpt>
      <trkpt lat="40.288017" lon="-3.400413">
        <ele>738.6</ele>
        <time>1970-01-01T01:28:03.000Z</time>
      </trkpt>
      <trkpt lat="40.287995" lon="-3.400419">
        <ele>738.6</ele>
        <time>1970-01-01T01:28:04.000Z</time>
      </trkpt>
      <trkpt lat="40.287975" lon="-3.400426">
        <ele>738.6</ele>
        <time>1970-01-01T01:28:05.000Z</time>
      </trkpt>
      <trkpt lat="40.287954" lon="-3.400434">
        <ele>738.8</ele>
        <time>1970-01-01T01:28:06.000Z</time>
      </trkpt>
      <trkpt lat="40.287936" lon="-3.400446">
        <ele>739.2</ele>
        <time>1970-01-01T01:28:07.000Z</time>
      </trkpt>
      <trkpt lat="40.287918" lon="-3.400462">
        <ele>739.4</ele>
        <time>1970-01-01T01:28:08.000Z</time>
      </trkpt>
      <trkpt lat="40.287902" lon="-3.400476">
        <ele>739.8</ele>
        <time>1970-01-01T01:28:09.000Z</time>
      </trkpt>
      <trkpt lat="40.287885" lon="-3.400489">
        <ele>740.2</ele>
        <time>1970-01-01T01:28:10.000Z</time>
      </trkpt>
      <trkpt lat="40.287869" lon="-3.400504">
        <ele>740.2</ele>
        <time>1970-01-01T01:28:11.000Z</time>
      </trkpt>
      <trkpt lat="40.287852" lon="-3.400518">
        <ele>740.6</ele>
        <time>1970-01-01T01:28:12.000Z</time>
      </trkpt>
      <trkpt lat="40.287834" lon="-3.400534">
        <ele>741</ele>
        <time>1970-01-01T01:28:13.000Z</time>
      </trkpt>
      <trkpt lat="40.287817" lon="-3.40055">
        <ele>741</ele>
        <time>1970-01-01T01:28:14.000Z</time>
      </trkpt>
      <trkpt lat="40.287799" lon="-3.400567">
        <ele>741.4</ele>
        <time>1970-01-01T01:28:15.000Z</time>
      </trkpt>
      <trkpt lat="40.287784" lon="-3.400582">
        <ele>741.6</ele>
        <time>1970-01-01T01:28:16.000Z</time>
      </trkpt>
      <trkpt lat="40.287768" lon="-3.400597">
        <ele>742.2</ele>
        <time>1970-01-01T01:28:17.000Z</time>
      </trkpt>
      <trkpt lat="40.28775" lon="-3.400612">
        <ele>742.4</ele>
        <time>1970-01-01T01:28:18.000Z</time>
      </trkpt>
      <trkpt lat="40.287732" lon="-3.400626">
        <ele>742.6</ele>
        <time>1970-01-01T01:28:19.000Z</time>
      </trkpt>
      <trkpt lat="40.287712" lon="-3.400638">
        <ele>742.8</ele>
        <time>1970-01-01T01:28:20.000Z</time>
      </trkpt>
      <trkpt lat="40.287693" lon="-3.400647">
        <ele>743</ele>
        <time>1970-01-01T01:28:21.000Z</time>
      </trkpt>
      <trkpt lat="40.287674" lon="-3.400656">
        <ele>743.2</ele>
        <time>1970-01-01T01:28:22.000Z</time>
      </trkpt>
      <trkpt lat="40.287653" lon="-3.400669">
        <ele>743.4</ele>
        <time>1970-01-01T01:28:23.000Z</time>
      </trkpt>
      <trkpt lat="40.287633" lon="-3.40068">
        <ele>743.8</ele>
        <time>1970-01-01T01:28:24.000Z</time>
      </trkpt>
      <trkpt lat="40.287616" lon="-3.40069">
        <ele>744</ele>
        <time>1970-01-01T01:28:25.000Z</time>
      </trkpt>
      <trkpt lat="40.2876" lon="-3.400704">
        <ele>744.2</ele>
        <time>1970-01-01T01:28:26.000Z</time>
      </trkpt>
      <trkpt lat="40.287581" lon="-3.40072">
        <ele>744.2</ele>
        <time>1970-01-01T01:28:27.000Z</time>
      </trkpt>
      <trkpt lat="40.287563" lon="-3.400735">
        <ele>744.4</ele>
        <time>1970-01-01T01:28:28.000Z</time>
      </trkpt>
      <trkpt lat="40.287542" lon="-3.40075">
        <ele>744.6</ele>
        <time>1970-01-01T01:28:29.000Z</time>
      </trkpt>
      <trkpt lat="40.287524" lon="-3.400763">
        <ele>744.6</ele>
        <time>1970-01-01T01:28:30.000Z</time>
      </trkpt>
      <trkpt lat="40.287505" lon="-3.400779">
        <ele>744.6</ele>
        <time>1970-01-01T01:28:31.000Z</time>
      </trkpt>
      <trkpt lat="40.287488" lon="-3.400795">
        <ele>744.8</ele>
        <time>1970-01-01T01:28:32.000Z</time>
      </trkpt>
      <trkpt lat="40.287471" lon="-3.40081">
        <ele>745</ele>
        <time>1970-01-01T01:28:33.000Z</time>
      </trkpt>
      <trkpt lat="40.287452" lon="-3.400825">
        <ele>745.2</ele>
        <time>1970-01-01T01:28:34.000Z</time>
      </trkpt>
      <trkpt lat="40.28743" lon="-3.400836">
        <ele>745.4</ele>
        <time>1970-01-01T01:28:35.000Z</time>
      </trkpt>
      <trkpt lat="40.287409" lon="-3.40084">
        <ele>745.8</ele>
        <time>1970-01-01T01:28:36.000Z</time>
      </trkpt>
      <trkpt lat="40.287385" lon="-3.400835">
        <ele>746</ele>
        <time>1970-01-01T01:28:37.000Z</time>
      </trkpt>
      <trkpt lat="40.287363" lon="-3.400825">
        <ele>746.4</ele>
        <time>1970-01-01T01:28:38.000Z</time>
      </trkpt>
      <trkpt lat="40.287341" lon="-3.400814">
        <ele>746.6</ele>
        <time>1970-01-01T01:28:39.000Z</time>
      </trkpt>
      <trkpt lat="40.287317" lon="-3.400802">
        <ele>747</ele>
        <time>1970-01-01T01:28:40.000Z</time>
      </trkpt>
      <trkpt lat="40.287294" lon="-3.400793">
        <ele>747.2</ele>
        <time>1970-01-01T01:28:41.000Z</time>
      </trkpt>
      <trkpt lat="40.287271" lon="-3.400782">
        <ele>747.2</ele>
        <time>1970-01-01T01:28:42.000Z</time>
      </trkpt>
      <trkpt lat="40.287246" lon="-3.400771">
        <ele>747.4</ele>
        <time>1970-01-01T01:28:43.000Z</time>
      </trkpt>
      <trkpt lat="40.287222" lon="-3.400762">
        <ele>747.4</ele>
        <time>1970-01-01T01:28:44.000Z</time>
      </trkpt>
      <trkpt lat="40.2872" lon="-3.400753">
        <ele>747.4</ele>
        <time>1970-01-01T01:28:45.000Z</time>
      </trkpt>
      <trkpt lat="40.287177" lon="-3.400743">
        <ele>747.6</ele>
        <time>1970-01-01T01:28:46.000Z</time>
      </trkpt>
      <trkpt lat="40.287154" lon="-3.400734">
        <ele>747.6</ele>
        <time>1970-01-01T01:28:47.000Z</time>
      </trkpt>
      <trkpt lat="40.287131" lon="-3.400725">
        <ele>747.8</ele>
        <time>1970-01-01T01:28:48.000Z</time>
      </trkpt>
      <trkpt lat="40.287108" lon="-3.400717">
        <ele>748</ele>
        <time>1970-01-01T01:28:49.000Z</time>
      </trkpt>
      <trkpt lat="40.287084" lon="-3.400708">
        <ele>748</ele>
        <time>1970-01-01T01:28:50.000Z</time>
      </trkpt>
      <trkpt lat="40.28706" lon="-3.4007">
        <ele>748.2</ele>
        <time>1970-01-01T01:28:51.000Z</time>
      </trkpt>
      <trkpt lat="40.287035" lon="-3.400693">
        <ele>748.4</ele>
        <time>1970-01-01T01:28:52.000Z</time>
      </trkpt>
      <trkpt lat="40.28701" lon="-3.400685">
        <ele>748.6</ele>
        <time>1970-01-01T01:28:53.000Z</time>
      </trkpt>
      <trkpt lat="40.286985" lon="-3.400679">
        <ele>748.8</ele>
        <time>1970-01-01T01:28:54.000Z</time>
      </trkpt>
      <trkpt lat="40.286961" lon="-3.400671">
        <ele>749</ele>
        <time>1970-01-01T01:28:55.000Z</time>
      </trkpt>
      <trkpt lat="40.286942" lon="-3.400662">
        <ele>749.2</ele>
        <time>1970-01-01T01:28:56.000Z</time>
      </trkpt>
      <trkpt lat="40.286923" lon="-3.400656">
        <ele>749.4</ele>
        <time>1970-01-01T01:28:57.000Z</time>
      </trkpt>
      <trkpt lat="40.286906" lon="-3.400653">
        <ele>749.8</ele>
        <time>1970-01-01T01:28:58.000Z</time>
      </trkpt>
      <trkpt lat="40.286893" lon="-3.400648">
        <ele>750.4</ele>
        <time>1970-01-01T01:28:59.000Z</time>
      </trkpt>
      <trkpt lat="40.286878" lon="-3.400648">
        <ele>750.6</ele>
        <time>1970-01-01T01:29:00.000Z</time>
      </trkpt>
      <trkpt lat="40.286863" lon="-3.400649">
        <ele>750.8</ele>
        <time>1970-01-01T01:29:01.000Z</time>
      </trkpt>
      <trkpt lat="40.286845" lon="-3.400644">
        <ele>750.8</ele>
        <time>1970-01-01T01:29:02.000Z</time>
      </trkpt>
      <trkpt lat="40.286828" lon="-3.400633">
        <ele>750.8</ele>
        <time>1970-01-01T01:29:03.000Z</time>
      </trkpt>
      <trkpt lat="40.286807" lon="-3.400624">
        <ele>751.2</ele>
        <time>1970-01-01T01:29:04.000Z</time>
      </trkpt>
      <trkpt lat="40.286783" lon="-3.400617">
        <ele>751.2</ele>
        <time>1970-01-01T01:29:05.000Z</time>
      </trkpt>
      <trkpt lat="40.286761" lon="-3.400609">
        <ele>751.2</ele>
        <time>1970-01-01T01:29:06.000Z</time>
      </trkpt>
      <trkpt lat="40.286735" lon="-3.400606">
        <ele>751.6</ele>
        <time>1970-01-01T01:29:07.000Z</time>
      </trkpt>
      <trkpt lat="40.286707" lon="-3.400602">
        <ele>751.8</ele>
        <time>1970-01-01T01:29:08.000Z</time>
      </trkpt>
      <trkpt lat="40.286679" lon="-3.400596">
        <ele>751.8</ele>
        <time>1970-01-01T01:29:09.000Z</time>
      </trkpt>
      <trkpt lat="40.286649" lon="-3.400588">
        <ele>751.8</ele>
        <time>1970-01-01T01:29:10.000Z</time>
      </trkpt>
      <trkpt lat="40.28662" lon="-3.400582">
        <ele>752</ele>
        <time>1970-01-01T01:29:11.000Z</time>
      </trkpt>
      <trkpt lat="40.286593" lon="-3.400577">
        <ele>752.2</ele>
        <time>1970-01-01T01:29:12.000Z</time>
      </trkpt>
      <trkpt lat="40.286564" lon="-3.400568">
        <ele>752.2</ele>
        <time>1970-01-01T01:29:13.000Z</time>
      </trkpt>
      <trkpt lat="40.286534" lon="-3.400559">
        <ele>752.4</ele>
        <time>1970-01-01T01:29:14.000Z</time>
      </trkpt>
      <trkpt lat="40.286503" lon="-3.400554">
        <ele>752.4</ele>
        <time>1970-01-01T01:29:15.000Z</time>
      </trkpt>
      <trkpt lat="40.286469" lon="-3.400551">
        <ele>752.4</ele>
        <time>1970-01-01T01:29:16.000Z</time>
      </trkpt>
      <trkpt lat="40.286437" lon="-3.400549">
        <ele>752.4</ele>
        <time>1970-01-01T01:29:17.000Z</time>
      </trkpt>
      <trkpt lat="40.286401" lon="-3.400544">
        <ele>752.6</ele>
        <time>1970-01-01T01:29:18.000Z</time>
      </trkpt>
      <trkpt lat="40.286366" lon="-3.400537">
        <ele>752.8</ele>
        <time>1970-01-01T01:29:19.000Z</time>
      </trkpt>
      <trkpt lat="40.286331" lon="-3.400523">
        <ele>753</ele>
        <time>1970-01-01T01:29:20.000Z</time>
      </trkpt>
      <trkpt lat="40.286295" lon="-3.40051">
        <ele>753</ele>
        <time>1970-01-01T01:29:21.000Z</time>
      </trkpt>
      <trkpt lat="40.286255" lon="-3.400502">
        <ele>753</ele>
        <time>1970-01-01T01:29:22.000Z</time>
      </trkpt>
      <trkpt lat="40.286215" lon="-3.400497">
        <ele>753</ele>
        <time>1970-01-01T01:29:23.000Z</time>
      </trkpt>
      <trkpt lat="40.286176" lon="-3.400489">
        <ele>753</ele>
        <time>1970-01-01T01:29:24.000Z</time>
      </trkpt>
      <trkpt lat="40.286136" lon="-3.400482">
        <ele>753</ele>
        <time>1970-01-01T01:29:25.000Z</time>
      </trkpt>
      <trkpt lat="40.286094" lon="-3.400477">
        <ele>753</ele>
        <time>1970-01-01T01:29:26.000Z</time>
      </trkpt>
      <trkpt lat="40.286051" lon="-3.400471">
        <ele>753</ele>
        <time>1970-01-01T01:29:27.000Z</time>
      </trkpt>
      <trkpt lat="40.286006" lon="-3.400465">
        <ele>753</ele>
        <time>1970-01-01T01:29:28.000Z</time>
      </trkpt>
      <trkpt lat="40.28596" lon="-3.400459">
        <ele>753</ele>
        <time>1970-01-01T01:29:29.000Z</time>
      </trkpt>
      <trkpt lat="40.285914" lon="-3.400451">
        <ele>753</ele>
        <time>1970-01-01T01:29:30.000Z</time>
      </trkpt>
      <trkpt lat="40.285865" lon="-3.400441">
        <ele>753</ele>
        <time>1970-01-01T01:29:31.000Z</time>
      </trkpt>
      <trkpt lat="40.285816" lon="-3.400432">
        <ele>753</ele>
        <time>1970-01-01T01:29:32.000Z</time>
      </trkpt>
      <trkpt lat="40.285766" lon="-3.400425">
        <ele>753</ele>
        <time>1970-01-01T01:29:33.000Z</time>
      </trkpt>
      <trkpt lat="40.285715" lon="-3.400418">
        <ele>753</ele>
        <time>1970-01-01T01:29:34.000Z</time>
      </trkpt>
      <trkpt lat="40.285664" lon="-3.400412">
        <ele>753</ele>
        <time>1970-01-01T01:29:35.000Z</time>
      </trkpt>
      <trkpt lat="40.285611" lon="-3.400403">
        <ele>753.2</ele>
        <time>1970-01-01T01:29:36.000Z</time>
      </trkpt>
      <trkpt lat="40.285559" lon="-3.400396">
        <ele>753.2</ele>
        <time>1970-01-01T01:29:37.000Z</time>
      </trkpt>
      <trkpt lat="40.285507" lon="-3.400386">
        <ele>753.2</ele>
        <time>1970-01-01T01:29:38.000Z</time>
      </trkpt>
      <trkpt lat="40.285453" lon="-3.400373">
        <ele>753.2</ele>
        <time>1970-01-01T01:29:39.000Z</time>
      </trkpt>
      <trkpt lat="40.285399" lon="-3.400362">
        <ele>753.2</ele>
        <time>1970-01-01T01:29:40.000Z</time>
      </trkpt>
      <trkpt lat="40.285346" lon="-3.400351">
        <ele>753.2</ele>
        <time>1970-01-01T01:29:41.000Z</time>
      </trkpt>
      <trkpt lat="40.285291" lon="-3.400341">
        <ele>753.2</ele>
        <time>1970-01-01T01:29:42.000Z</time>
      </trkpt>
      <trkpt lat="40.285235" lon="-3.400326">
        <ele>753.2</ele>
        <time>1970-01-01T01:29:43.000Z</time>
      </trkpt>
      <trkpt lat="40.28518" lon="-3.40031">
        <ele>753.4</ele>
        <time>1970-01-01T01:29:44.000Z</time>
      </trkpt>
      <trkpt lat="40.285125" lon="-3.400293">
        <ele>753.4</ele>
        <time>1970-01-01T01:29:45.000Z</time>
      </trkpt>
      <trkpt lat="40.285071" lon="-3.400273">
        <ele>753.4</ele>
        <time>1970-01-01T01:29:46.000Z</time>
      </trkpt>
      <trkpt lat="40.285018" lon="-3.400251">
        <ele>753.4</ele>
        <time>1970-01-01T01:29:47.000Z</time>
      </trkpt>
      <trkpt lat="40.284965" lon="-3.400224">
        <ele>753.4</ele>
        <time>1970-01-01T01:29:48.000Z</time>
      </trkpt>
      <trkpt lat="40.284916" lon="-3.400193">
        <ele>753.4</ele>
        <time>1970-01-01T01:29:49.000Z</time>
      </trkpt>
      <trkpt lat="40.284868" lon="-3.400161">
        <ele>753.4</ele>
        <time>1970-01-01T01:29:50.000Z</time>
      </trkpt>
      <trkpt lat="40.284823" lon="-3.400127">
        <ele>753.4</ele>
        <time>1970-01-01T01:29:51.000Z</time>
      </trkpt>
      <trkpt lat="40.28478" lon="-3.400095">
        <ele>753.4</ele>
        <time>1970-01-01T01:29:52.000Z</time>
      </trkpt>
      <trkpt lat="40.284739" lon="-3.400063">
        <ele>753.4</ele>
        <time>1970-01-01T01:29:53.000Z</time>
      </trkpt>
      <trkpt lat="40.28471" lon="-3.400036">
        <ele>753.4</ele>
        <time>1970-01-01T01:29:54.000Z</time>
      </trkpt>
      <trkpt lat="40.284665" lon="-3.400003">
        <ele>753.4</ele>
        <time>1970-01-01T01:29:55.000Z</time>
      </trkpt>
      <trkpt lat="40.284629" lon="-3.399982">
        <ele>753.4</ele>
        <time>1970-01-01T01:29:56.000Z</time>
      </trkpt>
      <trkpt lat="40.284594" lon="-3.399966">
        <ele>753.4</ele>
        <time>1970-01-01T01:29:57.000Z</time>
      </trkpt>
      <trkpt lat="40.28456" lon="-3.399959">
        <ele>753.6</ele>
        <time>1970-01-01T01:29:58.000Z</time>
      </trkpt>
      <trkpt lat="40.284531" lon="-3.399969">
        <ele>753.6</ele>
        <time>1970-01-01T01:29:59.000Z</time>
      </trkpt>
      <trkpt lat="40.284512" lon="-3.399993">
        <ele>753.6</ele>
        <time>1970-01-01T01:30:00.000Z</time>
      </trkpt>
      <trkpt lat="40.284504" lon="-3.400026">
        <ele>753.8</ele>
        <time>1970-01-01T01:30:01.000Z</time>
      </trkpt>
      <trkpt lat="40.284506" lon="-3.400064">
        <ele>753.8</ele>
        <time>1970-01-01T01:30:02.000Z</time>
      </trkpt>
      <trkpt lat="40.284508" lon="-3.400104">
        <ele>754</ele>
        <time>1970-01-01T01:30:03.000Z</time>
      </trkpt>
      <trkpt lat="40.28451" lon="-3.400147">
        <ele>754</ele>
        <time>1970-01-01T01:30:04.000Z</time>
      </trkpt>
      <trkpt lat="40.284512" lon="-3.400192">
        <ele>754.2</ele>
        <time>1970-01-01T01:30:05.000Z</time>
      </trkpt>
      <trkpt lat="40.284516" lon="-3.400237">
        <ele>754.2</ele>
        <time>1970-01-01T01:30:06.000Z</time>
      </trkpt>
      <trkpt lat="40.284522" lon="-3.400283">
        <ele>754.2</ele>
        <time>1970-01-01T01:30:07.000Z</time>
      </trkpt>
      <trkpt lat="40.284525" lon="-3.400333">
        <ele>754.2</ele>
        <time>1970-01-01T01:30:08.000Z</time>
      </trkpt>
      <trkpt lat="40.284529" lon="-3.400381">
        <ele>754.2</ele>
        <time>1970-01-01T01:30:09.000Z</time>
      </trkpt>
      <trkpt lat="40.284534" lon="-3.400431">
        <ele>754.4</ele>
        <time>1970-01-01T01:30:10.000Z</time>
      </trkpt>
      <trkpt lat="40.284536" lon="-3.400481">
        <ele>754.6</ele>
        <time>1970-01-01T01:30:11.000Z</time>
      </trkpt>
      <trkpt lat="40.284537" lon="-3.400533">
        <ele>754.6</ele>
        <time>1970-01-01T01:30:12.000Z</time>
      </trkpt>
      <trkpt lat="40.284541" lon="-3.400573">
        <ele>754.8</ele>
        <time>1970-01-01T01:30:13.000Z</time>
      </trkpt>
      <trkpt lat="40.284548" lon="-3.400633">
        <ele>755</ele>
        <time>1970-01-01T01:30:14.000Z</time>
      </trkpt>
      <trkpt lat="40.284553" lon="-3.400687">
        <ele>755.2</ele>
        <time>1970-01-01T01:30:15.000Z</time>
      </trkpt>
      <trkpt lat="40.284559" lon="-3.400741">
        <ele>755.4</ele>
        <time>1970-01-01T01:30:16.000Z</time>
      </trkpt>
      <trkpt lat="40.284568" lon="-3.400796">
        <ele>755.6</ele>
        <time>1970-01-01T01:30:17.000Z</time>
      </trkpt>
      <trkpt lat="40.284575" lon="-3.40085">
        <ele>755.8</ele>
        <time>1970-01-01T01:30:18.000Z</time>
      </trkpt>
      <trkpt lat="40.284583" lon="-3.400903">
        <ele>756.2</ele>
        <time>1970-01-01T01:30:19.000Z</time>
      </trkpt>
      <trkpt lat="40.284593" lon="-3.400957">
        <ele>756.2</ele>
        <time>1970-01-01T01:30:20.000Z</time>
      </trkpt>
      <trkpt lat="40.284604" lon="-3.401009">
        <ele>756.4</ele>
        <time>1970-01-01T01:30:21.000Z</time>
      </trkpt>
      <trkpt lat="40.284615" lon="-3.401058">
        <ele>756.4</ele>
        <time>1970-01-01T01:30:22.000Z</time>
      </trkpt>
      <trkpt lat="40.284628" lon="-3.401108">
        <ele>756.8</ele>
        <time>1970-01-01T01:30:23.000Z</time>
      </trkpt>
      <trkpt lat="40.28464" lon="-3.40116">
        <ele>756.8</ele>
        <time>1970-01-01T01:30:24.000Z</time>
      </trkpt>
      <trkpt lat="40.284652" lon="-3.401211">
        <ele>756.8</ele>
        <time>1970-01-01T01:30:25.000Z</time>
      </trkpt>
      <trkpt lat="40.284664" lon="-3.401261">
        <ele>757</ele>
        <time>1970-01-01T01:30:26.000Z</time>
      </trkpt>
      <trkpt lat="40.28468" lon="-3.40131">
        <ele>757</ele>
        <time>1970-01-01T01:30:27.000Z</time>
      </trkpt>
      <trkpt lat="40.284695" lon="-3.40136">
        <ele>757.2</ele>
        <time>1970-01-01T01:30:28.000Z</time>
      </trkpt>
      <trkpt lat="40.284712" lon="-3.401416">
        <ele>757.2</ele>
        <time>1970-01-01T01:30:29.000Z</time>
      </trkpt>
      <trkpt lat="40.284731" lon="-3.401473">
        <ele>757.2</ele>
        <time>1970-01-01T01:30:30.000Z</time>
      </trkpt>
      <trkpt lat="40.284751" lon="-3.401531">
        <ele>757.2</ele>
        <time>1970-01-01T01:30:31.000Z</time>
      </trkpt>
      <trkpt lat="40.284771" lon="-3.401591">
        <ele>757.2</ele>
        <time>1970-01-01T01:30:32.000Z</time>
      </trkpt>
      <trkpt lat="40.284792" lon="-3.40165">
        <ele>757</ele>
        <time>1970-01-01T01:30:33.000Z</time>
      </trkpt>
      <trkpt lat="40.284815" lon="-3.401707">
        <ele>757</ele>
        <time>1970-01-01T01:30:34.000Z</time>
      </trkpt>
      <trkpt lat="40.284839" lon="-3.401765">
        <ele>757</ele>
        <time>1970-01-01T01:30:35.000Z</time>
      </trkpt>
      <trkpt lat="40.284864" lon="-3.401823">
        <ele>756.8</ele>
        <time>1970-01-01T01:30:36.000Z</time>
      </trkpt>
      <trkpt lat="40.284886" lon="-3.401881">
        <ele>756.8</ele>
        <time>1970-01-01T01:30:37.000Z</time>
      </trkpt>
      <trkpt lat="40.284911" lon="-3.401939">
        <ele>756.8</ele>
        <time>1970-01-01T01:30:38.000Z</time>
      </trkpt>
      <trkpt lat="40.284936" lon="-3.401994">
        <ele>756.8</ele>
        <time>1970-01-01T01:30:39.000Z</time>
      </trkpt>
      <trkpt lat="40.284959" lon="-3.402041">
        <ele>756.6</ele>
        <time>1970-01-01T01:30:40.000Z</time>
      </trkpt>
      <trkpt lat="40.284981" lon="-3.402085">
        <ele>756.2</ele>
        <time>1970-01-01T01:30:41.000Z</time>
      </trkpt>
      <trkpt lat="40.285006" lon="-3.402128">
        <ele>756.2</ele>
        <time>1970-01-01T01:30:42.000Z</time>
      </trkpt>
      <trkpt lat="40.285031" lon="-3.402174">
        <ele>755.8</ele>
        <time>1970-01-01T01:30:43.000Z</time>
      </trkpt>
      <trkpt lat="40.285056" lon="-3.402222">
        <ele>755.8</ele>
        <time>1970-01-01T01:30:44.000Z</time>
      </trkpt>
      <trkpt lat="40.28508" lon="-3.402271">
        <ele>755.6</ele>
        <time>1970-01-01T01:30:45.000Z</time>
      </trkpt>
      <trkpt lat="40.285097" lon="-3.402325">
        <ele>755.4</ele>
        <time>1970-01-01T01:30:46.000Z</time>
      </trkpt>
      <trkpt lat="40.285098" lon="-3.402378">
        <ele>755.2</ele>
        <time>1970-01-01T01:30:47.000Z</time>
      </trkpt>
      <trkpt lat="40.285082" lon="-3.402424">
        <ele>755</ele>
        <time>1970-01-01T01:30:48.000Z</time>
      </trkpt>
      <trkpt lat="40.285055" lon="-3.40246">
        <ele>755</ele>
        <time>1970-01-01T01:30:49.000Z</time>
      </trkpt>
      <trkpt lat="40.285017" lon="-3.402491">
        <ele>754.8</ele>
        <time>1970-01-01T01:30:50.000Z</time>
      </trkpt>
      <trkpt lat="40.284971" lon="-3.40252">
        <ele>754.8</ele>
        <time>1970-01-01T01:30:51.000Z</time>
      </trkpt>
      <trkpt lat="40.284917" lon="-3.402548">
        <ele>754.6</ele>
        <time>1970-01-01T01:30:52.000Z</time>
      </trkpt>
      <trkpt lat="40.284856" lon="-3.402571">
        <ele>754.6</ele>
        <time>1970-01-01T01:30:53.000Z</time>
      </trkpt>
      <trkpt lat="40.28479" lon="-3.402589">
        <ele>754.2</ele>
        <time>1970-01-01T01:30:54.000Z</time>
      </trkpt>
      <trkpt lat="40.284724" lon="-3.402598">
        <ele>753.8</ele>
        <time>1970-01-01T01:30:55.000Z</time>
      </trkpt>
      <trkpt lat="40.284655" lon="-3.402603">
        <ele>753.6</ele>
        <time>1970-01-01T01:30:56.000Z</time>
      </trkpt>
      <trkpt lat="40.28459" lon="-3.402601">
        <ele>753.4</ele>
        <time>1970-01-01T01:30:57.000Z</time>
      </trkpt>
      <trkpt lat="40.284526" lon="-3.402606">
        <ele>753.2</ele>
        <time>1970-01-01T01:30:58.000Z</time>
      </trkpt>
      <trkpt lat="40.284464" lon="-3.402616">
        <ele>753</ele>
        <time>1970-01-01T01:30:59.000Z</time>
      </trkpt>
      <trkpt lat="40.284403" lon="-3.402633">
        <ele>753</ele>
        <time>1970-01-01T01:31:00.000Z</time>
      </trkpt>
      <trkpt lat="40.284345" lon="-3.402652">
        <ele>752.8</ele>
        <time>1970-01-01T01:31:01.000Z</time>
      </trkpt>
      <trkpt lat="40.284288" lon="-3.402672">
        <ele>752.4</ele>
        <time>1970-01-01T01:31:02.000Z</time>
      </trkpt>
      <trkpt lat="40.284228" lon="-3.402689">
        <ele>752.2</ele>
        <time>1970-01-01T01:31:03.000Z</time>
      </trkpt>
      <trkpt lat="40.284167" lon="-3.402706">
        <ele>751.8</ele>
        <time>1970-01-01T01:31:04.000Z</time>
      </trkpt>
      <trkpt lat="40.284106" lon="-3.402724">
        <ele>751.6</ele>
        <time>1970-01-01T01:31:05.000Z</time>
      </trkpt>
      <trkpt lat="40.284044" lon="-3.402741">
        <ele>751.6</ele>
        <time>1970-01-01T01:31:06.000Z</time>
      </trkpt>
      <trkpt lat="40.283981" lon="-3.402757">
        <ele>751.6</ele>
        <time>1970-01-01T01:31:07.000Z</time>
      </trkpt>
      <trkpt lat="40.283919" lon="-3.402775">
        <ele>751.6</ele>
        <time>1970-01-01T01:31:08.000Z</time>
      </trkpt>
      <trkpt lat="40.28386" lon="-3.402795">
        <ele>751.6</ele>
        <time>1970-01-01T01:31:09.000Z</time>
      </trkpt>
      <trkpt lat="40.2838" lon="-3.402814">
        <ele>751.6</ele>
        <time>1970-01-01T01:31:10.000Z</time>
      </trkpt>
      <trkpt lat="40.283741" lon="-3.402833">
        <ele>751.6</ele>
        <time>1970-01-01T01:31:11.000Z</time>
      </trkpt>
      <trkpt lat="40.283682" lon="-3.402851">
        <ele>751.6</ele>
        <time>1970-01-01T01:31:12.000Z</time>
      </trkpt>
      <trkpt lat="40.283623" lon="-3.402869">
        <ele>751.8</ele>
        <time>1970-01-01T01:31:13.000Z</time>
      </trkpt>
      <trkpt lat="40.283566" lon="-3.402887">
        <ele>752</ele>
        <time>1970-01-01T01:31:14.000Z</time>
      </trkpt>
      <trkpt lat="40.283509" lon="-3.402911">
        <ele>752</ele>
        <time>1970-01-01T01:31:15.000Z</time>
      </trkpt>
      <trkpt lat="40.283452" lon="-3.402933">
        <ele>752</ele>
        <time>1970-01-01T01:31:16.000Z</time>
      </trkpt>
      <trkpt lat="40.283397" lon="-3.40296">
        <ele>752</ele>
        <time>1970-01-01T01:31:17.000Z</time>
      </trkpt>
      <trkpt lat="40.283346" lon="-3.402992">
        <ele>752.2</ele>
        <time>1970-01-01T01:31:18.000Z</time>
      </trkpt>
      <trkpt lat="40.283298" lon="-3.403025">
        <ele>752.2</ele>
        <time>1970-01-01T01:31:19.000Z</time>
      </trkpt>
      <trkpt lat="40.283251" lon="-3.403056">
        <ele>752.2</ele>
        <time>1970-01-01T01:31:20.000Z</time>
      </trkpt>
      <trkpt lat="40.283208" lon="-3.403081">
        <ele>752.2</ele>
        <time>1970-01-01T01:31:21.000Z</time>
      </trkpt>
      <trkpt lat="40.283167" lon="-3.403104">
        <ele>752.2</ele>
        <time>1970-01-01T01:31:22.000Z</time>
      </trkpt>
      <trkpt lat="40.283125" lon="-3.403125">
        <ele>752.4</ele>
        <time>1970-01-01T01:31:23.000Z</time>
      </trkpt>
      <trkpt lat="40.283079" lon="-3.403145">
        <ele>752.4</ele>
        <time>1970-01-01T01:31:24.000Z</time>
      </trkpt>
      <trkpt lat="40.283032" lon="-3.403161">
        <ele>752.6</ele>
        <time>1970-01-01T01:31:25.000Z</time>
      </trkpt>
      <trkpt lat="40.282983" lon="-3.403178">
        <ele>752.6</ele>
        <time>1970-01-01T01:31:26.000Z</time>
      </trkpt>
      <trkpt lat="40.282935" lon="-3.403195">
        <ele>752.6</ele>
        <time>1970-01-01T01:31:27.000Z</time>
      </trkpt>
      <trkpt lat="40.282884" lon="-3.403211">
        <ele>752.6</ele>
        <time>1970-01-01T01:31:28.000Z</time>
      </trkpt>
      <trkpt lat="40.282834" lon="-3.403228">
        <ele>752.6</ele>
        <time>1970-01-01T01:31:29.000Z</time>
      </trkpt>
      <trkpt lat="40.282783" lon="-3.403244">
        <ele>752.6</ele>
        <time>1970-01-01T01:31:30.000Z</time>
      </trkpt>
      <trkpt lat="40.282733" lon="-3.40326">
        <ele>752.8</ele>
        <time>1970-01-01T01:31:31.000Z</time>
      </trkpt>
      <trkpt lat="40.282682" lon="-3.403279">
        <ele>752.8</ele>
        <time>1970-01-01T01:31:32.000Z</time>
      </trkpt>
      <trkpt lat="40.282635" lon="-3.403301">
        <ele>752.8</ele>
        <time>1970-01-01T01:31:33.000Z</time>
      </trkpt>
      <trkpt lat="40.282588" lon="-3.403325">
        <ele>752.8</ele>
        <time>1970-01-01T01:31:34.000Z</time>
      </trkpt>
      <trkpt lat="40.282541" lon="-3.403354">
        <ele>752.8</ele>
        <time>1970-01-01T01:31:35.000Z</time>
      </trkpt>
      <trkpt lat="40.282497" lon="-3.403387">
        <ele>752.8</ele>
        <time>1970-01-01T01:31:36.000Z</time>
      </trkpt>
      <trkpt lat="40.282453" lon="-3.403422">
        <ele>752.8</ele>
        <time>1970-01-01T01:31:37.000Z</time>
      </trkpt>
      <trkpt lat="40.282408" lon="-3.403458">
        <ele>753</ele>
        <time>1970-01-01T01:31:38.000Z</time>
      </trkpt>
      <trkpt lat="40.282363" lon="-3.403491">
        <ele>753</ele>
        <time>1970-01-01T01:31:39.000Z</time>
      </trkpt>
      <trkpt lat="40.282317" lon="-3.403525">
        <ele>753</ele>
        <time>1970-01-01T01:31:40.000Z</time>
      </trkpt>
      <trkpt lat="40.282274" lon="-3.403557">
        <ele>753.2</ele>
        <time>1970-01-01T01:31:41.000Z</time>
      </trkpt>
      <trkpt lat="40.282232" lon="-3.403589">
        <ele>753</ele>
        <time>1970-01-01T01:31:42.000Z</time>
      </trkpt>
      <trkpt lat="40.282191" lon="-3.40362">
        <ele>753</ele>
        <time>1970-01-01T01:31:43.000Z</time>
      </trkpt>
      <trkpt lat="40.28215" lon="-3.40365">
        <ele>753.2</ele>
        <time>1970-01-01T01:31:44.000Z</time>
      </trkpt>
      <trkpt lat="40.282111" lon="-3.403678">
        <ele>753.2</ele>
        <time>1970-01-01T01:31:45.000Z</time>
      </trkpt>
      <trkpt lat="40.282071" lon="-3.403706">
        <ele>753.4</ele>
        <time>1970-01-01T01:31:46.000Z</time>
      </trkpt>
      <trkpt lat="40.282032" lon="-3.403734">
        <ele>753.4</ele>
        <time>1970-01-01T01:31:47.000Z</time>
      </trkpt>
      <trkpt lat="40.281995" lon="-3.403761">
        <ele>753.4</ele>
        <time>1970-01-01T01:31:48.000Z</time>
      </trkpt>
      <trkpt lat="40.281964" lon="-3.403787">
        <ele>753.8</ele>
        <time>1970-01-01T01:31:49.000Z</time>
      </trkpt>
      <trkpt lat="40.281943" lon="-3.40382">
        <ele>753.8</ele>
        <time>1970-01-01T01:31:50.000Z</time>
      </trkpt>
      <trkpt lat="40.281938" lon="-3.403851">
        <ele>754</ele>
        <time>1970-01-01T01:31:51.000Z</time>
      </trkpt>
      <trkpt lat="40.281943" lon="-3.403882">
        <ele>754</ele>
        <time>1970-01-01T01:31:52.000Z</time>
      </trkpt>
      <trkpt lat="40.281953" lon="-3.403918">
        <ele>754.2</ele>
        <time>1970-01-01T01:31:53.000Z</time>
      </trkpt>
      <trkpt lat="40.281968" lon="-3.403953">
        <ele>754.2</ele>
        <time>1970-01-01T01:31:54.000Z</time>
      </trkpt>
      <trkpt lat="40.281982" lon="-3.403989">
        <ele>754.4</ele>
        <time>1970-01-01T01:31:55.000Z</time>
      </trkpt>
      <trkpt lat="40.281996" lon="-3.404023">
        <ele>754.6</ele>
        <time>1970-01-01T01:31:56.000Z</time>
      </trkpt>
      <trkpt lat="40.282018" lon="-3.404076">
        <ele>754.8</ele>
        <time>1970-01-01T01:31:57.000Z</time>
      </trkpt>
      <trkpt lat="40.282038" lon="-3.40412">
        <ele>755</ele>
        <time>1970-01-01T01:31:58.000Z</time>
      </trkpt>
      <trkpt lat="40.28206" lon="-3.404163">
        <ele>755</ele>
        <time>1970-01-01T01:31:59.000Z</time>
      </trkpt>
      <trkpt lat="40.28208" lon="-3.404211">
        <ele>755.2</ele>
        <time>1970-01-01T01:32:00.000Z</time>
      </trkpt>
      <trkpt lat="40.282098" lon="-3.40426">
        <ele>755.4</ele>
        <time>1970-01-01T01:32:01.000Z</time>
      </trkpt>
      <trkpt lat="40.282115" lon="-3.404313">
        <ele>755.6</ele>
        <time>1970-01-01T01:32:02.000Z</time>
      </trkpt>
      <trkpt lat="40.282127" lon="-3.404368">
        <ele>755.8</ele>
        <time>1970-01-01T01:32:03.000Z</time>
      </trkpt>
      <trkpt lat="40.282135" lon="-3.404424">
        <ele>755.8</ele>
        <time>1970-01-01T01:32:04.000Z</time>
      </trkpt>
      <trkpt lat="40.282135" lon="-3.40448">
        <ele>756</ele>
        <time>1970-01-01T01:32:05.000Z</time>
      </trkpt>
      <trkpt lat="40.282125" lon="-3.404534">
        <ele>756</ele>
        <time>1970-01-01T01:32:06.000Z</time>
      </trkpt>
      <trkpt lat="40.282108" lon="-3.404587">
        <ele>756.2</ele>
        <time>1970-01-01T01:32:07.000Z</time>
      </trkpt>
      <trkpt lat="40.28209" lon="-3.404636">
        <ele>756.2</ele>
        <time>1970-01-01T01:32:08.000Z</time>
      </trkpt>
      <trkpt lat="40.282065" lon="-3.404684">
        <ele>756.2</ele>
        <time>1970-01-01T01:32:09.000Z</time>
      </trkpt>
      <trkpt lat="40.282036" lon="-3.40473">
        <ele>756.2</ele>
        <time>1970-01-01T01:32:10.000Z</time>
      </trkpt>
      <trkpt lat="40.282007" lon="-3.404778">
        <ele>756.2</ele>
        <time>1970-01-01T01:32:11.000Z</time>
      </trkpt>
      <trkpt lat="40.281976" lon="-3.404826">
        <ele>756.2</ele>
        <time>1970-01-01T01:32:12.000Z</time>
      </trkpt>
      <trkpt lat="40.281943" lon="-3.404872">
        <ele>756.2</ele>
        <time>1970-01-01T01:32:13.000Z</time>
      </trkpt>
      <trkpt lat="40.281909" lon="-3.404917">
        <ele>756.2</ele>
        <time>1970-01-01T01:32:14.000Z</time>
      </trkpt>
      <trkpt lat="40.281876" lon="-3.404964">
        <ele>756.2</ele>
        <time>1970-01-01T01:32:15.000Z</time>
      </trkpt>
      <trkpt lat="40.281842" lon="-3.405012">
        <ele>756.4</ele>
        <time>1970-01-01T01:32:16.000Z</time>
      </trkpt>
      <trkpt lat="40.281808" lon="-3.405061">
        <ele>756.6</ele>
        <time>1970-01-01T01:32:17.000Z</time>
      </trkpt>
      <trkpt lat="40.281776" lon="-3.405111">
        <ele>756.6</ele>
        <time>1970-01-01T01:32:18.000Z</time>
      </trkpt>
      <trkpt lat="40.281747" lon="-3.40516">
        <ele>756.8</ele>
        <time>1970-01-01T01:32:19.000Z</time>
      </trkpt>
      <trkpt lat="40.281721" lon="-3.405214">
        <ele>756.8</ele>
        <time>1970-01-01T01:32:20.000Z</time>
      </trkpt>
      <trkpt lat="40.281695" lon="-3.405271">
        <ele>757</ele>
        <time>1970-01-01T01:32:21.000Z</time>
      </trkpt>
      <trkpt lat="40.281671" lon="-3.405328">
        <ele>757</ele>
        <time>1970-01-01T01:32:22.000Z</time>
      </trkpt>
      <trkpt lat="40.281652" lon="-3.405387">
        <ele>757.2</ele>
        <time>1970-01-01T01:32:23.000Z</time>
      </trkpt>
      <trkpt lat="40.281635" lon="-3.405448">
        <ele>757.4</ele>
        <time>1970-01-01T01:32:24.000Z</time>
      </trkpt>
      <trkpt lat="40.281619" lon="-3.405511">
        <ele>757.6</ele>
        <time>1970-01-01T01:32:25.000Z</time>
      </trkpt>
      <trkpt lat="40.28161" lon="-3.405576">
        <ele>757.8</ele>
        <time>1970-01-01T01:32:26.000Z</time>
      </trkpt>
      <trkpt lat="40.281609" lon="-3.405641">
        <ele>757.8</ele>
        <time>1970-01-01T01:32:27.000Z</time>
      </trkpt>
      <trkpt lat="40.281611" lon="-3.405705">
        <ele>757.8</ele>
        <time>1970-01-01T01:32:28.000Z</time>
      </trkpt>
      <trkpt lat="40.281618" lon="-3.40577">
        <ele>757.8</ele>
        <time>1970-01-01T01:32:29.000Z</time>
      </trkpt>
      <trkpt lat="40.281625" lon="-3.405836">
        <ele>757.8</ele>
        <time>1970-01-01T01:32:30.000Z</time>
      </trkpt>
      <trkpt lat="40.28163" lon="-3.405902">
        <ele>758</ele>
        <time>1970-01-01T01:32:31.000Z</time>
      </trkpt>
      <trkpt lat="40.281632" lon="-3.405969">
        <ele>758</ele>
        <time>1970-01-01T01:32:32.000Z</time>
      </trkpt>
      <trkpt lat="40.281632" lon="-3.406038">
        <ele>758.2</ele>
        <time>1970-01-01T01:32:33.000Z</time>
      </trkpt>
      <trkpt lat="40.28163" lon="-3.406106">
        <ele>758.4</ele>
        <time>1970-01-01T01:32:34.000Z</time>
      </trkpt>
      <trkpt lat="40.281626" lon="-3.406172">
        <ele>758.6</ele>
        <time>1970-01-01T01:32:35.000Z</time>
      </trkpt>
      <trkpt lat="40.281623" lon="-3.406238">
        <ele>758.6</ele>
        <time>1970-01-01T01:32:36.000Z</time>
      </trkpt>
      <trkpt lat="40.281624" lon="-3.406303">
        <ele>758.8</ele>
        <time>1970-01-01T01:32:37.000Z</time>
      </trkpt>
      <trkpt lat="40.281634" lon="-3.406368">
        <ele>759</ele>
        <time>1970-01-01T01:32:38.000Z</time>
      </trkpt>
      <trkpt lat="40.281649" lon="-3.406431">
        <ele>759.2</ele>
        <time>1970-01-01T01:32:39.000Z</time>
      </trkpt>
      <trkpt lat="40.28167" lon="-3.406493">
        <ele>759.4</ele>
        <time>1970-01-01T01:32:40.000Z</time>
      </trkpt>
      <trkpt lat="40.281695" lon="-3.406553">
        <ele>759.4</ele>
        <time>1970-01-01T01:32:41.000Z</time>
      </trkpt>
      <trkpt lat="40.281721" lon="-3.406609">
        <ele>759.6</ele>
        <time>1970-01-01T01:32:42.000Z</time>
      </trkpt>
      <trkpt lat="40.281746" lon="-3.406667">
        <ele>759.6</ele>
        <time>1970-01-01T01:32:43.000Z</time>
      </trkpt>
      <trkpt lat="40.281772" lon="-3.406726">
        <ele>759.8</ele>
        <time>1970-01-01T01:32:44.000Z</time>
      </trkpt>
      <trkpt lat="40.281794" lon="-3.406787">
        <ele>760</ele>
        <time>1970-01-01T01:32:45.000Z</time>
      </trkpt>
      <trkpt lat="40.281811" lon="-3.406848">
        <ele>760.2</ele>
        <time>1970-01-01T01:32:46.000Z</time>
      </trkpt>
      <trkpt lat="40.281824" lon="-3.406913">
        <ele>760.4</ele>
        <time>1970-01-01T01:32:47.000Z</time>
      </trkpt>
      <trkpt lat="40.281837" lon="-3.406978">
        <ele>760.4</ele>
        <time>1970-01-01T01:32:48.000Z</time>
      </trkpt>
      <trkpt lat="40.281846" lon="-3.407046">
        <ele>760.6</ele>
        <time>1970-01-01T01:32:49.000Z</time>
      </trkpt>
      <trkpt lat="40.281857" lon="-3.407115">
        <ele>760.6</ele>
        <time>1970-01-01T01:32:50.000Z</time>
      </trkpt>
      <trkpt lat="40.281871" lon="-3.407184">
        <ele>761</ele>
        <time>1970-01-01T01:32:51.000Z</time>
      </trkpt>
      <trkpt lat="40.281886" lon="-3.407255">
        <ele>761.2</ele>
        <time>1970-01-01T01:32:52.000Z</time>
      </trkpt>
      <trkpt lat="40.281903" lon="-3.407325">
        <ele>761.2</ele>
        <time>1970-01-01T01:32:53.000Z</time>
      </trkpt>
      <trkpt lat="40.281919" lon="-3.407395">
        <ele>761.4</ele>
        <time>1970-01-01T01:32:54.000Z</time>
      </trkpt>
      <trkpt lat="40.281934" lon="-3.407465">
        <ele>761.4</ele>
        <time>1970-01-01T01:32:55.000Z</time>
      </trkpt>
      <trkpt lat="40.281948" lon="-3.407533">
        <ele>761.6</ele>
        <time>1970-01-01T01:32:56.000Z</time>
      </trkpt>
      <trkpt lat="40.28196" lon="-3.407605">
        <ele>761.6</ele>
        <time>1970-01-01T01:32:57.000Z</time>
      </trkpt>
      <trkpt lat="40.281972" lon="-3.407678">
        <ele>761.8</ele>
        <time>1970-01-01T01:32:58.000Z</time>
      </trkpt>
      <trkpt lat="40.281982" lon="-3.407753">
        <ele>761.8</ele>
        <time>1970-01-01T01:32:59.000Z</time>
      </trkpt>
      <trkpt lat="40.281992" lon="-3.407828">
        <ele>761.8</ele>
        <time>1970-01-01T01:33:00.000Z</time>
      </trkpt>
      <trkpt lat="40.282" lon="-3.407902">
        <ele>762</ele>
        <time>1970-01-01T01:33:01.000Z</time>
      </trkpt>
      <trkpt lat="40.282008" lon="-3.407975">
        <ele>762</ele>
        <time>1970-01-01T01:33:02.000Z</time>
      </trkpt>
      <trkpt lat="40.282019" lon="-3.408046">
        <ele>762.2</ele>
        <time>1970-01-01T01:33:03.000Z</time>
      </trkpt>
      <trkpt lat="40.28203" lon="-3.408116">
        <ele>762.2</ele>
        <time>1970-01-01T01:33:04.000Z</time>
      </trkpt>
      <trkpt lat="40.282042" lon="-3.408188">
        <ele>762.6</ele>
        <time>1970-01-01T01:33:05.000Z</time>
      </trkpt>
      <trkpt lat="40.282056" lon="-3.40826">
        <ele>762.8</ele>
        <time>1970-01-01T01:33:06.000Z</time>
      </trkpt>
      <trkpt lat="40.28207" lon="-3.408334">
        <ele>762.8</ele>
        <time>1970-01-01T01:33:07.000Z</time>
      </trkpt>
      <trkpt lat="40.282082" lon="-3.408409">
        <ele>763</ele>
        <time>1970-01-01T01:33:08.000Z</time>
      </trkpt>
      <trkpt lat="40.282096" lon="-3.408483">
        <ele>762.8</ele>
        <time>1970-01-01T01:33:09.000Z</time>
      </trkpt>
      <trkpt lat="40.282115" lon="-3.408556">
        <ele>763</ele>
        <time>1970-01-01T01:33:10.000Z</time>
      </trkpt>
      <trkpt lat="40.282132" lon="-3.40863">
        <ele>763</ele>
        <time>1970-01-01T01:33:11.000Z</time>
      </trkpt>
      <trkpt lat="40.282144" lon="-3.408708">
        <ele>763</ele>
        <time>1970-01-01T01:33:12.000Z</time>
      </trkpt>
      <trkpt lat="40.282152" lon="-3.408787">
        <ele>763</ele>
        <time>1970-01-01T01:33:13.000Z</time>
      </trkpt>
      <trkpt lat="40.282157" lon="-3.408865">
        <ele>763</ele>
        <time>1970-01-01T01:33:14.000Z</time>
      </trkpt>
      <trkpt lat="40.282162" lon="-3.40894">
        <ele>763</ele>
        <time>1970-01-01T01:33:15.000Z</time>
      </trkpt>
      <trkpt lat="40.282169" lon="-3.40901">
        <ele>763</ele>
        <time>1970-01-01T01:33:16.000Z</time>
      </trkpt>
      <trkpt lat="40.282175" lon="-3.409077">
        <ele>763</ele>
        <time>1970-01-01T01:33:17.000Z</time>
      </trkpt>
      <trkpt lat="40.282177" lon="-3.409144">
        <ele>762.8</ele>
        <time>1970-01-01T01:33:18.000Z</time>
      </trkpt>
      <trkpt lat="40.282181" lon="-3.409215">
        <ele>762.6</ele>
        <time>1970-01-01T01:33:19.000Z</time>
      </trkpt>
      <trkpt lat="40.282192" lon="-3.409288">
        <ele>762.8</ele>
        <time>1970-01-01T01:33:20.000Z</time>
      </trkpt>
      <trkpt lat="40.282215" lon="-3.409362">
        <ele>762.8</ele>
        <time>1970-01-01T01:33:21.000Z</time>
      </trkpt>
      <trkpt lat="40.282245" lon="-3.409434">
        <ele>762.8</ele>
        <time>1970-01-01T01:33:22.000Z</time>
      </trkpt>
      <trkpt lat="40.282278" lon="-3.409504">
        <ele>762.8</ele>
        <time>1970-01-01T01:33:23.000Z</time>
      </trkpt>
      <trkpt lat="40.282312" lon="-3.409573">
        <ele>762.8</ele>
        <time>1970-01-01T01:33:24.000Z</time>
      </trkpt>
      <trkpt lat="40.282346" lon="-3.40964">
        <ele>762.8</ele>
        <time>1970-01-01T01:33:25.000Z</time>
      </trkpt>
      <trkpt lat="40.282376" lon="-3.409705">
        <ele>762.8</ele>
        <time>1970-01-01T01:33:26.000Z</time>
      </trkpt>
      <trkpt lat="40.282404" lon="-3.40977">
        <ele>762.8</ele>
        <time>1970-01-01T01:33:27.000Z</time>
      </trkpt>
      <trkpt lat="40.282424" lon="-3.409837">
        <ele>762.8</ele>
        <time>1970-01-01T01:33:28.000Z</time>
      </trkpt>
      <trkpt lat="40.282436" lon="-3.409906">
        <ele>762.8</ele>
        <time>1970-01-01T01:33:29.000Z</time>
      </trkpt>
      <trkpt lat="40.282437" lon="-3.409974">
        <ele>762.8</ele>
        <time>1970-01-01T01:33:30.000Z</time>
      </trkpt>
      <trkpt lat="40.28243" lon="-3.410046">
        <ele>762.8</ele>
        <time>1970-01-01T01:33:31.000Z</time>
      </trkpt>
      <trkpt lat="40.28242" lon="-3.41012">
        <ele>762.6</ele>
        <time>1970-01-01T01:33:32.000Z</time>
      </trkpt>
      <trkpt lat="40.282406" lon="-3.410193">
        <ele>762.6</ele>
        <time>1970-01-01T01:33:33.000Z</time>
      </trkpt>
      <trkpt lat="40.282383" lon="-3.410267">
        <ele>762.6</ele>
        <time>1970-01-01T01:33:34.000Z</time>
      </trkpt>
      <trkpt lat="40.282351" lon="-3.410339">
        <ele>762.6</ele>
        <time>1970-01-01T01:33:35.000Z</time>
      </trkpt>
      <trkpt lat="40.282312" lon="-3.410405">
        <ele>762.4</ele>
        <time>1970-01-01T01:33:36.000Z</time>
      </trkpt>
      <trkpt lat="40.282274" lon="-3.410471">
        <ele>762.4</ele>
        <time>1970-01-01T01:33:37.000Z</time>
      </trkpt>
      <trkpt lat="40.282238" lon="-3.410537">
        <ele>762.4</ele>
        <time>1970-01-01T01:33:38.000Z</time>
      </trkpt>
      <trkpt lat="40.282207" lon="-3.410604">
        <ele>762.4</ele>
        <time>1970-01-01T01:33:39.000Z</time>
      </trkpt>
      <trkpt lat="40.282185" lon="-3.410679">
        <ele>762.4</ele>
        <time>1970-01-01T01:33:40.000Z</time>
      </trkpt>
      <trkpt lat="40.282175" lon="-3.410758">
        <ele>762.2</ele>
        <time>1970-01-01T01:33:41.000Z</time>
      </trkpt>
      <trkpt lat="40.282174" lon="-3.410845">
        <ele>762.2</ele>
        <time>1970-01-01T01:33:42.000Z</time>
      </trkpt>
      <trkpt lat="40.282167" lon="-3.410931">
        <ele>762.2</ele>
        <time>1970-01-01T01:33:43.000Z</time>
      </trkpt>
      <trkpt lat="40.282149" lon="-3.411019">
        <ele>762.2</ele>
        <time>1970-01-01T01:33:44.000Z</time>
      </trkpt>
      <trkpt lat="40.282127" lon="-3.411105">
        <ele>762</ele>
        <time>1970-01-01T01:33:45.000Z</time>
      </trkpt>
      <trkpt lat="40.282104" lon="-3.411189">
        <ele>762</ele>
        <time>1970-01-01T01:33:46.000Z</time>
      </trkpt>
      <trkpt lat="40.282077" lon="-3.411271">
        <ele>761.8</ele>
        <time>1970-01-01T01:33:47.000Z</time>
      </trkpt>
      <trkpt lat="40.282048" lon="-3.411349">
        <ele>761.8</ele>
        <time>1970-01-01T01:33:48.000Z</time>
      </trkpt>
      <trkpt lat="40.282021" lon="-3.411425">
        <ele>761.6</ele>
        <time>1970-01-01T01:33:49.000Z</time>
      </trkpt>
      <trkpt lat="40.281994" lon="-3.4115">
        <ele>761.6</ele>
        <time>1970-01-01T01:33:50.000Z</time>
      </trkpt>
      <trkpt lat="40.281964" lon="-3.411573">
        <ele>761.6</ele>
        <time>1970-01-01T01:33:51.000Z</time>
      </trkpt>
      <trkpt lat="40.281933" lon="-3.411647">
        <ele>761.6</ele>
        <time>1970-01-01T01:33:52.000Z</time>
      </trkpt>
      <trkpt lat="40.281904" lon="-3.411725">
        <ele>761.6</ele>
        <time>1970-01-01T01:33:53.000Z</time>
      </trkpt>
      <trkpt lat="40.281884" lon="-3.41181">
        <ele>761.4</ele>
        <time>1970-01-01T01:33:54.000Z</time>
      </trkpt>
      <trkpt lat="40.281869" lon="-3.411898">
        <ele>761.4</ele>
        <time>1970-01-01T01:33:55.000Z</time>
      </trkpt>
      <trkpt lat="40.281858" lon="-3.411987">
        <ele>761.2</ele>
        <time>1970-01-01T01:33:56.000Z</time>
      </trkpt>
      <trkpt lat="40.28185" lon="-3.41207">
        <ele>761.2</ele>
        <time>1970-01-01T01:33:57.000Z</time>
      </trkpt>
      <trkpt lat="40.281841" lon="-3.412144">
        <ele>761.2</ele>
        <time>1970-01-01T01:33:58.000Z</time>
      </trkpt>
      <trkpt lat="40.281832" lon="-3.412206">
        <ele>761</ele>
        <time>1970-01-01T01:33:59.000Z</time>
      </trkpt>
      <trkpt lat="40.281826" lon="-3.412263">
        <ele>761</ele>
        <time>1970-01-01T01:34:00.000Z</time>
      </trkpt>
      <trkpt lat="40.281822" lon="-3.412325">
        <ele>760.8</ele>
        <time>1970-01-01T01:34:01.000Z</time>
      </trkpt>
      <trkpt lat="40.281821" lon="-3.412394">
        <ele>760.6</ele>
        <time>1970-01-01T01:34:02.000Z</time>
      </trkpt>
      <trkpt lat="40.281825" lon="-3.412465">
        <ele>760.6</ele>
        <time>1970-01-01T01:34:03.000Z</time>
      </trkpt>
      <trkpt lat="40.281834" lon="-3.41254">
        <ele>760.6</ele>
        <time>1970-01-01T01:34:04.000Z</time>
      </trkpt>
      <trkpt lat="40.281843" lon="-3.412614">
        <ele>760.6</ele>
        <time>1970-01-01T01:34:05.000Z</time>
      </trkpt>
      <trkpt lat="40.281851" lon="-3.412688">
        <ele>760.4</ele>
        <time>1970-01-01T01:34:06.000Z</time>
      </trkpt>
      <trkpt lat="40.281856" lon="-3.41277">
        <ele>760.4</ele>
        <time>1970-01-01T01:34:07.000Z</time>
      </trkpt>
      <trkpt lat="40.281859" lon="-3.412853">
        <ele>760.4</ele>
        <time>1970-01-01T01:34:08.000Z</time>
      </trkpt>
      <trkpt lat="40.281861" lon="-3.412939">
        <ele>760.4</ele>
        <time>1970-01-01T01:34:09.000Z</time>
      </trkpt>
      <trkpt lat="40.281862" lon="-3.413022">
        <ele>760.4</ele>
        <time>1970-01-01T01:34:10.000Z</time>
      </trkpt>
      <trkpt lat="40.281866" lon="-3.4131">
        <ele>760.2</ele>
        <time>1970-01-01T01:34:11.000Z</time>
      </trkpt>
      <trkpt lat="40.281872" lon="-3.413179">
        <ele>760.2</ele>
        <time>1970-01-01T01:34:12.000Z</time>
      </trkpt>
      <trkpt lat="40.281882" lon="-3.413257">
        <ele>760.2</ele>
        <time>1970-01-01T01:34:13.000Z</time>
      </trkpt>
      <trkpt lat="40.281897" lon="-3.413332">
        <ele>760.2</ele>
        <time>1970-01-01T01:34:14.000Z</time>
      </trkpt>
      <trkpt lat="40.281919" lon="-3.413403">
        <ele>760</ele>
        <time>1970-01-01T01:34:15.000Z</time>
      </trkpt>
      <trkpt lat="40.281944" lon="-3.413473">
        <ele>760</ele>
        <time>1970-01-01T01:34:16.000Z</time>
      </trkpt>
      <trkpt lat="40.281971" lon="-3.413541">
        <ele>759.8</ele>
        <time>1970-01-01T01:34:17.000Z</time>
      </trkpt>
      <trkpt lat="40.281996" lon="-3.413606">
        <ele>759.6</ele>
        <time>1970-01-01T01:34:18.000Z</time>
      </trkpt>
      <trkpt lat="40.282016" lon="-3.413672">
        <ele>759.6</ele>
        <time>1970-01-01T01:34:19.000Z</time>
      </trkpt>
      <trkpt lat="40.282031" lon="-3.413737">
        <ele>759.4</ele>
        <time>1970-01-01T01:34:20.000Z</time>
      </trkpt>
      <trkpt lat="40.282038" lon="-3.413792">
        <ele>759.4</ele>
        <time>1970-01-01T01:34:21.000Z</time>
      </trkpt>
      <trkpt lat="40.282038" lon="-3.413828">
        <ele>759.2</ele>
        <time>1970-01-01T01:34:22.000Z</time>
      </trkpt>
      <trkpt lat="40.282035" lon="-3.41385">
        <ele>759</ele>
        <time>1970-01-01T01:34:23.000Z</time>
      </trkpt>
      <trkpt lat="40.282026" lon="-3.413864">
        <ele>758.8</ele>
        <time>1970-01-01T01:34:24.000Z</time>
      </trkpt>
      <trkpt lat="40.282018" lon="-3.413872">
        <ele>758.6</ele>
        <time>1970-01-01T01:34:25.000Z</time>
      </trkpt>
      <trkpt lat="40.282017" lon="-3.413876">
        <ele>758.4</ele>
        <time>1970-01-01T01:34:26.000Z</time>
      </trkpt>
      <trkpt lat="40.282017" lon="-3.413876">
        <ele>758.2</ele>
        <time>1970-01-01T01:34:27.000Z</time>
      </trkpt>
      <trkpt lat="40.281996" lon="-3.413904">
        <ele>757.8</ele>
        <time>1970-01-01T01:34:45.000Z</time>
      </trkpt>
      <trkpt lat="40.281972" lon="-3.413937">
        <ele>757.8</ele>
        <time>1970-01-01T01:34:46.000Z</time>
      </trkpt>
      <trkpt lat="40.281942" lon="-3.413977">
        <ele>757.6</ele>
        <time>1970-01-01T01:34:47.000Z</time>
      </trkpt>
      <trkpt lat="40.281906" lon="-3.414019">
        <ele>757.6</ele>
        <time>1970-01-01T01:34:48.000Z</time>
      </trkpt>
      <trkpt lat="40.281864" lon="-3.414058">
        <ele>757.6</ele>
        <time>1970-01-01T01:34:49.000Z</time>
      </trkpt>
      <trkpt lat="40.281821" lon="-3.414093">
        <ele>757.6</ele>
        <time>1970-01-01T01:34:50.000Z</time>
      </trkpt>
      <trkpt lat="40.281778" lon="-3.414126">
        <ele>757.6</ele>
        <time>1970-01-01T01:34:51.000Z</time>
      </trkpt>
      <trkpt lat="40.281735" lon="-3.414162">
        <ele>757.6</ele>
        <time>1970-01-01T01:34:52.000Z</time>
      </trkpt>
      <trkpt lat="40.281692" lon="-3.414205">
        <ele>757.4</ele>
        <time>1970-01-01T01:34:53.000Z</time>
      </trkpt>
      <trkpt lat="40.281656" lon="-3.414256">
        <ele>757.4</ele>
        <time>1970-01-01T01:34:54.000Z</time>
      </trkpt>
      <trkpt lat="40.281624" lon="-3.414314">
        <ele>757.6</ele>
        <time>1970-01-01T01:34:55.000Z</time>
      </trkpt>
      <trkpt lat="40.281601" lon="-3.414377">
        <ele>757.6</ele>
        <time>1970-01-01T01:34:56.000Z</time>
      </trkpt>
      <trkpt lat="40.281582" lon="-3.414441">
        <ele>758</ele>
        <time>1970-01-01T01:34:57.000Z</time>
      </trkpt>
      <trkpt lat="40.281562" lon="-3.414503">
        <ele>758</ele>
        <time>1970-01-01T01:34:58.000Z</time>
      </trkpt>
      <trkpt lat="40.28154" lon="-3.414563">
        <ele>758.4</ele>
        <time>1970-01-01T01:34:59.000Z</time>
      </trkpt>
      <trkpt lat="40.281513" lon="-3.414619">
        <ele>758.6</ele>
        <time>1970-01-01T01:35:00.000Z</time>
      </trkpt>
      <trkpt lat="40.281485" lon="-3.41467">
        <ele>758.6</ele>
        <time>1970-01-01T01:35:01.000Z</time>
      </trkpt>
      <trkpt lat="40.281453" lon="-3.414715">
        <ele>758.8</ele>
        <time>1970-01-01T01:35:02.000Z</time>
      </trkpt>
      <trkpt lat="40.281419" lon="-3.414755">
        <ele>758.8</ele>
        <time>1970-01-01T01:35:03.000Z</time>
      </trkpt>
      <trkpt lat="40.281387" lon="-3.414796">
        <ele>759</ele>
        <time>1970-01-01T01:35:04.000Z</time>
      </trkpt>
      <trkpt lat="40.281356" lon="-3.414842">
        <ele>759</ele>
        <time>1970-01-01T01:35:05.000Z</time>
      </trkpt>
      <trkpt lat="40.28133" lon="-3.41489">
        <ele>759</ele>
        <time>1970-01-01T01:35:06.000Z</time>
      </trkpt>
      <trkpt lat="40.281309" lon="-3.414944">
        <ele>759</ele>
        <time>1970-01-01T01:35:07.000Z</time>
      </trkpt>
      <trkpt lat="40.28129" lon="-3.415001">
        <ele>759.4</ele>
        <time>1970-01-01T01:35:08.000Z</time>
      </trkpt>
      <trkpt lat="40.281272" lon="-3.415062">
        <ele>759.4</ele>
        <time>1970-01-01T01:35:09.000Z</time>
      </trkpt>
      <trkpt lat="40.281257" lon="-3.415123">
        <ele>759.2</ele>
        <time>1970-01-01T01:35:10.000Z</time>
      </trkpt>
      <trkpt lat="40.281245" lon="-3.415189">
        <ele>759.4</ele>
        <time>1970-01-01T01:35:11.000Z</time>
      </trkpt>
      <trkpt lat="40.281232" lon="-3.41526">
        <ele>759.6</ele>
        <time>1970-01-01T01:35:12.000Z</time>
      </trkpt>
      <trkpt lat="40.281219" lon="-3.415333">
        <ele>759.8</ele>
        <time>1970-01-01T01:35:13.000Z</time>
      </trkpt>
      <trkpt lat="40.281205" lon="-3.415406">
        <ele>759.8</ele>
        <time>1970-01-01T01:35:14.000Z</time>
      </trkpt>
      <trkpt lat="40.281189" lon="-3.415479">
        <ele>760</ele>
        <time>1970-01-01T01:35:15.000Z</time>
      </trkpt>
      <trkpt lat="40.281174" lon="-3.415551">
        <ele>760</ele>
        <time>1970-01-01T01:35:16.000Z</time>
      </trkpt>
      <trkpt lat="40.281157" lon="-3.415625">
        <ele>760</ele>
        <time>1970-01-01T01:35:17.000Z</time>
      </trkpt>
      <trkpt lat="40.281135" lon="-3.415697">
        <ele>760.2</ele>
        <time>1970-01-01T01:35:18.000Z</time>
      </trkpt>
      <trkpt lat="40.281114" lon="-3.415767">
        <ele>760.2</ele>
        <time>1970-01-01T01:35:19.000Z</time>
      </trkpt>
      <trkpt lat="40.281093" lon="-3.415838">
        <ele>760.2</ele>
        <time>1970-01-01T01:35:20.000Z</time>
      </trkpt>
      <trkpt lat="40.281071" lon="-3.415907">
        <ele>760.2</ele>
        <time>1970-01-01T01:35:21.000Z</time>
      </trkpt>
      <trkpt lat="40.281052" lon="-3.415979">
        <ele>760.2</ele>
        <time>1970-01-01T01:35:22.000Z</time>
      </trkpt>
      <trkpt lat="40.281036" lon="-3.416055">
        <ele>760.4</ele>
        <time>1970-01-01T01:35:23.000Z</time>
      </trkpt>
      <trkpt lat="40.281021" lon="-3.416134">
        <ele>760.2</ele>
        <time>1970-01-01T01:35:24.000Z</time>
      </trkpt>
      <trkpt lat="40.281012" lon="-3.416213">
        <ele>760.2</ele>
        <time>1970-01-01T01:35:25.000Z</time>
      </trkpt>
      <trkpt lat="40.281009" lon="-3.416295">
        <ele>760.2</ele>
        <time>1970-01-01T01:35:26.000Z</time>
      </trkpt>
      <trkpt lat="40.281005" lon="-3.41638">
        <ele>760.2</ele>
        <time>1970-01-01T01:35:27.000Z</time>
      </trkpt>
      <trkpt lat="40.280999" lon="-3.416467">
        <ele>760.2</ele>
        <time>1970-01-01T01:35:28.000Z</time>
      </trkpt>
      <trkpt lat="40.28099" lon="-3.416556">
        <ele>760.2</ele>
        <time>1970-01-01T01:35:29.000Z</time>
      </trkpt>
      <trkpt lat="40.280978" lon="-3.416647">
        <ele>760</ele>
        <time>1970-01-01T01:35:30.000Z</time>
      </trkpt>
      <trkpt lat="40.28096" lon="-3.416737">
        <ele>760</ele>
        <time>1970-01-01T01:35:31.000Z</time>
      </trkpt>
      <trkpt lat="40.280937" lon="-3.416827">
        <ele>760</ele>
        <time>1970-01-01T01:35:32.000Z</time>
      </trkpt>
      <trkpt lat="40.280916" lon="-3.416917">
        <ele>759.8</ele>
        <time>1970-01-01T01:35:33.000Z</time>
      </trkpt>
      <trkpt lat="40.280899" lon="-3.41701">
        <ele>759.6</ele>
        <time>1970-01-01T01:35:34.000Z</time>
      </trkpt>
      <trkpt lat="40.280883" lon="-3.417104">
        <ele>759.4</ele>
        <time>1970-01-01T01:35:35.000Z</time>
      </trkpt>
      <trkpt lat="40.280869" lon="-3.417201">
        <ele>759.4</ele>
        <time>1970-01-01T01:35:36.000Z</time>
      </trkpt>
      <trkpt lat="40.280853" lon="-3.417297">
        <ele>759.2</ele>
        <time>1970-01-01T01:35:37.000Z</time>
      </trkpt>
      <trkpt lat="40.280838" lon="-3.417394">
        <ele>758.8</ele>
        <time>1970-01-01T01:35:38.000Z</time>
      </trkpt>
      <trkpt lat="40.280824" lon="-3.417491">
        <ele>758.8</ele>
        <time>1970-01-01T01:35:39.000Z</time>
      </trkpt>
      <trkpt lat="40.280814" lon="-3.417591">
        <ele>758.6</ele>
        <time>1970-01-01T01:35:40.000Z</time>
      </trkpt>
      <trkpt lat="40.280806" lon="-3.41769">
        <ele>758.4</ele>
        <time>1970-01-01T01:35:41.000Z</time>
      </trkpt>
      <trkpt lat="40.280795" lon="-3.417787">
        <ele>758</ele>
        <time>1970-01-01T01:35:42.000Z</time>
      </trkpt>
      <trkpt lat="40.280779" lon="-3.417881">
        <ele>757.8</ele>
        <time>1970-01-01T01:35:43.000Z</time>
      </trkpt>
      <trkpt lat="40.280758" lon="-3.417972">
        <ele>757.4</ele>
        <time>1970-01-01T01:35:44.000Z</time>
      </trkpt>
      <trkpt lat="40.280734" lon="-3.41806">
        <ele>757.2</ele>
        <time>1970-01-01T01:35:45.000Z</time>
      </trkpt>
      <trkpt lat="40.280706" lon="-3.418147">
        <ele>757.2</ele>
        <time>1970-01-01T01:35:46.000Z</time>
      </trkpt>
      <trkpt lat="40.280673" lon="-3.418231">
        <ele>757</ele>
        <time>1970-01-01T01:35:47.000Z</time>
      </trkpt>
      <trkpt lat="40.280638" lon="-3.418314">
        <ele>757</ele>
        <time>1970-01-01T01:35:48.000Z</time>
      </trkpt>
      <trkpt lat="40.280606" lon="-3.4184">
        <ele>757</ele>
        <time>1970-01-01T01:35:49.000Z</time>
      </trkpt>
      <trkpt lat="40.280578" lon="-3.418489">
        <ele>756.8</ele>
        <time>1970-01-01T01:35:50.000Z</time>
      </trkpt>
      <trkpt lat="40.280553" lon="-3.418586">
        <ele>756.8</ele>
        <time>1970-01-01T01:35:51.000Z</time>
      </trkpt>
      <trkpt lat="40.280534" lon="-3.418686">
        <ele>756.6</ele>
        <time>1970-01-01T01:35:52.000Z</time>
      </trkpt>
      <trkpt lat="40.280518" lon="-3.418788">
        <ele>756.6</ele>
        <time>1970-01-01T01:35:53.000Z</time>
      </trkpt>
      <trkpt lat="40.280509" lon="-3.418893">
        <ele>756.6</ele>
        <time>1970-01-01T01:35:54.000Z</time>
      </trkpt>
      <trkpt lat="40.280502" lon="-3.418998">
        <ele>756.4</ele>
        <time>1970-01-01T01:35:55.000Z</time>
      </trkpt>
      <trkpt lat="40.2805" lon="-3.419105">
        <ele>755.8</ele>
        <time>1970-01-01T01:35:56.000Z</time>
      </trkpt>
      <trkpt lat="40.280498" lon="-3.419211">
        <ele>755.6</ele>
        <time>1970-01-01T01:35:57.000Z</time>
      </trkpt>
      <trkpt lat="40.280498" lon="-3.419314">
        <ele>755</ele>
        <time>1970-01-01T01:35:58.000Z</time>
      </trkpt>
      <trkpt lat="40.280498" lon="-3.419413">
        <ele>754.6</ele>
        <time>1970-01-01T01:35:59.000Z</time>
      </trkpt>
      <trkpt lat="40.280495" lon="-3.419506">
        <ele>754.4</ele>
        <time>1970-01-01T01:36:00.000Z</time>
      </trkpt>
      <trkpt lat="40.280478" lon="-3.41959">
        <ele>753.8</ele>
        <time>1970-01-01T01:36:01.000Z</time>
      </trkpt>
      <trkpt lat="40.280446" lon="-3.41966">
        <ele>753.4</ele>
        <time>1970-01-01T01:36:02.000Z</time>
      </trkpt>
      <trkpt lat="40.280403" lon="-3.419712">
        <ele>751.8</ele>
        <time>1970-01-01T01:36:03.000Z</time>
      </trkpt>
      <trkpt lat="40.280348" lon="-3.419751">
        <ele>751.2</ele>
        <time>1970-01-01T01:36:04.000Z</time>
      </trkpt>
      <trkpt lat="40.280288" lon="-3.419775">
        <ele>750.4</ele>
        <time>1970-01-01T01:36:05.000Z</time>
      </trkpt>
      <trkpt lat="40.280225" lon="-3.41979">
        <ele>750</ele>
        <time>1970-01-01T01:36:06.000Z</time>
      </trkpt>
      <trkpt lat="40.280163" lon="-3.419807">
        <ele>749.8</ele>
        <time>1970-01-01T01:36:07.000Z</time>
      </trkpt>
      <trkpt lat="40.280106" lon="-3.419835">
        <ele>749.4</ele>
        <time>1970-01-01T01:36:08.000Z</time>
      </trkpt>
      <trkpt lat="40.280058" lon="-3.41988">
        <ele>749.2</ele>
        <time>1970-01-01T01:36:09.000Z</time>
      </trkpt>
      <trkpt lat="40.280016" lon="-3.41994">
        <ele>748.8</ele>
        <time>1970-01-01T01:36:10.000Z</time>
      </trkpt>
      <trkpt lat="40.27998" lon="-3.42001">
        <ele>748.6</ele>
        <time>1970-01-01T01:36:11.000Z</time>
      </trkpt>
      <trkpt lat="40.279946" lon="-3.420088">
        <ele>748.4</ele>
        <time>1970-01-01T01:36:12.000Z</time>
      </trkpt>
      <trkpt lat="40.279915" lon="-3.420167">
        <ele>748.4</ele>
        <time>1970-01-01T01:36:13.000Z</time>
      </trkpt>
      <trkpt lat="40.279888" lon="-3.420243">
        <ele>748.2</ele>
        <time>1970-01-01T01:36:14.000Z</time>
      </trkpt>
      <trkpt lat="40.279872" lon="-3.420315">
        <ele>747.6</ele>
        <time>1970-01-01T01:36:15.000Z</time>
      </trkpt>
      <trkpt lat="40.279873" lon="-3.420384">
        <ele>747.4</ele>
        <time>1970-01-01T01:36:16.000Z</time>
      </trkpt>
      <trkpt lat="40.27989" lon="-3.420454">
        <ele>747</ele>
        <time>1970-01-01T01:36:17.000Z</time>
      </trkpt>
      <trkpt lat="40.279907" lon="-3.420524">
        <ele>746.8</ele>
        <time>1970-01-01T01:36:18.000Z</time>
      </trkpt>
      <trkpt lat="40.279909" lon="-3.420599">
        <ele>746.2</ele>
        <time>1970-01-01T01:36:19.000Z</time>
      </trkpt>
      <trkpt lat="40.279895" lon="-3.420672">
        <ele>745.8</ele>
        <time>1970-01-01T01:36:20.000Z</time>
      </trkpt>
      <trkpt lat="40.279863" lon="-3.42074">
        <ele>745.4</ele>
        <time>1970-01-01T01:36:21.000Z</time>
      </trkpt>
      <trkpt lat="40.27983" lon="-3.420804">
        <ele>745</ele>
        <time>1970-01-01T01:36:22.000Z</time>
      </trkpt>
      <trkpt lat="40.279795" lon="-3.420865">
        <ele>745</ele>
        <time>1970-01-01T01:36:23.000Z</time>
      </trkpt>
      <trkpt lat="40.27976" lon="-3.420931">
        <ele>744.8</ele>
        <time>1970-01-01T01:36:24.000Z</time>
      </trkpt>
      <trkpt lat="40.279726" lon="-3.420997">
        <ele>744.8</ele>
        <time>1970-01-01T01:36:25.000Z</time>
      </trkpt>
      <trkpt lat="40.27969" lon="-3.421064">
        <ele>744.6</ele>
        <time>1970-01-01T01:36:26.000Z</time>
      </trkpt>
      <trkpt lat="40.279662" lon="-3.421135">
        <ele>744.6</ele>
        <time>1970-01-01T01:36:27.000Z</time>
      </trkpt>
      <trkpt lat="40.279633" lon="-3.421205">
        <ele>744.6</ele>
        <time>1970-01-01T01:36:28.000Z</time>
      </trkpt>
      <trkpt lat="40.279608" lon="-3.421273">
        <ele>744.6</ele>
        <time>1970-01-01T01:36:29.000Z</time>
      </trkpt>
      <trkpt lat="40.279593" lon="-3.421338">
        <ele>744.6</ele>
        <time>1970-01-01T01:36:30.000Z</time>
      </trkpt>
      <trkpt lat="40.279591" lon="-3.421399">
        <ele>744.6</ele>
        <time>1970-01-01T01:36:31.000Z</time>
      </trkpt>
      <trkpt lat="40.279607" lon="-3.421454">
        <ele>744.6</ele>
        <time>1970-01-01T01:36:32.000Z</time>
      </trkpt>
      <trkpt lat="40.279636" lon="-3.421502">
        <ele>744.6</ele>
        <time>1970-01-01T01:36:33.000Z</time>
      </trkpt>
      <trkpt lat="40.279672" lon="-3.421546">
        <ele>744.6</ele>
        <time>1970-01-01T01:36:34.000Z</time>
      </trkpt>
      <trkpt lat="40.279707" lon="-3.421593">
        <ele>744.8</ele>
        <time>1970-01-01T01:36:35.000Z</time>
      </trkpt>
      <trkpt lat="40.279733" lon="-3.421652">
        <ele>745</ele>
        <time>1970-01-01T01:36:36.000Z</time>
      </trkpt>
      <trkpt lat="40.279747" lon="-3.421722">
        <ele>745</ele>
        <time>1970-01-01T01:36:37.000Z</time>
      </trkpt>
      <trkpt lat="40.27975" lon="-3.421799">
        <ele>745</ele>
        <time>1970-01-01T01:36:38.000Z</time>
      </trkpt>
      <trkpt lat="40.279744" lon="-3.421883">
        <ele>745</ele>
        <time>1970-01-01T01:36:39.000Z</time>
      </trkpt>
      <trkpt lat="40.279735" lon="-3.421969">
        <ele>745</ele>
        <time>1970-01-01T01:36:40.000Z</time>
      </trkpt>
      <trkpt lat="40.279728" lon="-3.422057">
        <ele>745</ele>
        <time>1970-01-01T01:36:41.000Z</time>
      </trkpt>
      <trkpt lat="40.279721" lon="-3.422143">
        <ele>745</ele>
        <time>1970-01-01T01:36:42.000Z</time>
      </trkpt>
      <trkpt lat="40.279717" lon="-3.422231">
        <ele>744.8</ele>
        <time>1970-01-01T01:36:43.000Z</time>
      </trkpt>
      <trkpt lat="40.279717" lon="-3.42232">
        <ele>744.6</ele>
        <time>1970-01-01T01:36:44.000Z</time>
      </trkpt>
      <trkpt lat="40.279718" lon="-3.422409">
        <ele>744.6</ele>
        <time>1970-01-01T01:36:45.000Z</time>
      </trkpt>
      <trkpt lat="40.279725" lon="-3.422497">
        <ele>744.4</ele>
        <time>1970-01-01T01:36:46.000Z</time>
      </trkpt>
      <trkpt lat="40.279738" lon="-3.422585">
        <ele>744.2</ele>
        <time>1970-01-01T01:36:47.000Z</time>
      </trkpt>
      <trkpt lat="40.279755" lon="-3.422673">
        <ele>744.2</ele>
        <time>1970-01-01T01:36:48.000Z</time>
      </trkpt>
      <trkpt lat="40.279772" lon="-3.422763">
        <ele>744</ele>
        <time>1970-01-01T01:36:49.000Z</time>
      </trkpt>
      <trkpt lat="40.27979" lon="-3.422856">
        <ele>744</ele>
        <time>1970-01-01T01:36:50.000Z</time>
      </trkpt>
      <trkpt lat="40.279804" lon="-3.422948">
        <ele>744</ele>
        <time>1970-01-01T01:36:51.000Z</time>
      </trkpt>
      <trkpt lat="40.279817" lon="-3.423043">
        <ele>743.8</ele>
        <time>1970-01-01T01:36:52.000Z</time>
      </trkpt>
      <trkpt lat="40.279831" lon="-3.423138">
        <ele>743.8</ele>
        <time>1970-01-01T01:36:53.000Z</time>
      </trkpt>
      <trkpt lat="40.279846" lon="-3.423232">
        <ele>743.8</ele>
        <time>1970-01-01T01:36:54.000Z</time>
      </trkpt>
      <trkpt lat="40.279864" lon="-3.423324">
        <ele>743.6</ele>
        <time>1970-01-01T01:36:55.000Z</time>
      </trkpt>
      <trkpt lat="40.279883" lon="-3.423413">
        <ele>743.6</ele>
        <time>1970-01-01T01:36:56.000Z</time>
      </trkpt>
      <trkpt lat="40.279902" lon="-3.423502">
        <ele>743.4</ele>
        <time>1970-01-01T01:36:57.000Z</time>
      </trkpt>
      <trkpt lat="40.279919" lon="-3.42359">
        <ele>743.4</ele>
        <time>1970-01-01T01:36:58.000Z</time>
      </trkpt>
      <trkpt lat="40.279939" lon="-3.423675">
        <ele>743.4</ele>
        <time>1970-01-01T01:36:59.000Z</time>
      </trkpt>
      <trkpt lat="40.279963" lon="-3.423758">
        <ele>743.4</ele>
        <time>1970-01-01T01:37:00.000Z</time>
      </trkpt>
      <trkpt lat="40.27999" lon="-3.423837">
        <ele>743.4</ele>
        <time>1970-01-01T01:37:01.000Z</time>
      </trkpt>
      <trkpt lat="40.280019" lon="-3.423913">
        <ele>743.4</ele>
        <time>1970-01-01T01:37:02.000Z</time>
      </trkpt>
      <trkpt lat="40.280049" lon="-3.423988">
        <ele>743.4</ele>
        <time>1970-01-01T01:37:03.000Z</time>
      </trkpt>
      <trkpt lat="40.280082" lon="-3.42406">
        <ele>743.4</ele>
        <time>1970-01-01T01:37:04.000Z</time>
      </trkpt>
      <trkpt lat="40.280114" lon="-3.424129">
        <ele>743.6</ele>
        <time>1970-01-01T01:37:05.000Z</time>
      </trkpt>
      <trkpt lat="40.28015" lon="-3.424201">
        <ele>743.6</ele>
        <time>1970-01-01T01:37:06.000Z</time>
      </trkpt>
      <trkpt lat="40.280189" lon="-3.424268">
        <ele>743.6</ele>
        <time>1970-01-01T01:37:07.000Z</time>
      </trkpt>
      <trkpt lat="40.28023" lon="-3.424332">
        <ele>743.8</ele>
        <time>1970-01-01T01:37:08.000Z</time>
      </trkpt>
      <trkpt lat="40.280269" lon="-3.424398">
        <ele>743.8</ele>
        <time>1970-01-01T01:37:09.000Z</time>
      </trkpt>
      <trkpt lat="40.280308" lon="-3.424463">
        <ele>744.2</ele>
        <time>1970-01-01T01:37:10.000Z</time>
      </trkpt>
      <trkpt lat="40.280348" lon="-3.424527">
        <ele>744.8</ele>
        <time>1970-01-01T01:37:11.000Z</time>
      </trkpt>
      <trkpt lat="40.280386" lon="-3.42459">
        <ele>744.8</ele>
        <time>1970-01-01T01:37:12.000Z</time>
      </trkpt>
      <trkpt lat="40.280427" lon="-3.424653">
        <ele>745.2</ele>
        <time>1970-01-01T01:37:13.000Z</time>
      </trkpt>
      <trkpt lat="40.280468" lon="-3.424717">
        <ele>745.4</ele>
        <time>1970-01-01T01:37:14.000Z</time>
      </trkpt>
      <trkpt lat="40.280506" lon="-3.424788">
        <ele>746</ele>
        <time>1970-01-01T01:37:15.000Z</time>
      </trkpt>
      <trkpt lat="40.280536" lon="-3.424865">
        <ele>746</ele>
        <time>1970-01-01T01:37:16.000Z</time>
      </trkpt>
      <trkpt lat="40.280557" lon="-3.424948">
        <ele>746.2</ele>
        <time>1970-01-01T01:37:17.000Z</time>
      </trkpt>
      <trkpt lat="40.280573" lon="-3.425037">
        <ele>746.4</ele>
        <time>1970-01-01T01:37:18.000Z</time>
      </trkpt>
      <trkpt lat="40.280584" lon="-3.425126">
        <ele>746.4</ele>
        <time>1970-01-01T01:37:19.000Z</time>
      </trkpt>
      <trkpt lat="40.280592" lon="-3.425218">
        <ele>746.4</ele>
        <time>1970-01-01T01:37:20.000Z</time>
      </trkpt>
      <trkpt lat="40.280596" lon="-3.425312">
        <ele>746.4</ele>
        <time>1970-01-01T01:37:21.000Z</time>
      </trkpt>
      <trkpt lat="40.280593" lon="-3.42541">
        <ele>746.4</ele>
        <time>1970-01-01T01:37:22.000Z</time>
      </trkpt>
      <trkpt lat="40.280589" lon="-3.425507">
        <ele>746.2</ele>
        <time>1970-01-01T01:37:23.000Z</time>
      </trkpt>
      <trkpt lat="40.280584" lon="-3.425605">
        <ele>745.8</ele>
        <time>1970-01-01T01:37:24.000Z</time>
      </trkpt>
      <trkpt lat="40.280569" lon="-3.4257">
        <ele>745.2</ele>
        <time>1970-01-01T01:37:25.000Z</time>
      </trkpt>
      <trkpt lat="40.280548" lon="-3.425791">
        <ele>745</ele>
        <time>1970-01-01T01:37:26.000Z</time>
      </trkpt>
      <trkpt lat="40.280521" lon="-3.425881">
        <ele>744.8</ele>
        <time>1970-01-01T01:37:27.000Z</time>
      </trkpt>
      <trkpt lat="40.280489" lon="-3.425969">
        <ele>744.4</ele>
        <time>1970-01-01T01:37:28.000Z</time>
      </trkpt>
      <trkpt lat="40.280457" lon="-3.426057">
        <ele>744.2</ele>
        <time>1970-01-01T01:37:29.000Z</time>
      </trkpt>
      <trkpt lat="40.280424" lon="-3.426145">
        <ele>744</ele>
        <time>1970-01-01T01:37:30.000Z</time>
      </trkpt>
      <trkpt lat="40.280391" lon="-3.426233">
        <ele>743.6</ele>
        <time>1970-01-01T01:37:31.000Z</time>
      </trkpt>
      <trkpt lat="40.280353" lon="-3.426318">
        <ele>743.2</ele>
        <time>1970-01-01T01:37:32.000Z</time>
      </trkpt>
      <trkpt lat="40.280315" lon="-3.426404">
        <ele>743</ele>
        <time>1970-01-01T01:37:33.000Z</time>
      </trkpt>
      <trkpt lat="40.280276" lon="-3.42649">
        <ele>742.6</ele>
        <time>1970-01-01T01:37:34.000Z</time>
      </trkpt>
      <trkpt lat="40.280234" lon="-3.426575">
        <ele>742.6</ele>
        <time>1970-01-01T01:37:35.000Z</time>
      </trkpt>
      <trkpt lat="40.280191" lon="-3.426658">
        <ele>742.4</ele>
        <time>1970-01-01T01:37:36.000Z</time>
      </trkpt>
      <trkpt lat="40.280147" lon="-3.426743">
        <ele>742.4</ele>
        <time>1970-01-01T01:37:37.000Z</time>
      </trkpt>
      <trkpt lat="40.280106" lon="-3.42683">
        <ele>742.2</ele>
        <time>1970-01-01T01:37:38.000Z</time>
      </trkpt>
      <trkpt lat="40.28007" lon="-3.426921">
        <ele>742</ele>
        <time>1970-01-01T01:37:39.000Z</time>
      </trkpt>
      <trkpt lat="40.280045" lon="-3.427015">
        <ele>742</ele>
        <time>1970-01-01T01:37:40.000Z</time>
      </trkpt>
      <trkpt lat="40.280035" lon="-3.427112">
        <ele>742</ele>
        <time>1970-01-01T01:37:41.000Z</time>
      </trkpt>
      <trkpt lat="40.280035" lon="-3.427209">
        <ele>742</ele>
        <time>1970-01-01T01:37:42.000Z</time>
      </trkpt>
      <trkpt lat="40.280039" lon="-3.427303">
        <ele>741.8</ele>
        <time>1970-01-01T01:37:43.000Z</time>
      </trkpt>
      <trkpt lat="40.280046" lon="-3.427394">
        <ele>741.8</ele>
        <time>1970-01-01T01:37:44.000Z</time>
      </trkpt>
      <trkpt lat="40.280056" lon="-3.427482">
        <ele>741.8</ele>
        <time>1970-01-01T01:37:45.000Z</time>
      </trkpt>
      <trkpt lat="40.280064" lon="-3.42757">
        <ele>741.6</ele>
        <time>1970-01-01T01:37:46.000Z</time>
      </trkpt>
      <trkpt lat="40.280072" lon="-3.427657">
        <ele>741.4</ele>
        <time>1970-01-01T01:37:47.000Z</time>
      </trkpt>
      <trkpt lat="40.280081" lon="-3.427747">
        <ele>741.4</ele>
        <time>1970-01-01T01:37:48.000Z</time>
      </trkpt>
      <trkpt lat="40.28009" lon="-3.427839">
        <ele>741.2</ele>
        <time>1970-01-01T01:37:49.000Z</time>
      </trkpt>
      <trkpt lat="40.280103" lon="-3.427935">
        <ele>741.4</ele>
        <time>1970-01-01T01:37:50.000Z</time>
      </trkpt>
      <trkpt lat="40.280127" lon="-3.428029">
        <ele>741.4</ele>
        <time>1970-01-01T01:37:51.000Z</time>
      </trkpt>
      <trkpt lat="40.280163" lon="-3.428122">
        <ele>741.2</ele>
        <time>1970-01-01T01:37:52.000Z</time>
      </trkpt>
      <trkpt lat="40.280203" lon="-3.428214">
        <ele>741.2</ele>
        <time>1970-01-01T01:37:53.000Z</time>
      </trkpt>
      <trkpt lat="40.280245" lon="-3.428306">
        <ele>741.2</ele>
        <time>1970-01-01T01:37:54.000Z</time>
      </trkpt>
      <trkpt lat="40.280284" lon="-3.428397">
        <ele>741.2</ele>
        <time>1970-01-01T01:37:55.000Z</time>
      </trkpt>
      <trkpt lat="40.280324" lon="-3.428488">
        <ele>741.2</ele>
        <time>1970-01-01T01:37:56.000Z</time>
      </trkpt>
      <trkpt lat="40.280361" lon="-3.428578">
        <ele>741.2</ele>
        <time>1970-01-01T01:37:57.000Z</time>
      </trkpt>
      <trkpt lat="40.280392" lon="-3.428669">
        <ele>741.2</ele>
        <time>1970-01-01T01:37:58.000Z</time>
      </trkpt>
      <trkpt lat="40.280416" lon="-3.428762">
        <ele>740.8</ele>
        <time>1970-01-01T01:37:59.000Z</time>
      </trkpt>
      <trkpt lat="40.280431" lon="-3.428854">
        <ele>740.8</ele>
        <time>1970-01-01T01:38:00.000Z</time>
      </trkpt>
      <trkpt lat="40.280437" lon="-3.428948">
        <ele>740.8</ele>
        <time>1970-01-01T01:38:01.000Z</time>
      </trkpt>
      <trkpt lat="40.280434" lon="-3.429041">
        <ele>740.8</ele>
        <time>1970-01-01T01:38:02.000Z</time>
      </trkpt>
      <trkpt lat="40.28043" lon="-3.429136">
        <ele>740.8</ele>
        <time>1970-01-01T01:38:03.000Z</time>
      </trkpt>
      <trkpt lat="40.280427" lon="-3.429232">
        <ele>741</ele>
        <time>1970-01-01T01:38:04.000Z</time>
      </trkpt>
      <trkpt lat="40.280425" lon="-3.429327">
        <ele>741</ele>
        <time>1970-01-01T01:38:05.000Z</time>
      </trkpt>
      <trkpt lat="40.280423" lon="-3.429426">
        <ele>741</ele>
        <time>1970-01-01T01:38:06.000Z</time>
      </trkpt>
      <trkpt lat="40.280418" lon="-3.429523">
        <ele>741</ele>
        <time>1970-01-01T01:38:07.000Z</time>
      </trkpt>
      <trkpt lat="40.280409" lon="-3.429624">
        <ele>741</ele>
        <time>1970-01-01T01:38:08.000Z</time>
      </trkpt>
      <trkpt lat="40.280397" lon="-3.429729">
        <ele>741</ele>
        <time>1970-01-01T01:38:09.000Z</time>
      </trkpt>
      <trkpt lat="40.280388" lon="-3.429834">
        <ele>740.8</ele>
        <time>1970-01-01T01:38:10.000Z</time>
      </trkpt>
      <trkpt lat="40.280387" lon="-3.429936">
        <ele>741</ele>
        <time>1970-01-01T01:38:11.000Z</time>
      </trkpt>
      <trkpt lat="40.280393" lon="-3.430032">
        <ele>741</ele>
        <time>1970-01-01T01:38:12.000Z</time>
      </trkpt>
      <trkpt lat="40.280405" lon="-3.43012">
        <ele>740.8</ele>
        <time>1970-01-01T01:38:13.000Z</time>
      </trkpt>
      <trkpt lat="40.280426" lon="-3.4302">
        <ele>740.6</ele>
        <time>1970-01-01T01:38:14.000Z</time>
      </trkpt>
      <trkpt lat="40.280453" lon="-3.430272">
        <ele>740.6</ele>
        <time>1970-01-01T01:38:15.000Z</time>
      </trkpt>
      <trkpt lat="40.280486" lon="-3.43034">
        <ele>740.4</ele>
        <time>1970-01-01T01:38:16.000Z</time>
      </trkpt>
      <trkpt lat="40.280524" lon="-3.430395">
        <ele>740.2</ele>
        <time>1970-01-01T01:38:17.000Z</time>
      </trkpt>
      <trkpt lat="40.280572" lon="-3.430437">
        <ele>740</ele>
        <time>1970-01-01T01:38:18.000Z</time>
      </trkpt>
      <trkpt lat="40.280629" lon="-3.430465">
        <ele>740</ele>
        <time>1970-01-01T01:38:19.000Z</time>
      </trkpt>
      <trkpt lat="40.280688" lon="-3.430481">
        <ele>739.8</ele>
        <time>1970-01-01T01:38:20.000Z</time>
      </trkpt>
      <trkpt lat="40.280747" lon="-3.430481">
        <ele>739.8</ele>
        <time>1970-01-01T01:38:21.000Z</time>
      </trkpt>
      <trkpt lat="40.280803" lon="-3.430473">
        <ele>739.6</ele>
        <time>1970-01-01T01:38:22.000Z</time>
      </trkpt>
      <trkpt lat="40.280857" lon="-3.430463">
        <ele>739.6</ele>
        <time>1970-01-01T01:38:23.000Z</time>
      </trkpt>
      <trkpt lat="40.280915" lon="-3.430451">
        <ele>739.6</ele>
        <time>1970-01-01T01:38:24.000Z</time>
      </trkpt>
      <trkpt lat="40.280974" lon="-3.430435">
        <ele>739.6</ele>
        <time>1970-01-01T01:38:25.000Z</time>
      </trkpt>
      <trkpt lat="40.281035" lon="-3.430417">
        <ele>739.6</ele>
        <time>1970-01-01T01:38:26.000Z</time>
      </trkpt>
      <trkpt lat="40.281096" lon="-3.430397">
        <ele>739.6</ele>
        <time>1970-01-01T01:38:27.000Z</time>
      </trkpt>
      <trkpt lat="40.281158" lon="-3.430376">
        <ele>739.4</ele>
        <time>1970-01-01T01:38:28.000Z</time>
      </trkpt>
      <trkpt lat="40.281221" lon="-3.430354">
        <ele>739.4</ele>
        <time>1970-01-01T01:38:29.000Z</time>
      </trkpt>
      <trkpt lat="40.281284" lon="-3.430331">
        <ele>739.4</ele>
        <time>1970-01-01T01:38:30.000Z</time>
      </trkpt>
      <trkpt lat="40.281347" lon="-3.430313">
        <ele>739.4</ele>
        <time>1970-01-01T01:38:31.000Z</time>
      </trkpt>
      <trkpt lat="40.281413" lon="-3.430291">
        <ele>739.2</ele>
        <time>1970-01-01T01:38:32.000Z</time>
      </trkpt>
      <trkpt lat="40.281481" lon="-3.430269">
        <ele>739.2</ele>
        <time>1970-01-01T01:38:33.000Z</time>
      </trkpt>
      <trkpt lat="40.281548" lon="-3.430246">
        <ele>739.2</ele>
        <time>1970-01-01T01:38:34.000Z</time>
      </trkpt>
      <trkpt lat="40.281617" lon="-3.430225">
        <ele>739.2</ele>
        <time>1970-01-01T01:38:35.000Z</time>
      </trkpt>
      <trkpt lat="40.281688" lon="-3.430202">
        <ele>739.2</ele>
        <time>1970-01-01T01:38:36.000Z</time>
      </trkpt>
      <trkpt lat="40.281759" lon="-3.430178">
        <ele>739.2</ele>
        <time>1970-01-01T01:38:37.000Z</time>
      </trkpt>
      <trkpt lat="40.281832" lon="-3.43015">
        <ele>739</ele>
        <time>1970-01-01T01:38:38.000Z</time>
      </trkpt>
      <trkpt lat="40.281906" lon="-3.430117">
        <ele>738.8</ele>
        <time>1970-01-01T01:38:39.000Z</time>
      </trkpt>
      <trkpt lat="40.281979" lon="-3.430079">
        <ele>738.8</ele>
        <time>1970-01-01T01:38:40.000Z</time>
      </trkpt>
      <trkpt lat="40.282049" lon="-3.430036">
        <ele>738.6</ele>
        <time>1970-01-01T01:38:41.000Z</time>
      </trkpt>
      <trkpt lat="40.28212" lon="-3.429991">
        <ele>738.6</ele>
        <time>1970-01-01T01:38:42.000Z</time>
      </trkpt>
      <trkpt lat="40.282188" lon="-3.429946">
        <ele>738.6</ele>
        <time>1970-01-01T01:38:43.000Z</time>
      </trkpt>
      <trkpt lat="40.282256" lon="-3.429903">
        <ele>738.8</ele>
        <time>1970-01-01T01:38:44.000Z</time>
      </trkpt>
      <trkpt lat="40.282323" lon="-3.429864">
        <ele>738.8</ele>
        <time>1970-01-01T01:38:45.000Z</time>
      </trkpt>
      <trkpt lat="40.282387" lon="-3.429832">
        <ele>739</ele>
        <time>1970-01-01T01:38:46.000Z</time>
      </trkpt>
      <trkpt lat="40.282449" lon="-3.429807">
        <ele>739</ele>
        <time>1970-01-01T01:38:47.000Z</time>
      </trkpt>
      <trkpt lat="40.28251" lon="-3.42979">
        <ele>739.2</ele>
        <time>1970-01-01T01:38:48.000Z</time>
      </trkpt>
      <trkpt lat="40.282575" lon="-3.429776">
        <ele>739.6</ele>
        <time>1970-01-01T01:38:49.000Z</time>
      </trkpt>
      <trkpt lat="40.282639" lon="-3.429766">
        <ele>739.8</ele>
        <time>1970-01-01T01:38:50.000Z</time>
      </trkpt>
      <trkpt lat="40.282709" lon="-3.42976">
        <ele>740</ele>
        <time>1970-01-01T01:38:51.000Z</time>
      </trkpt>
      <trkpt lat="40.282784" lon="-3.429757">
        <ele>740.2</ele>
        <time>1970-01-01T01:38:52.000Z</time>
      </trkpt>
      <trkpt lat="40.282863" lon="-3.429759">
        <ele>740.2</ele>
        <time>1970-01-01T01:38:53.000Z</time>
      </trkpt>
      <trkpt lat="40.282944" lon="-3.429767">
        <ele>740.4</ele>
        <time>1970-01-01T01:38:54.000Z</time>
      </trkpt>
      <trkpt lat="40.283026" lon="-3.429777">
        <ele>740.4</ele>
        <time>1970-01-01T01:38:55.000Z</time>
      </trkpt>
      <trkpt lat="40.283112" lon="-3.429795">
        <ele>740.2</ele>
        <time>1970-01-01T01:38:56.000Z</time>
      </trkpt>
      <trkpt lat="40.2832" lon="-3.429823">
        <ele>740.2</ele>
        <time>1970-01-01T01:38:57.000Z</time>
      </trkpt>
      <trkpt lat="40.28329" lon="-3.429855">
        <ele>739.8</ele>
        <time>1970-01-01T01:38:58.000Z</time>
      </trkpt>
      <trkpt lat="40.283383" lon="-3.429893">
        <ele>739.2</ele>
        <time>1970-01-01T01:38:59.000Z</time>
      </trkpt>
      <trkpt lat="40.283478" lon="-3.429936">
        <ele>738.6</ele>
        <time>1970-01-01T01:39:00.000Z</time>
      </trkpt>
      <trkpt lat="40.283572" lon="-3.42998">
        <ele>738.4</ele>
        <time>1970-01-01T01:39:01.000Z</time>
      </trkpt>
      <trkpt lat="40.283665" lon="-3.430023">
        <ele>738.2</ele>
        <time>1970-01-01T01:39:02.000Z</time>
      </trkpt>
      <trkpt lat="40.283739" lon="-3.430055">
        <ele>737.6</ele>
        <time>1970-01-01T01:39:03.000Z</time>
      </trkpt>
      <trkpt lat="40.283833" lon="-3.430094">
        <ele>737.4</ele>
        <time>1970-01-01T01:39:04.000Z</time>
      </trkpt>
      <trkpt lat="40.283942" lon="-3.430139">
        <ele>736.6</ele>
        <time>1970-01-01T01:39:05.000Z</time>
      </trkpt>
      <trkpt lat="40.284032" lon="-3.430174">
        <ele>736</ele>
        <time>1970-01-01T01:39:06.000Z</time>
      </trkpt>
      <trkpt lat="40.284121" lon="-3.430208">
        <ele>735.2</ele>
        <time>1970-01-01T01:39:07.000Z</time>
      </trkpt>
      <trkpt lat="40.284208" lon="-3.43024">
        <ele>735</ele>
        <time>1970-01-01T01:39:08.000Z</time>
      </trkpt>
      <trkpt lat="40.284292" lon="-3.430269">
        <ele>735</ele>
        <time>1970-01-01T01:39:09.000Z</time>
      </trkpt>
      <trkpt lat="40.284375" lon="-3.430294">
        <ele>734.8</ele>
        <time>1970-01-01T01:39:10.000Z</time>
      </trkpt>
      <trkpt lat="40.284457" lon="-3.430318">
        <ele>734.8</ele>
        <time>1970-01-01T01:39:11.000Z</time>
      </trkpt>
      <trkpt lat="40.284538" lon="-3.43034">
        <ele>734.6</ele>
        <time>1970-01-01T01:39:12.000Z</time>
      </trkpt>
      <trkpt lat="40.284618" lon="-3.430362">
        <ele>734.8</ele>
        <time>1970-01-01T01:39:13.000Z</time>
      </trkpt>
      <trkpt lat="40.284698" lon="-3.430387">
        <ele>734.8</ele>
        <time>1970-01-01T01:39:14.000Z</time>
      </trkpt>
      <trkpt lat="40.284776" lon="-3.430411">
        <ele>735</ele>
        <time>1970-01-01T01:39:15.000Z</time>
      </trkpt>
      <trkpt lat="40.28485" lon="-3.430431">
        <ele>735</ele>
        <time>1970-01-01T01:39:16.000Z</time>
      </trkpt>
      <trkpt lat="40.284928" lon="-3.430453">
        <ele>735.2</ele>
        <time>1970-01-01T01:39:17.000Z</time>
      </trkpt>
      <trkpt lat="40.285009" lon="-3.430476">
        <ele>735.4</ele>
        <time>1970-01-01T01:39:18.000Z</time>
      </trkpt>
      <trkpt lat="40.285075" lon="-3.430493">
        <ele>735.8</ele>
        <time>1970-01-01T01:39:19.000Z</time>
      </trkpt>
      <trkpt lat="40.285175" lon="-3.43052">
        <ele>736</ele>
        <time>1970-01-01T01:39:20.000Z</time>
      </trkpt>
      <trkpt lat="40.285261" lon="-3.430541">
        <ele>736</ele>
        <time>1970-01-01T01:39:21.000Z</time>
      </trkpt>
      <trkpt lat="40.285329" lon="-3.430558">
        <ele>736.2</ele>
        <time>1970-01-01T01:39:22.000Z</time>
      </trkpt>
      <trkpt lat="40.285413" lon="-3.430575">
        <ele>736.2</ele>
        <time>1970-01-01T01:39:23.000Z</time>
      </trkpt>
      <trkpt lat="40.285495" lon="-3.430593">
        <ele>736.2</ele>
        <time>1970-01-01T01:39:24.000Z</time>
      </trkpt>
      <trkpt lat="40.28559" lon="-3.430617">
        <ele>736.2</ele>
        <time>1970-01-01T01:39:25.000Z</time>
      </trkpt>
      <trkpt lat="40.285667" lon="-3.430643">
        <ele>736.4</ele>
        <time>1970-01-01T01:39:26.000Z</time>
      </trkpt>
      <trkpt lat="40.28573" lon="-3.430669">
        <ele>736.4</ele>
        <time>1970-01-01T01:39:27.000Z</time>
      </trkpt>
      <trkpt lat="40.285811" lon="-3.430706">
        <ele>736.6</ele>
        <time>1970-01-01T01:39:28.000Z</time>
      </trkpt>
      <trkpt lat="40.285895" lon="-3.43075">
        <ele>736.8</ele>
        <time>1970-01-01T01:39:29.000Z</time>
      </trkpt>
      <trkpt lat="40.285997" lon="-3.430806">
        <ele>736.6</ele>
        <time>1970-01-01T01:39:30.000Z</time>
      </trkpt>
      <trkpt lat="40.286082" lon="-3.430849">
        <ele>736.4</ele>
        <time>1970-01-01T01:39:31.000Z</time>
      </trkpt>
      <trkpt lat="40.286149" lon="-3.430877">
        <ele>736.4</ele>
        <time>1970-01-01T01:39:32.000Z</time>
      </trkpt>
      <trkpt lat="40.286231" lon="-3.430914">
        <ele>736.6</ele>
        <time>1970-01-01T01:39:33.000Z</time>
      </trkpt>
      <trkpt lat="40.286311" lon="-3.430955">
        <ele>736.6</ele>
        <time>1970-01-01T01:39:34.000Z</time>
      </trkpt>
      <trkpt lat="40.286401" lon="-3.431004">
        <ele>736.4</ele>
        <time>1970-01-01T01:39:35.000Z</time>
      </trkpt>
      <trkpt lat="40.286472" lon="-3.431052">
        <ele>736.6</ele>
        <time>1970-01-01T01:39:36.000Z</time>
      </trkpt>
      <trkpt lat="40.286543" lon="-3.431098">
        <ele>736.6</ele>
        <time>1970-01-01T01:39:37.000Z</time>
      </trkpt>
      <trkpt lat="40.286597" lon="-3.431132">
        <ele>736.6</ele>
        <time>1970-01-01T01:39:38.000Z</time>
      </trkpt>
      <trkpt lat="40.286666" lon="-3.431174">
        <ele>736.6</ele>
        <time>1970-01-01T01:39:39.000Z</time>
      </trkpt>
      <trkpt lat="40.28675" lon="-3.431225">
        <ele>736.6</ele>
        <time>1970-01-01T01:39:40.000Z</time>
      </trkpt>
      <trkpt lat="40.286808" lon="-3.431262">
        <ele>736.4</ele>
        <time>1970-01-01T01:39:41.000Z</time>
      </trkpt>
      <trkpt lat="40.286895" lon="-3.431319">
        <ele>736.4</ele>
        <time>1970-01-01T01:39:42.000Z</time>
      </trkpt>
      <trkpt lat="40.286954" lon="-3.431362">
        <ele>736.4</ele>
        <time>1970-01-01T01:39:43.000Z</time>
      </trkpt>
      <trkpt lat="40.287026" lon="-3.43142">
        <ele>736.4</ele>
        <time>1970-01-01T01:39:44.000Z</time>
      </trkpt>
      <trkpt lat="40.287116" lon="-3.431497">
        <ele>736.2</ele>
        <time>1970-01-01T01:39:45.000Z</time>
      </trkpt>
      <trkpt lat="40.287196" lon="-3.431567">
        <ele>736.2</ele>
        <time>1970-01-01T01:39:46.000Z</time>
      </trkpt>
      <trkpt lat="40.28728" lon="-3.431639">
        <ele>736</ele>
        <time>1970-01-01T01:39:47.000Z</time>
      </trkpt>
      <trkpt lat="40.287344" lon="-3.4317">
        <ele>735.8</ele>
        <time>1970-01-01T01:39:48.000Z</time>
      </trkpt>
      <trkpt lat="40.28743" lon="-3.431777">
        <ele>735.6</ele>
        <time>1970-01-01T01:39:49.000Z</time>
      </trkpt>
      <trkpt lat="40.287521" lon="-3.431857">
        <ele>735</ele>
        <time>1970-01-01T01:39:50.000Z</time>
      </trkpt>
      <trkpt lat="40.287634" lon="-3.431952">
        <ele>734.2</ele>
        <time>1970-01-01T01:39:51.000Z</time>
      </trkpt>
      <trkpt lat="40.287711" lon="-3.432023">
        <ele>733.2</ele>
        <time>1970-01-01T01:39:52.000Z</time>
      </trkpt>
      <trkpt lat="40.28781" lon="-3.432109">
        <ele>732.6</ele>
        <time>1970-01-01T01:39:53.000Z</time>
      </trkpt>
      <trkpt lat="40.287911" lon="-3.432196">
        <ele>731.2</ele>
        <time>1970-01-01T01:39:54.000Z</time>
      </trkpt>
      <trkpt lat="40.288032" lon="-3.4323">
        <ele>730.8</ele>
        <time>1970-01-01T01:39:55.000Z</time>
      </trkpt>
      <trkpt lat="40.288112" lon="-3.432367">
        <ele>730</ele>
        <time>1970-01-01T01:39:56.000Z</time>
      </trkpt>
      <trkpt lat="40.288231" lon="-3.432463">
        <ele>729.4</ele>
        <time>1970-01-01T01:39:57.000Z</time>
      </trkpt>
      <trkpt lat="40.288312" lon="-3.432521">
        <ele>728.4</ele>
        <time>1970-01-01T01:39:58.000Z</time>
      </trkpt>
      <trkpt lat="40.288411" lon="-3.432583">
        <ele>727.6</ele>
        <time>1970-01-01T01:39:59.000Z</time>
      </trkpt>
      <trkpt lat="40.288531" lon="-3.432641">
        <ele>727</ele>
        <time>1970-01-01T01:40:00.000Z</time>
      </trkpt>
      <trkpt lat="40.288629" lon="-3.432676">
        <ele>726</ele>
        <time>1970-01-01T01:40:01.000Z</time>
      </trkpt>
      <trkpt lat="40.288705" lon="-3.432698">
        <ele>725.4</ele>
        <time>1970-01-01T01:40:02.000Z</time>
      </trkpt>
      <trkpt lat="40.288798" lon="-3.432726">
        <ele>724.8</ele>
        <time>1970-01-01T01:40:03.000Z</time>
      </trkpt>
      <trkpt lat="40.288889" lon="-3.432757">
        <ele>724.6</ele>
        <time>1970-01-01T01:40:04.000Z</time>
      </trkpt>
      <trkpt lat="40.288996" lon="-3.432801">
        <ele>724.2</ele>
        <time>1970-01-01T01:40:05.000Z</time>
      </trkpt>
      <trkpt lat="40.289066" lon="-3.432836">
        <ele>724</ele>
        <time>1970-01-01T01:40:06.000Z</time>
      </trkpt>
      <trkpt lat="40.289153" lon="-3.432884">
        <ele>724</ele>
        <time>1970-01-01T01:40:07.000Z</time>
      </trkpt>
      <trkpt lat="40.289241" lon="-3.432937">
        <ele>723.6</ele>
        <time>1970-01-01T01:40:08.000Z</time>
      </trkpt>
      <trkpt lat="40.28933" lon="-3.432992">
        <ele>723.6</ele>
        <time>1970-01-01T01:40:09.000Z</time>
      </trkpt>
      <trkpt lat="40.289439" lon="-3.433055">
        <ele>723.2</ele>
        <time>1970-01-01T01:40:10.000Z</time>
      </trkpt>
      <trkpt lat="40.289517" lon="-3.433097">
        <ele>722.6</ele>
        <time>1970-01-01T01:40:11.000Z</time>
      </trkpt>
      <trkpt lat="40.289617" lon="-3.43315">
        <ele>722.4</ele>
        <time>1970-01-01T01:40:12.000Z</time>
      </trkpt>
      <trkpt lat="40.28974" lon="-3.433215">
        <ele>721.4</ele>
        <time>1970-01-01T01:40:13.000Z</time>
      </trkpt>
      <trkpt lat="40.289839" lon="-3.433265">
        <ele>721</ele>
        <time>1970-01-01T01:40:14.000Z</time>
      </trkpt>
      <trkpt lat="40.289932" lon="-3.433311">
        <ele>720.2</ele>
        <time>1970-01-01T01:40:15.000Z</time>
      </trkpt>
      <trkpt lat="40.290016" lon="-3.433361">
        <ele>720</ele>
        <time>1970-01-01T01:40:16.000Z</time>
      </trkpt>
      <trkpt lat="40.290087" lon="-3.433416">
        <ele>719</ele>
        <time>1970-01-01T01:40:17.000Z</time>
      </trkpt>
      <trkpt lat="40.290144" lon="-3.433482">
        <ele>718</ele>
        <time>1970-01-01T01:40:18.000Z</time>
      </trkpt>
      <trkpt lat="40.290182" lon="-3.433553">
        <ele>717.6</ele>
        <time>1970-01-01T01:40:19.000Z</time>
      </trkpt>
      <trkpt lat="40.290201" lon="-3.433627">
        <ele>717</ele>
        <time>1970-01-01T01:40:20.000Z</time>
      </trkpt>
      <trkpt lat="40.290203" lon="-3.433707">
        <ele>716.8</ele>
        <time>1970-01-01T01:40:21.000Z</time>
      </trkpt>
      <trkpt lat="40.290193" lon="-3.43379">
        <ele>715.8</ele>
        <time>1970-01-01T01:40:22.000Z</time>
      </trkpt>
      <trkpt lat="40.290187" lon="-3.433876">
        <ele>715.4</ele>
        <time>1970-01-01T01:40:23.000Z</time>
      </trkpt>
      <trkpt lat="40.290187" lon="-3.433962">
        <ele>715</ele>
        <time>1970-01-01T01:40:24.000Z</time>
      </trkpt>
      <trkpt lat="40.290196" lon="-3.434049">
        <ele>714.8</ele>
        <time>1970-01-01T01:40:25.000Z</time>
      </trkpt>
      <trkpt lat="40.290212" lon="-3.434136">
        <ele>714.6</ele>
        <time>1970-01-01T01:40:26.000Z</time>
      </trkpt>
      <trkpt lat="40.290233" lon="-3.434218">
        <ele>714.4</ele>
        <time>1970-01-01T01:40:27.000Z</time>
      </trkpt>
      <trkpt lat="40.290257" lon="-3.434298">
        <ele>714.4</ele>
        <time>1970-01-01T01:40:28.000Z</time>
      </trkpt>
      <trkpt lat="40.290286" lon="-3.434382">
        <ele>714.2</ele>
        <time>1970-01-01T01:40:29.000Z</time>
      </trkpt>
      <trkpt lat="40.290316" lon="-3.434476">
        <ele>714</ele>
        <time>1970-01-01T01:40:30.000Z</time>
      </trkpt>
      <trkpt lat="40.290345" lon="-3.434577">
        <ele>713.6</ele>
        <time>1970-01-01T01:40:31.000Z</time>
      </trkpt>
      <trkpt lat="40.290373" lon="-3.43469">
        <ele>713.2</ele>
        <time>1970-01-01T01:40:32.000Z</time>
      </trkpt>
      <trkpt lat="40.290402" lon="-3.434811">
        <ele>713</ele>
        <time>1970-01-01T01:40:33.000Z</time>
      </trkpt>
      <trkpt lat="40.290428" lon="-3.434939">
        <ele>712.4</ele>
        <time>1970-01-01T01:40:34.000Z</time>
      </trkpt>
      <trkpt lat="40.290451" lon="-3.435073">
        <ele>712</ele>
        <time>1970-01-01T01:40:35.000Z</time>
      </trkpt>
      <trkpt lat="40.290463" lon="-3.435214">
        <ele>711.4</ele>
        <time>1970-01-01T01:40:36.000Z</time>
      </trkpt>
      <trkpt lat="40.290464" lon="-3.435361">
        <ele>711</ele>
        <time>1970-01-01T01:40:37.000Z</time>
      </trkpt>
      <trkpt lat="40.290454" lon="-3.435511">
        <ele>710.2</ele>
        <time>1970-01-01T01:40:38.000Z</time>
      </trkpt>
      <trkpt lat="40.290433" lon="-3.435662">
        <ele>709</ele>
        <time>1970-01-01T01:40:39.000Z</time>
      </trkpt>
      <trkpt lat="40.290406" lon="-3.435814">
        <ele>708.4</ele>
        <time>1970-01-01T01:40:40.000Z</time>
      </trkpt>
      <trkpt lat="40.290377" lon="-3.435968">
        <ele>707</ele>
        <time>1970-01-01T01:40:41.000Z</time>
      </trkpt>
      <trkpt lat="40.290347" lon="-3.436126">
        <ele>706.2</ele>
        <time>1970-01-01T01:40:42.000Z</time>
      </trkpt>
      <trkpt lat="40.290313" lon="-3.436283">
        <ele>705.4</ele>
        <time>1970-01-01T01:40:43.000Z</time>
      </trkpt>
      <trkpt lat="40.290275" lon="-3.436439">
        <ele>704.6</ele>
        <time>1970-01-01T01:40:44.000Z</time>
      </trkpt>
      <trkpt lat="40.290235" lon="-3.436591">
        <ele>703.4</ele>
        <time>1970-01-01T01:40:45.000Z</time>
      </trkpt>
      <trkpt lat="40.290196" lon="-3.436735">
        <ele>702.4</ele>
        <time>1970-01-01T01:40:46.000Z</time>
      </trkpt>
      <trkpt lat="40.290153" lon="-3.436871">
        <ele>702</ele>
        <time>1970-01-01T01:40:47.000Z</time>
      </trkpt>
      <trkpt lat="40.290103" lon="-3.437002">
        <ele>700.8</ele>
        <time>1970-01-01T01:40:48.000Z</time>
      </trkpt>
      <trkpt lat="40.29005" lon="-3.437127">
        <ele>700</ele>
        <time>1970-01-01T01:40:49.000Z</time>
      </trkpt>
      <trkpt lat="40.289993" lon="-3.437242">
        <ele>698.4</ele>
        <time>1970-01-01T01:40:50.000Z</time>
      </trkpt>
      <trkpt lat="40.289937" lon="-3.437344">
        <ele>697.8</ele>
        <time>1970-01-01T01:40:51.000Z</time>
      </trkpt>
      <trkpt lat="40.289891" lon="-3.437434">
        <ele>697</ele>
        <time>1970-01-01T01:40:52.000Z</time>
      </trkpt>
      <trkpt lat="40.289861" lon="-3.437516">
        <ele>696</ele>
        <time>1970-01-01T01:40:53.000Z</time>
      </trkpt>
      <trkpt lat="40.289845" lon="-3.437595">
        <ele>695.2</ele>
        <time>1970-01-01T01:40:54.000Z</time>
      </trkpt>
      <trkpt lat="40.289856" lon="-3.437673">
        <ele>693.8</ele>
        <time>1970-01-01T01:40:55.000Z</time>
      </trkpt>
      <trkpt lat="40.289891" lon="-3.437754">
        <ele>693</ele>
        <time>1970-01-01T01:40:56.000Z</time>
      </trkpt>
      <trkpt lat="40.289936" lon="-3.437837">
        <ele>691.8</ele>
        <time>1970-01-01T01:40:57.000Z</time>
      </trkpt>
      <trkpt lat="40.289982" lon="-3.437928">
        <ele>691.4</ele>
        <time>1970-01-01T01:40:58.000Z</time>
      </trkpt>
      <trkpt lat="40.290019" lon="-3.438029">
        <ele>690.4</ele>
        <time>1970-01-01T01:40:59.000Z</time>
      </trkpt>
      <trkpt lat="40.290044" lon="-3.43814">
        <ele>690</ele>
        <time>1970-01-01T01:41:00.000Z</time>
      </trkpt>
      <trkpt lat="40.290054" lon="-3.438258">
        <ele>689.8</ele>
        <time>1970-01-01T01:41:01.000Z</time>
      </trkpt>
      <trkpt lat="40.290049" lon="-3.438374">
        <ele>689.2</ele>
        <time>1970-01-01T01:41:02.000Z</time>
      </trkpt>
      <trkpt lat="40.290036" lon="-3.438486">
        <ele>689</ele>
        <time>1970-01-01T01:41:03.000Z</time>
      </trkpt>
      <trkpt lat="40.290024" lon="-3.438594">
        <ele>688.6</ele>
        <time>1970-01-01T01:41:04.000Z</time>
      </trkpt>
      <trkpt lat="40.290019" lon="-3.438703">
        <ele>688.4</ele>
        <time>1970-01-01T01:41:05.000Z</time>
      </trkpt>
      <trkpt lat="40.290028" lon="-3.43881">
        <ele>688.2</ele>
        <time>1970-01-01T01:41:06.000Z</time>
      </trkpt>
      <trkpt lat="40.290056" lon="-3.438907">
        <ele>687.8</ele>
        <time>1970-01-01T01:41:07.000Z</time>
      </trkpt>
      <trkpt lat="40.290108" lon="-3.438987">
        <ele>687.6</ele>
        <time>1970-01-01T01:41:08.000Z</time>
      </trkpt>
      <trkpt lat="40.290172" lon="-3.439056">
        <ele>687.2</ele>
        <time>1970-01-01T01:41:09.000Z</time>
      </trkpt>
      <trkpt lat="40.290239" lon="-3.439122">
        <ele>687</ele>
        <time>1970-01-01T01:41:10.000Z</time>
      </trkpt>
      <trkpt lat="40.290309" lon="-3.43919">
        <ele>686.6</ele>
        <time>1970-01-01T01:41:11.000Z</time>
      </trkpt>
      <trkpt lat="40.290376" lon="-3.439259">
        <ele>686.4</ele>
        <time>1970-01-01T01:41:12.000Z</time>
      </trkpt>
      <trkpt lat="40.290436" lon="-3.439339">
        <ele>686.2</ele>
        <time>1970-01-01T01:41:13.000Z</time>
      </trkpt>
      <trkpt lat="40.290491" lon="-3.439426">
        <ele>685.8</ele>
        <time>1970-01-01T01:41:14.000Z</time>
      </trkpt>
      <trkpt lat="40.290538" lon="-3.439521">
        <ele>685.8</ele>
        <time>1970-01-01T01:41:15.000Z</time>
      </trkpt>
      <trkpt lat="40.290576" lon="-3.439623">
        <ele>685.6</ele>
        <time>1970-01-01T01:41:16.000Z</time>
      </trkpt>
      <trkpt lat="40.290606" lon="-3.439731">
        <ele>685.4</ele>
        <time>1970-01-01T01:41:17.000Z</time>
      </trkpt>
      <trkpt lat="40.29063" lon="-3.439842">
        <ele>684.6</ele>
        <time>1970-01-01T01:41:18.000Z</time>
      </trkpt>
      <trkpt lat="40.290651" lon="-3.439955">
        <ele>684.2</ele>
        <time>1970-01-01T01:41:19.000Z</time>
      </trkpt>
      <trkpt lat="40.290667" lon="-3.440071">
        <ele>683.6</ele>
        <time>1970-01-01T01:41:20.000Z</time>
      </trkpt>
      <trkpt lat="40.290678" lon="-3.44019">
        <ele>682.8</ele>
        <time>1970-01-01T01:41:21.000Z</time>
      </trkpt>
      <trkpt lat="40.290687" lon="-3.440308">
        <ele>682.6</ele>
        <time>1970-01-01T01:41:22.000Z</time>
      </trkpt>
      <trkpt lat="40.290701" lon="-3.440419">
        <ele>681.8</ele>
        <time>1970-01-01T01:41:23.000Z</time>
      </trkpt>
      <trkpt lat="40.290719" lon="-3.440527">
        <ele>681.2</ele>
        <time>1970-01-01T01:41:24.000Z</time>
      </trkpt>
      <trkpt lat="40.290739" lon="-3.44063">
        <ele>680.6</ele>
        <time>1970-01-01T01:41:25.000Z</time>
      </trkpt>
      <trkpt lat="40.290758" lon="-3.440728">
        <ele>680.4</ele>
        <time>1970-01-01T01:41:26.000Z</time>
      </trkpt>
      <trkpt lat="40.290781" lon="-3.440826">
        <ele>679.8</ele>
        <time>1970-01-01T01:41:27.000Z</time>
      </trkpt>
      <trkpt lat="40.290812" lon="-3.440922">
        <ele>679.2</ele>
        <time>1970-01-01T01:41:28.000Z</time>
      </trkpt>
      <trkpt lat="40.290845" lon="-3.441015">
        <ele>678.6</ele>
        <time>1970-01-01T01:41:29.000Z</time>
      </trkpt>
      <trkpt lat="40.290877" lon="-3.441104">
        <ele>677.8</ele>
        <time>1970-01-01T01:41:30.000Z</time>
      </trkpt>
      <trkpt lat="40.29091" lon="-3.441188">
        <ele>677.6</ele>
        <time>1970-01-01T01:41:31.000Z</time>
      </trkpt>
      <trkpt lat="40.290929" lon="-3.441274">
        <ele>677.2</ele>
        <time>1970-01-01T01:41:32.000Z</time>
      </trkpt>
      <trkpt lat="40.290936" lon="-3.441363">
        <ele>677.2</ele>
        <time>1970-01-01T01:41:33.000Z</time>
      </trkpt>
      <trkpt lat="40.290931" lon="-3.441455">
        <ele>676.8</ele>
        <time>1970-01-01T01:41:34.000Z</time>
      </trkpt>
      <trkpt lat="40.290905" lon="-3.441536">
        <ele>676.6</ele>
        <time>1970-01-01T01:41:35.000Z</time>
      </trkpt>
      <trkpt lat="40.290867" lon="-3.441601">
        <ele>676.6</ele>
        <time>1970-01-01T01:41:36.000Z</time>
      </trkpt>
      <trkpt lat="40.29082" lon="-3.441651">
        <ele>676.4</ele>
        <time>1970-01-01T01:41:37.000Z</time>
      </trkpt>
      <trkpt lat="40.290775" lon="-3.441695">
        <ele>676.4</ele>
        <time>1970-01-01T01:41:38.000Z</time>
      </trkpt>
      <trkpt lat="40.290739" lon="-3.441739">
        <ele>676.2</ele>
        <time>1970-01-01T01:41:39.000Z</time>
      </trkpt>
      <trkpt lat="40.290706" lon="-3.441779">
        <ele>676.2</ele>
        <time>1970-01-01T01:41:40.000Z</time>
      </trkpt>
      <trkpt lat="40.290674" lon="-3.441816">
        <ele>676.2</ele>
        <time>1970-01-01T01:41:41.000Z</time>
      </trkpt>
      <trkpt lat="40.290637" lon="-3.441852">
        <ele>676.2</ele>
        <time>1970-01-01T01:41:42.000Z</time>
      </trkpt>
      <trkpt lat="40.290606" lon="-3.441889">
        <ele>676.2</ele>
        <time>1970-01-01T01:41:43.000Z</time>
      </trkpt>
      <trkpt lat="40.290583" lon="-3.441925">
        <ele>676.2</ele>
        <time>1970-01-01T01:41:44.000Z</time>
      </trkpt>
      <trkpt lat="40.290567" lon="-3.441959">
        <ele>676.2</ele>
        <time>1970-01-01T01:41:45.000Z</time>
      </trkpt>
      <trkpt lat="40.290556" lon="-3.441992">
        <ele>676.4</ele>
        <time>1970-01-01T01:41:46.000Z</time>
      </trkpt>
      <trkpt lat="40.290542" lon="-3.442021">
        <ele>676.4</ele>
        <time>1970-01-01T01:41:47.000Z</time>
      </trkpt>
      <trkpt lat="40.290528" lon="-3.442046">
        <ele>676.6</ele>
        <time>1970-01-01T01:41:48.000Z</time>
      </trkpt>
      <trkpt lat="40.290513" lon="-3.442071">
        <ele>676.8</ele>
        <time>1970-01-01T01:41:49.000Z</time>
      </trkpt>
      <trkpt lat="40.290503" lon="-3.4421">
        <ele>676.8</ele>
        <time>1970-01-01T01:41:50.000Z</time>
      </trkpt>
      <trkpt lat="40.290499" lon="-3.442133">
        <ele>677</ele>
        <time>1970-01-01T01:41:51.000Z</time>
      </trkpt>
      <trkpt lat="40.290507" lon="-3.442168">
        <ele>677</ele>
        <time>1970-01-01T01:41:52.000Z</time>
      </trkpt>
      <trkpt lat="40.290527" lon="-3.4422">
        <ele>677</ele>
        <time>1970-01-01T01:41:53.000Z</time>
      </trkpt>
      <trkpt lat="40.290556" lon="-3.442229">
        <ele>677</ele>
        <time>1970-01-01T01:41:54.000Z</time>
      </trkpt>
      <trkpt lat="40.290588" lon="-3.442257">
        <ele>677</ele>
        <time>1970-01-01T01:41:55.000Z</time>
      </trkpt>
      <trkpt lat="40.290629" lon="-3.442283">
        <ele>677</ele>
        <time>1970-01-01T01:41:56.000Z</time>
      </trkpt>
      <trkpt lat="40.290677" lon="-3.442313">
        <ele>676.8</ele>
        <time>1970-01-01T01:41:57.000Z</time>
      </trkpt>
      <trkpt lat="40.290727" lon="-3.442356">
        <ele>676.8</ele>
        <time>1970-01-01T01:41:58.000Z</time>
      </trkpt>
      <trkpt lat="40.290778" lon="-3.442402">
        <ele>676.8</ele>
        <time>1970-01-01T01:41:59.000Z</time>
      </trkpt>
      <trkpt lat="40.290833" lon="-3.44245">
        <ele>676.6</ele>
        <time>1970-01-01T01:42:00.000Z</time>
      </trkpt>
      <trkpt lat="40.290891" lon="-3.442499">
        <ele>676.6</ele>
        <time>1970-01-01T01:42:01.000Z</time>
      </trkpt>
      <trkpt lat="40.290953" lon="-3.442554">
        <ele>676.2</ele>
        <time>1970-01-01T01:42:02.000Z</time>
      </trkpt>
      <trkpt lat="40.291016" lon="-3.442616">
        <ele>676</ele>
        <time>1970-01-01T01:42:03.000Z</time>
      </trkpt>
      <trkpt lat="40.291084" lon="-3.442679">
        <ele>675.8</ele>
        <time>1970-01-01T01:42:04.000Z</time>
      </trkpt>
      <trkpt lat="40.291153" lon="-3.442742">
        <ele>675.4</ele>
        <time>1970-01-01T01:42:05.000Z</time>
      </trkpt>
      <trkpt lat="40.29121" lon="-3.44279">
        <ele>675</ele>
        <time>1970-01-01T01:42:06.000Z</time>
      </trkpt>
      <trkpt lat="40.291303" lon="-3.442856">
        <ele>674.6</ele>
        <time>1970-01-01T01:42:07.000Z</time>
      </trkpt>
      <trkpt lat="40.291366" lon="-3.442893">
        <ele>674.4</ele>
        <time>1970-01-01T01:42:08.000Z</time>
      </trkpt>
      <trkpt lat="40.29145" lon="-3.442934">
        <ele>673.6</ele>
        <time>1970-01-01T01:42:09.000Z</time>
      </trkpt>
      <trkpt lat="40.291537" lon="-3.442966">
        <ele>673</ele>
        <time>1970-01-01T01:42:10.000Z</time>
      </trkpt>
      <trkpt lat="40.291626" lon="-3.442996">
        <ele>672.4</ele>
        <time>1970-01-01T01:42:11.000Z</time>
      </trkpt>
      <trkpt lat="40.291733" lon="-3.443036">
        <ele>671.8</ele>
        <time>1970-01-01T01:42:12.000Z</time>
      </trkpt>
      <trkpt lat="40.291801" lon="-3.443064">
        <ele>671.4</ele>
        <time>1970-01-01T01:42:13.000Z</time>
      </trkpt>
      <trkpt lat="40.291889" lon="-3.443099">
        <ele>671</ele>
        <time>1970-01-01T01:42:14.000Z</time>
      </trkpt>
      <trkpt lat="40.291975" lon="-3.443143">
        <ele>670.6</ele>
        <time>1970-01-01T01:42:15.000Z</time>
      </trkpt>
      <trkpt lat="40.29206" lon="-3.443189">
        <ele>670</ele>
        <time>1970-01-01T01:42:16.000Z</time>
      </trkpt>
      <trkpt lat="40.292123" lon="-3.443213">
        <ele>669.4</ele>
        <time>1970-01-01T01:42:17.000Z</time>
      </trkpt>
      <trkpt lat="40.292186" lon="-3.443237">
        <ele>669.2</ele>
        <time>1970-01-01T01:42:18.000Z</time>
      </trkpt>
      <trkpt lat="40.292311" lon="-3.443285">
        <ele>668.6</ele>
        <time>1970-01-01T01:42:19.000Z</time>
      </trkpt>
      <trkpt lat="40.292395" lon="-3.443302">
        <ele>668.4</ele>
        <time>1970-01-01T01:42:20.000Z</time>
      </trkpt>
      <trkpt lat="40.29248" lon="-3.443324">
        <ele>668</ele>
        <time>1970-01-01T01:42:21.000Z</time>
      </trkpt>
      <trkpt lat="40.292564" lon="-3.443345">
        <ele>667.8</ele>
        <time>1970-01-01T01:42:22.000Z</time>
      </trkpt>
      <trkpt lat="40.292664" lon="-3.443359">
        <ele>667.6</ele>
        <time>1970-01-01T01:42:23.000Z</time>
      </trkpt>
      <trkpt lat="40.292728" lon="-3.44335">
        <ele>667.2</ele>
        <time>1970-01-01T01:42:24.000Z</time>
      </trkpt>
      <trkpt lat="40.292808" lon="-3.443324">
        <ele>666.8</ele>
        <time>1970-01-01T01:42:25.000Z</time>
      </trkpt>
      <trkpt lat="40.292887" lon="-3.443288">
        <ele>666.4</ele>
        <time>1970-01-01T01:42:26.000Z</time>
      </trkpt>
      <trkpt lat="40.292966" lon="-3.443243">
        <ele>666.2</ele>
        <time>1970-01-01T01:42:27.000Z</time>
      </trkpt>
      <trkpt lat="40.293047" lon="-3.443196">
        <ele>665.8</ele>
        <time>1970-01-01T01:42:28.000Z</time>
      </trkpt>
      <trkpt lat="40.293128" lon="-3.443152">
        <ele>665.6</ele>
        <time>1970-01-01T01:42:29.000Z</time>
      </trkpt>
      <trkpt lat="40.293209" lon="-3.443114">
        <ele>665.4</ele>
        <time>1970-01-01T01:42:30.000Z</time>
      </trkpt>
      <trkpt lat="40.29329" lon="-3.443078">
        <ele>665.2</ele>
        <time>1970-01-01T01:42:31.000Z</time>
      </trkpt>
      <trkpt lat="40.293369" lon="-3.443043">
        <ele>665</ele>
        <time>1970-01-01T01:42:32.000Z</time>
      </trkpt>
      <trkpt lat="40.293447" lon="-3.443008">
        <ele>664.8</ele>
        <time>1970-01-01T01:42:33.000Z</time>
      </trkpt>
      <trkpt lat="40.293526" lon="-3.442976">
        <ele>664.4</ele>
        <time>1970-01-01T01:42:34.000Z</time>
      </trkpt>
      <trkpt lat="40.293607" lon="-3.442947">
        <ele>663.8</ele>
        <time>1970-01-01T01:42:35.000Z</time>
      </trkpt>
      <trkpt lat="40.29369" lon="-3.442917">
        <ele>663.6</ele>
        <time>1970-01-01T01:42:36.000Z</time>
      </trkpt>
      <trkpt lat="40.293771" lon="-3.442889">
        <ele>663.2</ele>
        <time>1970-01-01T01:42:37.000Z</time>
      </trkpt>
      <trkpt lat="40.293853" lon="-3.442865">
        <ele>662.6</ele>
        <time>1970-01-01T01:42:38.000Z</time>
      </trkpt>
      <trkpt lat="40.293934" lon="-3.442843">
        <ele>662.4</ele>
        <time>1970-01-01T01:42:39.000Z</time>
      </trkpt>
      <trkpt lat="40.294015" lon="-3.442815">
        <ele>662</ele>
        <time>1970-01-01T01:42:40.000Z</time>
      </trkpt>
      <trkpt lat="40.294094" lon="-3.44278">
        <ele>661.8</ele>
        <time>1970-01-01T01:42:41.000Z</time>
      </trkpt>
      <trkpt lat="40.294173" lon="-3.442745">
        <ele>661.4</ele>
        <time>1970-01-01T01:42:42.000Z</time>
      </trkpt>
      <trkpt lat="40.294254" lon="-3.442707">
        <ele>661.2</ele>
        <time>1970-01-01T01:42:43.000Z</time>
      </trkpt>
      <trkpt lat="40.294334" lon="-3.442665">
        <ele>660.8</ele>
        <time>1970-01-01T01:42:44.000Z</time>
      </trkpt>
      <trkpt lat="40.294414" lon="-3.442614">
        <ele>660.6</ele>
        <time>1970-01-01T01:42:45.000Z</time>
      </trkpt>
      <trkpt lat="40.294491" lon="-3.442558">
        <ele>660.4</ele>
        <time>1970-01-01T01:42:46.000Z</time>
      </trkpt>
      <trkpt lat="40.29457" lon="-3.442501">
        <ele>660.4</ele>
        <time>1970-01-01T01:42:47.000Z</time>
      </trkpt>
      <trkpt lat="40.294646" lon="-3.442446">
        <ele>660</ele>
        <time>1970-01-01T01:42:48.000Z</time>
      </trkpt>
      <trkpt lat="40.294725" lon="-3.442392">
        <ele>660</ele>
        <time>1970-01-01T01:42:49.000Z</time>
      </trkpt>
      <trkpt lat="40.294802" lon="-3.44234">
        <ele>659.8</ele>
        <time>1970-01-01T01:42:50.000Z</time>
      </trkpt>
      <trkpt lat="40.294877" lon="-3.44229">
        <ele>659.4</ele>
        <time>1970-01-01T01:42:51.000Z</time>
      </trkpt>
      <trkpt lat="40.294955" lon="-3.442244">
        <ele>659</ele>
        <time>1970-01-01T01:42:52.000Z</time>
      </trkpt>
      <trkpt lat="40.295034" lon="-3.4422">
        <ele>658.8</ele>
        <time>1970-01-01T01:42:53.000Z</time>
      </trkpt>
      <trkpt lat="40.295112" lon="-3.442158">
        <ele>658.6</ele>
        <time>1970-01-01T01:42:54.000Z</time>
      </trkpt>
      <trkpt lat="40.295187" lon="-3.442121">
        <ele>658.2</ele>
        <time>1970-01-01T01:42:55.000Z</time>
      </trkpt>
      <trkpt lat="40.295263" lon="-3.442087">
        <ele>657.6</ele>
        <time>1970-01-01T01:42:56.000Z</time>
      </trkpt>
      <trkpt lat="40.295355" lon="-3.442046">
        <ele>657.4</ele>
        <time>1970-01-01T01:42:57.000Z</time>
      </trkpt>
      <trkpt lat="40.295432" lon="-3.442014">
        <ele>657</ele>
        <time>1970-01-01T01:42:58.000Z</time>
      </trkpt>
      <trkpt lat="40.295508" lon="-3.44198">
        <ele>656.6</ele>
        <time>1970-01-01T01:42:59.000Z</time>
      </trkpt>
      <trkpt lat="40.295581" lon="-3.441936">
        <ele>656.4</ele>
        <time>1970-01-01T01:43:00.000Z</time>
      </trkpt>
      <trkpt lat="40.295643" lon="-3.441878">
        <ele>656</ele>
        <time>1970-01-01T01:43:01.000Z</time>
      </trkpt>
      <trkpt lat="40.295689" lon="-3.441804">
        <ele>655.8</ele>
        <time>1970-01-01T01:43:02.000Z</time>
      </trkpt>
      <trkpt lat="40.295722" lon="-3.441726">
        <ele>655.2</ele>
        <time>1970-01-01T01:43:03.000Z</time>
      </trkpt>
      <trkpt lat="40.295761" lon="-3.441654">
        <ele>654.8</ele>
        <time>1970-01-01T01:43:04.000Z</time>
      </trkpt>
      <trkpt lat="40.295815" lon="-3.441599">
        <ele>654.2</ele>
        <time>1970-01-01T01:43:05.000Z</time>
      </trkpt>
      <trkpt lat="40.295881" lon="-3.44156">
        <ele>653.8</ele>
        <time>1970-01-01T01:43:06.000Z</time>
      </trkpt>
      <trkpt lat="40.295956" lon="-3.441547">
        <ele>653.4</ele>
        <time>1970-01-01T01:43:07.000Z</time>
      </trkpt>
      <trkpt lat="40.296034" lon="-3.441549">
        <ele>653.2</ele>
        <time>1970-01-01T01:43:08.000Z</time>
      </trkpt>
      <trkpt lat="40.296111" lon="-3.441546">
        <ele>653</ele>
        <time>1970-01-01T01:43:09.000Z</time>
      </trkpt>
      <trkpt lat="40.296186" lon="-3.441526">
        <ele>652.6</ele>
        <time>1970-01-01T01:43:10.000Z</time>
      </trkpt>
      <trkpt lat="40.296259" lon="-3.441488">
        <ele>652.2</ele>
        <time>1970-01-01T01:43:11.000Z</time>
      </trkpt>
      <trkpt lat="40.296328" lon="-3.441434">
        <ele>652</ele>
        <time>1970-01-01T01:43:12.000Z</time>
      </trkpt>
      <trkpt lat="40.296397" lon="-3.441378">
        <ele>651.2</ele>
        <time>1970-01-01T01:43:13.000Z</time>
      </trkpt>
      <trkpt lat="40.296471" lon="-3.44133">
        <ele>651</ele>
        <time>1970-01-01T01:43:14.000Z</time>
      </trkpt>
      <trkpt lat="40.296548" lon="-3.441293">
        <ele>650.4</ele>
        <time>1970-01-01T01:43:15.000Z</time>
      </trkpt>
      <trkpt lat="40.296632" lon="-3.441265">
        <ele>650.2</ele>
        <time>1970-01-01T01:43:16.000Z</time>
      </trkpt>
      <trkpt lat="40.29672" lon="-3.441241">
        <ele>650</ele>
        <time>1970-01-01T01:43:17.000Z</time>
      </trkpt>
      <trkpt lat="40.296808" lon="-3.441219">
        <ele>649.6</ele>
        <time>1970-01-01T01:43:18.000Z</time>
      </trkpt>
      <trkpt lat="40.296893" lon="-3.441199">
        <ele>649.2</ele>
        <time>1970-01-01T01:43:19.000Z</time>
      </trkpt>
      <trkpt lat="40.296977" lon="-3.44118">
        <ele>649</ele>
        <time>1970-01-01T01:43:20.000Z</time>
      </trkpt>
      <trkpt lat="40.297061" lon="-3.441161">
        <ele>649</ele>
        <time>1970-01-01T01:43:21.000Z</time>
      </trkpt>
      <trkpt lat="40.297144" lon="-3.441139">
        <ele>648.8</ele>
        <time>1970-01-01T01:43:22.000Z</time>
      </trkpt>
      <trkpt lat="40.297224" lon="-3.441111">
        <ele>648.8</ele>
        <time>1970-01-01T01:43:23.000Z</time>
      </trkpt>
      <trkpt lat="40.297299" lon="-3.441079">
        <ele>648.6</ele>
        <time>1970-01-01T01:43:24.000Z</time>
      </trkpt>
      <trkpt lat="40.297374" lon="-3.441041">
        <ele>648.6</ele>
        <time>1970-01-01T01:43:25.000Z</time>
      </trkpt>
      <trkpt lat="40.297444" lon="-3.440996">
        <ele>648.4</ele>
        <time>1970-01-01T01:43:26.000Z</time>
      </trkpt>
      <trkpt lat="40.297505" lon="-3.440941">
        <ele>648.2</ele>
        <time>1970-01-01T01:43:27.000Z</time>
      </trkpt>
      <trkpt lat="40.297562" lon="-3.440879">
        <ele>648</ele>
        <time>1970-01-01T01:43:28.000Z</time>
      </trkpt>
      <trkpt lat="40.297615" lon="-3.440818">
        <ele>647.6</ele>
        <time>1970-01-01T01:43:29.000Z</time>
      </trkpt>
      <trkpt lat="40.297663" lon="-3.44076">
        <ele>647.6</ele>
        <time>1970-01-01T01:43:30.000Z</time>
      </trkpt>
      <trkpt lat="40.29771" lon="-3.440704">
        <ele>647.4</ele>
        <time>1970-01-01T01:43:31.000Z</time>
      </trkpt>
      <trkpt lat="40.297755" lon="-3.440651">
        <ele>647.2</ele>
        <time>1970-01-01T01:43:32.000Z</time>
      </trkpt>
      <trkpt lat="40.2978" lon="-3.440601">
        <ele>647.2</ele>
        <time>1970-01-01T01:43:33.000Z</time>
      </trkpt>
      <trkpt lat="40.297848" lon="-3.440548">
        <ele>647</ele>
        <time>1970-01-01T01:43:34.000Z</time>
      </trkpt>
      <trkpt lat="40.297895" lon="-3.440492">
        <ele>647</ele>
        <time>1970-01-01T01:43:35.000Z</time>
      </trkpt>
      <trkpt lat="40.297941" lon="-3.440434">
        <ele>647</ele>
        <time>1970-01-01T01:43:36.000Z</time>
      </trkpt>
      <trkpt lat="40.297991" lon="-3.44038">
        <ele>647</ele>
        <time>1970-01-01T01:43:37.000Z</time>
      </trkpt>
      <trkpt lat="40.298042" lon="-3.440325">
        <ele>646.8</ele>
        <time>1970-01-01T01:43:38.000Z</time>
      </trkpt>
      <trkpt lat="40.298092" lon="-3.440268">
        <ele>646.6</ele>
        <time>1970-01-01T01:43:39.000Z</time>
      </trkpt>
      <trkpt lat="40.298145" lon="-3.440213">
        <ele>646.4</ele>
        <time>1970-01-01T01:43:40.000Z</time>
      </trkpt>
      <trkpt lat="40.298203" lon="-3.440158">
        <ele>646.2</ele>
        <time>1970-01-01T01:43:41.000Z</time>
      </trkpt>
      <trkpt lat="40.29826" lon="-3.440098">
        <ele>646</ele>
        <time>1970-01-01T01:43:42.000Z</time>
      </trkpt>
      <trkpt lat="40.298317" lon="-3.44004">
        <ele>645.8</ele>
        <time>1970-01-01T01:43:43.000Z</time>
      </trkpt>
      <trkpt lat="40.29837" lon="-3.439981">
        <ele>645.8</ele>
        <time>1970-01-01T01:43:44.000Z</time>
      </trkpt>
      <trkpt lat="40.298424" lon="-3.439927">
        <ele>645.6</ele>
        <time>1970-01-01T01:43:45.000Z</time>
      </trkpt>
      <trkpt lat="40.298476" lon="-3.439877">
        <ele>645.4</ele>
        <time>1970-01-01T01:43:46.000Z</time>
      </trkpt>
      <trkpt lat="40.298528" lon="-3.439826">
        <ele>645.2</ele>
        <time>1970-01-01T01:43:47.000Z</time>
      </trkpt>
      <trkpt lat="40.298581" lon="-3.439771">
        <ele>644.8</ele>
        <time>1970-01-01T01:43:48.000Z</time>
      </trkpt>
      <trkpt lat="40.298634" lon="-3.439723">
        <ele>644.6</ele>
        <time>1970-01-01T01:43:49.000Z</time>
      </trkpt>
      <trkpt lat="40.298677" lon="-3.439681">
        <ele>644.2</ele>
        <time>1970-01-01T01:43:50.000Z</time>
      </trkpt>
      <trkpt lat="40.298707" lon="-3.439647">
        <ele>644.2</ele>
        <time>1970-01-01T01:43:51.000Z</time>
      </trkpt>
      <trkpt lat="40.298732" lon="-3.439629">
        <ele>643.8</ele>
        <time>1970-01-01T01:43:52.000Z</time>
      </trkpt>
      <trkpt lat="40.29876" lon="-3.439611">
        <ele>643.8</ele>
        <time>1970-01-01T01:43:53.000Z</time>
      </trkpt>
      <trkpt lat="40.298784" lon="-3.439594">
        <ele>643.4</ele>
        <time>1970-01-01T01:43:54.000Z</time>
      </trkpt>
      <trkpt lat="40.298823" lon="-3.439588">
        <ele>643.2</ele>
        <time>1970-01-01T01:43:55.000Z</time>
      </trkpt>
      <trkpt lat="40.29887" lon="-3.439601">
        <ele>643.2</ele>
        <time>1970-01-01T01:43:56.000Z</time>
      </trkpt>
      <trkpt lat="40.29892" lon="-3.439633">
        <ele>643</ele>
        <time>1970-01-01T01:43:57.000Z</time>
      </trkpt>
      <trkpt lat="40.298965" lon="-3.439682">
        <ele>642.8</ele>
        <time>1970-01-01T01:43:58.000Z</time>
      </trkpt>
      <trkpt lat="40.299011" lon="-3.439736">
        <ele>642.4</ele>
        <time>1970-01-01T01:43:59.000Z</time>
      </trkpt>
      <trkpt lat="40.299058" lon="-3.439795">
        <ele>642.2</ele>
        <time>1970-01-01T01:44:00.000Z</time>
      </trkpt>
      <trkpt lat="40.299108" lon="-3.439855">
        <ele>642.2</ele>
        <time>1970-01-01T01:44:01.000Z</time>
      </trkpt>
      <trkpt lat="40.299152" lon="-3.439918">
        <ele>641.8</ele>
        <time>1970-01-01T01:44:02.000Z</time>
      </trkpt>
      <trkpt lat="40.29918" lon="-3.439998">
        <ele>641.8</ele>
        <time>1970-01-01T01:44:03.000Z</time>
      </trkpt>
      <trkpt lat="40.299197" lon="-3.440091">
        <ele>641.2</ele>
        <time>1970-01-01T01:44:04.000Z</time>
      </trkpt>
      <trkpt lat="40.299204" lon="-3.440186">
        <ele>641</ele>
        <time>1970-01-01T01:44:05.000Z</time>
      </trkpt>
      <trkpt lat="40.29921" lon="-3.440281">
        <ele>640.6</ele>
        <time>1970-01-01T01:44:06.000Z</time>
      </trkpt>
      <trkpt lat="40.299222" lon="-3.44036">
        <ele>640.6</ele>
        <time>1970-01-01T01:44:07.000Z</time>
      </trkpt>
      <trkpt lat="40.299253" lon="-3.440474">
        <ele>640</ele>
        <time>1970-01-01T01:44:08.000Z</time>
      </trkpt>
      <trkpt lat="40.299314" lon="-3.440536">
        <ele>639</ele>
        <time>1970-01-01T01:44:09.000Z</time>
      </trkpt>
      <trkpt lat="40.299396" lon="-3.440575">
        <ele>638.4</ele>
        <time>1970-01-01T01:44:10.000Z</time>
      </trkpt>
      <trkpt lat="40.299478" lon="-3.440611">
        <ele>637.6</ele>
        <time>1970-01-01T01:44:11.000Z</time>
      </trkpt>
      <trkpt lat="40.299563" lon="-3.440637">
        <ele>637.4</ele>
        <time>1970-01-01T01:44:12.000Z</time>
      </trkpt>
      <trkpt lat="40.299649" lon="-3.44065">
        <ele>636.8</ele>
        <time>1970-01-01T01:44:13.000Z</time>
      </trkpt>
      <trkpt lat="40.29973" lon="-3.440671">
        <ele>636.6</ele>
        <time>1970-01-01T01:44:14.000Z</time>
      </trkpt>
      <trkpt lat="40.299817" lon="-3.440679">
        <ele>635.8</ele>
        <time>1970-01-01T01:44:15.000Z</time>
      </trkpt>
      <trkpt lat="40.299905" lon="-3.440689">
        <ele>635.2</ele>
        <time>1970-01-01T01:44:16.000Z</time>
      </trkpt>
      <trkpt lat="40.299999" lon="-3.440696">
        <ele>635</ele>
        <time>1970-01-01T01:44:17.000Z</time>
      </trkpt>
      <trkpt lat="40.300096" lon="-3.440698">
        <ele>634.6</ele>
        <time>1970-01-01T01:44:18.000Z</time>
      </trkpt>
      <trkpt lat="40.300189" lon="-3.440718">
        <ele>634.4</ele>
        <time>1970-01-01T01:44:19.000Z</time>
      </trkpt>
      <trkpt lat="40.300279" lon="-3.440745">
        <ele>633.8</ele>
        <time>1970-01-01T01:44:20.000Z</time>
      </trkpt>
      <trkpt lat="40.300366" lon="-3.440793">
        <ele>633.4</ele>
        <time>1970-01-01T01:44:21.000Z</time>
      </trkpt>
      <trkpt lat="40.300448" lon="-3.440852">
        <ele>632.8</ele>
        <time>1970-01-01T01:44:22.000Z</time>
      </trkpt>
      <trkpt lat="40.300522" lon="-3.440925">
        <ele>632.2</ele>
        <time>1970-01-01T01:44:23.000Z</time>
      </trkpt>
      <trkpt lat="40.300586" lon="-3.440999">
        <ele>632</ele>
        <time>1970-01-01T01:44:24.000Z</time>
      </trkpt>
      <trkpt lat="40.300652" lon="-3.44108">
        <ele>631.6</ele>
        <time>1970-01-01T01:44:25.000Z</time>
      </trkpt>
      <trkpt lat="40.300709" lon="-3.441154">
        <ele>631.4</ele>
        <time>1970-01-01T01:44:26.000Z</time>
      </trkpt>
      <trkpt lat="40.300776" lon="-3.441202">
        <ele>631</ele>
        <time>1970-01-01T01:44:27.000Z</time>
      </trkpt>
      <trkpt lat="40.300843" lon="-3.441249">
        <ele>631</ele>
        <time>1970-01-01T01:44:28.000Z</time>
      </trkpt>
      <trkpt lat="40.300908" lon="-3.441304">
        <ele>630.8</ele>
        <time>1970-01-01T01:44:29.000Z</time>
      </trkpt>
      <trkpt lat="40.300964" lon="-3.441369">
        <ele>630.6</ele>
        <time>1970-01-01T01:44:30.000Z</time>
      </trkpt>
      <trkpt lat="40.301011" lon="-3.44144">
        <ele>630.4</ele>
        <time>1970-01-01T01:44:31.000Z</time>
      </trkpt>
      <trkpt lat="40.30106" lon="-3.441495">
        <ele>630.2</ele>
        <time>1970-01-01T01:44:32.000Z</time>
      </trkpt>
      <trkpt lat="40.301115" lon="-3.44152">
        <ele>630</ele>
        <time>1970-01-01T01:44:33.000Z</time>
      </trkpt>
      <trkpt lat="40.301175" lon="-3.441518">
        <ele>629.6</ele>
        <time>1970-01-01T01:44:34.000Z</time>
      </trkpt>
      <trkpt lat="40.301233" lon="-3.441507">
        <ele>629.4</ele>
        <time>1970-01-01T01:44:35.000Z</time>
      </trkpt>
      <trkpt lat="40.301292" lon="-3.44148">
        <ele>629.2</ele>
        <time>1970-01-01T01:44:36.000Z</time>
      </trkpt>
      <trkpt lat="40.301356" lon="-3.441447">
        <ele>629.2</ele>
        <time>1970-01-01T01:44:37.000Z</time>
      </trkpt>
      <trkpt lat="40.301421" lon="-3.441411">
        <ele>629</ele>
        <time>1970-01-01T01:44:38.000Z</time>
      </trkpt>
      <trkpt lat="40.301487" lon="-3.441378">
        <ele>628.8</ele>
        <time>1970-01-01T01:44:39.000Z</time>
      </trkpt>
      <trkpt lat="40.301556" lon="-3.441355">
        <ele>628.8</ele>
        <time>1970-01-01T01:44:40.000Z</time>
      </trkpt>
      <trkpt lat="40.301613" lon="-3.441329">
        <ele>628.6</ele>
        <time>1970-01-01T01:44:41.000Z</time>
      </trkpt>
      <trkpt lat="40.301665" lon="-3.441304">
        <ele>628.4</ele>
        <time>1970-01-01T01:44:42.000Z</time>
      </trkpt>
      <trkpt lat="40.301716" lon="-3.441281">
        <ele>628.2</ele>
        <time>1970-01-01T01:44:43.000Z</time>
      </trkpt>
      <trkpt lat="40.301768" lon="-3.441254">
        <ele>628</ele>
        <time>1970-01-01T01:44:44.000Z</time>
      </trkpt>
      <trkpt lat="40.301822" lon="-3.441234">
        <ele>627.8</ele>
        <time>1970-01-01T01:44:45.000Z</time>
      </trkpt>
      <trkpt lat="40.301879" lon="-3.441203">
        <ele>627.8</ele>
        <time>1970-01-01T01:44:46.000Z</time>
      </trkpt>
      <trkpt lat="40.301929" lon="-3.441193">
        <ele>627.8</ele>
        <time>1970-01-01T01:44:47.000Z</time>
      </trkpt>
      <trkpt lat="40.301978" lon="-3.441205">
        <ele>627.8</ele>
        <time>1970-01-01T01:44:48.000Z</time>
      </trkpt>
      <trkpt lat="40.302024" lon="-3.441236">
        <ele>628</ele>
        <time>1970-01-01T01:44:49.000Z</time>
      </trkpt>
      <trkpt lat="40.30207" lon="-3.441295">
        <ele>628.2</ele>
        <time>1970-01-01T01:44:50.000Z</time>
      </trkpt>
      <trkpt lat="40.302121" lon="-3.441363">
        <ele>628.2</ele>
        <time>1970-01-01T01:44:51.000Z</time>
      </trkpt>
      <trkpt lat="40.302167" lon="-3.441438">
        <ele>628.2</ele>
        <time>1970-01-01T01:44:52.000Z</time>
      </trkpt>
      <trkpt lat="40.302212" lon="-3.441519">
        <ele>628.4</ele>
        <time>1970-01-01T01:44:53.000Z</time>
      </trkpt>
      <trkpt lat="40.302249" lon="-3.441613">
        <ele>628.4</ele>
        <time>1970-01-01T01:44:54.000Z</time>
      </trkpt>
      <trkpt lat="40.302283" lon="-3.441708">
        <ele>628.4</ele>
        <time>1970-01-01T01:44:55.000Z</time>
      </trkpt>
      <trkpt lat="40.302317" lon="-3.441809">
        <ele>628.4</ele>
        <time>1970-01-01T01:44:56.000Z</time>
      </trkpt>
      <trkpt lat="40.302352" lon="-3.441905">
        <ele>628.4</ele>
        <time>1970-01-01T01:44:57.000Z</time>
      </trkpt>
      <trkpt lat="40.302386" lon="-3.441999">
        <ele>628.2</ele>
        <time>1970-01-01T01:44:58.000Z</time>
      </trkpt>
      <trkpt lat="40.302418" lon="-3.442094">
        <ele>628</ele>
        <time>1970-01-01T01:44:59.000Z</time>
      </trkpt>
      <trkpt lat="40.302447" lon="-3.442186">
        <ele>627.8</ele>
        <time>1970-01-01T01:45:00.000Z</time>
      </trkpt>
      <trkpt lat="40.302483" lon="-3.442271">
        <ele>627.4</ele>
        <time>1970-01-01T01:45:01.000Z</time>
      </trkpt>
      <trkpt lat="40.302524" lon="-3.442343">
        <ele>627.2</ele>
        <time>1970-01-01T01:45:02.000Z</time>
      </trkpt>
      <trkpt lat="40.30257" lon="-3.442399">
        <ele>627</ele>
        <time>1970-01-01T01:45:03.000Z</time>
      </trkpt>
      <trkpt lat="40.302616" lon="-3.442439">
        <ele>626.8</ele>
        <time>1970-01-01T01:45:04.000Z</time>
      </trkpt>
      <trkpt lat="40.302664" lon="-3.442462">
        <ele>626.8</ele>
        <time>1970-01-01T01:45:05.000Z</time>
      </trkpt>
      <trkpt lat="40.302705" lon="-3.44247">
        <ele>626.4</ele>
        <time>1970-01-01T01:45:06.000Z</time>
      </trkpt>
      <trkpt lat="40.302734" lon="-3.442467">
        <ele>626</ele>
        <time>1970-01-01T01:45:07.000Z</time>
      </trkpt>
      <trkpt lat="40.302751" lon="-3.442464">
        <ele>625.8</ele>
        <time>1970-01-01T01:45:08.000Z</time>
      </trkpt>
      <trkpt lat="40.302769" lon="-3.442466">
        <ele>625.4</ele>
        <time>1970-01-01T01:45:09.000Z</time>
      </trkpt>
      <trkpt lat="40.302786" lon="-3.442459">
        <ele>625.2</ele>
        <time>1970-01-01T01:45:10.000Z</time>
      </trkpt>
      <trkpt lat="40.302814" lon="-3.442446">
        <ele>625.2</ele>
        <time>1970-01-01T01:45:11.000Z</time>
      </trkpt>
      <trkpt lat="40.30285" lon="-3.442433">
        <ele>625</ele>
        <time>1970-01-01T01:45:12.000Z</time>
      </trkpt>
      <trkpt lat="40.302894" lon="-3.442423">
        <ele>625</ele>
        <time>1970-01-01T01:45:13.000Z</time>
      </trkpt>
      <trkpt lat="40.302947" lon="-3.442436">
        <ele>625</ele>
        <time>1970-01-01T01:45:14.000Z</time>
      </trkpt>
      <trkpt lat="40.302996" lon="-3.442473">
        <ele>625</ele>
        <time>1970-01-01T01:45:15.000Z</time>
      </trkpt>
      <trkpt lat="40.303033" lon="-3.442539">
        <ele>625</ele>
        <time>1970-01-01T01:45:16.000Z</time>
      </trkpt>
      <trkpt lat="40.303053" lon="-3.442628">
        <ele>625</ele>
        <time>1970-01-01T01:45:17.000Z</time>
      </trkpt>
      <trkpt lat="40.303067" lon="-3.442727">
        <ele>625</ele>
        <time>1970-01-01T01:45:18.000Z</time>
      </trkpt>
      <trkpt lat="40.303084" lon="-3.442831">
        <ele>625</ele>
        <time>1970-01-01T01:45:19.000Z</time>
      </trkpt>
      <trkpt lat="40.303105" lon="-3.442933">
        <ele>625</ele>
        <time>1970-01-01T01:45:20.000Z</time>
      </trkpt>
      <trkpt lat="40.303145" lon="-3.443025">
        <ele>624.8</ele>
        <time>1970-01-01T01:45:21.000Z</time>
      </trkpt>
      <trkpt lat="40.303194" lon="-3.443115">
        <ele>624.6</ele>
        <time>1970-01-01T01:45:22.000Z</time>
      </trkpt>
      <trkpt lat="40.303251" lon="-3.443202">
        <ele>624.2</ele>
        <time>1970-01-01T01:45:23.000Z</time>
      </trkpt>
      <trkpt lat="40.303309" lon="-3.443286">
        <ele>624</ele>
        <time>1970-01-01T01:45:24.000Z</time>
      </trkpt>
      <trkpt lat="40.30336" lon="-3.443375">
        <ele>623.8</ele>
        <time>1970-01-01T01:45:25.000Z</time>
      </trkpt>
      <trkpt lat="40.303405" lon="-3.443474">
        <ele>623.6</ele>
        <time>1970-01-01T01:45:26.000Z</time>
      </trkpt>
      <trkpt lat="40.30344" lon="-3.44358">
        <ele>623.4</ele>
        <time>1970-01-01T01:45:27.000Z</time>
      </trkpt>
      <trkpt lat="40.303473" lon="-3.443687">
        <ele>622.8</ele>
        <time>1970-01-01T01:45:28.000Z</time>
      </trkpt>
      <trkpt lat="40.303507" lon="-3.443793">
        <ele>622.6</ele>
        <time>1970-01-01T01:45:29.000Z</time>
      </trkpt>
      <trkpt lat="40.303541" lon="-3.443898">
        <ele>622.2</ele>
        <time>1970-01-01T01:45:30.000Z</time>
      </trkpt>
      <trkpt lat="40.303579" lon="-3.444003">
        <ele>622</ele>
        <time>1970-01-01T01:45:31.000Z</time>
      </trkpt>
      <trkpt lat="40.30362" lon="-3.444103">
        <ele>621.2</ele>
        <time>1970-01-01T01:45:32.000Z</time>
      </trkpt>
      <trkpt lat="40.303664" lon="-3.4442">
        <ele>620.8</ele>
        <time>1970-01-01T01:45:33.000Z</time>
      </trkpt>
      <trkpt lat="40.303711" lon="-3.44429">
        <ele>620.4</ele>
        <time>1970-01-01T01:45:34.000Z</time>
      </trkpt>
      <trkpt lat="40.303754" lon="-3.444371">
        <ele>620</ele>
        <time>1970-01-01T01:45:35.000Z</time>
      </trkpt>
      <trkpt lat="40.303792" lon="-3.44444">
        <ele>619.6</ele>
        <time>1970-01-01T01:45:36.000Z</time>
      </trkpt>
      <trkpt lat="40.30382" lon="-3.444494">
        <ele>619.2</ele>
        <time>1970-01-01T01:45:37.000Z</time>
      </trkpt>
      <trkpt lat="40.303839" lon="-3.444532">
        <ele>619</ele>
        <time>1970-01-01T01:45:38.000Z</time>
      </trkpt>
      <trkpt lat="40.303853" lon="-3.444555">
        <ele>618.6</ele>
        <time>1970-01-01T01:45:39.000Z</time>
      </trkpt>
      <trkpt lat="40.303863" lon="-3.444576">
        <ele>618.4</ele>
        <time>1970-01-01T01:45:40.000Z</time>
      </trkpt>
      <trkpt lat="40.303876" lon="-3.444597">
        <ele>617.8</ele>
        <time>1970-01-01T01:45:41.000Z</time>
      </trkpt>
      <trkpt lat="40.303898" lon="-3.444625">
        <ele>617.2</ele>
        <time>1970-01-01T01:45:42.000Z</time>
      </trkpt>
      <trkpt lat="40.303929" lon="-3.444664">
        <ele>617.2</ele>
        <time>1970-01-01T01:45:43.000Z</time>
      </trkpt>
      <trkpt lat="40.303964" lon="-3.444711">
        <ele>617</ele>
        <time>1970-01-01T01:45:44.000Z</time>
      </trkpt>
      <trkpt lat="40.304" lon="-3.444765">
        <ele>616.8</ele>
        <time>1970-01-01T01:45:45.000Z</time>
      </trkpt>
      <trkpt lat="40.304038" lon="-3.444824">
        <ele>616.8</ele>
        <time>1970-01-01T01:45:46.000Z</time>
      </trkpt>
      <trkpt lat="40.304081" lon="-3.444885">
        <ele>616.6</ele>
        <time>1970-01-01T01:45:47.000Z</time>
      </trkpt>
      <trkpt lat="40.304131" lon="-3.444944">
        <ele>616.4</ele>
        <time>1970-01-01T01:45:48.000Z</time>
      </trkpt>
      <trkpt lat="40.304182" lon="-3.445003">
        <ele>616.2</ele>
        <time>1970-01-01T01:45:49.000Z</time>
      </trkpt>
      <trkpt lat="40.304236" lon="-3.445066">
        <ele>616.2</ele>
        <time>1970-01-01T01:45:50.000Z</time>
      </trkpt>
      <trkpt lat="40.304292" lon="-3.445131">
        <ele>616.2</ele>
        <time>1970-01-01T01:45:51.000Z</time>
      </trkpt>
      <trkpt lat="40.304337" lon="-3.44518">
        <ele>616</ele>
        <time>1970-01-01T01:45:52.000Z</time>
      </trkpt>
      <trkpt lat="40.304394" lon="-3.445244">
        <ele>615.8</ele>
        <time>1970-01-01T01:45:53.000Z</time>
      </trkpt>
      <trkpt lat="40.304464" lon="-3.44532">
        <ele>615.6</ele>
        <time>1970-01-01T01:45:54.000Z</time>
      </trkpt>
      <trkpt lat="40.304527" lon="-3.445378">
        <ele>615.2</ele>
        <time>1970-01-01T01:45:55.000Z</time>
      </trkpt>
      <trkpt lat="40.304588" lon="-3.445433">
        <ele>615</ele>
        <time>1970-01-01T01:45:56.000Z</time>
      </trkpt>
      <trkpt lat="40.304648" lon="-3.445489">
        <ele>614.8</ele>
        <time>1970-01-01T01:45:57.000Z</time>
      </trkpt>
      <trkpt lat="40.304711" lon="-3.445546">
        <ele>614.8</ele>
        <time>1970-01-01T01:45:58.000Z</time>
      </trkpt>
      <trkpt lat="40.304764" lon="-3.445585">
        <ele>614.6</ele>
        <time>1970-01-01T01:45:59.000Z</time>
      </trkpt>
      <trkpt lat="40.304835" lon="-3.445619">
        <ele>614.4</ele>
        <time>1970-01-01T01:46:00.000Z</time>
      </trkpt>
      <trkpt lat="40.304906" lon="-3.445639">
        <ele>614.4</ele>
        <time>1970-01-01T01:46:01.000Z</time>
      </trkpt>
      <trkpt lat="40.304989" lon="-3.445649">
        <ele>614.2</ele>
        <time>1970-01-01T01:46:02.000Z</time>
      </trkpt>
      <trkpt lat="40.305057" lon="-3.445653">
        <ele>613.8</ele>
        <time>1970-01-01T01:46:03.000Z</time>
      </trkpt>
      <trkpt lat="40.305121" lon="-3.445661">
        <ele>613.6</ele>
        <time>1970-01-01T01:46:04.000Z</time>
      </trkpt>
      <trkpt lat="40.305182" lon="-3.445677">
        <ele>613.6</ele>
        <time>1970-01-01T01:46:05.000Z</time>
      </trkpt>
      <trkpt lat="40.305242" lon="-3.445701">
        <ele>613.4</ele>
        <time>1970-01-01T01:46:06.000Z</time>
      </trkpt>
      <trkpt lat="40.305297" lon="-3.445733">
        <ele>613.4</ele>
        <time>1970-01-01T01:46:07.000Z</time>
      </trkpt>
      <trkpt lat="40.305352" lon="-3.44577">
        <ele>613.2</ele>
        <time>1970-01-01T01:46:08.000Z</time>
      </trkpt>
      <trkpt lat="40.305406" lon="-3.445812">
        <ele>613.2</ele>
        <time>1970-01-01T01:46:09.000Z</time>
      </trkpt>
      <trkpt lat="40.305464" lon="-3.445856">
        <ele>613</ele>
        <time>1970-01-01T01:46:10.000Z</time>
      </trkpt>
      <trkpt lat="40.305526" lon="-3.445904">
        <ele>613</ele>
        <time>1970-01-01T01:46:11.000Z</time>
      </trkpt>
      <trkpt lat="40.305588" lon="-3.445956">
        <ele>613</ele>
        <time>1970-01-01T01:46:12.000Z</time>
      </trkpt>
      <trkpt lat="40.305648" lon="-3.446014">
        <ele>613</ele>
        <time>1970-01-01T01:46:13.000Z</time>
      </trkpt>
      <trkpt lat="40.305705" lon="-3.446077">
        <ele>612.8</ele>
        <time>1970-01-01T01:46:14.000Z</time>
      </trkpt>
      <trkpt lat="40.305761" lon="-3.446144">
        <ele>612.6</ele>
        <time>1970-01-01T01:46:15.000Z</time>
      </trkpt>
      <trkpt lat="40.305817" lon="-3.446219">
        <ele>612.6</ele>
        <time>1970-01-01T01:46:16.000Z</time>
      </trkpt>
      <trkpt lat="40.305868" lon="-3.446298">
        <ele>612.2</ele>
        <time>1970-01-01T01:46:17.000Z</time>
      </trkpt>
      <trkpt lat="40.305916" lon="-3.446383">
        <ele>612.2</ele>
        <time>1970-01-01T01:46:18.000Z</time>
      </trkpt>
      <trkpt lat="40.305959" lon="-3.44647">
        <ele>611.8</ele>
        <time>1970-01-01T01:46:19.000Z</time>
      </trkpt>
      <trkpt lat="40.306002" lon="-3.446557">
        <ele>611.6</ele>
        <time>1970-01-01T01:46:20.000Z</time>
      </trkpt>
      <trkpt lat="40.30604" lon="-3.446643">
        <ele>611.2</ele>
        <time>1970-01-01T01:46:21.000Z</time>
      </trkpt>
      <trkpt lat="40.306076" lon="-3.446729">
        <ele>611</ele>
        <time>1970-01-01T01:46:22.000Z</time>
      </trkpt>
      <trkpt lat="40.306108" lon="-3.446814">
        <ele>610.8</ele>
        <time>1970-01-01T01:46:23.000Z</time>
      </trkpt>
      <trkpt lat="40.306136" lon="-3.446893">
        <ele>610.6</ele>
        <time>1970-01-01T01:46:24.000Z</time>
      </trkpt>
      <trkpt lat="40.306161" lon="-3.446969">
        <ele>610.4</ele>
        <time>1970-01-01T01:46:25.000Z</time>
      </trkpt>
      <trkpt lat="40.306183" lon="-3.447041">
        <ele>610.4</ele>
        <time>1970-01-01T01:46:26.000Z</time>
      </trkpt>
      <trkpt lat="40.306206" lon="-3.447101">
        <ele>610.2</ele>
        <time>1970-01-01T01:46:27.000Z</time>
      </trkpt>
      <trkpt lat="40.30623" lon="-3.447138">
        <ele>610</ele>
        <time>1970-01-01T01:46:28.000Z</time>
      </trkpt>
      <trkpt lat="40.306253" lon="-3.447155">
        <ele>609.8</ele>
        <time>1970-01-01T01:46:29.000Z</time>
      </trkpt>
      <trkpt lat="40.306269" lon="-3.447163">
        <ele>609.6</ele>
        <time>1970-01-01T01:46:30.000Z</time>
      </trkpt>
      <trkpt lat="40.30628" lon="-3.447169">
        <ele>609.6</ele>
        <time>1970-01-01T01:46:31.000Z</time>
      </trkpt>
      <trkpt lat="40.306299" lon="-3.447176">
        <ele>609.6</ele>
        <time>1970-01-01T01:46:32.000Z</time>
      </trkpt>
      <trkpt lat="40.306327" lon="-3.44718">
        <ele>609.4</ele>
        <time>1970-01-01T01:46:33.000Z</time>
      </trkpt>
      <trkpt lat="40.30636" lon="-3.447176">
        <ele>609.4</ele>
        <time>1970-01-01T01:46:34.000Z</time>
      </trkpt>
      <trkpt lat="40.306398" lon="-3.447161">
        <ele>609.4</ele>
        <time>1970-01-01T01:46:35.000Z</time>
      </trkpt>
      <trkpt lat="40.306444" lon="-3.447142">
        <ele>609.4</ele>
        <time>1970-01-01T01:46:36.000Z</time>
      </trkpt>
      <trkpt lat="40.306496" lon="-3.447125">
        <ele>609.6</ele>
        <time>1970-01-01T01:46:37.000Z</time>
      </trkpt>
      <trkpt lat="40.30655" lon="-3.447121">
        <ele>609.8</ele>
        <time>1970-01-01T01:46:38.000Z</time>
      </trkpt>
      <trkpt lat="40.306609" lon="-3.447135">
        <ele>609.8</ele>
        <time>1970-01-01T01:46:39.000Z</time>
      </trkpt>
      <trkpt lat="40.306662" lon="-3.447158">
        <ele>610</ele>
        <time>1970-01-01T01:46:40.000Z</time>
      </trkpt>
      <trkpt lat="40.30671" lon="-3.447191">
        <ele>610</ele>
        <time>1970-01-01T01:46:41.000Z</time>
      </trkpt>
      <trkpt lat="40.306756" lon="-3.44723">
        <ele>610</ele>
        <time>1970-01-01T01:46:42.000Z</time>
      </trkpt>
      <trkpt lat="40.306799" lon="-3.44727">
        <ele>610</ele>
        <time>1970-01-01T01:46:43.000Z</time>
      </trkpt>
      <trkpt lat="40.306839" lon="-3.447311">
        <ele>610</ele>
        <time>1970-01-01T01:46:44.000Z</time>
      </trkpt>
      <trkpt lat="40.306876" lon="-3.447356">
        <ele>610.2</ele>
        <time>1970-01-01T01:46:45.000Z</time>
      </trkpt>
      <trkpt lat="40.306908" lon="-3.447407">
        <ele>610.2</ele>
        <time>1970-01-01T01:46:46.000Z</time>
      </trkpt>
      <trkpt lat="40.306934" lon="-3.447462">
        <ele>610.4</ele>
        <time>1970-01-01T01:46:47.000Z</time>
      </trkpt>
      <trkpt lat="40.306953" lon="-3.447519">
        <ele>610.4</ele>
        <time>1970-01-01T01:46:48.000Z</time>
      </trkpt>
      <trkpt lat="40.306968" lon="-3.447576">
        <ele>610.6</ele>
        <time>1970-01-01T01:46:49.000Z</time>
      </trkpt>
      <trkpt lat="40.306977" lon="-3.447637">
        <ele>610.6</ele>
        <time>1970-01-01T01:46:50.000Z</time>
      </trkpt>
      <trkpt lat="40.306984" lon="-3.447702">
        <ele>610.6</ele>
        <time>1970-01-01T01:46:51.000Z</time>
      </trkpt>
      <trkpt lat="40.306991" lon="-3.44777">
        <ele>610.6</ele>
        <time>1970-01-01T01:46:52.000Z</time>
      </trkpt>
      <trkpt lat="40.307005" lon="-3.447837">
        <ele>610.6</ele>
        <time>1970-01-01T01:46:53.000Z</time>
      </trkpt>
      <trkpt lat="40.307027" lon="-3.447903">
        <ele>610.4</ele>
        <time>1970-01-01T01:46:54.000Z</time>
      </trkpt>
      <trkpt lat="40.307062" lon="-3.447968">
        <ele>610.4</ele>
        <time>1970-01-01T01:46:55.000Z</time>
      </trkpt>
      <trkpt lat="40.307109" lon="-3.448025">
        <ele>610.2</ele>
        <time>1970-01-01T01:46:56.000Z</time>
      </trkpt>
      <trkpt lat="40.307166" lon="-3.448074">
        <ele>610</ele>
        <time>1970-01-01T01:46:57.000Z</time>
      </trkpt>
      <trkpt lat="40.307228" lon="-3.448113">
        <ele>609.4</ele>
        <time>1970-01-01T01:46:58.000Z</time>
      </trkpt>
      <trkpt lat="40.307297" lon="-3.448144">
        <ele>609.2</ele>
        <time>1970-01-01T01:46:59.000Z</time>
      </trkpt>
      <trkpt lat="40.307356" lon="-3.448166">
        <ele>609</ele>
        <time>1970-01-01T01:47:00.000Z</time>
      </trkpt>
      <trkpt lat="40.307448" lon="-3.448203">
        <ele>608.6</ele>
        <time>1970-01-01T01:47:01.000Z</time>
      </trkpt>
      <trkpt lat="40.307523" lon="-3.448243">
        <ele>608.6</ele>
        <time>1970-01-01T01:47:02.000Z</time>
      </trkpt>
      <trkpt lat="40.3076" lon="-3.448284">
        <ele>608.4</ele>
        <time>1970-01-01T01:47:03.000Z</time>
      </trkpt>
      <trkpt lat="40.307677" lon="-3.44833">
        <ele>608</ele>
        <time>1970-01-01T01:47:04.000Z</time>
      </trkpt>
      <trkpt lat="40.307756" lon="-3.448378">
        <ele>607.6</ele>
        <time>1970-01-01T01:47:05.000Z</time>
      </trkpt>
      <trkpt lat="40.307833" lon="-3.44843">
        <ele>607.2</ele>
        <time>1970-01-01T01:47:06.000Z</time>
      </trkpt>
      <trkpt lat="40.30791" lon="-3.448484">
        <ele>606.8</ele>
        <time>1970-01-01T01:47:07.000Z</time>
      </trkpt>
      <trkpt lat="40.307986" lon="-3.44854">
        <ele>606.2</ele>
        <time>1970-01-01T01:47:08.000Z</time>
      </trkpt>
      <trkpt lat="40.308061" lon="-3.448597">
        <ele>606.2</ele>
        <time>1970-01-01T01:47:09.000Z</time>
      </trkpt>
      <trkpt lat="40.308135" lon="-3.448656">
        <ele>605.8</ele>
        <time>1970-01-01T01:47:10.000Z</time>
      </trkpt>
      <trkpt lat="40.308211" lon="-3.448716">
        <ele>605.6</ele>
        <time>1970-01-01T01:47:11.000Z</time>
      </trkpt>
      <trkpt lat="40.308289" lon="-3.448778">
        <ele>605</ele>
        <time>1970-01-01T01:47:12.000Z</time>
      </trkpt>
      <trkpt lat="40.308366" lon="-3.448842">
        <ele>604.6</ele>
        <time>1970-01-01T01:47:13.000Z</time>
      </trkpt>
      <trkpt lat="40.308427" lon="-3.448895">
        <ele>604.2</ele>
        <time>1970-01-01T01:47:14.000Z</time>
      </trkpt>
      <trkpt lat="40.308518" lon="-3.448978">
        <ele>603.4</ele>
        <time>1970-01-01T01:47:15.000Z</time>
      </trkpt>
      <trkpt lat="40.308581" lon="-3.449035">
        <ele>603</ele>
        <time>1970-01-01T01:47:16.000Z</time>
      </trkpt>
      <trkpt lat="40.308662" lon="-3.449107">
        <ele>602.4</ele>
        <time>1970-01-01T01:47:17.000Z</time>
      </trkpt>
      <trkpt lat="40.308742" lon="-3.44918">
        <ele>602</ele>
        <time>1970-01-01T01:47:18.000Z</time>
      </trkpt>
      <trkpt lat="40.308835" lon="-3.449263">
        <ele>601.2</ele>
        <time>1970-01-01T01:47:19.000Z</time>
      </trkpt>
      <trkpt lat="40.308894" lon="-3.449319">
        <ele>600.6</ele>
        <time>1970-01-01T01:47:20.000Z</time>
      </trkpt>
      <trkpt lat="40.308983" lon="-3.449401">
        <ele>600.2</ele>
        <time>1970-01-01T01:47:21.000Z</time>
      </trkpt>
      <trkpt lat="40.309053" lon="-3.449457">
        <ele>599.8</ele>
        <time>1970-01-01T01:47:22.000Z</time>
      </trkpt>
      <trkpt lat="40.309116" lon="-3.449503">
        <ele>599.6</ele>
        <time>1970-01-01T01:47:23.000Z</time>
      </trkpt>
      <trkpt lat="40.309166" lon="-3.449532">
        <ele>599.4</ele>
        <time>1970-01-01T01:47:24.000Z</time>
      </trkpt>
      <trkpt lat="40.309199" lon="-3.44954">
        <ele>599.4</ele>
        <time>1970-01-01T01:47:25.000Z</time>
      </trkpt>
      <trkpt lat="40.309244" lon="-3.44954">
        <ele>599.2</ele>
        <time>1970-01-01T01:47:26.000Z</time>
      </trkpt>
      <trkpt lat="40.30929" lon="-3.449527">
        <ele>599.2</ele>
        <time>1970-01-01T01:47:27.000Z</time>
      </trkpt>
      <trkpt lat="40.309339" lon="-3.449506">
        <ele>599</ele>
        <time>1970-01-01T01:47:28.000Z</time>
      </trkpt>
      <trkpt lat="40.309388" lon="-3.449489">
        <ele>599</ele>
        <time>1970-01-01T01:47:29.000Z</time>
      </trkpt>
      <trkpt lat="40.309448" lon="-3.449485">
        <ele>599</ele>
        <time>1970-01-01T01:47:30.000Z</time>
      </trkpt>
      <trkpt lat="40.30951" lon="-3.449497">
        <ele>598.8</ele>
        <time>1970-01-01T01:47:31.000Z</time>
      </trkpt>
      <trkpt lat="40.309574" lon="-3.449521">
        <ele>599</ele>
        <time>1970-01-01T01:47:32.000Z</time>
      </trkpt>
      <trkpt lat="40.30964" lon="-3.449544">
        <ele>599</ele>
        <time>1970-01-01T01:47:33.000Z</time>
      </trkpt>
      <trkpt lat="40.309696" lon="-3.449548">
        <ele>599</ele>
        <time>1970-01-01T01:47:34.000Z</time>
      </trkpt>
      <trkpt lat="40.309779" lon="-3.449541">
        <ele>599.2</ele>
        <time>1970-01-01T01:47:35.000Z</time>
      </trkpt>
      <trkpt lat="40.309843" lon="-3.449519">
        <ele>599.2</ele>
        <time>1970-01-01T01:47:36.000Z</time>
      </trkpt>
      <trkpt lat="40.309906" lon="-3.449491">
        <ele>599.2</ele>
        <time>1970-01-01T01:47:37.000Z</time>
      </trkpt>
      <trkpt lat="40.309968" lon="-3.449459">
        <ele>599.2</ele>
        <time>1970-01-01T01:47:38.000Z</time>
      </trkpt>
      <trkpt lat="40.31003" lon="-3.449424">
        <ele>599.2</ele>
        <time>1970-01-01T01:47:39.000Z</time>
      </trkpt>
      <trkpt lat="40.310078" lon="-3.449395">
        <ele>599.2</ele>
        <time>1970-01-01T01:47:40.000Z</time>
      </trkpt>
      <trkpt lat="40.31015" lon="-3.44935">
        <ele>599</ele>
        <time>1970-01-01T01:47:41.000Z</time>
      </trkpt>
      <trkpt lat="40.310212" lon="-3.449315">
        <ele>599</ele>
        <time>1970-01-01T01:47:42.000Z</time>
      </trkpt>
      <trkpt lat="40.310273" lon="-3.449277">
        <ele>599</ele>
        <time>1970-01-01T01:47:43.000Z</time>
      </trkpt>
      <trkpt lat="40.310335" lon="-3.449237">
        <ele>599</ele>
        <time>1970-01-01T01:47:44.000Z</time>
      </trkpt>
      <trkpt lat="40.310398" lon="-3.449199">
        <ele>598.8</ele>
        <time>1970-01-01T01:47:45.000Z</time>
      </trkpt>
      <trkpt lat="40.310462" lon="-3.449159">
        <ele>598.8</ele>
        <time>1970-01-01T01:47:46.000Z</time>
      </trkpt>
      <trkpt lat="40.310528" lon="-3.44912">
        <ele>598.8</ele>
        <time>1970-01-01T01:47:47.000Z</time>
      </trkpt>
      <trkpt lat="40.31059" lon="-3.449079">
        <ele>598.8</ele>
        <time>1970-01-01T01:47:48.000Z</time>
      </trkpt>
      <trkpt lat="40.310652" lon="-3.449037">
        <ele>598.8</ele>
        <time>1970-01-01T01:47:49.000Z</time>
      </trkpt>
      <trkpt lat="40.310715" lon="-3.448993">
        <ele>598.8</ele>
        <time>1970-01-01T01:47:50.000Z</time>
      </trkpt>
      <trkpt lat="40.310777" lon="-3.448949">
        <ele>598.8</ele>
        <time>1970-01-01T01:47:51.000Z</time>
      </trkpt>
      <trkpt lat="40.310842" lon="-3.448907">
        <ele>598.8</ele>
        <time>1970-01-01T01:47:52.000Z</time>
      </trkpt>
      <trkpt lat="40.310906" lon="-3.448867">
        <ele>598.8</ele>
        <time>1970-01-01T01:47:53.000Z</time>
      </trkpt>
      <trkpt lat="40.310958" lon="-3.448835">
        <ele>598.6</ele>
        <time>1970-01-01T01:47:54.000Z</time>
      </trkpt>
      <trkpt lat="40.311038" lon="-3.448789">
        <ele>598.6</ele>
        <time>1970-01-01T01:47:55.000Z</time>
      </trkpt>
      <trkpt lat="40.311106" lon="-3.448755">
        <ele>598.6</ele>
        <time>1970-01-01T01:47:56.000Z</time>
      </trkpt>
      <trkpt lat="40.311176" lon="-3.448725">
        <ele>598.4</ele>
        <time>1970-01-01T01:47:57.000Z</time>
      </trkpt>
      <trkpt lat="40.311246" lon="-3.448701">
        <ele>598.4</ele>
        <time>1970-01-01T01:47:58.000Z</time>
      </trkpt>
      <trkpt lat="40.311316" lon="-3.448678">
        <ele>598.6</ele>
        <time>1970-01-01T01:47:59.000Z</time>
      </trkpt>
      <trkpt lat="40.311387" lon="-3.448656">
        <ele>598.6</ele>
        <time>1970-01-01T01:48:00.000Z</time>
      </trkpt>
      <trkpt lat="40.311455" lon="-3.448636">
        <ele>598.6</ele>
        <time>1970-01-01T01:48:01.000Z</time>
      </trkpt>
      <trkpt lat="40.311522" lon="-3.448615">
        <ele>598.6</ele>
        <time>1970-01-01T01:48:02.000Z</time>
      </trkpt>
      <trkpt lat="40.31159" lon="-3.448593">
        <ele>598.6</ele>
        <time>1970-01-01T01:48:03.000Z</time>
      </trkpt>
      <trkpt lat="40.311654" lon="-3.448575">
        <ele>598.6</ele>
        <time>1970-01-01T01:48:04.000Z</time>
      </trkpt>
      <trkpt lat="40.311716" lon="-3.448559">
        <ele>598.6</ele>
        <time>1970-01-01T01:48:05.000Z</time>
      </trkpt>
      <trkpt lat="40.311776" lon="-3.448551">
        <ele>598.6</ele>
        <time>1970-01-01T01:48:06.000Z</time>
      </trkpt>
      <trkpt lat="40.311834" lon="-3.448549">
        <ele>598.6</ele>
        <time>1970-01-01T01:48:07.000Z</time>
      </trkpt>
      <trkpt lat="40.311892" lon="-3.448553">
        <ele>598.6</ele>
        <time>1970-01-01T01:48:08.000Z</time>
      </trkpt>
      <trkpt lat="40.311949" lon="-3.448562">
        <ele>598.6</ele>
        <time>1970-01-01T01:48:09.000Z</time>
      </trkpt>
      <trkpt lat="40.312005" lon="-3.448575">
        <ele>598.6</ele>
        <time>1970-01-01T01:48:10.000Z</time>
      </trkpt>
      <trkpt lat="40.312062" lon="-3.448592">
        <ele>598.6</ele>
        <time>1970-01-01T01:48:11.000Z</time>
      </trkpt>
      <trkpt lat="40.312114" lon="-3.448615">
        <ele>598.6</ele>
        <time>1970-01-01T01:48:12.000Z</time>
      </trkpt>
      <trkpt lat="40.312168" lon="-3.448644">
        <ele>598.6</ele>
        <time>1970-01-01T01:48:13.000Z</time>
      </trkpt>
      <trkpt lat="40.312222" lon="-3.448678">
        <ele>598.6</ele>
        <time>1970-01-01T01:48:14.000Z</time>
      </trkpt>
      <trkpt lat="40.312275" lon="-3.448712">
        <ele>598.6</ele>
        <time>1970-01-01T01:48:15.000Z</time>
      </trkpt>
      <trkpt lat="40.312328" lon="-3.448752">
        <ele>598.6</ele>
        <time>1970-01-01T01:48:16.000Z</time>
      </trkpt>
      <trkpt lat="40.312381" lon="-3.448796">
        <ele>598.8</ele>
        <time>1970-01-01T01:48:17.000Z</time>
      </trkpt>
      <trkpt lat="40.312433" lon="-3.448844">
        <ele>599</ele>
        <time>1970-01-01T01:48:18.000Z</time>
      </trkpt>
      <trkpt lat="40.312483" lon="-3.448894">
        <ele>599</ele>
        <time>1970-01-01T01:48:19.000Z</time>
      </trkpt>
      <trkpt lat="40.312537" lon="-3.448942">
        <ele>599.2</ele>
        <time>1970-01-01T01:48:20.000Z</time>
      </trkpt>
      <trkpt lat="40.31259" lon="-3.448979">
        <ele>599.2</ele>
        <time>1970-01-01T01:48:21.000Z</time>
      </trkpt>
      <trkpt lat="40.312642" lon="-3.449009">
        <ele>599.2</ele>
        <time>1970-01-01T01:48:22.000Z</time>
      </trkpt>
      <trkpt lat="40.312694" lon="-3.449034">
        <ele>599.4</ele>
        <time>1970-01-01T01:48:23.000Z</time>
      </trkpt>
      <trkpt lat="40.312734" lon="-3.449053">
        <ele>599.6</ele>
        <time>1970-01-01T01:48:24.000Z</time>
      </trkpt>
      <trkpt lat="40.312794" lon="-3.449075">
        <ele>599.6</ele>
        <time>1970-01-01T01:48:25.000Z</time>
      </trkpt>
      <trkpt lat="40.312832" lon="-3.449087">
        <ele>599.8</ele>
        <time>1970-01-01T01:48:26.000Z</time>
      </trkpt>
      <trkpt lat="40.312879" lon="-3.449101">
        <ele>599.8</ele>
        <time>1970-01-01T01:48:27.000Z</time>
      </trkpt>
      <trkpt lat="40.312929" lon="-3.449117">
        <ele>600</ele>
        <time>1970-01-01T01:48:28.000Z</time>
      </trkpt>
      <trkpt lat="40.31298" lon="-3.449134">
        <ele>600</ele>
        <time>1970-01-01T01:48:29.000Z</time>
      </trkpt>
      <trkpt lat="40.313028" lon="-3.449146">
        <ele>600</ele>
        <time>1970-01-01T01:48:30.000Z</time>
      </trkpt>
      <trkpt lat="40.313079" lon="-3.449151">
        <ele>600.2</ele>
        <time>1970-01-01T01:48:31.000Z</time>
      </trkpt>
      <trkpt lat="40.313131" lon="-3.449155">
        <ele>600.2</ele>
        <time>1970-01-01T01:48:32.000Z</time>
      </trkpt>
      <trkpt lat="40.313183" lon="-3.449156">
        <ele>600.2</ele>
        <time>1970-01-01T01:48:33.000Z</time>
      </trkpt>
      <trkpt lat="40.313235" lon="-3.449154">
        <ele>600.4</ele>
        <time>1970-01-01T01:48:34.000Z</time>
      </trkpt>
      <trkpt lat="40.31329" lon="-3.449151">
        <ele>600.4</ele>
        <time>1970-01-01T01:48:35.000Z</time>
      </trkpt>
      <trkpt lat="40.313345" lon="-3.449144">
        <ele>600.6</ele>
        <time>1970-01-01T01:48:36.000Z</time>
      </trkpt>
      <trkpt lat="40.313401" lon="-3.449134">
        <ele>600.6</ele>
        <time>1970-01-01T01:48:37.000Z</time>
      </trkpt>
      <trkpt lat="40.313459" lon="-3.449122">
        <ele>600.6</ele>
        <time>1970-01-01T01:48:38.000Z</time>
      </trkpt>
      <trkpt lat="40.313518" lon="-3.449113">
        <ele>600.6</ele>
        <time>1970-01-01T01:48:39.000Z</time>
      </trkpt>
      <trkpt lat="40.313581" lon="-3.449104">
        <ele>600.6</ele>
        <time>1970-01-01T01:48:40.000Z</time>
      </trkpt>
      <trkpt lat="40.313645" lon="-3.449096">
        <ele>600.6</ele>
        <time>1970-01-01T01:48:41.000Z</time>
      </trkpt>
      <trkpt lat="40.313709" lon="-3.449094">
        <ele>600.6</ele>
        <time>1970-01-01T01:48:42.000Z</time>
      </trkpt>
      <trkpt lat="40.313772" lon="-3.449096">
        <ele>600.6</ele>
        <time>1970-01-01T01:48:43.000Z</time>
      </trkpt>
      <trkpt lat="40.313838" lon="-3.449097">
        <ele>600.6</ele>
        <time>1970-01-01T01:48:44.000Z</time>
      </trkpt>
      <trkpt lat="40.313905" lon="-3.449101">
        <ele>600.6</ele>
        <time>1970-01-01T01:48:45.000Z</time>
      </trkpt>
      <trkpt lat="40.313974" lon="-3.449103">
        <ele>600.4</ele>
        <time>1970-01-01T01:48:46.000Z</time>
      </trkpt>
      <trkpt lat="40.314043" lon="-3.449104">
        <ele>600.2</ele>
        <time>1970-01-01T01:48:47.000Z</time>
      </trkpt>
      <trkpt lat="40.314111" lon="-3.449105">
        <ele>600.2</ele>
        <time>1970-01-01T01:48:48.000Z</time>
      </trkpt>
      <trkpt lat="40.314178" lon="-3.449107">
        <ele>600.2</ele>
        <time>1970-01-01T01:48:49.000Z</time>
      </trkpt>
      <trkpt lat="40.314242" lon="-3.44911">
        <ele>600</ele>
        <time>1970-01-01T01:48:50.000Z</time>
      </trkpt>
      <trkpt lat="40.31431" lon="-3.449113">
        <ele>600</ele>
        <time>1970-01-01T01:48:51.000Z</time>
      </trkpt>
      <trkpt lat="40.31438" lon="-3.449113">
        <ele>599.8</ele>
        <time>1970-01-01T01:48:52.000Z</time>
      </trkpt>
      <trkpt lat="40.314453" lon="-3.449114">
        <ele>599.8</ele>
        <time>1970-01-01T01:48:53.000Z</time>
      </trkpt>
      <trkpt lat="40.314524" lon="-3.449113">
        <ele>599.8</ele>
        <time>1970-01-01T01:48:54.000Z</time>
      </trkpt>
      <trkpt lat="40.314594" lon="-3.449115">
        <ele>599.8</ele>
        <time>1970-01-01T01:48:55.000Z</time>
      </trkpt>
      <trkpt lat="40.314668" lon="-3.449117">
        <ele>599.6</ele>
        <time>1970-01-01T01:48:56.000Z</time>
      </trkpt>
      <trkpt lat="40.314745" lon="-3.449127">
        <ele>599.6</ele>
        <time>1970-01-01T01:48:57.000Z</time>
      </trkpt>
      <trkpt lat="40.314823" lon="-3.449139">
        <ele>599.6</ele>
        <time>1970-01-01T01:48:58.000Z</time>
      </trkpt>
      <trkpt lat="40.314913" lon="-3.449152">
        <ele>599.4</ele>
        <time>1970-01-01T01:48:59.000Z</time>
      </trkpt>
      <trkpt lat="40.314989" lon="-3.449167">
        <ele>599.4</ele>
        <time>1970-01-01T01:49:00.000Z</time>
      </trkpt>
      <trkpt lat="40.315049" lon="-3.44918">
        <ele>599.2</ele>
        <time>1970-01-01T01:49:01.000Z</time>
      </trkpt>
      <trkpt lat="40.315124" lon="-3.449197">
        <ele>599</ele>
        <time>1970-01-01T01:49:02.000Z</time>
      </trkpt>
      <trkpt lat="40.315215" lon="-3.449214">
        <ele>598.8</ele>
        <time>1970-01-01T01:49:03.000Z</time>
      </trkpt>
      <trkpt lat="40.315289" lon="-3.449227">
        <ele>598.4</ele>
        <time>1970-01-01T01:49:04.000Z</time>
      </trkpt>
      <trkpt lat="40.315365" lon="-3.449242">
        <ele>598.2</ele>
        <time>1970-01-01T01:49:05.000Z</time>
      </trkpt>
      <trkpt lat="40.315439" lon="-3.449258">
        <ele>598</ele>
        <time>1970-01-01T01:49:06.000Z</time>
      </trkpt>
      <trkpt lat="40.315499" lon="-3.449273">
        <ele>597.6</ele>
        <time>1970-01-01T01:49:07.000Z</time>
      </trkpt>
      <trkpt lat="40.315572" lon="-3.449291">
        <ele>597.6</ele>
        <time>1970-01-01T01:49:08.000Z</time>
      </trkpt>
      <trkpt lat="40.315663" lon="-3.449316">
        <ele>597.4</ele>
        <time>1970-01-01T01:49:09.000Z</time>
      </trkpt>
      <trkpt lat="40.315742" lon="-3.44934">
        <ele>597.2</ele>
        <time>1970-01-01T01:49:10.000Z</time>
      </trkpt>
      <trkpt lat="40.315804" lon="-3.449362">
        <ele>597</ele>
        <time>1970-01-01T01:49:11.000Z</time>
      </trkpt>
      <trkpt lat="40.315883" lon="-3.449391">
        <ele>597</ele>
        <time>1970-01-01T01:49:12.000Z</time>
      </trkpt>
      <trkpt lat="40.31596" lon="-3.449419">
        <ele>597</ele>
        <time>1970-01-01T01:49:13.000Z</time>
      </trkpt>
      <trkpt lat="40.316056" lon="-3.449446">
        <ele>596.6</ele>
        <time>1970-01-01T01:49:14.000Z</time>
      </trkpt>
      <trkpt lat="40.316139" lon="-3.449459">
        <ele>596.6</ele>
        <time>1970-01-01T01:49:15.000Z</time>
      </trkpt>
      <trkpt lat="40.316224" lon="-3.449469">
        <ele>596.2</ele>
        <time>1970-01-01T01:49:16.000Z</time>
      </trkpt>
      <trkpt lat="40.316311" lon="-3.449477">
        <ele>596</ele>
        <time>1970-01-01T01:49:17.000Z</time>
      </trkpt>
      <trkpt lat="40.316381" lon="-3.449481">
        <ele>594.8</ele>
        <time>1970-01-01T01:49:18.000Z</time>
      </trkpt>
      <trkpt lat="40.316471" lon="-3.449483">
        <ele>594.6</ele>
        <time>1970-01-01T01:49:19.000Z</time>
      </trkpt>
      <trkpt lat="40.316561" lon="-3.449476">
        <ele>594</ele>
        <time>1970-01-01T01:49:20.000Z</time>
      </trkpt>
      <trkpt lat="40.316667" lon="-3.44946">
        <ele>593.4</ele>
        <time>1970-01-01T01:49:21.000Z</time>
      </trkpt>
      <trkpt lat="40.316753" lon="-3.449445">
        <ele>593.2</ele>
        <time>1970-01-01T01:49:22.000Z</time>
      </trkpt>
      <trkpt lat="40.316835" lon="-3.449429">
        <ele>592.8</ele>
        <time>1970-01-01T01:49:23.000Z</time>
      </trkpt>
      <trkpt lat="40.31691" lon="-3.449412">
        <ele>592.8</ele>
        <time>1970-01-01T01:49:24.000Z</time>
      </trkpt>
      <trkpt lat="40.31698" lon="-3.449398">
        <ele>592</ele>
        <time>1970-01-01T01:49:25.000Z</time>
      </trkpt>
      <trkpt lat="40.317039" lon="-3.449384">
        <ele>591.6</ele>
        <time>1970-01-01T01:49:26.000Z</time>
      </trkpt>
      <trkpt lat="40.317088" lon="-3.449374">
        <ele>590.8</ele>
        <time>1970-01-01T01:49:27.000Z</time>
      </trkpt>
      <trkpt lat="40.317123" lon="-3.449364">
        <ele>590</ele>
        <time>1970-01-01T01:49:28.000Z</time>
      </trkpt>
      <trkpt lat="40.317148" lon="-3.449355">
        <ele>589.4</ele>
        <time>1970-01-01T01:49:29.000Z</time>
      </trkpt>
      <trkpt lat="40.317188" lon="-3.449344">
        <ele>588.6</ele>
        <time>1970-01-01T01:49:30.000Z</time>
      </trkpt>
      <trkpt lat="40.317225" lon="-3.449337">
        <ele>588.2</ele>
        <time>1970-01-01T01:49:31.000Z</time>
      </trkpt>
      <trkpt lat="40.317268" lon="-3.449332">
        <ele>587.8</ele>
        <time>1970-01-01T01:49:32.000Z</time>
      </trkpt>
      <trkpt lat="40.31732" lon="-3.449325">
        <ele>587.8</ele>
        <time>1970-01-01T01:49:33.000Z</time>
      </trkpt>
      <trkpt lat="40.317373" lon="-3.449314">
        <ele>587.4</ele>
        <time>1970-01-01T01:49:34.000Z</time>
      </trkpt>
      <trkpt lat="40.317427" lon="-3.449304">
        <ele>587.4</ele>
        <time>1970-01-01T01:49:35.000Z</time>
      </trkpt>
      <trkpt lat="40.317487" lon="-3.449294">
        <ele>587.2</ele>
        <time>1970-01-01T01:49:36.000Z</time>
      </trkpt>
      <trkpt lat="40.317548" lon="-3.449284">
        <ele>587</ele>
        <time>1970-01-01T01:49:37.000Z</time>
      </trkpt>
      <trkpt lat="40.31761" lon="-3.449273">
        <ele>586.8</ele>
        <time>1970-01-01T01:49:38.000Z</time>
      </trkpt>
      <trkpt lat="40.317674" lon="-3.449263">
        <ele>586.4</ele>
        <time>1970-01-01T01:49:39.000Z</time>
      </trkpt>
      <trkpt lat="40.317725" lon="-3.449254">
        <ele>586.4</ele>
        <time>1970-01-01T01:49:40.000Z</time>
      </trkpt>
      <trkpt lat="40.317804" lon="-3.449242">
        <ele>586.2</ele>
        <time>1970-01-01T01:49:41.000Z</time>
      </trkpt>
      <trkpt lat="40.317873" lon="-3.449231">
        <ele>586.2</ele>
        <time>1970-01-01T01:49:42.000Z</time>
      </trkpt>
      <trkpt lat="40.317941" lon="-3.449222">
        <ele>586</ele>
        <time>1970-01-01T01:49:43.000Z</time>
      </trkpt>
      <trkpt lat="40.317995" lon="-3.449213">
        <ele>586</ele>
        <time>1970-01-01T01:49:44.000Z</time>
      </trkpt>
      <trkpt lat="40.318076" lon="-3.4492">
        <ele>586</ele>
        <time>1970-01-01T01:49:45.000Z</time>
      </trkpt>
      <trkpt lat="40.318127" lon="-3.449192">
        <ele>586</ele>
        <time>1970-01-01T01:49:46.000Z</time>
      </trkpt>
      <trkpt lat="40.318203" lon="-3.449181">
        <ele>586</ele>
        <time>1970-01-01T01:49:47.000Z</time>
      </trkpt>
      <trkpt lat="40.31827" lon="-3.449177">
        <ele>586</ele>
        <time>1970-01-01T01:49:48.000Z</time>
      </trkpt>
      <trkpt lat="40.318337" lon="-3.449172">
        <ele>586</ele>
        <time>1970-01-01T01:49:49.000Z</time>
      </trkpt>
      <trkpt lat="40.31839" lon="-3.449168">
        <ele>586</ele>
        <time>1970-01-01T01:49:50.000Z</time>
      </trkpt>
      <trkpt lat="40.318468" lon="-3.449163">
        <ele>586</ele>
        <time>1970-01-01T01:49:51.000Z</time>
      </trkpt>
      <trkpt lat="40.318535" lon="-3.449159">
        <ele>586</ele>
        <time>1970-01-01T01:49:52.000Z</time>
      </trkpt>
      <trkpt lat="40.318602" lon="-3.449156">
        <ele>586</ele>
        <time>1970-01-01T01:49:53.000Z</time>
      </trkpt>
      <trkpt lat="40.318667" lon="-3.449152">
        <ele>585.8</ele>
        <time>1970-01-01T01:49:54.000Z</time>
      </trkpt>
      <trkpt lat="40.31873" lon="-3.449148">
        <ele>585.8</ele>
        <time>1970-01-01T01:49:55.000Z</time>
      </trkpt>
      <trkpt lat="40.318782" lon="-3.449147">
        <ele>585.8</ele>
        <time>1970-01-01T01:49:56.000Z</time>
      </trkpt>
      <trkpt lat="40.318858" lon="-3.449144">
        <ele>585.8</ele>
        <time>1970-01-01T01:49:57.000Z</time>
      </trkpt>
      <trkpt lat="40.31892" lon="-3.449148">
        <ele>585.8</ele>
        <time>1970-01-01T01:49:58.000Z</time>
      </trkpt>
      <trkpt lat="40.31898" lon="-3.449167">
        <ele>585.8</ele>
        <time>1970-01-01T01:49:59.000Z</time>
      </trkpt>
      <trkpt lat="40.31902" lon="-3.449197">
        <ele>585.8</ele>
        <time>1970-01-01T01:50:00.000Z</time>
      </trkpt>
      <trkpt lat="40.319068" lon="-3.449258">
        <ele>585.8</ele>
        <time>1970-01-01T01:50:01.000Z</time>
      </trkpt>
      <trkpt lat="40.319099" lon="-3.449319">
        <ele>586</ele>
        <time>1970-01-01T01:50:02.000Z</time>
      </trkpt>
      <trkpt lat="40.31913" lon="-3.449379">
        <ele>586</ele>
        <time>1970-01-01T01:50:03.000Z</time>
      </trkpt>
      <trkpt lat="40.319156" lon="-3.449424">
        <ele>586.2</ele>
        <time>1970-01-01T01:50:04.000Z</time>
      </trkpt>
      <trkpt lat="40.319196" lon="-3.449467">
        <ele>586.6</ele>
        <time>1970-01-01T01:50:05.000Z</time>
      </trkpt>
      <trkpt lat="40.319239" lon="-3.449495">
        <ele>586.8</ele>
        <time>1970-01-01T01:50:06.000Z</time>
      </trkpt>
      <trkpt lat="40.319283" lon="-3.44951">
        <ele>587.2</ele>
        <time>1970-01-01T01:50:07.000Z</time>
      </trkpt>
      <trkpt lat="40.319326" lon="-3.449516">
        <ele>587.4</ele>
        <time>1970-01-01T01:50:08.000Z</time>
      </trkpt>
      <trkpt lat="40.319367" lon="-3.449513">
        <ele>587.6</ele>
        <time>1970-01-01T01:50:09.000Z</time>
      </trkpt>
      <trkpt lat="40.319403" lon="-3.449502">
        <ele>588</ele>
        <time>1970-01-01T01:50:10.000Z</time>
      </trkpt>
      <trkpt lat="40.319437" lon="-3.449483">
        <ele>588.4</ele>
        <time>1970-01-01T01:50:11.000Z</time>
      </trkpt>
      <trkpt lat="40.319471" lon="-3.449456">
        <ele>588.6</ele>
        <time>1970-01-01T01:50:12.000Z</time>
      </trkpt>
      <trkpt lat="40.319502" lon="-3.449423">
        <ele>588.8</ele>
        <time>1970-01-01T01:50:13.000Z</time>
      </trkpt>
      <trkpt lat="40.319527" lon="-3.449389">
        <ele>589.2</ele>
        <time>1970-01-01T01:50:14.000Z</time>
      </trkpt>
      <trkpt lat="40.319556" lon="-3.449356">
        <ele>589.6</ele>
        <time>1970-01-01T01:50:15.000Z</time>
      </trkpt>
      <trkpt lat="40.319583" lon="-3.449325">
        <ele>590.2</ele>
        <time>1970-01-01T01:50:16.000Z</time>
      </trkpt>
      <trkpt lat="40.319609" lon="-3.449303">
        <ele>590.4</ele>
        <time>1970-01-01T01:50:17.000Z</time>
      </trkpt>
      <trkpt lat="40.319635" lon="-3.449276">
        <ele>590.8</ele>
        <time>1970-01-01T01:50:18.000Z</time>
      </trkpt>
      <trkpt lat="40.319655" lon="-3.449251">
        <ele>591</ele>
        <time>1970-01-01T01:50:19.000Z</time>
      </trkpt>
      <trkpt lat="40.319677" lon="-3.449227">
        <ele>591</ele>
        <time>1970-01-01T01:50:20.000Z</time>
      </trkpt>
      <trkpt lat="40.319697" lon="-3.449208">
        <ele>591.2</ele>
        <time>1970-01-01T01:50:21.000Z</time>
      </trkpt>
      <trkpt lat="40.319723" lon="-3.449188">
        <ele>591.2</ele>
        <time>1970-01-01T01:50:22.000Z</time>
      </trkpt>
      <trkpt lat="40.319756" lon="-3.449162">
        <ele>591.4</ele>
        <time>1970-01-01T01:50:23.000Z</time>
      </trkpt>
      <trkpt lat="40.319783" lon="-3.449141">
        <ele>591.6</ele>
        <time>1970-01-01T01:50:24.000Z</time>
      </trkpt>
      <trkpt lat="40.319807" lon="-3.44912">
        <ele>592.2</ele>
        <time>1970-01-01T01:50:25.000Z</time>
      </trkpt>
      <trkpt lat="40.319829" lon="-3.449098">
        <ele>592.4</ele>
        <time>1970-01-01T01:50:26.000Z</time>
      </trkpt>
      <trkpt lat="40.319849" lon="-3.449086">
        <ele>592.4</ele>
        <time>1970-01-01T01:50:27.000Z</time>
      </trkpt>
      <trkpt lat="40.319872" lon="-3.449068">
        <ele>592.4</ele>
        <time>1970-01-01T01:50:28.000Z</time>
      </trkpt>
      <trkpt lat="40.319902" lon="-3.449051">
        <ele>592.6</ele>
        <time>1970-01-01T01:50:29.000Z</time>
      </trkpt>
      <trkpt lat="40.319924" lon="-3.449039">
        <ele>592.6</ele>
        <time>1970-01-01T01:50:30.000Z</time>
      </trkpt>
      <trkpt lat="40.319942" lon="-3.449033">
        <ele>592.6</ele>
        <time>1970-01-01T01:50:31.000Z</time>
      </trkpt>
      <trkpt lat="40.319947" lon="-3.449031">
        <ele>592.8</ele>
        <time>1970-01-01T01:50:32.000Z</time>
      </trkpt>
      <trkpt lat="40.319949" lon="-3.449033">
        <ele>593</ele>
        <time>1970-01-01T01:50:33.000Z</time>
      </trkpt>
      <trkpt lat="40.319956" lon="-3.449039">
        <ele>593</ele>
        <time>1970-01-01T01:50:34.000Z</time>
      </trkpt>
      <trkpt lat="40.319967" lon="-3.449041">
        <ele>593.2</ele>
        <time>1970-01-01T01:50:35.000Z</time>
      </trkpt>
      <trkpt lat="40.319981" lon="-3.449035">
        <ele>593.2</ele>
        <time>1970-01-01T01:50:36.000Z</time>
      </trkpt>
      <trkpt lat="40.319987" lon="-3.44902">
        <ele>593.4</ele>
        <time>1970-01-01T01:50:37.000Z</time>
      </trkpt>
      <trkpt lat="40.319987" lon="-3.449004">
        <ele>593.4</ele>
        <time>1970-01-01T01:50:38.000Z</time>
      </trkpt>
      <trkpt lat="40.319989" lon="-3.448978">
        <ele>593.6</ele>
        <time>1970-01-01T01:50:39.000Z</time>
      </trkpt>
      <trkpt lat="40.320003" lon="-3.448959">
        <ele>593.6</ele>
        <time>1970-01-01T01:50:40.000Z</time>
      </trkpt>
      <trkpt lat="40.32003" lon="-3.44896">
        <ele>593.6</ele>
        <time>1970-01-01T01:50:41.000Z</time>
      </trkpt>
      <trkpt lat="40.320063" lon="-3.448977">
        <ele>593.6</ele>
        <time>1970-01-01T01:50:42.000Z</time>
      </trkpt>
      <trkpt lat="40.320104" lon="-3.448986">
        <ele>593.6</ele>
        <time>1970-01-01T01:50:43.000Z</time>
      </trkpt>
      <trkpt lat="40.320142" lon="-3.448987">
        <ele>593.8</ele>
        <time>1970-01-01T01:50:44.000Z</time>
      </trkpt>
      <trkpt lat="40.320197" lon="-3.448978">
        <ele>593.8</ele>
        <time>1970-01-01T01:50:45.000Z</time>
      </trkpt>
      <trkpt lat="40.320245" lon="-3.448968">
        <ele>593.8</ele>
        <time>1970-01-01T01:50:46.000Z</time>
      </trkpt>
      <trkpt lat="40.320292" lon="-3.448955">
        <ele>593.8</ele>
        <time>1970-01-01T01:50:47.000Z</time>
      </trkpt>
      <trkpt lat="40.320328" lon="-3.44894">
        <ele>593.8</ele>
        <time>1970-01-01T01:50:48.000Z</time>
      </trkpt>
      <trkpt lat="40.320372" lon="-3.448921">
        <ele>593.8</ele>
        <time>1970-01-01T01:50:49.000Z</time>
      </trkpt>
      <trkpt lat="40.320425" lon="-3.448896">
        <ele>593.8</ele>
        <time>1970-01-01T01:50:50.000Z</time>
      </trkpt>
      <trkpt lat="40.32047" lon="-3.448877">
        <ele>593.8</ele>
        <time>1970-01-01T01:50:51.000Z</time>
      </trkpt>
      <trkpt lat="40.320514" lon="-3.448858">
        <ele>593.8</ele>
        <time>1970-01-01T01:50:52.000Z</time>
      </trkpt>
      <trkpt lat="40.320557" lon="-3.448837">
        <ele>593.8</ele>
        <time>1970-01-01T01:50:53.000Z</time>
      </trkpt>
      <trkpt lat="40.320592" lon="-3.448821">
        <ele>594.2</ele>
        <time>1970-01-01T01:50:54.000Z</time>
      </trkpt>
      <trkpt lat="40.320643" lon="-3.448794">
        <ele>594.2</ele>
        <time>1970-01-01T01:50:55.000Z</time>
      </trkpt>
      <trkpt lat="40.320685" lon="-3.448769">
        <ele>594.2</ele>
        <time>1970-01-01T01:50:56.000Z</time>
      </trkpt>
      <trkpt lat="40.320725" lon="-3.448744">
        <ele>594.4</ele>
        <time>1970-01-01T01:50:57.000Z</time>
      </trkpt>
      <trkpt lat="40.320759" lon="-3.448726">
        <ele>594.6</ele>
        <time>1970-01-01T01:50:58.000Z</time>
      </trkpt>
      <trkpt lat="40.320798" lon="-3.448706">
        <ele>594.6</ele>
        <time>1970-01-01T01:50:59.000Z</time>
      </trkpt>
      <trkpt lat="40.320843" lon="-3.448675">
        <ele>594.8</ele>
        <time>1970-01-01T01:51:00.000Z</time>
      </trkpt>
      <trkpt lat="40.320869" lon="-3.448649">
        <ele>595</ele>
        <time>1970-01-01T01:51:01.000Z</time>
      </trkpt>
      <trkpt lat="40.320899" lon="-3.44861">
        <ele>595</ele>
        <time>1970-01-01T01:51:02.000Z</time>
      </trkpt>
      <trkpt lat="40.320936" lon="-3.448564">
        <ele>595.6</ele>
        <time>1970-01-01T01:51:03.000Z</time>
      </trkpt>
      <trkpt lat="40.320963" lon="-3.448533">
        <ele>595.6</ele>
        <time>1970-01-01T01:51:04.000Z</time>
      </trkpt>
      <trkpt lat="40.320995" lon="-3.448495">
        <ele>595.8</ele>
        <time>1970-01-01T01:51:05.000Z</time>
      </trkpt>
      <trkpt lat="40.321029" lon="-3.448446">
        <ele>595.8</ele>
        <time>1970-01-01T01:51:06.000Z</time>
      </trkpt>
      <trkpt lat="40.321058" lon="-3.448401">
        <ele>596.2</ele>
        <time>1970-01-01T01:51:07.000Z</time>
      </trkpt>
      <trkpt lat="40.321087" lon="-3.448356">
        <ele>596.4</ele>
        <time>1970-01-01T01:51:08.000Z</time>
      </trkpt>
      <trkpt lat="40.321117" lon="-3.448313">
        <ele>596.4</ele>
        <time>1970-01-01T01:51:09.000Z</time>
      </trkpt>
      <trkpt lat="40.321144" lon="-3.448282">
        <ele>596.6</ele>
        <time>1970-01-01T01:51:10.000Z</time>
      </trkpt>
      <trkpt lat="40.321191" lon="-3.448245">
        <ele>596.8</ele>
        <time>1970-01-01T01:51:11.000Z</time>
      </trkpt>
      <trkpt lat="40.321234" lon="-3.448221">
        <ele>597</ele>
        <time>1970-01-01T01:51:12.000Z</time>
      </trkpt>
      <trkpt lat="40.321283" lon="-3.448208">
        <ele>597</ele>
        <time>1970-01-01T01:51:13.000Z</time>
      </trkpt>
      <trkpt lat="40.321335" lon="-3.448213">
        <ele>597</ele>
        <time>1970-01-01T01:51:14.000Z</time>
      </trkpt>
      <trkpt lat="40.321378" lon="-3.44823">
        <ele>596.8</ele>
        <time>1970-01-01T01:51:15.000Z</time>
      </trkpt>
      <trkpt lat="40.321431" lon="-3.448261">
        <ele>596.8</ele>
        <time>1970-01-01T01:51:16.000Z</time>
      </trkpt>
      <trkpt lat="40.321491" lon="-3.448313">
        <ele>596.8</ele>
        <time>1970-01-01T01:51:17.000Z</time>
      </trkpt>
      <trkpt lat="40.321534" lon="-3.448373">
        <ele>596.8</ele>
        <time>1970-01-01T01:51:18.000Z</time>
      </trkpt>
      <trkpt lat="40.321573" lon="-3.448445">
        <ele>596.6</ele>
        <time>1970-01-01T01:51:19.000Z</time>
      </trkpt>
      <trkpt lat="40.321604" lon="-3.448505">
        <ele>596.4</ele>
        <time>1970-01-01T01:51:20.000Z</time>
      </trkpt>
      <trkpt lat="40.321647" lon="-3.448607">
        <ele>596</ele>
        <time>1970-01-01T01:51:21.000Z</time>
      </trkpt>
      <trkpt lat="40.321681" lon="-3.448698">
        <ele>595.6</ele>
        <time>1970-01-01T01:51:22.000Z</time>
      </trkpt>
      <trkpt lat="40.321716" lon="-3.44879">
        <ele>595.4</ele>
        <time>1970-01-01T01:51:23.000Z</time>
      </trkpt>
      <trkpt lat="40.321755" lon="-3.44888">
        <ele>595.2</ele>
        <time>1970-01-01T01:51:24.000Z</time>
      </trkpt>
      <trkpt lat="40.321806" lon="-3.448958">
        <ele>595.2</ele>
        <time>1970-01-01T01:51:25.000Z</time>
      </trkpt>
      <trkpt lat="40.321864" lon="-3.449019">
        <ele>594.6</ele>
        <time>1970-01-01T01:51:26.000Z</time>
      </trkpt>
      <trkpt lat="40.321924" lon="-3.449075">
        <ele>594.4</ele>
        <time>1970-01-01T01:51:27.000Z</time>
      </trkpt>
      <trkpt lat="40.321984" lon="-3.44913">
        <ele>593.8</ele>
        <time>1970-01-01T01:51:28.000Z</time>
      </trkpt>
      <trkpt lat="40.322038" lon="-3.449192">
        <ele>593.2</ele>
        <time>1970-01-01T01:51:29.000Z</time>
      </trkpt>
      <trkpt lat="40.322087" lon="-3.449258">
        <ele>592.8</ele>
        <time>1970-01-01T01:51:30.000Z</time>
      </trkpt>
      <trkpt lat="40.322129" lon="-3.449322">
        <ele>592.4</ele>
        <time>1970-01-01T01:51:31.000Z</time>
      </trkpt>
      <trkpt lat="40.322162" lon="-3.449374">
        <ele>592.2</ele>
        <time>1970-01-01T01:51:32.000Z</time>
      </trkpt>
      <trkpt lat="40.322214" lon="-3.44945">
        <ele>592</ele>
        <time>1970-01-01T01:51:33.000Z</time>
      </trkpt>
      <trkpt lat="40.322257" lon="-3.449508">
        <ele>591.8</ele>
        <time>1970-01-01T01:51:34.000Z</time>
      </trkpt>
      <trkpt lat="40.322292" lon="-3.449551">
        <ele>591.8</ele>
        <time>1970-01-01T01:51:35.000Z</time>
      </trkpt>
      <trkpt lat="40.322348" lon="-3.449612">
        <ele>591.6</ele>
        <time>1970-01-01T01:51:36.000Z</time>
      </trkpt>
      <trkpt lat="40.322395" lon="-3.449659">
        <ele>591.6</ele>
        <time>1970-01-01T01:51:37.000Z</time>
      </trkpt>
      <trkpt lat="40.322443" lon="-3.449706">
        <ele>591.6</ele>
        <time>1970-01-01T01:51:38.000Z</time>
      </trkpt>
      <trkpt lat="40.322491" lon="-3.449751">
        <ele>591.6</ele>
        <time>1970-01-01T01:51:39.000Z</time>
      </trkpt>
      <trkpt lat="40.32254" lon="-3.449794">
        <ele>591.8</ele>
        <time>1970-01-01T01:51:40.000Z</time>
      </trkpt>
      <trkpt lat="40.322579" lon="-3.449826">
        <ele>591.8</ele>
        <time>1970-01-01T01:51:41.000Z</time>
      </trkpt>
      <trkpt lat="40.322637" lon="-3.449876">
        <ele>591.8</ele>
        <time>1970-01-01T01:51:42.000Z</time>
      </trkpt>
      <trkpt lat="40.322685" lon="-3.449913">
        <ele>591.8</ele>
        <time>1970-01-01T01:51:43.000Z</time>
      </trkpt>
      <trkpt lat="40.322732" lon="-3.449947">
        <ele>591.8</ele>
        <time>1970-01-01T01:51:44.000Z</time>
      </trkpt>
      <trkpt lat="40.322777" lon="-3.449977">
        <ele>591.8</ele>
        <time>1970-01-01T01:51:45.000Z</time>
      </trkpt>
      <trkpt lat="40.32282" lon="-3.450007">
        <ele>591.8</ele>
        <time>1970-01-01T01:51:46.000Z</time>
      </trkpt>
      <trkpt lat="40.322853" lon="-3.450029">
        <ele>592</ele>
        <time>1970-01-01T01:51:47.000Z</time>
      </trkpt>
      <trkpt lat="40.322898" lon="-3.45006">
        <ele>592</ele>
        <time>1970-01-01T01:51:48.000Z</time>
      </trkpt>
      <trkpt lat="40.322933" lon="-3.450085">
        <ele>592.2</ele>
        <time>1970-01-01T01:51:49.000Z</time>
      </trkpt>
      <trkpt lat="40.322964" lon="-3.450107">
        <ele>592.4</ele>
        <time>1970-01-01T01:51:50.000Z</time>
      </trkpt>
      <trkpt lat="40.322991" lon="-3.450127">
        <ele>592.6</ele>
        <time>1970-01-01T01:51:51.000Z</time>
      </trkpt>
      <trkpt lat="40.323018" lon="-3.450149">
        <ele>592.8</ele>
        <time>1970-01-01T01:51:52.000Z</time>
      </trkpt>
      <trkpt lat="40.323046" lon="-3.450174">
        <ele>593.2</ele>
        <time>1970-01-01T01:51:53.000Z</time>
      </trkpt>
      <trkpt lat="40.323073" lon="-3.450199">
        <ele>593.4</ele>
        <time>1970-01-01T01:51:54.000Z</time>
      </trkpt>
      <trkpt lat="40.323102" lon="-3.450223">
        <ele>593.6</ele>
        <time>1970-01-01T01:51:55.000Z</time>
      </trkpt>
      <trkpt lat="40.323127" lon="-3.450248">
        <ele>594.2</ele>
        <time>1970-01-01T01:51:56.000Z</time>
      </trkpt>
      <trkpt lat="40.323154" lon="-3.450275">
        <ele>594.6</ele>
        <time>1970-01-01T01:51:57.000Z</time>
      </trkpt>
      <trkpt lat="40.323183" lon="-3.450298">
        <ele>594.8</ele>
        <time>1970-01-01T01:51:58.000Z</time>
      </trkpt>
      <trkpt lat="40.323219" lon="-3.450306">
        <ele>595</ele>
        <time>1970-01-01T01:51:59.000Z</time>
      </trkpt>
      <trkpt lat="40.323252" lon="-3.450292">
        <ele>595</ele>
        <time>1970-01-01T01:52:00.000Z</time>
      </trkpt>
      <trkpt lat="40.323274" lon="-3.450262">
        <ele>595.2</ele>
        <time>1970-01-01T01:52:01.000Z</time>
      </trkpt>
      <trkpt lat="40.323293" lon="-3.450204">
        <ele>595.2</ele>
        <time>1970-01-01T01:52:02.000Z</time>
      </trkpt>
      <trkpt lat="40.323295" lon="-3.450149">
        <ele>595.2</ele>
        <time>1970-01-01T01:52:03.000Z</time>
      </trkpt>
      <trkpt lat="40.323297" lon="-3.450088">
        <ele>595.4</ele>
        <time>1970-01-01T01:52:04.000Z</time>
      </trkpt>
      <trkpt lat="40.3233" lon="-3.450036">
        <ele>595.4</ele>
        <time>1970-01-01T01:52:05.000Z</time>
      </trkpt>
      <trkpt lat="40.323306" lon="-3.449972">
        <ele>595.6</ele>
        <time>1970-01-01T01:52:06.000Z</time>
      </trkpt>
      <trkpt lat="40.323314" lon="-3.449892">
        <ele>595.6</ele>
        <time>1970-01-01T01:52:07.000Z</time>
      </trkpt>
      <trkpt lat="40.323324" lon="-3.449823">
        <ele>595.6</ele>
        <time>1970-01-01T01:52:08.000Z</time>
      </trkpt>
      <trkpt lat="40.323338" lon="-3.449756">
        <ele>595.6</ele>
        <time>1970-01-01T01:52:09.000Z</time>
      </trkpt>
      <trkpt lat="40.323357" lon="-3.449688">
        <ele>595.6</ele>
        <time>1970-01-01T01:52:10.000Z</time>
      </trkpt>
      <trkpt lat="40.323377" lon="-3.449619">
        <ele>595.6</ele>
        <time>1970-01-01T01:52:11.000Z</time>
      </trkpt>
      <trkpt lat="40.323393" lon="-3.449549">
        <ele>595.6</ele>
        <time>1970-01-01T01:52:12.000Z</time>
      </trkpt>
      <trkpt lat="40.323403" lon="-3.449475">
        <ele>595.6</ele>
        <time>1970-01-01T01:52:13.000Z</time>
      </trkpt>
      <trkpt lat="40.323408" lon="-3.449401">
        <ele>595.6</ele>
        <time>1970-01-01T01:52:14.000Z</time>
      </trkpt>
      <trkpt lat="40.323406" lon="-3.449338">
        <ele>595.6</ele>
        <time>1970-01-01T01:52:15.000Z</time>
      </trkpt>
      <trkpt lat="40.323395" lon="-3.449246">
        <ele>595.6</ele>
        <time>1970-01-01T01:52:16.000Z</time>
      </trkpt>
      <trkpt lat="40.323384" lon="-3.44917">
        <ele>595.6</ele>
        <time>1970-01-01T01:52:17.000Z</time>
      </trkpt>
      <trkpt lat="40.323379" lon="-3.449092">
        <ele>595.6</ele>
        <time>1970-01-01T01:52:18.000Z</time>
      </trkpt>
      <trkpt lat="40.323378" lon="-3.44903">
        <ele>595.6</ele>
        <time>1970-01-01T01:52:19.000Z</time>
      </trkpt>
      <trkpt lat="40.323378" lon="-3.448951">
        <ele>595.6</ele>
        <time>1970-01-01T01:52:20.000Z</time>
      </trkpt>
      <trkpt lat="40.323378" lon="-3.448872">
        <ele>595.6</ele>
        <time>1970-01-01T01:52:21.000Z</time>
      </trkpt>
      <trkpt lat="40.32338" lon="-3.448779">
        <ele>595.6</ele>
        <time>1970-01-01T01:52:22.000Z</time>
      </trkpt>
      <trkpt lat="40.323383" lon="-3.448701">
        <ele>595.8</ele>
        <time>1970-01-01T01:52:23.000Z</time>
      </trkpt>
      <trkpt lat="40.323386" lon="-3.448624">
        <ele>595.8</ele>
        <time>1970-01-01T01:52:24.000Z</time>
      </trkpt>
      <trkpt lat="40.323389" lon="-3.448562">
        <ele>596</ele>
        <time>1970-01-01T01:52:25.000Z</time>
      </trkpt>
      <trkpt lat="40.323393" lon="-3.448487">
        <ele>596</ele>
        <time>1970-01-01T01:52:26.000Z</time>
      </trkpt>
      <trkpt lat="40.323396" lon="-3.448397">
        <ele>596</ele>
        <time>1970-01-01T01:52:27.000Z</time>
      </trkpt>
      <trkpt lat="40.323399" lon="-3.44832">
        <ele>596</ele>
        <time>1970-01-01T01:52:28.000Z</time>
      </trkpt>
      <trkpt lat="40.323402" lon="-3.448244">
        <ele>596.2</ele>
        <time>1970-01-01T01:52:29.000Z</time>
      </trkpt>
      <trkpt lat="40.323405" lon="-3.448169">
        <ele>596.2</ele>
        <time>1970-01-01T01:52:30.000Z</time>
      </trkpt>
      <trkpt lat="40.323408" lon="-3.448093">
        <ele>596.2</ele>
        <time>1970-01-01T01:52:31.000Z</time>
      </trkpt>
      <trkpt lat="40.323409" lon="-3.448018">
        <ele>596.2</ele>
        <time>1970-01-01T01:52:32.000Z</time>
      </trkpt>
      <trkpt lat="40.323411" lon="-3.447942">
        <ele>596.2</ele>
        <time>1970-01-01T01:52:33.000Z</time>
      </trkpt>
      <trkpt lat="40.323413" lon="-3.447869">
        <ele>596.4</ele>
        <time>1970-01-01T01:52:34.000Z</time>
      </trkpt>
      <trkpt lat="40.323417" lon="-3.447798">
        <ele>596.4</ele>
        <time>1970-01-01T01:52:35.000Z</time>
      </trkpt>
      <trkpt lat="40.323421" lon="-3.447739">
        <ele>596.6</ele>
        <time>1970-01-01T01:52:36.000Z</time>
      </trkpt>
      <trkpt lat="40.323424" lon="-3.447653">
        <ele>596.8</ele>
        <time>1970-01-01T01:52:37.000Z</time>
      </trkpt>
      <trkpt lat="40.323428" lon="-3.44758">
        <ele>597</ele>
        <time>1970-01-01T01:52:38.000Z</time>
      </trkpt>
      <trkpt lat="40.323431" lon="-3.447507">
        <ele>597.2</ele>
        <time>1970-01-01T01:52:39.000Z</time>
      </trkpt>
      <trkpt lat="40.323435" lon="-3.447434">
        <ele>597.4</ele>
        <time>1970-01-01T01:52:40.000Z</time>
      </trkpt>
      <trkpt lat="40.323437" lon="-3.447362">
        <ele>597.6</ele>
        <time>1970-01-01T01:52:41.000Z</time>
      </trkpt>
      <trkpt lat="40.323441" lon="-3.447289">
        <ele>597.6</ele>
        <time>1970-01-01T01:52:42.000Z</time>
      </trkpt>
      <trkpt lat="40.323444" lon="-3.447217">
        <ele>597.8</ele>
        <time>1970-01-01T01:52:43.000Z</time>
      </trkpt>
      <trkpt lat="40.323446" lon="-3.447159">
        <ele>597.8</ele>
        <time>1970-01-01T01:52:44.000Z</time>
      </trkpt>
      <trkpt lat="40.323447" lon="-3.447073">
        <ele>598</ele>
        <time>1970-01-01T01:52:45.000Z</time>
      </trkpt>
      <trkpt lat="40.323448" lon="-3.447001">
        <ele>598</ele>
        <time>1970-01-01T01:52:46.000Z</time>
      </trkpt>
      <trkpt lat="40.323451" lon="-3.446928">
        <ele>598</ele>
        <time>1970-01-01T01:52:47.000Z</time>
      </trkpt>
      <trkpt lat="40.323456" lon="-3.446858">
        <ele>598.2</ele>
        <time>1970-01-01T01:52:48.000Z</time>
      </trkpt>
      <trkpt lat="40.323461" lon="-3.446787">
        <ele>598.2</ele>
        <time>1970-01-01T01:52:49.000Z</time>
      </trkpt>
      <trkpt lat="40.323465" lon="-3.44673">
        <ele>598.4</ele>
        <time>1970-01-01T01:52:50.000Z</time>
      </trkpt>
      <trkpt lat="40.32347" lon="-3.446647">
        <ele>598.4</ele>
        <time>1970-01-01T01:52:51.000Z</time>
      </trkpt>
      <trkpt lat="40.323472" lon="-3.446578">
        <ele>598.6</ele>
        <time>1970-01-01T01:52:52.000Z</time>
      </trkpt>
      <trkpt lat="40.323477" lon="-3.446512">
        <ele>599</ele>
        <time>1970-01-01T01:52:53.000Z</time>
      </trkpt>
      <trkpt lat="40.323484" lon="-3.44645">
        <ele>599</ele>
        <time>1970-01-01T01:52:54.000Z</time>
      </trkpt>
      <trkpt lat="40.323493" lon="-3.446396">
        <ele>599.2</ele>
        <time>1970-01-01T01:52:55.000Z</time>
      </trkpt>
      <trkpt lat="40.323508" lon="-3.446354">
        <ele>599.2</ele>
        <time>1970-01-01T01:52:56.000Z</time>
      </trkpt>
      <trkpt lat="40.32353" lon="-3.446328">
        <ele>599.4</ele>
        <time>1970-01-01T01:52:57.000Z</time>
      </trkpt>
      <trkpt lat="40.323558" lon="-3.446318">
        <ele>599.6</ele>
        <time>1970-01-01T01:52:58.000Z</time>
      </trkpt>
      <trkpt lat="40.323592" lon="-3.446325">
        <ele>599.8</ele>
        <time>1970-01-01T01:52:59.000Z</time>
      </trkpt>
      <trkpt lat="40.323629" lon="-3.446339">
        <ele>600</ele>
        <time>1970-01-01T01:53:00.000Z</time>
      </trkpt>
      <trkpt lat="40.323671" lon="-3.446355">
        <ele>600</ele>
        <time>1970-01-01T01:53:01.000Z</time>
      </trkpt>
      <trkpt lat="40.323719" lon="-3.446371">
        <ele>600</ele>
        <time>1970-01-01T01:53:02.000Z</time>
      </trkpt>
      <trkpt lat="40.323768" lon="-3.446386">
        <ele>600.2</ele>
        <time>1970-01-01T01:53:03.000Z</time>
      </trkpt>
      <trkpt lat="40.32382" lon="-3.4464">
        <ele>600.2</ele>
        <time>1970-01-01T01:53:04.000Z</time>
      </trkpt>
      <trkpt lat="40.323874" lon="-3.446414">
        <ele>600.2</ele>
        <time>1970-01-01T01:53:05.000Z</time>
      </trkpt>
      <trkpt lat="40.323931" lon="-3.446428">
        <ele>600.4</ele>
        <time>1970-01-01T01:53:06.000Z</time>
      </trkpt>
      <trkpt lat="40.32399" lon="-3.44644">
        <ele>600.4</ele>
        <time>1970-01-01T01:53:07.000Z</time>
      </trkpt>
      <trkpt lat="40.324052" lon="-3.44645">
        <ele>600.4</ele>
        <time>1970-01-01T01:53:08.000Z</time>
      </trkpt>
      <trkpt lat="40.324103" lon="-3.44646">
        <ele>600.6</ele>
        <time>1970-01-01T01:53:09.000Z</time>
      </trkpt>
      <trkpt lat="40.324166" lon="-3.446474">
        <ele>600.6</ele>
        <time>1970-01-01T01:53:10.000Z</time>
      </trkpt>
      <trkpt lat="40.324242" lon="-3.446492">
        <ele>600.4</ele>
        <time>1970-01-01T01:53:11.000Z</time>
      </trkpt>
      <trkpt lat="40.324308" lon="-3.44651">
        <ele>600.4</ele>
        <time>1970-01-01T01:53:12.000Z</time>
      </trkpt>
      <trkpt lat="40.324372" lon="-3.44653">
        <ele>600.4</ele>
        <time>1970-01-01T01:53:13.000Z</time>
      </trkpt>
      <trkpt lat="40.324436" lon="-3.44655">
        <ele>600.2</ele>
        <time>1970-01-01T01:53:14.000Z</time>
      </trkpt>
      <trkpt lat="40.324486" lon="-3.446566">
        <ele>600.2</ele>
        <time>1970-01-01T01:53:15.000Z</time>
      </trkpt>
      <trkpt lat="40.324561" lon="-3.446594">
        <ele>600.2</ele>
        <time>1970-01-01T01:53:16.000Z</time>
      </trkpt>
      <trkpt lat="40.324624" lon="-3.446616">
        <ele>600.2</ele>
        <time>1970-01-01T01:53:17.000Z</time>
      </trkpt>
      <trkpt lat="40.324688" lon="-3.446639">
        <ele>600.2</ele>
        <time>1970-01-01T01:53:18.000Z</time>
      </trkpt>
      <trkpt lat="40.324754" lon="-3.446663">
        <ele>600.2</ele>
        <time>1970-01-01T01:53:19.000Z</time>
      </trkpt>
      <trkpt lat="40.324821" lon="-3.446688">
        <ele>600</ele>
        <time>1970-01-01T01:53:20.000Z</time>
      </trkpt>
      <trkpt lat="40.324888" lon="-3.446711">
        <ele>600</ele>
        <time>1970-01-01T01:53:21.000Z</time>
      </trkpt>
      <trkpt lat="40.324957" lon="-3.446733">
        <ele>600</ele>
        <time>1970-01-01T01:53:22.000Z</time>
      </trkpt>
      <trkpt lat="40.325026" lon="-3.446752">
        <ele>600</ele>
        <time>1970-01-01T01:53:23.000Z</time>
      </trkpt>
      <trkpt lat="40.325094" lon="-3.446771">
        <ele>599.8</ele>
        <time>1970-01-01T01:53:24.000Z</time>
      </trkpt>
      <trkpt lat="40.325164" lon="-3.446791">
        <ele>599.8</ele>
        <time>1970-01-01T01:53:25.000Z</time>
      </trkpt>
      <trkpt lat="40.325232" lon="-3.446813">
        <ele>600</ele>
        <time>1970-01-01T01:53:26.000Z</time>
      </trkpt>
      <trkpt lat="40.325299" lon="-3.446837">
        <ele>600</ele>
        <time>1970-01-01T01:53:27.000Z</time>
      </trkpt>
      <trkpt lat="40.325354" lon="-3.446856">
        <ele>600</ele>
        <time>1970-01-01T01:53:28.000Z</time>
      </trkpt>
      <trkpt lat="40.325435" lon="-3.446888">
        <ele>600</ele>
        <time>1970-01-01T01:53:29.000Z</time>
      </trkpt>
      <trkpt lat="40.325501" lon="-3.446919">
        <ele>600</ele>
        <time>1970-01-01T01:53:30.000Z</time>
      </trkpt>
      <trkpt lat="40.325568" lon="-3.446952">
        <ele>600</ele>
        <time>1970-01-01T01:53:31.000Z</time>
      </trkpt>
      <trkpt lat="40.325636" lon="-3.446983">
        <ele>600</ele>
        <time>1970-01-01T01:53:32.000Z</time>
      </trkpt>
      <trkpt lat="40.325702" lon="-3.447015">
        <ele>600</ele>
        <time>1970-01-01T01:53:33.000Z</time>
      </trkpt>
      <trkpt lat="40.325769" lon="-3.447047">
        <ele>600</ele>
        <time>1970-01-01T01:53:34.000Z</time>
      </trkpt>
      <trkpt lat="40.325837" lon="-3.447077">
        <ele>600</ele>
        <time>1970-01-01T01:53:35.000Z</time>
      </trkpt>
      <trkpt lat="40.325905" lon="-3.447105">
        <ele>600</ele>
        <time>1970-01-01T01:53:36.000Z</time>
      </trkpt>
      <trkpt lat="40.325975" lon="-3.44713">
        <ele>600</ele>
        <time>1970-01-01T01:53:37.000Z</time>
      </trkpt>
      <trkpt lat="40.326044" lon="-3.447154">
        <ele>600</ele>
        <time>1970-01-01T01:53:38.000Z</time>
      </trkpt>
      <trkpt lat="40.326114" lon="-3.447172">
        <ele>600</ele>
        <time>1970-01-01T01:53:39.000Z</time>
      </trkpt>
      <trkpt lat="40.326185" lon="-3.447188">
        <ele>600</ele>
        <time>1970-01-01T01:53:40.000Z</time>
      </trkpt>
      <trkpt lat="40.326256" lon="-3.447201">
        <ele>600</ele>
        <time>1970-01-01T01:53:41.000Z</time>
      </trkpt>
      <trkpt lat="40.326328" lon="-3.447213">
        <ele>599.8</ele>
        <time>1970-01-01T01:53:42.000Z</time>
      </trkpt>
      <trkpt lat="40.326399" lon="-3.447226">
        <ele>599.8</ele>
        <time>1970-01-01T01:53:43.000Z</time>
      </trkpt>
      <trkpt lat="40.326455" lon="-3.447235">
        <ele>599.6</ele>
        <time>1970-01-01T01:53:44.000Z</time>
      </trkpt>
      <trkpt lat="40.326539" lon="-3.447249">
        <ele>599.6</ele>
        <time>1970-01-01T01:53:45.000Z</time>
      </trkpt>
      <trkpt lat="40.326611" lon="-3.447263">
        <ele>599.6</ele>
        <time>1970-01-01T01:53:46.000Z</time>
      </trkpt>
      <trkpt lat="40.32668" lon="-3.447276">
        <ele>599.6</ele>
        <time>1970-01-01T01:53:47.000Z</time>
      </trkpt>
      <trkpt lat="40.32675" lon="-3.447289">
        <ele>599.6</ele>
        <time>1970-01-01T01:53:48.000Z</time>
      </trkpt>
      <trkpt lat="40.326818" lon="-3.447303">
        <ele>599.6</ele>
        <time>1970-01-01T01:53:49.000Z</time>
      </trkpt>
      <trkpt lat="40.326885" lon="-3.447316">
        <ele>599.6</ele>
        <time>1970-01-01T01:53:50.000Z</time>
      </trkpt>
      <trkpt lat="40.326951" lon="-3.447328">
        <ele>599.4</ele>
        <time>1970-01-01T01:53:51.000Z</time>
      </trkpt>
      <trkpt lat="40.327018" lon="-3.447342">
        <ele>599.4</ele>
        <time>1970-01-01T01:53:52.000Z</time>
      </trkpt>
      <trkpt lat="40.327085" lon="-3.447354">
        <ele>599.4</ele>
        <time>1970-01-01T01:53:53.000Z</time>
      </trkpt>
      <trkpt lat="40.327139" lon="-3.447367">
        <ele>599.4</ele>
        <time>1970-01-01T01:53:54.000Z</time>
      </trkpt>
      <trkpt lat="40.327219" lon="-3.447387">
        <ele>599.4</ele>
        <time>1970-01-01T01:53:55.000Z</time>
      </trkpt>
      <trkpt lat="40.327288" lon="-3.447407">
        <ele>599.4</ele>
        <time>1970-01-01T01:53:56.000Z</time>
      </trkpt>
      <trkpt lat="40.327357" lon="-3.447429">
        <ele>599.2</ele>
        <time>1970-01-01T01:53:57.000Z</time>
      </trkpt>
      <trkpt lat="40.327425" lon="-3.447452">
        <ele>599.2</ele>
        <time>1970-01-01T01:53:58.000Z</time>
      </trkpt>
      <trkpt lat="40.327479" lon="-3.447472">
        <ele>599.2</ele>
        <time>1970-01-01T01:53:59.000Z</time>
      </trkpt>
      <trkpt lat="40.32756" lon="-3.447502">
        <ele>599.2</ele>
        <time>1970-01-01T01:54:00.000Z</time>
      </trkpt>
      <trkpt lat="40.327626" lon="-3.44753">
        <ele>599.2</ele>
        <time>1970-01-01T01:54:01.000Z</time>
      </trkpt>
      <trkpt lat="40.327691" lon="-3.447557">
        <ele>599.2</ele>
        <time>1970-01-01T01:54:02.000Z</time>
      </trkpt>
      <trkpt lat="40.327757" lon="-3.447584">
        <ele>599.4</ele>
        <time>1970-01-01T01:54:03.000Z</time>
      </trkpt>
      <trkpt lat="40.327824" lon="-3.44761">
        <ele>599.4</ele>
        <time>1970-01-01T01:54:04.000Z</time>
      </trkpt>
      <trkpt lat="40.327889" lon="-3.447637">
        <ele>599.4</ele>
        <time>1970-01-01T01:54:05.000Z</time>
      </trkpt>
      <trkpt lat="40.327954" lon="-3.447665">
        <ele>599.4</ele>
        <time>1970-01-01T01:54:06.000Z</time>
      </trkpt>
      <trkpt lat="40.328018" lon="-3.447693">
        <ele>599.4</ele>
        <time>1970-01-01T01:54:07.000Z</time>
      </trkpt>
      <trkpt lat="40.328084" lon="-3.447722">
        <ele>599.4</ele>
        <time>1970-01-01T01:54:08.000Z</time>
      </trkpt>
      <trkpt lat="40.32815" lon="-3.447752">
        <ele>599.4</ele>
        <time>1970-01-01T01:54:09.000Z</time>
      </trkpt>
      <trkpt lat="40.328217" lon="-3.447783">
        <ele>599.4</ele>
        <time>1970-01-01T01:54:10.000Z</time>
      </trkpt>
      <trkpt lat="40.328284" lon="-3.447817">
        <ele>599.4</ele>
        <time>1970-01-01T01:54:11.000Z</time>
      </trkpt>
      <trkpt lat="40.328335" lon="-3.447845">
        <ele>599.6</ele>
        <time>1970-01-01T01:54:12.000Z</time>
      </trkpt>
      <trkpt lat="40.328411" lon="-3.447894">
        <ele>599.6</ele>
        <time>1970-01-01T01:54:13.000Z</time>
      </trkpt>
      <trkpt lat="40.328473" lon="-3.44794">
        <ele>599.6</ele>
        <time>1970-01-01T01:54:14.000Z</time>
      </trkpt>
      <trkpt lat="40.328535" lon="-3.447985">
        <ele>599.6</ele>
        <time>1970-01-01T01:54:15.000Z</time>
      </trkpt>
      <trkpt lat="40.328599" lon="-3.44803">
        <ele>599.4</ele>
        <time>1970-01-01T01:54:16.000Z</time>
      </trkpt>
      <trkpt lat="40.328664" lon="-3.448072">
        <ele>599.4</ele>
        <time>1970-01-01T01:54:17.000Z</time>
      </trkpt>
      <trkpt lat="40.32873" lon="-3.448114">
        <ele>599.4</ele>
        <time>1970-01-01T01:54:18.000Z</time>
      </trkpt>
      <trkpt lat="40.328798" lon="-3.448156">
        <ele>599.4</ele>
        <time>1970-01-01T01:54:19.000Z</time>
      </trkpt>
      <trkpt lat="40.328865" lon="-3.448195">
        <ele>599.4</ele>
        <time>1970-01-01T01:54:20.000Z</time>
      </trkpt>
      <trkpt lat="40.328932" lon="-3.448234">
        <ele>599.4</ele>
        <time>1970-01-01T01:54:21.000Z</time>
      </trkpt>
      <trkpt lat="40.328998" lon="-3.448272">
        <ele>599.2</ele>
        <time>1970-01-01T01:54:22.000Z</time>
      </trkpt>
      <trkpt lat="40.329065" lon="-3.448311">
        <ele>599.2</ele>
        <time>1970-01-01T01:54:23.000Z</time>
      </trkpt>
      <trkpt lat="40.329131" lon="-3.448349">
        <ele>599</ele>
        <time>1970-01-01T01:54:24.000Z</time>
      </trkpt>
      <trkpt lat="40.329195" lon="-3.448386">
        <ele>599</ele>
        <time>1970-01-01T01:54:25.000Z</time>
      </trkpt>
      <trkpt lat="40.32926" lon="-3.448421">
        <ele>599</ele>
        <time>1970-01-01T01:54:26.000Z</time>
      </trkpt>
      <trkpt lat="40.329324" lon="-3.448456">
        <ele>598.8</ele>
        <time>1970-01-01T01:54:27.000Z</time>
      </trkpt>
      <trkpt lat="40.329388" lon="-3.448493">
        <ele>598.6</ele>
        <time>1970-01-01T01:54:28.000Z</time>
      </trkpt>
      <trkpt lat="40.329453" lon="-3.44853">
        <ele>598.4</ele>
        <time>1970-01-01T01:54:29.000Z</time>
      </trkpt>
      <trkpt lat="40.329518" lon="-3.448568">
        <ele>598.4</ele>
        <time>1970-01-01T01:54:30.000Z</time>
      </trkpt>
      <trkpt lat="40.329581" lon="-3.448607">
        <ele>598.2</ele>
        <time>1970-01-01T01:54:31.000Z</time>
      </trkpt>
      <trkpt lat="40.329646" lon="-3.448643">
        <ele>598.2</ele>
        <time>1970-01-01T01:54:32.000Z</time>
      </trkpt>
      <trkpt lat="40.32971" lon="-3.448677">
        <ele>598</ele>
        <time>1970-01-01T01:54:33.000Z</time>
      </trkpt>
      <trkpt lat="40.329773" lon="-3.44871">
        <ele>598</ele>
        <time>1970-01-01T01:54:34.000Z</time>
      </trkpt>
      <trkpt lat="40.329835" lon="-3.448739">
        <ele>598.2</ele>
        <time>1970-01-01T01:54:35.000Z</time>
      </trkpt>
      <trkpt lat="40.329897" lon="-3.448769">
        <ele>598.2</ele>
        <time>1970-01-01T01:54:36.000Z</time>
      </trkpt>
      <trkpt lat="40.32996" lon="-3.448801">
        <ele>598.4</ele>
        <time>1970-01-01T01:54:37.000Z</time>
      </trkpt>
      <trkpt lat="40.330023" lon="-3.448833">
        <ele>598.4</ele>
        <time>1970-01-01T01:54:38.000Z</time>
      </trkpt>
      <trkpt lat="40.330085" lon="-3.448861">
        <ele>598.4</ele>
        <time>1970-01-01T01:54:39.000Z</time>
      </trkpt>
      <trkpt lat="40.330144" lon="-3.448889">
        <ele>598.4</ele>
        <time>1970-01-01T01:54:40.000Z</time>
      </trkpt>
      <trkpt lat="40.330204" lon="-3.448915">
        <ele>598.4</ele>
        <time>1970-01-01T01:54:41.000Z</time>
      </trkpt>
      <trkpt lat="40.330259" lon="-3.448938">
        <ele>598.6</ele>
        <time>1970-01-01T01:54:42.000Z</time>
      </trkpt>
      <trkpt lat="40.330314" lon="-3.448959">
        <ele>598.6</ele>
        <time>1970-01-01T01:54:43.000Z</time>
      </trkpt>
      <trkpt lat="40.330365" lon="-3.44898">
        <ele>598.6</ele>
        <time>1970-01-01T01:54:44.000Z</time>
      </trkpt>
      <trkpt lat="40.330411" lon="-3.448999">
        <ele>598.8</ele>
        <time>1970-01-01T01:54:45.000Z</time>
      </trkpt>
      <trkpt lat="40.330457" lon="-3.449018">
        <ele>598.8</ele>
        <time>1970-01-01T01:54:46.000Z</time>
      </trkpt>
      <trkpt lat="40.330502" lon="-3.449035">
        <ele>598.8</ele>
        <time>1970-01-01T01:54:47.000Z</time>
      </trkpt>
      <trkpt lat="40.330545" lon="-3.449051">
        <ele>598.8</ele>
        <time>1970-01-01T01:54:48.000Z</time>
      </trkpt>
      <trkpt lat="40.330584" lon="-3.449069">
        <ele>599</ele>
        <time>1970-01-01T01:54:49.000Z</time>
      </trkpt>
      <trkpt lat="40.330624" lon="-3.449085">
        <ele>599.4</ele>
        <time>1970-01-01T01:54:50.000Z</time>
      </trkpt>
      <trkpt lat="40.330661" lon="-3.449098">
        <ele>599.8</ele>
        <time>1970-01-01T01:54:51.000Z</time>
      </trkpt>
      <trkpt lat="40.3307" lon="-3.44911">
        <ele>600.2</ele>
        <time>1970-01-01T01:54:52.000Z</time>
      </trkpt>
      <trkpt lat="40.330739" lon="-3.449123">
        <ele>600.4</ele>
        <time>1970-01-01T01:54:53.000Z</time>
      </trkpt>
      <trkpt lat="40.330779" lon="-3.44914">
        <ele>600.6</ele>
        <time>1970-01-01T01:54:54.000Z</time>
      </trkpt>
      <trkpt lat="40.330819" lon="-3.449155">
        <ele>600.8</ele>
        <time>1970-01-01T01:54:55.000Z</time>
      </trkpt>
      <trkpt lat="40.33086" lon="-3.449166">
        <ele>601</ele>
        <time>1970-01-01T01:54:56.000Z</time>
      </trkpt>
      <trkpt lat="40.330901" lon="-3.449171">
        <ele>601.4</ele>
        <time>1970-01-01T01:54:57.000Z</time>
      </trkpt>
      <trkpt lat="40.330942" lon="-3.449174">
        <ele>601.6</ele>
        <time>1970-01-01T01:54:58.000Z</time>
      </trkpt>
      <trkpt lat="40.330985" lon="-3.449177">
        <ele>602</ele>
        <time>1970-01-01T01:54:59.000Z</time>
      </trkpt>
      <trkpt lat="40.331032" lon="-3.449182">
        <ele>602.2</ele>
        <time>1970-01-01T01:55:00.000Z</time>
      </trkpt>
      <trkpt lat="40.331079" lon="-3.449196">
        <ele>602.6</ele>
        <time>1970-01-01T01:55:01.000Z</time>
      </trkpt>
      <trkpt lat="40.331119" lon="-3.449222">
        <ele>602.6</ele>
        <time>1970-01-01T01:55:02.000Z</time>
      </trkpt>
      <trkpt lat="40.331155" lon="-3.449252">
        <ele>603</ele>
        <time>1970-01-01T01:55:03.000Z</time>
      </trkpt>
      <trkpt lat="40.331194" lon="-3.449287">
        <ele>603.4</ele>
        <time>1970-01-01T01:55:04.000Z</time>
      </trkpt>
      <trkpt lat="40.331236" lon="-3.449324">
        <ele>603.4</ele>
        <time>1970-01-01T01:55:05.000Z</time>
      </trkpt>
      <trkpt lat="40.331284" lon="-3.449368">
        <ele>603.6</ele>
        <time>1970-01-01T01:55:06.000Z</time>
      </trkpt>
      <trkpt lat="40.331335" lon="-3.449419">
        <ele>603.8</ele>
        <time>1970-01-01T01:55:07.000Z</time>
      </trkpt>
      <trkpt lat="40.331391" lon="-3.449473">
        <ele>603.8</ele>
        <time>1970-01-01T01:55:08.000Z</time>
      </trkpt>
      <trkpt lat="40.331452" lon="-3.44953">
        <ele>603.6</ele>
        <time>1970-01-01T01:55:09.000Z</time>
      </trkpt>
      <trkpt lat="40.331516" lon="-3.449589">
        <ele>603.6</ele>
        <time>1970-01-01T01:55:10.000Z</time>
      </trkpt>
      <trkpt lat="40.331585" lon="-3.449645">
        <ele>603.6</ele>
        <time>1970-01-01T01:55:11.000Z</time>
      </trkpt>
      <trkpt lat="40.33166" lon="-3.449699">
        <ele>603.4</ele>
        <time>1970-01-01T01:55:12.000Z</time>
      </trkpt>
      <trkpt lat="40.331738" lon="-3.44975">
        <ele>603</ele>
        <time>1970-01-01T01:55:13.000Z</time>
      </trkpt>
      <trkpt lat="40.331818" lon="-3.449802">
        <ele>602.8</ele>
        <time>1970-01-01T01:55:14.000Z</time>
      </trkpt>
      <trkpt lat="40.331902" lon="-3.449853">
        <ele>601.8</ele>
        <time>1970-01-01T01:55:15.000Z</time>
      </trkpt>
      <trkpt lat="40.331989" lon="-3.449898">
        <ele>601.6</ele>
        <time>1970-01-01T01:55:16.000Z</time>
      </trkpt>
      <trkpt lat="40.332079" lon="-3.449939">
        <ele>600.8</ele>
        <time>1970-01-01T01:55:17.000Z</time>
      </trkpt>
      <trkpt lat="40.332169" lon="-3.449981">
        <ele>600.2</ele>
        <time>1970-01-01T01:55:18.000Z</time>
      </trkpt>
      <trkpt lat="40.33226" lon="-3.450024">
        <ele>599.8</ele>
        <time>1970-01-01T01:55:19.000Z</time>
      </trkpt>
      <trkpt lat="40.332352" lon="-3.450065">
        <ele>598.8</ele>
        <time>1970-01-01T01:55:20.000Z</time>
      </trkpt>
      <trkpt lat="40.332424" lon="-3.450096">
        <ele>598.2</ele>
        <time>1970-01-01T01:55:21.000Z</time>
      </trkpt>
      <trkpt lat="40.332514" lon="-3.450132">
        <ele>597.4</ele>
        <time>1970-01-01T01:55:22.000Z</time>
      </trkpt>
      <trkpt lat="40.332603" lon="-3.45017">
        <ele>597</ele>
        <time>1970-01-01T01:55:23.000Z</time>
      </trkpt>
      <trkpt lat="40.332693" lon="-3.450205">
        <ele>596.6</ele>
        <time>1970-01-01T01:55:24.000Z</time>
      </trkpt>
      <trkpt lat="40.332781" lon="-3.450236">
        <ele>596</ele>
        <time>1970-01-01T01:55:25.000Z</time>
      </trkpt>
      <trkpt lat="40.332867" lon="-3.450267">
        <ele>596</ele>
        <time>1970-01-01T01:55:26.000Z</time>
      </trkpt>
      <trkpt lat="40.332966" lon="-3.450304">
        <ele>595.8</ele>
        <time>1970-01-01T01:55:27.000Z</time>
      </trkpt>
      <trkpt lat="40.333049" lon="-3.450333">
        <ele>595.6</ele>
        <time>1970-01-01T01:55:28.000Z</time>
      </trkpt>
      <trkpt lat="40.33313" lon="-3.45036">
        <ele>595.4</ele>
        <time>1970-01-01T01:55:29.000Z</time>
      </trkpt>
      <trkpt lat="40.333205" lon="-3.450385">
        <ele>595.4</ele>
        <time>1970-01-01T01:55:30.000Z</time>
      </trkpt>
      <trkpt lat="40.33328" lon="-3.450409">
        <ele>595.2</ele>
        <time>1970-01-01T01:55:31.000Z</time>
      </trkpt>
      <trkpt lat="40.333353" lon="-3.450434">
        <ele>595.2</ele>
        <time>1970-01-01T01:55:32.000Z</time>
      </trkpt>
      <trkpt lat="40.333425" lon="-3.450458">
        <ele>595</ele>
        <time>1970-01-01T01:55:33.000Z</time>
      </trkpt>
      <trkpt lat="40.333497" lon="-3.45048">
        <ele>595</ele>
        <time>1970-01-01T01:55:34.000Z</time>
      </trkpt>
      <trkpt lat="40.333568" lon="-3.450502">
        <ele>595</ele>
        <time>1970-01-01T01:55:35.000Z</time>
      </trkpt>
      <trkpt lat="40.333637" lon="-3.450522">
        <ele>595.2</ele>
        <time>1970-01-01T01:55:36.000Z</time>
      </trkpt>
      <trkpt lat="40.333702" lon="-3.450541">
        <ele>595.2</ele>
        <time>1970-01-01T01:55:37.000Z</time>
      </trkpt>
      <trkpt lat="40.333766" lon="-3.450562">
        <ele>595.2</ele>
        <time>1970-01-01T01:55:38.000Z</time>
      </trkpt>
      <trkpt lat="40.333831" lon="-3.450579">
        <ele>595.2</ele>
        <time>1970-01-01T01:55:39.000Z</time>
      </trkpt>
      <trkpt lat="40.333894" lon="-3.450597">
        <ele>595.2</ele>
        <time>1970-01-01T01:55:40.000Z</time>
      </trkpt>
      <trkpt lat="40.333957" lon="-3.450615">
        <ele>595.4</ele>
        <time>1970-01-01T01:55:41.000Z</time>
      </trkpt>
      <trkpt lat="40.334018" lon="-3.450633">
        <ele>595.4</ele>
        <time>1970-01-01T01:55:42.000Z</time>
      </trkpt>
      <trkpt lat="40.33408" lon="-3.45065">
        <ele>595.4</ele>
        <time>1970-01-01T01:55:43.000Z</time>
      </trkpt>
      <trkpt lat="40.334142" lon="-3.450665">
        <ele>595.4</ele>
        <time>1970-01-01T01:55:44.000Z</time>
      </trkpt>
      <trkpt lat="40.334202" lon="-3.45068">
        <ele>595.4</ele>
        <time>1970-01-01T01:55:45.000Z</time>
      </trkpt>
      <trkpt lat="40.33426" lon="-3.450695">
        <ele>595.4</ele>
        <time>1970-01-01T01:55:46.000Z</time>
      </trkpt>
      <trkpt lat="40.334317" lon="-3.45071">
        <ele>595.6</ele>
        <time>1970-01-01T01:55:47.000Z</time>
      </trkpt>
      <trkpt lat="40.334374" lon="-3.450722">
        <ele>595.6</ele>
        <time>1970-01-01T01:55:48.000Z</time>
      </trkpt>
      <trkpt lat="40.33443" lon="-3.450734">
        <ele>595.8</ele>
        <time>1970-01-01T01:55:49.000Z</time>
      </trkpt>
      <trkpt lat="40.334483" lon="-3.450746">
        <ele>595.8</ele>
        <time>1970-01-01T01:55:50.000Z</time>
      </trkpt>
      <trkpt lat="40.334532" lon="-3.450757">
        <ele>595.8</ele>
        <time>1970-01-01T01:55:51.000Z</time>
      </trkpt>
      <trkpt lat="40.334583" lon="-3.450768">
        <ele>595.8</ele>
        <time>1970-01-01T01:55:52.000Z</time>
      </trkpt>
      <trkpt lat="40.334636" lon="-3.450776">
        <ele>596.2</ele>
        <time>1970-01-01T01:55:53.000Z</time>
      </trkpt>
      <trkpt lat="40.334685" lon="-3.450781">
        <ele>596.2</ele>
        <time>1970-01-01T01:55:54.000Z</time>
      </trkpt>
      <trkpt lat="40.334738" lon="-3.450785">
        <ele>596.4</ele>
        <time>1970-01-01T01:55:55.000Z</time>
      </trkpt>
      <trkpt lat="40.334791" lon="-3.450789">
        <ele>596.4</ele>
        <time>1970-01-01T01:55:56.000Z</time>
      </trkpt>
      <trkpt lat="40.334846" lon="-3.450792">
        <ele>596.4</ele>
        <time>1970-01-01T01:55:57.000Z</time>
      </trkpt>
      <trkpt lat="40.334889" lon="-3.450789">
        <ele>596.6</ele>
        <time>1970-01-01T01:55:58.000Z</time>
      </trkpt>
      <trkpt lat="40.334957" lon="-3.450784">
        <ele>596.6</ele>
        <time>1970-01-01T01:55:59.000Z</time>
      </trkpt>
      <trkpt lat="40.335014" lon="-3.450785">
        <ele>596.8</ele>
        <time>1970-01-01T01:56:00.000Z</time>
      </trkpt>
      <trkpt lat="40.335067" lon="-3.450788">
        <ele>596.8</ele>
        <time>1970-01-01T01:56:01.000Z</time>
      </trkpt>
      <trkpt lat="40.335122" lon="-3.450797">
        <ele>596.8</ele>
        <time>1970-01-01T01:56:02.000Z</time>
      </trkpt>
      <trkpt lat="40.335176" lon="-3.450815">
        <ele>596.8</ele>
        <time>1970-01-01T01:56:03.000Z</time>
      </trkpt>
      <trkpt lat="40.33523" lon="-3.450837">
        <ele>596.6</ele>
        <time>1970-01-01T01:56:04.000Z</time>
      </trkpt>
      <trkpt lat="40.335288" lon="-3.450854">
        <ele>596.6</ele>
        <time>1970-01-01T01:56:05.000Z</time>
      </trkpt>
      <trkpt lat="40.335347" lon="-3.450866">
        <ele>596.6</ele>
        <time>1970-01-01T01:56:06.000Z</time>
      </trkpt>
      <trkpt lat="40.335405" lon="-3.450874">
        <ele>596.6</ele>
        <time>1970-01-01T01:56:07.000Z</time>
      </trkpt>
      <trkpt lat="40.335462" lon="-3.450877">
        <ele>596.6</ele>
        <time>1970-01-01T01:56:08.000Z</time>
      </trkpt>
      <trkpt lat="40.335519" lon="-3.450881">
        <ele>596.6</ele>
        <time>1970-01-01T01:56:09.000Z</time>
      </trkpt>
      <trkpt lat="40.335574" lon="-3.450891">
        <ele>596.6</ele>
        <time>1970-01-01T01:56:10.000Z</time>
      </trkpt>
      <trkpt lat="40.335632" lon="-3.450901">
        <ele>596.6</ele>
        <time>1970-01-01T01:56:11.000Z</time>
      </trkpt>
      <trkpt lat="40.33569" lon="-3.450911">
        <ele>596.6</ele>
        <time>1970-01-01T01:56:12.000Z</time>
      </trkpt>
      <trkpt lat="40.335748" lon="-3.450916">
        <ele>596.6</ele>
        <time>1970-01-01T01:56:13.000Z</time>
      </trkpt>
      <trkpt lat="40.335807" lon="-3.450916">
        <ele>596.6</ele>
        <time>1970-01-01T01:56:14.000Z</time>
      </trkpt>
      <trkpt lat="40.335866" lon="-3.450915">
        <ele>596.6</ele>
        <time>1970-01-01T01:56:15.000Z</time>
      </trkpt>
      <trkpt lat="40.335924" lon="-3.450917">
        <ele>596.6</ele>
        <time>1970-01-01T01:56:16.000Z</time>
      </trkpt>
      <trkpt lat="40.335981" lon="-3.450923">
        <ele>596.6</ele>
        <time>1970-01-01T01:56:17.000Z</time>
      </trkpt>
      <trkpt lat="40.33604" lon="-3.450931">
        <ele>596.6</ele>
        <time>1970-01-01T01:56:18.000Z</time>
      </trkpt>
      <trkpt lat="40.336098" lon="-3.450937">
        <ele>596.6</ele>
        <time>1970-01-01T01:56:19.000Z</time>
      </trkpt>
      <trkpt lat="40.336158" lon="-3.450945">
        <ele>596.6</ele>
        <time>1970-01-01T01:56:20.000Z</time>
      </trkpt>
      <trkpt lat="40.336217" lon="-3.450955">
        <ele>596.6</ele>
        <time>1970-01-01T01:56:21.000Z</time>
      </trkpt>
      <trkpt lat="40.336276" lon="-3.450958">
        <ele>596.6</ele>
        <time>1970-01-01T01:56:22.000Z</time>
      </trkpt>
      <trkpt lat="40.336338" lon="-3.450958">
        <ele>596.6</ele>
        <time>1970-01-01T01:56:23.000Z</time>
      </trkpt>
      <trkpt lat="40.3364" lon="-3.45096">
        <ele>596.6</ele>
        <time>1970-01-01T01:56:24.000Z</time>
      </trkpt>
      <trkpt lat="40.33646" lon="-3.450965">
        <ele>596.6</ele>
        <time>1970-01-01T01:56:25.000Z</time>
      </trkpt>
      <trkpt lat="40.336521" lon="-3.450973">
        <ele>596.6</ele>
        <time>1970-01-01T01:56:26.000Z</time>
      </trkpt>
      <trkpt lat="40.336583" lon="-3.450982">
        <ele>596.6</ele>
        <time>1970-01-01T01:56:27.000Z</time>
      </trkpt>
      <trkpt lat="40.336643" lon="-3.45099">
        <ele>596.6</ele>
        <time>1970-01-01T01:56:28.000Z</time>
      </trkpt>
      <trkpt lat="40.336703" lon="-3.451">
        <ele>596.6</ele>
        <time>1970-01-01T01:56:29.000Z</time>
      </trkpt>
      <trkpt lat="40.336762" lon="-3.451013">
        <ele>596.6</ele>
        <time>1970-01-01T01:56:30.000Z</time>
      </trkpt>
      <trkpt lat="40.336819" lon="-3.45103">
        <ele>596.6</ele>
        <time>1970-01-01T01:56:31.000Z</time>
      </trkpt>
      <trkpt lat="40.336875" lon="-3.45105">
        <ele>596.6</ele>
        <time>1970-01-01T01:56:32.000Z</time>
      </trkpt>
      <trkpt lat="40.33693" lon="-3.451075">
        <ele>596.8</ele>
        <time>1970-01-01T01:56:33.000Z</time>
      </trkpt>
      <trkpt lat="40.336981" lon="-3.451102">
        <ele>596.8</ele>
        <time>1970-01-01T01:56:34.000Z</time>
      </trkpt>
      <trkpt lat="40.337034" lon="-3.451129">
        <ele>597.2</ele>
        <time>1970-01-01T01:56:35.000Z</time>
      </trkpt>
      <trkpt lat="40.337088" lon="-3.45116">
        <ele>597.2</ele>
        <time>1970-01-01T01:56:36.000Z</time>
      </trkpt>
      <trkpt lat="40.33714" lon="-3.451196">
        <ele>597.4</ele>
        <time>1970-01-01T01:56:37.000Z</time>
      </trkpt>
      <trkpt lat="40.337191" lon="-3.451232">
        <ele>597.4</ele>
        <time>1970-01-01T01:56:38.000Z</time>
      </trkpt>
      <trkpt lat="40.337244" lon="-3.451268">
        <ele>597.6</ele>
        <time>1970-01-01T01:56:39.000Z</time>
      </trkpt>
      <trkpt lat="40.337297" lon="-3.451304">
        <ele>597.8</ele>
        <time>1970-01-01T01:56:40.000Z</time>
      </trkpt>
      <trkpt lat="40.337354" lon="-3.451342">
        <ele>598</ele>
        <time>1970-01-01T01:56:41.000Z</time>
      </trkpt>
      <trkpt lat="40.33741" lon="-3.45138">
        <ele>598</ele>
        <time>1970-01-01T01:56:42.000Z</time>
      </trkpt>
      <trkpt lat="40.33747" lon="-3.451415">
        <ele>598</ele>
        <time>1970-01-01T01:56:43.000Z</time>
      </trkpt>
      <trkpt lat="40.337533" lon="-3.451451">
        <ele>598.2</ele>
        <time>1970-01-01T01:56:44.000Z</time>
      </trkpt>
      <trkpt lat="40.337596" lon="-3.451488">
        <ele>598</ele>
        <time>1970-01-01T01:56:45.000Z</time>
      </trkpt>
      <trkpt lat="40.337657" lon="-3.451525">
        <ele>598</ele>
        <time>1970-01-01T01:56:46.000Z</time>
      </trkpt>
      <trkpt lat="40.33772" lon="-3.451566">
        <ele>598</ele>
        <time>1970-01-01T01:56:47.000Z</time>
      </trkpt>
      <trkpt lat="40.337777" lon="-3.451616">
        <ele>598</ele>
        <time>1970-01-01T01:56:48.000Z</time>
      </trkpt>
      <trkpt lat="40.337829" lon="-3.451673">
        <ele>598</ele>
        <time>1970-01-01T01:56:49.000Z</time>
      </trkpt>
      <trkpt lat="40.337877" lon="-3.451731">
        <ele>598</ele>
        <time>1970-01-01T01:56:50.000Z</time>
      </trkpt>
      <trkpt lat="40.337925" lon="-3.451788">
        <ele>598</ele>
        <time>1970-01-01T01:56:51.000Z</time>
      </trkpt>
      <trkpt lat="40.337974" lon="-3.451846">
        <ele>598</ele>
        <time>1970-01-01T01:56:52.000Z</time>
      </trkpt>
      <trkpt lat="40.338025" lon="-3.4519">
        <ele>598</ele>
        <time>1970-01-01T01:56:53.000Z</time>
      </trkpt>
      <trkpt lat="40.338077" lon="-3.451947">
        <ele>598</ele>
        <time>1970-01-01T01:56:54.000Z</time>
      </trkpt>
      <trkpt lat="40.338129" lon="-3.451995">
        <ele>598</ele>
        <time>1970-01-01T01:56:55.000Z</time>
      </trkpt>
      <trkpt lat="40.338182" lon="-3.452046">
        <ele>598</ele>
        <time>1970-01-01T01:56:56.000Z</time>
      </trkpt>
      <trkpt lat="40.338235" lon="-3.45209">
        <ele>598</ele>
        <time>1970-01-01T01:56:57.000Z</time>
      </trkpt>
      <trkpt lat="40.338291" lon="-3.45213">
        <ele>598</ele>
        <time>1970-01-01T01:56:58.000Z</time>
      </trkpt>
      <trkpt lat="40.338346" lon="-3.452173">
        <ele>598</ele>
        <time>1970-01-01T01:56:59.000Z</time>
      </trkpt>
      <trkpt lat="40.338402" lon="-3.452215">
        <ele>598</ele>
        <time>1970-01-01T01:57:00.000Z</time>
      </trkpt>
      <trkpt lat="40.338461" lon="-3.452255">
        <ele>598</ele>
        <time>1970-01-01T01:57:01.000Z</time>
      </trkpt>
      <trkpt lat="40.338522" lon="-3.452295">
        <ele>598</ele>
        <time>1970-01-01T01:57:02.000Z</time>
      </trkpt>
      <trkpt lat="40.338583" lon="-3.452331">
        <ele>598</ele>
        <time>1970-01-01T01:57:03.000Z</time>
      </trkpt>
      <trkpt lat="40.338642" lon="-3.452368">
        <ele>598</ele>
        <time>1970-01-01T01:57:04.000Z</time>
      </trkpt>
      <trkpt lat="40.338699" lon="-3.452411">
        <ele>597.8</ele>
        <time>1970-01-01T01:57:05.000Z</time>
      </trkpt>
      <trkpt lat="40.338755" lon="-3.45246">
        <ele>597.8</ele>
        <time>1970-01-01T01:57:06.000Z</time>
      </trkpt>
      <trkpt lat="40.338812" lon="-3.452513">
        <ele>597.6</ele>
        <time>1970-01-01T01:57:07.000Z</time>
      </trkpt>
      <trkpt lat="40.338876" lon="-3.452562">
        <ele>597.6</ele>
        <time>1970-01-01T01:57:08.000Z</time>
      </trkpt>
      <trkpt lat="40.338945" lon="-3.452606">
        <ele>597.6</ele>
        <time>1970-01-01T01:57:09.000Z</time>
      </trkpt>
      <trkpt lat="40.339015" lon="-3.452646">
        <ele>597.4</ele>
        <time>1970-01-01T01:57:10.000Z</time>
      </trkpt>
      <trkpt lat="40.339085" lon="-3.452683">
        <ele>597.4</ele>
        <time>1970-01-01T01:57:11.000Z</time>
      </trkpt>
      <trkpt lat="40.339155" lon="-3.452716">
        <ele>597.2</ele>
        <time>1970-01-01T01:57:12.000Z</time>
      </trkpt>
      <trkpt lat="40.339227" lon="-3.452742">
        <ele>597.2</ele>
        <time>1970-01-01T01:57:13.000Z</time>
      </trkpt>
      <trkpt lat="40.339301" lon="-3.45276">
        <ele>597</ele>
        <time>1970-01-01T01:57:14.000Z</time>
      </trkpt>
      <trkpt lat="40.339378" lon="-3.452766">
        <ele>597</ele>
        <time>1970-01-01T01:57:15.000Z</time>
      </trkpt>
      <trkpt lat="40.339455" lon="-3.452762">
        <ele>596.6</ele>
        <time>1970-01-01T01:57:16.000Z</time>
      </trkpt>
      <trkpt lat="40.339534" lon="-3.452751">
        <ele>596.4</ele>
        <time>1970-01-01T01:57:17.000Z</time>
      </trkpt>
      <trkpt lat="40.339598" lon="-3.45274">
        <ele>596.4</ele>
        <time>1970-01-01T01:57:18.000Z</time>
      </trkpt>
      <trkpt lat="40.339696" lon="-3.452724">
        <ele>596.4</ele>
        <time>1970-01-01T01:57:19.000Z</time>
      </trkpt>
      <trkpt lat="40.339779" lon="-3.452715">
        <ele>596</ele>
        <time>1970-01-01T01:57:20.000Z</time>
      </trkpt>
      <trkpt lat="40.33986" lon="-3.45271">
        <ele>595.8</ele>
        <time>1970-01-01T01:57:21.000Z</time>
      </trkpt>
      <trkpt lat="40.339939" lon="-3.452702">
        <ele>595.6</ele>
        <time>1970-01-01T01:57:22.000Z</time>
      </trkpt>
      <trkpt lat="40.340019" lon="-3.452696">
        <ele>595.4</ele>
        <time>1970-01-01T01:57:23.000Z</time>
      </trkpt>
      <trkpt lat="40.340098" lon="-3.452694">
        <ele>595</ele>
        <time>1970-01-01T01:57:24.000Z</time>
      </trkpt>
      <trkpt lat="40.340176" lon="-3.452695">
        <ele>595</ele>
        <time>1970-01-01T01:57:25.000Z</time>
      </trkpt>
      <trkpt lat="40.340253" lon="-3.452699">
        <ele>594.8</ele>
        <time>1970-01-01T01:57:26.000Z</time>
      </trkpt>
      <trkpt lat="40.340331" lon="-3.452706">
        <ele>594.8</ele>
        <time>1970-01-01T01:57:27.000Z</time>
      </trkpt>
      <trkpt lat="40.340407" lon="-3.452713">
        <ele>594.6</ele>
        <time>1970-01-01T01:57:28.000Z</time>
      </trkpt>
      <trkpt lat="40.340485" lon="-3.452721">
        <ele>594.6</ele>
        <time>1970-01-01T01:57:29.000Z</time>
      </trkpt>
      <trkpt lat="40.340567" lon="-3.452724">
        <ele>594.4</ele>
        <time>1970-01-01T01:57:30.000Z</time>
      </trkpt>
      <trkpt lat="40.340652" lon="-3.452726">
        <ele>594.4</ele>
        <time>1970-01-01T01:57:31.000Z</time>
      </trkpt>
      <trkpt lat="40.340739" lon="-3.452724">
        <ele>594.4</ele>
        <time>1970-01-01T01:57:32.000Z</time>
      </trkpt>
      <trkpt lat="40.340824" lon="-3.452722">
        <ele>594.4</ele>
        <time>1970-01-01T01:57:33.000Z</time>
      </trkpt>
      <trkpt lat="40.340911" lon="-3.452725">
        <ele>594.4</ele>
        <time>1970-01-01T01:57:34.000Z</time>
      </trkpt>
      <trkpt lat="40.340993" lon="-3.452735">
        <ele>594.2</ele>
        <time>1970-01-01T01:57:35.000Z</time>
      </trkpt>
      <trkpt lat="40.34107" lon="-3.452755">
        <ele>594.2</ele>
        <time>1970-01-01T01:57:36.000Z</time>
      </trkpt>
      <trkpt lat="40.341145" lon="-3.45278">
        <ele>594</ele>
        <time>1970-01-01T01:57:37.000Z</time>
      </trkpt>
      <trkpt lat="40.34122" lon="-3.452805">
        <ele>593.8</ele>
        <time>1970-01-01T01:57:38.000Z</time>
      </trkpt>
      <trkpt lat="40.341297" lon="-3.452827">
        <ele>593.6</ele>
        <time>1970-01-01T01:57:39.000Z</time>
      </trkpt>
      <trkpt lat="40.341373" lon="-3.452851">
        <ele>593.4</ele>
        <time>1970-01-01T01:57:40.000Z</time>
      </trkpt>
      <trkpt lat="40.341448" lon="-3.45288">
        <ele>593.2</ele>
        <time>1970-01-01T01:57:41.000Z</time>
      </trkpt>
      <trkpt lat="40.341518" lon="-3.452911">
        <ele>593.2</ele>
        <time>1970-01-01T01:57:42.000Z</time>
      </trkpt>
      <trkpt lat="40.341583" lon="-3.452946">
        <ele>593.2</ele>
        <time>1970-01-01T01:57:43.000Z</time>
      </trkpt>
      <trkpt lat="40.341643" lon="-3.452982">
        <ele>593</ele>
        <time>1970-01-01T01:57:44.000Z</time>
      </trkpt>
      <trkpt lat="40.341698" lon="-3.453017">
        <ele>593</ele>
        <time>1970-01-01T01:57:45.000Z</time>
      </trkpt>
      <trkpt lat="40.341749" lon="-3.45305">
        <ele>593.2</ele>
        <time>1970-01-01T01:57:46.000Z</time>
      </trkpt>
      <trkpt lat="40.341805" lon="-3.45308">
        <ele>593.4</ele>
        <time>1970-01-01T01:57:47.000Z</time>
      </trkpt>
      <trkpt lat="40.341864" lon="-3.453106">
        <ele>593.8</ele>
        <time>1970-01-01T01:57:48.000Z</time>
      </trkpt>
      <trkpt lat="40.341926" lon="-3.45313">
        <ele>594</ele>
        <time>1970-01-01T01:57:49.000Z</time>
      </trkpt>
      <trkpt lat="40.341989" lon="-3.45315">
        <ele>594</ele>
        <time>1970-01-01T01:57:50.000Z</time>
      </trkpt>
      <trkpt lat="40.342052" lon="-3.453169">
        <ele>594.2</ele>
        <time>1970-01-01T01:57:51.000Z</time>
      </trkpt>
      <trkpt lat="40.342114" lon="-3.453186">
        <ele>594.2</ele>
        <time>1970-01-01T01:57:52.000Z</time>
      </trkpt>
      <trkpt lat="40.34218" lon="-3.453205">
        <ele>594.2</ele>
        <time>1970-01-01T01:57:53.000Z</time>
      </trkpt>
      <trkpt lat="40.342246" lon="-3.453224">
        <ele>594.2</ele>
        <time>1970-01-01T01:57:54.000Z</time>
      </trkpt>
      <trkpt lat="40.342314" lon="-3.453239">
        <ele>594.2</ele>
        <time>1970-01-01T01:57:55.000Z</time>
      </trkpt>
      <trkpt lat="40.342385" lon="-3.453254">
        <ele>594.2</ele>
        <time>1970-01-01T01:57:56.000Z</time>
      </trkpt>
      <trkpt lat="40.342456" lon="-3.45327">
        <ele>594</ele>
        <time>1970-01-01T01:57:57.000Z</time>
      </trkpt>
      <trkpt lat="40.342529" lon="-3.453285">
        <ele>594</ele>
        <time>1970-01-01T01:57:58.000Z</time>
      </trkpt>
      <trkpt lat="40.342604" lon="-3.4533">
        <ele>593.8</ele>
        <time>1970-01-01T01:57:59.000Z</time>
      </trkpt>
      <trkpt lat="40.342682" lon="-3.453312">
        <ele>593.6</ele>
        <time>1970-01-01T01:58:00.000Z</time>
      </trkpt>
      <trkpt lat="40.342761" lon="-3.453321">
        <ele>593.4</ele>
        <time>1970-01-01T01:58:01.000Z</time>
      </trkpt>
      <trkpt lat="40.342839" lon="-3.453325">
        <ele>593.4</ele>
        <time>1970-01-01T01:58:02.000Z</time>
      </trkpt>
      <trkpt lat="40.342918" lon="-3.453327">
        <ele>593.2</ele>
        <time>1970-01-01T01:58:03.000Z</time>
      </trkpt>
      <trkpt lat="40.342996" lon="-3.45333">
        <ele>592.8</ele>
        <time>1970-01-01T01:58:04.000Z</time>
      </trkpt>
      <trkpt lat="40.343075" lon="-3.453343">
        <ele>592.8</ele>
        <time>1970-01-01T01:58:05.000Z</time>
      </trkpt>
      <trkpt lat="40.343151" lon="-3.453369">
        <ele>592.6</ele>
        <time>1970-01-01T01:58:06.000Z</time>
      </trkpt>
      <trkpt lat="40.34322" lon="-3.453401">
        <ele>592.4</ele>
        <time>1970-01-01T01:58:07.000Z</time>
      </trkpt>
      <trkpt lat="40.34329" lon="-3.453426">
        <ele>592.4</ele>
        <time>1970-01-01T01:58:08.000Z</time>
      </trkpt>
      <trkpt lat="40.343362" lon="-3.453439">
        <ele>592.4</ele>
        <time>1970-01-01T01:58:09.000Z</time>
      </trkpt>
      <trkpt lat="40.343432" lon="-3.453443">
        <ele>592.4</ele>
        <time>1970-01-01T01:58:10.000Z</time>
      </trkpt>
      <trkpt lat="40.343499" lon="-3.453441">
        <ele>592.4</ele>
        <time>1970-01-01T01:58:11.000Z</time>
      </trkpt>
      <trkpt lat="40.343565" lon="-3.453438">
        <ele>592.6</ele>
        <time>1970-01-01T01:58:12.000Z</time>
      </trkpt>
      <trkpt lat="40.343632" lon="-3.453434">
        <ele>592.8</ele>
        <time>1970-01-01T01:58:13.000Z</time>
      </trkpt>
      <trkpt lat="40.343703" lon="-3.453433">
        <ele>592.8</ele>
        <time>1970-01-01T01:58:14.000Z</time>
      </trkpt>
      <trkpt lat="40.343778" lon="-3.453433">
        <ele>593</ele>
        <time>1970-01-01T01:58:15.000Z</time>
      </trkpt>
      <trkpt lat="40.343854" lon="-3.453431">
        <ele>593.2</ele>
        <time>1970-01-01T01:58:16.000Z</time>
      </trkpt>
      <trkpt lat="40.343931" lon="-3.453426">
        <ele>593.2</ele>
        <time>1970-01-01T01:58:17.000Z</time>
      </trkpt>
      <trkpt lat="40.344009" lon="-3.453422">
        <ele>593.4</ele>
        <time>1970-01-01T01:58:18.000Z</time>
      </trkpt>
      <trkpt lat="40.344087" lon="-3.453417">
        <ele>593.4</ele>
        <time>1970-01-01T01:58:19.000Z</time>
      </trkpt>
      <trkpt lat="40.344165" lon="-3.453412">
        <ele>593.4</ele>
        <time>1970-01-01T01:58:20.000Z</time>
      </trkpt>
      <trkpt lat="40.344244" lon="-3.453405">
        <ele>593.4</ele>
        <time>1970-01-01T01:58:21.000Z</time>
      </trkpt>
      <trkpt lat="40.344321" lon="-3.4534">
        <ele>593.4</ele>
        <time>1970-01-01T01:58:22.000Z</time>
      </trkpt>
      <trkpt lat="40.344397" lon="-3.453394">
        <ele>593.4</ele>
        <time>1970-01-01T01:58:23.000Z</time>
      </trkpt>
      <trkpt lat="40.344471" lon="-3.453384">
        <ele>593.2</ele>
        <time>1970-01-01T01:58:24.000Z</time>
      </trkpt>
      <trkpt lat="40.344543" lon="-3.453373">
        <ele>593.2</ele>
        <time>1970-01-01T01:58:25.000Z</time>
      </trkpt>
      <trkpt lat="40.344614" lon="-3.453362">
        <ele>593.2</ele>
        <time>1970-01-01T01:58:26.000Z</time>
      </trkpt>
      <trkpt lat="40.344684" lon="-3.453353">
        <ele>593.2</ele>
        <time>1970-01-01T01:58:27.000Z</time>
      </trkpt>
      <trkpt lat="40.344752" lon="-3.453348">
        <ele>593.2</ele>
        <time>1970-01-01T01:58:28.000Z</time>
      </trkpt>
      <trkpt lat="40.344821" lon="-3.453346">
        <ele>593.2</ele>
        <time>1970-01-01T01:58:29.000Z</time>
      </trkpt>
      <trkpt lat="40.344888" lon="-3.453341">
        <ele>593.2</ele>
        <time>1970-01-01T01:58:30.000Z</time>
      </trkpt>
      <trkpt lat="40.344957" lon="-3.453337">
        <ele>593</ele>
        <time>1970-01-01T01:58:31.000Z</time>
      </trkpt>
      <trkpt lat="40.345025" lon="-3.453333">
        <ele>593</ele>
        <time>1970-01-01T01:58:32.000Z</time>
      </trkpt>
      <trkpt lat="40.345094" lon="-3.453328">
        <ele>593</ele>
        <time>1970-01-01T01:58:33.000Z</time>
      </trkpt>
      <trkpt lat="40.345164" lon="-3.453326">
        <ele>592.8</ele>
        <time>1970-01-01T01:58:34.000Z</time>
      </trkpt>
      <trkpt lat="40.345235" lon="-3.453325">
        <ele>592.6</ele>
        <time>1970-01-01T01:58:35.000Z</time>
      </trkpt>
      <trkpt lat="40.345308" lon="-3.453322">
        <ele>592.6</ele>
        <time>1970-01-01T01:58:36.000Z</time>
      </trkpt>
      <trkpt lat="40.345383" lon="-3.453317">
        <ele>592.4</ele>
        <time>1970-01-01T01:58:37.000Z</time>
      </trkpt>
      <trkpt lat="40.345458" lon="-3.453312">
        <ele>592.4</ele>
        <time>1970-01-01T01:58:38.000Z</time>
      </trkpt>
      <trkpt lat="40.345536" lon="-3.453309">
        <ele>592.2</ele>
        <time>1970-01-01T01:58:39.000Z</time>
      </trkpt>
      <trkpt lat="40.345613" lon="-3.453302">
        <ele>592</ele>
        <time>1970-01-01T01:58:40.000Z</time>
      </trkpt>
      <trkpt lat="40.345691" lon="-3.453297">
        <ele>591.8</ele>
        <time>1970-01-01T01:58:41.000Z</time>
      </trkpt>
      <trkpt lat="40.34577" lon="-3.453292">
        <ele>591.6</ele>
        <time>1970-01-01T01:58:42.000Z</time>
      </trkpt>
      <trkpt lat="40.345848" lon="-3.453288">
        <ele>591.4</ele>
        <time>1970-01-01T01:58:43.000Z</time>
      </trkpt>
      <trkpt lat="40.345928" lon="-3.453287">
        <ele>591.4</ele>
        <time>1970-01-01T01:58:44.000Z</time>
      </trkpt>
      <trkpt lat="40.346007" lon="-3.453285">
        <ele>591.2</ele>
        <time>1970-01-01T01:58:45.000Z</time>
      </trkpt>
      <trkpt lat="40.346086" lon="-3.453278">
        <ele>591.2</ele>
        <time>1970-01-01T01:58:46.000Z</time>
      </trkpt>
      <trkpt lat="40.346165" lon="-3.453274">
        <ele>591</ele>
        <time>1970-01-01T01:58:47.000Z</time>
      </trkpt>
      <trkpt lat="40.346244" lon="-3.453271">
        <ele>590.8</ele>
        <time>1970-01-01T01:58:48.000Z</time>
      </trkpt>
      <trkpt lat="40.346323" lon="-3.453269">
        <ele>590.8</ele>
        <time>1970-01-01T01:58:49.000Z</time>
      </trkpt>
      <trkpt lat="40.346402" lon="-3.453265">
        <ele>590.8</ele>
        <time>1970-01-01T01:58:50.000Z</time>
      </trkpt>
      <trkpt lat="40.34648" lon="-3.453258">
        <ele>590.8</ele>
        <time>1970-01-01T01:58:51.000Z</time>
      </trkpt>
      <trkpt lat="40.346555" lon="-3.453251">
        <ele>591</ele>
        <time>1970-01-01T01:58:52.000Z</time>
      </trkpt>
      <trkpt lat="40.346631" lon="-3.453247">
        <ele>590.8</ele>
        <time>1970-01-01T01:58:53.000Z</time>
      </trkpt>
      <trkpt lat="40.346703" lon="-3.453246">
        <ele>591</ele>
        <time>1970-01-01T01:58:54.000Z</time>
      </trkpt>
      <trkpt lat="40.346774" lon="-3.453242">
        <ele>591.2</ele>
        <time>1970-01-01T01:58:55.000Z</time>
      </trkpt>
      <trkpt lat="40.346846" lon="-3.453239">
        <ele>591.2</ele>
        <time>1970-01-01T01:58:56.000Z</time>
      </trkpt>
      <trkpt lat="40.346915" lon="-3.453236">
        <ele>591.2</ele>
        <time>1970-01-01T01:58:57.000Z</time>
      </trkpt>
      <trkpt lat="40.346985" lon="-3.453233">
        <ele>591.4</ele>
        <time>1970-01-01T01:58:58.000Z</time>
      </trkpt>
      <trkpt lat="40.347053" lon="-3.453228">
        <ele>591.4</ele>
        <time>1970-01-01T01:58:59.000Z</time>
      </trkpt>
      <trkpt lat="40.34712" lon="-3.45322">
        <ele>591.4</ele>
        <time>1970-01-01T01:59:00.000Z</time>
      </trkpt>
      <trkpt lat="40.347188" lon="-3.453209">
        <ele>591.4</ele>
        <time>1970-01-01T01:59:01.000Z</time>
      </trkpt>
      <trkpt lat="40.347255" lon="-3.453198">
        <ele>591.4</ele>
        <time>1970-01-01T01:59:02.000Z</time>
      </trkpt>
      <trkpt lat="40.347319" lon="-3.453189">
        <ele>591.4</ele>
        <time>1970-01-01T01:59:03.000Z</time>
      </trkpt>
      <trkpt lat="40.347379" lon="-3.453185">
        <ele>591.8</ele>
        <time>1970-01-01T01:59:04.000Z</time>
      </trkpt>
      <trkpt lat="40.347438" lon="-3.453185">
        <ele>591.8</ele>
        <time>1970-01-01T01:59:05.000Z</time>
      </trkpt>
      <trkpt lat="40.347495" lon="-3.453187">
        <ele>592.2</ele>
        <time>1970-01-01T01:59:06.000Z</time>
      </trkpt>
      <trkpt lat="40.347551" lon="-3.453185">
        <ele>592.4</ele>
        <time>1970-01-01T01:59:07.000Z</time>
      </trkpt>
      <trkpt lat="40.347606" lon="-3.453184">
        <ele>592.4</ele>
        <time>1970-01-01T01:59:08.000Z</time>
      </trkpt>
      <trkpt lat="40.347658" lon="-3.453182">
        <ele>592.4</ele>
        <time>1970-01-01T01:59:09.000Z</time>
      </trkpt>
      <trkpt lat="40.34771" lon="-3.45318">
        <ele>592.4</ele>
        <time>1970-01-01T01:59:10.000Z</time>
      </trkpt>
      <trkpt lat="40.34776" lon="-3.453177">
        <ele>592.4</ele>
        <time>1970-01-01T01:59:11.000Z</time>
      </trkpt>
      <trkpt lat="40.347808" lon="-3.453174">
        <ele>592.6</ele>
        <time>1970-01-01T01:59:12.000Z</time>
      </trkpt>
      <trkpt lat="40.347855" lon="-3.453173">
        <ele>592.8</ele>
        <time>1970-01-01T01:59:13.000Z</time>
      </trkpt>
      <trkpt lat="40.347903" lon="-3.45317">
        <ele>592.8</ele>
        <time>1970-01-01T01:59:14.000Z</time>
      </trkpt>
      <trkpt lat="40.347949" lon="-3.453167">
        <ele>592.8</ele>
        <time>1970-01-01T01:59:15.000Z</time>
      </trkpt>
      <trkpt lat="40.347995" lon="-3.45316">
        <ele>592.8</ele>
        <time>1970-01-01T01:59:16.000Z</time>
      </trkpt>
      <trkpt lat="40.348043" lon="-3.453155">
        <ele>592.8</ele>
        <time>1970-01-01T01:59:17.000Z</time>
      </trkpt>
      <trkpt lat="40.348092" lon="-3.453151">
        <ele>592.8</ele>
        <time>1970-01-01T01:59:18.000Z</time>
      </trkpt>
      <trkpt lat="40.348139" lon="-3.453146">
        <ele>592.8</ele>
        <time>1970-01-01T01:59:19.000Z</time>
      </trkpt>
      <trkpt lat="40.34819" lon="-3.453146">
        <ele>592.6</ele>
        <time>1970-01-01T01:59:20.000Z</time>
      </trkpt>
      <trkpt lat="40.34824" lon="-3.453144">
        <ele>592.6</ele>
        <time>1970-01-01T01:59:21.000Z</time>
      </trkpt>
      <trkpt lat="40.348291" lon="-3.453143">
        <ele>592.6</ele>
        <time>1970-01-01T01:59:22.000Z</time>
      </trkpt>
      <trkpt lat="40.348343" lon="-3.453142">
        <ele>592.6</ele>
        <time>1970-01-01T01:59:23.000Z</time>
      </trkpt>
      <trkpt lat="40.348393" lon="-3.453136">
        <ele>592.6</ele>
        <time>1970-01-01T01:59:24.000Z</time>
      </trkpt>
      <trkpt lat="40.348444" lon="-3.453133">
        <ele>592.6</ele>
        <time>1970-01-01T01:59:25.000Z</time>
      </trkpt>
      <trkpt lat="40.348494" lon="-3.453134">
        <ele>592.6</ele>
        <time>1970-01-01T01:59:26.000Z</time>
      </trkpt>
      <trkpt lat="40.348546" lon="-3.453138">
        <ele>592.8</ele>
        <time>1970-01-01T01:59:27.000Z</time>
      </trkpt>
      <trkpt lat="40.348597" lon="-3.453139">
        <ele>592.8</ele>
        <time>1970-01-01T01:59:28.000Z</time>
      </trkpt>
      <trkpt lat="40.34865" lon="-3.453136">
        <ele>592.8</ele>
        <time>1970-01-01T01:59:29.000Z</time>
      </trkpt>
      <trkpt lat="40.348701" lon="-3.453134">
        <ele>593</ele>
        <time>1970-01-01T01:59:30.000Z</time>
      </trkpt>
      <trkpt lat="40.348751" lon="-3.453133">
        <ele>593</ele>
        <time>1970-01-01T01:59:31.000Z</time>
      </trkpt>
      <trkpt lat="40.3488" lon="-3.453129">
        <ele>593</ele>
        <time>1970-01-01T01:59:32.000Z</time>
      </trkpt>
      <trkpt lat="40.348849" lon="-3.453127">
        <ele>593</ele>
        <time>1970-01-01T01:59:33.000Z</time>
      </trkpt>
      <trkpt lat="40.348899" lon="-3.453131">
        <ele>593</ele>
        <time>1970-01-01T01:59:34.000Z</time>
      </trkpt>
      <trkpt lat="40.348948" lon="-3.453136">
        <ele>593</ele>
        <time>1970-01-01T01:59:35.000Z</time>
      </trkpt>
      <trkpt lat="40.348996" lon="-3.453141">
        <ele>593</ele>
        <time>1970-01-01T01:59:36.000Z</time>
      </trkpt>
      <trkpt lat="40.349045" lon="-3.453147">
        <ele>593</ele>
        <time>1970-01-01T01:59:37.000Z</time>
      </trkpt>
      <trkpt lat="40.349096" lon="-3.453152">
        <ele>593</ele>
        <time>1970-01-01T01:59:38.000Z</time>
      </trkpt>
      <trkpt lat="40.349145" lon="-3.453155">
        <ele>593</ele>
        <time>1970-01-01T01:59:39.000Z</time>
      </trkpt>
      <trkpt lat="40.349194" lon="-3.453157">
        <ele>593</ele>
        <time>1970-01-01T01:59:40.000Z</time>
      </trkpt>
      <trkpt lat="40.349244" lon="-3.45316">
        <ele>593.2</ele>
        <time>1970-01-01T01:59:41.000Z</time>
      </trkpt>
      <trkpt lat="40.349294" lon="-3.453164">
        <ele>593.2</ele>
        <time>1970-01-01T01:59:42.000Z</time>
      </trkpt>
      <trkpt lat="40.349342" lon="-3.453167">
        <ele>593.2</ele>
        <time>1970-01-01T01:59:43.000Z</time>
      </trkpt>
      <trkpt lat="40.349391" lon="-3.453171">
        <ele>593.4</ele>
        <time>1970-01-01T01:59:44.000Z</time>
      </trkpt>
      <trkpt lat="40.349441" lon="-3.453176">
        <ele>593.4</ele>
        <time>1970-01-01T01:59:45.000Z</time>
      </trkpt>
      <trkpt lat="40.349489" lon="-3.453179">
        <ele>593.6</ele>
        <time>1970-01-01T01:59:46.000Z</time>
      </trkpt>
      <trkpt lat="40.349539" lon="-3.453188">
        <ele>593.8</ele>
        <time>1970-01-01T01:59:47.000Z</time>
      </trkpt>
      <trkpt lat="40.349588" lon="-3.453199">
        <ele>594</ele>
        <time>1970-01-01T01:59:48.000Z</time>
      </trkpt>
      <trkpt lat="40.349638" lon="-3.45321">
        <ele>594</ele>
        <time>1970-01-01T01:59:49.000Z</time>
      </trkpt>
      <trkpt lat="40.349691" lon="-3.453224">
        <ele>594</ele>
        <time>1970-01-01T01:59:50.000Z</time>
      </trkpt>
      <trkpt lat="40.349741" lon="-3.453241">
        <ele>594</ele>
        <time>1970-01-01T01:59:51.000Z</time>
      </trkpt>
      <trkpt lat="40.34979" lon="-3.453257">
        <ele>594.2</ele>
        <time>1970-01-01T01:59:52.000Z</time>
      </trkpt>
      <trkpt lat="40.349841" lon="-3.453272">
        <ele>594.2</ele>
        <time>1970-01-01T01:59:53.000Z</time>
      </trkpt>
      <trkpt lat="40.349894" lon="-3.453286">
        <ele>594.2</ele>
        <time>1970-01-01T01:59:54.000Z</time>
      </trkpt>
      <trkpt lat="40.349945" lon="-3.453297">
        <ele>594.2</ele>
        <time>1970-01-01T01:59:55.000Z</time>
      </trkpt>
      <trkpt lat="40.349996" lon="-3.45331">
        <ele>594.2</ele>
        <time>1970-01-01T01:59:56.000Z</time>
      </trkpt>
      <trkpt lat="40.350048" lon="-3.453325">
        <ele>594.2</ele>
        <time>1970-01-01T01:59:57.000Z</time>
      </trkpt>
      <trkpt lat="40.3501" lon="-3.453342">
        <ele>594.4</ele>
        <time>1970-01-01T01:59:58.000Z</time>
      </trkpt>
      <trkpt lat="40.350151" lon="-3.453357">
        <ele>594.4</ele>
        <time>1970-01-01T01:59:59.000Z</time>
      </trkpt>
      <trkpt lat="40.3502" lon="-3.45337">
        <ele>594.4</ele>
        <time>1970-01-01T02:00:00.000Z</time>
      </trkpt>
      <trkpt lat="40.35025" lon="-3.45338">
        <ele>594.4</ele>
        <time>1970-01-01T02:00:01.000Z</time>
      </trkpt>
      <trkpt lat="40.350299" lon="-3.453395">
        <ele>594.6</ele>
        <time>1970-01-01T02:00:02.000Z</time>
      </trkpt>
      <trkpt lat="40.350345" lon="-3.453411">
        <ele>594.6</ele>
        <time>1970-01-01T02:00:03.000Z</time>
      </trkpt>
      <trkpt lat="40.35039" lon="-3.453424">
        <ele>594.8</ele>
        <time>1970-01-01T02:00:04.000Z</time>
      </trkpt>
      <trkpt lat="40.350432" lon="-3.453437">
        <ele>595</ele>
        <time>1970-01-01T02:00:05.000Z</time>
      </trkpt>
      <trkpt lat="40.350475" lon="-3.453451">
        <ele>595</ele>
        <time>1970-01-01T02:00:06.000Z</time>
      </trkpt>
      <trkpt lat="40.350517" lon="-3.453467">
        <ele>595.4</ele>
        <time>1970-01-01T02:00:07.000Z</time>
      </trkpt>
      <trkpt lat="40.350561" lon="-3.453485">
        <ele>595.4</ele>
        <time>1970-01-01T02:00:08.000Z</time>
      </trkpt>
      <trkpt lat="40.350605" lon="-3.453502">
        <ele>595.6</ele>
        <time>1970-01-01T02:00:09.000Z</time>
      </trkpt>
      <trkpt lat="40.350649" lon="-3.453514">
        <ele>595.8</ele>
        <time>1970-01-01T02:00:10.000Z</time>
      </trkpt>
      <trkpt lat="40.350694" lon="-3.453526">
        <ele>595.8</ele>
        <time>1970-01-01T02:00:11.000Z</time>
      </trkpt>
      <trkpt lat="40.350741" lon="-3.453537">
        <ele>595.8</ele>
        <time>1970-01-01T02:00:12.000Z</time>
      </trkpt>
      <trkpt lat="40.350786" lon="-3.45355">
        <ele>595.8</ele>
        <time>1970-01-01T02:00:13.000Z</time>
      </trkpt>
      <trkpt lat="40.350822" lon="-3.453558">
        <ele>596</ele>
        <time>1970-01-01T02:00:14.000Z</time>
      </trkpt>
      <trkpt lat="40.350883" lon="-3.453572">
        <ele>596</ele>
        <time>1970-01-01T02:00:15.000Z</time>
      </trkpt>
      <trkpt lat="40.350934" lon="-3.453582">
        <ele>596</ele>
        <time>1970-01-01T02:00:16.000Z</time>
      </trkpt>
      <trkpt lat="40.350984" lon="-3.453593">
        <ele>595.8</ele>
        <time>1970-01-01T02:00:17.000Z</time>
      </trkpt>
      <trkpt lat="40.351033" lon="-3.453608">
        <ele>595.8</ele>
        <time>1970-01-01T02:00:18.000Z</time>
      </trkpt>
      <trkpt lat="40.35108" lon="-3.453619">
        <ele>595.8</ele>
        <time>1970-01-01T02:00:19.000Z</time>
      </trkpt>
      <trkpt lat="40.351128" lon="-3.45363">
        <ele>595.8</ele>
        <time>1970-01-01T02:00:20.000Z</time>
      </trkpt>
      <trkpt lat="40.351174" lon="-3.45364">
        <ele>595.8</ele>
        <time>1970-01-01T02:00:21.000Z</time>
      </trkpt>
      <trkpt lat="40.351225" lon="-3.453652">
        <ele>595.8</ele>
        <time>1970-01-01T02:00:22.000Z</time>
      </trkpt>
      <trkpt lat="40.351277" lon="-3.453658">
        <ele>595.8</ele>
        <time>1970-01-01T02:00:23.000Z</time>
      </trkpt>
      <trkpt lat="40.351328" lon="-3.453662">
        <ele>595.8</ele>
        <time>1970-01-01T02:00:24.000Z</time>
      </trkpt>
      <trkpt lat="40.35138" lon="-3.453668">
        <ele>595.8</ele>
        <time>1970-01-01T02:00:25.000Z</time>
      </trkpt>
      <trkpt lat="40.35143" lon="-3.453671">
        <ele>595.8</ele>
        <time>1970-01-01T02:00:26.000Z</time>
      </trkpt>
      <trkpt lat="40.35148" lon="-3.453674">
        <ele>595.8</ele>
        <time>1970-01-01T02:00:27.000Z</time>
      </trkpt>
      <trkpt lat="40.351531" lon="-3.453675">
        <ele>595.8</ele>
        <time>1970-01-01T02:00:28.000Z</time>
      </trkpt>
      <trkpt lat="40.351582" lon="-3.453674">
        <ele>596</ele>
        <time>1970-01-01T02:00:29.000Z</time>
      </trkpt>
      <trkpt lat="40.351632" lon="-3.453673">
        <ele>596</ele>
        <time>1970-01-01T02:00:30.000Z</time>
      </trkpt>
      <trkpt lat="40.351681" lon="-3.45367">
        <ele>596.2</ele>
        <time>1970-01-01T02:00:31.000Z</time>
      </trkpt>
      <trkpt lat="40.351731" lon="-3.453666">
        <ele>596.2</ele>
        <time>1970-01-01T02:00:32.000Z</time>
      </trkpt>
      <trkpt lat="40.35178" lon="-3.453658">
        <ele>596.2</ele>
        <time>1970-01-01T02:00:33.000Z</time>
      </trkpt>
      <trkpt lat="40.351828" lon="-3.453649">
        <ele>596.4</ele>
        <time>1970-01-01T02:00:34.000Z</time>
      </trkpt>
      <trkpt lat="40.351877" lon="-3.453637">
        <ele>596.4</ele>
        <time>1970-01-01T02:00:35.000Z</time>
      </trkpt>
      <trkpt lat="40.351924" lon="-3.453624">
        <ele>596.4</ele>
        <time>1970-01-01T02:00:36.000Z</time>
      </trkpt>
      <trkpt lat="40.351969" lon="-3.453608">
        <ele>596.4</ele>
        <time>1970-01-01T02:00:37.000Z</time>
      </trkpt>
      <trkpt lat="40.352013" lon="-3.45359">
        <ele>596.4</ele>
        <time>1970-01-01T02:00:38.000Z</time>
      </trkpt>
      <trkpt lat="40.352056" lon="-3.453566">
        <ele>596.4</ele>
        <time>1970-01-01T02:00:39.000Z</time>
      </trkpt>
      <trkpt lat="40.352098" lon="-3.453542">
        <ele>596.6</ele>
        <time>1970-01-01T02:00:40.000Z</time>
      </trkpt>
      <trkpt lat="40.35214" lon="-3.453516">
        <ele>596.6</ele>
        <time>1970-01-01T02:00:41.000Z</time>
      </trkpt>
      <trkpt lat="40.352182" lon="-3.453489">
        <ele>597.2</ele>
        <time>1970-01-01T02:00:42.000Z</time>
      </trkpt>
      <trkpt lat="40.352221" lon="-3.453456">
        <ele>597.4</ele>
        <time>1970-01-01T02:00:43.000Z</time>
      </trkpt>
      <trkpt lat="40.35226" lon="-3.45342">
        <ele>597.4</ele>
        <time>1970-01-01T02:00:44.000Z</time>
      </trkpt>
      <trkpt lat="40.352301" lon="-3.453384">
        <ele>597.8</ele>
        <time>1970-01-01T02:00:45.000Z</time>
      </trkpt>
      <trkpt lat="40.352343" lon="-3.453345">
        <ele>598</ele>
        <time>1970-01-01T02:00:46.000Z</time>
      </trkpt>
      <trkpt lat="40.352383" lon="-3.453306">
        <ele>598.2</ele>
        <time>1970-01-01T02:00:47.000Z</time>
      </trkpt>
      <trkpt lat="40.352425" lon="-3.453267">
        <ele>598.2</ele>
        <time>1970-01-01T02:00:48.000Z</time>
      </trkpt>
      <trkpt lat="40.352463" lon="-3.453227">
        <ele>598.2</ele>
        <time>1970-01-01T02:00:49.000Z</time>
      </trkpt>
      <trkpt lat="40.352502" lon="-3.453186">
        <ele>598.4</ele>
        <time>1970-01-01T02:00:50.000Z</time>
      </trkpt>
      <trkpt lat="40.352544" lon="-3.453148">
        <ele>598.4</ele>
        <time>1970-01-01T02:00:51.000Z</time>
      </trkpt>
      <trkpt lat="40.352585" lon="-3.453109">
        <ele>598.4</ele>
        <time>1970-01-01T02:00:52.000Z</time>
      </trkpt>
      <trkpt lat="40.352623" lon="-3.45307">
        <ele>598.4</ele>
        <time>1970-01-01T02:00:53.000Z</time>
      </trkpt>
      <trkpt lat="40.352664" lon="-3.453031">
        <ele>598.6</ele>
        <time>1970-01-01T02:00:54.000Z</time>
      </trkpt>
      <trkpt lat="40.352709" lon="-3.452998">
        <ele>598.6</ele>
        <time>1970-01-01T02:00:55.000Z</time>
      </trkpt>
      <trkpt lat="40.352756" lon="-3.452966">
        <ele>598.6</ele>
        <time>1970-01-01T02:00:56.000Z</time>
      </trkpt>
      <trkpt lat="40.352803" lon="-3.452935">
        <ele>599</ele>
        <time>1970-01-01T02:00:57.000Z</time>
      </trkpt>
      <trkpt lat="40.352848" lon="-3.4529">
        <ele>599.2</ele>
        <time>1970-01-01T02:00:58.000Z</time>
      </trkpt>
      <trkpt lat="40.35289" lon="-3.452863">
        <ele>599.4</ele>
        <time>1970-01-01T02:00:59.000Z</time>
      </trkpt>
      <trkpt lat="40.352935" lon="-3.452827">
        <ele>599.4</ele>
        <time>1970-01-01T02:01:00.000Z</time>
      </trkpt>
      <trkpt lat="40.352981" lon="-3.452792">
        <ele>599.4</ele>
        <time>1970-01-01T02:01:01.000Z</time>
      </trkpt>
      <trkpt lat="40.353028" lon="-3.452759">
        <ele>599.4</ele>
        <time>1970-01-01T02:01:02.000Z</time>
      </trkpt>
      <trkpt lat="40.353079" lon="-3.45273">
        <ele>599.4</ele>
        <time>1970-01-01T02:01:03.000Z</time>
      </trkpt>
      <trkpt lat="40.353132" lon="-3.452706">
        <ele>599.6</ele>
        <time>1970-01-01T02:01:04.000Z</time>
      </trkpt>
      <trkpt lat="40.353184" lon="-3.452682">
        <ele>599.6</ele>
        <time>1970-01-01T02:01:05.000Z</time>
      </trkpt>
      <trkpt lat="40.353234" lon="-3.45266">
        <ele>599.6</ele>
        <time>1970-01-01T02:01:06.000Z</time>
      </trkpt>
      <trkpt lat="40.353288" lon="-3.452643">
        <ele>599.6</ele>
        <time>1970-01-01T02:01:07.000Z</time>
      </trkpt>
      <trkpt lat="40.353339" lon="-3.45262">
        <ele>599.6</ele>
        <time>1970-01-01T02:01:08.000Z</time>
      </trkpt>
      <trkpt lat="40.353388" lon="-3.452586">
        <ele>599.4</ele>
        <time>1970-01-01T02:01:09.000Z</time>
      </trkpt>
      <trkpt lat="40.353436" lon="-3.452547">
        <ele>599.4</ele>
        <time>1970-01-01T02:01:10.000Z</time>
      </trkpt>
      <trkpt lat="40.353486" lon="-3.452507">
        <ele>599.2</ele>
        <time>1970-01-01T02:01:11.000Z</time>
      </trkpt>
      <trkpt lat="40.353536" lon="-3.452471">
        <ele>599.2</ele>
        <time>1970-01-01T02:01:12.000Z</time>
      </trkpt>
      <trkpt lat="40.353588" lon="-3.452438">
        <ele>599.4</ele>
        <time>1970-01-01T02:01:13.000Z</time>
      </trkpt>
      <trkpt lat="40.353642" lon="-3.452407">
        <ele>599.4</ele>
        <time>1970-01-01T02:01:14.000Z</time>
      </trkpt>
      <trkpt lat="40.353695" lon="-3.452375">
        <ele>599.6</ele>
        <time>1970-01-01T02:01:15.000Z</time>
      </trkpt>
      <trkpt lat="40.353748" lon="-3.452345">
        <ele>599.6</ele>
        <time>1970-01-01T02:01:16.000Z</time>
      </trkpt>
      <trkpt lat="40.353802" lon="-3.452315">
        <ele>599.6</ele>
        <time>1970-01-01T02:01:17.000Z</time>
      </trkpt>
      <trkpt lat="40.353845" lon="-3.452291">
        <ele>599.6</ele>
        <time>1970-01-01T02:01:18.000Z</time>
      </trkpt>
      <trkpt lat="40.353897" lon="-3.452262">
        <ele>599.6</ele>
        <time>1970-01-01T02:01:19.000Z</time>
      </trkpt>
      <trkpt lat="40.353946" lon="-3.452234">
        <ele>599.8</ele>
        <time>1970-01-01T02:01:20.000Z</time>
      </trkpt>
      <trkpt lat="40.354006" lon="-3.452196">
        <ele>599.8</ele>
        <time>1970-01-01T02:01:21.000Z</time>
      </trkpt>
      <trkpt lat="40.354054" lon="-3.452162">
        <ele>600.2</ele>
        <time>1970-01-01T02:01:22.000Z</time>
      </trkpt>
      <trkpt lat="40.354091" lon="-3.452132">
        <ele>600.4</ele>
        <time>1970-01-01T02:01:23.000Z</time>
      </trkpt>
      <trkpt lat="40.354145" lon="-3.452087">
        <ele>600.4</ele>
        <time>1970-01-01T02:01:24.000Z</time>
      </trkpt>
      <trkpt lat="40.354187" lon="-3.452047">
        <ele>600.4</ele>
        <time>1970-01-01T02:01:25.000Z</time>
      </trkpt>
      <trkpt lat="40.354227" lon="-3.452004">
        <ele>600.4</ele>
        <time>1970-01-01T02:01:26.000Z</time>
      </trkpt>
      <trkpt lat="40.354264" lon="-3.451959">
        <ele>600.4</ele>
        <time>1970-01-01T02:01:27.000Z</time>
      </trkpt>
      <trkpt lat="40.354305" lon="-3.451914">
        <ele>600.4</ele>
        <time>1970-01-01T02:01:28.000Z</time>
      </trkpt>
      <trkpt lat="40.354338" lon="-3.451881">
        <ele>600.4</ele>
        <time>1970-01-01T02:01:29.000Z</time>
      </trkpt>
      <trkpt lat="40.354389" lon="-3.45183">
        <ele>600.6</ele>
        <time>1970-01-01T02:01:30.000Z</time>
      </trkpt>
      <trkpt lat="40.354431" lon="-3.451788">
        <ele>600.6</ele>
        <time>1970-01-01T02:01:31.000Z</time>
      </trkpt>
      <trkpt lat="40.354474" lon="-3.451747">
        <ele>600.8</ele>
        <time>1970-01-01T02:01:32.000Z</time>
      </trkpt>
      <trkpt lat="40.354518" lon="-3.451708">
        <ele>600.8</ele>
        <time>1970-01-01T02:01:33.000Z</time>
      </trkpt>
      <trkpt lat="40.354562" lon="-3.45167">
        <ele>601</ele>
        <time>1970-01-01T02:01:34.000Z</time>
      </trkpt>
      <trkpt lat="40.354605" lon="-3.451634">
        <ele>601</ele>
        <time>1970-01-01T02:01:35.000Z</time>
      </trkpt>
      <trkpt lat="40.354649" lon="-3.4516">
        <ele>601</ele>
        <time>1970-01-01T02:01:36.000Z</time>
      </trkpt>
      <trkpt lat="40.354691" lon="-3.451569">
        <ele>601.2</ele>
        <time>1970-01-01T02:01:37.000Z</time>
      </trkpt>
      <trkpt lat="40.354724" lon="-3.451543">
        <ele>601.2</ele>
        <time>1970-01-01T02:01:38.000Z</time>
      </trkpt>
      <trkpt lat="40.354765" lon="-3.451511">
        <ele>601.2</ele>
        <time>1970-01-01T02:01:39.000Z</time>
      </trkpt>
      <trkpt lat="40.354813" lon="-3.451469">
        <ele>601.2</ele>
        <time>1970-01-01T02:01:40.000Z</time>
      </trkpt>
      <trkpt lat="40.35485" lon="-3.451432">
        <ele>601.4</ele>
        <time>1970-01-01T02:01:41.000Z</time>
      </trkpt>
      <trkpt lat="40.354879" lon="-3.451402">
        <ele>601.6</ele>
        <time>1970-01-01T02:01:42.000Z</time>
      </trkpt>
      <trkpt lat="40.354923" lon="-3.451356">
        <ele>601.6</ele>
        <time>1970-01-01T02:01:43.000Z</time>
      </trkpt>
      <trkpt lat="40.35496" lon="-3.451315">
        <ele>601.6</ele>
        <time>1970-01-01T02:01:44.000Z</time>
      </trkpt>
      <trkpt lat="40.354995" lon="-3.451275">
        <ele>601.8</ele>
        <time>1970-01-01T02:01:45.000Z</time>
      </trkpt>
      <trkpt lat="40.355031" lon="-3.451235">
        <ele>602</ele>
        <time>1970-01-01T02:01:46.000Z</time>
      </trkpt>
      <trkpt lat="40.355074" lon="-3.451209">
        <ele>602.2</ele>
        <time>1970-01-01T02:01:47.000Z</time>
      </trkpt>
      <trkpt lat="40.355118" lon="-3.451193">
        <ele>602.2</ele>
        <time>1970-01-01T02:01:48.000Z</time>
      </trkpt>
      <trkpt lat="40.35516" lon="-3.451192">
        <ele>602.2</ele>
        <time>1970-01-01T02:01:49.000Z</time>
      </trkpt>
      <trkpt lat="40.355207" lon="-3.451198">
        <ele>602.2</ele>
        <time>1970-01-01T02:01:50.000Z</time>
      </trkpt>
      <trkpt lat="40.355252" lon="-3.451211">
        <ele>602.4</ele>
        <time>1970-01-01T02:01:51.000Z</time>
      </trkpt>
      <trkpt lat="40.355296" lon="-3.451229">
        <ele>602.6</ele>
        <time>1970-01-01T02:01:52.000Z</time>
      </trkpt>
      <trkpt lat="40.35534" lon="-3.451245">
        <ele>603.2</ele>
        <time>1970-01-01T02:01:53.000Z</time>
      </trkpt>
      <trkpt lat="40.355385" lon="-3.451256">
        <ele>603.4</ele>
        <time>1970-01-01T02:01:54.000Z</time>
      </trkpt>
      <trkpt lat="40.355432" lon="-3.451268">
        <ele>604</ele>
        <time>1970-01-01T02:01:55.000Z</time>
      </trkpt>
      <trkpt lat="40.355481" lon="-3.451276">
        <ele>604.2</ele>
        <time>1970-01-01T02:01:56.000Z</time>
      </trkpt>
      <trkpt lat="40.355531" lon="-3.451285">
        <ele>604.6</ele>
        <time>1970-01-01T02:01:57.000Z</time>
      </trkpt>
      <trkpt lat="40.35558" lon="-3.451295">
        <ele>604.8</ele>
        <time>1970-01-01T02:01:58.000Z</time>
      </trkpt>
      <trkpt lat="40.355629" lon="-3.451306">
        <ele>605</ele>
        <time>1970-01-01T02:01:59.000Z</time>
      </trkpt>
      <trkpt lat="40.355677" lon="-3.45132">
        <ele>605.6</ele>
        <time>1970-01-01T02:02:00.000Z</time>
      </trkpt>
      <trkpt lat="40.355724" lon="-3.451332">
        <ele>605.6</ele>
        <time>1970-01-01T02:02:01.000Z</time>
      </trkpt>
      <trkpt lat="40.355772" lon="-3.451344">
        <ele>605.8</ele>
        <time>1970-01-01T02:02:02.000Z</time>
      </trkpt>
      <trkpt lat="40.355819" lon="-3.451355">
        <ele>606</ele>
        <time>1970-01-01T02:02:03.000Z</time>
      </trkpt>
      <trkpt lat="40.355866" lon="-3.451369">
        <ele>606.2</ele>
        <time>1970-01-01T02:02:04.000Z</time>
      </trkpt>
      <trkpt lat="40.355911" lon="-3.451382">
        <ele>606.4</ele>
        <time>1970-01-01T02:02:05.000Z</time>
      </trkpt>
      <trkpt lat="40.355957" lon="-3.451399">
        <ele>606.2</ele>
        <time>1970-01-01T02:02:06.000Z</time>
      </trkpt>
      <trkpt lat="40.355999" lon="-3.451412">
        <ele>606.6</ele>
        <time>1970-01-01T02:02:07.000Z</time>
      </trkpt>
      <trkpt lat="40.356041" lon="-3.451424">
        <ele>606.6</ele>
        <time>1970-01-01T02:02:08.000Z</time>
      </trkpt>
      <trkpt lat="40.35608" lon="-3.451433">
        <ele>606.8</ele>
        <time>1970-01-01T02:02:09.000Z</time>
      </trkpt>
      <trkpt lat="40.356123" lon="-3.451442">
        <ele>607</ele>
        <time>1970-01-01T02:02:10.000Z</time>
      </trkpt>
      <trkpt lat="40.356166" lon="-3.451449">
        <ele>607.4</ele>
        <time>1970-01-01T02:02:11.000Z</time>
      </trkpt>
      <trkpt lat="40.356208" lon="-3.451453">
        <ele>607.6</ele>
        <time>1970-01-01T02:02:12.000Z</time>
      </trkpt>
      <trkpt lat="40.356252" lon="-3.451459">
        <ele>607.6</ele>
        <time>1970-01-01T02:02:13.000Z</time>
      </trkpt>
      <trkpt lat="40.356287" lon="-3.451467">
        <ele>607.8</ele>
        <time>1970-01-01T02:02:14.000Z</time>
      </trkpt>
      <trkpt lat="40.356339" lon="-3.451474">
        <ele>608</ele>
        <time>1970-01-01T02:02:15.000Z</time>
      </trkpt>
      <trkpt lat="40.356381" lon="-3.45148">
        <ele>608.2</ele>
        <time>1970-01-01T02:02:16.000Z</time>
      </trkpt>
      <trkpt lat="40.356423" lon="-3.451487">
        <ele>608.4</ele>
        <time>1970-01-01T02:02:17.000Z</time>
      </trkpt>
      <trkpt lat="40.356468" lon="-3.451492">
        <ele>608.6</ele>
        <time>1970-01-01T02:02:18.000Z</time>
      </trkpt>
      <trkpt lat="40.356515" lon="-3.451495">
        <ele>609</ele>
        <time>1970-01-01T02:02:19.000Z</time>
      </trkpt>
      <trkpt lat="40.356561" lon="-3.451501">
        <ele>609.2</ele>
        <time>1970-01-01T02:02:20.000Z</time>
      </trkpt>
      <trkpt lat="40.356608" lon="-3.451508">
        <ele>609.8</ele>
        <time>1970-01-01T02:02:21.000Z</time>
      </trkpt>
      <trkpt lat="40.356653" lon="-3.451517">
        <ele>609.8</ele>
        <time>1970-01-01T02:02:22.000Z</time>
      </trkpt>
      <trkpt lat="40.356698" lon="-3.451525">
        <ele>610.2</ele>
        <time>1970-01-01T02:02:23.000Z</time>
      </trkpt>
      <trkpt lat="40.356742" lon="-3.45153">
        <ele>610.2</ele>
        <time>1970-01-01T02:02:24.000Z</time>
      </trkpt>
      <trkpt lat="40.356789" lon="-3.451533">
        <ele>610.4</ele>
        <time>1970-01-01T02:02:25.000Z</time>
      </trkpt>
      <trkpt lat="40.356834" lon="-3.451533">
        <ele>610.8</ele>
        <time>1970-01-01T02:02:26.000Z</time>
      </trkpt>
      <trkpt lat="40.35688" lon="-3.451534">
        <ele>611</ele>
        <time>1970-01-01T02:02:27.000Z</time>
      </trkpt>
      <trkpt lat="40.356925" lon="-3.451533">
        <ele>611.2</ele>
        <time>1970-01-01T02:02:28.000Z</time>
      </trkpt>
      <trkpt lat="40.356972" lon="-3.451531">
        <ele>611.4</ele>
        <time>1970-01-01T02:02:29.000Z</time>
      </trkpt>
      <trkpt lat="40.357018" lon="-3.451527">
        <ele>611.6</ele>
        <time>1970-01-01T02:02:30.000Z</time>
      </trkpt>
      <trkpt lat="40.357066" lon="-3.451524">
        <ele>611.8</ele>
        <time>1970-01-01T02:02:31.000Z</time>
      </trkpt>
      <trkpt lat="40.35711" lon="-3.451516">
        <ele>612</ele>
        <time>1970-01-01T02:02:32.000Z</time>
      </trkpt>
      <trkpt lat="40.357156" lon="-3.45151">
        <ele>612.4</ele>
        <time>1970-01-01T02:02:33.000Z</time>
      </trkpt>
      <trkpt lat="40.357203" lon="-3.451505">
        <ele>612.6</ele>
        <time>1970-01-01T02:02:34.000Z</time>
      </trkpt>
      <trkpt lat="40.357248" lon="-3.451498">
        <ele>612.8</ele>
        <time>1970-01-01T02:02:35.000Z</time>
      </trkpt>
      <trkpt lat="40.357292" lon="-3.451492">
        <ele>612.8</ele>
        <time>1970-01-01T02:02:36.000Z</time>
      </trkpt>
      <trkpt lat="40.357337" lon="-3.451489">
        <ele>613</ele>
        <time>1970-01-01T02:02:37.000Z</time>
      </trkpt>
      <trkpt lat="40.357383" lon="-3.451485">
        <ele>613.4</ele>
        <time>1970-01-01T02:02:38.000Z</time>
      </trkpt>
      <trkpt lat="40.357431" lon="-3.451478">
        <ele>613.4</ele>
        <time>1970-01-01T02:02:39.000Z</time>
      </trkpt>
      <trkpt lat="40.357478" lon="-3.451469">
        <ele>613.6</ele>
        <time>1970-01-01T02:02:40.000Z</time>
      </trkpt>
      <trkpt lat="40.357525" lon="-3.451459">
        <ele>613.8</ele>
        <time>1970-01-01T02:02:41.000Z</time>
      </trkpt>
      <trkpt lat="40.357568" lon="-3.451451">
        <ele>613.8</ele>
        <time>1970-01-01T02:02:42.000Z</time>
      </trkpt>
      <trkpt lat="40.357613" lon="-3.451448">
        <ele>613.8</ele>
        <time>1970-01-01T02:02:43.000Z</time>
      </trkpt>
      <trkpt lat="40.357657" lon="-3.451446">
        <ele>614.2</ele>
        <time>1970-01-01T02:02:44.000Z</time>
      </trkpt>
      <trkpt lat="40.357698" lon="-3.451446">
        <ele>614.6</ele>
        <time>1970-01-01T02:02:45.000Z</time>
      </trkpt>
      <trkpt lat="40.357735" lon="-3.45145">
        <ele>614.8</ele>
        <time>1970-01-01T02:02:46.000Z</time>
      </trkpt>
      <trkpt lat="40.357773" lon="-3.451456">
        <ele>615</ele>
        <time>1970-01-01T02:02:47.000Z</time>
      </trkpt>
      <trkpt lat="40.357808" lon="-3.451461">
        <ele>615.2</ele>
        <time>1970-01-01T02:02:48.000Z</time>
      </trkpt>
      <trkpt lat="40.357842" lon="-3.451469">
        <ele>615.2</ele>
        <time>1970-01-01T02:02:49.000Z</time>
      </trkpt>
      <trkpt lat="40.357877" lon="-3.451485">
        <ele>615.2</ele>
        <time>1970-01-01T02:02:50.000Z</time>
      </trkpt>
      <trkpt lat="40.357913" lon="-3.451505">
        <ele>615.4</ele>
        <time>1970-01-01T02:02:51.000Z</time>
      </trkpt>
      <trkpt lat="40.357949" lon="-3.451531">
        <ele>615.4</ele>
        <time>1970-01-01T02:02:52.000Z</time>
      </trkpt>
      <trkpt lat="40.35799" lon="-3.451554">
        <ele>615.4</ele>
        <time>1970-01-01T02:02:53.000Z</time>
      </trkpt>
      <trkpt lat="40.358036" lon="-3.451574">
        <ele>615.4</ele>
        <time>1970-01-01T02:02:54.000Z</time>
      </trkpt>
      <trkpt lat="40.358086" lon="-3.451598">
        <ele>615.2</ele>
        <time>1970-01-01T02:02:55.000Z</time>
      </trkpt>
      <trkpt lat="40.358141" lon="-3.451627">
        <ele>615.2</ele>
        <time>1970-01-01T02:02:56.000Z</time>
      </trkpt>
      <trkpt lat="40.358197" lon="-3.451664">
        <ele>615</ele>
        <time>1970-01-01T02:02:57.000Z</time>
      </trkpt>
      <trkpt lat="40.358252" lon="-3.451708">
        <ele>614.8</ele>
        <time>1970-01-01T02:02:58.000Z</time>
      </trkpt>
      <trkpt lat="40.358308" lon="-3.451757">
        <ele>614.6</ele>
        <time>1970-01-01T02:02:59.000Z</time>
      </trkpt>
      <trkpt lat="40.358369" lon="-3.451809">
        <ele>614.6</ele>
        <time>1970-01-01T02:03:00.000Z</time>
      </trkpt>
      <trkpt lat="40.358432" lon="-3.451859">
        <ele>614.2</ele>
        <time>1970-01-01T02:03:01.000Z</time>
      </trkpt>
      <trkpt lat="40.358497" lon="-3.45191">
        <ele>614</ele>
        <time>1970-01-01T02:03:02.000Z</time>
      </trkpt>
      <trkpt lat="40.358561" lon="-3.451963">
        <ele>613.4</ele>
        <time>1970-01-01T02:03:03.000Z</time>
      </trkpt>
      <trkpt lat="40.358626" lon="-3.452018">
        <ele>613.2</ele>
        <time>1970-01-01T02:03:04.000Z</time>
      </trkpt>
      <trkpt lat="40.358692" lon="-3.452067">
        <ele>613</ele>
        <time>1970-01-01T02:03:05.000Z</time>
      </trkpt>
      <trkpt lat="40.358761" lon="-3.45211">
        <ele>612.2</ele>
        <time>1970-01-01T02:03:06.000Z</time>
      </trkpt>
      <trkpt lat="40.358834" lon="-3.452154">
        <ele>612</ele>
        <time>1970-01-01T02:03:07.000Z</time>
      </trkpt>
      <trkpt lat="40.358909" lon="-3.452197">
        <ele>611.6</ele>
        <time>1970-01-01T02:03:08.000Z</time>
      </trkpt>
      <trkpt lat="40.358985" lon="-3.452241">
        <ele>611.4</ele>
        <time>1970-01-01T02:03:09.000Z</time>
      </trkpt>
      <trkpt lat="40.359057" lon="-3.452287">
        <ele>611</ele>
        <time>1970-01-01T02:03:10.000Z</time>
      </trkpt>
      <trkpt lat="40.359126" lon="-3.452333">
        <ele>610.8</ele>
        <time>1970-01-01T02:03:11.000Z</time>
      </trkpt>
      <trkpt lat="40.359191" lon="-3.452377">
        <ele>610</ele>
        <time>1970-01-01T02:03:12.000Z</time>
      </trkpt>
      <trkpt lat="40.359253" lon="-3.452418">
        <ele>609.6</ele>
        <time>1970-01-01T02:03:13.000Z</time>
      </trkpt>
      <trkpt lat="40.35931" lon="-3.452456">
        <ele>609.6</ele>
        <time>1970-01-01T02:03:14.000Z</time>
      </trkpt>
      <trkpt lat="40.359362" lon="-3.452492">
        <ele>609.4</ele>
        <time>1970-01-01T02:03:15.000Z</time>
      </trkpt>
      <trkpt lat="40.359413" lon="-3.452529">
        <ele>609.4</ele>
        <time>1970-01-01T02:03:16.000Z</time>
      </trkpt>
      <trkpt lat="40.359459" lon="-3.452566">
        <ele>609.4</ele>
        <time>1970-01-01T02:03:17.000Z</time>
      </trkpt>
      <trkpt lat="40.359507" lon="-3.452604">
        <ele>609.4</ele>
        <time>1970-01-01T02:03:18.000Z</time>
      </trkpt>
      <trkpt lat="40.359554" lon="-3.452641">
        <ele>609.4</ele>
        <time>1970-01-01T02:03:19.000Z</time>
      </trkpt>
      <trkpt lat="40.359591" lon="-3.452675">
        <ele>609.6</ele>
        <time>1970-01-01T02:03:20.000Z</time>
      </trkpt>
      <trkpt lat="40.359631" lon="-3.452711">
        <ele>609.8</ele>
        <time>1970-01-01T02:03:21.000Z</time>
      </trkpt>
      <trkpt lat="40.359676" lon="-3.452745">
        <ele>610</ele>
        <time>1970-01-01T02:03:22.000Z</time>
      </trkpt>
      <trkpt lat="40.359719" lon="-3.452781">
        <ele>610.2</ele>
        <time>1970-01-01T02:03:23.000Z</time>
      </trkpt>
      <trkpt lat="40.359759" lon="-3.452816">
        <ele>610.2</ele>
        <time>1970-01-01T02:03:24.000Z</time>
      </trkpt>
      <trkpt lat="40.359801" lon="-3.452852">
        <ele>610.4</ele>
        <time>1970-01-01T02:03:25.000Z</time>
      </trkpt>
      <trkpt lat="40.359842" lon="-3.452886">
        <ele>610.8</ele>
        <time>1970-01-01T02:03:26.000Z</time>
      </trkpt>
      <trkpt lat="40.359885" lon="-3.45292">
        <ele>611</ele>
        <time>1970-01-01T02:03:27.000Z</time>
      </trkpt>
      <trkpt lat="40.359927" lon="-3.452954">
        <ele>611.2</ele>
        <time>1970-01-01T02:03:28.000Z</time>
      </trkpt>
      <trkpt lat="40.359967" lon="-3.452992">
        <ele>611.2</ele>
        <time>1970-01-01T02:03:29.000Z</time>
      </trkpt>
      <trkpt lat="40.360007" lon="-3.453031">
        <ele>611.4</ele>
        <time>1970-01-01T02:03:30.000Z</time>
      </trkpt>
      <trkpt lat="40.360052" lon="-3.45307">
        <ele>611.6</ele>
        <time>1970-01-01T02:03:31.000Z</time>
      </trkpt>
      <trkpt lat="40.360097" lon="-3.453106">
        <ele>611.6</ele>
        <time>1970-01-01T02:03:32.000Z</time>
      </trkpt>
      <trkpt lat="40.360139" lon="-3.453146">
        <ele>611.6</ele>
        <time>1970-01-01T02:03:33.000Z</time>
      </trkpt>
      <trkpt lat="40.360179" lon="-3.453189">
        <ele>611.8</ele>
        <time>1970-01-01T02:03:34.000Z</time>
      </trkpt>
      <trkpt lat="40.360221" lon="-3.453227">
        <ele>611.8</ele>
        <time>1970-01-01T02:03:35.000Z</time>
      </trkpt>
      <trkpt lat="40.36026" lon="-3.453261">
        <ele>612</ele>
        <time>1970-01-01T02:03:36.000Z</time>
      </trkpt>
      <trkpt lat="40.360299" lon="-3.453293">
        <ele>612</ele>
        <time>1970-01-01T02:03:37.000Z</time>
      </trkpt>
      <trkpt lat="40.360338" lon="-3.453329">
        <ele>612</ele>
        <time>1970-01-01T02:03:38.000Z</time>
      </trkpt>
      <trkpt lat="40.360376" lon="-3.453368">
        <ele>612.2</ele>
        <time>1970-01-01T02:03:39.000Z</time>
      </trkpt>
      <trkpt lat="40.360412" lon="-3.453407">
        <ele>612.2</ele>
        <time>1970-01-01T02:03:40.000Z</time>
      </trkpt>
      <trkpt lat="40.360451" lon="-3.453446">
        <ele>612.2</ele>
        <time>1970-01-01T02:03:41.000Z</time>
      </trkpt>
      <trkpt lat="40.360492" lon="-3.453485">
        <ele>612.2</ele>
        <time>1970-01-01T02:03:42.000Z</time>
      </trkpt>
      <trkpt lat="40.360536" lon="-3.453523">
        <ele>612.4</ele>
        <time>1970-01-01T02:03:43.000Z</time>
      </trkpt>
      <trkpt lat="40.360581" lon="-3.453561">
        <ele>612.4</ele>
        <time>1970-01-01T02:03:44.000Z</time>
      </trkpt>
      <trkpt lat="40.360626" lon="-3.4536">
        <ele>612.4</ele>
        <time>1970-01-01T02:03:45.000Z</time>
      </trkpt>
      <trkpt lat="40.360669" lon="-3.453641">
        <ele>612.4</ele>
        <time>1970-01-01T02:03:46.000Z</time>
      </trkpt>
      <trkpt lat="40.360709" lon="-3.453687">
        <ele>612.4</ele>
        <time>1970-01-01T02:03:47.000Z</time>
      </trkpt>
      <trkpt lat="40.36075" lon="-3.453736">
        <ele>612.6</ele>
        <time>1970-01-01T02:03:48.000Z</time>
      </trkpt>
      <trkpt lat="40.360792" lon="-3.453782">
        <ele>612.6</ele>
        <time>1970-01-01T02:03:49.000Z</time>
      </trkpt>
      <trkpt lat="40.360835" lon="-3.453826">
        <ele>612.8</ele>
        <time>1970-01-01T02:03:50.000Z</time>
      </trkpt>
      <trkpt lat="40.360878" lon="-3.453866">
        <ele>612.8</ele>
        <time>1970-01-01T02:03:51.000Z</time>
      </trkpt>
      <trkpt lat="40.360919" lon="-3.453905">
        <ele>612.8</ele>
        <time>1970-01-01T02:03:52.000Z</time>
      </trkpt>
      <trkpt lat="40.360959" lon="-3.453943">
        <ele>612.8</ele>
        <time>1970-01-01T02:03:53.000Z</time>
      </trkpt>
      <trkpt lat="40.360995" lon="-3.453983">
        <ele>612.6</ele>
        <time>1970-01-01T02:03:54.000Z</time>
      </trkpt>
      <trkpt lat="40.361031" lon="-3.454022">
        <ele>612.4</ele>
        <time>1970-01-01T02:03:55.000Z</time>
      </trkpt>
      <trkpt lat="40.361064" lon="-3.454062">
        <ele>612.4</ele>
        <time>1970-01-01T02:03:56.000Z</time>
      </trkpt>
      <trkpt lat="40.361098" lon="-3.454103">
        <ele>612.4</ele>
        <time>1970-01-01T02:03:57.000Z</time>
      </trkpt>
      <trkpt lat="40.361138" lon="-3.454128">
        <ele>612.4</ele>
        <time>1970-01-01T02:03:58.000Z</time>
      </trkpt>
      <trkpt lat="40.36118" lon="-3.454139">
        <ele>612</ele>
        <time>1970-01-01T02:03:59.000Z</time>
      </trkpt>
      <trkpt lat="40.361223" lon="-3.454132">
        <ele>611.8</ele>
        <time>1970-01-01T02:04:00.000Z</time>
      </trkpt>
      <trkpt lat="40.361258" lon="-3.454111">
        <ele>611.8</ele>
        <time>1970-01-01T02:04:01.000Z</time>
      </trkpt>
      <trkpt lat="40.361296" lon="-3.454082">
        <ele>611.6</ele>
        <time>1970-01-01T02:04:02.000Z</time>
      </trkpt>
      <trkpt lat="40.361338" lon="-3.454047">
        <ele>611.4</ele>
        <time>1970-01-01T02:04:03.000Z</time>
      </trkpt>
      <trkpt lat="40.36138" lon="-3.454008">
        <ele>611.4</ele>
        <time>1970-01-01T02:04:04.000Z</time>
      </trkpt>
      <trkpt lat="40.36142" lon="-3.453965">
        <ele>611.2</ele>
        <time>1970-01-01T02:04:05.000Z</time>
      </trkpt>
      <trkpt lat="40.361456" lon="-3.453917">
        <ele>610.8</ele>
        <time>1970-01-01T02:04:06.000Z</time>
      </trkpt>
      <trkpt lat="40.361484" lon="-3.453864">
        <ele>610.6</ele>
        <time>1970-01-01T02:04:07.000Z</time>
      </trkpt>
      <trkpt lat="40.361507" lon="-3.453808">
        <ele>610.6</ele>
        <time>1970-01-01T02:04:08.000Z</time>
      </trkpt>
      <trkpt lat="40.361524" lon="-3.453754">
        <ele>611</ele>
        <time>1970-01-01T02:04:09.000Z</time>
      </trkpt>
      <trkpt lat="40.361538" lon="-3.453701">
        <ele>611</ele>
        <time>1970-01-01T02:04:10.000Z</time>
      </trkpt>
      <trkpt lat="40.361551" lon="-3.453649">
        <ele>611</ele>
        <time>1970-01-01T02:04:11.000Z</time>
      </trkpt>
      <trkpt lat="40.361564" lon="-3.453601">
        <ele>611</ele>
        <time>1970-01-01T02:04:12.000Z</time>
      </trkpt>
      <trkpt lat="40.361578" lon="-3.453557">
        <ele>611.2</ele>
        <time>1970-01-01T02:04:13.000Z</time>
      </trkpt>
      <trkpt lat="40.36159" lon="-3.453515">
        <ele>611.2</ele>
        <time>1970-01-01T02:04:14.000Z</time>
      </trkpt>
      <trkpt lat="40.361601" lon="-3.453474">
        <ele>611.2</ele>
        <time>1970-01-01T02:04:15.000Z</time>
      </trkpt>
      <trkpt lat="40.361614" lon="-3.453433">
        <ele>611.4</ele>
        <time>1970-01-01T02:04:16.000Z</time>
      </trkpt>
      <trkpt lat="40.361626" lon="-3.453392">
        <ele>611.6</ele>
        <time>1970-01-01T02:04:17.000Z</time>
      </trkpt>
      <trkpt lat="40.36164" lon="-3.453349">
        <ele>612</ele>
        <time>1970-01-01T02:04:18.000Z</time>
      </trkpt>
      <trkpt lat="40.361653" lon="-3.453306">
        <ele>612.2</ele>
        <time>1970-01-01T02:04:19.000Z</time>
      </trkpt>
      <trkpt lat="40.361665" lon="-3.453262">
        <ele>612.6</ele>
        <time>1970-01-01T02:04:20.000Z</time>
      </trkpt>
      <trkpt lat="40.361678" lon="-3.45322">
        <ele>613</ele>
        <time>1970-01-01T02:04:21.000Z</time>
      </trkpt>
      <trkpt lat="40.361691" lon="-3.453177">
        <ele>613.2</ele>
        <time>1970-01-01T02:04:22.000Z</time>
      </trkpt>
      <trkpt lat="40.361702" lon="-3.453136">
        <ele>613.6</ele>
        <time>1970-01-01T02:04:23.000Z</time>
      </trkpt>
      <trkpt lat="40.361711" lon="-3.453094">
        <ele>613.6</ele>
        <time>1970-01-01T02:04:24.000Z</time>
      </trkpt>
      <trkpt lat="40.361717" lon="-3.453052">
        <ele>613.8</ele>
        <time>1970-01-01T02:04:25.000Z</time>
      </trkpt>
      <trkpt lat="40.361725" lon="-3.453011">
        <ele>614.2</ele>
        <time>1970-01-01T02:04:26.000Z</time>
      </trkpt>
      <trkpt lat="40.361731" lon="-3.452969">
        <ele>614.4</ele>
        <time>1970-01-01T02:04:27.000Z</time>
      </trkpt>
      <trkpt lat="40.361739" lon="-3.452929">
        <ele>614.8</ele>
        <time>1970-01-01T02:04:28.000Z</time>
      </trkpt>
      <trkpt lat="40.361746" lon="-3.452889">
        <ele>614.8</ele>
        <time>1970-01-01T02:04:29.000Z</time>
      </trkpt>
      <trkpt lat="40.361752" lon="-3.452847">
        <ele>615.2</ele>
        <time>1970-01-01T02:04:30.000Z</time>
      </trkpt>
      <trkpt lat="40.361758" lon="-3.452806">
        <ele>615.2</ele>
        <time>1970-01-01T02:04:31.000Z</time>
      </trkpt>
      <trkpt lat="40.361766" lon="-3.452764">
        <ele>615.6</ele>
        <time>1970-01-01T02:04:32.000Z</time>
      </trkpt>
      <trkpt lat="40.361773" lon="-3.452722">
        <ele>615.8</ele>
        <time>1970-01-01T02:04:33.000Z</time>
      </trkpt>
      <trkpt lat="40.361781" lon="-3.452679">
        <ele>616.2</ele>
        <time>1970-01-01T02:04:34.000Z</time>
      </trkpt>
      <trkpt lat="40.36179" lon="-3.45264">
        <ele>616.4</ele>
        <time>1970-01-01T02:04:35.000Z</time>
      </trkpt>
      <trkpt lat="40.361799" lon="-3.452599">
        <ele>616.6</ele>
        <time>1970-01-01T02:04:36.000Z</time>
      </trkpt>
      <trkpt lat="40.361809" lon="-3.452555">
        <ele>617</ele>
        <time>1970-01-01T02:04:37.000Z</time>
      </trkpt>
      <trkpt lat="40.361819" lon="-3.45251">
        <ele>617.2</ele>
        <time>1970-01-01T02:04:38.000Z</time>
      </trkpt>
      <trkpt lat="40.361828" lon="-3.452466">
        <ele>617.4</ele>
        <time>1970-01-01T02:04:39.000Z</time>
      </trkpt>
      <trkpt lat="40.361837" lon="-3.452421">
        <ele>617.4</ele>
        <time>1970-01-01T02:04:40.000Z</time>
      </trkpt>
      <trkpt lat="40.361847" lon="-3.452376">
        <ele>617.6</ele>
        <time>1970-01-01T02:04:41.000Z</time>
      </trkpt>
      <trkpt lat="40.361856" lon="-3.452332">
        <ele>618</ele>
        <time>1970-01-01T02:04:42.000Z</time>
      </trkpt>
      <trkpt lat="40.361864" lon="-3.452287">
        <ele>618</ele>
        <time>1970-01-01T02:04:43.000Z</time>
      </trkpt>
      <trkpt lat="40.361873" lon="-3.452243">
        <ele>618.2</ele>
        <time>1970-01-01T02:04:44.000Z</time>
      </trkpt>
      <trkpt lat="40.361883" lon="-3.452202">
        <ele>618.4</ele>
        <time>1970-01-01T02:04:45.000Z</time>
      </trkpt>
      <trkpt lat="40.361893" lon="-3.452161">
        <ele>618.6</ele>
        <time>1970-01-01T02:04:46.000Z</time>
      </trkpt>
      <trkpt lat="40.361902" lon="-3.452114">
        <ele>618.6</ele>
        <time>1970-01-01T02:04:47.000Z</time>
      </trkpt>
      <trkpt lat="40.361914" lon="-3.452068">
        <ele>618.8</ele>
        <time>1970-01-01T02:04:48.000Z</time>
      </trkpt>
      <trkpt lat="40.361925" lon="-3.452021">
        <ele>619</ele>
        <time>1970-01-01T02:04:49.000Z</time>
      </trkpt>
      <trkpt lat="40.361937" lon="-3.451973">
        <ele>619</ele>
        <time>1970-01-01T02:04:50.000Z</time>
      </trkpt>
      <trkpt lat="40.36195" lon="-3.451924">
        <ele>619.4</ele>
        <time>1970-01-01T02:04:51.000Z</time>
      </trkpt>
      <trkpt lat="40.36196" lon="-3.451886">
        <ele>619.4</ele>
        <time>1970-01-01T02:04:52.000Z</time>
      </trkpt>
      <trkpt lat="40.361969" lon="-3.45184">
        <ele>619.6</ele>
        <time>1970-01-01T02:04:53.000Z</time>
      </trkpt>
      <trkpt lat="40.361979" lon="-3.451779">
        <ele>619.6</ele>
        <time>1970-01-01T02:04:54.000Z</time>
      </trkpt>
      <trkpt lat="40.36199" lon="-3.451724">
        <ele>619.6</ele>
        <time>1970-01-01T02:04:55.000Z</time>
      </trkpt>
      <trkpt lat="40.362" lon="-3.45167">
        <ele>620</ele>
        <time>1970-01-01T02:04:56.000Z</time>
      </trkpt>
      <trkpt lat="40.362011" lon="-3.451628">
        <ele>620</ele>
        <time>1970-01-01T02:04:57.000Z</time>
      </trkpt>
      <trkpt lat="40.362024" lon="-3.451572">
        <ele>620.4</ele>
        <time>1970-01-01T02:04:58.000Z</time>
      </trkpt>
      <trkpt lat="40.362041" lon="-3.451501">
        <ele>620.4</ele>
        <time>1970-01-01T02:04:59.000Z</time>
      </trkpt>
      <trkpt lat="40.362056" lon="-3.45144">
        <ele>620.6</ele>
        <time>1970-01-01T02:05:00.000Z</time>
      </trkpt>
      <trkpt lat="40.362072" lon="-3.451376">
        <ele>620.6</ele>
        <time>1970-01-01T02:05:01.000Z</time>
      </trkpt>
      <trkpt lat="40.362086" lon="-3.451324">
        <ele>620.6</ele>
        <time>1970-01-01T02:05:02.000Z</time>
      </trkpt>
      <trkpt lat="40.362109" lon="-3.451245">
        <ele>620.6</ele>
        <time>1970-01-01T02:05:03.000Z</time>
      </trkpt>
      <trkpt lat="40.362132" lon="-3.451176">
        <ele>620.6</ele>
        <time>1970-01-01T02:05:04.000Z</time>
      </trkpt>
      <trkpt lat="40.362158" lon="-3.451105">
        <ele>620.4</ele>
        <time>1970-01-01T02:05:05.000Z</time>
      </trkpt>
      <trkpt lat="40.362186" lon="-3.451033">
        <ele>620.4</ele>
        <time>1970-01-01T02:05:06.000Z</time>
      </trkpt>
      <trkpt lat="40.362215" lon="-3.45096">
        <ele>620.4</ele>
        <time>1970-01-01T02:05:07.000Z</time>
      </trkpt>
      <trkpt lat="40.362252" lon="-3.450888">
        <ele>620.4</ele>
        <time>1970-01-01T02:05:08.000Z</time>
      </trkpt>
      <trkpt lat="40.362296" lon="-3.450815">
        <ele>620.4</ele>
        <time>1970-01-01T02:05:09.000Z</time>
      </trkpt>
      <trkpt lat="40.362343" lon="-3.450747">
        <ele>620.2</ele>
        <time>1970-01-01T02:05:10.000Z</time>
      </trkpt>
      <trkpt lat="40.362392" lon="-3.450684">
        <ele>620.2</ele>
        <time>1970-01-01T02:05:11.000Z</time>
      </trkpt>
      <trkpt lat="40.362445" lon="-3.450624">
        <ele>619.8</ele>
        <time>1970-01-01T02:05:12.000Z</time>
      </trkpt>
      <trkpt lat="40.3625" lon="-3.450566">
        <ele>619.8</ele>
        <time>1970-01-01T02:05:13.000Z</time>
      </trkpt>
      <trkpt lat="40.362557" lon="-3.45051">
        <ele>619.6</ele>
        <time>1970-01-01T02:05:14.000Z</time>
      </trkpt>
      <trkpt lat="40.362616" lon="-3.450459">
        <ele>619</ele>
        <time>1970-01-01T02:05:15.000Z</time>
      </trkpt>
      <trkpt lat="40.362677" lon="-3.450414">
        <ele>618.4</ele>
        <time>1970-01-01T02:05:16.000Z</time>
      </trkpt>
      <trkpt lat="40.36274" lon="-3.450377">
        <ele>617.8</ele>
        <time>1970-01-01T02:05:17.000Z</time>
      </trkpt>
      <trkpt lat="40.362805" lon="-3.450352">
        <ele>617.6</ele>
        <time>1970-01-01T02:05:18.000Z</time>
      </trkpt>
      <trkpt lat="40.362867" lon="-3.450333">
        <ele>617.6</ele>
        <time>1970-01-01T02:05:19.000Z</time>
      </trkpt>
      <trkpt lat="40.362927" lon="-3.450325">
        <ele>617.4</ele>
        <time>1970-01-01T02:05:20.000Z</time>
      </trkpt>
      <trkpt lat="40.362987" lon="-3.450322">
        <ele>617.4</ele>
        <time>1970-01-01T02:05:21.000Z</time>
      </trkpt>
      <trkpt lat="40.363043" lon="-3.450317">
        <ele>617.4</ele>
        <time>1970-01-01T02:05:22.000Z</time>
      </trkpt>
      <trkpt lat="40.363095" lon="-3.450304">
        <ele>617.4</ele>
        <time>1970-01-01T02:05:23.000Z</time>
      </trkpt>
      <trkpt lat="40.363144" lon="-3.450286">
        <ele>617.4</ele>
        <time>1970-01-01T02:05:24.000Z</time>
      </trkpt>
      <trkpt lat="40.36319" lon="-3.450263">
        <ele>617.4</ele>
        <time>1970-01-01T02:05:25.000Z</time>
      </trkpt>
      <trkpt lat="40.363234" lon="-3.450237">
        <ele>617.6</ele>
        <time>1970-01-01T02:05:26.000Z</time>
      </trkpt>
      <trkpt lat="40.363274" lon="-3.450208">
        <ele>617.6</ele>
        <time>1970-01-01T02:05:27.000Z</time>
      </trkpt>
      <trkpt lat="40.363312" lon="-3.450178">
        <ele>617.8</ele>
        <time>1970-01-01T02:05:28.000Z</time>
      </trkpt>
      <trkpt lat="40.363344" lon="-3.450143">
        <ele>617.8</ele>
        <time>1970-01-01T02:05:29.000Z</time>
      </trkpt>
      <trkpt lat="40.363376" lon="-3.450111">
        <ele>618.2</ele>
        <time>1970-01-01T02:05:30.000Z</time>
      </trkpt>
      <trkpt lat="40.36341" lon="-3.450077">
        <ele>618.2</ele>
        <time>1970-01-01T02:05:31.000Z</time>
      </trkpt>
      <trkpt lat="40.363445" lon="-3.450047">
        <ele>618.2</ele>
        <time>1970-01-01T02:05:32.000Z</time>
      </trkpt>
      <trkpt lat="40.363481" lon="-3.450027">
        <ele>618.4</ele>
        <time>1970-01-01T02:05:33.000Z</time>
      </trkpt>
      <trkpt lat="40.36352" lon="-3.450017">
        <ele>618.4</ele>
        <time>1970-01-01T02:05:34.000Z</time>
      </trkpt>
      <trkpt lat="40.363559" lon="-3.450007">
        <ele>618.6</ele>
        <time>1970-01-01T02:05:35.000Z</time>
      </trkpt>
      <trkpt lat="40.363597" lon="-3.449991">
        <ele>618.6</ele>
        <time>1970-01-01T02:05:36.000Z</time>
      </trkpt>
      <trkpt lat="40.363634" lon="-3.449968">
        <ele>618.8</ele>
        <time>1970-01-01T02:05:37.000Z</time>
      </trkpt>
      <trkpt lat="40.363667" lon="-3.449936">
        <ele>619</ele>
        <time>1970-01-01T02:05:38.000Z</time>
      </trkpt>
      <trkpt lat="40.363693" lon="-3.449896">
        <ele>619</ele>
        <time>1970-01-01T02:05:39.000Z</time>
      </trkpt>
      <trkpt lat="40.36371" lon="-3.449849">
        <ele>619.4</ele>
        <time>1970-01-01T02:05:40.000Z</time>
      </trkpt>
      <trkpt lat="40.363717" lon="-3.449798">
        <ele>619.4</ele>
        <time>1970-01-01T02:05:41.000Z</time>
      </trkpt>
      <trkpt lat="40.363716" lon="-3.449745">
        <ele>619.6</ele>
        <time>1970-01-01T02:05:42.000Z</time>
      </trkpt>
      <trkpt lat="40.363708" lon="-3.449684">
        <ele>619.6</ele>
        <time>1970-01-01T02:05:43.000Z</time>
      </trkpt>
      <trkpt lat="40.363699" lon="-3.44962">
        <ele>620</ele>
        <time>1970-01-01T02:05:44.000Z</time>
      </trkpt>
      <trkpt lat="40.363694" lon="-3.449558">
        <ele>620</ele>
        <time>1970-01-01T02:05:45.000Z</time>
      </trkpt>
      <trkpt lat="40.363696" lon="-3.449496">
        <ele>620.2</ele>
        <time>1970-01-01T02:05:46.000Z</time>
      </trkpt>
      <trkpt lat="40.363706" lon="-3.449436">
        <ele>620.4</ele>
        <time>1970-01-01T02:05:47.000Z</time>
      </trkpt>
      <trkpt lat="40.363718" lon="-3.449377">
        <ele>620.4</ele>
        <time>1970-01-01T02:05:48.000Z</time>
      </trkpt>
      <trkpt lat="40.363736" lon="-3.44932">
        <ele>620.4</ele>
        <time>1970-01-01T02:05:49.000Z</time>
      </trkpt>
      <trkpt lat="40.363755" lon="-3.449266">
        <ele>620.4</ele>
        <time>1970-01-01T02:05:50.000Z</time>
      </trkpt>
      <trkpt lat="40.363775" lon="-3.449211">
        <ele>620.4</ele>
        <time>1970-01-01T02:05:51.000Z</time>
      </trkpt>
      <trkpt lat="40.363796" lon="-3.449156">
        <ele>620.6</ele>
        <time>1970-01-01T02:05:52.000Z</time>
      </trkpt>
      <trkpt lat="40.363821" lon="-3.449102">
        <ele>620.6</ele>
        <time>1970-01-01T02:05:53.000Z</time>
      </trkpt>
      <trkpt lat="40.363847" lon="-3.44905">
        <ele>621.2</ele>
        <time>1970-01-01T02:05:54.000Z</time>
      </trkpt>
      <trkpt lat="40.363873" lon="-3.448997">
        <ele>621.2</ele>
        <time>1970-01-01T02:05:55.000Z</time>
      </trkpt>
      <trkpt lat="40.363897" lon="-3.448944">
        <ele>621.4</ele>
        <time>1970-01-01T02:05:56.000Z</time>
      </trkpt>
      <trkpt lat="40.363922" lon="-3.448891">
        <ele>621.4</ele>
        <time>1970-01-01T02:05:57.000Z</time>
      </trkpt>
      <trkpt lat="40.363949" lon="-3.448839">
        <ele>621.6</ele>
        <time>1970-01-01T02:05:58.000Z</time>
      </trkpt>
      <trkpt lat="40.363978" lon="-3.448792">
        <ele>621.6</ele>
        <time>1970-01-01T02:05:59.000Z</time>
      </trkpt>
      <trkpt lat="40.36401" lon="-3.448751">
        <ele>621.6</ele>
        <time>1970-01-01T02:06:00.000Z</time>
      </trkpt>
      <trkpt lat="40.364048" lon="-3.448714">
        <ele>621.6</ele>
        <time>1970-01-01T02:06:01.000Z</time>
      </trkpt>
      <trkpt lat="40.364085" lon="-3.448675">
        <ele>621.8</ele>
        <time>1970-01-01T02:06:02.000Z</time>
      </trkpt>
      <trkpt lat="40.36412" lon="-3.448633">
        <ele>622.2</ele>
        <time>1970-01-01T02:06:03.000Z</time>
      </trkpt>
      <trkpt lat="40.364154" lon="-3.448589">
        <ele>622.2</ele>
        <time>1970-01-01T02:06:04.000Z</time>
      </trkpt>
      <trkpt lat="40.364186" lon="-3.448546">
        <ele>622.4</ele>
        <time>1970-01-01T02:06:05.000Z</time>
      </trkpt>
      <trkpt lat="40.364217" lon="-3.448501">
        <ele>622.6</ele>
        <time>1970-01-01T02:06:06.000Z</time>
      </trkpt>
      <trkpt lat="40.364246" lon="-3.448455">
        <ele>622.8</ele>
        <time>1970-01-01T02:06:07.000Z</time>
      </trkpt>
      <trkpt lat="40.364273" lon="-3.448407">
        <ele>623</ele>
        <time>1970-01-01T02:06:08.000Z</time>
      </trkpt>
      <trkpt lat="40.364298" lon="-3.448355">
        <ele>623</ele>
        <time>1970-01-01T02:06:09.000Z</time>
      </trkpt>
      <trkpt lat="40.364324" lon="-3.448306">
        <ele>623</ele>
        <time>1970-01-01T02:06:10.000Z</time>
      </trkpt>
      <trkpt lat="40.364352" lon="-3.44826">
        <ele>623.4</ele>
        <time>1970-01-01T02:06:11.000Z</time>
      </trkpt>
      <trkpt lat="40.364383" lon="-3.448216">
        <ele>623.4</ele>
        <time>1970-01-01T02:06:12.000Z</time>
      </trkpt>
      <trkpt lat="40.364416" lon="-3.448176">
        <ele>623.6</ele>
        <time>1970-01-01T02:06:13.000Z</time>
      </trkpt>
      <trkpt lat="40.364451" lon="-3.448142">
        <ele>623.6</ele>
        <time>1970-01-01T02:06:14.000Z</time>
      </trkpt>
      <trkpt lat="40.364492" lon="-3.448114">
        <ele>623.8</ele>
        <time>1970-01-01T02:06:15.000Z</time>
      </trkpt>
      <trkpt lat="40.364531" lon="-3.448087">
        <ele>623.8</ele>
        <time>1970-01-01T02:06:16.000Z</time>
      </trkpt>
      <trkpt lat="40.36457" lon="-3.448061">
        <ele>624</ele>
        <time>1970-01-01T02:06:17.000Z</time>
      </trkpt>
      <trkpt lat="40.364607" lon="-3.448037">
        <ele>624.2</ele>
        <time>1970-01-01T02:06:18.000Z</time>
      </trkpt>
      <trkpt lat="40.36464" lon="-3.448007">
        <ele>624.4</ele>
        <time>1970-01-01T02:06:19.000Z</time>
      </trkpt>
      <trkpt lat="40.364669" lon="-3.44797">
        <ele>624.8</ele>
        <time>1970-01-01T02:06:20.000Z</time>
      </trkpt>
      <trkpt lat="40.364696" lon="-3.447928">
        <ele>625</ele>
        <time>1970-01-01T02:06:21.000Z</time>
      </trkpt>
      <trkpt lat="40.364725" lon="-3.447884">
        <ele>625.2</ele>
        <time>1970-01-01T02:06:22.000Z</time>
      </trkpt>
      <trkpt lat="40.364755" lon="-3.447841">
        <ele>625.4</ele>
        <time>1970-01-01T02:06:23.000Z</time>
      </trkpt>
      <trkpt lat="40.364787" lon="-3.4478">
        <ele>625.6</ele>
        <time>1970-01-01T02:06:24.000Z</time>
      </trkpt>
      <trkpt lat="40.364823" lon="-3.447765">
        <ele>625.8</ele>
        <time>1970-01-01T02:06:25.000Z</time>
      </trkpt>
      <trkpt lat="40.36486" lon="-3.447731">
        <ele>625.8</ele>
        <time>1970-01-01T02:06:26.000Z</time>
      </trkpt>
      <trkpt lat="40.364898" lon="-3.4477">
        <ele>626</ele>
        <time>1970-01-01T02:06:27.000Z</time>
      </trkpt>
      <trkpt lat="40.364937" lon="-3.44767">
        <ele>626</ele>
        <time>1970-01-01T02:06:28.000Z</time>
      </trkpt>
      <trkpt lat="40.364977" lon="-3.447641">
        <ele>626.2</ele>
        <time>1970-01-01T02:06:29.000Z</time>
      </trkpt>
      <trkpt lat="40.365016" lon="-3.447616">
        <ele>626.2</ele>
        <time>1970-01-01T02:06:30.000Z</time>
      </trkpt>
      <trkpt lat="40.365057" lon="-3.447593">
        <ele>626.4</ele>
        <time>1970-01-01T02:06:31.000Z</time>
      </trkpt>
      <trkpt lat="40.365097" lon="-3.447567">
        <ele>626.6</ele>
        <time>1970-01-01T02:06:32.000Z</time>
      </trkpt>
      <trkpt lat="40.365139" lon="-3.447544">
        <ele>626.6</ele>
        <time>1970-01-01T02:06:33.000Z</time>
      </trkpt>
      <trkpt lat="40.365182" lon="-3.447523">
        <ele>626.8</ele>
        <time>1970-01-01T02:06:34.000Z</time>
      </trkpt>
      <trkpt lat="40.365223" lon="-3.4475">
        <ele>626.8</ele>
        <time>1970-01-01T02:06:35.000Z</time>
      </trkpt>
      <trkpt lat="40.365262" lon="-3.447472">
        <ele>626.8</ele>
        <time>1970-01-01T02:06:36.000Z</time>
      </trkpt>
      <trkpt lat="40.3653" lon="-3.447436">
        <ele>627</ele>
        <time>1970-01-01T02:06:37.000Z</time>
      </trkpt>
      <trkpt lat="40.365334" lon="-3.447393">
        <ele>627</ele>
        <time>1970-01-01T02:06:38.000Z</time>
      </trkpt>
      <trkpt lat="40.365367" lon="-3.447348">
        <ele>627.2</ele>
        <time>1970-01-01T02:06:39.000Z</time>
      </trkpt>
      <trkpt lat="40.365405" lon="-3.447309">
        <ele>627.2</ele>
        <time>1970-01-01T02:06:40.000Z</time>
      </trkpt>
      <trkpt lat="40.365449" lon="-3.447278">
        <ele>627.4</ele>
        <time>1970-01-01T02:06:41.000Z</time>
      </trkpt>
      <trkpt lat="40.365491" lon="-3.447247">
        <ele>627.4</ele>
        <time>1970-01-01T02:06:42.000Z</time>
      </trkpt>
      <trkpt lat="40.365533" lon="-3.447216">
        <ele>627.6</ele>
        <time>1970-01-01T02:06:43.000Z</time>
      </trkpt>
      <trkpt lat="40.365569" lon="-3.447182">
        <ele>627.6</ele>
        <time>1970-01-01T02:06:44.000Z</time>
      </trkpt>
      <trkpt lat="40.365604" lon="-3.447144">
        <ele>627.6</ele>
        <time>1970-01-01T02:06:45.000Z</time>
      </trkpt>
      <trkpt lat="40.365639" lon="-3.447099">
        <ele>627.8</ele>
        <time>1970-01-01T02:06:46.000Z</time>
      </trkpt>
      <trkpt lat="40.365673" lon="-3.447052">
        <ele>627.8</ele>
        <time>1970-01-01T02:06:47.000Z</time>
      </trkpt>
      <trkpt lat="40.365706" lon="-3.447006">
        <ele>628</ele>
        <time>1970-01-01T02:06:48.000Z</time>
      </trkpt>
      <trkpt lat="40.365737" lon="-3.446961">
        <ele>628</ele>
        <time>1970-01-01T02:06:49.000Z</time>
      </trkpt>
      <trkpt lat="40.365771" lon="-3.446915">
        <ele>628.2</ele>
        <time>1970-01-01T02:06:50.000Z</time>
      </trkpt>
      <trkpt lat="40.365805" lon="-3.44687">
        <ele>628.2</ele>
        <time>1970-01-01T02:06:51.000Z</time>
      </trkpt>
      <trkpt lat="40.36584" lon="-3.446824">
        <ele>628.4</ele>
        <time>1970-01-01T02:06:52.000Z</time>
      </trkpt>
      <trkpt lat="40.365875" lon="-3.446778">
        <ele>628.4</ele>
        <time>1970-01-01T02:06:53.000Z</time>
      </trkpt>
      <trkpt lat="40.36591" lon="-3.44673">
        <ele>628.4</ele>
        <time>1970-01-01T02:06:54.000Z</time>
      </trkpt>
      <trkpt lat="40.365947" lon="-3.446681">
        <ele>628.4</ele>
        <time>1970-01-01T02:06:55.000Z</time>
      </trkpt>
      <trkpt lat="40.365981" lon="-3.44663">
        <ele>628.6</ele>
        <time>1970-01-01T02:06:56.000Z</time>
      </trkpt>
      <trkpt lat="40.366015" lon="-3.446579">
        <ele>628.6</ele>
        <time>1970-01-01T02:06:57.000Z</time>
      </trkpt>
      <trkpt lat="40.366049" lon="-3.446529">
        <ele>628.6</ele>
        <time>1970-01-01T02:06:58.000Z</time>
      </trkpt>
      <trkpt lat="40.366083" lon="-3.44648">
        <ele>628.6</ele>
        <time>1970-01-01T02:06:59.000Z</time>
      </trkpt>
      <trkpt lat="40.366116" lon="-3.446434">
        <ele>628.8</ele>
        <time>1970-01-01T02:07:00.000Z</time>
      </trkpt>
      <trkpt lat="40.366149" lon="-3.446389">
        <ele>629</ele>
        <time>1970-01-01T02:07:01.000Z</time>
      </trkpt>
      <trkpt lat="40.366184" lon="-3.446348">
        <ele>629</ele>
        <time>1970-01-01T02:07:02.000Z</time>
      </trkpt>
      <trkpt lat="40.366218" lon="-3.446305">
        <ele>629.2</ele>
        <time>1970-01-01T02:07:03.000Z</time>
      </trkpt>
      <trkpt lat="40.366254" lon="-3.446262">
        <ele>629.6</ele>
        <time>1970-01-01T02:07:04.000Z</time>
      </trkpt>
      <trkpt lat="40.366286" lon="-3.446218">
        <ele>629.8</ele>
        <time>1970-01-01T02:07:05.000Z</time>
      </trkpt>
      <trkpt lat="40.36632" lon="-3.446172">
        <ele>630</ele>
        <time>1970-01-01T02:07:06.000Z</time>
      </trkpt>
      <trkpt lat="40.366353" lon="-3.446123">
        <ele>630.4</ele>
        <time>1970-01-01T02:07:07.000Z</time>
      </trkpt>
      <trkpt lat="40.366385" lon="-3.446071">
        <ele>630.6</ele>
        <time>1970-01-01T02:07:08.000Z</time>
      </trkpt>
      <trkpt lat="40.366415" lon="-3.446018">
        <ele>630.8</ele>
        <time>1970-01-01T02:07:09.000Z</time>
      </trkpt>
      <trkpt lat="40.366444" lon="-3.445966">
        <ele>630.8</ele>
        <time>1970-01-01T02:07:10.000Z</time>
      </trkpt>
      <trkpt lat="40.366472" lon="-3.445912">
        <ele>631</ele>
        <time>1970-01-01T02:07:11.000Z</time>
      </trkpt>
      <trkpt lat="40.366501" lon="-3.445857">
        <ele>631.2</ele>
        <time>1970-01-01T02:07:12.000Z</time>
      </trkpt>
      <trkpt lat="40.366527" lon="-3.445801">
        <ele>631.2</ele>
        <time>1970-01-01T02:07:13.000Z</time>
      </trkpt>
      <trkpt lat="40.366554" lon="-3.445746">
        <ele>631.4</ele>
        <time>1970-01-01T02:07:14.000Z</time>
      </trkpt>
      <trkpt lat="40.366579" lon="-3.445691">
        <ele>631.4</ele>
        <time>1970-01-01T02:07:15.000Z</time>
      </trkpt>
      <trkpt lat="40.366601" lon="-3.445635">
        <ele>631.4</ele>
        <time>1970-01-01T02:07:16.000Z</time>
      </trkpt>
      <trkpt lat="40.366623" lon="-3.44558">
        <ele>631.4</ele>
        <time>1970-01-01T02:07:17.000Z</time>
      </trkpt>
      <trkpt lat="40.366646" lon="-3.445524">
        <ele>631.8</ele>
        <time>1970-01-01T02:07:18.000Z</time>
      </trkpt>
      <trkpt lat="40.36667" lon="-3.44547">
        <ele>631.8</ele>
        <time>1970-01-01T02:07:19.000Z</time>
      </trkpt>
      <trkpt lat="40.366696" lon="-3.445416">
        <ele>632</ele>
        <time>1970-01-01T02:07:20.000Z</time>
      </trkpt>
      <trkpt lat="40.36672" lon="-3.44536">
        <ele>632.2</ele>
        <time>1970-01-01T02:07:21.000Z</time>
      </trkpt>
      <trkpt lat="40.366745" lon="-3.445303">
        <ele>632.4</ele>
        <time>1970-01-01T02:07:22.000Z</time>
      </trkpt>
      <trkpt lat="40.366771" lon="-3.445245">
        <ele>632.6</ele>
        <time>1970-01-01T02:07:23.000Z</time>
      </trkpt>
      <trkpt lat="40.366795" lon="-3.445188">
        <ele>632.8</ele>
        <time>1970-01-01T02:07:24.000Z</time>
      </trkpt>
      <trkpt lat="40.366821" lon="-3.445133">
        <ele>633.2</ele>
        <time>1970-01-01T02:07:25.000Z</time>
      </trkpt>
      <trkpt lat="40.366849" lon="-3.445079">
        <ele>633.4</ele>
        <time>1970-01-01T02:07:26.000Z</time>
      </trkpt>
      <trkpt lat="40.366877" lon="-3.445026">
        <ele>633.6</ele>
        <time>1970-01-01T02:07:27.000Z</time>
      </trkpt>
      <trkpt lat="40.366907" lon="-3.444973">
        <ele>633.6</ele>
        <time>1970-01-01T02:07:28.000Z</time>
      </trkpt>
      <trkpt lat="40.366939" lon="-3.44492">
        <ele>633.6</ele>
        <time>1970-01-01T02:07:29.000Z</time>
      </trkpt>
      <trkpt lat="40.366968" lon="-3.444867">
        <ele>633.8</ele>
        <time>1970-01-01T02:07:30.000Z</time>
      </trkpt>
      <trkpt lat="40.366997" lon="-3.44481">
        <ele>633.8</ele>
        <time>1970-01-01T02:07:31.000Z</time>
      </trkpt>
      <trkpt lat="40.367028" lon="-3.444749">
        <ele>634</ele>
        <time>1970-01-01T02:07:32.000Z</time>
      </trkpt>
      <trkpt lat="40.367063" lon="-3.444687">
        <ele>634</ele>
        <time>1970-01-01T02:07:33.000Z</time>
      </trkpt>
      <trkpt lat="40.367098" lon="-3.444626">
        <ele>634</ele>
        <time>1970-01-01T02:07:34.000Z</time>
      </trkpt>
      <trkpt lat="40.367134" lon="-3.444567">
        <ele>634</ele>
        <time>1970-01-01T02:07:35.000Z</time>
      </trkpt>
      <trkpt lat="40.367168" lon="-3.444508">
        <ele>634</ele>
        <time>1970-01-01T02:07:36.000Z</time>
      </trkpt>
      <trkpt lat="40.367202" lon="-3.444452">
        <ele>634.2</ele>
        <time>1970-01-01T02:07:37.000Z</time>
      </trkpt>
      <trkpt lat="40.367235" lon="-3.444397">
        <ele>634.2</ele>
        <time>1970-01-01T02:07:38.000Z</time>
      </trkpt>
      <trkpt lat="40.367265" lon="-3.444342">
        <ele>634.4</ele>
        <time>1970-01-01T02:07:39.000Z</time>
      </trkpt>
      <trkpt lat="40.367298" lon="-3.444291">
        <ele>634.6</ele>
        <time>1970-01-01T02:07:40.000Z</time>
      </trkpt>
      <trkpt lat="40.367328" lon="-3.44424">
        <ele>634.6</ele>
        <time>1970-01-01T02:07:41.000Z</time>
      </trkpt>
      <trkpt lat="40.367358" lon="-3.444188">
        <ele>634.8</ele>
        <time>1970-01-01T02:07:42.000Z</time>
      </trkpt>
      <trkpt lat="40.367387" lon="-3.444137">
        <ele>635.2</ele>
        <time>1970-01-01T02:07:43.000Z</time>
      </trkpt>
      <trkpt lat="40.367413" lon="-3.444086">
        <ele>635.4</ele>
        <time>1970-01-01T02:07:44.000Z</time>
      </trkpt>
      <trkpt lat="40.367438" lon="-3.444031">
        <ele>635.4</ele>
        <time>1970-01-01T02:07:45.000Z</time>
      </trkpt>
      <trkpt lat="40.367463" lon="-3.443974">
        <ele>636</ele>
        <time>1970-01-01T02:07:46.000Z</time>
      </trkpt>
      <trkpt lat="40.367487" lon="-3.443914">
        <ele>636.2</ele>
        <time>1970-01-01T02:07:47.000Z</time>
      </trkpt>
      <trkpt lat="40.367509" lon="-3.443851">
        <ele>636.2</ele>
        <time>1970-01-01T02:07:48.000Z</time>
      </trkpt>
      <trkpt lat="40.367531" lon="-3.443785">
        <ele>636.2</ele>
        <time>1970-01-01T02:07:49.000Z</time>
      </trkpt>
      <trkpt lat="40.367555" lon="-3.443716">
        <ele>636.2</ele>
        <time>1970-01-01T02:07:50.000Z</time>
      </trkpt>
      <trkpt lat="40.367582" lon="-3.443649">
        <ele>636.4</ele>
        <time>1970-01-01T02:07:51.000Z</time>
      </trkpt>
      <trkpt lat="40.367611" lon="-3.443581">
        <ele>636.4</ele>
        <time>1970-01-01T02:07:52.000Z</time>
      </trkpt>
      <trkpt lat="40.367646" lon="-3.443514">
        <ele>636.4</ele>
        <time>1970-01-01T02:07:53.000Z</time>
      </trkpt>
      <trkpt lat="40.367684" lon="-3.443449">
        <ele>636.2</ele>
        <time>1970-01-01T02:07:54.000Z</time>
      </trkpt>
      <trkpt lat="40.367725" lon="-3.443383">
        <ele>636</ele>
        <time>1970-01-01T02:07:55.000Z</time>
      </trkpt>
      <trkpt lat="40.367768" lon="-3.443322">
        <ele>636</ele>
        <time>1970-01-01T02:07:56.000Z</time>
      </trkpt>
      <trkpt lat="40.367813" lon="-3.443262">
        <ele>636</ele>
        <time>1970-01-01T02:07:57.000Z</time>
      </trkpt>
      <trkpt lat="40.367852" lon="-3.443195">
        <ele>636.2</ele>
        <time>1970-01-01T02:07:58.000Z</time>
      </trkpt>
      <trkpt lat="40.367886" lon="-3.443123">
        <ele>636.2</ele>
        <time>1970-01-01T02:07:59.000Z</time>
      </trkpt>
      <trkpt lat="40.367919" lon="-3.443048">
        <ele>636.2</ele>
        <time>1970-01-01T02:08:00.000Z</time>
      </trkpt>
      <trkpt lat="40.367953" lon="-3.442976">
        <ele>636</ele>
        <time>1970-01-01T02:08:01.000Z</time>
      </trkpt>
      <trkpt lat="40.367986" lon="-3.442904">
        <ele>636</ele>
        <time>1970-01-01T02:08:02.000Z</time>
      </trkpt>
      <trkpt lat="40.36802" lon="-3.442831">
        <ele>635.8</ele>
        <time>1970-01-01T02:08:03.000Z</time>
      </trkpt>
      <trkpt lat="40.368055" lon="-3.442759">
        <ele>635.8</ele>
        <time>1970-01-01T02:08:04.000Z</time>
      </trkpt>
      <trkpt lat="40.368092" lon="-3.442686">
        <ele>635.4</ele>
        <time>1970-01-01T02:08:05.000Z</time>
      </trkpt>
      <trkpt lat="40.368127" lon="-3.44261">
        <ele>635.4</ele>
        <time>1970-01-01T02:08:06.000Z</time>
      </trkpt>
      <trkpt lat="40.368163" lon="-3.442533">
        <ele>635.2</ele>
        <time>1970-01-01T02:08:07.000Z</time>
      </trkpt>
      <trkpt lat="40.368202" lon="-3.442456">
        <ele>635</ele>
        <time>1970-01-01T02:08:08.000Z</time>
      </trkpt>
      <trkpt lat="40.368244" lon="-3.442382">
        <ele>635</ele>
        <time>1970-01-01T02:08:09.000Z</time>
      </trkpt>
      <trkpt lat="40.368288" lon="-3.442312">
        <ele>634.8</ele>
        <time>1970-01-01T02:08:10.000Z</time>
      </trkpt>
      <trkpt lat="40.368332" lon="-3.442243">
        <ele>634.8</ele>
        <time>1970-01-01T02:08:11.000Z</time>
      </trkpt>
      <trkpt lat="40.368376" lon="-3.442175">
        <ele>634.8</ele>
        <time>1970-01-01T02:08:12.000Z</time>
      </trkpt>
      <trkpt lat="40.368416" lon="-3.442103">
        <ele>634.6</ele>
        <time>1970-01-01T02:08:13.000Z</time>
      </trkpt>
      <trkpt lat="40.368445" lon="-3.442024">
        <ele>634.6</ele>
        <time>1970-01-01T02:08:14.000Z</time>
      </trkpt>
      <trkpt lat="40.368466" lon="-3.441939">
        <ele>634.6</ele>
        <time>1970-01-01T02:08:15.000Z</time>
      </trkpt>
      <trkpt lat="40.368484" lon="-3.441853">
        <ele>634.4</ele>
        <time>1970-01-01T02:08:16.000Z</time>
      </trkpt>
      <trkpt lat="40.368506" lon="-3.441768">
        <ele>634.2</ele>
        <time>1970-01-01T02:08:17.000Z</time>
      </trkpt>
      <trkpt lat="40.368531" lon="-3.441685">
        <ele>634.2</ele>
        <time>1970-01-01T02:08:18.000Z</time>
      </trkpt>
      <trkpt lat="40.368556" lon="-3.4416">
        <ele>634.4</ele>
        <time>1970-01-01T02:08:19.000Z</time>
      </trkpt>
      <trkpt lat="40.368586" lon="-3.441518">
        <ele>634.4</ele>
        <time>1970-01-01T02:08:20.000Z</time>
      </trkpt>
      <trkpt lat="40.368616" lon="-3.441438">
        <ele>634.4</ele>
        <time>1970-01-01T02:08:21.000Z</time>
      </trkpt>
      <trkpt lat="40.368646" lon="-3.441355">
        <ele>634.6</ele>
        <time>1970-01-01T02:08:22.000Z</time>
      </trkpt>
      <trkpt lat="40.368675" lon="-3.441271">
        <ele>634.6</ele>
        <time>1970-01-01T02:08:23.000Z</time>
      </trkpt>
      <trkpt lat="40.368703" lon="-3.441185">
        <ele>634.4</ele>
        <time>1970-01-01T02:08:24.000Z</time>
      </trkpt>
      <trkpt lat="40.368731" lon="-3.4411">
        <ele>634.4</ele>
        <time>1970-01-01T02:08:25.000Z</time>
      </trkpt>
      <trkpt lat="40.36876" lon="-3.441018">
        <ele>634.4</ele>
        <time>1970-01-01T02:08:26.000Z</time>
      </trkpt>
      <trkpt lat="40.36879" lon="-3.440937">
        <ele>634.4</ele>
        <time>1970-01-01T02:08:27.000Z</time>
      </trkpt>
      <trkpt lat="40.36882" lon="-3.440855">
        <ele>634.4</ele>
        <time>1970-01-01T02:08:28.000Z</time>
      </trkpt>
      <trkpt lat="40.368844" lon="-3.440772">
        <ele>634.4</ele>
        <time>1970-01-01T02:08:29.000Z</time>
      </trkpt>
      <trkpt lat="40.368868" lon="-3.44069">
        <ele>634.4</ele>
        <time>1970-01-01T02:08:30.000Z</time>
      </trkpt>
      <trkpt lat="40.368891" lon="-3.440609">
        <ele>634.4</ele>
        <time>1970-01-01T02:08:31.000Z</time>
      </trkpt>
      <trkpt lat="40.368916" lon="-3.44053">
        <ele>634.4</ele>
        <time>1970-01-01T02:08:32.000Z</time>
      </trkpt>
      <trkpt lat="40.368943" lon="-3.440454">
        <ele>634.6</ele>
        <time>1970-01-01T02:08:33.000Z</time>
      </trkpt>
      <trkpt lat="40.368971" lon="-3.440377">
        <ele>634.6</ele>
        <time>1970-01-01T02:08:34.000Z</time>
      </trkpt>
      <trkpt lat="40.368997" lon="-3.440299">
        <ele>634.6</ele>
        <time>1970-01-01T02:08:35.000Z</time>
      </trkpt>
      <trkpt lat="40.369023" lon="-3.440218">
        <ele>634.8</ele>
        <time>1970-01-01T02:08:36.000Z</time>
      </trkpt>
      <trkpt lat="40.369051" lon="-3.440138">
        <ele>635</ele>
        <time>1970-01-01T02:08:37.000Z</time>
      </trkpt>
      <trkpt lat="40.369079" lon="-3.440056">
        <ele>635.2</ele>
        <time>1970-01-01T02:08:38.000Z</time>
      </trkpt>
      <trkpt lat="40.369103" lon="-3.439973">
        <ele>635.2</ele>
        <time>1970-01-01T02:08:39.000Z</time>
      </trkpt>
      <trkpt lat="40.369128" lon="-3.439892">
        <ele>635.4</ele>
        <time>1970-01-01T02:08:40.000Z</time>
      </trkpt>
      <trkpt lat="40.369157" lon="-3.439813">
        <ele>635.6</ele>
        <time>1970-01-01T02:08:41.000Z</time>
      </trkpt>
      <trkpt lat="40.36919" lon="-3.439735">
        <ele>635.6</ele>
        <time>1970-01-01T02:08:42.000Z</time>
      </trkpt>
      <trkpt lat="40.369221" lon="-3.439659">
        <ele>635.6</ele>
        <time>1970-01-01T02:08:43.000Z</time>
      </trkpt>
      <trkpt lat="40.369246" lon="-3.43958">
        <ele>635.6</ele>
        <time>1970-01-01T02:08:44.000Z</time>
      </trkpt>
      <trkpt lat="40.369267" lon="-3.439501">
        <ele>635.6</ele>
        <time>1970-01-01T02:08:45.000Z</time>
      </trkpt>
      <trkpt lat="40.369293" lon="-3.439422">
        <ele>635.6</ele>
        <time>1970-01-01T02:08:46.000Z</time>
      </trkpt>
      <trkpt lat="40.369325" lon="-3.439349">
        <ele>635.6</ele>
        <time>1970-01-01T02:08:47.000Z</time>
      </trkpt>
      <trkpt lat="40.369358" lon="-3.439275">
        <ele>635.8</ele>
        <time>1970-01-01T02:08:48.000Z</time>
      </trkpt>
      <trkpt lat="40.369385" lon="-3.439198">
        <ele>635.8</ele>
        <time>1970-01-01T02:08:49.000Z</time>
      </trkpt>
      <trkpt lat="40.369412" lon="-3.439124">
        <ele>635.8</ele>
        <time>1970-01-01T02:08:50.000Z</time>
      </trkpt>
      <trkpt lat="40.36944" lon="-3.439054">
        <ele>636</ele>
        <time>1970-01-01T02:08:51.000Z</time>
      </trkpt>
      <trkpt lat="40.369462" lon="-3.438978">
        <ele>636.2</ele>
        <time>1970-01-01T02:08:52.000Z</time>
      </trkpt>
      <trkpt lat="40.369484" lon="-3.438903">
        <ele>636.2</ele>
        <time>1970-01-01T02:08:53.000Z</time>
      </trkpt>
      <trkpt lat="40.369504" lon="-3.438828">
        <ele>636.2</ele>
        <time>1970-01-01T02:08:54.000Z</time>
      </trkpt>
      <trkpt lat="40.369523" lon="-3.438755">
        <ele>636.4</ele>
        <time>1970-01-01T02:08:55.000Z</time>
      </trkpt>
      <trkpt lat="40.369538" lon="-3.438681">
        <ele>636.6</ele>
        <time>1970-01-01T02:08:56.000Z</time>
      </trkpt>
      <trkpt lat="40.369553" lon="-3.438607">
        <ele>636.8</ele>
        <time>1970-01-01T02:08:57.000Z</time>
      </trkpt>
      <trkpt lat="40.369566" lon="-3.438534">
        <ele>637</ele>
        <time>1970-01-01T02:08:58.000Z</time>
      </trkpt>
      <trkpt lat="40.369577" lon="-3.438461">
        <ele>637.2</ele>
        <time>1970-01-01T02:08:59.000Z</time>
      </trkpt>
      <trkpt lat="40.369584" lon="-3.438389">
        <ele>637.2</ele>
        <time>1970-01-01T02:09:00.000Z</time>
      </trkpt>
      <trkpt lat="40.369592" lon="-3.438319">
        <ele>637.2</ele>
        <time>1970-01-01T02:09:01.000Z</time>
      </trkpt>
      <trkpt lat="40.369598" lon="-3.438247">
        <ele>637.2</ele>
        <time>1970-01-01T02:09:02.000Z</time>
      </trkpt>
      <trkpt lat="40.369606" lon="-3.438175">
        <ele>637.2</ele>
        <time>1970-01-01T02:09:03.000Z</time>
      </trkpt>
      <trkpt lat="40.369616" lon="-3.438103">
        <ele>637.2</ele>
        <time>1970-01-01T02:09:04.000Z</time>
      </trkpt>
      <trkpt lat="40.369625" lon="-3.438029">
        <ele>637.4</ele>
        <time>1970-01-01T02:09:05.000Z</time>
      </trkpt>
      <trkpt lat="40.369635" lon="-3.437958">
        <ele>637.4</ele>
        <time>1970-01-01T02:09:06.000Z</time>
      </trkpt>
      <trkpt lat="40.369644" lon="-3.437886">
        <ele>637.4</ele>
        <time>1970-01-01T02:09:07.000Z</time>
      </trkpt>
      <trkpt lat="40.369651" lon="-3.437816">
        <ele>637.6</ele>
        <time>1970-01-01T02:09:08.000Z</time>
      </trkpt>
      <trkpt lat="40.369657" lon="-3.437746">
        <ele>637.6</ele>
        <time>1970-01-01T02:09:09.000Z</time>
      </trkpt>
      <trkpt lat="40.369662" lon="-3.437678">
        <ele>637.6</ele>
        <time>1970-01-01T02:09:10.000Z</time>
      </trkpt>
      <trkpt lat="40.369668" lon="-3.437609">
        <ele>637.8</ele>
        <time>1970-01-01T02:09:11.000Z</time>
      </trkpt>
      <trkpt lat="40.369675" lon="-3.437536">
        <ele>638</ele>
        <time>1970-01-01T02:09:12.000Z</time>
      </trkpt>
      <trkpt lat="40.36968" lon="-3.437466">
        <ele>638.2</ele>
        <time>1970-01-01T02:09:13.000Z</time>
      </trkpt>
      <trkpt lat="40.369689" lon="-3.437398">
        <ele>638.2</ele>
        <time>1970-01-01T02:09:14.000Z</time>
      </trkpt>
      <trkpt lat="40.369697" lon="-3.437327">
        <ele>638.4</ele>
        <time>1970-01-01T02:09:15.000Z</time>
      </trkpt>
      <trkpt lat="40.369707" lon="-3.437257">
        <ele>638.6</ele>
        <time>1970-01-01T02:09:16.000Z</time>
      </trkpt>
      <trkpt lat="40.369717" lon="-3.437187">
        <ele>638.6</ele>
        <time>1970-01-01T02:09:17.000Z</time>
      </trkpt>
      <trkpt lat="40.369729" lon="-3.437117">
        <ele>638.6</ele>
        <time>1970-01-01T02:09:18.000Z</time>
      </trkpt>
      <trkpt lat="40.369743" lon="-3.437048">
        <ele>638.8</ele>
        <time>1970-01-01T02:09:19.000Z</time>
      </trkpt>
      <trkpt lat="40.369754" lon="-3.436979">
        <ele>638.8</ele>
        <time>1970-01-01T02:09:20.000Z</time>
      </trkpt>
      <trkpt lat="40.369765" lon="-3.436909">
        <ele>639</ele>
        <time>1970-01-01T02:09:21.000Z</time>
      </trkpt>
      <trkpt lat="40.369779" lon="-3.436843">
        <ele>639</ele>
        <time>1970-01-01T02:09:22.000Z</time>
      </trkpt>
      <trkpt lat="40.369794" lon="-3.436777">
        <ele>639</ele>
        <time>1970-01-01T02:09:23.000Z</time>
      </trkpt>
      <trkpt lat="40.36981" lon="-3.436712">
        <ele>639</ele>
        <time>1970-01-01T02:09:24.000Z</time>
      </trkpt>
      <trkpt lat="40.369823" lon="-3.436647">
        <ele>639</ele>
        <time>1970-01-01T02:09:25.000Z</time>
      </trkpt>
      <trkpt lat="40.369835" lon="-3.436581">
        <ele>639</ele>
        <time>1970-01-01T02:09:26.000Z</time>
      </trkpt>
      <trkpt lat="40.369843" lon="-3.436518">
        <ele>639.2</ele>
        <time>1970-01-01T02:09:27.000Z</time>
      </trkpt>
      <trkpt lat="40.369846" lon="-3.43645">
        <ele>639.4</ele>
        <time>1970-01-01T02:09:28.000Z</time>
      </trkpt>
      <trkpt lat="40.36985" lon="-3.436381">
        <ele>639.4</ele>
        <time>1970-01-01T02:09:29.000Z</time>
      </trkpt>
      <trkpt lat="40.369853" lon="-3.436314">
        <ele>639.4</ele>
        <time>1970-01-01T02:09:30.000Z</time>
      </trkpt>
      <trkpt lat="40.369852" lon="-3.436248">
        <ele>639.6</ele>
        <time>1970-01-01T02:09:31.000Z</time>
      </trkpt>
      <trkpt lat="40.369849" lon="-3.436182">
        <ele>640</ele>
        <time>1970-01-01T02:09:32.000Z</time>
      </trkpt>
      <trkpt lat="40.369849" lon="-3.436119">
        <ele>640</ele>
        <time>1970-01-01T02:09:33.000Z</time>
      </trkpt>
      <trkpt lat="40.369857" lon="-3.436055">
        <ele>640.2</ele>
        <time>1970-01-01T02:09:34.000Z</time>
      </trkpt>
      <trkpt lat="40.369871" lon="-3.435991">
        <ele>640.4</ele>
        <time>1970-01-01T02:09:35.000Z</time>
      </trkpt>
      <trkpt lat="40.369884" lon="-3.435926">
        <ele>640.4</ele>
        <time>1970-01-01T02:09:36.000Z</time>
      </trkpt>
      <trkpt lat="40.369895" lon="-3.435858">
        <ele>640.6</ele>
        <time>1970-01-01T02:09:37.000Z</time>
      </trkpt>
      <trkpt lat="40.369906" lon="-3.435794">
        <ele>640.6</ele>
        <time>1970-01-01T02:09:38.000Z</time>
      </trkpt>
      <trkpt lat="40.369921" lon="-3.43573">
        <ele>641</ele>
        <time>1970-01-01T02:09:39.000Z</time>
      </trkpt>
      <trkpt lat="40.369939" lon="-3.435668">
        <ele>641.2</ele>
        <time>1970-01-01T02:09:40.000Z</time>
      </trkpt>
      <trkpt lat="40.369955" lon="-3.435605">
        <ele>641.8</ele>
        <time>1970-01-01T02:09:41.000Z</time>
      </trkpt>
      <trkpt lat="40.369977" lon="-3.435546">
        <ele>642</ele>
        <time>1970-01-01T02:09:42.000Z</time>
      </trkpt>
      <trkpt lat="40.37" lon="-3.435488">
        <ele>642</ele>
        <time>1970-01-01T02:09:43.000Z</time>
      </trkpt>
      <trkpt lat="40.370023" lon="-3.43543">
        <ele>642.4</ele>
        <time>1970-01-01T02:09:44.000Z</time>
      </trkpt>
      <trkpt lat="40.370044" lon="-3.435373">
        <ele>642.4</ele>
        <time>1970-01-01T02:09:45.000Z</time>
      </trkpt>
      <trkpt lat="40.370066" lon="-3.435317">
        <ele>642.8</ele>
        <time>1970-01-01T02:09:46.000Z</time>
      </trkpt>
      <trkpt lat="40.370089" lon="-3.435261">
        <ele>642.8</ele>
        <time>1970-01-01T02:09:47.000Z</time>
      </trkpt>
      <trkpt lat="40.370112" lon="-3.435205">
        <ele>642.8</ele>
        <time>1970-01-01T02:09:48.000Z</time>
      </trkpt>
      <trkpt lat="40.370135" lon="-3.435149">
        <ele>643.4</ele>
        <time>1970-01-01T02:09:49.000Z</time>
      </trkpt>
      <trkpt lat="40.370159" lon="-3.435095">
        <ele>643.6</ele>
        <time>1970-01-01T02:09:50.000Z</time>
      </trkpt>
      <trkpt lat="40.370185" lon="-3.435042">
        <ele>643.8</ele>
        <time>1970-01-01T02:09:51.000Z</time>
      </trkpt>
      <trkpt lat="40.370212" lon="-3.434989">
        <ele>643.8</ele>
        <time>1970-01-01T02:09:52.000Z</time>
      </trkpt>
      <trkpt lat="40.370241" lon="-3.434937">
        <ele>644</ele>
        <time>1970-01-01T02:09:53.000Z</time>
      </trkpt>
      <trkpt lat="40.370271" lon="-3.434886">
        <ele>644</ele>
        <time>1970-01-01T02:09:54.000Z</time>
      </trkpt>
      <trkpt lat="40.370301" lon="-3.434831">
        <ele>644</ele>
        <time>1970-01-01T02:09:55.000Z</time>
      </trkpt>
      <trkpt lat="40.370329" lon="-3.434775">
        <ele>644</ele>
        <time>1970-01-01T02:09:56.000Z</time>
      </trkpt>
      <trkpt lat="40.370355" lon="-3.434718">
        <ele>644</ele>
        <time>1970-01-01T02:09:57.000Z</time>
      </trkpt>
      <trkpt lat="40.37038" lon="-3.43466">
        <ele>644</ele>
        <time>1970-01-01T02:09:58.000Z</time>
      </trkpt>
      <trkpt lat="40.370404" lon="-3.434601">
        <ele>644</ele>
        <time>1970-01-01T02:09:59.000Z</time>
      </trkpt>
      <trkpt lat="40.370429" lon="-3.434544">
        <ele>644.2</ele>
        <time>1970-01-01T02:10:00.000Z</time>
      </trkpt>
      <trkpt lat="40.370453" lon="-3.434484">
        <ele>644.4</ele>
        <time>1970-01-01T02:10:01.000Z</time>
      </trkpt>
      <trkpt lat="40.370477" lon="-3.43442">
        <ele>644.4</ele>
        <time>1970-01-01T02:10:02.000Z</time>
      </trkpt>
      <trkpt lat="40.370501" lon="-3.434354">
        <ele>644.6</ele>
        <time>1970-01-01T02:10:03.000Z</time>
      </trkpt>
      <trkpt lat="40.370523" lon="-3.434286">
        <ele>644.6</ele>
        <time>1970-01-01T02:10:04.000Z</time>
      </trkpt>
      <trkpt lat="40.370544" lon="-3.434215">
        <ele>644.8</ele>
        <time>1970-01-01T02:10:05.000Z</time>
      </trkpt>
      <trkpt lat="40.370565" lon="-3.434145">
        <ele>644.8</ele>
        <time>1970-01-01T02:10:06.000Z</time>
      </trkpt>
      <trkpt lat="40.370586" lon="-3.434074">
        <ele>644.8</ele>
        <time>1970-01-01T02:10:07.000Z</time>
      </trkpt>
      <trkpt lat="40.370605" lon="-3.434001">
        <ele>644.6</ele>
        <time>1970-01-01T02:10:08.000Z</time>
      </trkpt>
      <trkpt lat="40.370622" lon="-3.43393">
        <ele>644.6</ele>
        <time>1970-01-01T02:10:09.000Z</time>
      </trkpt>
      <trkpt lat="40.370639" lon="-3.433856">
        <ele>644.6</ele>
        <time>1970-01-01T02:10:10.000Z</time>
      </trkpt>
      <trkpt lat="40.370656" lon="-3.433784">
        <ele>644.6</ele>
        <time>1970-01-01T02:10:11.000Z</time>
      </trkpt>
      <trkpt lat="40.370674" lon="-3.433715">
        <ele>644.6</ele>
        <time>1970-01-01T02:10:12.000Z</time>
      </trkpt>
      <trkpt lat="40.370694" lon="-3.433651">
        <ele>644.6</ele>
        <time>1970-01-01T02:10:13.000Z</time>
      </trkpt>
      <trkpt lat="40.370716" lon="-3.433588">
        <ele>644.6</ele>
        <time>1970-01-01T02:10:14.000Z</time>
      </trkpt>
      <trkpt lat="40.370738" lon="-3.433523">
        <ele>644.6</ele>
        <time>1970-01-01T02:10:15.000Z</time>
      </trkpt>
      <trkpt lat="40.370759" lon="-3.43346">
        <ele>644.6</ele>
        <time>1970-01-01T02:10:16.000Z</time>
      </trkpt>
      <trkpt lat="40.370781" lon="-3.433399">
        <ele>644.8</ele>
        <time>1970-01-01T02:10:17.000Z</time>
      </trkpt>
      <trkpt lat="40.370801" lon="-3.433339">
        <ele>645</ele>
        <time>1970-01-01T02:10:18.000Z</time>
      </trkpt>
      <trkpt lat="40.370821" lon="-3.433277">
        <ele>645</ele>
        <time>1970-01-01T02:10:19.000Z</time>
      </trkpt>
      <trkpt lat="40.370841" lon="-3.433215">
        <ele>645</ele>
        <time>1970-01-01T02:10:20.000Z</time>
      </trkpt>
      <trkpt lat="40.370859" lon="-3.433153">
        <ele>645.2</ele>
        <time>1970-01-01T02:10:21.000Z</time>
      </trkpt>
      <trkpt lat="40.370877" lon="-3.433089">
        <ele>645.2</ele>
        <time>1970-01-01T02:10:22.000Z</time>
      </trkpt>
      <trkpt lat="40.370895" lon="-3.433024">
        <ele>645.4</ele>
        <time>1970-01-01T02:10:23.000Z</time>
      </trkpt>
      <trkpt lat="40.37091" lon="-3.43296">
        <ele>645.4</ele>
        <time>1970-01-01T02:10:24.000Z</time>
      </trkpt>
      <trkpt lat="40.370924" lon="-3.432897">
        <ele>645.4</ele>
        <time>1970-01-01T02:10:25.000Z</time>
      </trkpt>
      <trkpt lat="40.370936" lon="-3.432834">
        <ele>645.4</ele>
        <time>1970-01-01T02:10:26.000Z</time>
      </trkpt>
      <trkpt lat="40.370951" lon="-3.432774">
        <ele>645.4</ele>
        <time>1970-01-01T02:10:27.000Z</time>
      </trkpt>
      <trkpt lat="40.37097" lon="-3.432716">
        <ele>645.6</ele>
        <time>1970-01-01T02:10:28.000Z</time>
      </trkpt>
      <trkpt lat="40.370991" lon="-3.432658">
        <ele>645.8</ele>
        <time>1970-01-01T02:10:29.000Z</time>
      </trkpt>
      <trkpt lat="40.371011" lon="-3.432602">
        <ele>645.8</ele>
        <time>1970-01-01T02:10:30.000Z</time>
      </trkpt>
      <trkpt lat="40.371032" lon="-3.432547">
        <ele>646</ele>
        <time>1970-01-01T02:10:31.000Z</time>
      </trkpt>
      <trkpt lat="40.371057" lon="-3.432498">
        <ele>646.2</ele>
        <time>1970-01-01T02:10:32.000Z</time>
      </trkpt>
      <trkpt lat="40.371081" lon="-3.432454">
        <ele>646.6</ele>
        <time>1970-01-01T02:10:33.000Z</time>
      </trkpt>
      <trkpt lat="40.371103" lon="-3.432412">
        <ele>646.8</ele>
        <time>1970-01-01T02:10:34.000Z</time>
      </trkpt>
      <trkpt lat="40.371124" lon="-3.432374">
        <ele>646.8</ele>
        <time>1970-01-01T02:10:35.000Z</time>
      </trkpt>
      <trkpt lat="40.37114" lon="-3.432336">
        <ele>647</ele>
        <time>1970-01-01T02:10:36.000Z</time>
      </trkpt>
      <trkpt lat="40.371156" lon="-3.432308">
        <ele>647.2</ele>
        <time>1970-01-01T02:10:37.000Z</time>
      </trkpt>
      <trkpt lat="40.371175" lon="-3.432287">
        <ele>647.6</ele>
        <time>1970-01-01T02:10:38.000Z</time>
      </trkpt>
      <trkpt lat="40.371196" lon="-3.432264">
        <ele>647.6</ele>
        <time>1970-01-01T02:10:39.000Z</time>
      </trkpt>
      <trkpt lat="40.37121" lon="-3.43223">
        <ele>647.8</ele>
        <time>1970-01-01T02:10:40.000Z</time>
      </trkpt>
      <trkpt lat="40.371225" lon="-3.432187">
        <ele>648</ele>
        <time>1970-01-01T02:10:41.000Z</time>
      </trkpt>
      <trkpt lat="40.371242" lon="-3.432141">
        <ele>648</ele>
        <time>1970-01-01T02:10:42.000Z</time>
      </trkpt>
      <trkpt lat="40.371259" lon="-3.43209">
        <ele>648.2</ele>
        <time>1970-01-01T02:10:43.000Z</time>
      </trkpt>
      <trkpt lat="40.371272" lon="-3.432032">
        <ele>648.6</ele>
        <time>1970-01-01T02:10:44.000Z</time>
      </trkpt>
      <trkpt lat="40.371294" lon="-3.431971">
        <ele>648.4</ele>
        <time>1970-01-01T02:10:45.000Z</time>
      </trkpt>
      <trkpt lat="40.371328" lon="-3.431915">
        <ele>648.4</ele>
        <time>1970-01-01T02:10:46.000Z</time>
      </trkpt>
      <trkpt lat="40.371367" lon="-3.431863">
        <ele>648.8</ele>
        <time>1970-01-01T02:10:47.000Z</time>
      </trkpt>
      <trkpt lat="40.371406" lon="-3.431809">
        <ele>648.8</ele>
        <time>1970-01-01T02:10:48.000Z</time>
      </trkpt>
      <trkpt lat="40.371441" lon="-3.431751">
        <ele>648.8</ele>
        <time>1970-01-01T02:10:49.000Z</time>
      </trkpt>
      <trkpt lat="40.371473" lon="-3.431687">
        <ele>648.8</ele>
        <time>1970-01-01T02:10:50.000Z</time>
      </trkpt>
      <trkpt lat="40.371505" lon="-3.431623">
        <ele>648.8</ele>
        <time>1970-01-01T02:10:51.000Z</time>
      </trkpt>
      <trkpt lat="40.371536" lon="-3.431561">
        <ele>648.6</ele>
        <time>1970-01-01T02:10:52.000Z</time>
      </trkpt>
      <trkpt lat="40.371563" lon="-3.4315">
        <ele>648.6</ele>
        <time>1970-01-01T02:10:53.000Z</time>
      </trkpt>
      <trkpt lat="40.37159" lon="-3.431443">
        <ele>648.6</ele>
        <time>1970-01-01T02:10:54.000Z</time>
      </trkpt>
      <trkpt lat="40.371612" lon="-3.431389">
        <ele>648.8</ele>
        <time>1970-01-01T02:10:55.000Z</time>
      </trkpt>
      <trkpt lat="40.371636" lon="-3.43134">
        <ele>648.8</ele>
        <time>1970-01-01T02:10:56.000Z</time>
      </trkpt>
      <trkpt lat="40.371659" lon="-3.431292">
        <ele>649</ele>
        <time>1970-01-01T02:10:57.000Z</time>
      </trkpt>
      <trkpt lat="40.371677" lon="-3.431243">
        <ele>649.4</ele>
        <time>1970-01-01T02:10:58.000Z</time>
      </trkpt>
      <trkpt lat="40.371691" lon="-3.431195">
        <ele>650.4</ele>
        <time>1970-01-01T02:10:59.000Z</time>
      </trkpt>
      <trkpt lat="40.371704" lon="-3.431147">
        <ele>650.6</ele>
        <time>1970-01-01T02:11:00.000Z</time>
      </trkpt>
      <trkpt lat="40.371717" lon="-3.431099">
        <ele>651.2</ele>
        <time>1970-01-01T02:11:01.000Z</time>
      </trkpt>
      <trkpt lat="40.37173" lon="-3.431051">
        <ele>651.4</ele>
        <time>1970-01-01T02:11:02.000Z</time>
      </trkpt>
      <trkpt lat="40.371741" lon="-3.431006">
        <ele>651.6</ele>
        <time>1970-01-01T02:11:03.000Z</time>
      </trkpt>
      <trkpt lat="40.371753" lon="-3.430958">
        <ele>651.8</ele>
        <time>1970-01-01T02:11:04.000Z</time>
      </trkpt>
      <trkpt lat="40.371768" lon="-3.43091">
        <ele>652</ele>
        <time>1970-01-01T02:11:05.000Z</time>
      </trkpt>
      <trkpt lat="40.371785" lon="-3.43086">
        <ele>652.2</ele>
        <time>1970-01-01T02:11:06.000Z</time>
      </trkpt>
      <trkpt lat="40.371806" lon="-3.430812">
        <ele>652.8</ele>
        <time>1970-01-01T02:11:07.000Z</time>
      </trkpt>
      <trkpt lat="40.371826" lon="-3.430763">
        <ele>653</ele>
        <time>1970-01-01T02:11:08.000Z</time>
      </trkpt>
      <trkpt lat="40.371848" lon="-3.430713">
        <ele>653.2</ele>
        <time>1970-01-01T02:11:09.000Z</time>
      </trkpt>
      <trkpt lat="40.371872" lon="-3.430665">
        <ele>653.4</ele>
        <time>1970-01-01T02:11:10.000Z</time>
      </trkpt>
      <trkpt lat="40.371897" lon="-3.430616">
        <ele>653.4</ele>
        <time>1970-01-01T02:11:11.000Z</time>
      </trkpt>
      <trkpt lat="40.371923" lon="-3.43057">
        <ele>653.6</ele>
        <time>1970-01-01T02:11:12.000Z</time>
      </trkpt>
      <trkpt lat="40.371947" lon="-3.430525">
        <ele>653.6</ele>
        <time>1970-01-01T02:11:13.000Z</time>
      </trkpt>
      <trkpt lat="40.371964" lon="-3.430474">
        <ele>653.8</ele>
        <time>1970-01-01T02:11:14.000Z</time>
      </trkpt>
      <trkpt lat="40.371978" lon="-3.43042">
        <ele>654</ele>
        <time>1970-01-01T02:11:15.000Z</time>
      </trkpt>
      <trkpt lat="40.371996" lon="-3.430375">
        <ele>654.2</ele>
        <time>1970-01-01T02:11:16.000Z</time>
      </trkpt>
      <trkpt lat="40.372018" lon="-3.430334">
        <ele>654.4</ele>
        <time>1970-01-01T02:11:17.000Z</time>
      </trkpt>
      <trkpt lat="40.372042" lon="-3.430289">
        <ele>654.6</ele>
        <time>1970-01-01T02:11:18.000Z</time>
      </trkpt>
      <trkpt lat="40.372064" lon="-3.430239">
        <ele>654.6</ele>
        <time>1970-01-01T02:11:19.000Z</time>
      </trkpt>
      <trkpt lat="40.37208" lon="-3.43019">
        <ele>654.6</ele>
        <time>1970-01-01T02:11:20.000Z</time>
      </trkpt>
      <trkpt lat="40.372094" lon="-3.43014">
        <ele>654.8</ele>
        <time>1970-01-01T02:11:21.000Z</time>
      </trkpt>
      <trkpt lat="40.372112" lon="-3.430095">
        <ele>654.8</ele>
        <time>1970-01-01T02:11:22.000Z</time>
      </trkpt>
      <trkpt lat="40.372135" lon="-3.430054">
        <ele>655.2</ele>
        <time>1970-01-01T02:11:23.000Z</time>
      </trkpt>
      <trkpt lat="40.37216" lon="-3.430016">
        <ele>655.2</ele>
        <time>1970-01-01T02:11:24.000Z</time>
      </trkpt>
      <trkpt lat="40.372187" lon="-3.429978">
        <ele>655.4</ele>
        <time>1970-01-01T02:11:25.000Z</time>
      </trkpt>
      <trkpt lat="40.372217" lon="-3.42994">
        <ele>655.8</ele>
        <time>1970-01-01T02:11:26.000Z</time>
      </trkpt>
      <trkpt lat="40.372247" lon="-3.429901">
        <ele>656.4</ele>
        <time>1970-01-01T02:11:27.000Z</time>
      </trkpt>
      <trkpt lat="40.372274" lon="-3.429856">
        <ele>656.8</ele>
        <time>1970-01-01T02:11:28.000Z</time>
      </trkpt>
      <trkpt lat="40.372303" lon="-3.429809">
        <ele>657</ele>
        <time>1970-01-01T02:11:29.000Z</time>
      </trkpt>
      <trkpt lat="40.372336" lon="-3.429765">
        <ele>657</ele>
        <time>1970-01-01T02:11:30.000Z</time>
      </trkpt>
      <trkpt lat="40.37237" lon="-3.429722">
        <ele>657.2</ele>
        <time>1970-01-01T02:11:31.000Z</time>
      </trkpt>
      <trkpt lat="40.372406" lon="-3.429678">
        <ele>657.2</ele>
        <time>1970-01-01T02:11:32.000Z</time>
      </trkpt>
      <trkpt lat="40.372447" lon="-3.42964">
        <ele>657.2</ele>
        <time>1970-01-01T02:11:33.000Z</time>
      </trkpt>
      <trkpt lat="40.372487" lon="-3.429602">
        <ele>657.4</ele>
        <time>1970-01-01T02:11:34.000Z</time>
      </trkpt>
      <trkpt lat="40.372529" lon="-3.429562">
        <ele>657.4</ele>
        <time>1970-01-01T02:11:35.000Z</time>
      </trkpt>
      <trkpt lat="40.372571" lon="-3.429521">
        <ele>657.4</ele>
        <time>1970-01-01T02:11:36.000Z</time>
      </trkpt>
      <trkpt lat="40.372609" lon="-3.429477">
        <ele>657.4</ele>
        <time>1970-01-01T02:11:37.000Z</time>
      </trkpt>
      <trkpt lat="40.372644" lon="-3.429429">
        <ele>657.4</ele>
        <time>1970-01-01T02:11:38.000Z</time>
      </trkpt>
      <trkpt lat="40.372678" lon="-3.429377">
        <ele>657.6</ele>
        <time>1970-01-01T02:11:39.000Z</time>
      </trkpt>
      <trkpt lat="40.37271" lon="-3.429323">
        <ele>657.8</ele>
        <time>1970-01-01T02:11:40.000Z</time>
      </trkpt>
      <trkpt lat="40.372739" lon="-3.429266">
        <ele>657.8</ele>
        <time>1970-01-01T02:11:41.000Z</time>
      </trkpt>
      <trkpt lat="40.372768" lon="-3.42921">
        <ele>658</ele>
        <time>1970-01-01T02:11:42.000Z</time>
      </trkpt>
      <trkpt lat="40.372799" lon="-3.429154">
        <ele>658</ele>
        <time>1970-01-01T02:11:43.000Z</time>
      </trkpt>
      <trkpt lat="40.37283" lon="-3.429096">
        <ele>658</ele>
        <time>1970-01-01T02:11:44.000Z</time>
      </trkpt>
      <trkpt lat="40.372861" lon="-3.429037">
        <ele>658</ele>
        <time>1970-01-01T02:11:45.000Z</time>
      </trkpt>
      <trkpt lat="40.372891" lon="-3.428978">
        <ele>658</ele>
        <time>1970-01-01T02:11:46.000Z</time>
      </trkpt>
      <trkpt lat="40.37292" lon="-3.428918">
        <ele>658.2</ele>
        <time>1970-01-01T02:11:47.000Z</time>
      </trkpt>
      <trkpt lat="40.372949" lon="-3.428856">
        <ele>658.2</ele>
        <time>1970-01-01T02:11:48.000Z</time>
      </trkpt>
      <trkpt lat="40.372978" lon="-3.428791">
        <ele>658.2</ele>
        <time>1970-01-01T02:11:49.000Z</time>
      </trkpt>
      <trkpt lat="40.373005" lon="-3.428723">
        <ele>658.2</ele>
        <time>1970-01-01T02:11:50.000Z</time>
      </trkpt>
      <trkpt lat="40.373025" lon="-3.428651">
        <ele>658.2</ele>
        <time>1970-01-01T02:11:51.000Z</time>
      </trkpt>
      <trkpt lat="40.373042" lon="-3.428577">
        <ele>658.2</ele>
        <time>1970-01-01T02:11:52.000Z</time>
      </trkpt>
      <trkpt lat="40.373058" lon="-3.4285">
        <ele>658.2</ele>
        <time>1970-01-01T02:11:53.000Z</time>
      </trkpt>
      <trkpt lat="40.37307" lon="-3.428423">
        <ele>658.4</ele>
        <time>1970-01-01T02:11:54.000Z</time>
      </trkpt>
      <trkpt lat="40.373082" lon="-3.428345">
        <ele>658.6</ele>
        <time>1970-01-01T02:11:55.000Z</time>
      </trkpt>
      <trkpt lat="40.373096" lon="-3.428267">
        <ele>658.8</ele>
        <time>1970-01-01T02:11:56.000Z</time>
      </trkpt>
      <trkpt lat="40.373115" lon="-3.428191">
        <ele>658.8</ele>
        <time>1970-01-01T02:11:57.000Z</time>
      </trkpt>
      <trkpt lat="40.373137" lon="-3.428117">
        <ele>658.8</ele>
        <time>1970-01-01T02:11:58.000Z</time>
      </trkpt>
      <trkpt lat="40.373161" lon="-3.428043">
        <ele>658.8</ele>
        <time>1970-01-01T02:11:59.000Z</time>
      </trkpt>
      <trkpt lat="40.373188" lon="-3.427973">
        <ele>658.8</ele>
        <time>1970-01-01T02:12:00.000Z</time>
      </trkpt>
      <trkpt lat="40.373217" lon="-3.427906">
        <ele>659</ele>
        <time>1970-01-01T02:12:01.000Z</time>
      </trkpt>
      <trkpt lat="40.373247" lon="-3.427841">
        <ele>659</ele>
        <time>1970-01-01T02:12:02.000Z</time>
      </trkpt>
      <trkpt lat="40.373277" lon="-3.427778">
        <ele>659</ele>
        <time>1970-01-01T02:12:03.000Z</time>
      </trkpt>
      <trkpt lat="40.373303" lon="-3.427714">
        <ele>659</ele>
        <time>1970-01-01T02:12:04.000Z</time>
      </trkpt>
      <trkpt lat="40.373329" lon="-3.42765">
        <ele>659.2</ele>
        <time>1970-01-01T02:12:05.000Z</time>
      </trkpt>
      <trkpt lat="40.373355" lon="-3.42759">
        <ele>659.4</ele>
        <time>1970-01-01T02:12:06.000Z</time>
      </trkpt>
      <trkpt lat="40.373381" lon="-3.42753">
        <ele>659.4</ele>
        <time>1970-01-01T02:12:07.000Z</time>
      </trkpt>
      <trkpt lat="40.373409" lon="-3.427472">
        <ele>659.6</ele>
        <time>1970-01-01T02:12:08.000Z</time>
      </trkpt>
      <trkpt lat="40.373437" lon="-3.427414">
        <ele>659.8</ele>
        <time>1970-01-01T02:12:09.000Z</time>
      </trkpt>
      <trkpt lat="40.373466" lon="-3.427358">
        <ele>659.8</ele>
        <time>1970-01-01T02:12:10.000Z</time>
      </trkpt>
      <trkpt lat="40.373495" lon="-3.427302">
        <ele>659.8</ele>
        <time>1970-01-01T02:12:11.000Z</time>
      </trkpt>
      <trkpt lat="40.373518" lon="-3.427248">
        <ele>660</ele>
        <time>1970-01-01T02:12:12.000Z</time>
      </trkpt>
      <trkpt lat="40.373537" lon="-3.427193">
        <ele>660.2</ele>
        <time>1970-01-01T02:12:13.000Z</time>
      </trkpt>
      <trkpt lat="40.373553" lon="-3.427135">
        <ele>660.4</ele>
        <time>1970-01-01T02:12:14.000Z</time>
      </trkpt>
      <trkpt lat="40.373566" lon="-3.427077">
        <ele>660.4</ele>
        <time>1970-01-01T02:12:15.000Z</time>
      </trkpt>
      <trkpt lat="40.37358" lon="-3.427019">
        <ele>660.6</ele>
        <time>1970-01-01T02:12:16.000Z</time>
      </trkpt>
      <trkpt lat="40.373596" lon="-3.426959">
        <ele>660.6</ele>
        <time>1970-01-01T02:12:17.000Z</time>
      </trkpt>
      <trkpt lat="40.373613" lon="-3.426899">
        <ele>660.6</ele>
        <time>1970-01-01T02:12:18.000Z</time>
      </trkpt>
      <trkpt lat="40.373632" lon="-3.42684">
        <ele>660.8</ele>
        <time>1970-01-01T02:12:19.000Z</time>
      </trkpt>
      <trkpt lat="40.373653" lon="-3.426783">
        <ele>661.2</ele>
        <time>1970-01-01T02:12:20.000Z</time>
      </trkpt>
      <trkpt lat="40.373677" lon="-3.426724">
        <ele>661.2</ele>
        <time>1970-01-01T02:12:21.000Z</time>
      </trkpt>
      <trkpt lat="40.3737" lon="-3.426667">
        <ele>661.4</ele>
        <time>1970-01-01T02:12:22.000Z</time>
      </trkpt>
      <trkpt lat="40.373723" lon="-3.42661">
        <ele>661.4</ele>
        <time>1970-01-01T02:12:23.000Z</time>
      </trkpt>
      <trkpt lat="40.373746" lon="-3.426555">
        <ele>661.6</ele>
        <time>1970-01-01T02:12:24.000Z</time>
      </trkpt>
      <trkpt lat="40.373771" lon="-3.426503">
        <ele>661.6</ele>
        <time>1970-01-01T02:12:25.000Z</time>
      </trkpt>
      <trkpt lat="40.373795" lon="-3.426455">
        <ele>661.8</ele>
        <time>1970-01-01T02:12:26.000Z</time>
      </trkpt>
      <trkpt lat="40.373824" lon="-3.426415">
        <ele>662</ele>
        <time>1970-01-01T02:12:27.000Z</time>
      </trkpt>
      <trkpt lat="40.373852" lon="-3.426378">
        <ele>662.2</ele>
        <time>1970-01-01T02:12:28.000Z</time>
      </trkpt>
      <trkpt lat="40.373883" lon="-3.426339">
        <ele>662.6</ele>
        <time>1970-01-01T02:12:29.000Z</time>
      </trkpt>
      <trkpt lat="40.373913" lon="-3.426298">
        <ele>662.8</ele>
        <time>1970-01-01T02:12:30.000Z</time>
      </trkpt>
      <trkpt lat="40.373944" lon="-3.426255">
        <ele>663</ele>
        <time>1970-01-01T02:12:31.000Z</time>
      </trkpt>
      <trkpt lat="40.373972" lon="-3.42621">
        <ele>663.2</ele>
        <time>1970-01-01T02:12:32.000Z</time>
      </trkpt>
      <trkpt lat="40.374004" lon="-3.426167">
        <ele>663.6</ele>
        <time>1970-01-01T02:12:33.000Z</time>
      </trkpt>
      <trkpt lat="40.374037" lon="-3.426131">
        <ele>664.2</ele>
        <time>1970-01-01T02:12:34.000Z</time>
      </trkpt>
      <trkpt lat="40.374069" lon="-3.426095">
        <ele>664.4</ele>
        <time>1970-01-01T02:12:35.000Z</time>
      </trkpt>
      <trkpt lat="40.374104" lon="-3.426057">
        <ele>664.6</ele>
        <time>1970-01-01T02:12:36.000Z</time>
      </trkpt>
      <trkpt lat="40.374141" lon="-3.426018">
        <ele>664.6</ele>
        <time>1970-01-01T02:12:37.000Z</time>
      </trkpt>
      <trkpt lat="40.374179" lon="-3.425979">
        <ele>664.8</ele>
        <time>1970-01-01T02:12:38.000Z</time>
      </trkpt>
      <trkpt lat="40.374218" lon="-3.425945">
        <ele>665</ele>
        <time>1970-01-01T02:12:39.000Z</time>
      </trkpt>
      <trkpt lat="40.374258" lon="-3.425915">
        <ele>665.2</ele>
        <time>1970-01-01T02:12:40.000Z</time>
      </trkpt>
      <trkpt lat="40.374299" lon="-3.425887">
        <ele>665.4</ele>
        <time>1970-01-01T02:12:41.000Z</time>
      </trkpt>
      <trkpt lat="40.37434" lon="-3.425856">
        <ele>665.4</ele>
        <time>1970-01-01T02:12:42.000Z</time>
      </trkpt>
      <trkpt lat="40.374383" lon="-3.425827">
        <ele>665.6</ele>
        <time>1970-01-01T02:12:43.000Z</time>
      </trkpt>
      <trkpt lat="40.374428" lon="-3.425799">
        <ele>665.8</ele>
        <time>1970-01-01T02:12:44.000Z</time>
      </trkpt>
      <trkpt lat="40.374472" lon="-3.425769">
        <ele>665.8</ele>
        <time>1970-01-01T02:12:45.000Z</time>
      </trkpt>
      <trkpt lat="40.374514" lon="-3.425735">
        <ele>665.8</ele>
        <time>1970-01-01T02:12:46.000Z</time>
      </trkpt>
      <trkpt lat="40.374558" lon="-3.425699">
        <ele>665.8</ele>
        <time>1970-01-01T02:12:47.000Z</time>
      </trkpt>
      <trkpt lat="40.374602" lon="-3.425669">
        <ele>666</ele>
        <time>1970-01-01T02:12:48.000Z</time>
      </trkpt>
      <trkpt lat="40.374648" lon="-3.425642">
        <ele>666</ele>
        <time>1970-01-01T02:12:49.000Z</time>
      </trkpt>
      <trkpt lat="40.374695" lon="-3.425611">
        <ele>666.2</ele>
        <time>1970-01-01T02:12:50.000Z</time>
      </trkpt>
      <trkpt lat="40.374741" lon="-3.425576">
        <ele>666.2</ele>
        <time>1970-01-01T02:12:51.000Z</time>
      </trkpt>
      <trkpt lat="40.374787" lon="-3.425542">
        <ele>666.2</ele>
        <time>1970-01-01T02:12:52.000Z</time>
      </trkpt>
      <trkpt lat="40.374831" lon="-3.425502">
        <ele>666.2</ele>
        <time>1970-01-01T02:12:53.000Z</time>
      </trkpt>
      <trkpt lat="40.374878" lon="-3.425466">
        <ele>666.2</ele>
        <time>1970-01-01T02:12:54.000Z</time>
      </trkpt>
      <trkpt lat="40.374925" lon="-3.425429">
        <ele>666.2</ele>
        <time>1970-01-01T02:12:55.000Z</time>
      </trkpt>
      <trkpt lat="40.374971" lon="-3.425392">
        <ele>666.2</ele>
        <time>1970-01-01T02:12:56.000Z</time>
      </trkpt>
      <trkpt lat="40.375019" lon="-3.425356">
        <ele>666.2</ele>
        <time>1970-01-01T02:12:57.000Z</time>
      </trkpt>
      <trkpt lat="40.375067" lon="-3.425321">
        <ele>666.2</ele>
        <time>1970-01-01T02:12:58.000Z</time>
      </trkpt>
      <trkpt lat="40.375114" lon="-3.425288">
        <ele>666.4</ele>
        <time>1970-01-01T02:12:59.000Z</time>
      </trkpt>
      <trkpt lat="40.375163" lon="-3.425255">
        <ele>666.6</ele>
        <time>1970-01-01T02:13:00.000Z</time>
      </trkpt>
      <trkpt lat="40.375209" lon="-3.425223">
        <ele>666.6</ele>
        <time>1970-01-01T02:13:01.000Z</time>
      </trkpt>
      <trkpt lat="40.375254" lon="-3.425188">
        <ele>666.8</ele>
        <time>1970-01-01T02:13:02.000Z</time>
      </trkpt>
      <trkpt lat="40.3753" lon="-3.425157">
        <ele>666.8</ele>
        <time>1970-01-01T02:13:03.000Z</time>
      </trkpt>
      <trkpt lat="40.37535" lon="-3.42513">
        <ele>667</ele>
        <time>1970-01-01T02:13:04.000Z</time>
      </trkpt>
      <trkpt lat="40.375401" lon="-3.425102">
        <ele>667.2</ele>
        <time>1970-01-01T02:13:05.000Z</time>
      </trkpt>
      <trkpt lat="40.37545" lon="-3.425072">
        <ele>667.4</ele>
        <time>1970-01-01T02:13:06.000Z</time>
      </trkpt>
      <trkpt lat="40.375502" lon="-3.425043">
        <ele>667.6</ele>
        <time>1970-01-01T02:13:07.000Z</time>
      </trkpt>
      <trkpt lat="40.375555" lon="-3.425015">
        <ele>667.6</ele>
        <time>1970-01-01T02:13:08.000Z</time>
      </trkpt>
      <trkpt lat="40.375605" lon="-3.424985">
        <ele>667.8</ele>
        <time>1970-01-01T02:13:09.000Z</time>
      </trkpt>
      <trkpt lat="40.375658" lon="-3.424958">
        <ele>668</ele>
        <time>1970-01-01T02:13:10.000Z</time>
      </trkpt>
      <trkpt lat="40.375711" lon="-3.424935">
        <ele>668</ele>
        <time>1970-01-01T02:13:11.000Z</time>
      </trkpt>
      <trkpt lat="40.375763" lon="-3.424913">
        <ele>668</ele>
        <time>1970-01-01T02:13:12.000Z</time>
      </trkpt>
      <trkpt lat="40.375815" lon="-3.42489">
        <ele>668</ele>
        <time>1970-01-01T02:13:13.000Z</time>
      </trkpt>
      <trkpt lat="40.375865" lon="-3.424866">
        <ele>668.2</ele>
        <time>1970-01-01T02:13:14.000Z</time>
      </trkpt>
      <trkpt lat="40.375913" lon="-3.424841">
        <ele>668.2</ele>
        <time>1970-01-01T02:13:15.000Z</time>
      </trkpt>
      <trkpt lat="40.375962" lon="-3.424814">
        <ele>668.2</ele>
        <time>1970-01-01T02:13:16.000Z</time>
      </trkpt>
      <trkpt lat="40.376008" lon="-3.424783">
        <ele>668.4</ele>
        <time>1970-01-01T02:13:17.000Z</time>
      </trkpt>
      <trkpt lat="40.376052" lon="-3.424748">
        <ele>668.6</ele>
        <time>1970-01-01T02:13:18.000Z</time>
      </trkpt>
      <trkpt lat="40.376097" lon="-3.424711">
        <ele>668.6</ele>
        <time>1970-01-01T02:13:19.000Z</time>
      </trkpt>
      <trkpt lat="40.376141" lon="-3.424672">
        <ele>668.8</ele>
        <time>1970-01-01T02:13:20.000Z</time>
      </trkpt>
      <trkpt lat="40.376181" lon="-3.424633">
        <ele>668.8</ele>
        <time>1970-01-01T02:13:21.000Z</time>
      </trkpt>
      <trkpt lat="40.376225" lon="-3.424593">
        <ele>668.8</ele>
        <time>1970-01-01T02:13:22.000Z</time>
      </trkpt>
      <trkpt lat="40.376271" lon="-3.424555">
        <ele>668.8</ele>
        <time>1970-01-01T02:13:23.000Z</time>
      </trkpt>
      <trkpt lat="40.376316" lon="-3.424514">
        <ele>668.8</ele>
        <time>1970-01-01T02:13:24.000Z</time>
      </trkpt>
      <trkpt lat="40.376362" lon="-3.424468">
        <ele>669</ele>
        <time>1970-01-01T02:13:25.000Z</time>
      </trkpt>
      <trkpt lat="40.376405" lon="-3.424418">
        <ele>669</ele>
        <time>1970-01-01T02:13:26.000Z</time>
      </trkpt>
      <trkpt lat="40.376449" lon="-3.424368">
        <ele>669.2</ele>
        <time>1970-01-01T02:13:27.000Z</time>
      </trkpt>
      <trkpt lat="40.376492" lon="-3.42432">
        <ele>669.2</ele>
        <time>1970-01-01T02:13:28.000Z</time>
      </trkpt>
      <trkpt lat="40.376531" lon="-3.42427">
        <ele>669.2</ele>
        <time>1970-01-01T02:13:29.000Z</time>
      </trkpt>
      <trkpt lat="40.376566" lon="-3.424214">
        <ele>669.2</ele>
        <time>1970-01-01T02:13:30.000Z</time>
      </trkpt>
      <trkpt lat="40.376598" lon="-3.424153">
        <ele>669.2</ele>
        <time>1970-01-01T02:13:31.000Z</time>
      </trkpt>
      <trkpt lat="40.37663" lon="-3.424093">
        <ele>669.2</ele>
        <time>1970-01-01T02:13:32.000Z</time>
      </trkpt>
      <trkpt lat="40.376665" lon="-3.424035">
        <ele>669.2</ele>
        <time>1970-01-01T02:13:33.000Z</time>
      </trkpt>
      <trkpt lat="40.3767" lon="-3.423978">
        <ele>669.2</ele>
        <time>1970-01-01T02:13:34.000Z</time>
      </trkpt>
      <trkpt lat="40.376736" lon="-3.423921">
        <ele>669.4</ele>
        <time>1970-01-01T02:13:35.000Z</time>
      </trkpt>
      <trkpt lat="40.376771" lon="-3.423864">
        <ele>669.4</ele>
        <time>1970-01-01T02:13:36.000Z</time>
      </trkpt>
      <trkpt lat="40.376806" lon="-3.423804">
        <ele>669.4</ele>
        <time>1970-01-01T02:13:37.000Z</time>
      </trkpt>
      <trkpt lat="40.376841" lon="-3.423744">
        <ele>669.4</ele>
        <time>1970-01-01T02:13:38.000Z</time>
      </trkpt>
      <trkpt lat="40.376876" lon="-3.423687">
        <ele>669.4</ele>
        <time>1970-01-01T02:13:39.000Z</time>
      </trkpt>
      <trkpt lat="40.376911" lon="-3.423629">
        <ele>669.4</ele>
        <time>1970-01-01T02:13:40.000Z</time>
      </trkpt>
      <trkpt lat="40.376946" lon="-3.423571">
        <ele>669.4</ele>
        <time>1970-01-01T02:13:41.000Z</time>
      </trkpt>
      <trkpt lat="40.376979" lon="-3.423512">
        <ele>669.6</ele>
        <time>1970-01-01T02:13:42.000Z</time>
      </trkpt>
      <trkpt lat="40.377015" lon="-3.423454">
        <ele>669.6</ele>
        <time>1970-01-01T02:13:43.000Z</time>
      </trkpt>
      <trkpt lat="40.377052" lon="-3.423399">
        <ele>669.6</ele>
        <time>1970-01-01T02:13:44.000Z</time>
      </trkpt>
      <trkpt lat="40.377091" lon="-3.423347">
        <ele>669.6</ele>
        <time>1970-01-01T02:13:45.000Z</time>
      </trkpt>
      <trkpt lat="40.377132" lon="-3.423302">
        <ele>669.6</ele>
        <time>1970-01-01T02:13:46.000Z</time>
      </trkpt>
      <trkpt lat="40.377173" lon="-3.423257">
        <ele>669.8</ele>
        <time>1970-01-01T02:13:47.000Z</time>
      </trkpt>
      <trkpt lat="40.377209" lon="-3.423209">
        <ele>669.8</ele>
        <time>1970-01-01T02:13:48.000Z</time>
      </trkpt>
      <trkpt lat="40.377246" lon="-3.423161">
        <ele>669.8</ele>
        <time>1970-01-01T02:13:49.000Z</time>
      </trkpt>
      <trkpt lat="40.377282" lon="-3.423112">
        <ele>670</ele>
        <time>1970-01-01T02:13:50.000Z</time>
      </trkpt>
      <trkpt lat="40.377318" lon="-3.423062">
        <ele>670</ele>
        <time>1970-01-01T02:13:51.000Z</time>
      </trkpt>
      <trkpt lat="40.377353" lon="-3.423011">
        <ele>670</ele>
        <time>1970-01-01T02:13:52.000Z</time>
      </trkpt>
      <trkpt lat="40.377392" lon="-3.422965">
        <ele>670</ele>
        <time>1970-01-01T02:13:53.000Z</time>
      </trkpt>
      <trkpt lat="40.377435" lon="-3.422926">
        <ele>670</ele>
        <time>1970-01-01T02:13:54.000Z</time>
      </trkpt>
      <trkpt lat="40.377483" lon="-3.422901">
        <ele>670</ele>
        <time>1970-01-01T02:13:55.000Z</time>
      </trkpt>
      <trkpt lat="40.377529" lon="-3.422881">
        <ele>670</ele>
        <time>1970-01-01T02:13:56.000Z</time>
      </trkpt>
      <trkpt lat="40.377573" lon="-3.422859">
        <ele>670</ele>
        <time>1970-01-01T02:13:57.000Z</time>
      </trkpt>
      <trkpt lat="40.377606" lon="-3.422826">
        <ele>670</ele>
        <time>1970-01-01T02:13:58.000Z</time>
      </trkpt>
      <trkpt lat="40.377636" lon="-3.422783">
        <ele>670.4</ele>
        <time>1970-01-01T02:13:59.000Z</time>
      </trkpt>
      <trkpt lat="40.377664" lon="-3.422735">
        <ele>670.6</ele>
        <time>1970-01-01T02:14:00.000Z</time>
      </trkpt>
      <trkpt lat="40.37769" lon="-3.422683">
        <ele>671</ele>
        <time>1970-01-01T02:14:01.000Z</time>
      </trkpt>
      <trkpt lat="40.377711" lon="-3.422626">
        <ele>671.2</ele>
        <time>1970-01-01T02:14:02.000Z</time>
      </trkpt>
      <trkpt lat="40.37773" lon="-3.422565">
        <ele>671.6</ele>
        <time>1970-01-01T02:14:03.000Z</time>
      </trkpt>
      <trkpt lat="40.377752" lon="-3.422504">
        <ele>671.8</ele>
        <time>1970-01-01T02:14:04.000Z</time>
      </trkpt>
      <trkpt lat="40.377778" lon="-3.422446">
        <ele>672.4</ele>
        <time>1970-01-01T02:14:05.000Z</time>
      </trkpt>
      <trkpt lat="40.377806" lon="-3.422389">
        <ele>672.6</ele>
        <time>1970-01-01T02:14:06.000Z</time>
      </trkpt>
      <trkpt lat="40.377836" lon="-3.422335">
        <ele>672.8</ele>
        <time>1970-01-01T02:14:07.000Z</time>
      </trkpt>
      <trkpt lat="40.377871" lon="-3.422282">
        <ele>673</ele>
        <time>1970-01-01T02:14:08.000Z</time>
      </trkpt>
      <trkpt lat="40.37791" lon="-3.422234">
        <ele>673</ele>
        <time>1970-01-01T02:14:09.000Z</time>
      </trkpt>
      <trkpt lat="40.377952" lon="-3.422191">
        <ele>673.2</ele>
        <time>1970-01-01T02:14:10.000Z</time>
      </trkpt>
      <trkpt lat="40.377995" lon="-3.42215">
        <ele>673.2</ele>
        <time>1970-01-01T02:14:11.000Z</time>
      </trkpt>
      <trkpt lat="40.378035" lon="-3.422107">
        <ele>673.4</ele>
        <time>1970-01-01T02:14:12.000Z</time>
      </trkpt>
      <trkpt lat="40.378076" lon="-3.422064">
        <ele>673.4</ele>
        <time>1970-01-01T02:14:13.000Z</time>
      </trkpt>
      <trkpt lat="40.378115" lon="-3.422019">
        <ele>673.6</ele>
        <time>1970-01-01T02:14:14.000Z</time>
      </trkpt>
      <trkpt lat="40.378149" lon="-3.421971">
        <ele>673.6</ele>
        <time>1970-01-01T02:14:15.000Z</time>
      </trkpt>
      <trkpt lat="40.378178" lon="-3.421918">
        <ele>673.8</ele>
        <time>1970-01-01T02:14:16.000Z</time>
      </trkpt>
      <trkpt lat="40.378207" lon="-3.421864">
        <ele>674.2</ele>
        <time>1970-01-01T02:14:17.000Z</time>
      </trkpt>
      <trkpt lat="40.378239" lon="-3.421811">
        <ele>674.4</ele>
        <time>1970-01-01T02:14:18.000Z</time>
      </trkpt>
      <trkpt lat="40.37827" lon="-3.42176">
        <ele>674.4</ele>
        <time>1970-01-01T02:14:19.000Z</time>
      </trkpt>
      <trkpt lat="40.3783" lon="-3.421707">
        <ele>674.6</ele>
        <time>1970-01-01T02:14:20.000Z</time>
      </trkpt>
      <trkpt lat="40.378327" lon="-3.421652">
        <ele>674.6</ele>
        <time>1970-01-01T02:14:21.000Z</time>
      </trkpt>
      <trkpt lat="40.378356" lon="-3.421603">
        <ele>674.8</ele>
        <time>1970-01-01T02:14:22.000Z</time>
      </trkpt>
      <trkpt lat="40.378385" lon="-3.421556">
        <ele>674.8</ele>
        <time>1970-01-01T02:14:23.000Z</time>
      </trkpt>
      <trkpt lat="40.378412" lon="-3.42151">
        <ele>675.2</ele>
        <time>1970-01-01T02:14:24.000Z</time>
      </trkpt>
      <trkpt lat="40.378438" lon="-3.421467">
        <ele>675.6</ele>
        <time>1970-01-01T02:14:25.000Z</time>
      </trkpt>
      <trkpt lat="40.378462" lon="-3.421427">
        <ele>675.8</ele>
        <time>1970-01-01T02:14:26.000Z</time>
      </trkpt>
      <trkpt lat="40.378489" lon="-3.42139">
        <ele>676.6</ele>
        <time>1970-01-01T02:14:27.000Z</time>
      </trkpt>
      <trkpt lat="40.378517" lon="-3.421354">
        <ele>676.8</ele>
        <time>1970-01-01T02:14:28.000Z</time>
      </trkpt>
      <trkpt lat="40.37854" lon="-3.421314">
        <ele>677</ele>
        <time>1970-01-01T02:14:29.000Z</time>
      </trkpt>
      <trkpt lat="40.378565" lon="-3.421272">
        <ele>677.2</ele>
        <time>1970-01-01T02:14:30.000Z</time>
      </trkpt>
      <trkpt lat="40.378587" lon="-3.421232">
        <ele>677.6</ele>
        <time>1970-01-01T02:14:31.000Z</time>
      </trkpt>
      <trkpt lat="40.378604" lon="-3.421187">
        <ele>678</ele>
        <time>1970-01-01T02:14:32.000Z</time>
      </trkpt>
      <trkpt lat="40.378621" lon="-3.421139">
        <ele>678.2</ele>
        <time>1970-01-01T02:14:33.000Z</time>
      </trkpt>
      <trkpt lat="40.378642" lon="-3.421088">
        <ele>678.2</ele>
        <time>1970-01-01T02:14:34.000Z</time>
      </trkpt>
      <trkpt lat="40.378663" lon="-3.421038">
        <ele>678.2</ele>
        <time>1970-01-01T02:14:35.000Z</time>
      </trkpt>
      <trkpt lat="40.378686" lon="-3.420986">
        <ele>678.2</ele>
        <time>1970-01-01T02:14:36.000Z</time>
      </trkpt>
      <trkpt lat="40.378712" lon="-3.420935">
        <ele>678.2</ele>
        <time>1970-01-01T02:14:37.000Z</time>
      </trkpt>
      <trkpt lat="40.378736" lon="-3.420886">
        <ele>678.4</ele>
        <time>1970-01-01T02:14:38.000Z</time>
      </trkpt>
      <trkpt lat="40.378763" lon="-3.420834">
        <ele>678.4</ele>
        <time>1970-01-01T02:14:39.000Z</time>
      </trkpt>
      <trkpt lat="40.378789" lon="-3.420784">
        <ele>678.4</ele>
        <time>1970-01-01T02:14:40.000Z</time>
      </trkpt>
      <trkpt lat="40.378813" lon="-3.420733">
        <ele>678.4</ele>
        <time>1970-01-01T02:14:41.000Z</time>
      </trkpt>
      <trkpt lat="40.378839" lon="-3.420678">
        <ele>678.6</ele>
        <time>1970-01-01T02:14:42.000Z</time>
      </trkpt>
      <trkpt lat="40.378867" lon="-3.420622">
        <ele>678.8</ele>
        <time>1970-01-01T02:14:43.000Z</time>
      </trkpt>
      <trkpt lat="40.378895" lon="-3.420565">
        <ele>678.8</ele>
        <time>1970-01-01T02:14:44.000Z</time>
      </trkpt>
      <trkpt lat="40.378929" lon="-3.420507">
        <ele>679</ele>
        <time>1970-01-01T02:14:45.000Z</time>
      </trkpt>
      <trkpt lat="40.378962" lon="-3.420448">
        <ele>679.2</ele>
        <time>1970-01-01T02:14:46.000Z</time>
      </trkpt>
      <trkpt lat="40.379" lon="-3.420388">
        <ele>679.2</ele>
        <time>1970-01-01T02:14:47.000Z</time>
      </trkpt>
      <trkpt lat="40.379045" lon="-3.420328">
        <ele>679.2</ele>
        <time>1970-01-01T02:14:48.000Z</time>
      </trkpt>
      <trkpt lat="40.379096" lon="-3.420278">
        <ele>679.2</ele>
        <time>1970-01-01T02:14:49.000Z</time>
      </trkpt>
      <trkpt lat="40.379156" lon="-3.420243">
        <ele>678.6</ele>
        <time>1970-01-01T02:14:50.000Z</time>
      </trkpt>
      <trkpt lat="40.379224" lon="-3.420227">
        <ele>678.4</ele>
        <time>1970-01-01T02:14:51.000Z</time>
      </trkpt>
      <trkpt lat="40.379293" lon="-3.420228">
        <ele>678.2</ele>
        <time>1970-01-01T02:14:52.000Z</time>
      </trkpt>
      <trkpt lat="40.37936" lon="-3.420239">
        <ele>678</ele>
        <time>1970-01-01T02:14:53.000Z</time>
      </trkpt>
      <trkpt lat="40.379427" lon="-3.420256">
        <ele>678</ele>
        <time>1970-01-01T02:14:54.000Z</time>
      </trkpt>
      <trkpt lat="40.379497" lon="-3.420267">
        <ele>678</ele>
        <time>1970-01-01T02:14:55.000Z</time>
      </trkpt>
      <trkpt lat="40.37957" lon="-3.420259">
        <ele>678</ele>
        <time>1970-01-01T02:14:56.000Z</time>
      </trkpt>
      <trkpt lat="40.379639" lon="-3.420229">
        <ele>677.8</ele>
        <time>1970-01-01T02:14:57.000Z</time>
      </trkpt>
      <trkpt lat="40.3797" lon="-3.420177">
        <ele>677.4</ele>
        <time>1970-01-01T02:14:58.000Z</time>
      </trkpt>
      <trkpt lat="40.379753" lon="-3.420108">
        <ele>677.2</ele>
        <time>1970-01-01T02:14:59.000Z</time>
      </trkpt>
      <trkpt lat="40.3798" lon="-3.420028">
        <ele>677</ele>
        <time>1970-01-01T02:15:00.000Z</time>
      </trkpt>
      <trkpt lat="40.379849" lon="-3.419942">
        <ele>676.8</ele>
        <time>1970-01-01T02:15:01.000Z</time>
      </trkpt>
      <trkpt lat="40.379903" lon="-3.419857">
        <ele>676.2</ele>
        <time>1970-01-01T02:15:02.000Z</time>
      </trkpt>
      <trkpt lat="40.379959" lon="-3.419768">
        <ele>675.8</ele>
        <time>1970-01-01T02:15:03.000Z</time>
      </trkpt>
      <trkpt lat="40.380015" lon="-3.41968">
        <ele>675.4</ele>
        <time>1970-01-01T02:15:04.000Z</time>
      </trkpt>
      <trkpt lat="40.38007" lon="-3.419592">
        <ele>675</ele>
        <time>1970-01-01T02:15:05.000Z</time>
      </trkpt>
      <trkpt lat="40.380125" lon="-3.419504">
        <ele>674.8</ele>
        <time>1970-01-01T02:15:06.000Z</time>
      </trkpt>
      <trkpt lat="40.38018" lon="-3.419419">
        <ele>674.6</ele>
        <time>1970-01-01T02:15:07.000Z</time>
      </trkpt>
      <trkpt lat="40.380233" lon="-3.419336">
        <ele>674.4</ele>
        <time>1970-01-01T02:15:08.000Z</time>
      </trkpt>
      <trkpt lat="40.380285" lon="-3.419251">
        <ele>674</ele>
        <time>1970-01-01T02:15:09.000Z</time>
      </trkpt>
      <trkpt lat="40.380336" lon="-3.419168">
        <ele>673.8</ele>
        <time>1970-01-01T02:15:10.000Z</time>
      </trkpt>
      <trkpt lat="40.380387" lon="-3.419088">
        <ele>673.6</ele>
        <time>1970-01-01T02:15:11.000Z</time>
      </trkpt>
      <trkpt lat="40.380437" lon="-3.419007">
        <ele>673.4</ele>
        <time>1970-01-01T02:15:12.000Z</time>
      </trkpt>
      <trkpt lat="40.380481" lon="-3.418923">
        <ele>673.4</ele>
        <time>1970-01-01T02:15:13.000Z</time>
      </trkpt>
      <trkpt lat="40.380527" lon="-3.418841">
        <ele>673.2</ele>
        <time>1970-01-01T02:15:14.000Z</time>
      </trkpt>
      <trkpt lat="40.380573" lon="-3.418759">
        <ele>673.2</ele>
        <time>1970-01-01T02:15:15.000Z</time>
      </trkpt>
      <trkpt lat="40.380621" lon="-3.418678">
        <ele>673.2</ele>
        <time>1970-01-01T02:15:16.000Z</time>
      </trkpt>
      <trkpt lat="40.380664" lon="-3.418596">
        <ele>673</ele>
        <time>1970-01-01T02:15:17.000Z</time>
      </trkpt>
      <trkpt lat="40.380698" lon="-3.418509">
        <ele>673</ele>
        <time>1970-01-01T02:15:18.000Z</time>
      </trkpt>
      <trkpt lat="40.380727" lon="-3.418417">
        <ele>672.8</ele>
        <time>1970-01-01T02:15:19.000Z</time>
      </trkpt>
      <trkpt lat="40.38076" lon="-3.418337">
        <ele>672.8</ele>
        <time>1970-01-01T02:15:20.000Z</time>
      </trkpt>
      <trkpt lat="40.380815" lon="-3.418276">
        <ele>672.8</ele>
        <time>1970-01-01T02:15:21.000Z</time>
      </trkpt>
      <trkpt lat="40.380878" lon="-3.418232">
        <ele>672.6</ele>
        <time>1970-01-01T02:15:22.000Z</time>
      </trkpt>
      <trkpt lat="40.38094" lon="-3.41818">
        <ele>672.6</ele>
        <time>1970-01-01T02:15:23.000Z</time>
      </trkpt>
      <trkpt lat="40.380992" lon="-3.418111">
        <ele>672.4</ele>
        <time>1970-01-01T02:15:24.000Z</time>
      </trkpt>
      <trkpt lat="40.381042" lon="-3.418034">
        <ele>672.4</ele>
        <time>1970-01-01T02:15:25.000Z</time>
      </trkpt>
      <trkpt lat="40.38109" lon="-3.417952">
        <ele>672.2</ele>
        <time>1970-01-01T02:15:26.000Z</time>
      </trkpt>
      <trkpt lat="40.38114" lon="-3.417866">
        <ele>672</ele>
        <time>1970-01-01T02:15:27.000Z</time>
      </trkpt>
      <trkpt lat="40.381193" lon="-3.41778">
        <ele>671.6</ele>
        <time>1970-01-01T02:15:28.000Z</time>
      </trkpt>
      <trkpt lat="40.381246" lon="-3.417694">
        <ele>671.4</ele>
        <time>1970-01-01T02:15:29.000Z</time>
      </trkpt>
      <trkpt lat="40.381297" lon="-3.417608">
        <ele>671</ele>
        <time>1970-01-01T02:15:30.000Z</time>
      </trkpt>
      <trkpt lat="40.381348" lon="-3.41752">
        <ele>670.6</ele>
        <time>1970-01-01T02:15:31.000Z</time>
      </trkpt>
      <trkpt lat="40.381398" lon="-3.417426">
        <ele>670.4</ele>
        <time>1970-01-01T02:15:32.000Z</time>
      </trkpt>
      <trkpt lat="40.381445" lon="-3.417332">
        <ele>670.2</ele>
        <time>1970-01-01T02:15:33.000Z</time>
      </trkpt>
      <trkpt lat="40.381484" lon="-3.417234">
        <ele>670</ele>
        <time>1970-01-01T02:15:34.000Z</time>
      </trkpt>
      <trkpt lat="40.381521" lon="-3.417132">
        <ele>669.6</ele>
        <time>1970-01-01T02:15:35.000Z</time>
      </trkpt>
      <trkpt lat="40.381551" lon="-3.41703">
        <ele>669.6</ele>
        <time>1970-01-01T02:15:36.000Z</time>
      </trkpt>
      <trkpt lat="40.381587" lon="-3.41693">
        <ele>669.2</ele>
        <time>1970-01-01T02:15:37.000Z</time>
      </trkpt>
      <trkpt lat="40.381626" lon="-3.416832">
        <ele>668.8</ele>
        <time>1970-01-01T02:15:38.000Z</time>
      </trkpt>
      <trkpt lat="40.381669" lon="-3.416739">
        <ele>668.6</ele>
        <time>1970-01-01T02:15:39.000Z</time>
      </trkpt>
      <trkpt lat="40.381714" lon="-3.41665">
        <ele>668.4</ele>
        <time>1970-01-01T02:15:40.000Z</time>
      </trkpt>
      <trkpt lat="40.381761" lon="-3.416565">
        <ele>668.4</ele>
        <time>1970-01-01T02:15:41.000Z</time>
      </trkpt>
      <trkpt lat="40.381808" lon="-3.416487">
        <ele>668</ele>
        <time>1970-01-01T02:15:42.000Z</time>
      </trkpt>
      <trkpt lat="40.381858" lon="-3.416412">
        <ele>667.8</ele>
        <time>1970-01-01T02:15:43.000Z</time>
      </trkpt>
      <trkpt lat="40.381906" lon="-3.416339">
        <ele>667.6</ele>
        <time>1970-01-01T02:15:44.000Z</time>
      </trkpt>
      <trkpt lat="40.381951" lon="-3.416267">
        <ele>667.6</ele>
        <time>1970-01-01T02:15:45.000Z</time>
      </trkpt>
      <trkpt lat="40.381995" lon="-3.416194">
        <ele>667.6</ele>
        <time>1970-01-01T02:15:46.000Z</time>
      </trkpt>
      <trkpt lat="40.382035" lon="-3.416124">
        <ele>667.6</ele>
        <time>1970-01-01T02:15:47.000Z</time>
      </trkpt>
      <trkpt lat="40.382071" lon="-3.416054">
        <ele>667.6</ele>
        <time>1970-01-01T02:15:48.000Z</time>
      </trkpt>
      <trkpt lat="40.382111" lon="-3.415986">
        <ele>667.6</ele>
        <time>1970-01-01T02:15:49.000Z</time>
      </trkpt>
      <trkpt lat="40.382152" lon="-3.41592">
        <ele>667.6</ele>
        <time>1970-01-01T02:15:50.000Z</time>
      </trkpt>
      <trkpt lat="40.382191" lon="-3.415853">
        <ele>667.6</ele>
        <time>1970-01-01T02:15:51.000Z</time>
      </trkpt>
      <trkpt lat="40.38223" lon="-3.415786">
        <ele>667.6</ele>
        <time>1970-01-01T02:15:52.000Z</time>
      </trkpt>
      <trkpt lat="40.382267" lon="-3.415716">
        <ele>667.6</ele>
        <time>1970-01-01T02:15:53.000Z</time>
      </trkpt>
      <trkpt lat="40.382304" lon="-3.415643">
        <ele>667.6</ele>
        <time>1970-01-01T02:15:54.000Z</time>
      </trkpt>
      <trkpt lat="40.382343" lon="-3.415566">
        <ele>667.6</ele>
        <time>1970-01-01T02:15:55.000Z</time>
      </trkpt>
      <trkpt lat="40.382379" lon="-3.415486">
        <ele>667.8</ele>
        <time>1970-01-01T02:15:56.000Z</time>
      </trkpt>
      <trkpt lat="40.38241" lon="-3.415401">
        <ele>667.6</ele>
        <time>1970-01-01T02:15:57.000Z</time>
      </trkpt>
      <trkpt lat="40.382437" lon="-3.415312">
        <ele>667.4</ele>
        <time>1970-01-01T02:15:58.000Z</time>
      </trkpt>
      <trkpt lat="40.382461" lon="-3.41522">
        <ele>667.4</ele>
        <time>1970-01-01T02:15:59.000Z</time>
      </trkpt>
      <trkpt lat="40.382483" lon="-3.415125">
        <ele>667.2</ele>
        <time>1970-01-01T02:16:00.000Z</time>
      </trkpt>
      <trkpt lat="40.382504" lon="-3.415029">
        <ele>667</ele>
        <time>1970-01-01T02:16:01.000Z</time>
      </trkpt>
      <trkpt lat="40.382526" lon="-3.41493">
        <ele>667</ele>
        <time>1970-01-01T02:16:02.000Z</time>
      </trkpt>
      <trkpt lat="40.382548" lon="-3.41483">
        <ele>666.8</ele>
        <time>1970-01-01T02:16:03.000Z</time>
      </trkpt>
      <trkpt lat="40.382566" lon="-3.414726">
        <ele>666.8</ele>
        <time>1970-01-01T02:16:04.000Z</time>
      </trkpt>
      <trkpt lat="40.382585" lon="-3.414621">
        <ele>666.4</ele>
        <time>1970-01-01T02:16:05.000Z</time>
      </trkpt>
      <trkpt lat="40.3826" lon="-3.414515">
        <ele>666.2</ele>
        <time>1970-01-01T02:16:06.000Z</time>
      </trkpt>
      <trkpt lat="40.382617" lon="-3.414408">
        <ele>666</ele>
        <time>1970-01-01T02:16:07.000Z</time>
      </trkpt>
      <trkpt lat="40.382632" lon="-3.414302">
        <ele>665.6</ele>
        <time>1970-01-01T02:16:08.000Z</time>
      </trkpt>
      <trkpt lat="40.382648" lon="-3.414197">
        <ele>665.4</ele>
        <time>1970-01-01T02:16:09.000Z</time>
      </trkpt>
      <trkpt lat="40.382665" lon="-3.414091">
        <ele>665.2</ele>
        <time>1970-01-01T02:16:10.000Z</time>
      </trkpt>
      <trkpt lat="40.38268" lon="-3.413986">
        <ele>664.6</ele>
        <time>1970-01-01T02:16:11.000Z</time>
      </trkpt>
      <trkpt lat="40.382696" lon="-3.413882">
        <ele>664.6</ele>
        <time>1970-01-01T02:16:12.000Z</time>
      </trkpt>
      <trkpt lat="40.382714" lon="-3.41378">
        <ele>664.4</ele>
        <time>1970-01-01T02:16:13.000Z</time>
      </trkpt>
      <trkpt lat="40.382737" lon="-3.413682">
        <ele>664.2</ele>
        <time>1970-01-01T02:16:14.000Z</time>
      </trkpt>
      <trkpt lat="40.382764" lon="-3.413585">
        <ele>664</ele>
        <time>1970-01-01T02:16:15.000Z</time>
      </trkpt>
      <trkpt lat="40.382785" lon="-3.413485">
        <ele>664</ele>
        <time>1970-01-01T02:16:16.000Z</time>
      </trkpt>
      <trkpt lat="40.382796" lon="-3.413385">
        <ele>663.8</ele>
        <time>1970-01-01T02:16:17.000Z</time>
      </trkpt>
      <trkpt lat="40.382791" lon="-3.413288">
        <ele>663.6</ele>
        <time>1970-01-01T02:16:18.000Z</time>
      </trkpt>
      <trkpt lat="40.38278" lon="-3.413194">
        <ele>663.4</ele>
        <time>1970-01-01T02:16:19.000Z</time>
      </trkpt>
      <trkpt lat="40.38277" lon="-3.413106">
        <ele>663.2</ele>
        <time>1970-01-01T02:16:20.000Z</time>
      </trkpt>
      <trkpt lat="40.382763" lon="-3.413021">
        <ele>663.2</ele>
        <time>1970-01-01T02:16:21.000Z</time>
      </trkpt>
      <trkpt lat="40.382745" lon="-3.412937">
        <ele>663</ele>
        <time>1970-01-01T02:16:22.000Z</time>
      </trkpt>
      <trkpt lat="40.38273" lon="-3.412854">
        <ele>662.8</ele>
        <time>1970-01-01T02:16:23.000Z</time>
      </trkpt>
      <trkpt lat="40.382715" lon="-3.412772">
        <ele>662.6</ele>
        <time>1970-01-01T02:16:24.000Z</time>
      </trkpt>
      <trkpt lat="40.382697" lon="-3.412693">
        <ele>662.4</ele>
        <time>1970-01-01T02:16:25.000Z</time>
      </trkpt>
      <trkpt lat="40.382685" lon="-3.412617">
        <ele>662.2</ele>
        <time>1970-01-01T02:16:26.000Z</time>
      </trkpt>
      <trkpt lat="40.382672" lon="-3.412543">
        <ele>662.2</ele>
        <time>1970-01-01T02:16:27.000Z</time>
      </trkpt>
      <trkpt lat="40.382661" lon="-3.412471">
        <ele>662.2</ele>
        <time>1970-01-01T02:16:28.000Z</time>
      </trkpt>
      <trkpt lat="40.382651" lon="-3.412402">
        <ele>662.2</ele>
        <time>1970-01-01T02:16:29.000Z</time>
      </trkpt>
      <trkpt lat="40.38264" lon="-3.412336">
        <ele>662.2</ele>
        <time>1970-01-01T02:16:30.000Z</time>
      </trkpt>
      <trkpt lat="40.382627" lon="-3.412273">
        <ele>662.2</ele>
        <time>1970-01-01T02:16:31.000Z</time>
      </trkpt>
      <trkpt lat="40.382605" lon="-3.412218">
        <ele>662.2</ele>
        <time>1970-01-01T02:16:32.000Z</time>
      </trkpt>
      <trkpt lat="40.382571" lon="-3.412181">
        <ele>662.2</ele>
        <time>1970-01-01T02:16:33.000Z</time>
      </trkpt>
      <trkpt lat="40.382533" lon="-3.412173">
        <ele>662.2</ele>
        <time>1970-01-01T02:16:34.000Z</time>
      </trkpt>
      <trkpt lat="40.382505" lon="-3.412183">
        <ele>662.2</ele>
        <time>1970-01-01T02:16:35.000Z</time>
      </trkpt>
      <trkpt lat="40.382495" lon="-3.412189">
        <ele>662.2</ele>
        <time>1970-01-01T02:16:36.000Z</time>
      </trkpt>
    </trkseg>
  </trk>
</gpx>
